<?xml version="1.0" encoding="UTF-8" standalone="no" ?>
<gpx xmlns="http://www.topografix.com/GPX/1/1" xmlns:xsi="http://www.w3.org/2001/XMLSchema-instance" xsi:schemaLocation="http://www.topografix.com/GPX/1/1 http://www.topografix.com/GPX/1/1/gpx.xsd" version="1.1" creator="VisuGPX - https://www.visugpx.com">
  <metadata>
    <name>Cycling with friends</name>
    <desc><![CDATA[super trace avec un peut de déniveler des super descentes et des cours d eau a traversé ]]></desc>
  </metadata>
  <trk>
    <name><![CDATA[Cycling]]></name>
    <trkseg>
      <trkpt lat="44.53923" lon="0.6243">
        <ele>145.2</ele>
        <time>2017-01-22T07:54:36.000Z</time>
      </trkpt>
      <trkpt lat="44.53923" lon="0.6243">
        <ele>145.2</ele>
        <time>2017-01-22T07:54:37.000Z</time>
      </trkpt>
      <trkpt lat="44.53923" lon="0.62431">
        <ele>145.2</ele>
        <time>2017-01-22T07:54:38.000Z</time>
      </trkpt>
      <trkpt lat="44.53923" lon="0.62431">
        <ele>145.2</ele>
        <time>2017-01-22T07:54:39.000Z</time>
      </trkpt>
      <trkpt lat="44.53923" lon="0.62431">
        <ele>145.2</ele>
        <time>2017-01-22T07:54:40.000Z</time>
      </trkpt>
      <trkpt lat="44.53923" lon="0.62431">
        <ele>145.2</ele>
        <time>2017-01-22T07:54:41.000Z</time>
      </trkpt>
      <trkpt lat="44.53923" lon="0.62431">
        <ele>145.2</ele>
        <time>2017-01-22T07:54:42.000Z</time>
      </trkpt>
      <trkpt lat="44.53923" lon="0.62431">
        <ele>145.2</ele>
        <time>2017-01-22T07:54:43.000Z</time>
      </trkpt>
      <trkpt lat="44.53923" lon="0.62431">
        <ele>145.2</ele>
        <time>2017-01-22T07:54:44.000Z</time>
      </trkpt>
      <trkpt lat="44.53923" lon="0.62431">
        <ele>145.2</ele>
        <time>2017-01-22T07:54:45.000Z</time>
      </trkpt>
      <trkpt lat="44.53923" lon="0.62431">
        <ele>145.2</ele>
        <time>2017-01-22T07:54:46.000Z</time>
      </trkpt>
      <trkpt lat="44.53923" lon="0.62431">
        <ele>145.2</ele>
        <time>2017-01-22T07:54:47.000Z</time>
      </trkpt>
      <trkpt lat="44.53923" lon="0.62431">
        <ele>145.2</ele>
        <time>2017-01-22T07:54:48.000Z</time>
      </trkpt>
      <trkpt lat="44.53923" lon="0.62431">
        <ele>145.2</ele>
        <time>2017-01-22T07:54:49.000Z</time>
      </trkpt>
      <trkpt lat="44.53923" lon="0.62431">
        <ele>145.2</ele>
        <time>2017-01-22T07:54:50.000Z</time>
      </trkpt>
      <trkpt lat="44.53923" lon="0.62431">
        <ele>145.2</ele>
        <time>2017-01-22T07:54:51.000Z</time>
      </trkpt>
      <trkpt lat="44.53923" lon="0.62431">
        <ele>145.2</ele>
        <time>2017-01-22T07:54:52.000Z</time>
      </trkpt>
      <trkpt lat="44.53923" lon="0.62431">
        <ele>145.2</ele>
        <time>2017-01-22T07:54:53.000Z</time>
      </trkpt>
      <trkpt lat="44.53923" lon="0.62431">
        <ele>145.2</ele>
        <time>2017-01-22T07:54:54.000Z</time>
      </trkpt>
      <trkpt lat="44.53923" lon="0.62431">
        <ele>145.2</ele>
        <time>2017-01-22T07:54:55.000Z</time>
      </trkpt>
      <trkpt lat="44.53923" lon="0.62431">
        <ele>145.2</ele>
        <time>2017-01-22T07:54:56.000Z</time>
      </trkpt>
      <trkpt lat="44.53923" lon="0.62431">
        <ele>145.2</ele>
        <time>2017-01-22T07:54:57.000Z</time>
      </trkpt>
      <trkpt lat="44.53923" lon="0.62431">
        <ele>145.2</ele>
        <time>2017-01-22T07:54:58.000Z</time>
      </trkpt>
      <trkpt lat="44.53923" lon="0.62431">
        <ele>145.2</ele>
        <time>2017-01-22T07:54:59.000Z</time>
      </trkpt>
      <trkpt lat="44.53923" lon="0.62431">
        <ele>145.2</ele>
        <time>2017-01-22T07:55:00.000Z</time>
      </trkpt>
      <trkpt lat="44.53923" lon="0.62431">
        <ele>145.2</ele>
        <time>2017-01-22T07:55:01.000Z</time>
      </trkpt>
      <trkpt lat="44.53923" lon="0.62431">
        <ele>145.2</ele>
        <time>2017-01-22T07:55:02.000Z</time>
      </trkpt>
      <trkpt lat="44.53923" lon="0.62431">
        <ele>145.2</ele>
        <time>2017-01-22T07:55:03.000Z</time>
      </trkpt>
      <trkpt lat="44.53923" lon="0.62431">
        <ele>145.2</ele>
        <time>2017-01-22T07:55:04.000Z</time>
      </trkpt>
      <trkpt lat="44.53923" lon="0.62431">
        <ele>145.2</ele>
        <time>2017-01-22T07:55:05.000Z</time>
      </trkpt>
      <trkpt lat="44.53923" lon="0.62431">
        <ele>145.2</ele>
        <time>2017-01-22T07:55:06.000Z</time>
      </trkpt>
      <trkpt lat="44.53923" lon="0.62431">
        <ele>145.2</ele>
        <time>2017-01-22T07:55:07.000Z</time>
      </trkpt>
      <trkpt lat="44.53923" lon="0.62431">
        <ele>145.2</ele>
        <time>2017-01-22T07:55:08.000Z</time>
      </trkpt>
      <trkpt lat="44.53923" lon="0.62431">
        <ele>145.2</ele>
        <time>2017-01-22T07:55:09.000Z</time>
      </trkpt>
      <trkpt lat="44.53923" lon="0.62431">
        <ele>145.2</ele>
        <time>2017-01-22T07:55:10.000Z</time>
      </trkpt>
      <trkpt lat="44.53923" lon="0.62431">
        <ele>145.2</ele>
        <time>2017-01-22T07:55:11.000Z</time>
      </trkpt>
      <trkpt lat="44.53923" lon="0.62431">
        <ele>145.2</ele>
        <time>2017-01-22T07:55:12.000Z</time>
      </trkpt>
      <trkpt lat="44.53923" lon="0.62431">
        <ele>145.2</ele>
        <time>2017-01-22T07:55:13.000Z</time>
      </trkpt>
      <trkpt lat="44.53923" lon="0.62431">
        <ele>145.2</ele>
        <time>2017-01-22T07:55:14.000Z</time>
      </trkpt>
      <trkpt lat="44.53923" lon="0.62431">
        <ele>145.2</ele>
        <time>2017-01-22T07:55:15.000Z</time>
      </trkpt>
      <trkpt lat="44.53923" lon="0.62431">
        <ele>145.2</ele>
        <time>2017-01-22T07:55:16.000Z</time>
      </trkpt>
      <trkpt lat="44.53923" lon="0.62431">
        <ele>145.2</ele>
        <time>2017-01-22T07:55:17.000Z</time>
      </trkpt>
      <trkpt lat="44.53923" lon="0.62431">
        <ele>145.2</ele>
        <time>2017-01-22T07:55:18.000Z</time>
      </trkpt>
      <trkpt lat="44.53923" lon="0.62431">
        <ele>145.2</ele>
        <time>2017-01-22T07:55:19.000Z</time>
      </trkpt>
      <trkpt lat="44.53923" lon="0.62431">
        <ele>145.2</ele>
        <time>2017-01-22T07:55:20.000Z</time>
      </trkpt>
      <trkpt lat="44.53923" lon="0.62431">
        <ele>145.2</ele>
        <time>2017-01-22T07:55:21.000Z</time>
      </trkpt>
      <trkpt lat="44.53923" lon="0.62431">
        <ele>145.2</ele>
        <time>2017-01-22T07:55:22.000Z</time>
      </trkpt>
      <trkpt lat="44.53923" lon="0.62431">
        <ele>145.2</ele>
        <time>2017-01-22T07:55:23.000Z</time>
      </trkpt>
      <trkpt lat="44.53923" lon="0.62431">
        <ele>145.2</ele>
        <time>2017-01-22T07:55:24.000Z</time>
      </trkpt>
      <trkpt lat="44.53923" lon="0.62431">
        <ele>145.2</ele>
        <time>2017-01-22T07:55:25.000Z</time>
      </trkpt>
      <trkpt lat="44.53923" lon="0.62431">
        <ele>145.2</ele>
        <time>2017-01-22T07:55:26.000Z</time>
      </trkpt>
      <trkpt lat="44.53923" lon="0.62431">
        <ele>145.2</ele>
        <time>2017-01-22T07:55:27.000Z</time>
      </trkpt>
      <trkpt lat="44.53923" lon="0.62432">
        <ele>145.2</ele>
        <time>2017-01-22T07:55:28.000Z</time>
      </trkpt>
      <trkpt lat="44.53923" lon="0.62432">
        <ele>145.2</ele>
        <time>2017-01-22T07:55:29.000Z</time>
      </trkpt>
      <trkpt lat="44.53923" lon="0.62432">
        <ele>145.2</ele>
        <time>2017-01-22T07:55:30.000Z</time>
      </trkpt>
      <trkpt lat="44.53923" lon="0.62432">
        <ele>145.2</ele>
        <time>2017-01-22T07:55:31.000Z</time>
      </trkpt>
      <trkpt lat="44.53923" lon="0.62431">
        <ele>145.2</ele>
        <time>2017-01-22T07:55:32.000Z</time>
      </trkpt>
      <trkpt lat="44.53923" lon="0.62431">
        <ele>145.2</ele>
        <time>2017-01-22T07:55:33.000Z</time>
      </trkpt>
      <trkpt lat="44.53923" lon="0.62431">
        <ele>145.2</ele>
        <time>2017-01-22T07:55:34.000Z</time>
      </trkpt>
      <trkpt lat="44.53923" lon="0.62432">
        <ele>145.2</ele>
        <time>2017-01-22T07:55:35.000Z</time>
      </trkpt>
      <trkpt lat="44.53923" lon="0.62432">
        <ele>145.2</ele>
        <time>2017-01-22T07:55:36.000Z</time>
      </trkpt>
      <trkpt lat="44.53923" lon="0.62432">
        <ele>145.2</ele>
        <time>2017-01-22T07:55:37.000Z</time>
      </trkpt>
      <trkpt lat="44.53923" lon="0.62432">
        <ele>145.2</ele>
        <time>2017-01-22T07:55:38.000Z</time>
      </trkpt>
      <trkpt lat="44.53923" lon="0.62432">
        <ele>145.2</ele>
        <time>2017-01-22T07:55:39.000Z</time>
      </trkpt>
      <trkpt lat="44.53923" lon="0.62432">
        <ele>145.2</ele>
        <time>2017-01-22T07:55:40.000Z</time>
      </trkpt>
      <trkpt lat="44.53922" lon="0.62432">
        <ele>145.2</ele>
        <time>2017-01-22T07:55:41.000Z</time>
      </trkpt>
      <trkpt lat="44.53921" lon="0.62433">
        <ele>145.1</ele>
        <time>2017-01-22T07:55:42.000Z</time>
      </trkpt>
      <trkpt lat="44.5392" lon="0.62433">
        <ele>145</ele>
        <time>2017-01-22T07:55:43.000Z</time>
      </trkpt>
      <trkpt lat="44.53919" lon="0.62432">
        <ele>144.9</ele>
        <time>2017-01-22T07:55:44.000Z</time>
      </trkpt>
      <trkpt lat="44.53917" lon="0.62431">
        <ele>144.8</ele>
        <time>2017-01-22T07:55:45.000Z</time>
      </trkpt>
      <trkpt lat="44.53915" lon="0.62431">
        <ele>144.9</ele>
        <time>2017-01-22T07:55:46.000Z</time>
      </trkpt>
      <trkpt lat="44.53913" lon="0.62431">
        <ele>145</ele>
        <time>2017-01-22T07:55:47.000Z</time>
      </trkpt>
      <trkpt lat="44.53911" lon="0.62431">
        <ele>145.1</ele>
        <time>2017-01-22T07:55:48.000Z</time>
      </trkpt>
      <trkpt lat="44.53909" lon="0.62431">
        <ele>145.2</ele>
        <time>2017-01-22T07:55:49.000Z</time>
      </trkpt>
      <trkpt lat="44.53906" lon="0.62431">
        <ele>145.3</ele>
        <time>2017-01-22T07:55:50.000Z</time>
      </trkpt>
      <trkpt lat="44.53904" lon="0.6243">
        <ele>145.4</ele>
        <time>2017-01-22T07:55:51.000Z</time>
      </trkpt>
      <trkpt lat="44.53902" lon="0.6243">
        <ele>145.5</ele>
        <time>2017-01-22T07:55:52.000Z</time>
      </trkpt>
      <trkpt lat="44.53899" lon="0.6243">
        <ele>145.6</ele>
        <time>2017-01-22T07:55:53.000Z</time>
      </trkpt>
      <trkpt lat="44.53897" lon="0.6243">
        <ele>145.7</ele>
        <time>2017-01-22T07:55:54.000Z</time>
      </trkpt>
      <trkpt lat="44.53895" lon="0.62429">
        <ele>145.9</ele>
        <time>2017-01-22T07:55:55.000Z</time>
      </trkpt>
      <trkpt lat="44.53893" lon="0.62429">
        <ele>145.9</ele>
        <time>2017-01-22T07:55:56.000Z</time>
      </trkpt>
      <trkpt lat="44.53891" lon="0.6243">
        <ele>146</ele>
        <time>2017-01-22T07:55:57.000Z</time>
      </trkpt>
      <trkpt lat="44.53889" lon="0.62431">
        <ele>146.1</ele>
        <time>2017-01-22T07:55:58.000Z</time>
      </trkpt>
      <trkpt lat="44.53888" lon="0.62434">
        <ele>146.1</ele>
        <time>2017-01-22T07:55:59.000Z</time>
      </trkpt>
      <trkpt lat="44.53888" lon="0.62436">
        <ele>146.1</ele>
        <time>2017-01-22T07:56:00.000Z</time>
      </trkpt>
      <trkpt lat="44.53889" lon="0.6244">
        <ele>146</ele>
        <time>2017-01-22T07:56:01.000Z</time>
      </trkpt>
      <trkpt lat="44.5389" lon="0.62444">
        <ele>145.9</ele>
        <time>2017-01-22T07:56:02.000Z</time>
      </trkpt>
      <trkpt lat="44.5389" lon="0.62449">
        <ele>145.8</ele>
        <time>2017-01-22T07:56:03.000Z</time>
      </trkpt>
      <trkpt lat="44.53891" lon="0.62454">
        <ele>145.6</ele>
        <time>2017-01-22T07:56:04.000Z</time>
      </trkpt>
      <trkpt lat="44.53892" lon="0.6246">
        <ele>145.5</ele>
        <time>2017-01-22T07:56:05.000Z</time>
      </trkpt>
      <trkpt lat="44.53893" lon="0.62465">
        <ele>145.4</ele>
        <time>2017-01-22T07:56:06.000Z</time>
      </trkpt>
      <trkpt lat="44.53895" lon="0.6247">
        <ele>145.2</ele>
        <time>2017-01-22T07:56:07.000Z</time>
      </trkpt>
      <trkpt lat="44.53897" lon="0.62475">
        <ele>145.1</ele>
        <time>2017-01-22T07:56:08.000Z</time>
      </trkpt>
      <trkpt lat="44.539" lon="0.6248">
        <ele>144.9</ele>
        <time>2017-01-22T07:56:09.000Z</time>
      </trkpt>
      <trkpt lat="44.53903" lon="0.62484">
        <ele>144.7</ele>
        <time>2017-01-22T07:56:10.000Z</time>
      </trkpt>
      <trkpt lat="44.53906" lon="0.62487">
        <ele>144.6</ele>
        <time>2017-01-22T07:56:11.000Z</time>
      </trkpt>
      <trkpt lat="44.53909" lon="0.6249">
        <ele>144.4</ele>
        <time>2017-01-22T07:56:12.000Z</time>
      </trkpt>
      <trkpt lat="44.53912" lon="0.62492">
        <ele>144.3</ele>
        <time>2017-01-22T07:56:13.000Z</time>
      </trkpt>
      <trkpt lat="44.53914" lon="0.62495">
        <ele>144.2</ele>
        <time>2017-01-22T07:56:14.000Z</time>
      </trkpt>
      <trkpt lat="44.53916" lon="0.62497">
        <ele>144.1</ele>
        <time>2017-01-22T07:56:15.000Z</time>
      </trkpt>
      <trkpt lat="44.53919" lon="0.625">
        <ele>144</ele>
        <time>2017-01-22T07:56:16.000Z</time>
      </trkpt>
      <trkpt lat="44.53921" lon="0.62503">
        <ele>144</ele>
        <time>2017-01-22T07:56:17.000Z</time>
      </trkpt>
      <trkpt lat="44.53924" lon="0.62506">
        <ele>143.9</ele>
        <time>2017-01-22T07:56:18.000Z</time>
      </trkpt>
      <trkpt lat="44.53927" lon="0.62508">
        <ele>143.9</ele>
        <time>2017-01-22T07:56:19.000Z</time>
      </trkpt>
      <trkpt lat="44.5393" lon="0.6251">
        <ele>143.9</ele>
        <time>2017-01-22T07:56:20.000Z</time>
      </trkpt>
      <trkpt lat="44.53933" lon="0.62511">
        <ele>143.9</ele>
        <time>2017-01-22T07:56:21.000Z</time>
      </trkpt>
      <trkpt lat="44.53937" lon="0.62512">
        <ele>143.9</ele>
        <time>2017-01-22T07:56:22.000Z</time>
      </trkpt>
      <trkpt lat="44.53941" lon="0.62512">
        <ele>143.9</ele>
        <time>2017-01-22T07:56:23.000Z</time>
      </trkpt>
      <trkpt lat="44.53945" lon="0.62513">
        <ele>144</ele>
        <time>2017-01-22T07:56:24.000Z</time>
      </trkpt>
      <trkpt lat="44.53948" lon="0.62514">
        <ele>144</ele>
        <time>2017-01-22T07:56:25.000Z</time>
      </trkpt>
      <trkpt lat="44.53952" lon="0.62516">
        <ele>144</ele>
        <time>2017-01-22T07:56:26.000Z</time>
      </trkpt>
      <trkpt lat="44.53955" lon="0.62518">
        <ele>143.9</ele>
        <time>2017-01-22T07:56:27.000Z</time>
      </trkpt>
      <trkpt lat="44.53958" lon="0.6252">
        <ele>143.9</ele>
        <time>2017-01-22T07:56:28.000Z</time>
      </trkpt>
      <trkpt lat="44.53961" lon="0.62523">
        <ele>143.8</ele>
        <time>2017-01-22T07:56:29.000Z</time>
      </trkpt>
      <trkpt lat="44.53964" lon="0.62526">
        <ele>143.8</ele>
        <time>2017-01-22T07:56:30.000Z</time>
      </trkpt>
      <trkpt lat="44.53967" lon="0.62529">
        <ele>143.7</ele>
        <time>2017-01-22T07:56:31.000Z</time>
      </trkpt>
      <trkpt lat="44.5397" lon="0.62532">
        <ele>143.6</ele>
        <time>2017-01-22T07:56:32.000Z</time>
      </trkpt>
      <trkpt lat="44.53973" lon="0.62535">
        <ele>143.5</ele>
        <time>2017-01-22T07:56:33.000Z</time>
      </trkpt>
      <trkpt lat="44.53976" lon="0.62539">
        <ele>143.4</ele>
        <time>2017-01-22T07:56:34.000Z</time>
      </trkpt>
      <trkpt lat="44.53979" lon="0.62542">
        <ele>143.4</ele>
        <time>2017-01-22T07:56:35.000Z</time>
      </trkpt>
      <trkpt lat="44.53982" lon="0.62546">
        <ele>143.2</ele>
        <time>2017-01-22T07:56:36.000Z</time>
      </trkpt>
      <trkpt lat="44.53985" lon="0.6255">
        <ele>143.1</ele>
        <time>2017-01-22T07:56:37.000Z</time>
      </trkpt>
      <trkpt lat="44.53988" lon="0.62554">
        <ele>143</ele>
        <time>2017-01-22T07:56:38.000Z</time>
      </trkpt>
      <trkpt lat="44.53991" lon="0.62558">
        <ele>142.9</ele>
        <time>2017-01-22T07:56:39.000Z</time>
      </trkpt>
      <trkpt lat="44.53994" lon="0.62563">
        <ele>142.7</ele>
        <time>2017-01-22T07:56:40.000Z</time>
      </trkpt>
      <trkpt lat="44.53997" lon="0.62568">
        <ele>142.5</ele>
        <time>2017-01-22T07:56:41.000Z</time>
      </trkpt>
      <trkpt lat="44.53999" lon="0.62573">
        <ele>142.4</ele>
        <time>2017-01-22T07:56:42.000Z</time>
      </trkpt>
      <trkpt lat="44.54002" lon="0.62579">
        <ele>142.2</ele>
        <time>2017-01-22T07:56:43.000Z</time>
      </trkpt>
      <trkpt lat="44.54004" lon="0.62586">
        <ele>141.9</ele>
        <time>2017-01-22T07:56:44.000Z</time>
      </trkpt>
      <trkpt lat="44.54007" lon="0.62592">
        <ele>141.6</ele>
        <time>2017-01-22T07:56:45.000Z</time>
      </trkpt>
      <trkpt lat="44.54009" lon="0.62599">
        <ele>141.3</ele>
        <time>2017-01-22T07:56:46.000Z</time>
      </trkpt>
      <trkpt lat="44.54012" lon="0.62605">
        <ele>141</ele>
        <time>2017-01-22T07:56:47.000Z</time>
      </trkpt>
      <trkpt lat="44.54015" lon="0.62611">
        <ele>140.8</ele>
        <time>2017-01-22T07:56:48.000Z</time>
      </trkpt>
      <trkpt lat="44.54019" lon="0.62615">
        <ele>140.5</ele>
        <time>2017-01-22T07:56:49.000Z</time>
      </trkpt>
      <trkpt lat="44.54024" lon="0.62619">
        <ele>140.3</ele>
        <time>2017-01-22T07:56:50.000Z</time>
      </trkpt>
      <trkpt lat="44.54028" lon="0.62623">
        <ele>140.1</ele>
        <time>2017-01-22T07:56:51.000Z</time>
      </trkpt>
      <trkpt lat="44.54031" lon="0.62627">
        <ele>139.9</ele>
        <time>2017-01-22T07:56:52.000Z</time>
      </trkpt>
      <trkpt lat="44.54033" lon="0.62633">
        <ele>139.6</ele>
        <time>2017-01-22T07:56:53.000Z</time>
      </trkpt>
      <trkpt lat="44.54035" lon="0.62638">
        <ele>139.2</ele>
        <time>2017-01-22T07:56:54.000Z</time>
      </trkpt>
      <trkpt lat="44.54037" lon="0.62644">
        <ele>138.9</ele>
        <time>2017-01-22T07:56:55.000Z</time>
      </trkpt>
      <trkpt lat="44.54039" lon="0.62649">
        <ele>138.6</ele>
        <time>2017-01-22T07:56:56.000Z</time>
      </trkpt>
      <trkpt lat="44.54041" lon="0.62655">
        <ele>138.2</ele>
        <time>2017-01-22T07:56:57.000Z</time>
      </trkpt>
      <trkpt lat="44.54043" lon="0.62661">
        <ele>137.9</ele>
        <time>2017-01-22T07:56:58.000Z</time>
      </trkpt>
      <trkpt lat="44.54045" lon="0.62666">
        <ele>137.5</ele>
        <time>2017-01-22T07:56:59.000Z</time>
      </trkpt>
      <trkpt lat="44.54047" lon="0.62672">
        <ele>137.3</ele>
        <time>2017-01-22T07:57:00.000Z</time>
      </trkpt>
      <trkpt lat="44.54049" lon="0.62676">
        <ele>137.2</ele>
        <time>2017-01-22T07:57:01.000Z</time>
      </trkpt>
      <trkpt lat="44.54052" lon="0.62681">
        <ele>137.1</ele>
        <time>2017-01-22T07:57:02.000Z</time>
      </trkpt>
      <trkpt lat="44.54054" lon="0.62686">
        <ele>137</ele>
        <time>2017-01-22T07:57:03.000Z</time>
      </trkpt>
      <trkpt lat="44.54056" lon="0.6269">
        <ele>136.9</ele>
        <time>2017-01-22T07:57:04.000Z</time>
      </trkpt>
      <trkpt lat="44.54058" lon="0.62695">
        <ele>136.7</ele>
        <time>2017-01-22T07:57:05.000Z</time>
      </trkpt>
      <trkpt lat="44.5406" lon="0.62699">
        <ele>136.6</ele>
        <time>2017-01-22T07:57:06.000Z</time>
      </trkpt>
      <trkpt lat="44.54062" lon="0.62704">
        <ele>136.5</ele>
        <time>2017-01-22T07:57:07.000Z</time>
      </trkpt>
      <trkpt lat="44.54063" lon="0.62709">
        <ele>136.3</ele>
        <time>2017-01-22T07:57:08.000Z</time>
      </trkpt>
      <trkpt lat="44.54065" lon="0.62714">
        <ele>136.2</ele>
        <time>2017-01-22T07:57:09.000Z</time>
      </trkpt>
      <trkpt lat="44.54067" lon="0.62718">
        <ele>136.1</ele>
        <time>2017-01-22T07:57:10.000Z</time>
      </trkpt>
      <trkpt lat="44.54069" lon="0.62722">
        <ele>136</ele>
        <time>2017-01-22T07:57:11.000Z</time>
      </trkpt>
      <trkpt lat="44.54072" lon="0.62725">
        <ele>135.8</ele>
        <time>2017-01-22T07:57:12.000Z</time>
      </trkpt>
      <trkpt lat="44.54076" lon="0.62727">
        <ele>135.7</ele>
        <time>2017-01-22T07:57:13.000Z</time>
      </trkpt>
      <trkpt lat="44.54081" lon="0.62729">
        <ele>135.6</ele>
        <time>2017-01-22T07:57:14.000Z</time>
      </trkpt>
      <trkpt lat="44.54086" lon="0.62731">
        <ele>135.5</ele>
        <time>2017-01-22T07:57:15.000Z</time>
      </trkpt>
      <trkpt lat="44.54091" lon="0.62731">
        <ele>135.7</ele>
        <time>2017-01-22T07:57:16.000Z</time>
      </trkpt>
      <trkpt lat="44.54097" lon="0.62732">
        <ele>135.8</ele>
        <time>2017-01-22T07:57:17.000Z</time>
      </trkpt>
      <trkpt lat="44.54101" lon="0.62731">
        <ele>135.9</ele>
        <time>2017-01-22T07:57:18.000Z</time>
      </trkpt>
      <trkpt lat="44.54106" lon="0.6273">
        <ele>136.1</ele>
        <time>2017-01-22T07:57:19.000Z</time>
      </trkpt>
      <trkpt lat="44.5411" lon="0.62728">
        <ele>136.3</ele>
        <time>2017-01-22T07:57:20.000Z</time>
      </trkpt>
      <trkpt lat="44.54115" lon="0.62726">
        <ele>136.4</ele>
        <time>2017-01-22T07:57:21.000Z</time>
      </trkpt>
      <trkpt lat="44.54119" lon="0.62723">
        <ele>136.6</ele>
        <time>2017-01-22T07:57:22.000Z</time>
      </trkpt>
      <trkpt lat="44.54123" lon="0.62721">
        <ele>136.8</ele>
        <time>2017-01-22T07:57:23.000Z</time>
      </trkpt>
      <trkpt lat="44.54126" lon="0.62718">
        <ele>137</ele>
        <time>2017-01-22T07:57:24.000Z</time>
      </trkpt>
      <trkpt lat="44.5413" lon="0.62714">
        <ele>137.2</ele>
        <time>2017-01-22T07:57:25.000Z</time>
      </trkpt>
      <trkpt lat="44.54134" lon="0.62711">
        <ele>137.4</ele>
        <time>2017-01-22T07:57:26.000Z</time>
      </trkpt>
      <trkpt lat="44.54137" lon="0.62708">
        <ele>137.6</ele>
        <time>2017-01-22T07:57:27.000Z</time>
      </trkpt>
      <trkpt lat="44.5414" lon="0.62705">
        <ele>137.8</ele>
        <time>2017-01-22T07:57:28.000Z</time>
      </trkpt>
      <trkpt lat="44.54143" lon="0.62703">
        <ele>138</ele>
        <time>2017-01-22T07:57:29.000Z</time>
      </trkpt>
      <trkpt lat="44.54146" lon="0.627">
        <ele>138.2</ele>
        <time>2017-01-22T07:57:30.000Z</time>
      </trkpt>
      <trkpt lat="44.54149" lon="0.62697">
        <ele>138.4</ele>
        <time>2017-01-22T07:57:31.000Z</time>
      </trkpt>
      <trkpt lat="44.54152" lon="0.62694">
        <ele>138.5</ele>
        <time>2017-01-22T07:57:32.000Z</time>
      </trkpt>
      <trkpt lat="44.54155" lon="0.62692">
        <ele>138.7</ele>
        <time>2017-01-22T07:57:33.000Z</time>
      </trkpt>
      <trkpt lat="44.54158" lon="0.62689">
        <ele>138.9</ele>
        <time>2017-01-22T07:57:34.000Z</time>
      </trkpt>
      <trkpt lat="44.54161" lon="0.62688">
        <ele>139.1</ele>
        <time>2017-01-22T07:57:35.000Z</time>
      </trkpt>
      <trkpt lat="44.54163" lon="0.62687">
        <ele>139.2</ele>
        <time>2017-01-22T07:57:36.000Z</time>
      </trkpt>
      <trkpt lat="44.54165" lon="0.62688">
        <ele>139.2</ele>
        <time>2017-01-22T07:57:37.000Z</time>
      </trkpt>
      <trkpt lat="44.54167" lon="0.6269">
        <ele>139.2</ele>
        <time>2017-01-22T07:57:38.000Z</time>
      </trkpt>
      <trkpt lat="44.54168" lon="0.62693">
        <ele>139.1</ele>
        <time>2017-01-22T07:57:39.000Z</time>
      </trkpt>
      <trkpt lat="44.54169" lon="0.62697">
        <ele>139.1</ele>
        <time>2017-01-22T07:57:40.000Z</time>
      </trkpt>
      <trkpt lat="44.5417" lon="0.627">
        <ele>139</ele>
        <time>2017-01-22T07:57:41.000Z</time>
      </trkpt>
      <trkpt lat="44.54171" lon="0.62703">
        <ele>139</ele>
        <time>2017-01-22T07:57:42.000Z</time>
      </trkpt>
      <trkpt lat="44.54172" lon="0.62706">
        <ele>138.9</ele>
        <time>2017-01-22T07:57:43.000Z</time>
      </trkpt>
      <trkpt lat="44.54173" lon="0.62708">
        <ele>138.9</ele>
        <time>2017-01-22T07:57:44.000Z</time>
      </trkpt>
      <trkpt lat="44.54174" lon="0.62711">
        <ele>138.9</ele>
        <time>2017-01-22T07:57:45.000Z</time>
      </trkpt>
      <trkpt lat="44.54175" lon="0.62714">
        <ele>138.8</ele>
        <time>2017-01-22T07:57:46.000Z</time>
      </trkpt>
      <trkpt lat="44.54176" lon="0.62718">
        <ele>138.8</ele>
        <time>2017-01-22T07:57:47.000Z</time>
      </trkpt>
      <trkpt lat="44.54176" lon="0.62721">
        <ele>138.7</ele>
        <time>2017-01-22T07:57:48.000Z</time>
      </trkpt>
      <trkpt lat="44.54177" lon="0.62725">
        <ele>138.6</ele>
        <time>2017-01-22T07:57:49.000Z</time>
      </trkpt>
      <trkpt lat="44.54179" lon="0.62729">
        <ele>138.6</ele>
        <time>2017-01-22T07:57:50.000Z</time>
      </trkpt>
      <trkpt lat="44.5418" lon="0.62733">
        <ele>138.5</ele>
        <time>2017-01-22T07:57:51.000Z</time>
      </trkpt>
      <trkpt lat="44.54181" lon="0.62738">
        <ele>138.4</ele>
        <time>2017-01-22T07:57:52.000Z</time>
      </trkpt>
      <trkpt lat="44.54182" lon="0.62742">
        <ele>138.4</ele>
        <time>2017-01-22T07:57:53.000Z</time>
      </trkpt>
      <trkpt lat="44.54184" lon="0.62747">
        <ele>138.4</ele>
        <time>2017-01-22T07:57:54.000Z</time>
      </trkpt>
      <trkpt lat="44.54186" lon="0.62751">
        <ele>138.4</ele>
        <time>2017-01-22T07:57:55.000Z</time>
      </trkpt>
      <trkpt lat="44.54188" lon="0.62755">
        <ele>138.4</ele>
        <time>2017-01-22T07:57:56.000Z</time>
      </trkpt>
      <trkpt lat="44.5419" lon="0.6276">
        <ele>138.4</ele>
        <time>2017-01-22T07:57:57.000Z</time>
      </trkpt>
      <trkpt lat="44.54192" lon="0.62764">
        <ele>138.4</ele>
        <time>2017-01-22T07:57:58.000Z</time>
      </trkpt>
      <trkpt lat="44.54195" lon="0.62768">
        <ele>138.5</ele>
        <time>2017-01-22T07:57:59.000Z</time>
      </trkpt>
      <trkpt lat="44.54197" lon="0.62772">
        <ele>138.6</ele>
        <time>2017-01-22T07:58:00.000Z</time>
      </trkpt>
      <trkpt lat="44.542" lon="0.62776">
        <ele>138.6</ele>
        <time>2017-01-22T07:58:01.000Z</time>
      </trkpt>
      <trkpt lat="44.54203" lon="0.6278">
        <ele>138.7</ele>
        <time>2017-01-22T07:58:02.000Z</time>
      </trkpt>
      <trkpt lat="44.54206" lon="0.62784">
        <ele>138.8</ele>
        <time>2017-01-22T07:58:03.000Z</time>
      </trkpt>
      <trkpt lat="44.54209" lon="0.62787">
        <ele>138.9</ele>
        <time>2017-01-22T07:58:04.000Z</time>
      </trkpt>
      <trkpt lat="44.54212" lon="0.62791">
        <ele>139</ele>
        <time>2017-01-22T07:58:05.000Z</time>
      </trkpt>
      <trkpt lat="44.54215" lon="0.62794">
        <ele>139.1</ele>
        <time>2017-01-22T07:58:06.000Z</time>
      </trkpt>
      <trkpt lat="44.54218" lon="0.62797">
        <ele>139.3</ele>
        <time>2017-01-22T07:58:07.000Z</time>
      </trkpt>
      <trkpt lat="44.54222" lon="0.628">
        <ele>139.4</ele>
        <time>2017-01-22T07:58:08.000Z</time>
      </trkpt>
      <trkpt lat="44.54225" lon="0.62802">
        <ele>139.5</ele>
        <time>2017-01-22T07:58:09.000Z</time>
      </trkpt>
      <trkpt lat="44.54228" lon="0.62805">
        <ele>139.6</ele>
        <time>2017-01-22T07:58:10.000Z</time>
      </trkpt>
      <trkpt lat="44.54231" lon="0.62807">
        <ele>139.8</ele>
        <time>2017-01-22T07:58:11.000Z</time>
      </trkpt>
      <trkpt lat="44.54234" lon="0.62809">
        <ele>139.9</ele>
        <time>2017-01-22T07:58:12.000Z</time>
      </trkpt>
      <trkpt lat="44.54237" lon="0.62811">
        <ele>140</ele>
        <time>2017-01-22T07:58:13.000Z</time>
      </trkpt>
      <trkpt lat="44.54239" lon="0.62813">
        <ele>140.1</ele>
        <time>2017-01-22T07:58:14.000Z</time>
      </trkpt>
      <trkpt lat="44.54242" lon="0.62815">
        <ele>140.1</ele>
        <time>2017-01-22T07:58:15.000Z</time>
      </trkpt>
      <trkpt lat="44.54244" lon="0.62817">
        <ele>140.2</ele>
        <time>2017-01-22T07:58:16.000Z</time>
      </trkpt>
      <trkpt lat="44.54246" lon="0.62819">
        <ele>140.3</ele>
        <time>2017-01-22T07:58:17.000Z</time>
      </trkpt>
      <trkpt lat="44.54249" lon="0.62821">
        <ele>140.4</ele>
        <time>2017-01-22T07:58:18.000Z</time>
      </trkpt>
      <trkpt lat="44.54252" lon="0.62823">
        <ele>140.5</ele>
        <time>2017-01-22T07:58:19.000Z</time>
      </trkpt>
      <trkpt lat="44.54254" lon="0.62825">
        <ele>140.5</ele>
        <time>2017-01-22T07:58:20.000Z</time>
      </trkpt>
      <trkpt lat="44.54257" lon="0.62827">
        <ele>140.6</ele>
        <time>2017-01-22T07:58:21.000Z</time>
      </trkpt>
      <trkpt lat="44.54259" lon="0.62829">
        <ele>140.7</ele>
        <time>2017-01-22T07:58:22.000Z</time>
      </trkpt>
      <trkpt lat="44.54262" lon="0.62831">
        <ele>140.8</ele>
        <time>2017-01-22T07:58:23.000Z</time>
      </trkpt>
      <trkpt lat="44.54264" lon="0.62833">
        <ele>140.9</ele>
        <time>2017-01-22T07:58:24.000Z</time>
      </trkpt>
      <trkpt lat="44.54267" lon="0.62835">
        <ele>140.9</ele>
        <time>2017-01-22T07:58:25.000Z</time>
      </trkpt>
      <trkpt lat="44.54269" lon="0.62837">
        <ele>141</ele>
        <time>2017-01-22T07:58:26.000Z</time>
      </trkpt>
      <trkpt lat="44.54272" lon="0.62838">
        <ele>141.1</ele>
        <time>2017-01-22T07:58:27.000Z</time>
      </trkpt>
      <trkpt lat="44.54274" lon="0.6284">
        <ele>141.1</ele>
        <time>2017-01-22T07:58:28.000Z</time>
      </trkpt>
      <trkpt lat="44.54276" lon="0.62842">
        <ele>141.2</ele>
        <time>2017-01-22T07:58:29.000Z</time>
      </trkpt>
      <trkpt lat="44.54278" lon="0.62844">
        <ele>141.2</ele>
        <time>2017-01-22T07:58:30.000Z</time>
      </trkpt>
      <trkpt lat="44.5428" lon="0.62845">
        <ele>141.3</ele>
        <time>2017-01-22T07:58:31.000Z</time>
      </trkpt>
      <trkpt lat="44.54282" lon="0.62847">
        <ele>141.3</ele>
        <time>2017-01-22T07:58:32.000Z</time>
      </trkpt>
      <trkpt lat="44.54284" lon="0.62849">
        <ele>141.3</ele>
        <time>2017-01-22T07:58:33.000Z</time>
      </trkpt>
      <trkpt lat="44.54286" lon="0.6285">
        <ele>141.4</ele>
        <time>2017-01-22T07:58:34.000Z</time>
      </trkpt>
      <trkpt lat="44.54288" lon="0.62852">
        <ele>141.4</ele>
        <time>2017-01-22T07:58:35.000Z</time>
      </trkpt>
      <trkpt lat="44.5429" lon="0.62854">
        <ele>141.4</ele>
        <time>2017-01-22T07:58:36.000Z</time>
      </trkpt>
      <trkpt lat="44.54292" lon="0.62855">
        <ele>141.5</ele>
        <time>2017-01-22T07:58:37.000Z</time>
      </trkpt>
      <trkpt lat="44.54294" lon="0.62857">
        <ele>141.5</ele>
        <time>2017-01-22T07:58:38.000Z</time>
      </trkpt>
      <trkpt lat="44.54296" lon="0.62858">
        <ele>141.5</ele>
        <time>2017-01-22T07:58:39.000Z</time>
      </trkpt>
      <trkpt lat="44.54298" lon="0.6286">
        <ele>141.6</ele>
        <time>2017-01-22T07:58:40.000Z</time>
      </trkpt>
      <trkpt lat="44.543" lon="0.62862">
        <ele>141.6</ele>
        <time>2017-01-22T07:58:41.000Z</time>
      </trkpt>
      <trkpt lat="44.54302" lon="0.62863">
        <ele>141.6</ele>
        <time>2017-01-22T07:58:42.000Z</time>
      </trkpt>
      <trkpt lat="44.54304" lon="0.62865">
        <ele>141.6</ele>
        <time>2017-01-22T07:58:43.000Z</time>
      </trkpt>
      <trkpt lat="44.54306" lon="0.62867">
        <ele>141.6</ele>
        <time>2017-01-22T07:58:44.000Z</time>
      </trkpt>
      <trkpt lat="44.54309" lon="0.62869">
        <ele>141.6</ele>
        <time>2017-01-22T07:58:45.000Z</time>
      </trkpt>
      <trkpt lat="44.54311" lon="0.62871">
        <ele>141.6</ele>
        <time>2017-01-22T07:58:46.000Z</time>
      </trkpt>
      <trkpt lat="44.54314" lon="0.62873">
        <ele>141.6</ele>
        <time>2017-01-22T07:58:47.000Z</time>
      </trkpt>
      <trkpt lat="44.54316" lon="0.62876">
        <ele>141.6</ele>
        <time>2017-01-22T07:58:48.000Z</time>
      </trkpt>
      <trkpt lat="44.54319" lon="0.62879">
        <ele>141.6</ele>
        <time>2017-01-22T07:58:49.000Z</time>
      </trkpt>
      <trkpt lat="44.54322" lon="0.62881">
        <ele>141.6</ele>
        <time>2017-01-22T07:58:50.000Z</time>
      </trkpt>
      <trkpt lat="44.54324" lon="0.62884">
        <ele>141.5</ele>
        <time>2017-01-22T07:58:51.000Z</time>
      </trkpt>
      <trkpt lat="44.54327" lon="0.62887">
        <ele>141.5</ele>
        <time>2017-01-22T07:58:52.000Z</time>
      </trkpt>
      <trkpt lat="44.5433" lon="0.62891">
        <ele>141.4</ele>
        <time>2017-01-22T07:58:53.000Z</time>
      </trkpt>
      <trkpt lat="44.54333" lon="0.62894">
        <ele>141.4</ele>
        <time>2017-01-22T07:58:54.000Z</time>
      </trkpt>
      <trkpt lat="44.54336" lon="0.62897">
        <ele>141.1</ele>
        <time>2017-01-22T07:58:55.000Z</time>
      </trkpt>
      <trkpt lat="44.54339" lon="0.629">
        <ele>140.8</ele>
        <time>2017-01-22T07:58:56.000Z</time>
      </trkpt>
      <trkpt lat="44.54341" lon="0.62903">
        <ele>140.5</ele>
        <time>2017-01-22T07:58:57.000Z</time>
      </trkpt>
      <trkpt lat="44.54344" lon="0.62906">
        <ele>140.3</ele>
        <time>2017-01-22T07:58:58.000Z</time>
      </trkpt>
      <trkpt lat="44.54347" lon="0.62908">
        <ele>140</ele>
        <time>2017-01-22T07:58:59.000Z</time>
      </trkpt>
      <trkpt lat="44.54349" lon="0.62911">
        <ele>139.7</ele>
        <time>2017-01-22T07:59:00.000Z</time>
      </trkpt>
      <trkpt lat="44.54352" lon="0.62914">
        <ele>139.5</ele>
        <time>2017-01-22T07:59:01.000Z</time>
      </trkpt>
      <trkpt lat="44.54355" lon="0.62918">
        <ele>139.2</ele>
        <time>2017-01-22T07:59:02.000Z</time>
      </trkpt>
      <trkpt lat="44.54358" lon="0.62922">
        <ele>138.8</ele>
        <time>2017-01-22T07:59:03.000Z</time>
      </trkpt>
      <trkpt lat="44.54362" lon="0.62926">
        <ele>138.3</ele>
        <time>2017-01-22T07:59:04.000Z</time>
      </trkpt>
      <trkpt lat="44.54366" lon="0.62931">
        <ele>137.8</ele>
        <time>2017-01-22T07:59:05.000Z</time>
      </trkpt>
      <trkpt lat="44.5437" lon="0.62936">
        <ele>137.3</ele>
        <time>2017-01-22T07:59:06.000Z</time>
      </trkpt>
      <trkpt lat="44.54375" lon="0.62942">
        <ele>136.7</ele>
        <time>2017-01-22T07:59:07.000Z</time>
      </trkpt>
      <trkpt lat="44.5438" lon="0.62948">
        <ele>136.1</ele>
        <time>2017-01-22T07:59:08.000Z</time>
      </trkpt>
      <trkpt lat="44.54386" lon="0.62954">
        <ele>135.4</ele>
        <time>2017-01-22T07:59:09.000Z</time>
      </trkpt>
      <trkpt lat="44.54391" lon="0.62961">
        <ele>134.7</ele>
        <time>2017-01-22T07:59:10.000Z</time>
      </trkpt>
      <trkpt lat="44.54397" lon="0.62968">
        <ele>134</ele>
        <time>2017-01-22T07:59:11.000Z</time>
      </trkpt>
      <trkpt lat="44.54403" lon="0.62974">
        <ele>133.4</ele>
        <time>2017-01-22T07:59:12.000Z</time>
      </trkpt>
      <trkpt lat="44.54409" lon="0.62981">
        <ele>132.7</ele>
        <time>2017-01-22T07:59:13.000Z</time>
      </trkpt>
      <trkpt lat="44.54414" lon="0.62988">
        <ele>132</ele>
        <time>2017-01-22T07:59:14.000Z</time>
      </trkpt>
      <trkpt lat="44.5442" lon="0.62994">
        <ele>131.4</ele>
        <time>2017-01-22T07:59:15.000Z</time>
      </trkpt>
      <trkpt lat="44.54426" lon="0.63001">
        <ele>131</ele>
        <time>2017-01-22T07:59:16.000Z</time>
      </trkpt>
      <trkpt lat="44.54431" lon="0.63008">
        <ele>130.8</ele>
        <time>2017-01-22T07:59:17.000Z</time>
      </trkpt>
      <trkpt lat="44.54436" lon="0.63015">
        <ele>130.7</ele>
        <time>2017-01-22T07:59:18.000Z</time>
      </trkpt>
      <trkpt lat="44.54441" lon="0.63022">
        <ele>130.6</ele>
        <time>2017-01-22T07:59:19.000Z</time>
      </trkpt>
      <trkpt lat="44.54445" lon="0.63028">
        <ele>130.4</ele>
        <time>2017-01-22T07:59:20.000Z</time>
      </trkpt>
      <trkpt lat="44.5445" lon="0.63035">
        <ele>130.3</ele>
        <time>2017-01-22T07:59:21.000Z</time>
      </trkpt>
      <trkpt lat="44.54453" lon="0.63042">
        <ele>130.2</ele>
        <time>2017-01-22T07:59:22.000Z</time>
      </trkpt>
      <trkpt lat="44.54457" lon="0.63048">
        <ele>130.1</ele>
        <time>2017-01-22T07:59:23.000Z</time>
      </trkpt>
      <trkpt lat="44.5446" lon="0.63054">
        <ele>130</ele>
        <time>2017-01-22T07:59:24.000Z</time>
      </trkpt>
      <trkpt lat="44.54463" lon="0.6306">
        <ele>130</ele>
        <time>2017-01-22T07:59:25.000Z</time>
      </trkpt>
      <trkpt lat="44.54466" lon="0.63066">
        <ele>129.9</ele>
        <time>2017-01-22T07:59:26.000Z</time>
      </trkpt>
      <trkpt lat="44.54469" lon="0.63071">
        <ele>129.8</ele>
        <time>2017-01-22T07:59:27.000Z</time>
      </trkpt>
      <trkpt lat="44.54472" lon="0.63077">
        <ele>129.8</ele>
        <time>2017-01-22T07:59:28.000Z</time>
      </trkpt>
      <trkpt lat="44.54475" lon="0.63082">
        <ele>129.7</ele>
        <time>2017-01-22T07:59:29.000Z</time>
      </trkpt>
      <trkpt lat="44.54478" lon="0.63087">
        <ele>129.6</ele>
        <time>2017-01-22T07:59:30.000Z</time>
      </trkpt>
      <trkpt lat="44.54481" lon="0.63092">
        <ele>129.5</ele>
        <time>2017-01-22T07:59:31.000Z</time>
      </trkpt>
      <trkpt lat="44.54484" lon="0.63097">
        <ele>129.3</ele>
        <time>2017-01-22T07:59:32.000Z</time>
      </trkpt>
      <trkpt lat="44.54487" lon="0.63102">
        <ele>129.2</ele>
        <time>2017-01-22T07:59:33.000Z</time>
      </trkpt>
      <trkpt lat="44.5449" lon="0.63107">
        <ele>129</ele>
        <time>2017-01-22T07:59:34.000Z</time>
      </trkpt>
      <trkpt lat="44.54492" lon="0.63111">
        <ele>128.9</ele>
        <time>2017-01-22T07:59:35.000Z</time>
      </trkpt>
      <trkpt lat="44.54495" lon="0.63116">
        <ele>128.8</ele>
        <time>2017-01-22T07:59:36.000Z</time>
      </trkpt>
      <trkpt lat="44.54498" lon="0.63121">
        <ele>128.6</ele>
        <time>2017-01-22T07:59:37.000Z</time>
      </trkpt>
      <trkpt lat="44.54501" lon="0.63126">
        <ele>128.5</ele>
        <time>2017-01-22T07:59:38.000Z</time>
      </trkpt>
      <trkpt lat="44.54503" lon="0.6313">
        <ele>128.5</ele>
        <time>2017-01-22T07:59:39.000Z</time>
      </trkpt>
      <trkpt lat="44.54506" lon="0.63135">
        <ele>128.5</ele>
        <time>2017-01-22T07:59:40.000Z</time>
      </trkpt>
      <trkpt lat="44.54509" lon="0.6314">
        <ele>128.4</ele>
        <time>2017-01-22T07:59:41.000Z</time>
      </trkpt>
      <trkpt lat="44.54512" lon="0.63144">
        <ele>128.4</ele>
        <time>2017-01-22T07:59:42.000Z</time>
      </trkpt>
      <trkpt lat="44.54515" lon="0.63149">
        <ele>128.4</ele>
        <time>2017-01-22T07:59:43.000Z</time>
      </trkpt>
      <trkpt lat="44.54517" lon="0.63153">
        <ele>128.4</ele>
        <time>2017-01-22T07:59:44.000Z</time>
      </trkpt>
      <trkpt lat="44.5452" lon="0.63158">
        <ele>128.4</ele>
        <time>2017-01-22T07:59:45.000Z</time>
      </trkpt>
      <trkpt lat="44.54521" lon="0.63162">
        <ele>128.4</ele>
        <time>2017-01-22T07:59:46.000Z</time>
      </trkpt>
      <trkpt lat="44.54521" lon="0.63167">
        <ele>128.3</ele>
        <time>2017-01-22T07:59:47.000Z</time>
      </trkpt>
      <trkpt lat="44.5452" lon="0.6317">
        <ele>128.2</ele>
        <time>2017-01-22T07:59:48.000Z</time>
      </trkpt>
      <trkpt lat="44.54517" lon="0.63173">
        <ele>128</ele>
        <time>2017-01-22T07:59:49.000Z</time>
      </trkpt>
      <trkpt lat="44.54514" lon="0.63177">
        <ele>127.8</ele>
        <time>2017-01-22T07:59:50.000Z</time>
      </trkpt>
      <trkpt lat="44.54512" lon="0.6318">
        <ele>127.6</ele>
        <time>2017-01-22T07:59:51.000Z</time>
      </trkpt>
      <trkpt lat="44.54509" lon="0.63183">
        <ele>127.4</ele>
        <time>2017-01-22T07:59:52.000Z</time>
      </trkpt>
      <trkpt lat="44.54507" lon="0.63187">
        <ele>127.2</ele>
        <time>2017-01-22T07:59:53.000Z</time>
      </trkpt>
      <trkpt lat="44.54504" lon="0.63191">
        <ele>127</ele>
        <time>2017-01-22T07:59:54.000Z</time>
      </trkpt>
      <trkpt lat="44.54502" lon="0.63194">
        <ele>126.8</ele>
        <time>2017-01-22T07:59:55.000Z</time>
      </trkpt>
      <trkpt lat="44.54499" lon="0.63198">
        <ele>126.6</ele>
        <time>2017-01-22T07:59:56.000Z</time>
      </trkpt>
      <trkpt lat="44.54497" lon="0.63202">
        <ele>126.5</ele>
        <time>2017-01-22T07:59:57.000Z</time>
      </trkpt>
      <trkpt lat="44.54494" lon="0.63205">
        <ele>126.4</ele>
        <time>2017-01-22T07:59:58.000Z</time>
      </trkpt>
      <trkpt lat="44.54492" lon="0.63209">
        <ele>126.3</ele>
        <time>2017-01-22T07:59:59.000Z</time>
      </trkpt>
      <trkpt lat="44.54489" lon="0.63213">
        <ele>126.2</ele>
        <time>2017-01-22T08:00:00.000Z</time>
      </trkpt>
      <trkpt lat="44.54486" lon="0.63217">
        <ele>126.1</ele>
        <time>2017-01-22T08:00:01.000Z</time>
      </trkpt>
      <trkpt lat="44.54484" lon="0.63222">
        <ele>126</ele>
        <time>2017-01-22T08:00:02.000Z</time>
      </trkpt>
      <trkpt lat="44.54481" lon="0.63226">
        <ele>125.9</ele>
        <time>2017-01-22T08:00:03.000Z</time>
      </trkpt>
      <trkpt lat="44.54478" lon="0.6323">
        <ele>125.8</ele>
        <time>2017-01-22T08:00:04.000Z</time>
      </trkpt>
      <trkpt lat="44.54475" lon="0.63234">
        <ele>125.6</ele>
        <time>2017-01-22T08:00:05.000Z</time>
      </trkpt>
      <trkpt lat="44.54471" lon="0.63238">
        <ele>125.5</ele>
        <time>2017-01-22T08:00:06.000Z</time>
      </trkpt>
      <trkpt lat="44.54468" lon="0.63242">
        <ele>125.4</ele>
        <time>2017-01-22T08:00:07.000Z</time>
      </trkpt>
      <trkpt lat="44.54465" lon="0.63247">
        <ele>125.2</ele>
        <time>2017-01-22T08:00:08.000Z</time>
      </trkpt>
      <trkpt lat="44.54462" lon="0.63251">
        <ele>125.1</ele>
        <time>2017-01-22T08:00:09.000Z</time>
      </trkpt>
      <trkpt lat="44.54459" lon="0.63255">
        <ele>125</ele>
        <time>2017-01-22T08:00:10.000Z</time>
      </trkpt>
      <trkpt lat="44.54456" lon="0.63259">
        <ele>125</ele>
        <time>2017-01-22T08:00:11.000Z</time>
      </trkpt>
      <trkpt lat="44.54452" lon="0.63264">
        <ele>124.9</ele>
        <time>2017-01-22T08:00:12.000Z</time>
      </trkpt>
      <trkpt lat="44.54449" lon="0.63268">
        <ele>124.8</ele>
        <time>2017-01-22T08:00:13.000Z</time>
      </trkpt>
      <trkpt lat="44.54446" lon="0.63272">
        <ele>124.7</ele>
        <time>2017-01-22T08:00:14.000Z</time>
      </trkpt>
      <trkpt lat="44.54443" lon="0.63277">
        <ele>124.6</ele>
        <time>2017-01-22T08:00:15.000Z</time>
      </trkpt>
      <trkpt lat="44.5444" lon="0.63281">
        <ele>124.5</ele>
        <time>2017-01-22T08:00:16.000Z</time>
      </trkpt>
      <trkpt lat="44.54436" lon="0.63286">
        <ele>124.3</ele>
        <time>2017-01-22T08:00:17.000Z</time>
      </trkpt>
      <trkpt lat="44.54433" lon="0.6329">
        <ele>124.2</ele>
        <time>2017-01-22T08:00:18.000Z</time>
      </trkpt>
      <trkpt lat="44.5443" lon="0.63295">
        <ele>124</ele>
        <time>2017-01-22T08:00:19.000Z</time>
      </trkpt>
      <trkpt lat="44.54427" lon="0.63299">
        <ele>123.9</ele>
        <time>2017-01-22T08:00:20.000Z</time>
      </trkpt>
      <trkpt lat="44.54424" lon="0.63304">
        <ele>123.7</ele>
        <time>2017-01-22T08:00:21.000Z</time>
      </trkpt>
      <trkpt lat="44.5442" lon="0.63308">
        <ele>123.5</ele>
        <time>2017-01-22T08:00:22.000Z</time>
      </trkpt>
      <trkpt lat="44.54417" lon="0.63313">
        <ele>123.3</ele>
        <time>2017-01-22T08:00:23.000Z</time>
      </trkpt>
      <trkpt lat="44.54414" lon="0.63318">
        <ele>123.1</ele>
        <time>2017-01-22T08:00:24.000Z</time>
      </trkpt>
      <trkpt lat="44.5441" lon="0.63322">
        <ele>123</ele>
        <time>2017-01-22T08:00:25.000Z</time>
      </trkpt>
      <trkpt lat="44.54407" lon="0.63327">
        <ele>122.9</ele>
        <time>2017-01-22T08:00:26.000Z</time>
      </trkpt>
      <trkpt lat="44.54403" lon="0.63331">
        <ele>122.7</ele>
        <time>2017-01-22T08:00:27.000Z</time>
      </trkpt>
      <trkpt lat="44.544" lon="0.63336">
        <ele>122.6</ele>
        <time>2017-01-22T08:00:28.000Z</time>
      </trkpt>
      <trkpt lat="44.54397" lon="0.6334">
        <ele>122.5</ele>
        <time>2017-01-22T08:00:29.000Z</time>
      </trkpt>
      <trkpt lat="44.54393" lon="0.63345">
        <ele>122.4</ele>
        <time>2017-01-22T08:00:30.000Z</time>
      </trkpt>
      <trkpt lat="44.5439" lon="0.6335">
        <ele>122.3</ele>
        <time>2017-01-22T08:00:31.000Z</time>
      </trkpt>
      <trkpt lat="44.54386" lon="0.63355">
        <ele>122.3</ele>
        <time>2017-01-22T08:00:32.000Z</time>
      </trkpt>
      <trkpt lat="44.54383" lon="0.6336">
        <ele>122.2</ele>
        <time>2017-01-22T08:00:33.000Z</time>
      </trkpt>
      <trkpt lat="44.5438" lon="0.63366">
        <ele>122.1</ele>
        <time>2017-01-22T08:00:34.000Z</time>
      </trkpt>
      <trkpt lat="44.54377" lon="0.63372">
        <ele>122</ele>
        <time>2017-01-22T08:00:35.000Z</time>
      </trkpt>
      <trkpt lat="44.54375" lon="0.63378">
        <ele>122</ele>
        <time>2017-01-22T08:00:36.000Z</time>
      </trkpt>
      <trkpt lat="44.54373" lon="0.63385">
        <ele>121.9</ele>
        <time>2017-01-22T08:00:37.000Z</time>
      </trkpt>
      <trkpt lat="44.54371" lon="0.63392">
        <ele>121.9</ele>
        <time>2017-01-22T08:00:38.000Z</time>
      </trkpt>
      <trkpt lat="44.5437" lon="0.63399">
        <ele>121.9</ele>
        <time>2017-01-22T08:00:39.000Z</time>
      </trkpt>
      <trkpt lat="44.54369" lon="0.63407">
        <ele>121.9</ele>
        <time>2017-01-22T08:00:40.000Z</time>
      </trkpt>
      <trkpt lat="44.54369" lon="0.63414">
        <ele>121.8</ele>
        <time>2017-01-22T08:00:41.000Z</time>
      </trkpt>
      <trkpt lat="44.54368" lon="0.63422">
        <ele>121.8</ele>
        <time>2017-01-22T08:00:42.000Z</time>
      </trkpt>
      <trkpt lat="44.54367" lon="0.63429">
        <ele>121.6</ele>
        <time>2017-01-22T08:00:43.000Z</time>
      </trkpt>
      <trkpt lat="44.54366" lon="0.63436">
        <ele>121.5</ele>
        <time>2017-01-22T08:00:44.000Z</time>
      </trkpt>
      <trkpt lat="44.54366" lon="0.63443">
        <ele>121.4</ele>
        <time>2017-01-22T08:00:45.000Z</time>
      </trkpt>
      <trkpt lat="44.54365" lon="0.6345">
        <ele>121.2</ele>
        <time>2017-01-22T08:00:46.000Z</time>
      </trkpt>
      <trkpt lat="44.54364" lon="0.63458">
        <ele>121.1</ele>
        <time>2017-01-22T08:00:47.000Z</time>
      </trkpt>
      <trkpt lat="44.54362" lon="0.63465">
        <ele>120.9</ele>
        <time>2017-01-22T08:00:48.000Z</time>
      </trkpt>
      <trkpt lat="44.5436" lon="0.63472">
        <ele>120.8</ele>
        <time>2017-01-22T08:00:49.000Z</time>
      </trkpt>
      <trkpt lat="44.54359" lon="0.63478">
        <ele>120.6</ele>
        <time>2017-01-22T08:00:50.000Z</time>
      </trkpt>
      <trkpt lat="44.54357" lon="0.63485">
        <ele>120.4</ele>
        <time>2017-01-22T08:00:51.000Z</time>
      </trkpt>
      <trkpt lat="44.54355" lon="0.63492">
        <ele>120.2</ele>
        <time>2017-01-22T08:00:52.000Z</time>
      </trkpt>
      <trkpt lat="44.54354" lon="0.63499">
        <ele>120</ele>
        <time>2017-01-22T08:00:53.000Z</time>
      </trkpt>
      <trkpt lat="44.54353" lon="0.63506">
        <ele>119.8</ele>
        <time>2017-01-22T08:00:54.000Z</time>
      </trkpt>
      <trkpt lat="44.54351" lon="0.63513">
        <ele>119.6</ele>
        <time>2017-01-22T08:00:55.000Z</time>
      </trkpt>
      <trkpt lat="44.5435" lon="0.63519">
        <ele>119.4</ele>
        <time>2017-01-22T08:00:56.000Z</time>
      </trkpt>
      <trkpt lat="44.54348" lon="0.63526">
        <ele>119.2</ele>
        <time>2017-01-22T08:00:57.000Z</time>
      </trkpt>
      <trkpt lat="44.54347" lon="0.63532">
        <ele>118.9</ele>
        <time>2017-01-22T08:00:58.000Z</time>
      </trkpt>
      <trkpt lat="44.54345" lon="0.63539">
        <ele>118.7</ele>
        <time>2017-01-22T08:00:59.000Z</time>
      </trkpt>
      <trkpt lat="44.54344" lon="0.63546">
        <ele>118.5</ele>
        <time>2017-01-22T08:01:00.000Z</time>
      </trkpt>
      <trkpt lat="44.54342" lon="0.63553">
        <ele>118.2</ele>
        <time>2017-01-22T08:01:01.000Z</time>
      </trkpt>
      <trkpt lat="44.54341" lon="0.6356">
        <ele>118</ele>
        <time>2017-01-22T08:01:02.000Z</time>
      </trkpt>
      <trkpt lat="44.54339" lon="0.63567">
        <ele>117.7</ele>
        <time>2017-01-22T08:01:03.000Z</time>
      </trkpt>
      <trkpt lat="44.54338" lon="0.63574">
        <ele>117.5</ele>
        <time>2017-01-22T08:01:04.000Z</time>
      </trkpt>
      <trkpt lat="44.54336" lon="0.63581">
        <ele>117.2</ele>
        <time>2017-01-22T08:01:05.000Z</time>
      </trkpt>
      <trkpt lat="44.54335" lon="0.63589">
        <ele>117.1</ele>
        <time>2017-01-22T08:01:06.000Z</time>
      </trkpt>
      <trkpt lat="44.54333" lon="0.63596">
        <ele>117.2</ele>
        <time>2017-01-22T08:01:07.000Z</time>
      </trkpt>
      <trkpt lat="44.54331" lon="0.63603">
        <ele>117.2</ele>
        <time>2017-01-22T08:01:08.000Z</time>
      </trkpt>
      <trkpt lat="44.5433" lon="0.6361">
        <ele>117.3</ele>
        <time>2017-01-22T08:01:09.000Z</time>
      </trkpt>
      <trkpt lat="44.54328" lon="0.63617">
        <ele>117.4</ele>
        <time>2017-01-22T08:01:10.000Z</time>
      </trkpt>
      <trkpt lat="44.54326" lon="0.63624">
        <ele>117.5</ele>
        <time>2017-01-22T08:01:11.000Z</time>
      </trkpt>
      <trkpt lat="44.54325" lon="0.63631">
        <ele>117.5</ele>
        <time>2017-01-22T08:01:12.000Z</time>
      </trkpt>
      <trkpt lat="44.54323" lon="0.63639">
        <ele>117.5</ele>
        <time>2017-01-22T08:01:13.000Z</time>
      </trkpt>
      <trkpt lat="44.54321" lon="0.63646">
        <ele>117.6</ele>
        <time>2017-01-22T08:01:14.000Z</time>
      </trkpt>
      <trkpt lat="44.5432" lon="0.63653">
        <ele>117.6</ele>
        <time>2017-01-22T08:01:15.000Z</time>
      </trkpt>
      <trkpt lat="44.54318" lon="0.6366">
        <ele>117.6</ele>
        <time>2017-01-22T08:01:16.000Z</time>
      </trkpt>
      <trkpt lat="44.54316" lon="0.63668">
        <ele>117.6</ele>
        <time>2017-01-22T08:01:17.000Z</time>
      </trkpt>
      <trkpt lat="44.54315" lon="0.63675">
        <ele>117.5</ele>
        <time>2017-01-22T08:01:18.000Z</time>
      </trkpt>
      <trkpt lat="44.54313" lon="0.63682">
        <ele>117.5</ele>
        <time>2017-01-22T08:01:19.000Z</time>
      </trkpt>
      <trkpt lat="44.54312" lon="0.63689">
        <ele>117.4</ele>
        <time>2017-01-22T08:01:20.000Z</time>
      </trkpt>
      <trkpt lat="44.5431" lon="0.63696">
        <ele>117.4</ele>
        <time>2017-01-22T08:01:21.000Z</time>
      </trkpt>
      <trkpt lat="44.54309" lon="0.63703">
        <ele>117.3</ele>
        <time>2017-01-22T08:01:22.000Z</time>
      </trkpt>
      <trkpt lat="44.54308" lon="0.6371">
        <ele>117.2</ele>
        <time>2017-01-22T08:01:23.000Z</time>
      </trkpt>
      <trkpt lat="44.54306" lon="0.63717">
        <ele>117.1</ele>
        <time>2017-01-22T08:01:24.000Z</time>
      </trkpt>
      <trkpt lat="44.54305" lon="0.63724">
        <ele>117.1</ele>
        <time>2017-01-22T08:01:25.000Z</time>
      </trkpt>
      <trkpt lat="44.54303" lon="0.6373">
        <ele>117</ele>
        <time>2017-01-22T08:01:26.000Z</time>
      </trkpt>
      <trkpt lat="44.54302" lon="0.63737">
        <ele>116.9</ele>
        <time>2017-01-22T08:01:27.000Z</time>
      </trkpt>
      <trkpt lat="44.543" lon="0.63744">
        <ele>116.8</ele>
        <time>2017-01-22T08:01:28.000Z</time>
      </trkpt>
      <trkpt lat="44.54299" lon="0.6375">
        <ele>116.8</ele>
        <time>2017-01-22T08:01:29.000Z</time>
      </trkpt>
      <trkpt lat="44.54297" lon="0.63757">
        <ele>116.7</ele>
        <time>2017-01-22T08:01:30.000Z</time>
      </trkpt>
      <trkpt lat="44.54296" lon="0.63763">
        <ele>116.6</ele>
        <time>2017-01-22T08:01:31.000Z</time>
      </trkpt>
      <trkpt lat="44.54295" lon="0.63769">
        <ele>116.5</ele>
        <time>2017-01-22T08:01:32.000Z</time>
      </trkpt>
      <trkpt lat="44.54294" lon="0.63776">
        <ele>116.4</ele>
        <time>2017-01-22T08:01:33.000Z</time>
      </trkpt>
      <trkpt lat="44.54295" lon="0.63783">
        <ele>116.4</ele>
        <time>2017-01-22T08:01:34.000Z</time>
      </trkpt>
      <trkpt lat="44.54296" lon="0.63789">
        <ele>116.4</ele>
        <time>2017-01-22T08:01:35.000Z</time>
      </trkpt>
      <trkpt lat="44.54298" lon="0.63795">
        <ele>116.4</ele>
        <time>2017-01-22T08:01:36.000Z</time>
      </trkpt>
      <trkpt lat="44.54301" lon="0.638">
        <ele>116.5</ele>
        <time>2017-01-22T08:01:37.000Z</time>
      </trkpt>
      <trkpt lat="44.54304" lon="0.63806">
        <ele>116.5</ele>
        <time>2017-01-22T08:01:38.000Z</time>
      </trkpt>
      <trkpt lat="44.54306" lon="0.63811">
        <ele>116.5</ele>
        <time>2017-01-22T08:01:39.000Z</time>
      </trkpt>
      <trkpt lat="44.54308" lon="0.63816">
        <ele>116.5</ele>
        <time>2017-01-22T08:01:40.000Z</time>
      </trkpt>
      <trkpt lat="44.54311" lon="0.63821">
        <ele>116.6</ele>
        <time>2017-01-22T08:01:41.000Z</time>
      </trkpt>
      <trkpt lat="44.54313" lon="0.63825">
        <ele>116.6</ele>
        <time>2017-01-22T08:01:42.000Z</time>
      </trkpt>
      <trkpt lat="44.54315" lon="0.63829">
        <ele>116.6</ele>
        <time>2017-01-22T08:01:43.000Z</time>
      </trkpt>
      <trkpt lat="44.54317" lon="0.63833">
        <ele>116.6</ele>
        <time>2017-01-22T08:01:44.000Z</time>
      </trkpt>
      <trkpt lat="44.5432" lon="0.63838">
        <ele>116.6</ele>
        <time>2017-01-22T08:01:45.000Z</time>
      </trkpt>
      <trkpt lat="44.54322" lon="0.63841">
        <ele>116.6</ele>
        <time>2017-01-22T08:01:46.000Z</time>
      </trkpt>
      <trkpt lat="44.54325" lon="0.63842">
        <ele>116.7</ele>
        <time>2017-01-22T08:01:47.000Z</time>
      </trkpt>
      <trkpt lat="44.54328" lon="0.63843">
        <ele>116.8</ele>
        <time>2017-01-22T08:01:48.000Z</time>
      </trkpt>
      <trkpt lat="44.54331" lon="0.63844">
        <ele>116.8</ele>
        <time>2017-01-22T08:01:49.000Z</time>
      </trkpt>
      <trkpt lat="44.54333" lon="0.63846">
        <ele>116.8</ele>
        <time>2017-01-22T08:01:50.000Z</time>
      </trkpt>
      <trkpt lat="44.54335" lon="0.63849">
        <ele>116.9</ele>
        <time>2017-01-22T08:01:51.000Z</time>
      </trkpt>
      <trkpt lat="44.54335" lon="0.63852">
        <ele>116.9</ele>
        <time>2017-01-22T08:01:52.000Z</time>
      </trkpt>
      <trkpt lat="44.54334" lon="0.63854">
        <ele>116.8</ele>
        <time>2017-01-22T08:01:53.000Z</time>
      </trkpt>
      <trkpt lat="44.54332" lon="0.63854">
        <ele>116.7</ele>
        <time>2017-01-22T08:01:54.000Z</time>
      </trkpt>
      <trkpt lat="44.54329" lon="0.63853">
        <ele>116.7</ele>
        <time>2017-01-22T08:01:55.000Z</time>
      </trkpt>
      <trkpt lat="44.54327" lon="0.63853">
        <ele>116.6</ele>
        <time>2017-01-22T08:01:56.000Z</time>
      </trkpt>
      <trkpt lat="44.54324" lon="0.63852">
        <ele>116.5</ele>
        <time>2017-01-22T08:01:57.000Z</time>
      </trkpt>
      <trkpt lat="44.54321" lon="0.6385">
        <ele>116.5</ele>
        <time>2017-01-22T08:01:58.000Z</time>
      </trkpt>
      <trkpt lat="44.54317" lon="0.63848">
        <ele>116.4</ele>
        <time>2017-01-22T08:01:59.000Z</time>
      </trkpt>
      <trkpt lat="44.54314" lon="0.63845">
        <ele>116.4</ele>
        <time>2017-01-22T08:02:00.000Z</time>
      </trkpt>
      <trkpt lat="44.54311" lon="0.63841">
        <ele>116.4</ele>
        <time>2017-01-22T08:02:01.000Z</time>
      </trkpt>
      <trkpt lat="44.54309" lon="0.63836">
        <ele>116.4</ele>
        <time>2017-01-22T08:02:02.000Z</time>
      </trkpt>
      <trkpt lat="44.54307" lon="0.6383">
        <ele>116.4</ele>
        <time>2017-01-22T08:02:03.000Z</time>
      </trkpt>
      <trkpt lat="44.54306" lon="0.63825">
        <ele>116.4</ele>
        <time>2017-01-22T08:02:04.000Z</time>
      </trkpt>
      <trkpt lat="44.54304" lon="0.63821">
        <ele>116.4</ele>
        <time>2017-01-22T08:02:05.000Z</time>
      </trkpt>
      <trkpt lat="44.54303" lon="0.63816">
        <ele>116.4</ele>
        <time>2017-01-22T08:02:06.000Z</time>
      </trkpt>
      <trkpt lat="44.54301" lon="0.63811">
        <ele>116.4</ele>
        <time>2017-01-22T08:02:07.000Z</time>
      </trkpt>
      <trkpt lat="44.54299" lon="0.63807">
        <ele>116.4</ele>
        <time>2017-01-22T08:02:08.000Z</time>
      </trkpt>
      <trkpt lat="44.54297" lon="0.63802">
        <ele>116.3</ele>
        <time>2017-01-22T08:02:09.000Z</time>
      </trkpt>
      <trkpt lat="44.54294" lon="0.63797">
        <ele>116.3</ele>
        <time>2017-01-22T08:02:10.000Z</time>
      </trkpt>
      <trkpt lat="44.54292" lon="0.63792">
        <ele>116.3</ele>
        <time>2017-01-22T08:02:11.000Z</time>
      </trkpt>
      <trkpt lat="44.5429" lon="0.63788">
        <ele>116.2</ele>
        <time>2017-01-22T08:02:12.000Z</time>
      </trkpt>
      <trkpt lat="44.54287" lon="0.63783">
        <ele>116.2</ele>
        <time>2017-01-22T08:02:13.000Z</time>
      </trkpt>
      <trkpt lat="44.54284" lon="0.63779">
        <ele>116.1</ele>
        <time>2017-01-22T08:02:14.000Z</time>
      </trkpt>
      <trkpt lat="44.54282" lon="0.63774">
        <ele>116</ele>
        <time>2017-01-22T08:02:15.000Z</time>
      </trkpt>
      <trkpt lat="44.54279" lon="0.6377">
        <ele>115.9</ele>
        <time>2017-01-22T08:02:16.000Z</time>
      </trkpt>
      <trkpt lat="44.54276" lon="0.63766">
        <ele>115.9</ele>
        <time>2017-01-22T08:02:17.000Z</time>
      </trkpt>
      <trkpt lat="44.54273" lon="0.63763">
        <ele>115.8</ele>
        <time>2017-01-22T08:02:18.000Z</time>
      </trkpt>
      <trkpt lat="44.5427" lon="0.63759">
        <ele>115.7</ele>
        <time>2017-01-22T08:02:19.000Z</time>
      </trkpt>
      <trkpt lat="44.54266" lon="0.63755">
        <ele>115.6</ele>
        <time>2017-01-22T08:02:20.000Z</time>
      </trkpt>
      <trkpt lat="44.54263" lon="0.63752">
        <ele>115.5</ele>
        <time>2017-01-22T08:02:21.000Z</time>
      </trkpt>
      <trkpt lat="44.5426" lon="0.63749">
        <ele>115.4</ele>
        <time>2017-01-22T08:02:22.000Z</time>
      </trkpt>
      <trkpt lat="44.54257" lon="0.63746">
        <ele>115.3</ele>
        <time>2017-01-22T08:02:23.000Z</time>
      </trkpt>
      <trkpt lat="44.54254" lon="0.63743">
        <ele>115.2</ele>
        <time>2017-01-22T08:02:24.000Z</time>
      </trkpt>
      <trkpt lat="44.54251" lon="0.6374">
        <ele>115.2</ele>
        <time>2017-01-22T08:02:25.000Z</time>
      </trkpt>
      <trkpt lat="44.54248" lon="0.63737">
        <ele>115.2</ele>
        <time>2017-01-22T08:02:26.000Z</time>
      </trkpt>
      <trkpt lat="44.54245" lon="0.63734">
        <ele>115.2</ele>
        <time>2017-01-22T08:02:27.000Z</time>
      </trkpt>
      <trkpt lat="44.54243" lon="0.63731">
        <ele>115.3</ele>
        <time>2017-01-22T08:02:28.000Z</time>
      </trkpt>
      <trkpt lat="44.5424" lon="0.63728">
        <ele>115.4</ele>
        <time>2017-01-22T08:02:29.000Z</time>
      </trkpt>
      <trkpt lat="44.54237" lon="0.63726">
        <ele>115.4</ele>
        <time>2017-01-22T08:02:30.000Z</time>
      </trkpt>
      <trkpt lat="44.54234" lon="0.63723">
        <ele>115.5</ele>
        <time>2017-01-22T08:02:31.000Z</time>
      </trkpt>
      <trkpt lat="44.54231" lon="0.6372">
        <ele>115.6</ele>
        <time>2017-01-22T08:02:32.000Z</time>
      </trkpt>
      <trkpt lat="44.54228" lon="0.63717">
        <ele>115.7</ele>
        <time>2017-01-22T08:02:33.000Z</time>
      </trkpt>
      <trkpt lat="44.54226" lon="0.63715">
        <ele>115.7</ele>
        <time>2017-01-22T08:02:34.000Z</time>
      </trkpt>
      <trkpt lat="44.54223" lon="0.63712">
        <ele>115.8</ele>
        <time>2017-01-22T08:02:35.000Z</time>
      </trkpt>
      <trkpt lat="44.54219" lon="0.63709">
        <ele>115.9</ele>
        <time>2017-01-22T08:02:36.000Z</time>
      </trkpt>
      <trkpt lat="44.54216" lon="0.63706">
        <ele>115.9</ele>
        <time>2017-01-22T08:02:37.000Z</time>
      </trkpt>
      <trkpt lat="44.54213" lon="0.63703">
        <ele>116</ele>
        <time>2017-01-22T08:02:38.000Z</time>
      </trkpt>
      <trkpt lat="44.5421" lon="0.637">
        <ele>116.1</ele>
        <time>2017-01-22T08:02:39.000Z</time>
      </trkpt>
      <trkpt lat="44.54207" lon="0.63697">
        <ele>116.1</ele>
        <time>2017-01-22T08:02:40.000Z</time>
      </trkpt>
      <trkpt lat="44.54204" lon="0.63694">
        <ele>116.2</ele>
        <time>2017-01-22T08:02:41.000Z</time>
      </trkpt>
      <trkpt lat="44.54201" lon="0.63691">
        <ele>116.3</ele>
        <time>2017-01-22T08:02:42.000Z</time>
      </trkpt>
      <trkpt lat="44.54198" lon="0.63688">
        <ele>116.4</ele>
        <time>2017-01-22T08:02:43.000Z</time>
      </trkpt>
      <trkpt lat="44.54195" lon="0.63684">
        <ele>116.4</ele>
        <time>2017-01-22T08:02:44.000Z</time>
      </trkpt>
      <trkpt lat="44.54193" lon="0.63681">
        <ele>116.5</ele>
        <time>2017-01-22T08:02:45.000Z</time>
      </trkpt>
      <trkpt lat="44.5419" lon="0.63677">
        <ele>116.6</ele>
        <time>2017-01-22T08:02:46.000Z</time>
      </trkpt>
      <trkpt lat="44.54187" lon="0.63673">
        <ele>116.7</ele>
        <time>2017-01-22T08:02:47.000Z</time>
      </trkpt>
      <trkpt lat="44.54185" lon="0.63669">
        <ele>116.8</ele>
        <time>2017-01-22T08:02:48.000Z</time>
      </trkpt>
      <trkpt lat="44.54182" lon="0.63666">
        <ele>116.9</ele>
        <time>2017-01-22T08:02:49.000Z</time>
      </trkpt>
      <trkpt lat="44.5418" lon="0.63663">
        <ele>117</ele>
        <time>2017-01-22T08:02:50.000Z</time>
      </trkpt>
      <trkpt lat="44.54178" lon="0.63661">
        <ele>117.2</ele>
        <time>2017-01-22T08:02:51.000Z</time>
      </trkpt>
      <trkpt lat="44.54175" lon="0.63661">
        <ele>117.2</ele>
        <time>2017-01-22T08:02:52.000Z</time>
      </trkpt>
      <trkpt lat="44.54173" lon="0.63662">
        <ele>117.2</ele>
        <time>2017-01-22T08:02:53.000Z</time>
      </trkpt>
      <trkpt lat="44.5417" lon="0.63664">
        <ele>117.1</ele>
        <time>2017-01-22T08:02:54.000Z</time>
      </trkpt>
      <trkpt lat="44.54167" lon="0.63667">
        <ele>117</ele>
        <time>2017-01-22T08:02:55.000Z</time>
      </trkpt>
      <trkpt lat="44.54164" lon="0.6367">
        <ele>117</ele>
        <time>2017-01-22T08:02:56.000Z</time>
      </trkpt>
      <trkpt lat="44.5416" lon="0.63674">
        <ele>117.1</ele>
        <time>2017-01-22T08:02:57.000Z</time>
      </trkpt>
      <trkpt lat="44.54157" lon="0.63678">
        <ele>117.1</ele>
        <time>2017-01-22T08:02:58.000Z</time>
      </trkpt>
      <trkpt lat="44.54153" lon="0.63682">
        <ele>117.2</ele>
        <time>2017-01-22T08:02:59.000Z</time>
      </trkpt>
      <trkpt lat="44.54149" lon="0.63687">
        <ele>117.3</ele>
        <time>2017-01-22T08:03:00.000Z</time>
      </trkpt>
      <trkpt lat="44.54146" lon="0.63691">
        <ele>117.4</ele>
        <time>2017-01-22T08:03:01.000Z</time>
      </trkpt>
      <trkpt lat="44.54142" lon="0.63695">
        <ele>117.4</ele>
        <time>2017-01-22T08:03:02.000Z</time>
      </trkpt>
      <trkpt lat="44.54139" lon="0.63699">
        <ele>117.5</ele>
        <time>2017-01-22T08:03:03.000Z</time>
      </trkpt>
      <trkpt lat="44.54136" lon="0.63703">
        <ele>117.6</ele>
        <time>2017-01-22T08:03:04.000Z</time>
      </trkpt>
      <trkpt lat="44.54132" lon="0.63707">
        <ele>117.7</ele>
        <time>2017-01-22T08:03:05.000Z</time>
      </trkpt>
      <trkpt lat="44.54129" lon="0.63711">
        <ele>117.8</ele>
        <time>2017-01-22T08:03:06.000Z</time>
      </trkpt>
      <trkpt lat="44.54126" lon="0.63715">
        <ele>118</ele>
        <time>2017-01-22T08:03:07.000Z</time>
      </trkpt>
      <trkpt lat="44.54123" lon="0.63719">
        <ele>118.1</ele>
        <time>2017-01-22T08:03:08.000Z</time>
      </trkpt>
      <trkpt lat="44.5412" lon="0.63722">
        <ele>118.2</ele>
        <time>2017-01-22T08:03:09.000Z</time>
      </trkpt>
      <trkpt lat="44.54117" lon="0.63726">
        <ele>118.3</ele>
        <time>2017-01-22T08:03:10.000Z</time>
      </trkpt>
      <trkpt lat="44.54114" lon="0.63729">
        <ele>118.5</ele>
        <time>2017-01-22T08:03:11.000Z</time>
      </trkpt>
      <trkpt lat="44.54111" lon="0.63732">
        <ele>118.6</ele>
        <time>2017-01-22T08:03:12.000Z</time>
      </trkpt>
      <trkpt lat="44.54108" lon="0.63735">
        <ele>118.7</ele>
        <time>2017-01-22T08:03:13.000Z</time>
      </trkpt>
      <trkpt lat="44.54105" lon="0.63739">
        <ele>118.9</ele>
        <time>2017-01-22T08:03:14.000Z</time>
      </trkpt>
      <trkpt lat="44.54102" lon="0.63741">
        <ele>119</ele>
        <time>2017-01-22T08:03:15.000Z</time>
      </trkpt>
      <trkpt lat="44.54099" lon="0.63744">
        <ele>119.2</ele>
        <time>2017-01-22T08:03:16.000Z</time>
      </trkpt>
      <trkpt lat="44.54097" lon="0.63747">
        <ele>119.3</ele>
        <time>2017-01-22T08:03:17.000Z</time>
      </trkpt>
      <trkpt lat="44.54094" lon="0.63749">
        <ele>119.5</ele>
        <time>2017-01-22T08:03:18.000Z</time>
      </trkpt>
      <trkpt lat="44.54091" lon="0.63752">
        <ele>119.6</ele>
        <time>2017-01-22T08:03:19.000Z</time>
      </trkpt>
      <trkpt lat="44.54088" lon="0.63754">
        <ele>119.7</ele>
        <time>2017-01-22T08:03:20.000Z</time>
      </trkpt>
      <trkpt lat="44.54085" lon="0.63756">
        <ele>119.9</ele>
        <time>2017-01-22T08:03:21.000Z</time>
      </trkpt>
      <trkpt lat="44.54082" lon="0.63759">
        <ele>120</ele>
        <time>2017-01-22T08:03:22.000Z</time>
      </trkpt>
      <trkpt lat="44.54079" lon="0.63761">
        <ele>120</ele>
        <time>2017-01-22T08:03:23.000Z</time>
      </trkpt>
      <trkpt lat="44.54076" lon="0.63764">
        <ele>120.1</ele>
        <time>2017-01-22T08:03:24.000Z</time>
      </trkpt>
      <trkpt lat="44.54073" lon="0.63767">
        <ele>120.2</ele>
        <time>2017-01-22T08:03:25.000Z</time>
      </trkpt>
      <trkpt lat="44.5407" lon="0.63769">
        <ele>120.3</ele>
        <time>2017-01-22T08:03:26.000Z</time>
      </trkpt>
      <trkpt lat="44.54067" lon="0.63771">
        <ele>120.4</ele>
        <time>2017-01-22T08:03:27.000Z</time>
      </trkpt>
      <trkpt lat="44.54064" lon="0.63773">
        <ele>120.5</ele>
        <time>2017-01-22T08:03:28.000Z</time>
      </trkpt>
      <trkpt lat="44.54061" lon="0.63775">
        <ele>120.7</ele>
        <time>2017-01-22T08:03:29.000Z</time>
      </trkpt>
      <trkpt lat="44.54058" lon="0.63776">
        <ele>120.8</ele>
        <time>2017-01-22T08:03:30.000Z</time>
      </trkpt>
      <trkpt lat="44.54055" lon="0.63778">
        <ele>120.9</ele>
        <time>2017-01-22T08:03:31.000Z</time>
      </trkpt>
      <trkpt lat="44.54052" lon="0.63779">
        <ele>121.1</ele>
        <time>2017-01-22T08:03:32.000Z</time>
      </trkpt>
      <trkpt lat="44.54049" lon="0.63781">
        <ele>121.2</ele>
        <time>2017-01-22T08:03:33.000Z</time>
      </trkpt>
      <trkpt lat="44.54046" lon="0.63783">
        <ele>121.3</ele>
        <time>2017-01-22T08:03:34.000Z</time>
      </trkpt>
      <trkpt lat="44.54044" lon="0.63785">
        <ele>121.4</ele>
        <time>2017-01-22T08:03:35.000Z</time>
      </trkpt>
      <trkpt lat="44.54042" lon="0.63788">
        <ele>121.5</ele>
        <time>2017-01-22T08:03:36.000Z</time>
      </trkpt>
      <trkpt lat="44.54042" lon="0.63791">
        <ele>121.5</ele>
        <time>2017-01-22T08:03:37.000Z</time>
      </trkpt>
      <trkpt lat="44.54042" lon="0.63796">
        <ele>121.5</ele>
        <time>2017-01-22T08:03:38.000Z</time>
      </trkpt>
      <trkpt lat="44.54042" lon="0.638">
        <ele>121.5</ele>
        <time>2017-01-22T08:03:39.000Z</time>
      </trkpt>
      <trkpt lat="44.54043" lon="0.63805">
        <ele>121.4</ele>
        <time>2017-01-22T08:03:40.000Z</time>
      </trkpt>
      <trkpt lat="44.54044" lon="0.6381">
        <ele>121.4</ele>
        <time>2017-01-22T08:03:41.000Z</time>
      </trkpt>
      <trkpt lat="44.54044" lon="0.63815">
        <ele>121.4</ele>
        <time>2017-01-22T08:03:42.000Z</time>
      </trkpt>
      <trkpt lat="44.54044" lon="0.63821">
        <ele>121.4</ele>
        <time>2017-01-22T08:03:43.000Z</time>
      </trkpt>
      <trkpt lat="44.54043" lon="0.63826">
        <ele>121.4</ele>
        <time>2017-01-22T08:03:44.000Z</time>
      </trkpt>
      <trkpt lat="44.54043" lon="0.63832">
        <ele>121.4</ele>
        <time>2017-01-22T08:03:45.000Z</time>
      </trkpt>
      <trkpt lat="44.54043" lon="0.63837">
        <ele>121.5</ele>
        <time>2017-01-22T08:03:46.000Z</time>
      </trkpt>
      <trkpt lat="44.54043" lon="0.63843">
        <ele>121.5</ele>
        <time>2017-01-22T08:03:47.000Z</time>
      </trkpt>
      <trkpt lat="44.54043" lon="0.63848">
        <ele>121.5</ele>
        <time>2017-01-22T08:03:48.000Z</time>
      </trkpt>
      <trkpt lat="44.54043" lon="0.63853">
        <ele>121.6</ele>
        <time>2017-01-22T08:03:49.000Z</time>
      </trkpt>
      <trkpt lat="44.54043" lon="0.63859">
        <ele>121.6</ele>
        <time>2017-01-22T08:03:50.000Z</time>
      </trkpt>
      <trkpt lat="44.54043" lon="0.63864">
        <ele>121.6</ele>
        <time>2017-01-22T08:03:51.000Z</time>
      </trkpt>
      <trkpt lat="44.54043" lon="0.63869">
        <ele>121.7</ele>
        <time>2017-01-22T08:03:52.000Z</time>
      </trkpt>
      <trkpt lat="44.54043" lon="0.63874">
        <ele>121.7</ele>
        <time>2017-01-22T08:03:53.000Z</time>
      </trkpt>
      <trkpt lat="44.54043" lon="0.6388">
        <ele>121.7</ele>
        <time>2017-01-22T08:03:54.000Z</time>
      </trkpt>
      <trkpt lat="44.54044" lon="0.63885">
        <ele>121.7</ele>
        <time>2017-01-22T08:03:55.000Z</time>
      </trkpt>
      <trkpt lat="44.54044" lon="0.6389">
        <ele>121.8</ele>
        <time>2017-01-22T08:03:56.000Z</time>
      </trkpt>
      <trkpt lat="44.54044" lon="0.63896">
        <ele>121.8</ele>
        <time>2017-01-22T08:03:57.000Z</time>
      </trkpt>
      <trkpt lat="44.54044" lon="0.63902">
        <ele>121.8</ele>
        <time>2017-01-22T08:03:58.000Z</time>
      </trkpt>
      <trkpt lat="44.54044" lon="0.63908">
        <ele>121.9</ele>
        <time>2017-01-22T08:03:59.000Z</time>
      </trkpt>
      <trkpt lat="44.54044" lon="0.63913">
        <ele>121.9</ele>
        <time>2017-01-22T08:04:00.000Z</time>
      </trkpt>
      <trkpt lat="44.54044" lon="0.63919">
        <ele>121.9</ele>
        <time>2017-01-22T08:04:01.000Z</time>
      </trkpt>
      <trkpt lat="44.54044" lon="0.63925">
        <ele>121.9</ele>
        <time>2017-01-22T08:04:02.000Z</time>
      </trkpt>
      <trkpt lat="44.54043" lon="0.6393">
        <ele>121.9</ele>
        <time>2017-01-22T08:04:03.000Z</time>
      </trkpt>
      <trkpt lat="44.54041" lon="0.63936">
        <ele>121.9</ele>
        <time>2017-01-22T08:04:04.000Z</time>
      </trkpt>
      <trkpt lat="44.54039" lon="0.63941">
        <ele>121.9</ele>
        <time>2017-01-22T08:04:05.000Z</time>
      </trkpt>
      <trkpt lat="44.54037" lon="0.63946">
        <ele>121.9</ele>
        <time>2017-01-22T08:04:06.000Z</time>
      </trkpt>
      <trkpt lat="44.54035" lon="0.63951">
        <ele>121.9</ele>
        <time>2017-01-22T08:04:07.000Z</time>
      </trkpt>
      <trkpt lat="44.54033" lon="0.63956">
        <ele>121.9</ele>
        <time>2017-01-22T08:04:08.000Z</time>
      </trkpt>
      <trkpt lat="44.54031" lon="0.63961">
        <ele>121.9</ele>
        <time>2017-01-22T08:04:09.000Z</time>
      </trkpt>
      <trkpt lat="44.5403" lon="0.63965">
        <ele>121.9</ele>
        <time>2017-01-22T08:04:10.000Z</time>
      </trkpt>
      <trkpt lat="44.54028" lon="0.6397">
        <ele>121.9</ele>
        <time>2017-01-22T08:04:11.000Z</time>
      </trkpt>
      <trkpt lat="44.54026" lon="0.63975">
        <ele>121.9</ele>
        <time>2017-01-22T08:04:12.000Z</time>
      </trkpt>
      <trkpt lat="44.54024" lon="0.6398">
        <ele>121.9</ele>
        <time>2017-01-22T08:04:13.000Z</time>
      </trkpt>
      <trkpt lat="44.54022" lon="0.63984">
        <ele>121.9</ele>
        <time>2017-01-22T08:04:14.000Z</time>
      </trkpt>
      <trkpt lat="44.54019" lon="0.63989">
        <ele>121.9</ele>
        <time>2017-01-22T08:04:15.000Z</time>
      </trkpt>
      <trkpt lat="44.54017" lon="0.63993">
        <ele>121.9</ele>
        <time>2017-01-22T08:04:16.000Z</time>
      </trkpt>
      <trkpt lat="44.54014" lon="0.63997">
        <ele>121.9</ele>
        <time>2017-01-22T08:04:17.000Z</time>
      </trkpt>
      <trkpt lat="44.54011" lon="0.64001">
        <ele>121.9</ele>
        <time>2017-01-22T08:04:18.000Z</time>
      </trkpt>
      <trkpt lat="44.54008" lon="0.64005">
        <ele>121.9</ele>
        <time>2017-01-22T08:04:19.000Z</time>
      </trkpt>
      <trkpt lat="44.54006" lon="0.64009">
        <ele>121.9</ele>
        <time>2017-01-22T08:04:20.000Z</time>
      </trkpt>
      <trkpt lat="44.54003" lon="0.64013">
        <ele>122</ele>
        <time>2017-01-22T08:04:21.000Z</time>
      </trkpt>
      <trkpt lat="44.54" lon="0.64016">
        <ele>122</ele>
        <time>2017-01-22T08:04:22.000Z</time>
      </trkpt>
      <trkpt lat="44.53997" lon="0.64019">
        <ele>122.1</ele>
        <time>2017-01-22T08:04:23.000Z</time>
      </trkpt>
      <trkpt lat="44.53993" lon="0.64022">
        <ele>122.1</ele>
        <time>2017-01-22T08:04:24.000Z</time>
      </trkpt>
      <trkpt lat="44.5399" lon="0.64025">
        <ele>122.2</ele>
        <time>2017-01-22T08:04:25.000Z</time>
      </trkpt>
      <trkpt lat="44.53987" lon="0.64028">
        <ele>122.3</ele>
        <time>2017-01-22T08:04:26.000Z</time>
      </trkpt>
      <trkpt lat="44.53983" lon="0.6403">
        <ele>122.3</ele>
        <time>2017-01-22T08:04:27.000Z</time>
      </trkpt>
      <trkpt lat="44.5398" lon="0.64032">
        <ele>122.4</ele>
        <time>2017-01-22T08:04:28.000Z</time>
      </trkpt>
      <trkpt lat="44.53976" lon="0.64033">
        <ele>122.5</ele>
        <time>2017-01-22T08:04:29.000Z</time>
      </trkpt>
      <trkpt lat="44.53972" lon="0.64035">
        <ele>122.5</ele>
        <time>2017-01-22T08:04:30.000Z</time>
      </trkpt>
      <trkpt lat="44.53968" lon="0.64036">
        <ele>122.6</ele>
        <time>2017-01-22T08:04:31.000Z</time>
      </trkpt>
      <trkpt lat="44.53964" lon="0.64037">
        <ele>122.7</ele>
        <time>2017-01-22T08:04:32.000Z</time>
      </trkpt>
      <trkpt lat="44.5396" lon="0.64038">
        <ele>122.7</ele>
        <time>2017-01-22T08:04:33.000Z</time>
      </trkpt>
      <trkpt lat="44.53956" lon="0.6404">
        <ele>122.8</ele>
        <time>2017-01-22T08:04:34.000Z</time>
      </trkpt>
      <trkpt lat="44.53952" lon="0.64042">
        <ele>122.9</ele>
        <time>2017-01-22T08:04:35.000Z</time>
      </trkpt>
      <trkpt lat="44.53949" lon="0.64045">
        <ele>122.9</ele>
        <time>2017-01-22T08:04:36.000Z</time>
      </trkpt>
      <trkpt lat="44.53945" lon="0.64048">
        <ele>122.9</ele>
        <time>2017-01-22T08:04:37.000Z</time>
      </trkpt>
      <trkpt lat="44.53942" lon="0.64051">
        <ele>123</ele>
        <time>2017-01-22T08:04:38.000Z</time>
      </trkpt>
      <trkpt lat="44.53939" lon="0.64054">
        <ele>123</ele>
        <time>2017-01-22T08:04:39.000Z</time>
      </trkpt>
      <trkpt lat="44.53935" lon="0.64057">
        <ele>123</ele>
        <time>2017-01-22T08:04:40.000Z</time>
      </trkpt>
      <trkpt lat="44.53931" lon="0.6406">
        <ele>123.1</ele>
        <time>2017-01-22T08:04:41.000Z</time>
      </trkpt>
      <trkpt lat="44.53928" lon="0.64062">
        <ele>123.1</ele>
        <time>2017-01-22T08:04:42.000Z</time>
      </trkpt>
      <trkpt lat="44.53924" lon="0.64063">
        <ele>123.1</ele>
        <time>2017-01-22T08:04:43.000Z</time>
      </trkpt>
      <trkpt lat="44.53921" lon="0.64064">
        <ele>123.2</ele>
        <time>2017-01-22T08:04:44.000Z</time>
      </trkpt>
      <trkpt lat="44.53917" lon="0.64064">
        <ele>123.2</ele>
        <time>2017-01-22T08:04:45.000Z</time>
      </trkpt>
      <trkpt lat="44.53914" lon="0.64064">
        <ele>123.3</ele>
        <time>2017-01-22T08:04:46.000Z</time>
      </trkpt>
      <trkpt lat="44.5391" lon="0.64064">
        <ele>123.4</ele>
        <time>2017-01-22T08:04:47.000Z</time>
      </trkpt>
      <trkpt lat="44.53907" lon="0.64065">
        <ele>123.5</ele>
        <time>2017-01-22T08:04:48.000Z</time>
      </trkpt>
      <trkpt lat="44.53903" lon="0.64066">
        <ele>123.6</ele>
        <time>2017-01-22T08:04:49.000Z</time>
      </trkpt>
      <trkpt lat="44.539" lon="0.64068">
        <ele>123.6</ele>
        <time>2017-01-22T08:04:50.000Z</time>
      </trkpt>
      <trkpt lat="44.53896" lon="0.6407">
        <ele>123.7</ele>
        <time>2017-01-22T08:04:51.000Z</time>
      </trkpt>
      <trkpt lat="44.53893" lon="0.64073">
        <ele>123.7</ele>
        <time>2017-01-22T08:04:52.000Z</time>
      </trkpt>
      <trkpt lat="44.5389" lon="0.64076">
        <ele>123.7</ele>
        <time>2017-01-22T08:04:53.000Z</time>
      </trkpt>
      <trkpt lat="44.53887" lon="0.6408">
        <ele>123.8</ele>
        <time>2017-01-22T08:04:54.000Z</time>
      </trkpt>
      <trkpt lat="44.53885" lon="0.64084">
        <ele>123.8</ele>
        <time>2017-01-22T08:04:55.000Z</time>
      </trkpt>
      <trkpt lat="44.53883" lon="0.64089">
        <ele>123.9</ele>
        <time>2017-01-22T08:04:56.000Z</time>
      </trkpt>
      <trkpt lat="44.53881" lon="0.64093">
        <ele>124.1</ele>
        <time>2017-01-22T08:04:57.000Z</time>
      </trkpt>
      <trkpt lat="44.53879" lon="0.64097">
        <ele>124.2</ele>
        <time>2017-01-22T08:04:58.000Z</time>
      </trkpt>
      <trkpt lat="44.53877" lon="0.64101">
        <ele>124.3</ele>
        <time>2017-01-22T08:04:59.000Z</time>
      </trkpt>
      <trkpt lat="44.53875" lon="0.64106">
        <ele>124.4</ele>
        <time>2017-01-22T08:05:00.000Z</time>
      </trkpt>
      <trkpt lat="44.53873" lon="0.6411">
        <ele>124.5</ele>
        <time>2017-01-22T08:05:01.000Z</time>
      </trkpt>
      <trkpt lat="44.53871" lon="0.64114">
        <ele>124.6</ele>
        <time>2017-01-22T08:05:02.000Z</time>
      </trkpt>
      <trkpt lat="44.53869" lon="0.64118">
        <ele>124.7</ele>
        <time>2017-01-22T08:05:03.000Z</time>
      </trkpt>
      <trkpt lat="44.53867" lon="0.64123">
        <ele>124.8</ele>
        <time>2017-01-22T08:05:04.000Z</time>
      </trkpt>
      <trkpt lat="44.53865" lon="0.64127">
        <ele>124.8</ele>
        <time>2017-01-22T08:05:05.000Z</time>
      </trkpt>
      <trkpt lat="44.53863" lon="0.64131">
        <ele>124.9</ele>
        <time>2017-01-22T08:05:06.000Z</time>
      </trkpt>
      <trkpt lat="44.53861" lon="0.64136">
        <ele>125</ele>
        <time>2017-01-22T08:05:07.000Z</time>
      </trkpt>
      <trkpt lat="44.53859" lon="0.6414">
        <ele>125</ele>
        <time>2017-01-22T08:05:08.000Z</time>
      </trkpt>
      <trkpt lat="44.53857" lon="0.64145">
        <ele>125.1</ele>
        <time>2017-01-22T08:05:09.000Z</time>
      </trkpt>
      <trkpt lat="44.53855" lon="0.6415">
        <ele>125.1</ele>
        <time>2017-01-22T08:05:10.000Z</time>
      </trkpt>
      <trkpt lat="44.53854" lon="0.64155">
        <ele>125.1</ele>
        <time>2017-01-22T08:05:11.000Z</time>
      </trkpt>
      <trkpt lat="44.53852" lon="0.64159">
        <ele>125.2</ele>
        <time>2017-01-22T08:05:12.000Z</time>
      </trkpt>
      <trkpt lat="44.5385" lon="0.64164">
        <ele>125.2</ele>
        <time>2017-01-22T08:05:13.000Z</time>
      </trkpt>
      <trkpt lat="44.53849" lon="0.64168">
        <ele>125.2</ele>
        <time>2017-01-22T08:05:14.000Z</time>
      </trkpt>
      <trkpt lat="44.53846" lon="0.64172">
        <ele>125.2</ele>
        <time>2017-01-22T08:05:15.000Z</time>
      </trkpt>
      <trkpt lat="44.53844" lon="0.64176">
        <ele>125.2</ele>
        <time>2017-01-22T08:05:16.000Z</time>
      </trkpt>
      <trkpt lat="44.53843" lon="0.64179">
        <ele>125.3</ele>
        <time>2017-01-22T08:05:17.000Z</time>
      </trkpt>
      <trkpt lat="44.53843" lon="0.64183">
        <ele>125.3</ele>
        <time>2017-01-22T08:05:18.000Z</time>
      </trkpt>
      <trkpt lat="44.53843" lon="0.64187">
        <ele>125.4</ele>
        <time>2017-01-22T08:05:19.000Z</time>
      </trkpt>
      <trkpt lat="44.53843" lon="0.64192">
        <ele>125.4</ele>
        <time>2017-01-22T08:05:20.000Z</time>
      </trkpt>
      <trkpt lat="44.53843" lon="0.64196">
        <ele>125.5</ele>
        <time>2017-01-22T08:05:21.000Z</time>
      </trkpt>
      <trkpt lat="44.53841" lon="0.64201">
        <ele>125.5</ele>
        <time>2017-01-22T08:05:22.000Z</time>
      </trkpt>
      <trkpt lat="44.5384" lon="0.64205">
        <ele>125.5</ele>
        <time>2017-01-22T08:05:23.000Z</time>
      </trkpt>
      <trkpt lat="44.53838" lon="0.6421">
        <ele>125.6</ele>
        <time>2017-01-22T08:05:24.000Z</time>
      </trkpt>
      <trkpt lat="44.53837" lon="0.64215">
        <ele>125.6</ele>
        <time>2017-01-22T08:05:25.000Z</time>
      </trkpt>
      <trkpt lat="44.53836" lon="0.64219">
        <ele>125.7</ele>
        <time>2017-01-22T08:05:26.000Z</time>
      </trkpt>
      <trkpt lat="44.53835" lon="0.64222">
        <ele>125.7</ele>
        <time>2017-01-22T08:05:27.000Z</time>
      </trkpt>
      <trkpt lat="44.53835" lon="0.64226">
        <ele>125.7</ele>
        <time>2017-01-22T08:05:28.000Z</time>
      </trkpt>
      <trkpt lat="44.53834" lon="0.64229">
        <ele>125.8</ele>
        <time>2017-01-22T08:05:29.000Z</time>
      </trkpt>
      <trkpt lat="44.53833" lon="0.64233">
        <ele>125.8</ele>
        <time>2017-01-22T08:05:30.000Z</time>
      </trkpt>
      <trkpt lat="44.53832" lon="0.64236">
        <ele>125.9</ele>
        <time>2017-01-22T08:05:31.000Z</time>
      </trkpt>
      <trkpt lat="44.53831" lon="0.64241">
        <ele>126</ele>
        <time>2017-01-22T08:05:32.000Z</time>
      </trkpt>
      <trkpt lat="44.5383" lon="0.64245">
        <ele>126.1</ele>
        <time>2017-01-22T08:05:33.000Z</time>
      </trkpt>
      <trkpt lat="44.53829" lon="0.64249">
        <ele>126.2</ele>
        <time>2017-01-22T08:05:34.000Z</time>
      </trkpt>
      <trkpt lat="44.53828" lon="0.64253">
        <ele>126.4</ele>
        <time>2017-01-22T08:05:35.000Z</time>
      </trkpt>
      <trkpt lat="44.53827" lon="0.64256">
        <ele>126.7</ele>
        <time>2017-01-22T08:05:36.000Z</time>
      </trkpt>
      <trkpt lat="44.53826" lon="0.64259">
        <ele>126.9</ele>
        <time>2017-01-22T08:05:37.000Z</time>
      </trkpt>
      <trkpt lat="44.53826" lon="0.64262">
        <ele>127</ele>
        <time>2017-01-22T08:05:38.000Z</time>
      </trkpt>
      <trkpt lat="44.53825" lon="0.64265">
        <ele>127.2</ele>
        <time>2017-01-22T08:05:39.000Z</time>
      </trkpt>
      <trkpt lat="44.53824" lon="0.64267">
        <ele>127.4</ele>
        <time>2017-01-22T08:05:40.000Z</time>
      </trkpt>
      <trkpt lat="44.53823" lon="0.6427">
        <ele>127.6</ele>
        <time>2017-01-22T08:05:41.000Z</time>
      </trkpt>
      <trkpt lat="44.53823" lon="0.64274">
        <ele>127.8</ele>
        <time>2017-01-22T08:05:42.000Z</time>
      </trkpt>
      <trkpt lat="44.53822" lon="0.64277">
        <ele>128</ele>
        <time>2017-01-22T08:05:43.000Z</time>
      </trkpt>
      <trkpt lat="44.53822" lon="0.6428">
        <ele>128.2</ele>
        <time>2017-01-22T08:05:44.000Z</time>
      </trkpt>
      <trkpt lat="44.53821" lon="0.64284">
        <ele>128.4</ele>
        <time>2017-01-22T08:05:45.000Z</time>
      </trkpt>
      <trkpt lat="44.53822" lon="0.64287">
        <ele>128.6</ele>
        <time>2017-01-22T08:05:46.000Z</time>
      </trkpt>
      <trkpt lat="44.53822" lon="0.64291">
        <ele>128.8</ele>
        <time>2017-01-22T08:05:47.000Z</time>
      </trkpt>
      <trkpt lat="44.53823" lon="0.64294">
        <ele>128.9</ele>
        <time>2017-01-22T08:05:48.000Z</time>
      </trkpt>
      <trkpt lat="44.53824" lon="0.64297">
        <ele>129.1</ele>
        <time>2017-01-22T08:05:49.000Z</time>
      </trkpt>
      <trkpt lat="44.53825" lon="0.643">
        <ele>129.2</ele>
        <time>2017-01-22T08:05:50.000Z</time>
      </trkpt>
      <trkpt lat="44.53826" lon="0.64303">
        <ele>129.3</ele>
        <time>2017-01-22T08:05:51.000Z</time>
      </trkpt>
      <trkpt lat="44.53828" lon="0.64305">
        <ele>129.5</ele>
        <time>2017-01-22T08:05:52.000Z</time>
      </trkpt>
      <trkpt lat="44.53829" lon="0.64308">
        <ele>129.6</ele>
        <time>2017-01-22T08:05:53.000Z</time>
      </trkpt>
      <trkpt lat="44.53831" lon="0.6431">
        <ele>129.7</ele>
        <time>2017-01-22T08:05:54.000Z</time>
      </trkpt>
      <trkpt lat="44.53832" lon="0.64313">
        <ele>129.8</ele>
        <time>2017-01-22T08:05:55.000Z</time>
      </trkpt>
      <trkpt lat="44.53834" lon="0.64315">
        <ele>129.9</ele>
        <time>2017-01-22T08:05:56.000Z</time>
      </trkpt>
      <trkpt lat="44.53835" lon="0.64317">
        <ele>130</ele>
        <time>2017-01-22T08:05:57.000Z</time>
      </trkpt>
      <trkpt lat="44.53837" lon="0.64319">
        <ele>130.1</ele>
        <time>2017-01-22T08:05:58.000Z</time>
      </trkpt>
      <trkpt lat="44.53838" lon="0.64321">
        <ele>130.3</ele>
        <time>2017-01-22T08:05:59.000Z</time>
      </trkpt>
      <trkpt lat="44.5384" lon="0.64323">
        <ele>130.4</ele>
        <time>2017-01-22T08:06:00.000Z</time>
      </trkpt>
      <trkpt lat="44.53841" lon="0.64325">
        <ele>130.5</ele>
        <time>2017-01-22T08:06:01.000Z</time>
      </trkpt>
      <trkpt lat="44.53843" lon="0.64328">
        <ele>130.7</ele>
        <time>2017-01-22T08:06:02.000Z</time>
      </trkpt>
      <trkpt lat="44.53844" lon="0.6433">
        <ele>130.8</ele>
        <time>2017-01-22T08:06:03.000Z</time>
      </trkpt>
      <trkpt lat="44.53846" lon="0.64332">
        <ele>130.9</ele>
        <time>2017-01-22T08:06:04.000Z</time>
      </trkpt>
      <trkpt lat="44.53847" lon="0.64334">
        <ele>131</ele>
        <time>2017-01-22T08:06:05.000Z</time>
      </trkpt>
      <trkpt lat="44.53849" lon="0.64336">
        <ele>131.1</ele>
        <time>2017-01-22T08:06:06.000Z</time>
      </trkpt>
      <trkpt lat="44.5385" lon="0.64338">
        <ele>131.1</ele>
        <time>2017-01-22T08:06:07.000Z</time>
      </trkpt>
      <trkpt lat="44.53852" lon="0.6434">
        <ele>131.2</ele>
        <time>2017-01-22T08:06:08.000Z</time>
      </trkpt>
      <trkpt lat="44.53853" lon="0.64342">
        <ele>131.2</ele>
        <time>2017-01-22T08:06:09.000Z</time>
      </trkpt>
      <trkpt lat="44.53855" lon="0.64344">
        <ele>131.3</ele>
        <time>2017-01-22T08:06:10.000Z</time>
      </trkpt>
      <trkpt lat="44.53856" lon="0.64347">
        <ele>131.3</ele>
        <time>2017-01-22T08:06:11.000Z</time>
      </trkpt>
      <trkpt lat="44.53858" lon="0.64349">
        <ele>131.4</ele>
        <time>2017-01-22T08:06:12.000Z</time>
      </trkpt>
      <trkpt lat="44.53859" lon="0.64351">
        <ele>131.4</ele>
        <time>2017-01-22T08:06:13.000Z</time>
      </trkpt>
      <trkpt lat="44.53861" lon="0.64353">
        <ele>131.5</ele>
        <time>2017-01-22T08:06:14.000Z</time>
      </trkpt>
      <trkpt lat="44.53862" lon="0.64354">
        <ele>131.5</ele>
        <time>2017-01-22T08:06:15.000Z</time>
      </trkpt>
      <trkpt lat="44.53863" lon="0.64356">
        <ele>131.5</ele>
        <time>2017-01-22T08:06:16.000Z</time>
      </trkpt>
      <trkpt lat="44.53864" lon="0.64358">
        <ele>131.6</ele>
        <time>2017-01-22T08:06:17.000Z</time>
      </trkpt>
      <trkpt lat="44.53865" lon="0.64359">
        <ele>131.6</ele>
        <time>2017-01-22T08:06:18.000Z</time>
      </trkpt>
      <trkpt lat="44.53867" lon="0.64361">
        <ele>131.6</ele>
        <time>2017-01-22T08:06:19.000Z</time>
      </trkpt>
      <trkpt lat="44.53868" lon="0.64362">
        <ele>131.6</ele>
        <time>2017-01-22T08:06:20.000Z</time>
      </trkpt>
      <trkpt lat="44.53869" lon="0.64364">
        <ele>131.6</ele>
        <time>2017-01-22T08:06:21.000Z</time>
      </trkpt>
      <trkpt lat="44.5387" lon="0.64366">
        <ele>131.7</ele>
        <time>2017-01-22T08:06:22.000Z</time>
      </trkpt>
      <trkpt lat="44.53871" lon="0.64368">
        <ele>131.7</ele>
        <time>2017-01-22T08:06:23.000Z</time>
      </trkpt>
      <trkpt lat="44.53871" lon="0.6437">
        <ele>131.7</ele>
        <time>2017-01-22T08:06:24.000Z</time>
      </trkpt>
      <trkpt lat="44.53871" lon="0.64372">
        <ele>131.8</ele>
        <time>2017-01-22T08:06:25.000Z</time>
      </trkpt>
      <trkpt lat="44.5387" lon="0.64374">
        <ele>131.8</ele>
        <time>2017-01-22T08:06:26.000Z</time>
      </trkpt>
      <trkpt lat="44.53869" lon="0.64376">
        <ele>131.9</ele>
        <time>2017-01-22T08:06:27.000Z</time>
      </trkpt>
      <trkpt lat="44.53868" lon="0.64377">
        <ele>131.9</ele>
        <time>2017-01-22T08:06:28.000Z</time>
      </trkpt>
      <trkpt lat="44.53867" lon="0.64379">
        <ele>132</ele>
        <time>2017-01-22T08:06:29.000Z</time>
      </trkpt>
      <trkpt lat="44.53866" lon="0.6438">
        <ele>132</ele>
        <time>2017-01-22T08:06:30.000Z</time>
      </trkpt>
      <trkpt lat="44.53864" lon="0.64382">
        <ele>132.1</ele>
        <time>2017-01-22T08:06:31.000Z</time>
      </trkpt>
      <trkpt lat="44.53863" lon="0.64383">
        <ele>132.2</ele>
        <time>2017-01-22T08:06:32.000Z</time>
      </trkpt>
      <trkpt lat="44.53862" lon="0.64384">
        <ele>132.2</ele>
        <time>2017-01-22T08:06:33.000Z</time>
      </trkpt>
      <trkpt lat="44.5386" lon="0.64386">
        <ele>132.3</ele>
        <time>2017-01-22T08:06:34.000Z</time>
      </trkpt>
      <trkpt lat="44.53859" lon="0.64387">
        <ele>132.3</ele>
        <time>2017-01-22T08:06:35.000Z</time>
      </trkpt>
      <trkpt lat="44.53858" lon="0.64389">
        <ele>132.4</ele>
        <time>2017-01-22T08:06:36.000Z</time>
      </trkpt>
      <trkpt lat="44.53856" lon="0.6439">
        <ele>132.5</ele>
        <time>2017-01-22T08:06:37.000Z</time>
      </trkpt>
      <trkpt lat="44.53855" lon="0.64392">
        <ele>132.6</ele>
        <time>2017-01-22T08:06:38.000Z</time>
      </trkpt>
      <trkpt lat="44.53854" lon="0.64393">
        <ele>132.6</ele>
        <time>2017-01-22T08:06:39.000Z</time>
      </trkpt>
      <trkpt lat="44.53853" lon="0.64395">
        <ele>132.7</ele>
        <time>2017-01-22T08:06:40.000Z</time>
      </trkpt>
      <trkpt lat="44.53851" lon="0.64397">
        <ele>132.8</ele>
        <time>2017-01-22T08:06:41.000Z</time>
      </trkpt>
      <trkpt lat="44.5385" lon="0.64398">
        <ele>132.9</ele>
        <time>2017-01-22T08:06:42.000Z</time>
      </trkpt>
      <trkpt lat="44.53849" lon="0.644">
        <ele>132.9</ele>
        <time>2017-01-22T08:06:43.000Z</time>
      </trkpt>
      <trkpt lat="44.53848" lon="0.64402">
        <ele>133</ele>
        <time>2017-01-22T08:06:44.000Z</time>
      </trkpt>
      <trkpt lat="44.53847" lon="0.64403">
        <ele>133.1</ele>
        <time>2017-01-22T08:06:45.000Z</time>
      </trkpt>
      <trkpt lat="44.53845" lon="0.64405">
        <ele>133.2</ele>
        <time>2017-01-22T08:06:46.000Z</time>
      </trkpt>
      <trkpt lat="44.53844" lon="0.64407">
        <ele>133.3</ele>
        <time>2017-01-22T08:06:47.000Z</time>
      </trkpt>
      <trkpt lat="44.53843" lon="0.64409">
        <ele>133.4</ele>
        <time>2017-01-22T08:06:48.000Z</time>
      </trkpt>
      <trkpt lat="44.53842" lon="0.64411">
        <ele>133.5</ele>
        <time>2017-01-22T08:06:49.000Z</time>
      </trkpt>
      <trkpt lat="44.5384" lon="0.64413">
        <ele>133.6</ele>
        <time>2017-01-22T08:06:50.000Z</time>
      </trkpt>
      <trkpt lat="44.53839" lon="0.64415">
        <ele>133.7</ele>
        <time>2017-01-22T08:06:51.000Z</time>
      </trkpt>
      <trkpt lat="44.53838" lon="0.64417">
        <ele>133.8</ele>
        <time>2017-01-22T08:06:52.000Z</time>
      </trkpt>
      <trkpt lat="44.53836" lon="0.64419">
        <ele>133.8</ele>
        <time>2017-01-22T08:06:53.000Z</time>
      </trkpt>
      <trkpt lat="44.53835" lon="0.64421">
        <ele>133.8</ele>
        <time>2017-01-22T08:06:54.000Z</time>
      </trkpt>
      <trkpt lat="44.53833" lon="0.64422">
        <ele>133.9</ele>
        <time>2017-01-22T08:06:55.000Z</time>
      </trkpt>
      <trkpt lat="44.53832" lon="0.64424">
        <ele>133.9</ele>
        <time>2017-01-22T08:06:56.000Z</time>
      </trkpt>
      <trkpt lat="44.5383" lon="0.64426">
        <ele>133.9</ele>
        <time>2017-01-22T08:06:57.000Z</time>
      </trkpt>
      <trkpt lat="44.53828" lon="0.64427">
        <ele>133.9</ele>
        <time>2017-01-22T08:06:58.000Z</time>
      </trkpt>
      <trkpt lat="44.53826" lon="0.64429">
        <ele>134</ele>
        <time>2017-01-22T08:06:59.000Z</time>
      </trkpt>
      <trkpt lat="44.53824" lon="0.6443">
        <ele>134</ele>
        <time>2017-01-22T08:07:00.000Z</time>
      </trkpt>
      <trkpt lat="44.53822" lon="0.64431">
        <ele>134.1</ele>
        <time>2017-01-22T08:07:01.000Z</time>
      </trkpt>
      <trkpt lat="44.5382" lon="0.64432">
        <ele>134.1</ele>
        <time>2017-01-22T08:07:02.000Z</time>
      </trkpt>
      <trkpt lat="44.53818" lon="0.64433">
        <ele>134.2</ele>
        <time>2017-01-22T08:07:03.000Z</time>
      </trkpt>
      <trkpt lat="44.53816" lon="0.64434">
        <ele>134.3</ele>
        <time>2017-01-22T08:07:04.000Z</time>
      </trkpt>
      <trkpt lat="44.53814" lon="0.64436">
        <ele>134.4</ele>
        <time>2017-01-22T08:07:05.000Z</time>
      </trkpt>
      <trkpt lat="44.53812" lon="0.64437">
        <ele>134.4</ele>
        <time>2017-01-22T08:07:06.000Z</time>
      </trkpt>
      <trkpt lat="44.5381" lon="0.64438">
        <ele>134.5</ele>
        <time>2017-01-22T08:07:07.000Z</time>
      </trkpt>
      <trkpt lat="44.53808" lon="0.64439">
        <ele>134.6</ele>
        <time>2017-01-22T08:07:08.000Z</time>
      </trkpt>
      <trkpt lat="44.53806" lon="0.6444">
        <ele>134.7</ele>
        <time>2017-01-22T08:07:09.000Z</time>
      </trkpt>
      <trkpt lat="44.53804" lon="0.64442">
        <ele>134.8</ele>
        <time>2017-01-22T08:07:10.000Z</time>
      </trkpt>
      <trkpt lat="44.53802" lon="0.64443">
        <ele>134.9</ele>
        <time>2017-01-22T08:07:11.000Z</time>
      </trkpt>
      <trkpt lat="44.538" lon="0.64444">
        <ele>135.1</ele>
        <time>2017-01-22T08:07:12.000Z</time>
      </trkpt>
      <trkpt lat="44.53798" lon="0.64445">
        <ele>135.2</ele>
        <time>2017-01-22T08:07:13.000Z</time>
      </trkpt>
      <trkpt lat="44.53796" lon="0.64447">
        <ele>135.3</ele>
        <time>2017-01-22T08:07:14.000Z</time>
      </trkpt>
      <trkpt lat="44.53794" lon="0.64448">
        <ele>135.5</ele>
        <time>2017-01-22T08:07:15.000Z</time>
      </trkpt>
      <trkpt lat="44.53791" lon="0.64449">
        <ele>135.6</ele>
        <time>2017-01-22T08:07:16.000Z</time>
      </trkpt>
      <trkpt lat="44.53789" lon="0.6445">
        <ele>135.8</ele>
        <time>2017-01-22T08:07:17.000Z</time>
      </trkpt>
      <trkpt lat="44.53787" lon="0.64452">
        <ele>135.9</ele>
        <time>2017-01-22T08:07:18.000Z</time>
      </trkpt>
      <trkpt lat="44.53784" lon="0.64453">
        <ele>136.1</ele>
        <time>2017-01-22T08:07:19.000Z</time>
      </trkpt>
      <trkpt lat="44.53782" lon="0.64455">
        <ele>136.3</ele>
        <time>2017-01-22T08:07:20.000Z</time>
      </trkpt>
      <trkpt lat="44.53779" lon="0.64456">
        <ele>136.5</ele>
        <time>2017-01-22T08:07:21.000Z</time>
      </trkpt>
      <trkpt lat="44.53777" lon="0.64458">
        <ele>136.7</ele>
        <time>2017-01-22T08:07:22.000Z</time>
      </trkpt>
      <trkpt lat="44.53775" lon="0.64459">
        <ele>136.9</ele>
        <time>2017-01-22T08:07:23.000Z</time>
      </trkpt>
      <trkpt lat="44.53772" lon="0.64461">
        <ele>137.1</ele>
        <time>2017-01-22T08:07:24.000Z</time>
      </trkpt>
      <trkpt lat="44.5377" lon="0.64462">
        <ele>137.3</ele>
        <time>2017-01-22T08:07:25.000Z</time>
      </trkpt>
      <trkpt lat="44.53768" lon="0.64464">
        <ele>137.6</ele>
        <time>2017-01-22T08:07:26.000Z</time>
      </trkpt>
      <trkpt lat="44.53765" lon="0.64465">
        <ele>137.8</ele>
        <time>2017-01-22T08:07:27.000Z</time>
      </trkpt>
      <trkpt lat="44.53763" lon="0.64467">
        <ele>138</ele>
        <time>2017-01-22T08:07:28.000Z</time>
      </trkpt>
      <trkpt lat="44.53761" lon="0.64468">
        <ele>138.3</ele>
        <time>2017-01-22T08:07:29.000Z</time>
      </trkpt>
      <trkpt lat="44.53759" lon="0.6447">
        <ele>138.5</ele>
        <time>2017-01-22T08:07:30.000Z</time>
      </trkpt>
      <trkpt lat="44.53756" lon="0.64471">
        <ele>138.8</ele>
        <time>2017-01-22T08:07:31.000Z</time>
      </trkpt>
      <trkpt lat="44.53754" lon="0.64473">
        <ele>139.1</ele>
        <time>2017-01-22T08:07:32.000Z</time>
      </trkpt>
      <trkpt lat="44.53752" lon="0.64474">
        <ele>139.3</ele>
        <time>2017-01-22T08:07:33.000Z</time>
      </trkpt>
      <trkpt lat="44.5375" lon="0.64476">
        <ele>139.6</ele>
        <time>2017-01-22T08:07:34.000Z</time>
      </trkpt>
      <trkpt lat="44.53747" lon="0.64477">
        <ele>139.9</ele>
        <time>2017-01-22T08:07:35.000Z</time>
      </trkpt>
      <trkpt lat="44.53745" lon="0.64479">
        <ele>140.2</ele>
        <time>2017-01-22T08:07:36.000Z</time>
      </trkpt>
      <trkpt lat="44.53743" lon="0.6448">
        <ele>140.4</ele>
        <time>2017-01-22T08:07:37.000Z</time>
      </trkpt>
      <trkpt lat="44.53741" lon="0.64482">
        <ele>140.7</ele>
        <time>2017-01-22T08:07:38.000Z</time>
      </trkpt>
      <trkpt lat="44.53739" lon="0.64483">
        <ele>141</ele>
        <time>2017-01-22T08:07:39.000Z</time>
      </trkpt>
      <trkpt lat="44.53737" lon="0.64485">
        <ele>141.3</ele>
        <time>2017-01-22T08:07:40.000Z</time>
      </trkpt>
      <trkpt lat="44.53735" lon="0.64486">
        <ele>141.5</ele>
        <time>2017-01-22T08:07:41.000Z</time>
      </trkpt>
      <trkpt lat="44.53733" lon="0.64488">
        <ele>141.8</ele>
        <time>2017-01-22T08:07:42.000Z</time>
      </trkpt>
      <trkpt lat="44.53731" lon="0.64489">
        <ele>142.1</ele>
        <time>2017-01-22T08:07:43.000Z</time>
      </trkpt>
      <trkpt lat="44.53728" lon="0.64491">
        <ele>142.3</ele>
        <time>2017-01-22T08:07:44.000Z</time>
      </trkpt>
      <trkpt lat="44.53726" lon="0.64493">
        <ele>142.6</ele>
        <time>2017-01-22T08:07:45.000Z</time>
      </trkpt>
      <trkpt lat="44.53724" lon="0.64494">
        <ele>142.9</ele>
        <time>2017-01-22T08:07:46.000Z</time>
      </trkpt>
      <trkpt lat="44.53722" lon="0.64496">
        <ele>143.1</ele>
        <time>2017-01-22T08:07:47.000Z</time>
      </trkpt>
      <trkpt lat="44.5372" lon="0.64497">
        <ele>143.4</ele>
        <time>2017-01-22T08:07:48.000Z</time>
      </trkpt>
      <trkpt lat="44.53718" lon="0.64499">
        <ele>143.6</ele>
        <time>2017-01-22T08:07:49.000Z</time>
      </trkpt>
      <trkpt lat="44.53716" lon="0.64501">
        <ele>143.9</ele>
        <time>2017-01-22T08:07:50.000Z</time>
      </trkpt>
      <trkpt lat="44.53714" lon="0.64503">
        <ele>144</ele>
        <time>2017-01-22T08:07:51.000Z</time>
      </trkpt>
      <trkpt lat="44.53712" lon="0.64504">
        <ele>144.2</ele>
        <time>2017-01-22T08:07:52.000Z</time>
      </trkpt>
      <trkpt lat="44.5371" lon="0.64506">
        <ele>144.4</ele>
        <time>2017-01-22T08:07:53.000Z</time>
      </trkpt>
      <trkpt lat="44.53708" lon="0.64508">
        <ele>144.5</ele>
        <time>2017-01-22T08:07:54.000Z</time>
      </trkpt>
      <trkpt lat="44.53706" lon="0.64509">
        <ele>144.7</ele>
        <time>2017-01-22T08:07:55.000Z</time>
      </trkpt>
      <trkpt lat="44.53703" lon="0.64511">
        <ele>144.9</ele>
        <time>2017-01-22T08:07:56.000Z</time>
      </trkpt>
      <trkpt lat="44.53701" lon="0.64513">
        <ele>145</ele>
        <time>2017-01-22T08:07:57.000Z</time>
      </trkpt>
      <trkpt lat="44.53699" lon="0.64514">
        <ele>145.2</ele>
        <time>2017-01-22T08:07:58.000Z</time>
      </trkpt>
      <trkpt lat="44.53697" lon="0.64516">
        <ele>145.3</ele>
        <time>2017-01-22T08:07:59.000Z</time>
      </trkpt>
      <trkpt lat="44.53694" lon="0.64518">
        <ele>145.5</ele>
        <time>2017-01-22T08:08:00.000Z</time>
      </trkpt>
      <trkpt lat="44.53692" lon="0.64519">
        <ele>145.6</ele>
        <time>2017-01-22T08:08:01.000Z</time>
      </trkpt>
      <trkpt lat="44.5369" lon="0.64521">
        <ele>145.7</ele>
        <time>2017-01-22T08:08:02.000Z</time>
      </trkpt>
      <trkpt lat="44.53687" lon="0.64522">
        <ele>145.9</ele>
        <time>2017-01-22T08:08:03.000Z</time>
      </trkpt>
      <trkpt lat="44.53685" lon="0.64524">
        <ele>146</ele>
        <time>2017-01-22T08:08:04.000Z</time>
      </trkpt>
      <trkpt lat="44.53683" lon="0.64526">
        <ele>146.1</ele>
        <time>2017-01-22T08:08:05.000Z</time>
      </trkpt>
      <trkpt lat="44.53681" lon="0.64527">
        <ele>146.2</ele>
        <time>2017-01-22T08:08:06.000Z</time>
      </trkpt>
      <trkpt lat="44.53678" lon="0.64529">
        <ele>146.3</ele>
        <time>2017-01-22T08:08:07.000Z</time>
      </trkpt>
      <trkpt lat="44.53676" lon="0.6453">
        <ele>146.4</ele>
        <time>2017-01-22T08:08:08.000Z</time>
      </trkpt>
      <trkpt lat="44.53674" lon="0.64532">
        <ele>146.4</ele>
        <time>2017-01-22T08:08:09.000Z</time>
      </trkpt>
      <trkpt lat="44.53672" lon="0.64533">
        <ele>146.5</ele>
        <time>2017-01-22T08:08:10.000Z</time>
      </trkpt>
      <trkpt lat="44.53669" lon="0.64534">
        <ele>146.6</ele>
        <time>2017-01-22T08:08:11.000Z</time>
      </trkpt>
      <trkpt lat="44.53667" lon="0.64536">
        <ele>146.7</ele>
        <time>2017-01-22T08:08:12.000Z</time>
      </trkpt>
      <trkpt lat="44.53665" lon="0.64537">
        <ele>146.6</ele>
        <time>2017-01-22T08:08:13.000Z</time>
      </trkpt>
      <trkpt lat="44.53662" lon="0.64538">
        <ele>146.4</ele>
        <time>2017-01-22T08:08:14.000Z</time>
      </trkpt>
      <trkpt lat="44.5366" lon="0.64539">
        <ele>146.2</ele>
        <time>2017-01-22T08:08:15.000Z</time>
      </trkpt>
      <trkpt lat="44.53657" lon="0.6454">
        <ele>146</ele>
        <time>2017-01-22T08:08:16.000Z</time>
      </trkpt>
      <trkpt lat="44.53654" lon="0.6454">
        <ele>145.9</ele>
        <time>2017-01-22T08:08:17.000Z</time>
      </trkpt>
      <trkpt lat="44.53652" lon="0.64541">
        <ele>145.7</ele>
        <time>2017-01-22T08:08:18.000Z</time>
      </trkpt>
      <trkpt lat="44.53649" lon="0.64541">
        <ele>145.6</ele>
        <time>2017-01-22T08:08:19.000Z</time>
      </trkpt>
      <trkpt lat="44.53647" lon="0.64542">
        <ele>145.4</ele>
        <time>2017-01-22T08:08:20.000Z</time>
      </trkpt>
      <trkpt lat="44.53645" lon="0.64542">
        <ele>145.3</ele>
        <time>2017-01-22T08:08:21.000Z</time>
      </trkpt>
      <trkpt lat="44.53643" lon="0.64542">
        <ele>145.2</ele>
        <time>2017-01-22T08:08:22.000Z</time>
      </trkpt>
      <trkpt lat="44.53642" lon="0.64542">
        <ele>145.1</ele>
        <time>2017-01-22T08:08:23.000Z</time>
      </trkpt>
      <trkpt lat="44.53641" lon="0.64542">
        <ele>145.1</ele>
        <time>2017-01-22T08:08:24.000Z</time>
      </trkpt>
      <trkpt lat="44.5364" lon="0.64542">
        <ele>145</ele>
        <time>2017-01-22T08:08:25.000Z</time>
      </trkpt>
      <trkpt lat="44.5364" lon="0.64542">
        <ele>145</ele>
        <time>2017-01-22T08:08:26.000Z</time>
      </trkpt>
      <trkpt lat="44.53639" lon="0.64542">
        <ele>145</ele>
        <time>2017-01-22T08:08:27.000Z</time>
      </trkpt>
      <trkpt lat="44.53639" lon="0.64542">
        <ele>145</ele>
        <time>2017-01-22T08:08:28.000Z</time>
      </trkpt>
      <trkpt lat="44.53639" lon="0.64542">
        <ele>145</ele>
        <time>2017-01-22T08:08:29.000Z</time>
      </trkpt>
      <trkpt lat="44.53639" lon="0.64542">
        <ele>145</ele>
        <time>2017-01-22T08:08:30.000Z</time>
      </trkpt>
      <trkpt lat="44.53639" lon="0.64542">
        <ele>145</ele>
        <time>2017-01-22T08:08:31.000Z</time>
      </trkpt>
      <trkpt lat="44.53639" lon="0.64542">
        <ele>145</ele>
        <time>2017-01-22T08:08:32.000Z</time>
      </trkpt>
      <trkpt lat="44.53639" lon="0.64542">
        <ele>145</ele>
        <time>2017-01-22T08:08:33.000Z</time>
      </trkpt>
      <trkpt lat="44.53639" lon="0.64542">
        <ele>145</ele>
        <time>2017-01-22T08:08:34.000Z</time>
      </trkpt>
      <trkpt lat="44.53639" lon="0.64542">
        <ele>145</ele>
        <time>2017-01-22T08:08:35.000Z</time>
      </trkpt>
      <trkpt lat="44.53639" lon="0.64542">
        <ele>145</ele>
        <time>2017-01-22T08:08:36.000Z</time>
      </trkpt>
      <trkpt lat="44.53639" lon="0.64542">
        <ele>145</ele>
        <time>2017-01-22T08:08:37.000Z</time>
      </trkpt>
      <trkpt lat="44.53639" lon="0.64542">
        <ele>145</ele>
        <time>2017-01-22T08:08:38.000Z</time>
      </trkpt>
      <trkpt lat="44.53639" lon="0.64542">
        <ele>145</ele>
        <time>2017-01-22T08:08:39.000Z</time>
      </trkpt>
      <trkpt lat="44.53639" lon="0.64542">
        <ele>145</ele>
        <time>2017-01-22T08:08:40.000Z</time>
      </trkpt>
      <trkpt lat="44.53639" lon="0.64542">
        <ele>145</ele>
        <time>2017-01-22T08:08:41.000Z</time>
      </trkpt>
      <trkpt lat="44.53639" lon="0.64542">
        <ele>145</ele>
        <time>2017-01-22T08:08:42.000Z</time>
      </trkpt>
      <trkpt lat="44.53639" lon="0.64542">
        <ele>145</ele>
        <time>2017-01-22T08:08:43.000Z</time>
      </trkpt>
      <trkpt lat="44.53639" lon="0.64542">
        <ele>145</ele>
        <time>2017-01-22T08:08:44.000Z</time>
      </trkpt>
      <trkpt lat="44.53639" lon="0.64542">
        <ele>145</ele>
        <time>2017-01-22T08:08:45.000Z</time>
      </trkpt>
      <trkpt lat="44.53639" lon="0.64542">
        <ele>145</ele>
        <time>2017-01-22T08:08:46.000Z</time>
      </trkpt>
      <trkpt lat="44.53639" lon="0.64542">
        <ele>145</ele>
        <time>2017-01-22T08:08:47.000Z</time>
      </trkpt>
      <trkpt lat="44.53639" lon="0.64542">
        <ele>145</ele>
        <time>2017-01-22T08:08:48.000Z</time>
      </trkpt>
      <trkpt lat="44.53639" lon="0.64542">
        <ele>145</ele>
        <time>2017-01-22T08:08:49.000Z</time>
      </trkpt>
      <trkpt lat="44.53639" lon="0.64542">
        <ele>145</ele>
        <time>2017-01-22T08:08:50.000Z</time>
      </trkpt>
      <trkpt lat="44.53639" lon="0.64542">
        <ele>145</ele>
        <time>2017-01-22T08:08:51.000Z</time>
      </trkpt>
      <trkpt lat="44.53639" lon="0.64542">
        <ele>145</ele>
        <time>2017-01-22T08:08:52.000Z</time>
      </trkpt>
      <trkpt lat="44.53639" lon="0.64542">
        <ele>145</ele>
        <time>2017-01-22T08:08:53.000Z</time>
      </trkpt>
      <trkpt lat="44.53639" lon="0.64542">
        <ele>145</ele>
        <time>2017-01-22T08:08:54.000Z</time>
      </trkpt>
      <trkpt lat="44.53639" lon="0.64542">
        <ele>145</ele>
        <time>2017-01-22T08:08:55.000Z</time>
      </trkpt>
      <trkpt lat="44.53639" lon="0.64542">
        <ele>145</ele>
        <time>2017-01-22T08:08:56.000Z</time>
      </trkpt>
      <trkpt lat="44.53639" lon="0.64542">
        <ele>145</ele>
        <time>2017-01-22T08:08:57.000Z</time>
      </trkpt>
      <trkpt lat="44.53639" lon="0.64542">
        <ele>145</ele>
        <time>2017-01-22T08:08:58.000Z</time>
      </trkpt>
      <trkpt lat="44.53639" lon="0.64542">
        <ele>145</ele>
        <time>2017-01-22T08:08:59.000Z</time>
      </trkpt>
      <trkpt lat="44.53639" lon="0.64542">
        <ele>145</ele>
        <time>2017-01-22T08:09:00.000Z</time>
      </trkpt>
      <trkpt lat="44.53639" lon="0.64542">
        <ele>145</ele>
        <time>2017-01-22T08:09:01.000Z</time>
      </trkpt>
      <trkpt lat="44.53639" lon="0.64542">
        <ele>145</ele>
        <time>2017-01-22T08:09:02.000Z</time>
      </trkpt>
      <trkpt lat="44.53639" lon="0.64542">
        <ele>145</ele>
        <time>2017-01-22T08:09:03.000Z</time>
      </trkpt>
      <trkpt lat="44.53639" lon="0.64542">
        <ele>145</ele>
        <time>2017-01-22T08:09:04.000Z</time>
      </trkpt>
      <trkpt lat="44.53639" lon="0.64542">
        <ele>145</ele>
        <time>2017-01-22T08:09:05.000Z</time>
      </trkpt>
      <trkpt lat="44.53639" lon="0.64542">
        <ele>145</ele>
        <time>2017-01-22T08:09:06.000Z</time>
      </trkpt>
      <trkpt lat="44.53639" lon="0.64542">
        <ele>145</ele>
        <time>2017-01-22T08:09:07.000Z</time>
      </trkpt>
      <trkpt lat="44.53639" lon="0.64542">
        <ele>145</ele>
        <time>2017-01-22T08:09:08.000Z</time>
      </trkpt>
      <trkpt lat="44.53639" lon="0.64542">
        <ele>145</ele>
        <time>2017-01-22T08:09:09.000Z</time>
      </trkpt>
      <trkpt lat="44.53639" lon="0.64542">
        <ele>145</ele>
        <time>2017-01-22T08:09:10.000Z</time>
      </trkpt>
      <trkpt lat="44.53639" lon="0.64543">
        <ele>145</ele>
        <time>2017-01-22T08:09:11.000Z</time>
      </trkpt>
      <trkpt lat="44.53638" lon="0.64543">
        <ele>144.9</ele>
        <time>2017-01-22T08:09:12.000Z</time>
      </trkpt>
      <trkpt lat="44.53637" lon="0.64544">
        <ele>144.8</ele>
        <time>2017-01-22T08:09:13.000Z</time>
      </trkpt>
      <trkpt lat="44.53637" lon="0.64545">
        <ele>144.8</ele>
        <time>2017-01-22T08:09:14.000Z</time>
      </trkpt>
      <trkpt lat="44.53637" lon="0.64546">
        <ele>144.7</ele>
        <time>2017-01-22T08:09:15.000Z</time>
      </trkpt>
      <trkpt lat="44.53637" lon="0.64548">
        <ele>144.7</ele>
        <time>2017-01-22T08:09:16.000Z</time>
      </trkpt>
      <trkpt lat="44.53638" lon="0.64549">
        <ele>144.7</ele>
        <time>2017-01-22T08:09:17.000Z</time>
      </trkpt>
      <trkpt lat="44.53638" lon="0.64549">
        <ele>144.7</ele>
        <time>2017-01-22T08:09:18.000Z</time>
      </trkpt>
      <trkpt lat="44.53639" lon="0.64549">
        <ele>144.8</ele>
        <time>2017-01-22T08:09:19.000Z</time>
      </trkpt>
      <trkpt lat="44.5364" lon="0.64548">
        <ele>144.8</ele>
        <time>2017-01-22T08:09:20.000Z</time>
      </trkpt>
      <trkpt lat="44.53641" lon="0.64547">
        <ele>144.9</ele>
        <time>2017-01-22T08:09:21.000Z</time>
      </trkpt>
      <trkpt lat="44.53641" lon="0.64546">
        <ele>145</ele>
        <time>2017-01-22T08:09:22.000Z</time>
      </trkpt>
      <trkpt lat="44.53642" lon="0.64545">
        <ele>145.1</ele>
        <time>2017-01-22T08:09:23.000Z</time>
      </trkpt>
      <trkpt lat="44.53642" lon="0.64543">
        <ele>145.1</ele>
        <time>2017-01-22T08:09:24.000Z</time>
      </trkpt>
      <trkpt lat="44.53642" lon="0.64542">
        <ele>145.1</ele>
        <time>2017-01-22T08:09:25.000Z</time>
      </trkpt>
      <trkpt lat="44.53642" lon="0.64541">
        <ele>145.2</ele>
        <time>2017-01-22T08:09:26.000Z</time>
      </trkpt>
      <trkpt lat="44.53641" lon="0.64541">
        <ele>145.1</ele>
        <time>2017-01-22T08:09:27.000Z</time>
      </trkpt>
      <trkpt lat="44.5364" lon="0.64541">
        <ele>145.1</ele>
        <time>2017-01-22T08:09:28.000Z</time>
      </trkpt>
      <trkpt lat="44.53639" lon="0.64541">
        <ele>145.1</ele>
        <time>2017-01-22T08:09:29.000Z</time>
      </trkpt>
      <trkpt lat="44.53639" lon="0.64541">
        <ele>145</ele>
        <time>2017-01-22T08:09:30.000Z</time>
      </trkpt>
      <trkpt lat="44.53638" lon="0.64542">
        <ele>144.9</ele>
        <time>2017-01-22T08:09:31.000Z</time>
      </trkpt>
      <trkpt lat="44.53637" lon="0.64542">
        <ele>144.9</ele>
        <time>2017-01-22T08:09:32.000Z</time>
      </trkpt>
      <trkpt lat="44.53636" lon="0.64543">
        <ele>144.8</ele>
        <time>2017-01-22T08:09:33.000Z</time>
      </trkpt>
      <trkpt lat="44.53636" lon="0.64544">
        <ele>144.8</ele>
        <time>2017-01-22T08:09:34.000Z</time>
      </trkpt>
      <trkpt lat="44.53636" lon="0.64545">
        <ele>144.7</ele>
        <time>2017-01-22T08:09:35.000Z</time>
      </trkpt>
      <trkpt lat="44.53636" lon="0.64547">
        <ele>144.7</ele>
        <time>2017-01-22T08:09:36.000Z</time>
      </trkpt>
      <trkpt lat="44.53636" lon="0.64548">
        <ele>144.6</ele>
        <time>2017-01-22T08:09:37.000Z</time>
      </trkpt>
      <trkpt lat="44.53636" lon="0.6455">
        <ele>144.6</ele>
        <time>2017-01-22T08:09:38.000Z</time>
      </trkpt>
      <trkpt lat="44.53637" lon="0.64552">
        <ele>144.5</ele>
        <time>2017-01-22T08:09:39.000Z</time>
      </trkpt>
      <trkpt lat="44.53637" lon="0.64554">
        <ele>144.5</ele>
        <time>2017-01-22T08:09:40.000Z</time>
      </trkpt>
      <trkpt lat="44.53638" lon="0.64556">
        <ele>144.5</ele>
        <time>2017-01-22T08:09:41.000Z</time>
      </trkpt>
      <trkpt lat="44.53638" lon="0.64559">
        <ele>144.4</ele>
        <time>2017-01-22T08:09:42.000Z</time>
      </trkpt>
      <trkpt lat="44.53638" lon="0.64561">
        <ele>144.4</ele>
        <time>2017-01-22T08:09:43.000Z</time>
      </trkpt>
      <trkpt lat="44.53639" lon="0.64563">
        <ele>144.3</ele>
        <time>2017-01-22T08:09:44.000Z</time>
      </trkpt>
      <trkpt lat="44.53639" lon="0.64566">
        <ele>144.2</ele>
        <time>2017-01-22T08:09:45.000Z</time>
      </trkpt>
      <trkpt lat="44.53639" lon="0.64568">
        <ele>144.2</ele>
        <time>2017-01-22T08:09:46.000Z</time>
      </trkpt>
      <trkpt lat="44.53639" lon="0.64571">
        <ele>144.1</ele>
        <time>2017-01-22T08:09:47.000Z</time>
      </trkpt>
      <trkpt lat="44.5364" lon="0.64574">
        <ele>144</ele>
        <time>2017-01-22T08:09:48.000Z</time>
      </trkpt>
      <trkpt lat="44.5364" lon="0.64577">
        <ele>143.9</ele>
        <time>2017-01-22T08:09:49.000Z</time>
      </trkpt>
      <trkpt lat="44.5364" lon="0.64581">
        <ele>143.8</ele>
        <time>2017-01-22T08:09:50.000Z</time>
      </trkpt>
      <trkpt lat="44.53641" lon="0.64584">
        <ele>143.7</ele>
        <time>2017-01-22T08:09:51.000Z</time>
      </trkpt>
      <trkpt lat="44.53641" lon="0.64587">
        <ele>143.7</ele>
        <time>2017-01-22T08:09:52.000Z</time>
      </trkpt>
      <trkpt lat="44.53641" lon="0.64591">
        <ele>143.7</ele>
        <time>2017-01-22T08:09:53.000Z</time>
      </trkpt>
      <trkpt lat="44.53641" lon="0.64595">
        <ele>143.7</ele>
        <time>2017-01-22T08:09:54.000Z</time>
      </trkpt>
      <trkpt lat="44.53642" lon="0.64599">
        <ele>143.7</ele>
        <time>2017-01-22T08:09:55.000Z</time>
      </trkpt>
      <trkpt lat="44.53642" lon="0.64602">
        <ele>143.7</ele>
        <time>2017-01-22T08:09:56.000Z</time>
      </trkpt>
      <trkpt lat="44.53643" lon="0.64606">
        <ele>143.7</ele>
        <time>2017-01-22T08:09:57.000Z</time>
      </trkpt>
      <trkpt lat="44.53643" lon="0.6461">
        <ele>143.7</ele>
        <time>2017-01-22T08:09:58.000Z</time>
      </trkpt>
      <trkpt lat="44.53643" lon="0.64615">
        <ele>143.7</ele>
        <time>2017-01-22T08:09:59.000Z</time>
      </trkpt>
      <trkpt lat="44.53644" lon="0.64619">
        <ele>143.7</ele>
        <time>2017-01-22T08:10:00.000Z</time>
      </trkpt>
      <trkpt lat="44.53644" lon="0.64623">
        <ele>143.6</ele>
        <time>2017-01-22T08:10:01.000Z</time>
      </trkpt>
      <trkpt lat="44.53644" lon="0.64627">
        <ele>143.6</ele>
        <time>2017-01-22T08:10:02.000Z</time>
      </trkpt>
      <trkpt lat="44.53644" lon="0.64631">
        <ele>143.6</ele>
        <time>2017-01-22T08:10:03.000Z</time>
      </trkpt>
      <trkpt lat="44.53645" lon="0.64635">
        <ele>143.6</ele>
        <time>2017-01-22T08:10:04.000Z</time>
      </trkpt>
      <trkpt lat="44.53645" lon="0.64639">
        <ele>143.6</ele>
        <time>2017-01-22T08:10:05.000Z</time>
      </trkpt>
      <trkpt lat="44.53645" lon="0.64643">
        <ele>143.6</ele>
        <time>2017-01-22T08:10:06.000Z</time>
      </trkpt>
      <trkpt lat="44.53645" lon="0.64647">
        <ele>143.6</ele>
        <time>2017-01-22T08:10:07.000Z</time>
      </trkpt>
      <trkpt lat="44.53646" lon="0.64651">
        <ele>143.6</ele>
        <time>2017-01-22T08:10:08.000Z</time>
      </trkpt>
      <trkpt lat="44.53646" lon="0.64655">
        <ele>143.6</ele>
        <time>2017-01-22T08:10:09.000Z</time>
      </trkpt>
      <trkpt lat="44.53646" lon="0.64659">
        <ele>143.6</ele>
        <time>2017-01-22T08:10:10.000Z</time>
      </trkpt>
      <trkpt lat="44.53647" lon="0.64664">
        <ele>143.6</ele>
        <time>2017-01-22T08:10:11.000Z</time>
      </trkpt>
      <trkpt lat="44.53647" lon="0.64669">
        <ele>143.7</ele>
        <time>2017-01-22T08:10:12.000Z</time>
      </trkpt>
      <trkpt lat="44.53648" lon="0.64673">
        <ele>143.8</ele>
        <time>2017-01-22T08:10:13.000Z</time>
      </trkpt>
      <trkpt lat="44.53648" lon="0.64678">
        <ele>144</ele>
        <time>2017-01-22T08:10:14.000Z</time>
      </trkpt>
      <trkpt lat="44.53649" lon="0.64682">
        <ele>144.1</ele>
        <time>2017-01-22T08:10:15.000Z</time>
      </trkpt>
      <trkpt lat="44.53649" lon="0.64686">
        <ele>144.3</ele>
        <time>2017-01-22T08:10:16.000Z</time>
      </trkpt>
      <trkpt lat="44.53649" lon="0.64691">
        <ele>144.4</ele>
        <time>2017-01-22T08:10:17.000Z</time>
      </trkpt>
      <trkpt lat="44.53649" lon="0.64695">
        <ele>144.5</ele>
        <time>2017-01-22T08:10:18.000Z</time>
      </trkpt>
      <trkpt lat="44.53649" lon="0.647">
        <ele>144.6</ele>
        <time>2017-01-22T08:10:19.000Z</time>
      </trkpt>
      <trkpt lat="44.53648" lon="0.64705">
        <ele>144.7</ele>
        <time>2017-01-22T08:10:20.000Z</time>
      </trkpt>
      <trkpt lat="44.53648" lon="0.6471">
        <ele>144.8</ele>
        <time>2017-01-22T08:10:21.000Z</time>
      </trkpt>
      <trkpt lat="44.53648" lon="0.64715">
        <ele>145</ele>
        <time>2017-01-22T08:10:22.000Z</time>
      </trkpt>
      <trkpt lat="44.53648" lon="0.6472">
        <ele>145.1</ele>
        <time>2017-01-22T08:10:23.000Z</time>
      </trkpt>
      <trkpt lat="44.53648" lon="0.64725">
        <ele>145.2</ele>
        <time>2017-01-22T08:10:24.000Z</time>
      </trkpt>
      <trkpt lat="44.53648" lon="0.6473">
        <ele>145.4</ele>
        <time>2017-01-22T08:10:25.000Z</time>
      </trkpt>
      <trkpt lat="44.53648" lon="0.64735">
        <ele>145.5</ele>
        <time>2017-01-22T08:10:26.000Z</time>
      </trkpt>
      <trkpt lat="44.53648" lon="0.6474">
        <ele>145.6</ele>
        <time>2017-01-22T08:10:27.000Z</time>
      </trkpt>
      <trkpt lat="44.53647" lon="0.64744">
        <ele>145.7</ele>
        <time>2017-01-22T08:10:28.000Z</time>
      </trkpt>
      <trkpt lat="44.53647" lon="0.64748">
        <ele>145.8</ele>
        <time>2017-01-22T08:10:29.000Z</time>
      </trkpt>
      <trkpt lat="44.53647" lon="0.64752">
        <ele>145.8</ele>
        <time>2017-01-22T08:10:30.000Z</time>
      </trkpt>
      <trkpt lat="44.53646" lon="0.64756">
        <ele>145.9</ele>
        <time>2017-01-22T08:10:31.000Z</time>
      </trkpt>
      <trkpt lat="44.53646" lon="0.6476">
        <ele>146</ele>
        <time>2017-01-22T08:10:32.000Z</time>
      </trkpt>
      <trkpt lat="44.53646" lon="0.64764">
        <ele>146.1</ele>
        <time>2017-01-22T08:10:33.000Z</time>
      </trkpt>
      <trkpt lat="44.53645" lon="0.64768">
        <ele>146.1</ele>
        <time>2017-01-22T08:10:34.000Z</time>
      </trkpt>
      <trkpt lat="44.53645" lon="0.64772">
        <ele>146.2</ele>
        <time>2017-01-22T08:10:35.000Z</time>
      </trkpt>
      <trkpt lat="44.53644" lon="0.64777">
        <ele>146.3</ele>
        <time>2017-01-22T08:10:36.000Z</time>
      </trkpt>
      <trkpt lat="44.53643" lon="0.64782">
        <ele>146.4</ele>
        <time>2017-01-22T08:10:37.000Z</time>
      </trkpt>
      <trkpt lat="44.53643" lon="0.64786">
        <ele>146.4</ele>
        <time>2017-01-22T08:10:38.000Z</time>
      </trkpt>
      <trkpt lat="44.53642" lon="0.64791">
        <ele>146.5</ele>
        <time>2017-01-22T08:10:39.000Z</time>
      </trkpt>
      <trkpt lat="44.53642" lon="0.64796">
        <ele>146.6</ele>
        <time>2017-01-22T08:10:40.000Z</time>
      </trkpt>
      <trkpt lat="44.53641" lon="0.648">
        <ele>146.7</ele>
        <time>2017-01-22T08:10:41.000Z</time>
      </trkpt>
      <trkpt lat="44.53641" lon="0.64805">
        <ele>146.8</ele>
        <time>2017-01-22T08:10:42.000Z</time>
      </trkpt>
      <trkpt lat="44.5364" lon="0.64809">
        <ele>146.8</ele>
        <time>2017-01-22T08:10:43.000Z</time>
      </trkpt>
      <trkpt lat="44.5364" lon="0.64813">
        <ele>146.9</ele>
        <time>2017-01-22T08:10:44.000Z</time>
      </trkpt>
      <trkpt lat="44.53639" lon="0.64817">
        <ele>147</ele>
        <time>2017-01-22T08:10:45.000Z</time>
      </trkpt>
      <trkpt lat="44.53639" lon="0.64821">
        <ele>147</ele>
        <time>2017-01-22T08:10:46.000Z</time>
      </trkpt>
      <trkpt lat="44.53638" lon="0.64825">
        <ele>147.1</ele>
        <time>2017-01-22T08:10:47.000Z</time>
      </trkpt>
      <trkpt lat="44.53637" lon="0.6483">
        <ele>147.1</ele>
        <time>2017-01-22T08:10:48.000Z</time>
      </trkpt>
      <trkpt lat="44.53636" lon="0.64834">
        <ele>147.2</ele>
        <time>2017-01-22T08:10:49.000Z</time>
      </trkpt>
      <trkpt lat="44.53635" lon="0.64838">
        <ele>147.2</ele>
        <time>2017-01-22T08:10:50.000Z</time>
      </trkpt>
      <trkpt lat="44.53635" lon="0.64843">
        <ele>147.2</ele>
        <time>2017-01-22T08:10:51.000Z</time>
      </trkpt>
      <trkpt lat="44.53634" lon="0.64847">
        <ele>147.2</ele>
        <time>2017-01-22T08:10:52.000Z</time>
      </trkpt>
      <trkpt lat="44.53633" lon="0.64852">
        <ele>147.2</ele>
        <time>2017-01-22T08:10:53.000Z</time>
      </trkpt>
      <trkpt lat="44.53633" lon="0.64856">
        <ele>147.2</ele>
        <time>2017-01-22T08:10:54.000Z</time>
      </trkpt>
      <trkpt lat="44.53632" lon="0.64861">
        <ele>147.2</ele>
        <time>2017-01-22T08:10:55.000Z</time>
      </trkpt>
      <trkpt lat="44.53632" lon="0.64866">
        <ele>147.2</ele>
        <time>2017-01-22T08:10:56.000Z</time>
      </trkpt>
      <trkpt lat="44.53631" lon="0.64871">
        <ele>147.2</ele>
        <time>2017-01-22T08:10:57.000Z</time>
      </trkpt>
      <trkpt lat="44.53631" lon="0.64876">
        <ele>147.3</ele>
        <time>2017-01-22T08:10:58.000Z</time>
      </trkpt>
      <trkpt lat="44.5363" lon="0.64881">
        <ele>147.3</ele>
        <time>2017-01-22T08:10:59.000Z</time>
      </trkpt>
      <trkpt lat="44.5363" lon="0.64886">
        <ele>147.3</ele>
        <time>2017-01-22T08:11:00.000Z</time>
      </trkpt>
      <trkpt lat="44.53629" lon="0.64891">
        <ele>147.4</ele>
        <time>2017-01-22T08:11:01.000Z</time>
      </trkpt>
      <trkpt lat="44.53628" lon="0.64896">
        <ele>147.4</ele>
        <time>2017-01-22T08:11:02.000Z</time>
      </trkpt>
      <trkpt lat="44.53627" lon="0.64901">
        <ele>147.4</ele>
        <time>2017-01-22T08:11:03.000Z</time>
      </trkpt>
      <trkpt lat="44.53626" lon="0.64905">
        <ele>147.4</ele>
        <time>2017-01-22T08:11:04.000Z</time>
      </trkpt>
      <trkpt lat="44.53625" lon="0.6491">
        <ele>147.4</ele>
        <time>2017-01-22T08:11:05.000Z</time>
      </trkpt>
      <trkpt lat="44.53624" lon="0.64914">
        <ele>147.4</ele>
        <time>2017-01-22T08:11:06.000Z</time>
      </trkpt>
      <trkpt lat="44.53623" lon="0.64919">
        <ele>147.4</ele>
        <time>2017-01-22T08:11:07.000Z</time>
      </trkpt>
      <trkpt lat="44.53623" lon="0.64924">
        <ele>147.4</ele>
        <time>2017-01-22T08:11:08.000Z</time>
      </trkpt>
      <trkpt lat="44.53622" lon="0.64928">
        <ele>147.3</ele>
        <time>2017-01-22T08:11:09.000Z</time>
      </trkpt>
      <trkpt lat="44.53621" lon="0.64933">
        <ele>147.3</ele>
        <time>2017-01-22T08:11:10.000Z</time>
      </trkpt>
      <trkpt lat="44.5362" lon="0.64938">
        <ele>147.2</ele>
        <time>2017-01-22T08:11:11.000Z</time>
      </trkpt>
      <trkpt lat="44.53619" lon="0.64943">
        <ele>147.2</ele>
        <time>2017-01-22T08:11:12.000Z</time>
      </trkpt>
      <trkpt lat="44.53617" lon="0.64948">
        <ele>147.1</ele>
        <time>2017-01-22T08:11:13.000Z</time>
      </trkpt>
      <trkpt lat="44.53616" lon="0.64953">
        <ele>147.1</ele>
        <time>2017-01-22T08:11:14.000Z</time>
      </trkpt>
      <trkpt lat="44.53615" lon="0.64957">
        <ele>147.1</ele>
        <time>2017-01-22T08:11:15.000Z</time>
      </trkpt>
      <trkpt lat="44.53614" lon="0.64962">
        <ele>147</ele>
        <time>2017-01-22T08:11:16.000Z</time>
      </trkpt>
      <trkpt lat="44.53613" lon="0.64967">
        <ele>147</ele>
        <time>2017-01-22T08:11:17.000Z</time>
      </trkpt>
      <trkpt lat="44.53612" lon="0.64972">
        <ele>147</ele>
        <time>2017-01-22T08:11:18.000Z</time>
      </trkpt>
      <trkpt lat="44.53612" lon="0.64977">
        <ele>147</ele>
        <time>2017-01-22T08:11:19.000Z</time>
      </trkpt>
      <trkpt lat="44.53612" lon="0.64982">
        <ele>147</ele>
        <time>2017-01-22T08:11:20.000Z</time>
      </trkpt>
      <trkpt lat="44.53613" lon="0.64987">
        <ele>147</ele>
        <time>2017-01-22T08:11:21.000Z</time>
      </trkpt>
      <trkpt lat="44.53614" lon="0.64992">
        <ele>147</ele>
        <time>2017-01-22T08:11:22.000Z</time>
      </trkpt>
      <trkpt lat="44.53615" lon="0.64997">
        <ele>147</ele>
        <time>2017-01-22T08:11:23.000Z</time>
      </trkpt>
      <trkpt lat="44.53616" lon="0.65002">
        <ele>146.9</ele>
        <time>2017-01-22T08:11:24.000Z</time>
      </trkpt>
      <trkpt lat="44.53617" lon="0.65007">
        <ele>146.8</ele>
        <time>2017-01-22T08:11:25.000Z</time>
      </trkpt>
      <trkpt lat="44.53619" lon="0.65012">
        <ele>146.7</ele>
        <time>2017-01-22T08:11:26.000Z</time>
      </trkpt>
      <trkpt lat="44.5362" lon="0.65018">
        <ele>146.5</ele>
        <time>2017-01-22T08:11:27.000Z</time>
      </trkpt>
      <trkpt lat="44.53621" lon="0.65023">
        <ele>146.4</ele>
        <time>2017-01-22T08:11:28.000Z</time>
      </trkpt>
      <trkpt lat="44.53622" lon="0.65028">
        <ele>146.2</ele>
        <time>2017-01-22T08:11:29.000Z</time>
      </trkpt>
      <trkpt lat="44.53624" lon="0.65033">
        <ele>146</ele>
        <time>2017-01-22T08:11:30.000Z</time>
      </trkpt>
      <trkpt lat="44.53625" lon="0.65038">
        <ele>145.9</ele>
        <time>2017-01-22T08:11:31.000Z</time>
      </trkpt>
      <trkpt lat="44.53626" lon="0.65043">
        <ele>145.7</ele>
        <time>2017-01-22T08:11:32.000Z</time>
      </trkpt>
      <trkpt lat="44.53628" lon="0.65048">
        <ele>145.5</ele>
        <time>2017-01-22T08:11:33.000Z</time>
      </trkpt>
      <trkpt lat="44.53629" lon="0.65053">
        <ele>145.3</ele>
        <time>2017-01-22T08:11:34.000Z</time>
      </trkpt>
      <trkpt lat="44.5363" lon="0.65058">
        <ele>145.1</ele>
        <time>2017-01-22T08:11:35.000Z</time>
      </trkpt>
      <trkpt lat="44.53631" lon="0.65063">
        <ele>144.9</ele>
        <time>2017-01-22T08:11:36.000Z</time>
      </trkpt>
      <trkpt lat="44.53633" lon="0.65069">
        <ele>144.7</ele>
        <time>2017-01-22T08:11:37.000Z</time>
      </trkpt>
      <trkpt lat="44.53634" lon="0.65074">
        <ele>144.5</ele>
        <time>2017-01-22T08:11:38.000Z</time>
      </trkpt>
      <trkpt lat="44.53636" lon="0.65079">
        <ele>144.3</ele>
        <time>2017-01-22T08:11:39.000Z</time>
      </trkpt>
      <trkpt lat="44.53637" lon="0.65084">
        <ele>144.1</ele>
        <time>2017-01-22T08:11:40.000Z</time>
      </trkpt>
      <trkpt lat="44.53638" lon="0.6509">
        <ele>144.3</ele>
        <time>2017-01-22T08:11:41.000Z</time>
      </trkpt>
      <trkpt lat="44.5364" lon="0.65095">
        <ele>144.4</ele>
        <time>2017-01-22T08:11:42.000Z</time>
      </trkpt>
      <trkpt lat="44.53641" lon="0.651">
        <ele>144.6</ele>
        <time>2017-01-22T08:11:43.000Z</time>
      </trkpt>
      <trkpt lat="44.53642" lon="0.65106">
        <ele>144.8</ele>
        <time>2017-01-22T08:11:44.000Z</time>
      </trkpt>
      <trkpt lat="44.53643" lon="0.65111">
        <ele>145.1</ele>
        <time>2017-01-22T08:11:45.000Z</time>
      </trkpt>
      <trkpt lat="44.53644" lon="0.65117">
        <ele>145.3</ele>
        <time>2017-01-22T08:11:46.000Z</time>
      </trkpt>
      <trkpt lat="44.53645" lon="0.65123">
        <ele>145.5</ele>
        <time>2017-01-22T08:11:47.000Z</time>
      </trkpt>
      <trkpt lat="44.53646" lon="0.65128">
        <ele>145.8</ele>
        <time>2017-01-22T08:11:48.000Z</time>
      </trkpt>
      <trkpt lat="44.53647" lon="0.65134">
        <ele>146</ele>
        <time>2017-01-22T08:11:49.000Z</time>
      </trkpt>
      <trkpt lat="44.53647" lon="0.65139">
        <ele>146.3</ele>
        <time>2017-01-22T08:11:50.000Z</time>
      </trkpt>
      <trkpt lat="44.53648" lon="0.65145">
        <ele>146.5</ele>
        <time>2017-01-22T08:11:51.000Z</time>
      </trkpt>
      <trkpt lat="44.53648" lon="0.65151">
        <ele>146.8</ele>
        <time>2017-01-22T08:11:52.000Z</time>
      </trkpt>
      <trkpt lat="44.53649" lon="0.65156">
        <ele>147.1</ele>
        <time>2017-01-22T08:11:53.000Z</time>
      </trkpt>
      <trkpt lat="44.53649" lon="0.65161">
        <ele>147.3</ele>
        <time>2017-01-22T08:11:54.000Z</time>
      </trkpt>
      <trkpt lat="44.5365" lon="0.65166">
        <ele>147.6</ele>
        <time>2017-01-22T08:11:55.000Z</time>
      </trkpt>
      <trkpt lat="44.5365" lon="0.65171">
        <ele>147.7</ele>
        <time>2017-01-22T08:11:56.000Z</time>
      </trkpt>
      <trkpt lat="44.53651" lon="0.65176">
        <ele>147.8</ele>
        <time>2017-01-22T08:11:57.000Z</time>
      </trkpt>
      <trkpt lat="44.53652" lon="0.65181">
        <ele>147.9</ele>
        <time>2017-01-22T08:11:58.000Z</time>
      </trkpt>
      <trkpt lat="44.53653" lon="0.65185">
        <ele>148</ele>
        <time>2017-01-22T08:11:59.000Z</time>
      </trkpt>
      <trkpt lat="44.53654" lon="0.6519">
        <ele>148.1</ele>
        <time>2017-01-22T08:12:00.000Z</time>
      </trkpt>
      <trkpt lat="44.53656" lon="0.65195">
        <ele>148.2</ele>
        <time>2017-01-22T08:12:01.000Z</time>
      </trkpt>
      <trkpt lat="44.53657" lon="0.65199">
        <ele>148.4</ele>
        <time>2017-01-22T08:12:02.000Z</time>
      </trkpt>
      <trkpt lat="44.53658" lon="0.65204">
        <ele>148.5</ele>
        <time>2017-01-22T08:12:03.000Z</time>
      </trkpt>
      <trkpt lat="44.5366" lon="0.65209">
        <ele>148.7</ele>
        <time>2017-01-22T08:12:04.000Z</time>
      </trkpt>
      <trkpt lat="44.53661" lon="0.65214">
        <ele>148.9</ele>
        <time>2017-01-22T08:12:05.000Z</time>
      </trkpt>
      <trkpt lat="44.53663" lon="0.65219">
        <ele>149.1</ele>
        <time>2017-01-22T08:12:06.000Z</time>
      </trkpt>
      <trkpt lat="44.53665" lon="0.65223">
        <ele>149.3</ele>
        <time>2017-01-22T08:12:07.000Z</time>
      </trkpt>
      <trkpt lat="44.53667" lon="0.65228">
        <ele>149.5</ele>
        <time>2017-01-22T08:12:08.000Z</time>
      </trkpt>
      <trkpt lat="44.53668" lon="0.65233">
        <ele>149.7</ele>
        <time>2017-01-22T08:12:09.000Z</time>
      </trkpt>
      <trkpt lat="44.5367" lon="0.65238">
        <ele>149.9</ele>
        <time>2017-01-22T08:12:10.000Z</time>
      </trkpt>
      <trkpt lat="44.53672" lon="0.65243">
        <ele>150.1</ele>
        <time>2017-01-22T08:12:11.000Z</time>
      </trkpt>
      <trkpt lat="44.53674" lon="0.65247">
        <ele>150.4</ele>
        <time>2017-01-22T08:12:12.000Z</time>
      </trkpt>
      <trkpt lat="44.53676" lon="0.65252">
        <ele>150.6</ele>
        <time>2017-01-22T08:12:13.000Z</time>
      </trkpt>
      <trkpt lat="44.53678" lon="0.65257">
        <ele>150.8</ele>
        <time>2017-01-22T08:12:14.000Z</time>
      </trkpt>
      <trkpt lat="44.5368" lon="0.65261">
        <ele>151</ele>
        <time>2017-01-22T08:12:15.000Z</time>
      </trkpt>
      <trkpt lat="44.53682" lon="0.65266">
        <ele>151.2</ele>
        <time>2017-01-22T08:12:16.000Z</time>
      </trkpt>
      <trkpt lat="44.53684" lon="0.6527">
        <ele>151.4</ele>
        <time>2017-01-22T08:12:17.000Z</time>
      </trkpt>
      <trkpt lat="44.53686" lon="0.65274">
        <ele>151.6</ele>
        <time>2017-01-22T08:12:18.000Z</time>
      </trkpt>
      <trkpt lat="44.53688" lon="0.65278">
        <ele>151.8</ele>
        <time>2017-01-22T08:12:19.000Z</time>
      </trkpt>
      <trkpt lat="44.5369" lon="0.65282">
        <ele>152</ele>
        <time>2017-01-22T08:12:20.000Z</time>
      </trkpt>
      <trkpt lat="44.53693" lon="0.65286">
        <ele>152.3</ele>
        <time>2017-01-22T08:12:21.000Z</time>
      </trkpt>
      <trkpt lat="44.53696" lon="0.65289">
        <ele>152.5</ele>
        <time>2017-01-22T08:12:22.000Z</time>
      </trkpt>
      <trkpt lat="44.53699" lon="0.65293">
        <ele>152.8</ele>
        <time>2017-01-22T08:12:23.000Z</time>
      </trkpt>
      <trkpt lat="44.53702" lon="0.65297">
        <ele>153.1</ele>
        <time>2017-01-22T08:12:24.000Z</time>
      </trkpt>
      <trkpt lat="44.53704" lon="0.65301">
        <ele>153.4</ele>
        <time>2017-01-22T08:12:25.000Z</time>
      </trkpt>
      <trkpt lat="44.53706" lon="0.65306">
        <ele>153.6</ele>
        <time>2017-01-22T08:12:26.000Z</time>
      </trkpt>
      <trkpt lat="44.53707" lon="0.65311">
        <ele>153.9</ele>
        <time>2017-01-22T08:12:27.000Z</time>
      </trkpt>
      <trkpt lat="44.53708" lon="0.65316">
        <ele>154</ele>
        <time>2017-01-22T08:12:28.000Z</time>
      </trkpt>
      <trkpt lat="44.53709" lon="0.6532">
        <ele>154.2</ele>
        <time>2017-01-22T08:12:29.000Z</time>
      </trkpt>
      <trkpt lat="44.5371" lon="0.65325">
        <ele>154.4</ele>
        <time>2017-01-22T08:12:30.000Z</time>
      </trkpt>
      <trkpt lat="44.5371" lon="0.65329">
        <ele>154.5</ele>
        <time>2017-01-22T08:12:31.000Z</time>
      </trkpt>
      <trkpt lat="44.53711" lon="0.65332">
        <ele>154.7</ele>
        <time>2017-01-22T08:12:32.000Z</time>
      </trkpt>
      <trkpt lat="44.53712" lon="0.65336">
        <ele>154.6</ele>
        <time>2017-01-22T08:12:33.000Z</time>
      </trkpt>
      <trkpt lat="44.53712" lon="0.65339">
        <ele>154.5</ele>
        <time>2017-01-22T08:12:34.000Z</time>
      </trkpt>
      <trkpt lat="44.53713" lon="0.65342">
        <ele>154.4</ele>
        <time>2017-01-22T08:12:35.000Z</time>
      </trkpt>
      <trkpt lat="44.53715" lon="0.65346">
        <ele>154.3</ele>
        <time>2017-01-22T08:12:36.000Z</time>
      </trkpt>
      <trkpt lat="44.53716" lon="0.65349">
        <ele>154.2</ele>
        <time>2017-01-22T08:12:37.000Z</time>
      </trkpt>
      <trkpt lat="44.53718" lon="0.65353">
        <ele>154.1</ele>
        <time>2017-01-22T08:12:38.000Z</time>
      </trkpt>
      <trkpt lat="44.53719" lon="0.65358">
        <ele>153.9</ele>
        <time>2017-01-22T08:12:39.000Z</time>
      </trkpt>
      <trkpt lat="44.5372" lon="0.65362">
        <ele>153.8</ele>
        <time>2017-01-22T08:12:40.000Z</time>
      </trkpt>
      <trkpt lat="44.53721" lon="0.65367">
        <ele>153.5</ele>
        <time>2017-01-22T08:12:41.000Z</time>
      </trkpt>
      <trkpt lat="44.53722" lon="0.65372">
        <ele>153.3</ele>
        <time>2017-01-22T08:12:42.000Z</time>
      </trkpt>
      <trkpt lat="44.53722" lon="0.65377">
        <ele>153</ele>
        <time>2017-01-22T08:12:43.000Z</time>
      </trkpt>
      <trkpt lat="44.53723" lon="0.65382">
        <ele>152.8</ele>
        <time>2017-01-22T08:12:44.000Z</time>
      </trkpt>
      <trkpt lat="44.53724" lon="0.65386">
        <ele>152.6</ele>
        <time>2017-01-22T08:12:45.000Z</time>
      </trkpt>
      <trkpt lat="44.53725" lon="0.65391">
        <ele>152.5</ele>
        <time>2017-01-22T08:12:46.000Z</time>
      </trkpt>
      <trkpt lat="44.53726" lon="0.65395">
        <ele>152.3</ele>
        <time>2017-01-22T08:12:47.000Z</time>
      </trkpt>
      <trkpt lat="44.53727" lon="0.65398">
        <ele>152.2</ele>
        <time>2017-01-22T08:12:48.000Z</time>
      </trkpt>
      <trkpt lat="44.53728" lon="0.65402">
        <ele>152</ele>
        <time>2017-01-22T08:12:49.000Z</time>
      </trkpt>
      <trkpt lat="44.53728" lon="0.65406">
        <ele>151.8</ele>
        <time>2017-01-22T08:12:50.000Z</time>
      </trkpt>
      <trkpt lat="44.53729" lon="0.6541">
        <ele>151.6</ele>
        <time>2017-01-22T08:12:51.000Z</time>
      </trkpt>
      <trkpt lat="44.53729" lon="0.65415">
        <ele>151.4</ele>
        <time>2017-01-22T08:12:52.000Z</time>
      </trkpt>
      <trkpt lat="44.53729" lon="0.65419">
        <ele>151.1</ele>
        <time>2017-01-22T08:12:53.000Z</time>
      </trkpt>
      <trkpt lat="44.53729" lon="0.65423">
        <ele>150.9</ele>
        <time>2017-01-22T08:12:54.000Z</time>
      </trkpt>
      <trkpt lat="44.5373" lon="0.65427">
        <ele>150.6</ele>
        <time>2017-01-22T08:12:55.000Z</time>
      </trkpt>
      <trkpt lat="44.5373" lon="0.65431">
        <ele>150.3</ele>
        <time>2017-01-22T08:12:56.000Z</time>
      </trkpt>
      <trkpt lat="44.5373" lon="0.65435">
        <ele>150.1</ele>
        <time>2017-01-22T08:12:57.000Z</time>
      </trkpt>
      <trkpt lat="44.5373" lon="0.6544">
        <ele>149.8</ele>
        <time>2017-01-22T08:12:58.000Z</time>
      </trkpt>
      <trkpt lat="44.5373" lon="0.65444">
        <ele>149.5</ele>
        <time>2017-01-22T08:12:59.000Z</time>
      </trkpt>
      <trkpt lat="44.5373" lon="0.65449">
        <ele>149.2</ele>
        <time>2017-01-22T08:13:00.000Z</time>
      </trkpt>
      <trkpt lat="44.5373" lon="0.65453">
        <ele>148.9</ele>
        <time>2017-01-22T08:13:01.000Z</time>
      </trkpt>
      <trkpt lat="44.5373" lon="0.65458">
        <ele>148.6</ele>
        <time>2017-01-22T08:13:02.000Z</time>
      </trkpt>
      <trkpt lat="44.5373" lon="0.65463">
        <ele>148.3</ele>
        <time>2017-01-22T08:13:03.000Z</time>
      </trkpt>
      <trkpt lat="44.5373" lon="0.65468">
        <ele>147.9</ele>
        <time>2017-01-22T08:13:04.000Z</time>
      </trkpt>
      <trkpt lat="44.5373" lon="0.65473">
        <ele>147.6</ele>
        <time>2017-01-22T08:13:05.000Z</time>
      </trkpt>
      <trkpt lat="44.5373" lon="0.65479">
        <ele>147.2</ele>
        <time>2017-01-22T08:13:06.000Z</time>
      </trkpt>
      <trkpt lat="44.53729" lon="0.65484">
        <ele>146.8</ele>
        <time>2017-01-22T08:13:07.000Z</time>
      </trkpt>
      <trkpt lat="44.53729" lon="0.6549">
        <ele>146.4</ele>
        <time>2017-01-22T08:13:08.000Z</time>
      </trkpt>
      <trkpt lat="44.53729" lon="0.65496">
        <ele>146</ele>
        <time>2017-01-22T08:13:09.000Z</time>
      </trkpt>
      <trkpt lat="44.53729" lon="0.65502">
        <ele>145.7</ele>
        <time>2017-01-22T08:13:10.000Z</time>
      </trkpt>
      <trkpt lat="44.53729" lon="0.65508">
        <ele>145.5</ele>
        <time>2017-01-22T08:13:11.000Z</time>
      </trkpt>
      <trkpt lat="44.53729" lon="0.65514">
        <ele>145.3</ele>
        <time>2017-01-22T08:13:12.000Z</time>
      </trkpt>
      <trkpt lat="44.53729" lon="0.65521">
        <ele>145.1</ele>
        <time>2017-01-22T08:13:13.000Z</time>
      </trkpt>
      <trkpt lat="44.53729" lon="0.65527">
        <ele>144.9</ele>
        <time>2017-01-22T08:13:14.000Z</time>
      </trkpt>
      <trkpt lat="44.53729" lon="0.65534">
        <ele>144.7</ele>
        <time>2017-01-22T08:13:15.000Z</time>
      </trkpt>
      <trkpt lat="44.53729" lon="0.6554">
        <ele>144.5</ele>
        <time>2017-01-22T08:13:16.000Z</time>
      </trkpt>
      <trkpt lat="44.53729" lon="0.65547">
        <ele>144.3</ele>
        <time>2017-01-22T08:13:17.000Z</time>
      </trkpt>
      <trkpt lat="44.5373" lon="0.65554">
        <ele>144.2</ele>
        <time>2017-01-22T08:13:18.000Z</time>
      </trkpt>
      <trkpt lat="44.5373" lon="0.6556">
        <ele>144</ele>
        <time>2017-01-22T08:13:19.000Z</time>
      </trkpt>
      <trkpt lat="44.5373" lon="0.65567">
        <ele>143.8</ele>
        <time>2017-01-22T08:13:20.000Z</time>
      </trkpt>
      <trkpt lat="44.5373" lon="0.65573">
        <ele>143.6</ele>
        <time>2017-01-22T08:13:21.000Z</time>
      </trkpt>
      <trkpt lat="44.53731" lon="0.6558">
        <ele>143.4</ele>
        <time>2017-01-22T08:13:22.000Z</time>
      </trkpt>
      <trkpt lat="44.53731" lon="0.65586">
        <ele>143.2</ele>
        <time>2017-01-22T08:13:23.000Z</time>
      </trkpt>
      <trkpt lat="44.53731" lon="0.65593">
        <ele>142.8</ele>
        <time>2017-01-22T08:13:24.000Z</time>
      </trkpt>
      <trkpt lat="44.53732" lon="0.656">
        <ele>142.4</ele>
        <time>2017-01-22T08:13:25.000Z</time>
      </trkpt>
      <trkpt lat="44.53732" lon="0.65607">
        <ele>142.1</ele>
        <time>2017-01-22T08:13:26.000Z</time>
      </trkpt>
      <trkpt lat="44.53732" lon="0.65614">
        <ele>141.7</ele>
        <time>2017-01-22T08:13:27.000Z</time>
      </trkpt>
      <trkpt lat="44.53733" lon="0.65622">
        <ele>141.2</ele>
        <time>2017-01-22T08:13:28.000Z</time>
      </trkpt>
      <trkpt lat="44.53733" lon="0.65631">
        <ele>140.8</ele>
        <time>2017-01-22T08:13:29.000Z</time>
      </trkpt>
      <trkpt lat="44.53733" lon="0.6564">
        <ele>140.3</ele>
        <time>2017-01-22T08:13:30.000Z</time>
      </trkpt>
      <trkpt lat="44.53734" lon="0.65649">
        <ele>139.8</ele>
        <time>2017-01-22T08:13:31.000Z</time>
      </trkpt>
      <trkpt lat="44.53734" lon="0.65658">
        <ele>139.3</ele>
        <time>2017-01-22T08:13:32.000Z</time>
      </trkpt>
      <trkpt lat="44.53734" lon="0.65668">
        <ele>138.8</ele>
        <time>2017-01-22T08:13:33.000Z</time>
      </trkpt>
      <trkpt lat="44.53735" lon="0.65678">
        <ele>138.4</ele>
        <time>2017-01-22T08:13:34.000Z</time>
      </trkpt>
      <trkpt lat="44.53735" lon="0.65688">
        <ele>138.1</ele>
        <time>2017-01-22T08:13:35.000Z</time>
      </trkpt>
      <trkpt lat="44.53736" lon="0.65697">
        <ele>137.8</ele>
        <time>2017-01-22T08:13:36.000Z</time>
      </trkpt>
      <trkpt lat="44.53736" lon="0.65707">
        <ele>137.5</ele>
        <time>2017-01-22T08:13:37.000Z</time>
      </trkpt>
      <trkpt lat="44.53737" lon="0.65717">
        <ele>137.1</ele>
        <time>2017-01-22T08:13:38.000Z</time>
      </trkpt>
      <trkpt lat="44.53737" lon="0.65727">
        <ele>136.8</ele>
        <time>2017-01-22T08:13:39.000Z</time>
      </trkpt>
      <trkpt lat="44.53738" lon="0.65737">
        <ele>136.5</ele>
        <time>2017-01-22T08:13:40.000Z</time>
      </trkpt>
      <trkpt lat="44.53738" lon="0.65747">
        <ele>136.1</ele>
        <time>2017-01-22T08:13:41.000Z</time>
      </trkpt>
      <trkpt lat="44.53737" lon="0.65756">
        <ele>135.7</ele>
        <time>2017-01-22T08:13:42.000Z</time>
      </trkpt>
      <trkpt lat="44.53736" lon="0.65765">
        <ele>135.4</ele>
        <time>2017-01-22T08:13:43.000Z</time>
      </trkpt>
      <trkpt lat="44.53735" lon="0.65773">
        <ele>135</ele>
        <time>2017-01-22T08:13:44.000Z</time>
      </trkpt>
      <trkpt lat="44.53734" lon="0.65781">
        <ele>134.7</ele>
        <time>2017-01-22T08:13:45.000Z</time>
      </trkpt>
      <trkpt lat="44.53733" lon="0.65789">
        <ele>134.4</ele>
        <time>2017-01-22T08:13:46.000Z</time>
      </trkpt>
      <trkpt lat="44.53733" lon="0.65796">
        <ele>134.1</ele>
        <time>2017-01-22T08:13:47.000Z</time>
      </trkpt>
      <trkpt lat="44.53733" lon="0.65804">
        <ele>133.8</ele>
        <time>2017-01-22T08:13:48.000Z</time>
      </trkpt>
      <trkpt lat="44.53733" lon="0.65812">
        <ele>133.5</ele>
        <time>2017-01-22T08:13:49.000Z</time>
      </trkpt>
      <trkpt lat="44.53734" lon="0.6582">
        <ele>133.1</ele>
        <time>2017-01-22T08:13:50.000Z</time>
      </trkpt>
      <trkpt lat="44.53735" lon="0.65827">
        <ele>132.8</ele>
        <time>2017-01-22T08:13:51.000Z</time>
      </trkpt>
      <trkpt lat="44.53736" lon="0.65835">
        <ele>132.5</ele>
        <time>2017-01-22T08:13:52.000Z</time>
      </trkpt>
      <trkpt lat="44.53737" lon="0.65843">
        <ele>132.3</ele>
        <time>2017-01-22T08:13:53.000Z</time>
      </trkpt>
      <trkpt lat="44.53739" lon="0.65851">
        <ele>132.1</ele>
        <time>2017-01-22T08:13:54.000Z</time>
      </trkpt>
      <trkpt lat="44.5374" lon="0.65859">
        <ele>132</ele>
        <time>2017-01-22T08:13:55.000Z</time>
      </trkpt>
      <trkpt lat="44.53741" lon="0.65867">
        <ele>131.8</ele>
        <time>2017-01-22T08:13:56.000Z</time>
      </trkpt>
      <trkpt lat="44.53742" lon="0.65875">
        <ele>131.7</ele>
        <time>2017-01-22T08:13:57.000Z</time>
      </trkpt>
      <trkpt lat="44.53743" lon="0.65883">
        <ele>131.6</ele>
        <time>2017-01-22T08:13:58.000Z</time>
      </trkpt>
      <trkpt lat="44.53744" lon="0.65891">
        <ele>131.4</ele>
        <time>2017-01-22T08:13:59.000Z</time>
      </trkpt>
      <trkpt lat="44.53744" lon="0.65899">
        <ele>131.3</ele>
        <time>2017-01-22T08:14:00.000Z</time>
      </trkpt>
      <trkpt lat="44.53745" lon="0.65907">
        <ele>131.2</ele>
        <time>2017-01-22T08:14:01.000Z</time>
      </trkpt>
      <trkpt lat="44.53746" lon="0.65915">
        <ele>131.1</ele>
        <time>2017-01-22T08:14:02.000Z</time>
      </trkpt>
      <trkpt lat="44.53746" lon="0.65922">
        <ele>130.8</ele>
        <time>2017-01-22T08:14:03.000Z</time>
      </trkpt>
      <trkpt lat="44.53747" lon="0.65929">
        <ele>130.6</ele>
        <time>2017-01-22T08:14:04.000Z</time>
      </trkpt>
      <trkpt lat="44.53748" lon="0.65937">
        <ele>130.3</ele>
        <time>2017-01-22T08:14:05.000Z</time>
      </trkpt>
      <trkpt lat="44.53748" lon="0.65943">
        <ele>130.1</ele>
        <time>2017-01-22T08:14:06.000Z</time>
      </trkpt>
      <trkpt lat="44.53749" lon="0.6595">
        <ele>129.8</ele>
        <time>2017-01-22T08:14:07.000Z</time>
      </trkpt>
      <trkpt lat="44.5375" lon="0.65957">
        <ele>129.6</ele>
        <time>2017-01-22T08:14:08.000Z</time>
      </trkpt>
      <trkpt lat="44.5375" lon="0.65963">
        <ele>129.3</ele>
        <time>2017-01-22T08:14:09.000Z</time>
      </trkpt>
      <trkpt lat="44.53751" lon="0.6597">
        <ele>129</ele>
        <time>2017-01-22T08:14:10.000Z</time>
      </trkpt>
      <trkpt lat="44.53752" lon="0.65977">
        <ele>128.7</ele>
        <time>2017-01-22T08:14:11.000Z</time>
      </trkpt>
      <trkpt lat="44.53753" lon="0.65983">
        <ele>128.4</ele>
        <time>2017-01-22T08:14:12.000Z</time>
      </trkpt>
      <trkpt lat="44.53754" lon="0.6599">
        <ele>128.1</ele>
        <time>2017-01-22T08:14:13.000Z</time>
      </trkpt>
      <trkpt lat="44.53756" lon="0.65996">
        <ele>127.9</ele>
        <time>2017-01-22T08:14:14.000Z</time>
      </trkpt>
      <trkpt lat="44.53757" lon="0.66003">
        <ele>127.6</ele>
        <time>2017-01-22T08:14:15.000Z</time>
      </trkpt>
      <trkpt lat="44.53758" lon="0.6601">
        <ele>127.4</ele>
        <time>2017-01-22T08:14:16.000Z</time>
      </trkpt>
      <trkpt lat="44.5376" lon="0.66017">
        <ele>127.2</ele>
        <time>2017-01-22T08:14:17.000Z</time>
      </trkpt>
      <trkpt lat="44.53761" lon="0.66024">
        <ele>127</ele>
        <time>2017-01-22T08:14:18.000Z</time>
      </trkpt>
      <trkpt lat="44.53763" lon="0.6603">
        <ele>126.8</ele>
        <time>2017-01-22T08:14:19.000Z</time>
      </trkpt>
      <trkpt lat="44.53764" lon="0.66037">
        <ele>126.7</ele>
        <time>2017-01-22T08:14:20.000Z</time>
      </trkpt>
      <trkpt lat="44.53766" lon="0.66043">
        <ele>126.5</ele>
        <time>2017-01-22T08:14:21.000Z</time>
      </trkpt>
      <trkpt lat="44.53767" lon="0.66049">
        <ele>126.4</ele>
        <time>2017-01-22T08:14:22.000Z</time>
      </trkpt>
      <trkpt lat="44.53769" lon="0.66055">
        <ele>126.2</ele>
        <time>2017-01-22T08:14:23.000Z</time>
      </trkpt>
      <trkpt lat="44.5377" lon="0.6606">
        <ele>126.1</ele>
        <time>2017-01-22T08:14:24.000Z</time>
      </trkpt>
      <trkpt lat="44.53772" lon="0.66066">
        <ele>126</ele>
        <time>2017-01-22T08:14:25.000Z</time>
      </trkpt>
      <trkpt lat="44.53773" lon="0.66071">
        <ele>125.9</ele>
        <time>2017-01-22T08:14:26.000Z</time>
      </trkpt>
      <trkpt lat="44.53775" lon="0.66078">
        <ele>125.8</ele>
        <time>2017-01-22T08:14:27.000Z</time>
      </trkpt>
      <trkpt lat="44.53776" lon="0.66084">
        <ele>125.7</ele>
        <time>2017-01-22T08:14:28.000Z</time>
      </trkpt>
      <trkpt lat="44.53778" lon="0.6609">
        <ele>125.8</ele>
        <time>2017-01-22T08:14:29.000Z</time>
      </trkpt>
      <trkpt lat="44.53779" lon="0.66096">
        <ele>125.9</ele>
        <time>2017-01-22T08:14:30.000Z</time>
      </trkpt>
      <trkpt lat="44.53781" lon="0.66102">
        <ele>126</ele>
        <time>2017-01-22T08:14:31.000Z</time>
      </trkpt>
      <trkpt lat="44.53782" lon="0.66108">
        <ele>126.2</ele>
        <time>2017-01-22T08:14:32.000Z</time>
      </trkpt>
      <trkpt lat="44.53783" lon="0.66114">
        <ele>126.3</ele>
        <time>2017-01-22T08:14:33.000Z</time>
      </trkpt>
      <trkpt lat="44.53785" lon="0.6612">
        <ele>126.5</ele>
        <time>2017-01-22T08:14:34.000Z</time>
      </trkpt>
      <trkpt lat="44.53786" lon="0.66127">
        <ele>126.7</ele>
        <time>2017-01-22T08:14:35.000Z</time>
      </trkpt>
      <trkpt lat="44.53787" lon="0.66133">
        <ele>126.9</ele>
        <time>2017-01-22T08:14:36.000Z</time>
      </trkpt>
      <trkpt lat="44.53789" lon="0.66139">
        <ele>127.1</ele>
        <time>2017-01-22T08:14:37.000Z</time>
      </trkpt>
      <trkpt lat="44.5379" lon="0.66146">
        <ele>127.3</ele>
        <time>2017-01-22T08:14:38.000Z</time>
      </trkpt>
      <trkpt lat="44.53791" lon="0.66151">
        <ele>127.5</ele>
        <time>2017-01-22T08:14:39.000Z</time>
      </trkpt>
      <trkpt lat="44.53793" lon="0.66157">
        <ele>127.8</ele>
        <time>2017-01-22T08:14:40.000Z</time>
      </trkpt>
      <trkpt lat="44.53794" lon="0.66163">
        <ele>128</ele>
        <time>2017-01-22T08:14:41.000Z</time>
      </trkpt>
      <trkpt lat="44.53795" lon="0.66168">
        <ele>128.1</ele>
        <time>2017-01-22T08:14:42.000Z</time>
      </trkpt>
      <trkpt lat="44.53795" lon="0.66173">
        <ele>127.9</ele>
        <time>2017-01-22T08:14:43.000Z</time>
      </trkpt>
      <trkpt lat="44.53796" lon="0.66178">
        <ele>127.7</ele>
        <time>2017-01-22T08:14:44.000Z</time>
      </trkpt>
      <trkpt lat="44.53797" lon="0.66183">
        <ele>127.4</ele>
        <time>2017-01-22T08:14:45.000Z</time>
      </trkpt>
      <trkpt lat="44.53798" lon="0.66188">
        <ele>127.2</ele>
        <time>2017-01-22T08:14:46.000Z</time>
      </trkpt>
      <trkpt lat="44.53798" lon="0.66192">
        <ele>127</ele>
        <time>2017-01-22T08:14:47.000Z</time>
      </trkpt>
      <trkpt lat="44.53799" lon="0.66197">
        <ele>126.8</ele>
        <time>2017-01-22T08:14:48.000Z</time>
      </trkpt>
      <trkpt lat="44.53799" lon="0.66201">
        <ele>126.6</ele>
        <time>2017-01-22T08:14:49.000Z</time>
      </trkpt>
      <trkpt lat="44.538" lon="0.66205">
        <ele>126.4</ele>
        <time>2017-01-22T08:14:50.000Z</time>
      </trkpt>
      <trkpt lat="44.538" lon="0.6621">
        <ele>126.2</ele>
        <time>2017-01-22T08:14:51.000Z</time>
      </trkpt>
      <trkpt lat="44.53801" lon="0.66214">
        <ele>126</ele>
        <time>2017-01-22T08:14:52.000Z</time>
      </trkpt>
      <trkpt lat="44.53801" lon="0.66219">
        <ele>125.8</ele>
        <time>2017-01-22T08:14:53.000Z</time>
      </trkpt>
      <trkpt lat="44.53802" lon="0.66224">
        <ele>125.6</ele>
        <time>2017-01-22T08:14:54.000Z</time>
      </trkpt>
      <trkpt lat="44.53803" lon="0.66229">
        <ele>125.4</ele>
        <time>2017-01-22T08:14:55.000Z</time>
      </trkpt>
      <trkpt lat="44.53804" lon="0.66234">
        <ele>125.1</ele>
        <time>2017-01-22T08:14:56.000Z</time>
      </trkpt>
      <trkpt lat="44.53806" lon="0.6624">
        <ele>124.9</ele>
        <time>2017-01-22T08:14:57.000Z</time>
      </trkpt>
      <trkpt lat="44.53807" lon="0.66246">
        <ele>124.6</ele>
        <time>2017-01-22T08:14:58.000Z</time>
      </trkpt>
      <trkpt lat="44.53808" lon="0.66251">
        <ele>124.3</ele>
        <time>2017-01-22T08:14:59.000Z</time>
      </trkpt>
      <trkpt lat="44.5381" lon="0.66257">
        <ele>123.8</ele>
        <time>2017-01-22T08:15:00.000Z</time>
      </trkpt>
      <trkpt lat="44.53811" lon="0.66264">
        <ele>123.3</ele>
        <time>2017-01-22T08:15:01.000Z</time>
      </trkpt>
      <trkpt lat="44.53813" lon="0.66271">
        <ele>122.8</ele>
        <time>2017-01-22T08:15:02.000Z</time>
      </trkpt>
      <trkpt lat="44.53815" lon="0.66278">
        <ele>122.2</ele>
        <time>2017-01-22T08:15:03.000Z</time>
      </trkpt>
      <trkpt lat="44.53817" lon="0.66286">
        <ele>121.6</ele>
        <time>2017-01-22T08:15:04.000Z</time>
      </trkpt>
      <trkpt lat="44.5382" lon="0.66295">
        <ele>120.9</ele>
        <time>2017-01-22T08:15:05.000Z</time>
      </trkpt>
      <trkpt lat="44.53823" lon="0.66304">
        <ele>120.2</ele>
        <time>2017-01-22T08:15:06.000Z</time>
      </trkpt>
      <trkpt lat="44.53826" lon="0.66314">
        <ele>119.5</ele>
        <time>2017-01-22T08:15:07.000Z</time>
      </trkpt>
      <trkpt lat="44.53828" lon="0.66324">
        <ele>118.7</ele>
        <time>2017-01-22T08:15:08.000Z</time>
      </trkpt>
      <trkpt lat="44.53831" lon="0.66334">
        <ele>117.9</ele>
        <time>2017-01-22T08:15:09.000Z</time>
      </trkpt>
      <trkpt lat="44.53835" lon="0.66345">
        <ele>117.4</ele>
        <time>2017-01-22T08:15:10.000Z</time>
      </trkpt>
      <trkpt lat="44.53838" lon="0.66356">
        <ele>116.6</ele>
        <time>2017-01-22T08:15:11.000Z</time>
      </trkpt>
      <trkpt lat="44.53842" lon="0.66367">
        <ele>115.9</ele>
        <time>2017-01-22T08:15:12.000Z</time>
      </trkpt>
      <trkpt lat="44.53846" lon="0.66378">
        <ele>115.3</ele>
        <time>2017-01-22T08:15:13.000Z</time>
      </trkpt>
      <trkpt lat="44.5385" lon="0.66388">
        <ele>114.7</ele>
        <time>2017-01-22T08:15:14.000Z</time>
      </trkpt>
      <trkpt lat="44.53855" lon="0.66399">
        <ele>114.1</ele>
        <time>2017-01-22T08:15:15.000Z</time>
      </trkpt>
      <trkpt lat="44.53859" lon="0.66408">
        <ele>113.7</ele>
        <time>2017-01-22T08:15:16.000Z</time>
      </trkpt>
      <trkpt lat="44.53863" lon="0.66417">
        <ele>113.3</ele>
        <time>2017-01-22T08:15:17.000Z</time>
      </trkpt>
      <trkpt lat="44.53867" lon="0.66425">
        <ele>113.1</ele>
        <time>2017-01-22T08:15:18.000Z</time>
      </trkpt>
      <trkpt lat="44.5387" lon="0.66432">
        <ele>112.9</ele>
        <time>2017-01-22T08:15:19.000Z</time>
      </trkpt>
      <trkpt lat="44.53872" lon="0.66437">
        <ele>112.8</ele>
        <time>2017-01-22T08:15:20.000Z</time>
      </trkpt>
      <trkpt lat="44.53874" lon="0.66441">
        <ele>112.7</ele>
        <time>2017-01-22T08:15:21.000Z</time>
      </trkpt>
      <trkpt lat="44.53875" lon="0.66443">
        <ele>112.7</ele>
        <time>2017-01-22T08:15:22.000Z</time>
      </trkpt>
      <trkpt lat="44.53876" lon="0.66445">
        <ele>112.7</ele>
        <time>2017-01-22T08:15:23.000Z</time>
      </trkpt>
      <trkpt lat="44.53876" lon="0.66445">
        <ele>112.7</ele>
        <time>2017-01-22T08:15:24.000Z</time>
      </trkpt>
      <trkpt lat="44.53876" lon="0.66445">
        <ele>112.7</ele>
        <time>2017-01-22T08:15:25.000Z</time>
      </trkpt>
      <trkpt lat="44.53876" lon="0.66445">
        <ele>112.7</ele>
        <time>2017-01-22T08:15:26.000Z</time>
      </trkpt>
      <trkpt lat="44.53876" lon="0.66445">
        <ele>112.7</ele>
        <time>2017-01-22T08:15:27.000Z</time>
      </trkpt>
      <trkpt lat="44.53876" lon="0.66445">
        <ele>112.7</ele>
        <time>2017-01-22T08:15:28.000Z</time>
      </trkpt>
      <trkpt lat="44.53875" lon="0.66445">
        <ele>112.7</ele>
        <time>2017-01-22T08:15:29.000Z</time>
      </trkpt>
      <trkpt lat="44.53875" lon="0.66445">
        <ele>112.7</ele>
        <time>2017-01-22T08:15:30.000Z</time>
      </trkpt>
      <trkpt lat="44.53875" lon="0.66445">
        <ele>112.7</ele>
        <time>2017-01-22T08:15:31.000Z</time>
      </trkpt>
      <trkpt lat="44.53875" lon="0.66445">
        <ele>112.7</ele>
        <time>2017-01-22T08:15:32.000Z</time>
      </trkpt>
      <trkpt lat="44.53875" lon="0.66445">
        <ele>112.7</ele>
        <time>2017-01-22T08:15:33.000Z</time>
      </trkpt>
      <trkpt lat="44.53875" lon="0.66445">
        <ele>112.7</ele>
        <time>2017-01-22T08:15:34.000Z</time>
      </trkpt>
      <trkpt lat="44.53875" lon="0.66445">
        <ele>112.7</ele>
        <time>2017-01-22T08:15:35.000Z</time>
      </trkpt>
      <trkpt lat="44.53875" lon="0.66445">
        <ele>112.7</ele>
        <time>2017-01-22T08:15:36.000Z</time>
      </trkpt>
      <trkpt lat="44.53875" lon="0.66445">
        <ele>112.7</ele>
        <time>2017-01-22T08:15:37.000Z</time>
      </trkpt>
      <trkpt lat="44.53875" lon="0.66445">
        <ele>112.7</ele>
        <time>2017-01-22T08:15:38.000Z</time>
      </trkpt>
      <trkpt lat="44.53875" lon="0.66445">
        <ele>112.7</ele>
        <time>2017-01-22T08:15:39.000Z</time>
      </trkpt>
      <trkpt lat="44.53875" lon="0.66445">
        <ele>112.7</ele>
        <time>2017-01-22T08:15:40.000Z</time>
      </trkpt>
      <trkpt lat="44.53875" lon="0.66445">
        <ele>112.7</ele>
        <time>2017-01-22T08:15:41.000Z</time>
      </trkpt>
      <trkpt lat="44.53875" lon="0.66445">
        <ele>112.7</ele>
        <time>2017-01-22T08:15:42.000Z</time>
      </trkpt>
      <trkpt lat="44.53875" lon="0.66445">
        <ele>112.7</ele>
        <time>2017-01-22T08:15:43.000Z</time>
      </trkpt>
      <trkpt lat="44.53875" lon="0.66445">
        <ele>112.7</ele>
        <time>2017-01-22T08:15:44.000Z</time>
      </trkpt>
      <trkpt lat="44.53875" lon="0.66445">
        <ele>112.7</ele>
        <time>2017-01-22T08:15:45.000Z</time>
      </trkpt>
      <trkpt lat="44.53875" lon="0.66445">
        <ele>112.7</ele>
        <time>2017-01-22T08:15:46.000Z</time>
      </trkpt>
      <trkpt lat="44.53875" lon="0.66445">
        <ele>112.7</ele>
        <time>2017-01-22T08:15:47.000Z</time>
      </trkpt>
      <trkpt lat="44.53875" lon="0.66445">
        <ele>112.7</ele>
        <time>2017-01-22T08:15:48.000Z</time>
      </trkpt>
      <trkpt lat="44.53875" lon="0.66445">
        <ele>112.7</ele>
        <time>2017-01-22T08:15:49.000Z</time>
      </trkpt>
      <trkpt lat="44.53875" lon="0.66445">
        <ele>112.7</ele>
        <time>2017-01-22T08:15:50.000Z</time>
      </trkpt>
      <trkpt lat="44.53875" lon="0.66445">
        <ele>112.7</ele>
        <time>2017-01-22T08:15:51.000Z</time>
      </trkpt>
      <trkpt lat="44.53875" lon="0.66445">
        <ele>112.7</ele>
        <time>2017-01-22T08:15:52.000Z</time>
      </trkpt>
      <trkpt lat="44.53875" lon="0.66445">
        <ele>112.7</ele>
        <time>2017-01-22T08:15:53.000Z</time>
      </trkpt>
      <trkpt lat="44.53875" lon="0.66445">
        <ele>112.7</ele>
        <time>2017-01-22T08:15:54.000Z</time>
      </trkpt>
      <trkpt lat="44.53875" lon="0.66445">
        <ele>112.7</ele>
        <time>2017-01-22T08:15:55.000Z</time>
      </trkpt>
      <trkpt lat="44.53875" lon="0.66445">
        <ele>112.7</ele>
        <time>2017-01-22T08:15:56.000Z</time>
      </trkpt>
      <trkpt lat="44.53875" lon="0.66445">
        <ele>112.7</ele>
        <time>2017-01-22T08:15:57.000Z</time>
      </trkpt>
      <trkpt lat="44.53875" lon="0.66445">
        <ele>112.7</ele>
        <time>2017-01-22T08:15:58.000Z</time>
      </trkpt>
      <trkpt lat="44.53875" lon="0.66445">
        <ele>112.7</ele>
        <time>2017-01-22T08:15:59.000Z</time>
      </trkpt>
      <trkpt lat="44.53875" lon="0.66445">
        <ele>112.7</ele>
        <time>2017-01-22T08:16:00.000Z</time>
      </trkpt>
      <trkpt lat="44.53875" lon="0.66445">
        <ele>112.7</ele>
        <time>2017-01-22T08:16:01.000Z</time>
      </trkpt>
      <trkpt lat="44.53875" lon="0.66445">
        <ele>112.7</ele>
        <time>2017-01-22T08:16:02.000Z</time>
      </trkpt>
      <trkpt lat="44.53875" lon="0.66445">
        <ele>112.7</ele>
        <time>2017-01-22T08:16:03.000Z</time>
      </trkpt>
      <trkpt lat="44.53875" lon="0.66445">
        <ele>112.7</ele>
        <time>2017-01-22T08:16:04.000Z</time>
      </trkpt>
      <trkpt lat="44.53875" lon="0.66445">
        <ele>112.7</ele>
        <time>2017-01-22T08:16:05.000Z</time>
      </trkpt>
      <trkpt lat="44.53875" lon="0.66445">
        <ele>112.7</ele>
        <time>2017-01-22T08:16:06.000Z</time>
      </trkpt>
      <trkpt lat="44.53875" lon="0.66445">
        <ele>112.7</ele>
        <time>2017-01-22T08:16:07.000Z</time>
      </trkpt>
      <trkpt lat="44.53875" lon="0.66445">
        <ele>112.7</ele>
        <time>2017-01-22T08:16:08.000Z</time>
      </trkpt>
      <trkpt lat="44.53875" lon="0.66445">
        <ele>112.7</ele>
        <time>2017-01-22T08:16:09.000Z</time>
      </trkpt>
      <trkpt lat="44.53875" lon="0.66445">
        <ele>112.7</ele>
        <time>2017-01-22T08:16:10.000Z</time>
      </trkpt>
      <trkpt lat="44.53875" lon="0.66445">
        <ele>112.7</ele>
        <time>2017-01-22T08:16:11.000Z</time>
      </trkpt>
      <trkpt lat="44.53875" lon="0.66445">
        <ele>112.7</ele>
        <time>2017-01-22T08:16:12.000Z</time>
      </trkpt>
      <trkpt lat="44.53875" lon="0.66445">
        <ele>112.7</ele>
        <time>2017-01-22T08:16:13.000Z</time>
      </trkpt>
      <trkpt lat="44.53875" lon="0.66445">
        <ele>112.7</ele>
        <time>2017-01-22T08:16:14.000Z</time>
      </trkpt>
      <trkpt lat="44.53875" lon="0.66445">
        <ele>112.7</ele>
        <time>2017-01-22T08:16:15.000Z</time>
      </trkpt>
      <trkpt lat="44.53875" lon="0.66445">
        <ele>112.7</ele>
        <time>2017-01-22T08:16:16.000Z</time>
      </trkpt>
      <trkpt lat="44.53875" lon="0.66445">
        <ele>112.7</ele>
        <time>2017-01-22T08:16:17.000Z</time>
      </trkpt>
      <trkpt lat="44.53875" lon="0.66445">
        <ele>112.7</ele>
        <time>2017-01-22T08:16:18.000Z</time>
      </trkpt>
      <trkpt lat="44.53875" lon="0.66445">
        <ele>112.7</ele>
        <time>2017-01-22T08:16:19.000Z</time>
      </trkpt>
      <trkpt lat="44.53875" lon="0.66445">
        <ele>112.7</ele>
        <time>2017-01-22T08:16:20.000Z</time>
      </trkpt>
      <trkpt lat="44.53875" lon="0.66445">
        <ele>112.7</ele>
        <time>2017-01-22T08:16:21.000Z</time>
      </trkpt>
      <trkpt lat="44.53875" lon="0.66445">
        <ele>112.7</ele>
        <time>2017-01-22T08:16:22.000Z</time>
      </trkpt>
      <trkpt lat="44.53875" lon="0.66445">
        <ele>112.7</ele>
        <time>2017-01-22T08:16:23.000Z</time>
      </trkpt>
      <trkpt lat="44.53875" lon="0.66445">
        <ele>112.7</ele>
        <time>2017-01-22T08:16:24.000Z</time>
      </trkpt>
      <trkpt lat="44.53875" lon="0.66445">
        <ele>112.7</ele>
        <time>2017-01-22T08:16:25.000Z</time>
      </trkpt>
      <trkpt lat="44.53875" lon="0.66445">
        <ele>112.7</ele>
        <time>2017-01-22T08:16:26.000Z</time>
      </trkpt>
      <trkpt lat="44.53875" lon="0.66445">
        <ele>112.7</ele>
        <time>2017-01-22T08:16:27.000Z</time>
      </trkpt>
      <trkpt lat="44.53875" lon="0.66445">
        <ele>112.7</ele>
        <time>2017-01-22T08:16:28.000Z</time>
      </trkpt>
      <trkpt lat="44.53875" lon="0.66445">
        <ele>112.7</ele>
        <time>2017-01-22T08:16:29.000Z</time>
      </trkpt>
      <trkpt lat="44.53875" lon="0.66445">
        <ele>112.7</ele>
        <time>2017-01-22T08:16:30.000Z</time>
      </trkpt>
      <trkpt lat="44.53875" lon="0.66445">
        <ele>112.7</ele>
        <time>2017-01-22T08:16:31.000Z</time>
      </trkpt>
      <trkpt lat="44.53875" lon="0.66445">
        <ele>112.7</ele>
        <time>2017-01-22T08:16:32.000Z</time>
      </trkpt>
      <trkpt lat="44.53875" lon="0.66445">
        <ele>112.7</ele>
        <time>2017-01-22T08:16:33.000Z</time>
      </trkpt>
      <trkpt lat="44.53875" lon="0.66445">
        <ele>112.7</ele>
        <time>2017-01-22T08:16:34.000Z</time>
      </trkpt>
      <trkpt lat="44.53875" lon="0.66445">
        <ele>112.7</ele>
        <time>2017-01-22T08:16:35.000Z</time>
      </trkpt>
      <trkpt lat="44.53875" lon="0.66445">
        <ele>112.7</ele>
        <time>2017-01-22T08:16:36.000Z</time>
      </trkpt>
      <trkpt lat="44.53875" lon="0.66445">
        <ele>112.7</ele>
        <time>2017-01-22T08:16:37.000Z</time>
      </trkpt>
      <trkpt lat="44.53875" lon="0.66445">
        <ele>112.7</ele>
        <time>2017-01-22T08:16:38.000Z</time>
      </trkpt>
      <trkpt lat="44.53875" lon="0.66445">
        <ele>112.7</ele>
        <time>2017-01-22T08:16:39.000Z</time>
      </trkpt>
      <trkpt lat="44.53875" lon="0.66445">
        <ele>112.7</ele>
        <time>2017-01-22T08:16:40.000Z</time>
      </trkpt>
      <trkpt lat="44.53875" lon="0.66445">
        <ele>112.7</ele>
        <time>2017-01-22T08:16:41.000Z</time>
      </trkpt>
      <trkpt lat="44.53875" lon="0.66445">
        <ele>112.7</ele>
        <time>2017-01-22T08:16:42.000Z</time>
      </trkpt>
      <trkpt lat="44.53875" lon="0.66445">
        <ele>112.7</ele>
        <time>2017-01-22T08:16:43.000Z</time>
      </trkpt>
      <trkpt lat="44.53875" lon="0.66445">
        <ele>112.7</ele>
        <time>2017-01-22T08:16:44.000Z</time>
      </trkpt>
      <trkpt lat="44.53875" lon="0.66445">
        <ele>112.7</ele>
        <time>2017-01-22T08:16:45.000Z</time>
      </trkpt>
      <trkpt lat="44.53875" lon="0.66445">
        <ele>112.7</ele>
        <time>2017-01-22T08:16:46.000Z</time>
      </trkpt>
      <trkpt lat="44.53875" lon="0.66445">
        <ele>112.7</ele>
        <time>2017-01-22T08:16:47.000Z</time>
      </trkpt>
      <trkpt lat="44.53875" lon="0.66445">
        <ele>112.7</ele>
        <time>2017-01-22T08:16:48.000Z</time>
      </trkpt>
      <trkpt lat="44.53875" lon="0.66445">
        <ele>112.7</ele>
        <time>2017-01-22T08:16:49.000Z</time>
      </trkpt>
      <trkpt lat="44.53875" lon="0.66445">
        <ele>112.7</ele>
        <time>2017-01-22T08:16:50.000Z</time>
      </trkpt>
      <trkpt lat="44.53875" lon="0.66445">
        <ele>112.7</ele>
        <time>2017-01-22T08:16:51.000Z</time>
      </trkpt>
      <trkpt lat="44.53875" lon="0.66445">
        <ele>112.7</ele>
        <time>2017-01-22T08:16:52.000Z</time>
      </trkpt>
      <trkpt lat="44.53875" lon="0.66445">
        <ele>112.7</ele>
        <time>2017-01-22T08:16:53.000Z</time>
      </trkpt>
      <trkpt lat="44.53875" lon="0.66445">
        <ele>112.7</ele>
        <time>2017-01-22T08:16:54.000Z</time>
      </trkpt>
      <trkpt lat="44.53875" lon="0.66445">
        <ele>112.7</ele>
        <time>2017-01-22T08:16:55.000Z</time>
      </trkpt>
      <trkpt lat="44.53875" lon="0.66445">
        <ele>112.7</ele>
        <time>2017-01-22T08:16:56.000Z</time>
      </trkpt>
      <trkpt lat="44.53875" lon="0.66445">
        <ele>112.7</ele>
        <time>2017-01-22T08:16:57.000Z</time>
      </trkpt>
      <trkpt lat="44.53875" lon="0.66445">
        <ele>112.7</ele>
        <time>2017-01-22T08:16:58.000Z</time>
      </trkpt>
      <trkpt lat="44.53875" lon="0.66445">
        <ele>112.7</ele>
        <time>2017-01-22T08:16:59.000Z</time>
      </trkpt>
      <trkpt lat="44.53875" lon="0.66445">
        <ele>112.7</ele>
        <time>2017-01-22T08:17:00.000Z</time>
      </trkpt>
      <trkpt lat="44.53875" lon="0.66445">
        <ele>112.7</ele>
        <time>2017-01-22T08:17:01.000Z</time>
      </trkpt>
      <trkpt lat="44.53875" lon="0.66445">
        <ele>112.7</ele>
        <time>2017-01-22T08:17:02.000Z</time>
      </trkpt>
      <trkpt lat="44.53875" lon="0.66445">
        <ele>112.7</ele>
        <time>2017-01-22T08:17:03.000Z</time>
      </trkpt>
      <trkpt lat="44.53875" lon="0.66445">
        <ele>112.7</ele>
        <time>2017-01-22T08:17:04.000Z</time>
      </trkpt>
      <trkpt lat="44.53875" lon="0.66445">
        <ele>112.7</ele>
        <time>2017-01-22T08:17:05.000Z</time>
      </trkpt>
      <trkpt lat="44.53875" lon="0.66445">
        <ele>112.7</ele>
        <time>2017-01-22T08:17:06.000Z</time>
      </trkpt>
      <trkpt lat="44.53875" lon="0.66445">
        <ele>112.7</ele>
        <time>2017-01-22T08:17:07.000Z</time>
      </trkpt>
      <trkpt lat="44.53875" lon="0.66445">
        <ele>112.7</ele>
        <time>2017-01-22T08:17:08.000Z</time>
      </trkpt>
      <trkpt lat="44.53875" lon="0.66445">
        <ele>112.7</ele>
        <time>2017-01-22T08:17:09.000Z</time>
      </trkpt>
      <trkpt lat="44.53875" lon="0.66445">
        <ele>112.7</ele>
        <time>2017-01-22T08:17:10.000Z</time>
      </trkpt>
      <trkpt lat="44.53875" lon="0.66445">
        <ele>112.7</ele>
        <time>2017-01-22T08:17:11.000Z</time>
      </trkpt>
      <trkpt lat="44.53875" lon="0.66445">
        <ele>112.7</ele>
        <time>2017-01-22T08:17:12.000Z</time>
      </trkpt>
      <trkpt lat="44.53875" lon="0.66445">
        <ele>112.7</ele>
        <time>2017-01-22T08:17:13.000Z</time>
      </trkpt>
      <trkpt lat="44.53875" lon="0.66445">
        <ele>112.7</ele>
        <time>2017-01-22T08:17:14.000Z</time>
      </trkpt>
      <trkpt lat="44.53875" lon="0.66445">
        <ele>112.7</ele>
        <time>2017-01-22T08:17:15.000Z</time>
      </trkpt>
      <trkpt lat="44.53875" lon="0.66445">
        <ele>112.7</ele>
        <time>2017-01-22T08:17:16.000Z</time>
      </trkpt>
      <trkpt lat="44.53875" lon="0.66445">
        <ele>112.7</ele>
        <time>2017-01-22T08:17:17.000Z</time>
      </trkpt>
      <trkpt lat="44.53875" lon="0.66445">
        <ele>112.7</ele>
        <time>2017-01-22T08:17:18.000Z</time>
      </trkpt>
      <trkpt lat="44.53875" lon="0.66445">
        <ele>112.7</ele>
        <time>2017-01-22T08:17:19.000Z</time>
      </trkpt>
      <trkpt lat="44.53875" lon="0.66445">
        <ele>112.7</ele>
        <time>2017-01-22T08:17:20.000Z</time>
      </trkpt>
      <trkpt lat="44.53875" lon="0.66445">
        <ele>112.7</ele>
        <time>2017-01-22T08:17:21.000Z</time>
      </trkpt>
      <trkpt lat="44.53875" lon="0.66445">
        <ele>112.7</ele>
        <time>2017-01-22T08:17:22.000Z</time>
      </trkpt>
      <trkpt lat="44.53875" lon="0.66445">
        <ele>112.7</ele>
        <time>2017-01-22T08:17:23.000Z</time>
      </trkpt>
      <trkpt lat="44.53875" lon="0.66445">
        <ele>112.7</ele>
        <time>2017-01-22T08:17:24.000Z</time>
      </trkpt>
      <trkpt lat="44.53875" lon="0.66445">
        <ele>112.7</ele>
        <time>2017-01-22T08:17:25.000Z</time>
      </trkpt>
      <trkpt lat="44.53875" lon="0.66445">
        <ele>112.7</ele>
        <time>2017-01-22T08:17:26.000Z</time>
      </trkpt>
      <trkpt lat="44.53875" lon="0.66445">
        <ele>112.7</ele>
        <time>2017-01-22T08:17:27.000Z</time>
      </trkpt>
      <trkpt lat="44.53875" lon="0.66445">
        <ele>112.7</ele>
        <time>2017-01-22T08:17:28.000Z</time>
      </trkpt>
      <trkpt lat="44.53875" lon="0.66445">
        <ele>112.7</ele>
        <time>2017-01-22T08:17:29.000Z</time>
      </trkpt>
      <trkpt lat="44.53875" lon="0.66445">
        <ele>112.7</ele>
        <time>2017-01-22T08:17:30.000Z</time>
      </trkpt>
      <trkpt lat="44.53875" lon="0.66445">
        <ele>112.7</ele>
        <time>2017-01-22T08:17:31.000Z</time>
      </trkpt>
      <trkpt lat="44.53875" lon="0.66445">
        <ele>112.7</ele>
        <time>2017-01-22T08:17:32.000Z</time>
      </trkpt>
      <trkpt lat="44.53875" lon="0.66445">
        <ele>112.7</ele>
        <time>2017-01-22T08:17:33.000Z</time>
      </trkpt>
      <trkpt lat="44.53875" lon="0.66445">
        <ele>112.7</ele>
        <time>2017-01-22T08:17:34.000Z</time>
      </trkpt>
      <trkpt lat="44.53875" lon="0.66445">
        <ele>112.7</ele>
        <time>2017-01-22T08:17:35.000Z</time>
      </trkpt>
      <trkpt lat="44.53875" lon="0.66445">
        <ele>112.7</ele>
        <time>2017-01-22T08:17:36.000Z</time>
      </trkpt>
      <trkpt lat="44.53875" lon="0.66445">
        <ele>112.7</ele>
        <time>2017-01-22T08:17:37.000Z</time>
      </trkpt>
      <trkpt lat="44.53875" lon="0.66445">
        <ele>112.7</ele>
        <time>2017-01-22T08:17:38.000Z</time>
      </trkpt>
      <trkpt lat="44.53875" lon="0.66445">
        <ele>112.7</ele>
        <time>2017-01-22T08:17:39.000Z</time>
      </trkpt>
      <trkpt lat="44.53875" lon="0.66445">
        <ele>112.7</ele>
        <time>2017-01-22T08:17:40.000Z</time>
      </trkpt>
      <trkpt lat="44.53875" lon="0.66445">
        <ele>112.7</ele>
        <time>2017-01-22T08:17:41.000Z</time>
      </trkpt>
      <trkpt lat="44.53875" lon="0.66445">
        <ele>112.7</ele>
        <time>2017-01-22T08:17:42.000Z</time>
      </trkpt>
      <trkpt lat="44.53875" lon="0.66445">
        <ele>112.7</ele>
        <time>2017-01-22T08:17:43.000Z</time>
      </trkpt>
      <trkpt lat="44.53875" lon="0.66445">
        <ele>112.7</ele>
        <time>2017-01-22T08:17:44.000Z</time>
      </trkpt>
      <trkpt lat="44.53875" lon="0.66445">
        <ele>112.7</ele>
        <time>2017-01-22T08:17:45.000Z</time>
      </trkpt>
      <trkpt lat="44.53875" lon="0.66445">
        <ele>112.7</ele>
        <time>2017-01-22T08:17:46.000Z</time>
      </trkpt>
      <trkpt lat="44.53875" lon="0.66445">
        <ele>112.7</ele>
        <time>2017-01-22T08:17:47.000Z</time>
      </trkpt>
      <trkpt lat="44.53875" lon="0.66445">
        <ele>112.7</ele>
        <time>2017-01-22T08:17:48.000Z</time>
      </trkpt>
      <trkpt lat="44.53875" lon="0.66445">
        <ele>112.7</ele>
        <time>2017-01-22T08:17:49.000Z</time>
      </trkpt>
      <trkpt lat="44.53875" lon="0.66445">
        <ele>112.7</ele>
        <time>2017-01-22T08:17:50.000Z</time>
      </trkpt>
      <trkpt lat="44.53875" lon="0.66445">
        <ele>112.7</ele>
        <time>2017-01-22T08:17:51.000Z</time>
      </trkpt>
      <trkpt lat="44.53875" lon="0.66445">
        <ele>112.7</ele>
        <time>2017-01-22T08:17:52.000Z</time>
      </trkpt>
      <trkpt lat="44.53875" lon="0.66445">
        <ele>112.7</ele>
        <time>2017-01-22T08:17:53.000Z</time>
      </trkpt>
      <trkpt lat="44.53875" lon="0.66445">
        <ele>112.7</ele>
        <time>2017-01-22T08:17:54.000Z</time>
      </trkpt>
      <trkpt lat="44.53875" lon="0.66445">
        <ele>112.7</ele>
        <time>2017-01-22T08:17:55.000Z</time>
      </trkpt>
      <trkpt lat="44.53875" lon="0.66445">
        <ele>112.7</ele>
        <time>2017-01-22T08:17:56.000Z</time>
      </trkpt>
      <trkpt lat="44.53875" lon="0.66445">
        <ele>112.7</ele>
        <time>2017-01-22T08:17:57.000Z</time>
      </trkpt>
      <trkpt lat="44.53875" lon="0.66445">
        <ele>112.7</ele>
        <time>2017-01-22T08:17:58.000Z</time>
      </trkpt>
      <trkpt lat="44.53875" lon="0.66445">
        <ele>112.7</ele>
        <time>2017-01-22T08:17:59.000Z</time>
      </trkpt>
      <trkpt lat="44.53875" lon="0.66445">
        <ele>112.7</ele>
        <time>2017-01-22T08:18:00.000Z</time>
      </trkpt>
      <trkpt lat="44.53875" lon="0.66445">
        <ele>112.7</ele>
        <time>2017-01-22T08:18:01.000Z</time>
      </trkpt>
      <trkpt lat="44.53875" lon="0.66445">
        <ele>112.7</ele>
        <time>2017-01-22T08:18:02.000Z</time>
      </trkpt>
      <trkpt lat="44.53875" lon="0.66445">
        <ele>112.7</ele>
        <time>2017-01-22T08:18:03.000Z</time>
      </trkpt>
      <trkpt lat="44.53875" lon="0.66445">
        <ele>112.7</ele>
        <time>2017-01-22T08:18:04.000Z</time>
      </trkpt>
      <trkpt lat="44.53875" lon="0.66445">
        <ele>112.7</ele>
        <time>2017-01-22T08:18:05.000Z</time>
      </trkpt>
      <trkpt lat="44.53875" lon="0.66445">
        <ele>112.7</ele>
        <time>2017-01-22T08:18:06.000Z</time>
      </trkpt>
      <trkpt lat="44.53875" lon="0.66445">
        <ele>112.7</ele>
        <time>2017-01-22T08:18:07.000Z</time>
      </trkpt>
      <trkpt lat="44.53875" lon="0.66445">
        <ele>112.7</ele>
        <time>2017-01-22T08:18:08.000Z</time>
      </trkpt>
      <trkpt lat="44.53875" lon="0.66445">
        <ele>112.7</ele>
        <time>2017-01-22T08:18:09.000Z</time>
      </trkpt>
      <trkpt lat="44.53875" lon="0.66445">
        <ele>112.7</ele>
        <time>2017-01-22T08:18:10.000Z</time>
      </trkpt>
      <trkpt lat="44.53876" lon="0.66445">
        <ele>112.7</ele>
        <time>2017-01-22T08:18:11.000Z</time>
      </trkpt>
      <trkpt lat="44.53876" lon="0.66445">
        <ele>112.7</ele>
        <time>2017-01-22T08:18:12.000Z</time>
      </trkpt>
      <trkpt lat="44.53876" lon="0.66446">
        <ele>112.6</ele>
        <time>2017-01-22T08:18:13.000Z</time>
      </trkpt>
      <trkpt lat="44.53876" lon="0.66448">
        <ele>112.6</ele>
        <time>2017-01-22T08:18:14.000Z</time>
      </trkpt>
      <trkpt lat="44.53877" lon="0.6645">
        <ele>112.6</ele>
        <time>2017-01-22T08:18:15.000Z</time>
      </trkpt>
      <trkpt lat="44.53878" lon="0.66452">
        <ele>112.6</ele>
        <time>2017-01-22T08:18:16.000Z</time>
      </trkpt>
      <trkpt lat="44.5388" lon="0.66455">
        <ele>112.5</ele>
        <time>2017-01-22T08:18:17.000Z</time>
      </trkpt>
      <trkpt lat="44.53881" lon="0.66458">
        <ele>112.5</ele>
        <time>2017-01-22T08:18:18.000Z</time>
      </trkpt>
      <trkpt lat="44.53882" lon="0.66461">
        <ele>112.5</ele>
        <time>2017-01-22T08:18:19.000Z</time>
      </trkpt>
      <trkpt lat="44.53884" lon="0.66465">
        <ele>112.5</ele>
        <time>2017-01-22T08:18:20.000Z</time>
      </trkpt>
      <trkpt lat="44.53886" lon="0.66468">
        <ele>112.4</ele>
        <time>2017-01-22T08:18:21.000Z</time>
      </trkpt>
      <trkpt lat="44.53887" lon="0.66472">
        <ele>112.4</ele>
        <time>2017-01-22T08:18:22.000Z</time>
      </trkpt>
      <trkpt lat="44.53889" lon="0.66476">
        <ele>112.4</ele>
        <time>2017-01-22T08:18:23.000Z</time>
      </trkpt>
      <trkpt lat="44.53891" lon="0.66479">
        <ele>112.4</ele>
        <time>2017-01-22T08:18:24.000Z</time>
      </trkpt>
      <trkpt lat="44.53892" lon="0.66483">
        <ele>112.5</ele>
        <time>2017-01-22T08:18:25.000Z</time>
      </trkpt>
      <trkpt lat="44.53894" lon="0.66487">
        <ele>112.5</ele>
        <time>2017-01-22T08:18:26.000Z</time>
      </trkpt>
      <trkpt lat="44.53896" lon="0.66491">
        <ele>112.5</ele>
        <time>2017-01-22T08:18:27.000Z</time>
      </trkpt>
      <trkpt lat="44.53898" lon="0.66495">
        <ele>112.5</ele>
        <time>2017-01-22T08:18:28.000Z</time>
      </trkpt>
      <trkpt lat="44.539" lon="0.66499">
        <ele>112.6</ele>
        <time>2017-01-22T08:18:29.000Z</time>
      </trkpt>
      <trkpt lat="44.53902" lon="0.66503">
        <ele>112.6</ele>
        <time>2017-01-22T08:18:30.000Z</time>
      </trkpt>
      <trkpt lat="44.53904" lon="0.66507">
        <ele>112.6</ele>
        <time>2017-01-22T08:18:31.000Z</time>
      </trkpt>
      <trkpt lat="44.53905" lon="0.66512">
        <ele>112.5</ele>
        <time>2017-01-22T08:18:32.000Z</time>
      </trkpt>
      <trkpt lat="44.53907" lon="0.66517">
        <ele>112.5</ele>
        <time>2017-01-22T08:18:33.000Z</time>
      </trkpt>
      <trkpt lat="44.53907" lon="0.66522">
        <ele>112.4</ele>
        <time>2017-01-22T08:18:34.000Z</time>
      </trkpt>
      <trkpt lat="44.53907" lon="0.66527">
        <ele>112.3</ele>
        <time>2017-01-22T08:18:35.000Z</time>
      </trkpt>
      <trkpt lat="44.53907" lon="0.66533">
        <ele>112.2</ele>
        <time>2017-01-22T08:18:36.000Z</time>
      </trkpt>
      <trkpt lat="44.53906" lon="0.66539">
        <ele>112.1</ele>
        <time>2017-01-22T08:18:37.000Z</time>
      </trkpt>
      <trkpt lat="44.53906" lon="0.66545">
        <ele>112</ele>
        <time>2017-01-22T08:18:38.000Z</time>
      </trkpt>
      <trkpt lat="44.53905" lon="0.66551">
        <ele>111.8</ele>
        <time>2017-01-22T08:18:39.000Z</time>
      </trkpt>
      <trkpt lat="44.53904" lon="0.66557">
        <ele>111.7</ele>
        <time>2017-01-22T08:18:40.000Z</time>
      </trkpt>
      <trkpt lat="44.53904" lon="0.66563">
        <ele>111.6</ele>
        <time>2017-01-22T08:18:41.000Z</time>
      </trkpt>
      <trkpt lat="44.53903" lon="0.6657">
        <ele>111.4</ele>
        <time>2017-01-22T08:18:42.000Z</time>
      </trkpt>
      <trkpt lat="44.53903" lon="0.66576">
        <ele>111.3</ele>
        <time>2017-01-22T08:18:43.000Z</time>
      </trkpt>
      <trkpt lat="44.53903" lon="0.66583">
        <ele>111.2</ele>
        <time>2017-01-22T08:18:44.000Z</time>
      </trkpt>
      <trkpt lat="44.53903" lon="0.66589">
        <ele>110.8</ele>
        <time>2017-01-22T08:18:45.000Z</time>
      </trkpt>
      <trkpt lat="44.53903" lon="0.66596">
        <ele>110.3</ele>
        <time>2017-01-22T08:18:46.000Z</time>
      </trkpt>
      <trkpt lat="44.53903" lon="0.66603">
        <ele>109.8</ele>
        <time>2017-01-22T08:18:47.000Z</time>
      </trkpt>
      <trkpt lat="44.53904" lon="0.6661">
        <ele>109.3</ele>
        <time>2017-01-22T08:18:48.000Z</time>
      </trkpt>
      <trkpt lat="44.53904" lon="0.66618">
        <ele>108.7</ele>
        <time>2017-01-22T08:18:49.000Z</time>
      </trkpt>
      <trkpt lat="44.53904" lon="0.66627">
        <ele>108.1</ele>
        <time>2017-01-22T08:18:50.000Z</time>
      </trkpt>
      <trkpt lat="44.53905" lon="0.66636">
        <ele>107.5</ele>
        <time>2017-01-22T08:18:51.000Z</time>
      </trkpt>
      <trkpt lat="44.53906" lon="0.66646">
        <ele>106.9</ele>
        <time>2017-01-22T08:18:52.000Z</time>
      </trkpt>
      <trkpt lat="44.53908" lon="0.66657">
        <ele>106.2</ele>
        <time>2017-01-22T08:18:53.000Z</time>
      </trkpt>
      <trkpt lat="44.53911" lon="0.66668">
        <ele>105.5</ele>
        <time>2017-01-22T08:18:54.000Z</time>
      </trkpt>
      <trkpt lat="44.53912" lon="0.66679">
        <ele>104.9</ele>
        <time>2017-01-22T08:18:55.000Z</time>
      </trkpt>
      <trkpt lat="44.53912" lon="0.66689">
        <ele>104.2</ele>
        <time>2017-01-22T08:18:56.000Z</time>
      </trkpt>
      <trkpt lat="44.5391" lon="0.66699">
        <ele>103.5</ele>
        <time>2017-01-22T08:18:57.000Z</time>
      </trkpt>
      <trkpt lat="44.53907" lon="0.66708">
        <ele>102.7</ele>
        <time>2017-01-22T08:18:58.000Z</time>
      </trkpt>
      <trkpt lat="44.53903" lon="0.66718">
        <ele>102</ele>
        <time>2017-01-22T08:18:59.000Z</time>
      </trkpt>
      <trkpt lat="44.53899" lon="0.66728">
        <ele>101.3</ele>
        <time>2017-01-22T08:19:00.000Z</time>
      </trkpt>
      <trkpt lat="44.53895" lon="0.66737">
        <ele>100.7</ele>
        <time>2017-01-22T08:19:01.000Z</time>
      </trkpt>
      <trkpt lat="44.53893" lon="0.66746">
        <ele>100.2</ele>
        <time>2017-01-22T08:19:02.000Z</time>
      </trkpt>
      <trkpt lat="44.53891" lon="0.66755">
        <ele>99.9</ele>
        <time>2017-01-22T08:19:03.000Z</time>
      </trkpt>
      <trkpt lat="44.53892" lon="0.66762">
        <ele>99.7</ele>
        <time>2017-01-22T08:19:04.000Z</time>
      </trkpt>
      <trkpt lat="44.53894" lon="0.66769">
        <ele>99.5</ele>
        <time>2017-01-22T08:19:05.000Z</time>
      </trkpt>
      <trkpt lat="44.53897" lon="0.66776">
        <ele>99.3</ele>
        <time>2017-01-22T08:19:06.000Z</time>
      </trkpt>
      <trkpt lat="44.53901" lon="0.66782">
        <ele>99.1</ele>
        <time>2017-01-22T08:19:07.000Z</time>
      </trkpt>
      <trkpt lat="44.53904" lon="0.66789">
        <ele>98.8</ele>
        <time>2017-01-22T08:19:08.000Z</time>
      </trkpt>
      <trkpt lat="44.53904" lon="0.66796">
        <ele>98.6</ele>
        <time>2017-01-22T08:19:09.000Z</time>
      </trkpt>
      <trkpt lat="44.53903" lon="0.66803">
        <ele>98.4</ele>
        <time>2017-01-22T08:19:10.000Z</time>
      </trkpt>
      <trkpt lat="44.53901" lon="0.6681">
        <ele>98.3</ele>
        <time>2017-01-22T08:19:11.000Z</time>
      </trkpt>
      <trkpt lat="44.53898" lon="0.66815">
        <ele>98.2</ele>
        <time>2017-01-22T08:19:12.000Z</time>
      </trkpt>
      <trkpt lat="44.53896" lon="0.6682">
        <ele>98.1</ele>
        <time>2017-01-22T08:19:13.000Z</time>
      </trkpt>
      <trkpt lat="44.53894" lon="0.66824">
        <ele>98.1</ele>
        <time>2017-01-22T08:19:14.000Z</time>
      </trkpt>
      <trkpt lat="44.53893" lon="0.66827">
        <ele>98</ele>
        <time>2017-01-22T08:19:15.000Z</time>
      </trkpt>
      <trkpt lat="44.53892" lon="0.66829">
        <ele>98</ele>
        <time>2017-01-22T08:19:16.000Z</time>
      </trkpt>
      <trkpt lat="44.53891" lon="0.66831">
        <ele>98</ele>
        <time>2017-01-22T08:19:17.000Z</time>
      </trkpt>
      <trkpt lat="44.5389" lon="0.66832">
        <ele>98</ele>
        <time>2017-01-22T08:19:18.000Z</time>
      </trkpt>
      <trkpt lat="44.5389" lon="0.66834">
        <ele>98</ele>
        <time>2017-01-22T08:19:19.000Z</time>
      </trkpt>
      <trkpt lat="44.5389" lon="0.66835">
        <ele>98</ele>
        <time>2017-01-22T08:19:20.000Z</time>
      </trkpt>
      <trkpt lat="44.53889" lon="0.66836">
        <ele>98</ele>
        <time>2017-01-22T08:19:21.000Z</time>
      </trkpt>
      <trkpt lat="44.53888" lon="0.66838">
        <ele>98</ele>
        <time>2017-01-22T08:19:22.000Z</time>
      </trkpt>
      <trkpt lat="44.53888" lon="0.6684">
        <ele>98</ele>
        <time>2017-01-22T08:19:23.000Z</time>
      </trkpt>
      <trkpt lat="44.53887" lon="0.66842">
        <ele>98</ele>
        <time>2017-01-22T08:19:24.000Z</time>
      </trkpt>
      <trkpt lat="44.53886" lon="0.66845">
        <ele>98</ele>
        <time>2017-01-22T08:19:25.000Z</time>
      </trkpt>
      <trkpt lat="44.53884" lon="0.66848">
        <ele>98.1</ele>
        <time>2017-01-22T08:19:26.000Z</time>
      </trkpt>
      <trkpt lat="44.53883" lon="0.66851">
        <ele>98.1</ele>
        <time>2017-01-22T08:19:27.000Z</time>
      </trkpt>
      <trkpt lat="44.53883" lon="0.66854">
        <ele>98.1</ele>
        <time>2017-01-22T08:19:28.000Z</time>
      </trkpt>
      <trkpt lat="44.53882" lon="0.66857">
        <ele>98.1</ele>
        <time>2017-01-22T08:19:29.000Z</time>
      </trkpt>
      <trkpt lat="44.53882" lon="0.66861">
        <ele>98</ele>
        <time>2017-01-22T08:19:30.000Z</time>
      </trkpt>
      <trkpt lat="44.53883" lon="0.66864">
        <ele>98</ele>
        <time>2017-01-22T08:19:31.000Z</time>
      </trkpt>
      <trkpt lat="44.53883" lon="0.66868">
        <ele>98</ele>
        <time>2017-01-22T08:19:32.000Z</time>
      </trkpt>
      <trkpt lat="44.53883" lon="0.66872">
        <ele>97.9</ele>
        <time>2017-01-22T08:19:33.000Z</time>
      </trkpt>
      <trkpt lat="44.53883" lon="0.66876">
        <ele>97.9</ele>
        <time>2017-01-22T08:19:34.000Z</time>
      </trkpt>
      <trkpt lat="44.53883" lon="0.6688">
        <ele>97.9</ele>
        <time>2017-01-22T08:19:35.000Z</time>
      </trkpt>
      <trkpt lat="44.53882" lon="0.66884">
        <ele>97.9</ele>
        <time>2017-01-22T08:19:36.000Z</time>
      </trkpt>
      <trkpt lat="44.53882" lon="0.66888">
        <ele>97.9</ele>
        <time>2017-01-22T08:19:37.000Z</time>
      </trkpt>
      <trkpt lat="44.53883" lon="0.66892">
        <ele>97.8</ele>
        <time>2017-01-22T08:19:38.000Z</time>
      </trkpt>
      <trkpt lat="44.53883" lon="0.66895">
        <ele>97.8</ele>
        <time>2017-01-22T08:19:39.000Z</time>
      </trkpt>
      <trkpt lat="44.53884" lon="0.66899">
        <ele>97.7</ele>
        <time>2017-01-22T08:19:40.000Z</time>
      </trkpt>
      <trkpt lat="44.53885" lon="0.66903">
        <ele>97.6</ele>
        <time>2017-01-22T08:19:41.000Z</time>
      </trkpt>
      <trkpt lat="44.53887" lon="0.66907">
        <ele>97.5</ele>
        <time>2017-01-22T08:19:42.000Z</time>
      </trkpt>
      <trkpt lat="44.53888" lon="0.66911">
        <ele>97.4</ele>
        <time>2017-01-22T08:19:43.000Z</time>
      </trkpt>
      <trkpt lat="44.5389" lon="0.66915">
        <ele>97.3</ele>
        <time>2017-01-22T08:19:44.000Z</time>
      </trkpt>
      <trkpt lat="44.53891" lon="0.66919">
        <ele>97.4</ele>
        <time>2017-01-22T08:19:45.000Z</time>
      </trkpt>
      <trkpt lat="44.53892" lon="0.66923">
        <ele>97.6</ele>
        <time>2017-01-22T08:19:46.000Z</time>
      </trkpt>
      <trkpt lat="44.53893" lon="0.66927">
        <ele>97.8</ele>
        <time>2017-01-22T08:19:47.000Z</time>
      </trkpt>
      <trkpt lat="44.53894" lon="0.6693">
        <ele>97.9</ele>
        <time>2017-01-22T08:19:48.000Z</time>
      </trkpt>
      <trkpt lat="44.53894" lon="0.66931">
        <ele>98</ele>
        <time>2017-01-22T08:19:49.000Z</time>
      </trkpt>
      <trkpt lat="44.53895" lon="0.66933">
        <ele>98.1</ele>
        <time>2017-01-22T08:19:50.000Z</time>
      </trkpt>
      <trkpt lat="44.53896" lon="0.66937">
        <ele>98.3</ele>
        <time>2017-01-22T08:19:51.000Z</time>
      </trkpt>
      <trkpt lat="44.53897" lon="0.66941">
        <ele>98.5</ele>
        <time>2017-01-22T08:19:52.000Z</time>
      </trkpt>
      <trkpt lat="44.53898" lon="0.66946">
        <ele>98.8</ele>
        <time>2017-01-22T08:19:53.000Z</time>
      </trkpt>
      <trkpt lat="44.53899" lon="0.66951">
        <ele>99</ele>
        <time>2017-01-22T08:19:54.000Z</time>
      </trkpt>
      <trkpt lat="44.53899" lon="0.66955">
        <ele>99.3</ele>
        <time>2017-01-22T08:19:55.000Z</time>
      </trkpt>
      <trkpt lat="44.539" lon="0.66959">
        <ele>99.6</ele>
        <time>2017-01-22T08:19:56.000Z</time>
      </trkpt>
      <trkpt lat="44.539" lon="0.66963">
        <ele>99.8</ele>
        <time>2017-01-22T08:19:57.000Z</time>
      </trkpt>
      <trkpt lat="44.53901" lon="0.66966">
        <ele>100</ele>
        <time>2017-01-22T08:19:58.000Z</time>
      </trkpt>
      <trkpt lat="44.53901" lon="0.66969">
        <ele>100.2</ele>
        <time>2017-01-22T08:19:59.000Z</time>
      </trkpt>
      <trkpt lat="44.53901" lon="0.66972">
        <ele>100.3</ele>
        <time>2017-01-22T08:20:00.000Z</time>
      </trkpt>
      <trkpt lat="44.53902" lon="0.66974">
        <ele>100.5</ele>
        <time>2017-01-22T08:20:01.000Z</time>
      </trkpt>
      <trkpt lat="44.53902" lon="0.66977">
        <ele>100.7</ele>
        <time>2017-01-22T08:20:02.000Z</time>
      </trkpt>
      <trkpt lat="44.53902" lon="0.6698">
        <ele>100.9</ele>
        <time>2017-01-22T08:20:03.000Z</time>
      </trkpt>
      <trkpt lat="44.53902" lon="0.66983">
        <ele>101</ele>
        <time>2017-01-22T08:20:04.000Z</time>
      </trkpt>
      <trkpt lat="44.53903" lon="0.66986">
        <ele>101.2</ele>
        <time>2017-01-22T08:20:05.000Z</time>
      </trkpt>
      <trkpt lat="44.53903" lon="0.66988">
        <ele>101.4</ele>
        <time>2017-01-22T08:20:06.000Z</time>
      </trkpt>
      <trkpt lat="44.53903" lon="0.66991">
        <ele>101.6</ele>
        <time>2017-01-22T08:20:07.000Z</time>
      </trkpt>
      <trkpt lat="44.53903" lon="0.66994">
        <ele>101.7</ele>
        <time>2017-01-22T08:20:08.000Z</time>
      </trkpt>
      <trkpt lat="44.53903" lon="0.66997">
        <ele>101.9</ele>
        <time>2017-01-22T08:20:09.000Z</time>
      </trkpt>
      <trkpt lat="44.53903" lon="0.66999">
        <ele>102.1</ele>
        <time>2017-01-22T08:20:10.000Z</time>
      </trkpt>
      <trkpt lat="44.53904" lon="0.67002">
        <ele>102.3</ele>
        <time>2017-01-22T08:20:11.000Z</time>
      </trkpt>
      <trkpt lat="44.53904" lon="0.67005">
        <ele>102.5</ele>
        <time>2017-01-22T08:20:12.000Z</time>
      </trkpt>
      <trkpt lat="44.53904" lon="0.67007">
        <ele>102.6</ele>
        <time>2017-01-22T08:20:13.000Z</time>
      </trkpt>
      <trkpt lat="44.53904" lon="0.6701">
        <ele>102.8</ele>
        <time>2017-01-22T08:20:14.000Z</time>
      </trkpt>
      <trkpt lat="44.53904" lon="0.67013">
        <ele>103</ele>
        <time>2017-01-22T08:20:15.000Z</time>
      </trkpt>
      <trkpt lat="44.53904" lon="0.67016">
        <ele>103.2</ele>
        <time>2017-01-22T08:20:16.000Z</time>
      </trkpt>
      <trkpt lat="44.53904" lon="0.67018">
        <ele>103.4</ele>
        <time>2017-01-22T08:20:17.000Z</time>
      </trkpt>
      <trkpt lat="44.53905" lon="0.67021">
        <ele>103.5</ele>
        <time>2017-01-22T08:20:18.000Z</time>
      </trkpt>
      <trkpt lat="44.53905" lon="0.67024">
        <ele>103.7</ele>
        <time>2017-01-22T08:20:19.000Z</time>
      </trkpt>
      <trkpt lat="44.53905" lon="0.67027">
        <ele>103.9</ele>
        <time>2017-01-22T08:20:20.000Z</time>
      </trkpt>
      <trkpt lat="44.53905" lon="0.67029">
        <ele>104.1</ele>
        <time>2017-01-22T08:20:21.000Z</time>
      </trkpt>
      <trkpt lat="44.53906" lon="0.67032">
        <ele>104.3</ele>
        <time>2017-01-22T08:20:22.000Z</time>
      </trkpt>
      <trkpt lat="44.53906" lon="0.67035">
        <ele>104.5</ele>
        <time>2017-01-22T08:20:23.000Z</time>
      </trkpt>
      <trkpt lat="44.53906" lon="0.67038">
        <ele>104.7</ele>
        <time>2017-01-22T08:20:24.000Z</time>
      </trkpt>
      <trkpt lat="44.53907" lon="0.6704">
        <ele>104.8</ele>
        <time>2017-01-22T08:20:25.000Z</time>
      </trkpt>
      <trkpt lat="44.53907" lon="0.67043">
        <ele>105</ele>
        <time>2017-01-22T08:20:26.000Z</time>
      </trkpt>
      <trkpt lat="44.53907" lon="0.67046">
        <ele>105.2</ele>
        <time>2017-01-22T08:20:27.000Z</time>
      </trkpt>
      <trkpt lat="44.53908" lon="0.67049">
        <ele>105.4</ele>
        <time>2017-01-22T08:20:28.000Z</time>
      </trkpt>
      <trkpt lat="44.53908" lon="0.67052">
        <ele>105.6</ele>
        <time>2017-01-22T08:20:29.000Z</time>
      </trkpt>
      <trkpt lat="44.53908" lon="0.67054">
        <ele>105.8</ele>
        <time>2017-01-22T08:20:30.000Z</time>
      </trkpt>
      <trkpt lat="44.53909" lon="0.67057">
        <ele>106</ele>
        <time>2017-01-22T08:20:31.000Z</time>
      </trkpt>
      <trkpt lat="44.53909" lon="0.6706">
        <ele>106.2</ele>
        <time>2017-01-22T08:20:32.000Z</time>
      </trkpt>
      <trkpt lat="44.5391" lon="0.67063">
        <ele>106.5</ele>
        <time>2017-01-22T08:20:33.000Z</time>
      </trkpt>
      <trkpt lat="44.5391" lon="0.67067">
        <ele>106.7</ele>
        <time>2017-01-22T08:20:34.000Z</time>
      </trkpt>
      <trkpt lat="44.53911" lon="0.6707">
        <ele>106.9</ele>
        <time>2017-01-22T08:20:35.000Z</time>
      </trkpt>
      <trkpt lat="44.53911" lon="0.67073">
        <ele>107.1</ele>
        <time>2017-01-22T08:20:36.000Z</time>
      </trkpt>
      <trkpt lat="44.53912" lon="0.67076">
        <ele>107.4</ele>
        <time>2017-01-22T08:20:37.000Z</time>
      </trkpt>
      <trkpt lat="44.53912" lon="0.67079">
        <ele>107.6</ele>
        <time>2017-01-22T08:20:38.000Z</time>
      </trkpt>
      <trkpt lat="44.53913" lon="0.67082">
        <ele>107.8</ele>
        <time>2017-01-22T08:20:39.000Z</time>
      </trkpt>
      <trkpt lat="44.53913" lon="0.67086">
        <ele>107.9</ele>
        <time>2017-01-22T08:20:40.000Z</time>
      </trkpt>
      <trkpt lat="44.53914" lon="0.67089">
        <ele>107.8</ele>
        <time>2017-01-22T08:20:41.000Z</time>
      </trkpt>
      <trkpt lat="44.53914" lon="0.67092">
        <ele>107.7</ele>
        <time>2017-01-22T08:20:42.000Z</time>
      </trkpt>
      <trkpt lat="44.53915" lon="0.67096">
        <ele>107.7</ele>
        <time>2017-01-22T08:20:43.000Z</time>
      </trkpt>
      <trkpt lat="44.53915" lon="0.67099">
        <ele>107.6</ele>
        <time>2017-01-22T08:20:44.000Z</time>
      </trkpt>
      <trkpt lat="44.53916" lon="0.67103">
        <ele>107.5</ele>
        <time>2017-01-22T08:20:45.000Z</time>
      </trkpt>
      <trkpt lat="44.53917" lon="0.67106">
        <ele>107.5</ele>
        <time>2017-01-22T08:20:46.000Z</time>
      </trkpt>
      <trkpt lat="44.53917" lon="0.6711">
        <ele>107.3</ele>
        <time>2017-01-22T08:20:47.000Z</time>
      </trkpt>
      <trkpt lat="44.53918" lon="0.67113">
        <ele>107.2</ele>
        <time>2017-01-22T08:20:48.000Z</time>
      </trkpt>
      <trkpt lat="44.53918" lon="0.67117">
        <ele>107.1</ele>
        <time>2017-01-22T08:20:49.000Z</time>
      </trkpt>
      <trkpt lat="44.53919" lon="0.67121">
        <ele>106.9</ele>
        <time>2017-01-22T08:20:50.000Z</time>
      </trkpt>
      <trkpt lat="44.53919" lon="0.67125">
        <ele>106.8</ele>
        <time>2017-01-22T08:20:51.000Z</time>
      </trkpt>
      <trkpt lat="44.5392" lon="0.67129">
        <ele>106.7</ele>
        <time>2017-01-22T08:20:52.000Z</time>
      </trkpt>
      <trkpt lat="44.5392" lon="0.67133">
        <ele>106.5</ele>
        <time>2017-01-22T08:20:53.000Z</time>
      </trkpt>
      <trkpt lat="44.53921" lon="0.67137">
        <ele>106.4</ele>
        <time>2017-01-22T08:20:54.000Z</time>
      </trkpt>
      <trkpt lat="44.53921" lon="0.67141">
        <ele>106.3</ele>
        <time>2017-01-22T08:20:55.000Z</time>
      </trkpt>
      <trkpt lat="44.53922" lon="0.67146">
        <ele>106.1</ele>
        <time>2017-01-22T08:20:56.000Z</time>
      </trkpt>
      <trkpt lat="44.53922" lon="0.6715">
        <ele>106</ele>
        <time>2017-01-22T08:20:57.000Z</time>
      </trkpt>
      <trkpt lat="44.53922" lon="0.67155">
        <ele>105.9</ele>
        <time>2017-01-22T08:20:58.000Z</time>
      </trkpt>
      <trkpt lat="44.53923" lon="0.67161">
        <ele>105.7</ele>
        <time>2017-01-22T08:20:59.000Z</time>
      </trkpt>
      <trkpt lat="44.53923" lon="0.67166">
        <ele>105.6</ele>
        <time>2017-01-22T08:21:00.000Z</time>
      </trkpt>
      <trkpt lat="44.53923" lon="0.67172">
        <ele>105.4</ele>
        <time>2017-01-22T08:21:01.000Z</time>
      </trkpt>
      <trkpt lat="44.53923" lon="0.67177">
        <ele>105.3</ele>
        <time>2017-01-22T08:21:02.000Z</time>
      </trkpt>
      <trkpt lat="44.53922" lon="0.67183">
        <ele>105.2</ele>
        <time>2017-01-22T08:21:03.000Z</time>
      </trkpt>
      <trkpt lat="44.53922" lon="0.67189">
        <ele>105</ele>
        <time>2017-01-22T08:21:04.000Z</time>
      </trkpt>
      <trkpt lat="44.53923" lon="0.67195">
        <ele>104.8</ele>
        <time>2017-01-22T08:21:05.000Z</time>
      </trkpt>
      <trkpt lat="44.53923" lon="0.67201">
        <ele>104.6</ele>
        <time>2017-01-22T08:21:06.000Z</time>
      </trkpt>
      <trkpt lat="44.53924" lon="0.67207">
        <ele>104.5</ele>
        <time>2017-01-22T08:21:07.000Z</time>
      </trkpt>
      <trkpt lat="44.53924" lon="0.67214">
        <ele>104.3</ele>
        <time>2017-01-22T08:21:08.000Z</time>
      </trkpt>
      <trkpt lat="44.53924" lon="0.6722">
        <ele>104.1</ele>
        <time>2017-01-22T08:21:09.000Z</time>
      </trkpt>
      <trkpt lat="44.53923" lon="0.67226">
        <ele>104</ele>
        <time>2017-01-22T08:21:10.000Z</time>
      </trkpt>
      <trkpt lat="44.53923" lon="0.67232">
        <ele>103.9</ele>
        <time>2017-01-22T08:21:11.000Z</time>
      </trkpt>
      <trkpt lat="44.53922" lon="0.67238">
        <ele>103.8</ele>
        <time>2017-01-22T08:21:12.000Z</time>
      </trkpt>
      <trkpt lat="44.53922" lon="0.67244">
        <ele>103.7</ele>
        <time>2017-01-22T08:21:13.000Z</time>
      </trkpt>
      <trkpt lat="44.53921" lon="0.67249">
        <ele>103.6</ele>
        <time>2017-01-22T08:21:14.000Z</time>
      </trkpt>
      <trkpt lat="44.53921" lon="0.67255">
        <ele>103.4</ele>
        <time>2017-01-22T08:21:15.000Z</time>
      </trkpt>
      <trkpt lat="44.5392" lon="0.67261">
        <ele>103.3</ele>
        <time>2017-01-22T08:21:16.000Z</time>
      </trkpt>
      <trkpt lat="44.5392" lon="0.67267">
        <ele>103.1</ele>
        <time>2017-01-22T08:21:17.000Z</time>
      </trkpt>
      <trkpt lat="44.5392" lon="0.67274">
        <ele>102.8</ele>
        <time>2017-01-22T08:21:18.000Z</time>
      </trkpt>
      <trkpt lat="44.53919" lon="0.67281">
        <ele>102.6</ele>
        <time>2017-01-22T08:21:19.000Z</time>
      </trkpt>
      <trkpt lat="44.53919" lon="0.67288">
        <ele>102.4</ele>
        <time>2017-01-22T08:21:20.000Z</time>
      </trkpt>
      <trkpt lat="44.53919" lon="0.67294">
        <ele>102.2</ele>
        <time>2017-01-22T08:21:21.000Z</time>
      </trkpt>
      <trkpt lat="44.53919" lon="0.67301">
        <ele>102</ele>
        <time>2017-01-22T08:21:22.000Z</time>
      </trkpt>
      <trkpt lat="44.53918" lon="0.67307">
        <ele>101.8</ele>
        <time>2017-01-22T08:21:23.000Z</time>
      </trkpt>
      <trkpt lat="44.53918" lon="0.67313">
        <ele>101.6</ele>
        <time>2017-01-22T08:21:24.000Z</time>
      </trkpt>
      <trkpt lat="44.53918" lon="0.67319">
        <ele>101.4</ele>
        <time>2017-01-22T08:21:25.000Z</time>
      </trkpt>
      <trkpt lat="44.53917" lon="0.67325">
        <ele>101.3</ele>
        <time>2017-01-22T08:21:26.000Z</time>
      </trkpt>
      <trkpt lat="44.53916" lon="0.67332">
        <ele>101.1</ele>
        <time>2017-01-22T08:21:27.000Z</time>
      </trkpt>
      <trkpt lat="44.53916" lon="0.67339">
        <ele>101</ele>
        <time>2017-01-22T08:21:28.000Z</time>
      </trkpt>
      <trkpt lat="44.53915" lon="0.67346">
        <ele>100.9</ele>
        <time>2017-01-22T08:21:29.000Z</time>
      </trkpt>
      <trkpt lat="44.53914" lon="0.67355">
        <ele>100.9</ele>
        <time>2017-01-22T08:21:30.000Z</time>
      </trkpt>
      <trkpt lat="44.53913" lon="0.67364">
        <ele>100.8</ele>
        <time>2017-01-22T08:21:31.000Z</time>
      </trkpt>
      <trkpt lat="44.53913" lon="0.67373">
        <ele>100.7</ele>
        <time>2017-01-22T08:21:32.000Z</time>
      </trkpt>
      <trkpt lat="44.53912" lon="0.67382">
        <ele>100.7</ele>
        <time>2017-01-22T08:21:33.000Z</time>
      </trkpt>
      <trkpt lat="44.53911" lon="0.67391">
        <ele>100.6</ele>
        <time>2017-01-22T08:21:34.000Z</time>
      </trkpt>
      <trkpt lat="44.53911" lon="0.67399">
        <ele>100.6</ele>
        <time>2017-01-22T08:21:35.000Z</time>
      </trkpt>
      <trkpt lat="44.53911" lon="0.67407">
        <ele>100.5</ele>
        <time>2017-01-22T08:21:36.000Z</time>
      </trkpt>
      <trkpt lat="44.5391" lon="0.67414">
        <ele>100.5</ele>
        <time>2017-01-22T08:21:37.000Z</time>
      </trkpt>
      <trkpt lat="44.5391" lon="0.67421">
        <ele>100.5</ele>
        <time>2017-01-22T08:21:38.000Z</time>
      </trkpt>
      <trkpt lat="44.5391" lon="0.67428">
        <ele>100.5</ele>
        <time>2017-01-22T08:21:39.000Z</time>
      </trkpt>
      <trkpt lat="44.5391" lon="0.67436">
        <ele>100.4</ele>
        <time>2017-01-22T08:21:40.000Z</time>
      </trkpt>
      <trkpt lat="44.5391" lon="0.67443">
        <ele>100.4</ele>
        <time>2017-01-22T08:21:41.000Z</time>
      </trkpt>
      <trkpt lat="44.53909" lon="0.67451">
        <ele>100.4</ele>
        <time>2017-01-22T08:21:42.000Z</time>
      </trkpt>
      <trkpt lat="44.53909" lon="0.67458">
        <ele>100.4</ele>
        <time>2017-01-22T08:21:43.000Z</time>
      </trkpt>
      <trkpt lat="44.53908" lon="0.67465">
        <ele>100.4</ele>
        <time>2017-01-22T08:21:44.000Z</time>
      </trkpt>
      <trkpt lat="44.53908" lon="0.67471">
        <ele>100.4</ele>
        <time>2017-01-22T08:21:45.000Z</time>
      </trkpt>
      <trkpt lat="44.53907" lon="0.67477">
        <ele>100.4</ele>
        <time>2017-01-22T08:21:46.000Z</time>
      </trkpt>
      <trkpt lat="44.53907" lon="0.67482">
        <ele>100.4</ele>
        <time>2017-01-22T08:21:47.000Z</time>
      </trkpt>
      <trkpt lat="44.53906" lon="0.67487">
        <ele>100.4</ele>
        <time>2017-01-22T08:21:48.000Z</time>
      </trkpt>
      <trkpt lat="44.53906" lon="0.67491">
        <ele>100.4</ele>
        <time>2017-01-22T08:21:49.000Z</time>
      </trkpt>
      <trkpt lat="44.53906" lon="0.67496">
        <ele>100.4</ele>
        <time>2017-01-22T08:21:50.000Z</time>
      </trkpt>
      <trkpt lat="44.53906" lon="0.675">
        <ele>100.4</ele>
        <time>2017-01-22T08:21:51.000Z</time>
      </trkpt>
      <trkpt lat="44.53906" lon="0.67503">
        <ele>100.4</ele>
        <time>2017-01-22T08:21:52.000Z</time>
      </trkpt>
      <trkpt lat="44.53905" lon="0.67507">
        <ele>100.4</ele>
        <time>2017-01-22T08:21:53.000Z</time>
      </trkpt>
      <trkpt lat="44.53905" lon="0.6751">
        <ele>100.5</ele>
        <time>2017-01-22T08:21:54.000Z</time>
      </trkpt>
      <trkpt lat="44.53904" lon="0.67514">
        <ele>100.5</ele>
        <time>2017-01-22T08:21:55.000Z</time>
      </trkpt>
      <trkpt lat="44.53904" lon="0.67517">
        <ele>100.5</ele>
        <time>2017-01-22T08:21:56.000Z</time>
      </trkpt>
      <trkpt lat="44.53903" lon="0.67521">
        <ele>100.6</ele>
        <time>2017-01-22T08:21:57.000Z</time>
      </trkpt>
      <trkpt lat="44.53902" lon="0.67525">
        <ele>100.6</ele>
        <time>2017-01-22T08:21:58.000Z</time>
      </trkpt>
      <trkpt lat="44.53901" lon="0.67529">
        <ele>100.6</ele>
        <time>2017-01-22T08:21:59.000Z</time>
      </trkpt>
      <trkpt lat="44.539" lon="0.67533">
        <ele>100.7</ele>
        <time>2017-01-22T08:22:00.000Z</time>
      </trkpt>
      <trkpt lat="44.53899" lon="0.67537">
        <ele>100.7</ele>
        <time>2017-01-22T08:22:01.000Z</time>
      </trkpt>
      <trkpt lat="44.53898" lon="0.67542">
        <ele>100.7</ele>
        <time>2017-01-22T08:22:02.000Z</time>
      </trkpt>
      <trkpt lat="44.53897" lon="0.67546">
        <ele>100.7</ele>
        <time>2017-01-22T08:22:03.000Z</time>
      </trkpt>
      <trkpt lat="44.53896" lon="0.67551">
        <ele>100.7</ele>
        <time>2017-01-22T08:22:04.000Z</time>
      </trkpt>
      <trkpt lat="44.53895" lon="0.67555">
        <ele>100.8</ele>
        <time>2017-01-22T08:22:05.000Z</time>
      </trkpt>
      <trkpt lat="44.53894" lon="0.6756">
        <ele>100.8</ele>
        <time>2017-01-22T08:22:06.000Z</time>
      </trkpt>
      <trkpt lat="44.53892" lon="0.67565">
        <ele>100.7</ele>
        <time>2017-01-22T08:22:07.000Z</time>
      </trkpt>
      <trkpt lat="44.53891" lon="0.6757">
        <ele>100.7</ele>
        <time>2017-01-22T08:22:08.000Z</time>
      </trkpt>
      <trkpt lat="44.53889" lon="0.67576">
        <ele>100.7</ele>
        <time>2017-01-22T08:22:09.000Z</time>
      </trkpt>
      <trkpt lat="44.53887" lon="0.67581">
        <ele>100.7</ele>
        <time>2017-01-22T08:22:10.000Z</time>
      </trkpt>
      <trkpt lat="44.53885" lon="0.67588">
        <ele>100.4</ele>
        <time>2017-01-22T08:22:11.000Z</time>
      </trkpt>
      <trkpt lat="44.53883" lon="0.67594">
        <ele>100.1</ele>
        <time>2017-01-22T08:22:12.000Z</time>
      </trkpt>
      <trkpt lat="44.53881" lon="0.67601">
        <ele>99.8</ele>
        <time>2017-01-22T08:22:13.000Z</time>
      </trkpt>
      <trkpt lat="44.5388" lon="0.67609">
        <ele>99.4</ele>
        <time>2017-01-22T08:22:14.000Z</time>
      </trkpt>
      <trkpt lat="44.53879" lon="0.67618">
        <ele>99.1</ele>
        <time>2017-01-22T08:22:15.000Z</time>
      </trkpt>
      <trkpt lat="44.53878" lon="0.67627">
        <ele>98.6</ele>
        <time>2017-01-22T08:22:16.000Z</time>
      </trkpt>
      <trkpt lat="44.53878" lon="0.67638">
        <ele>98.2</ele>
        <time>2017-01-22T08:22:17.000Z</time>
      </trkpt>
      <trkpt lat="44.53879" lon="0.67649">
        <ele>97.7</ele>
        <time>2017-01-22T08:22:18.000Z</time>
      </trkpt>
      <trkpt lat="44.5388" lon="0.6766">
        <ele>97.2</ele>
        <time>2017-01-22T08:22:19.000Z</time>
      </trkpt>
      <trkpt lat="44.53882" lon="0.67671">
        <ele>96.8</ele>
        <time>2017-01-22T08:22:20.000Z</time>
      </trkpt>
      <trkpt lat="44.53884" lon="0.67683">
        <ele>96.6</ele>
        <time>2017-01-22T08:22:21.000Z</time>
      </trkpt>
      <trkpt lat="44.53886" lon="0.67693">
        <ele>96.5</ele>
        <time>2017-01-22T08:22:22.000Z</time>
      </trkpt>
      <trkpt lat="44.53886" lon="0.67703">
        <ele>96.4</ele>
        <time>2017-01-22T08:22:23.000Z</time>
      </trkpt>
      <trkpt lat="44.53885" lon="0.67712">
        <ele>96.3</ele>
        <time>2017-01-22T08:22:24.000Z</time>
      </trkpt>
      <trkpt lat="44.53884" lon="0.67721">
        <ele>96.2</ele>
        <time>2017-01-22T08:22:25.000Z</time>
      </trkpt>
      <trkpt lat="44.53883" lon="0.6773">
        <ele>96.2</ele>
        <time>2017-01-22T08:22:26.000Z</time>
      </trkpt>
      <trkpt lat="44.53882" lon="0.67737">
        <ele>96.2</ele>
        <time>2017-01-22T08:22:27.000Z</time>
      </trkpt>
      <trkpt lat="44.5388" lon="0.67744">
        <ele>96.2</ele>
        <time>2017-01-22T08:22:28.000Z</time>
      </trkpt>
      <trkpt lat="44.53879" lon="0.67749">
        <ele>96.3</ele>
        <time>2017-01-22T08:22:29.000Z</time>
      </trkpt>
      <trkpt lat="44.53878" lon="0.67753">
        <ele>96.3</ele>
        <time>2017-01-22T08:22:30.000Z</time>
      </trkpt>
      <trkpt lat="44.53877" lon="0.67756">
        <ele>96.3</ele>
        <time>2017-01-22T08:22:31.000Z</time>
      </trkpt>
      <trkpt lat="44.53876" lon="0.67759">
        <ele>96.3</ele>
        <time>2017-01-22T08:22:32.000Z</time>
      </trkpt>
      <trkpt lat="44.53875" lon="0.67761">
        <ele>96.4</ele>
        <time>2017-01-22T08:22:33.000Z</time>
      </trkpt>
      <trkpt lat="44.53874" lon="0.67764">
        <ele>96.4</ele>
        <time>2017-01-22T08:22:34.000Z</time>
      </trkpt>
      <trkpt lat="44.53873" lon="0.67767">
        <ele>96.4</ele>
        <time>2017-01-22T08:22:35.000Z</time>
      </trkpt>
      <trkpt lat="44.53873" lon="0.67771">
        <ele>96.4</ele>
        <time>2017-01-22T08:22:36.000Z</time>
      </trkpt>
      <trkpt lat="44.53874" lon="0.67775">
        <ele>96.3</ele>
        <time>2017-01-22T08:22:37.000Z</time>
      </trkpt>
      <trkpt lat="44.53875" lon="0.67779">
        <ele>96.1</ele>
        <time>2017-01-22T08:22:38.000Z</time>
      </trkpt>
      <trkpt lat="44.53877" lon="0.67783">
        <ele>96</ele>
        <time>2017-01-22T08:22:39.000Z</time>
      </trkpt>
      <trkpt lat="44.53878" lon="0.67787">
        <ele>95.9</ele>
        <time>2017-01-22T08:22:40.000Z</time>
      </trkpt>
      <trkpt lat="44.53879" lon="0.67791">
        <ele>95.7</ele>
        <time>2017-01-22T08:22:41.000Z</time>
      </trkpt>
      <trkpt lat="44.53881" lon="0.67795">
        <ele>95.5</ele>
        <time>2017-01-22T08:22:42.000Z</time>
      </trkpt>
      <trkpt lat="44.53882" lon="0.67798">
        <ele>95.4</ele>
        <time>2017-01-22T08:22:43.000Z</time>
      </trkpt>
      <trkpt lat="44.53883" lon="0.67802">
        <ele>95.3</ele>
        <time>2017-01-22T08:22:44.000Z</time>
      </trkpt>
      <trkpt lat="44.53884" lon="0.67805">
        <ele>95.2</ele>
        <time>2017-01-22T08:22:45.000Z</time>
      </trkpt>
      <trkpt lat="44.53885" lon="0.67808">
        <ele>95.1</ele>
        <time>2017-01-22T08:22:46.000Z</time>
      </trkpt>
      <trkpt lat="44.53885" lon="0.67811">
        <ele>95</ele>
        <time>2017-01-22T08:22:47.000Z</time>
      </trkpt>
      <trkpt lat="44.53886" lon="0.67814">
        <ele>94.9</ele>
        <time>2017-01-22T08:22:48.000Z</time>
      </trkpt>
      <trkpt lat="44.53887" lon="0.67817">
        <ele>94.7</ele>
        <time>2017-01-22T08:22:49.000Z</time>
      </trkpt>
      <trkpt lat="44.53888" lon="0.67819">
        <ele>94.6</ele>
        <time>2017-01-22T08:22:50.000Z</time>
      </trkpt>
      <trkpt lat="44.53889" lon="0.67822">
        <ele>94.5</ele>
        <time>2017-01-22T08:22:51.000Z</time>
      </trkpt>
      <trkpt lat="44.5389" lon="0.67825">
        <ele>94.4</ele>
        <time>2017-01-22T08:22:52.000Z</time>
      </trkpt>
      <trkpt lat="44.53891" lon="0.67827">
        <ele>94.3</ele>
        <time>2017-01-22T08:22:53.000Z</time>
      </trkpt>
      <trkpt lat="44.53891" lon="0.6783">
        <ele>94.2</ele>
        <time>2017-01-22T08:22:54.000Z</time>
      </trkpt>
      <trkpt lat="44.53892" lon="0.67833">
        <ele>94.1</ele>
        <time>2017-01-22T08:22:55.000Z</time>
      </trkpt>
      <trkpt lat="44.53892" lon="0.67836">
        <ele>94.1</ele>
        <time>2017-01-22T08:22:56.000Z</time>
      </trkpt>
      <trkpt lat="44.53893" lon="0.6784">
        <ele>94.2</ele>
        <time>2017-01-22T08:22:57.000Z</time>
      </trkpt>
      <trkpt lat="44.53894" lon="0.67842">
        <ele>94.2</ele>
        <time>2017-01-22T08:22:58.000Z</time>
      </trkpt>
      <trkpt lat="44.53895" lon="0.67845">
        <ele>94.2</ele>
        <time>2017-01-22T08:22:59.000Z</time>
      </trkpt>
      <trkpt lat="44.53896" lon="0.67847">
        <ele>94.2</ele>
        <time>2017-01-22T08:23:00.000Z</time>
      </trkpt>
      <trkpt lat="44.53897" lon="0.6785">
        <ele>94.2</ele>
        <time>2017-01-22T08:23:01.000Z</time>
      </trkpt>
      <trkpt lat="44.53898" lon="0.67852">
        <ele>94.2</ele>
        <time>2017-01-22T08:23:02.000Z</time>
      </trkpt>
      <trkpt lat="44.53898" lon="0.67855">
        <ele>94.3</ele>
        <time>2017-01-22T08:23:03.000Z</time>
      </trkpt>
      <trkpt lat="44.53898" lon="0.67857">
        <ele>94.4</ele>
        <time>2017-01-22T08:23:04.000Z</time>
      </trkpt>
      <trkpt lat="44.53898" lon="0.6786">
        <ele>94.5</ele>
        <time>2017-01-22T08:23:05.000Z</time>
      </trkpt>
      <trkpt lat="44.53898" lon="0.67863">
        <ele>94.6</ele>
        <time>2017-01-22T08:23:06.000Z</time>
      </trkpt>
      <trkpt lat="44.53898" lon="0.67866">
        <ele>94.7</ele>
        <time>2017-01-22T08:23:07.000Z</time>
      </trkpt>
      <trkpt lat="44.53899" lon="0.67869">
        <ele>94.7</ele>
        <time>2017-01-22T08:23:08.000Z</time>
      </trkpt>
      <trkpt lat="44.539" lon="0.67873">
        <ele>94.8</ele>
        <time>2017-01-22T08:23:09.000Z</time>
      </trkpt>
      <trkpt lat="44.539" lon="0.67876">
        <ele>94.9</ele>
        <time>2017-01-22T08:23:10.000Z</time>
      </trkpt>
      <trkpt lat="44.53901" lon="0.6788">
        <ele>95</ele>
        <time>2017-01-22T08:23:11.000Z</time>
      </trkpt>
      <trkpt lat="44.53902" lon="0.67884">
        <ele>95.1</ele>
        <time>2017-01-22T08:23:12.000Z</time>
      </trkpt>
      <trkpt lat="44.53903" lon="0.67888">
        <ele>95.2</ele>
        <time>2017-01-22T08:23:13.000Z</time>
      </trkpt>
      <trkpt lat="44.53904" lon="0.67892">
        <ele>95.4</ele>
        <time>2017-01-22T08:23:14.000Z</time>
      </trkpt>
      <trkpt lat="44.53905" lon="0.67896">
        <ele>95.5</ele>
        <time>2017-01-22T08:23:15.000Z</time>
      </trkpt>
      <trkpt lat="44.53905" lon="0.67901">
        <ele>95.6</ele>
        <time>2017-01-22T08:23:16.000Z</time>
      </trkpt>
      <trkpt lat="44.53906" lon="0.67905">
        <ele>95.8</ele>
        <time>2017-01-22T08:23:17.000Z</time>
      </trkpt>
      <trkpt lat="44.53907" lon="0.67909">
        <ele>95.9</ele>
        <time>2017-01-22T08:23:18.000Z</time>
      </trkpt>
      <trkpt lat="44.53908" lon="0.67913">
        <ele>96.1</ele>
        <time>2017-01-22T08:23:19.000Z</time>
      </trkpt>
      <trkpt lat="44.53908" lon="0.67917">
        <ele>96.2</ele>
        <time>2017-01-22T08:23:20.000Z</time>
      </trkpt>
      <trkpt lat="44.53909" lon="0.67921">
        <ele>96.3</ele>
        <time>2017-01-22T08:23:21.000Z</time>
      </trkpt>
      <trkpt lat="44.5391" lon="0.67925">
        <ele>96.4</ele>
        <time>2017-01-22T08:23:22.000Z</time>
      </trkpt>
      <trkpt lat="44.53911" lon="0.67929">
        <ele>96.6</ele>
        <time>2017-01-22T08:23:23.000Z</time>
      </trkpt>
      <trkpt lat="44.53911" lon="0.67933">
        <ele>96.7</ele>
        <time>2017-01-22T08:23:24.000Z</time>
      </trkpt>
      <trkpt lat="44.53912" lon="0.67937">
        <ele>96.8</ele>
        <time>2017-01-22T08:23:25.000Z</time>
      </trkpt>
      <trkpt lat="44.53913" lon="0.6794">
        <ele>96.9</ele>
        <time>2017-01-22T08:23:26.000Z</time>
      </trkpt>
      <trkpt lat="44.53914" lon="0.67944">
        <ele>97.1</ele>
        <time>2017-01-22T08:23:27.000Z</time>
      </trkpt>
      <trkpt lat="44.53914" lon="0.67948">
        <ele>97.2</ele>
        <time>2017-01-22T08:23:28.000Z</time>
      </trkpt>
      <trkpt lat="44.53915" lon="0.67952">
        <ele>97.3</ele>
        <time>2017-01-22T08:23:29.000Z</time>
      </trkpt>
      <trkpt lat="44.53916" lon="0.67956">
        <ele>97.4</ele>
        <time>2017-01-22T08:23:30.000Z</time>
      </trkpt>
      <trkpt lat="44.53916" lon="0.6796">
        <ele>97.6</ele>
        <time>2017-01-22T08:23:31.000Z</time>
      </trkpt>
      <trkpt lat="44.53917" lon="0.67964">
        <ele>97.7</ele>
        <time>2017-01-22T08:23:32.000Z</time>
      </trkpt>
      <trkpt lat="44.53917" lon="0.67968">
        <ele>97.8</ele>
        <time>2017-01-22T08:23:33.000Z</time>
      </trkpt>
      <trkpt lat="44.53918" lon="0.67972">
        <ele>98</ele>
        <time>2017-01-22T08:23:34.000Z</time>
      </trkpt>
      <trkpt lat="44.53918" lon="0.67976">
        <ele>98.1</ele>
        <time>2017-01-22T08:23:35.000Z</time>
      </trkpt>
      <trkpt lat="44.53918" lon="0.6798">
        <ele>98.3</ele>
        <time>2017-01-22T08:23:36.000Z</time>
      </trkpt>
      <trkpt lat="44.53919" lon="0.67985">
        <ele>98.4</ele>
        <time>2017-01-22T08:23:37.000Z</time>
      </trkpt>
      <trkpt lat="44.53919" lon="0.67989">
        <ele>98.5</ele>
        <time>2017-01-22T08:23:38.000Z</time>
      </trkpt>
      <trkpt lat="44.53919" lon="0.67993">
        <ele>98.7</ele>
        <time>2017-01-22T08:23:39.000Z</time>
      </trkpt>
      <trkpt lat="44.5392" lon="0.67997">
        <ele>98.8</ele>
        <time>2017-01-22T08:23:40.000Z</time>
      </trkpt>
      <trkpt lat="44.5392" lon="0.68002">
        <ele>99</ele>
        <time>2017-01-22T08:23:41.000Z</time>
      </trkpt>
      <trkpt lat="44.53921" lon="0.68006">
        <ele>99</ele>
        <time>2017-01-22T08:23:42.000Z</time>
      </trkpt>
      <trkpt lat="44.53921" lon="0.68011">
        <ele>99.1</ele>
        <time>2017-01-22T08:23:43.000Z</time>
      </trkpt>
      <trkpt lat="44.53922" lon="0.68015">
        <ele>99.2</ele>
        <time>2017-01-22T08:23:44.000Z</time>
      </trkpt>
      <trkpt lat="44.53922" lon="0.68019">
        <ele>99.3</ele>
        <time>2017-01-22T08:23:45.000Z</time>
      </trkpt>
      <trkpt lat="44.53922" lon="0.68024">
        <ele>99.4</ele>
        <time>2017-01-22T08:23:46.000Z</time>
      </trkpt>
      <trkpt lat="44.53923" lon="0.68029">
        <ele>99.5</ele>
        <time>2017-01-22T08:23:47.000Z</time>
      </trkpt>
      <trkpt lat="44.53923" lon="0.68033">
        <ele>99.6</ele>
        <time>2017-01-22T08:23:48.000Z</time>
      </trkpt>
      <trkpt lat="44.53924" lon="0.68038">
        <ele>99.7</ele>
        <time>2017-01-22T08:23:49.000Z</time>
      </trkpt>
      <trkpt lat="44.53924" lon="0.68042">
        <ele>99.7</ele>
        <time>2017-01-22T08:23:50.000Z</time>
      </trkpt>
      <trkpt lat="44.53924" lon="0.68047">
        <ele>99.8</ele>
        <time>2017-01-22T08:23:51.000Z</time>
      </trkpt>
      <trkpt lat="44.53925" lon="0.68051">
        <ele>99.9</ele>
        <time>2017-01-22T08:23:52.000Z</time>
      </trkpt>
      <trkpt lat="44.53925" lon="0.68056">
        <ele>100</ele>
        <time>2017-01-22T08:23:53.000Z</time>
      </trkpt>
      <trkpt lat="44.53925" lon="0.68061">
        <ele>100.1</ele>
        <time>2017-01-22T08:23:54.000Z</time>
      </trkpt>
      <trkpt lat="44.53925" lon="0.68065">
        <ele>100.2</ele>
        <time>2017-01-22T08:23:55.000Z</time>
      </trkpt>
      <trkpt lat="44.53926" lon="0.68069">
        <ele>100.3</ele>
        <time>2017-01-22T08:23:56.000Z</time>
      </trkpt>
      <trkpt lat="44.53926" lon="0.68074">
        <ele>100.4</ele>
        <time>2017-01-22T08:23:57.000Z</time>
      </trkpt>
      <trkpt lat="44.53926" lon="0.68078">
        <ele>100.4</ele>
        <time>2017-01-22T08:23:58.000Z</time>
      </trkpt>
      <trkpt lat="44.53927" lon="0.68083">
        <ele>100.5</ele>
        <time>2017-01-22T08:23:59.000Z</time>
      </trkpt>
      <trkpt lat="44.53927" lon="0.68087">
        <ele>100.5</ele>
        <time>2017-01-22T08:24:00.000Z</time>
      </trkpt>
      <trkpt lat="44.53928" lon="0.68091">
        <ele>100.4</ele>
        <time>2017-01-22T08:24:01.000Z</time>
      </trkpt>
      <trkpt lat="44.53928" lon="0.68095">
        <ele>100.4</ele>
        <time>2017-01-22T08:24:02.000Z</time>
      </trkpt>
      <trkpt lat="44.53928" lon="0.68099">
        <ele>100.4</ele>
        <time>2017-01-22T08:24:03.000Z</time>
      </trkpt>
      <trkpt lat="44.53929" lon="0.68102">
        <ele>100.3</ele>
        <time>2017-01-22T08:24:04.000Z</time>
      </trkpt>
      <trkpt lat="44.53929" lon="0.68105">
        <ele>100.3</ele>
        <time>2017-01-22T08:24:05.000Z</time>
      </trkpt>
      <trkpt lat="44.5393" lon="0.68109">
        <ele>100.2</ele>
        <time>2017-01-22T08:24:06.000Z</time>
      </trkpt>
      <trkpt lat="44.5393" lon="0.68112">
        <ele>100.2</ele>
        <time>2017-01-22T08:24:07.000Z</time>
      </trkpt>
      <trkpt lat="44.5393" lon="0.68115">
        <ele>100.2</ele>
        <time>2017-01-22T08:24:08.000Z</time>
      </trkpt>
      <trkpt lat="44.5393" lon="0.68118">
        <ele>100.2</ele>
        <time>2017-01-22T08:24:09.000Z</time>
      </trkpt>
      <trkpt lat="44.5393" lon="0.68122">
        <ele>100.1</ele>
        <time>2017-01-22T08:24:10.000Z</time>
      </trkpt>
      <trkpt lat="44.5393" lon="0.68125">
        <ele>100.1</ele>
        <time>2017-01-22T08:24:11.000Z</time>
      </trkpt>
      <trkpt lat="44.5393" lon="0.68129">
        <ele>100.1</ele>
        <time>2017-01-22T08:24:12.000Z</time>
      </trkpt>
      <trkpt lat="44.5393" lon="0.68133">
        <ele>100.1</ele>
        <time>2017-01-22T08:24:13.000Z</time>
      </trkpt>
      <trkpt lat="44.5393" lon="0.68137">
        <ele>100.1</ele>
        <time>2017-01-22T08:24:14.000Z</time>
      </trkpt>
      <trkpt lat="44.5393" lon="0.68141">
        <ele>100</ele>
        <time>2017-01-22T08:24:15.000Z</time>
      </trkpt>
      <trkpt lat="44.5393" lon="0.68144">
        <ele>100</ele>
        <time>2017-01-22T08:24:16.000Z</time>
      </trkpt>
      <trkpt lat="44.5393" lon="0.68148">
        <ele>100</ele>
        <time>2017-01-22T08:24:17.000Z</time>
      </trkpt>
      <trkpt lat="44.5393" lon="0.68152">
        <ele>100</ele>
        <time>2017-01-22T08:24:18.000Z</time>
      </trkpt>
      <trkpt lat="44.5393" lon="0.68156">
        <ele>100</ele>
        <time>2017-01-22T08:24:19.000Z</time>
      </trkpt>
      <trkpt lat="44.53929" lon="0.6816">
        <ele>100</ele>
        <time>2017-01-22T08:24:20.000Z</time>
      </trkpt>
      <trkpt lat="44.53929" lon="0.68164">
        <ele>100</ele>
        <time>2017-01-22T08:24:21.000Z</time>
      </trkpt>
      <trkpt lat="44.53929" lon="0.68169">
        <ele>100</ele>
        <time>2017-01-22T08:24:22.000Z</time>
      </trkpt>
      <trkpt lat="44.53929" lon="0.68173">
        <ele>100</ele>
        <time>2017-01-22T08:24:23.000Z</time>
      </trkpt>
      <trkpt lat="44.53929" lon="0.68177">
        <ele>100.1</ele>
        <time>2017-01-22T08:24:24.000Z</time>
      </trkpt>
      <trkpt lat="44.53929" lon="0.68182">
        <ele>100.1</ele>
        <time>2017-01-22T08:24:25.000Z</time>
      </trkpt>
      <trkpt lat="44.53929" lon="0.68186">
        <ele>100.1</ele>
        <time>2017-01-22T08:24:26.000Z</time>
      </trkpt>
      <trkpt lat="44.53929" lon="0.68191">
        <ele>100.2</ele>
        <time>2017-01-22T08:24:27.000Z</time>
      </trkpt>
      <trkpt lat="44.53929" lon="0.68195">
        <ele>100.2</ele>
        <time>2017-01-22T08:24:28.000Z</time>
      </trkpt>
      <trkpt lat="44.53929" lon="0.68199">
        <ele>100.3</ele>
        <time>2017-01-22T08:24:29.000Z</time>
      </trkpt>
      <trkpt lat="44.53929" lon="0.68203">
        <ele>100.3</ele>
        <time>2017-01-22T08:24:30.000Z</time>
      </trkpt>
      <trkpt lat="44.53928" lon="0.68207">
        <ele>100.4</ele>
        <time>2017-01-22T08:24:31.000Z</time>
      </trkpt>
      <trkpt lat="44.53928" lon="0.68211">
        <ele>100.4</ele>
        <time>2017-01-22T08:24:32.000Z</time>
      </trkpt>
      <trkpt lat="44.53928" lon="0.68215">
        <ele>100.4</ele>
        <time>2017-01-22T08:24:33.000Z</time>
      </trkpt>
      <trkpt lat="44.53928" lon="0.68219">
        <ele>100.5</ele>
        <time>2017-01-22T08:24:34.000Z</time>
      </trkpt>
      <trkpt lat="44.53928" lon="0.68223">
        <ele>100.6</ele>
        <time>2017-01-22T08:24:35.000Z</time>
      </trkpt>
      <trkpt lat="44.53928" lon="0.68227">
        <ele>100.6</ele>
        <time>2017-01-22T08:24:36.000Z</time>
      </trkpt>
      <trkpt lat="44.53927" lon="0.68231">
        <ele>100.7</ele>
        <time>2017-01-22T08:24:37.000Z</time>
      </trkpt>
      <trkpt lat="44.53927" lon="0.68235">
        <ele>100.8</ele>
        <time>2017-01-22T08:24:38.000Z</time>
      </trkpt>
      <trkpt lat="44.53927" lon="0.6824">
        <ele>100.8</ele>
        <time>2017-01-22T08:24:39.000Z</time>
      </trkpt>
      <trkpt lat="44.53926" lon="0.68245">
        <ele>100.9</ele>
        <time>2017-01-22T08:24:40.000Z</time>
      </trkpt>
      <trkpt lat="44.53926" lon="0.68249">
        <ele>101</ele>
        <time>2017-01-22T08:24:41.000Z</time>
      </trkpt>
      <trkpt lat="44.53926" lon="0.68254">
        <ele>100.9</ele>
        <time>2017-01-22T08:24:42.000Z</time>
      </trkpt>
      <trkpt lat="44.53926" lon="0.68259">
        <ele>100.8</ele>
        <time>2017-01-22T08:24:43.000Z</time>
      </trkpt>
      <trkpt lat="44.53925" lon="0.68264">
        <ele>100.6</ele>
        <time>2017-01-22T08:24:44.000Z</time>
      </trkpt>
      <trkpt lat="44.53925" lon="0.68268">
        <ele>100.5</ele>
        <time>2017-01-22T08:24:45.000Z</time>
      </trkpt>
      <trkpt lat="44.53925" lon="0.68273">
        <ele>100.4</ele>
        <time>2017-01-22T08:24:46.000Z</time>
      </trkpt>
      <trkpt lat="44.53925" lon="0.68278">
        <ele>100.2</ele>
        <time>2017-01-22T08:24:47.000Z</time>
      </trkpt>
      <trkpt lat="44.53924" lon="0.68282">
        <ele>100.1</ele>
        <time>2017-01-22T08:24:48.000Z</time>
      </trkpt>
      <trkpt lat="44.53924" lon="0.68287">
        <ele>100</ele>
        <time>2017-01-22T08:24:49.000Z</time>
      </trkpt>
      <trkpt lat="44.53924" lon="0.68291">
        <ele>99.8</ele>
        <time>2017-01-22T08:24:50.000Z</time>
      </trkpt>
      <trkpt lat="44.53924" lon="0.68295">
        <ele>99.7</ele>
        <time>2017-01-22T08:24:51.000Z</time>
      </trkpt>
      <trkpt lat="44.53923" lon="0.683">
        <ele>99.6</ele>
        <time>2017-01-22T08:24:52.000Z</time>
      </trkpt>
      <trkpt lat="44.53923" lon="0.68304">
        <ele>99.4</ele>
        <time>2017-01-22T08:24:53.000Z</time>
      </trkpt>
      <trkpt lat="44.53923" lon="0.68309">
        <ele>99.3</ele>
        <time>2017-01-22T08:24:54.000Z</time>
      </trkpt>
      <trkpt lat="44.53923" lon="0.68313">
        <ele>99.2</ele>
        <time>2017-01-22T08:24:55.000Z</time>
      </trkpt>
      <trkpt lat="44.53923" lon="0.68318">
        <ele>99</ele>
        <time>2017-01-22T08:24:56.000Z</time>
      </trkpt>
      <trkpt lat="44.53923" lon="0.68323">
        <ele>98.9</ele>
        <time>2017-01-22T08:24:57.000Z</time>
      </trkpt>
      <trkpt lat="44.53922" lon="0.68328">
        <ele>98.7</ele>
        <time>2017-01-22T08:24:58.000Z</time>
      </trkpt>
      <trkpt lat="44.53922" lon="0.68334">
        <ele>98.5</ele>
        <time>2017-01-22T08:24:59.000Z</time>
      </trkpt>
      <trkpt lat="44.53922" lon="0.68339">
        <ele>98.4</ele>
        <time>2017-01-22T08:25:00.000Z</time>
      </trkpt>
      <trkpt lat="44.53921" lon="0.68345">
        <ele>98.3</ele>
        <time>2017-01-22T08:25:01.000Z</time>
      </trkpt>
      <trkpt lat="44.53921" lon="0.68351">
        <ele>98.3</ele>
        <time>2017-01-22T08:25:02.000Z</time>
      </trkpt>
      <trkpt lat="44.5392" lon="0.68357">
        <ele>98.2</ele>
        <time>2017-01-22T08:25:03.000Z</time>
      </trkpt>
      <trkpt lat="44.5392" lon="0.68364">
        <ele>98.1</ele>
        <time>2017-01-22T08:25:04.000Z</time>
      </trkpt>
      <trkpt lat="44.53919" lon="0.6837">
        <ele>97.9</ele>
        <time>2017-01-22T08:25:05.000Z</time>
      </trkpt>
      <trkpt lat="44.53919" lon="0.68376">
        <ele>97.8</ele>
        <time>2017-01-22T08:25:06.000Z</time>
      </trkpt>
      <trkpt lat="44.53918" lon="0.68383">
        <ele>97.7</ele>
        <time>2017-01-22T08:25:07.000Z</time>
      </trkpt>
      <trkpt lat="44.53918" lon="0.6839">
        <ele>97.6</ele>
        <time>2017-01-22T08:25:08.000Z</time>
      </trkpt>
      <trkpt lat="44.53917" lon="0.68396">
        <ele>97.5</ele>
        <time>2017-01-22T08:25:09.000Z</time>
      </trkpt>
      <trkpt lat="44.53917" lon="0.68403">
        <ele>97.3</ele>
        <time>2017-01-22T08:25:10.000Z</time>
      </trkpt>
      <trkpt lat="44.53916" lon="0.68409">
        <ele>97.2</ele>
        <time>2017-01-22T08:25:11.000Z</time>
      </trkpt>
      <trkpt lat="44.53916" lon="0.68415">
        <ele>97.1</ele>
        <time>2017-01-22T08:25:12.000Z</time>
      </trkpt>
      <trkpt lat="44.53916" lon="0.68422">
        <ele>97</ele>
        <time>2017-01-22T08:25:13.000Z</time>
      </trkpt>
      <trkpt lat="44.53916" lon="0.68428">
        <ele>97.1</ele>
        <time>2017-01-22T08:25:14.000Z</time>
      </trkpt>
      <trkpt lat="44.53915" lon="0.68435">
        <ele>97.1</ele>
        <time>2017-01-22T08:25:15.000Z</time>
      </trkpt>
      <trkpt lat="44.53915" lon="0.68441">
        <ele>97.1</ele>
        <time>2017-01-22T08:25:16.000Z</time>
      </trkpt>
      <trkpt lat="44.53914" lon="0.68448">
        <ele>97.1</ele>
        <time>2017-01-22T08:25:17.000Z</time>
      </trkpt>
      <trkpt lat="44.53914" lon="0.68454">
        <ele>97.1</ele>
        <time>2017-01-22T08:25:18.000Z</time>
      </trkpt>
      <trkpt lat="44.53913" lon="0.6846">
        <ele>97.1</ele>
        <time>2017-01-22T08:25:19.000Z</time>
      </trkpt>
      <trkpt lat="44.53913" lon="0.68466">
        <ele>97.2</ele>
        <time>2017-01-22T08:25:20.000Z</time>
      </trkpt>
      <trkpt lat="44.53913" lon="0.68472">
        <ele>97.2</ele>
        <time>2017-01-22T08:25:21.000Z</time>
      </trkpt>
      <trkpt lat="44.53912" lon="0.68478">
        <ele>97.2</ele>
        <time>2017-01-22T08:25:22.000Z</time>
      </trkpt>
      <trkpt lat="44.53912" lon="0.68484">
        <ele>97.2</ele>
        <time>2017-01-22T08:25:23.000Z</time>
      </trkpt>
      <trkpt lat="44.53912" lon="0.6849">
        <ele>97.2</ele>
        <time>2017-01-22T08:25:24.000Z</time>
      </trkpt>
      <trkpt lat="44.53912" lon="0.68495">
        <ele>97.2</ele>
        <time>2017-01-22T08:25:25.000Z</time>
      </trkpt>
      <trkpt lat="44.53912" lon="0.685">
        <ele>97.2</ele>
        <time>2017-01-22T08:25:26.000Z</time>
      </trkpt>
      <trkpt lat="44.53912" lon="0.68506">
        <ele>97.3</ele>
        <time>2017-01-22T08:25:27.000Z</time>
      </trkpt>
      <trkpt lat="44.53912" lon="0.6851">
        <ele>97.4</ele>
        <time>2017-01-22T08:25:28.000Z</time>
      </trkpt>
      <trkpt lat="44.53911" lon="0.68515">
        <ele>97.5</ele>
        <time>2017-01-22T08:25:29.000Z</time>
      </trkpt>
      <trkpt lat="44.53911" lon="0.68519">
        <ele>97.7</ele>
        <time>2017-01-22T08:25:30.000Z</time>
      </trkpt>
      <trkpt lat="44.53911" lon="0.68524">
        <ele>97.8</ele>
        <time>2017-01-22T08:25:31.000Z</time>
      </trkpt>
      <trkpt lat="44.53911" lon="0.68528">
        <ele>97.9</ele>
        <time>2017-01-22T08:25:32.000Z</time>
      </trkpt>
      <trkpt lat="44.5391" lon="0.68532">
        <ele>98</ele>
        <time>2017-01-22T08:25:33.000Z</time>
      </trkpt>
      <trkpt lat="44.5391" lon="0.68536">
        <ele>98.1</ele>
        <time>2017-01-22T08:25:34.000Z</time>
      </trkpt>
      <trkpt lat="44.53909" lon="0.68539">
        <ele>98.2</ele>
        <time>2017-01-22T08:25:35.000Z</time>
      </trkpt>
      <trkpt lat="44.53907" lon="0.68542">
        <ele>98.3</ele>
        <time>2017-01-22T08:25:36.000Z</time>
      </trkpt>
      <trkpt lat="44.53906" lon="0.68544">
        <ele>98.4</ele>
        <time>2017-01-22T08:25:37.000Z</time>
      </trkpt>
      <trkpt lat="44.53904" lon="0.68545">
        <ele>98.6</ele>
        <time>2017-01-22T08:25:38.000Z</time>
      </trkpt>
      <trkpt lat="44.53901" lon="0.68545">
        <ele>98.7</ele>
        <time>2017-01-22T08:25:39.000Z</time>
      </trkpt>
      <trkpt lat="44.53898" lon="0.68545">
        <ele>98.8</ele>
        <time>2017-01-22T08:25:40.000Z</time>
      </trkpt>
      <trkpt lat="44.53895" lon="0.68545">
        <ele>98.9</ele>
        <time>2017-01-22T08:25:41.000Z</time>
      </trkpt>
      <trkpt lat="44.53892" lon="0.68544">
        <ele>99</ele>
        <time>2017-01-22T08:25:42.000Z</time>
      </trkpt>
      <trkpt lat="44.53888" lon="0.68543">
        <ele>99.1</ele>
        <time>2017-01-22T08:25:43.000Z</time>
      </trkpt>
      <trkpt lat="44.53885" lon="0.68542">
        <ele>99.2</ele>
        <time>2017-01-22T08:25:44.000Z</time>
      </trkpt>
      <trkpt lat="44.53881" lon="0.68541">
        <ele>99.3</ele>
        <time>2017-01-22T08:25:45.000Z</time>
      </trkpt>
      <trkpt lat="44.53878" lon="0.68541">
        <ele>99.4</ele>
        <time>2017-01-22T08:25:46.000Z</time>
      </trkpt>
      <trkpt lat="44.53874" lon="0.6854">
        <ele>99.5</ele>
        <time>2017-01-22T08:25:47.000Z</time>
      </trkpt>
      <trkpt lat="44.53871" lon="0.68541">
        <ele>99.6</ele>
        <time>2017-01-22T08:25:48.000Z</time>
      </trkpt>
      <trkpt lat="44.53868" lon="0.68541">
        <ele>99.8</ele>
        <time>2017-01-22T08:25:49.000Z</time>
      </trkpt>
      <trkpt lat="44.53865" lon="0.68543">
        <ele>99.9</ele>
        <time>2017-01-22T08:25:50.000Z</time>
      </trkpt>
      <trkpt lat="44.53863" lon="0.68546">
        <ele>100</ele>
        <time>2017-01-22T08:25:51.000Z</time>
      </trkpt>
      <trkpt lat="44.53861" lon="0.68549">
        <ele>100.2</ele>
        <time>2017-01-22T08:25:52.000Z</time>
      </trkpt>
      <trkpt lat="44.5386" lon="0.68554">
        <ele>100.3</ele>
        <time>2017-01-22T08:25:53.000Z</time>
      </trkpt>
      <trkpt lat="44.53859" lon="0.68558">
        <ele>100.5</ele>
        <time>2017-01-22T08:25:54.000Z</time>
      </trkpt>
      <trkpt lat="44.53857" lon="0.68562">
        <ele>100.6</ele>
        <time>2017-01-22T08:25:55.000Z</time>
      </trkpt>
      <trkpt lat="44.53855" lon="0.68566">
        <ele>100.8</ele>
        <time>2017-01-22T08:25:56.000Z</time>
      </trkpt>
      <trkpt lat="44.53852" lon="0.6857">
        <ele>101</ele>
        <time>2017-01-22T08:25:57.000Z</time>
      </trkpt>
      <trkpt lat="44.5385" lon="0.68573">
        <ele>101.2</ele>
        <time>2017-01-22T08:25:58.000Z</time>
      </trkpt>
      <trkpt lat="44.53847" lon="0.68576">
        <ele>101.3</ele>
        <time>2017-01-22T08:25:59.000Z</time>
      </trkpt>
      <trkpt lat="44.53844" lon="0.68579">
        <ele>101.5</ele>
        <time>2017-01-22T08:26:00.000Z</time>
      </trkpt>
      <trkpt lat="44.53841" lon="0.68582">
        <ele>101.7</ele>
        <time>2017-01-22T08:26:01.000Z</time>
      </trkpt>
      <trkpt lat="44.53838" lon="0.68585">
        <ele>101.8</ele>
        <time>2017-01-22T08:26:02.000Z</time>
      </trkpt>
      <trkpt lat="44.53834" lon="0.68587">
        <ele>101.9</ele>
        <time>2017-01-22T08:26:03.000Z</time>
      </trkpt>
      <trkpt lat="44.53831" lon="0.68589">
        <ele>102</ele>
        <time>2017-01-22T08:26:04.000Z</time>
      </trkpt>
      <trkpt lat="44.53828" lon="0.68591">
        <ele>102.1</ele>
        <time>2017-01-22T08:26:05.000Z</time>
      </trkpt>
      <trkpt lat="44.53824" lon="0.68593">
        <ele>102.2</ele>
        <time>2017-01-22T08:26:06.000Z</time>
      </trkpt>
      <trkpt lat="44.5382" lon="0.68595">
        <ele>102.3</ele>
        <time>2017-01-22T08:26:07.000Z</time>
      </trkpt>
      <trkpt lat="44.53816" lon="0.68597">
        <ele>102.4</ele>
        <time>2017-01-22T08:26:08.000Z</time>
      </trkpt>
      <trkpt lat="44.53812" lon="0.686">
        <ele>102.5</ele>
        <time>2017-01-22T08:26:09.000Z</time>
      </trkpt>
      <trkpt lat="44.53808" lon="0.68602">
        <ele>102.5</ele>
        <time>2017-01-22T08:26:10.000Z</time>
      </trkpt>
      <trkpt lat="44.53804" lon="0.68605">
        <ele>102.6</ele>
        <time>2017-01-22T08:26:11.000Z</time>
      </trkpt>
      <trkpt lat="44.538" lon="0.68607">
        <ele>102.7</ele>
        <time>2017-01-22T08:26:12.000Z</time>
      </trkpt>
      <trkpt lat="44.53797" lon="0.6861">
        <ele>102.7</ele>
        <time>2017-01-22T08:26:13.000Z</time>
      </trkpt>
      <trkpt lat="44.53793" lon="0.68612">
        <ele>102.8</ele>
        <time>2017-01-22T08:26:14.000Z</time>
      </trkpt>
      <trkpt lat="44.53789" lon="0.68614">
        <ele>102.8</ele>
        <time>2017-01-22T08:26:15.000Z</time>
      </trkpt>
      <trkpt lat="44.53785" lon="0.68617">
        <ele>102.9</ele>
        <time>2017-01-22T08:26:16.000Z</time>
      </trkpt>
      <trkpt lat="44.53782" lon="0.68619">
        <ele>102.9</ele>
        <time>2017-01-22T08:26:17.000Z</time>
      </trkpt>
      <trkpt lat="44.53778" lon="0.68621">
        <ele>102.9</ele>
        <time>2017-01-22T08:26:18.000Z</time>
      </trkpt>
      <trkpt lat="44.53775" lon="0.68623">
        <ele>103</ele>
        <time>2017-01-22T08:26:19.000Z</time>
      </trkpt>
      <trkpt lat="44.53771" lon="0.68625">
        <ele>103</ele>
        <time>2017-01-22T08:26:20.000Z</time>
      </trkpt>
      <trkpt lat="44.53768" lon="0.68628">
        <ele>103</ele>
        <time>2017-01-22T08:26:21.000Z</time>
      </trkpt>
      <trkpt lat="44.53765" lon="0.6863">
        <ele>103</ele>
        <time>2017-01-22T08:26:22.000Z</time>
      </trkpt>
      <trkpt lat="44.53761" lon="0.68632">
        <ele>103</ele>
        <time>2017-01-22T08:26:23.000Z</time>
      </trkpt>
      <trkpt lat="44.53758" lon="0.68634">
        <ele>103</ele>
        <time>2017-01-22T08:26:24.000Z</time>
      </trkpt>
      <trkpt lat="44.53755" lon="0.68636">
        <ele>103</ele>
        <time>2017-01-22T08:26:25.000Z</time>
      </trkpt>
      <trkpt lat="44.53752" lon="0.68638">
        <ele>103</ele>
        <time>2017-01-22T08:26:26.000Z</time>
      </trkpt>
      <trkpt lat="44.53749" lon="0.68639">
        <ele>103</ele>
        <time>2017-01-22T08:26:27.000Z</time>
      </trkpt>
      <trkpt lat="44.53746" lon="0.68641">
        <ele>103.2</ele>
        <time>2017-01-22T08:26:28.000Z</time>
      </trkpt>
      <trkpt lat="44.53743" lon="0.68643">
        <ele>103.3</ele>
        <time>2017-01-22T08:26:29.000Z</time>
      </trkpt>
      <trkpt lat="44.5374" lon="0.68644">
        <ele>103.4</ele>
        <time>2017-01-22T08:26:30.000Z</time>
      </trkpt>
      <trkpt lat="44.53738" lon="0.68645">
        <ele>103.5</ele>
        <time>2017-01-22T08:26:31.000Z</time>
      </trkpt>
      <trkpt lat="44.53735" lon="0.68646">
        <ele>103.6</ele>
        <time>2017-01-22T08:26:32.000Z</time>
      </trkpt>
      <trkpt lat="44.53733" lon="0.68647">
        <ele>103.6</ele>
        <time>2017-01-22T08:26:33.000Z</time>
      </trkpt>
      <trkpt lat="44.53732" lon="0.68649">
        <ele>103.7</ele>
        <time>2017-01-22T08:26:34.000Z</time>
      </trkpt>
      <trkpt lat="44.53731" lon="0.68651">
        <ele>103.6</ele>
        <time>2017-01-22T08:26:35.000Z</time>
      </trkpt>
      <trkpt lat="44.53731" lon="0.68653">
        <ele>103.5</ele>
        <time>2017-01-22T08:26:36.000Z</time>
      </trkpt>
      <trkpt lat="44.53731" lon="0.68656">
        <ele>103.4</ele>
        <time>2017-01-22T08:26:37.000Z</time>
      </trkpt>
      <trkpt lat="44.53731" lon="0.68659">
        <ele>103.2</ele>
        <time>2017-01-22T08:26:38.000Z</time>
      </trkpt>
      <trkpt lat="44.53732" lon="0.68662">
        <ele>103.1</ele>
        <time>2017-01-22T08:26:39.000Z</time>
      </trkpt>
      <trkpt lat="44.53733" lon="0.68666">
        <ele>102.9</ele>
        <time>2017-01-22T08:26:40.000Z</time>
      </trkpt>
      <trkpt lat="44.53734" lon="0.68669">
        <ele>102.7</ele>
        <time>2017-01-22T08:26:41.000Z</time>
      </trkpt>
      <trkpt lat="44.53735" lon="0.68672">
        <ele>102.6</ele>
        <time>2017-01-22T08:26:42.000Z</time>
      </trkpt>
      <trkpt lat="44.53736" lon="0.68676">
        <ele>102.5</ele>
        <time>2017-01-22T08:26:43.000Z</time>
      </trkpt>
      <trkpt lat="44.53736" lon="0.6868">
        <ele>102.5</ele>
        <time>2017-01-22T08:26:44.000Z</time>
      </trkpt>
      <trkpt lat="44.53736" lon="0.68684">
        <ele>102.4</ele>
        <time>2017-01-22T08:26:45.000Z</time>
      </trkpt>
      <trkpt lat="44.53734" lon="0.68687">
        <ele>102.4</ele>
        <time>2017-01-22T08:26:46.000Z</time>
      </trkpt>
      <trkpt lat="44.53731" lon="0.68688">
        <ele>102.5</ele>
        <time>2017-01-22T08:26:47.000Z</time>
      </trkpt>
      <trkpt lat="44.53728" lon="0.68688">
        <ele>102.7</ele>
        <time>2017-01-22T08:26:48.000Z</time>
      </trkpt>
      <trkpt lat="44.53725" lon="0.68688">
        <ele>102.8</ele>
        <time>2017-01-22T08:26:49.000Z</time>
      </trkpt>
      <trkpt lat="44.53722" lon="0.68688">
        <ele>102.9</ele>
        <time>2017-01-22T08:26:50.000Z</time>
      </trkpt>
      <trkpt lat="44.53719" lon="0.68689">
        <ele>103</ele>
        <time>2017-01-22T08:26:51.000Z</time>
      </trkpt>
      <trkpt lat="44.53716" lon="0.68689">
        <ele>103.1</ele>
        <time>2017-01-22T08:26:52.000Z</time>
      </trkpt>
      <trkpt lat="44.53713" lon="0.6869">
        <ele>103.3</ele>
        <time>2017-01-22T08:26:53.000Z</time>
      </trkpt>
      <trkpt lat="44.5371" lon="0.6869">
        <ele>103.4</ele>
        <time>2017-01-22T08:26:54.000Z</time>
      </trkpt>
      <trkpt lat="44.53707" lon="0.68691">
        <ele>103.5</ele>
        <time>2017-01-22T08:26:55.000Z</time>
      </trkpt>
      <trkpt lat="44.53704" lon="0.68692">
        <ele>103.6</ele>
        <time>2017-01-22T08:26:56.000Z</time>
      </trkpt>
      <trkpt lat="44.53701" lon="0.68693">
        <ele>103.7</ele>
        <time>2017-01-22T08:26:57.000Z</time>
      </trkpt>
      <trkpt lat="44.53697" lon="0.68694">
        <ele>103.8</ele>
        <time>2017-01-22T08:26:58.000Z</time>
      </trkpt>
      <trkpt lat="44.53694" lon="0.68694">
        <ele>103.9</ele>
        <time>2017-01-22T08:26:59.000Z</time>
      </trkpt>
      <trkpt lat="44.53691" lon="0.68695">
        <ele>104</ele>
        <time>2017-01-22T08:27:00.000Z</time>
      </trkpt>
      <trkpt lat="44.53687" lon="0.68696">
        <ele>104.1</ele>
        <time>2017-01-22T08:27:01.000Z</time>
      </trkpt>
      <trkpt lat="44.53684" lon="0.68697">
        <ele>104.2</ele>
        <time>2017-01-22T08:27:02.000Z</time>
      </trkpt>
      <trkpt lat="44.5368" lon="0.68698">
        <ele>104.4</ele>
        <time>2017-01-22T08:27:03.000Z</time>
      </trkpt>
      <trkpt lat="44.53676" lon="0.68699">
        <ele>104.5</ele>
        <time>2017-01-22T08:27:04.000Z</time>
      </trkpt>
      <trkpt lat="44.53673" lon="0.68699">
        <ele>104.6</ele>
        <time>2017-01-22T08:27:05.000Z</time>
      </trkpt>
      <trkpt lat="44.53669" lon="0.687">
        <ele>104.7</ele>
        <time>2017-01-22T08:27:06.000Z</time>
      </trkpt>
      <trkpt lat="44.53665" lon="0.68701">
        <ele>104.9</ele>
        <time>2017-01-22T08:27:07.000Z</time>
      </trkpt>
      <trkpt lat="44.53661" lon="0.68701">
        <ele>105</ele>
        <time>2017-01-22T08:27:08.000Z</time>
      </trkpt>
      <trkpt lat="44.53657" lon="0.68702">
        <ele>105.1</ele>
        <time>2017-01-22T08:27:09.000Z</time>
      </trkpt>
      <trkpt lat="44.53653" lon="0.68702">
        <ele>105.3</ele>
        <time>2017-01-22T08:27:10.000Z</time>
      </trkpt>
      <trkpt lat="44.53649" lon="0.68703">
        <ele>105.5</ele>
        <time>2017-01-22T08:27:11.000Z</time>
      </trkpt>
      <trkpt lat="44.53645" lon="0.68703">
        <ele>105.6</ele>
        <time>2017-01-22T08:27:12.000Z</time>
      </trkpt>
      <trkpt lat="44.53641" lon="0.68704">
        <ele>105.8</ele>
        <time>2017-01-22T08:27:13.000Z</time>
      </trkpt>
      <trkpt lat="44.53637" lon="0.68704">
        <ele>105.9</ele>
        <time>2017-01-22T08:27:14.000Z</time>
      </trkpt>
      <trkpt lat="44.53633" lon="0.68704">
        <ele>106.1</ele>
        <time>2017-01-22T08:27:15.000Z</time>
      </trkpt>
      <trkpt lat="44.53629" lon="0.68704">
        <ele>106.3</ele>
        <time>2017-01-22T08:27:16.000Z</time>
      </trkpt>
      <trkpt lat="44.53625" lon="0.68704">
        <ele>106.4</ele>
        <time>2017-01-22T08:27:17.000Z</time>
      </trkpt>
      <trkpt lat="44.53621" lon="0.68704">
        <ele>106.6</ele>
        <time>2017-01-22T08:27:18.000Z</time>
      </trkpt>
      <trkpt lat="44.53617" lon="0.68704">
        <ele>106.8</ele>
        <time>2017-01-22T08:27:19.000Z</time>
      </trkpt>
      <trkpt lat="44.53613" lon="0.68704">
        <ele>106.9</ele>
        <time>2017-01-22T08:27:20.000Z</time>
      </trkpt>
      <trkpt lat="44.53609" lon="0.68705">
        <ele>107.1</ele>
        <time>2017-01-22T08:27:21.000Z</time>
      </trkpt>
      <trkpt lat="44.53605" lon="0.68705">
        <ele>107.2</ele>
        <time>2017-01-22T08:27:22.000Z</time>
      </trkpt>
      <trkpt lat="44.53601" lon="0.68706">
        <ele>107.4</ele>
        <time>2017-01-22T08:27:23.000Z</time>
      </trkpt>
      <trkpt lat="44.53597" lon="0.68707">
        <ele>107.5</ele>
        <time>2017-01-22T08:27:24.000Z</time>
      </trkpt>
      <trkpt lat="44.53593" lon="0.68708">
        <ele>107.6</ele>
        <time>2017-01-22T08:27:25.000Z</time>
      </trkpt>
      <trkpt lat="44.5359" lon="0.6871">
        <ele>107.7</ele>
        <time>2017-01-22T08:27:26.000Z</time>
      </trkpt>
      <trkpt lat="44.53586" lon="0.68711">
        <ele>107.8</ele>
        <time>2017-01-22T08:27:27.000Z</time>
      </trkpt>
      <trkpt lat="44.53583" lon="0.68712">
        <ele>107.9</ele>
        <time>2017-01-22T08:27:28.000Z</time>
      </trkpt>
      <trkpt lat="44.53579" lon="0.68713">
        <ele>108.2</ele>
        <time>2017-01-22T08:27:29.000Z</time>
      </trkpt>
      <trkpt lat="44.53576" lon="0.68714">
        <ele>108.6</ele>
        <time>2017-01-22T08:27:30.000Z</time>
      </trkpt>
      <trkpt lat="44.53572" lon="0.68715">
        <ele>108.8</ele>
        <time>2017-01-22T08:27:31.000Z</time>
      </trkpt>
      <trkpt lat="44.53569" lon="0.68717">
        <ele>109.1</ele>
        <time>2017-01-22T08:27:32.000Z</time>
      </trkpt>
      <trkpt lat="44.53566" lon="0.68719">
        <ele>109.4</ele>
        <time>2017-01-22T08:27:33.000Z</time>
      </trkpt>
      <trkpt lat="44.53562" lon="0.6872">
        <ele>109.7</ele>
        <time>2017-01-22T08:27:34.000Z</time>
      </trkpt>
      <trkpt lat="44.53559" lon="0.68722">
        <ele>110</ele>
        <time>2017-01-22T08:27:35.000Z</time>
      </trkpt>
      <trkpt lat="44.53556" lon="0.68723">
        <ele>110.3</ele>
        <time>2017-01-22T08:27:36.000Z</time>
      </trkpt>
      <trkpt lat="44.53553" lon="0.68725">
        <ele>110.5</ele>
        <time>2017-01-22T08:27:37.000Z</time>
      </trkpt>
      <trkpt lat="44.5355" lon="0.68726">
        <ele>110.8</ele>
        <time>2017-01-22T08:27:38.000Z</time>
      </trkpt>
      <trkpt lat="44.53547" lon="0.68727">
        <ele>111.1</ele>
        <time>2017-01-22T08:27:39.000Z</time>
      </trkpt>
      <trkpt lat="44.53544" lon="0.68729">
        <ele>111.3</ele>
        <time>2017-01-22T08:27:40.000Z</time>
      </trkpt>
      <trkpt lat="44.53541" lon="0.6873">
        <ele>111.6</ele>
        <time>2017-01-22T08:27:41.000Z</time>
      </trkpt>
      <trkpt lat="44.53538" lon="0.68732">
        <ele>111.8</ele>
        <time>2017-01-22T08:27:42.000Z</time>
      </trkpt>
      <trkpt lat="44.53535" lon="0.68733">
        <ele>112</ele>
        <time>2017-01-22T08:27:43.000Z</time>
      </trkpt>
      <trkpt lat="44.53532" lon="0.68735">
        <ele>112.3</ele>
        <time>2017-01-22T08:27:44.000Z</time>
      </trkpt>
      <trkpt lat="44.53529" lon="0.68737">
        <ele>112.5</ele>
        <time>2017-01-22T08:27:45.000Z</time>
      </trkpt>
      <trkpt lat="44.53526" lon="0.68738">
        <ele>112.7</ele>
        <time>2017-01-22T08:27:46.000Z</time>
      </trkpt>
      <trkpt lat="44.53524" lon="0.6874">
        <ele>112.9</ele>
        <time>2017-01-22T08:27:47.000Z</time>
      </trkpt>
      <trkpt lat="44.53521" lon="0.68742">
        <ele>113.2</ele>
        <time>2017-01-22T08:27:48.000Z</time>
      </trkpt>
      <trkpt lat="44.53518" lon="0.68744">
        <ele>113.4</ele>
        <time>2017-01-22T08:27:49.000Z</time>
      </trkpt>
      <trkpt lat="44.53514" lon="0.68745">
        <ele>113.7</ele>
        <time>2017-01-22T08:27:50.000Z</time>
      </trkpt>
      <trkpt lat="44.53511" lon="0.68745">
        <ele>114</ele>
        <time>2017-01-22T08:27:51.000Z</time>
      </trkpt>
      <trkpt lat="44.53508" lon="0.68745">
        <ele>114.4</ele>
        <time>2017-01-22T08:27:52.000Z</time>
      </trkpt>
      <trkpt lat="44.53506" lon="0.68743">
        <ele>114.7</ele>
        <time>2017-01-22T08:27:53.000Z</time>
      </trkpt>
      <trkpt lat="44.53503" lon="0.68741">
        <ele>115.1</ele>
        <time>2017-01-22T08:27:54.000Z</time>
      </trkpt>
      <trkpt lat="44.535" lon="0.68738">
        <ele>115.5</ele>
        <time>2017-01-22T08:27:55.000Z</time>
      </trkpt>
      <trkpt lat="44.53498" lon="0.68736">
        <ele>116</ele>
        <time>2017-01-22T08:27:56.000Z</time>
      </trkpt>
      <trkpt lat="44.53496" lon="0.68733">
        <ele>116.4</ele>
        <time>2017-01-22T08:27:57.000Z</time>
      </trkpt>
      <trkpt lat="44.53494" lon="0.68729">
        <ele>116.9</ele>
        <time>2017-01-22T08:27:58.000Z</time>
      </trkpt>
      <trkpt lat="44.53492" lon="0.68726">
        <ele>117.3</ele>
        <time>2017-01-22T08:27:59.000Z</time>
      </trkpt>
      <trkpt lat="44.5349" lon="0.68723">
        <ele>117.7</ele>
        <time>2017-01-22T08:28:00.000Z</time>
      </trkpt>
      <trkpt lat="44.53487" lon="0.6872">
        <ele>118.1</ele>
        <time>2017-01-22T08:28:01.000Z</time>
      </trkpt>
      <trkpt lat="44.53485" lon="0.68717">
        <ele>118.5</ele>
        <time>2017-01-22T08:28:02.000Z</time>
      </trkpt>
      <trkpt lat="44.53483" lon="0.68714">
        <ele>118.9</ele>
        <time>2017-01-22T08:28:03.000Z</time>
      </trkpt>
      <trkpt lat="44.53481" lon="0.68711">
        <ele>119.3</ele>
        <time>2017-01-22T08:28:04.000Z</time>
      </trkpt>
      <trkpt lat="44.53479" lon="0.68708">
        <ele>119.6</ele>
        <time>2017-01-22T08:28:05.000Z</time>
      </trkpt>
      <trkpt lat="44.53477" lon="0.68706">
        <ele>120</ele>
        <time>2017-01-22T08:28:06.000Z</time>
      </trkpt>
      <trkpt lat="44.53475" lon="0.68703">
        <ele>120.3</ele>
        <time>2017-01-22T08:28:07.000Z</time>
      </trkpt>
      <trkpt lat="44.53473" lon="0.687">
        <ele>120.6</ele>
        <time>2017-01-22T08:28:08.000Z</time>
      </trkpt>
      <trkpt lat="44.53471" lon="0.68697">
        <ele>120.9</ele>
        <time>2017-01-22T08:28:09.000Z</time>
      </trkpt>
      <trkpt lat="44.53469" lon="0.68695">
        <ele>121.2</ele>
        <time>2017-01-22T08:28:10.000Z</time>
      </trkpt>
      <trkpt lat="44.53467" lon="0.68692">
        <ele>121.5</ele>
        <time>2017-01-22T08:28:11.000Z</time>
      </trkpt>
      <trkpt lat="44.53465" lon="0.68689">
        <ele>121.8</ele>
        <time>2017-01-22T08:28:12.000Z</time>
      </trkpt>
      <trkpt lat="44.53463" lon="0.68686">
        <ele>122.1</ele>
        <time>2017-01-22T08:28:13.000Z</time>
      </trkpt>
      <trkpt lat="44.53461" lon="0.68683">
        <ele>122.4</ele>
        <time>2017-01-22T08:28:14.000Z</time>
      </trkpt>
      <trkpt lat="44.53459" lon="0.6868">
        <ele>122.7</ele>
        <time>2017-01-22T08:28:15.000Z</time>
      </trkpt>
      <trkpt lat="44.53457" lon="0.68678">
        <ele>123</ele>
        <time>2017-01-22T08:28:16.000Z</time>
      </trkpt>
      <trkpt lat="44.53454" lon="0.68676">
        <ele>123.3</ele>
        <time>2017-01-22T08:28:17.000Z</time>
      </trkpt>
      <trkpt lat="44.53452" lon="0.68674">
        <ele>123.6</ele>
        <time>2017-01-22T08:28:18.000Z</time>
      </trkpt>
      <trkpt lat="44.53449" lon="0.68673">
        <ele>123.8</ele>
        <time>2017-01-22T08:28:19.000Z</time>
      </trkpt>
      <trkpt lat="44.53446" lon="0.68672">
        <ele>124.1</ele>
        <time>2017-01-22T08:28:20.000Z</time>
      </trkpt>
      <trkpt lat="44.53444" lon="0.68672">
        <ele>124.4</ele>
        <time>2017-01-22T08:28:21.000Z</time>
      </trkpt>
      <trkpt lat="44.53441" lon="0.68672">
        <ele>124.6</ele>
        <time>2017-01-22T08:28:22.000Z</time>
      </trkpt>
      <trkpt lat="44.53439" lon="0.68673">
        <ele>124.9</ele>
        <time>2017-01-22T08:28:23.000Z</time>
      </trkpt>
      <trkpt lat="44.53436" lon="0.68674">
        <ele>125.1</ele>
        <time>2017-01-22T08:28:24.000Z</time>
      </trkpt>
      <trkpt lat="44.53434" lon="0.68675">
        <ele>125.3</ele>
        <time>2017-01-22T08:28:25.000Z</time>
      </trkpt>
      <trkpt lat="44.53432" lon="0.68676">
        <ele>125.5</ele>
        <time>2017-01-22T08:28:26.000Z</time>
      </trkpt>
      <trkpt lat="44.5343" lon="0.68678">
        <ele>125.8</ele>
        <time>2017-01-22T08:28:27.000Z</time>
      </trkpt>
      <trkpt lat="44.53428" lon="0.68679">
        <ele>126</ele>
        <time>2017-01-22T08:28:28.000Z</time>
      </trkpt>
      <trkpt lat="44.53425" lon="0.68681">
        <ele>126.3</ele>
        <time>2017-01-22T08:28:29.000Z</time>
      </trkpt>
      <trkpt lat="44.53423" lon="0.68683">
        <ele>126.5</ele>
        <time>2017-01-22T08:28:30.000Z</time>
      </trkpt>
      <trkpt lat="44.53421" lon="0.68684">
        <ele>126.8</ele>
        <time>2017-01-22T08:28:31.000Z</time>
      </trkpt>
      <trkpt lat="44.53419" lon="0.68686">
        <ele>127</ele>
        <time>2017-01-22T08:28:32.000Z</time>
      </trkpt>
      <trkpt lat="44.53416" lon="0.68688">
        <ele>127.3</ele>
        <time>2017-01-22T08:28:33.000Z</time>
      </trkpt>
      <trkpt lat="44.53414" lon="0.6869">
        <ele>127.5</ele>
        <time>2017-01-22T08:28:34.000Z</time>
      </trkpt>
      <trkpt lat="44.53412" lon="0.68692">
        <ele>127.7</ele>
        <time>2017-01-22T08:28:35.000Z</time>
      </trkpt>
      <trkpt lat="44.53409" lon="0.68694">
        <ele>127.9</ele>
        <time>2017-01-22T08:28:36.000Z</time>
      </trkpt>
      <trkpt lat="44.53407" lon="0.68696">
        <ele>128.1</ele>
        <time>2017-01-22T08:28:37.000Z</time>
      </trkpt>
      <trkpt lat="44.53405" lon="0.68698">
        <ele>128.3</ele>
        <time>2017-01-22T08:28:38.000Z</time>
      </trkpt>
      <trkpt lat="44.53402" lon="0.687">
        <ele>128.5</ele>
        <time>2017-01-22T08:28:39.000Z</time>
      </trkpt>
      <trkpt lat="44.534" lon="0.68702">
        <ele>128.7</ele>
        <time>2017-01-22T08:28:40.000Z</time>
      </trkpt>
      <trkpt lat="44.53398" lon="0.68704">
        <ele>128.9</ele>
        <time>2017-01-22T08:28:41.000Z</time>
      </trkpt>
      <trkpt lat="44.53395" lon="0.68706">
        <ele>129.1</ele>
        <time>2017-01-22T08:28:42.000Z</time>
      </trkpt>
      <trkpt lat="44.53393" lon="0.68708">
        <ele>129.3</ele>
        <time>2017-01-22T08:28:43.000Z</time>
      </trkpt>
      <trkpt lat="44.53391" lon="0.6871">
        <ele>129.6</ele>
        <time>2017-01-22T08:28:44.000Z</time>
      </trkpt>
      <trkpt lat="44.53388" lon="0.68712">
        <ele>129.8</ele>
        <time>2017-01-22T08:28:45.000Z</time>
      </trkpt>
      <trkpt lat="44.53386" lon="0.68714">
        <ele>130</ele>
        <time>2017-01-22T08:28:46.000Z</time>
      </trkpt>
      <trkpt lat="44.53384" lon="0.68716">
        <ele>130.2</ele>
        <time>2017-01-22T08:28:47.000Z</time>
      </trkpt>
      <trkpt lat="44.53382" lon="0.68718">
        <ele>130.4</ele>
        <time>2017-01-22T08:28:48.000Z</time>
      </trkpt>
      <trkpt lat="44.53381" lon="0.68721">
        <ele>130.5</ele>
        <time>2017-01-22T08:28:49.000Z</time>
      </trkpt>
      <trkpt lat="44.5338" lon="0.68724">
        <ele>130.7</ele>
        <time>2017-01-22T08:28:50.000Z</time>
      </trkpt>
      <trkpt lat="44.53379" lon="0.68728">
        <ele>130.8</ele>
        <time>2017-01-22T08:28:51.000Z</time>
      </trkpt>
      <trkpt lat="44.53379" lon="0.68732">
        <ele>130.9</ele>
        <time>2017-01-22T08:28:52.000Z</time>
      </trkpt>
      <trkpt lat="44.53379" lon="0.68736">
        <ele>131</ele>
        <time>2017-01-22T08:28:53.000Z</time>
      </trkpt>
      <trkpt lat="44.53378" lon="0.68741">
        <ele>131.1</ele>
        <time>2017-01-22T08:28:54.000Z</time>
      </trkpt>
      <trkpt lat="44.53377" lon="0.68745">
        <ele>131.2</ele>
        <time>2017-01-22T08:28:55.000Z</time>
      </trkpt>
      <trkpt lat="44.53377" lon="0.68749">
        <ele>131.3</ele>
        <time>2017-01-22T08:28:56.000Z</time>
      </trkpt>
      <trkpt lat="44.53376" lon="0.68753">
        <ele>131.5</ele>
        <time>2017-01-22T08:28:57.000Z</time>
      </trkpt>
      <trkpt lat="44.53376" lon="0.68756">
        <ele>131.6</ele>
        <time>2017-01-22T08:28:58.000Z</time>
      </trkpt>
      <trkpt lat="44.53375" lon="0.6876">
        <ele>131.7</ele>
        <time>2017-01-22T08:28:59.000Z</time>
      </trkpt>
      <trkpt lat="44.53374" lon="0.68763">
        <ele>131.9</ele>
        <time>2017-01-22T08:29:00.000Z</time>
      </trkpt>
      <trkpt lat="44.53373" lon="0.68767">
        <ele>132.1</ele>
        <time>2017-01-22T08:29:01.000Z</time>
      </trkpt>
      <trkpt lat="44.53372" lon="0.6877">
        <ele>132.2</ele>
        <time>2017-01-22T08:29:02.000Z</time>
      </trkpt>
      <trkpt lat="44.53371" lon="0.68773">
        <ele>132.3</ele>
        <time>2017-01-22T08:29:03.000Z</time>
      </trkpt>
      <trkpt lat="44.5337" lon="0.68776">
        <ele>132.5</ele>
        <time>2017-01-22T08:29:04.000Z</time>
      </trkpt>
      <trkpt lat="44.53369" lon="0.68778">
        <ele>132.6</ele>
        <time>2017-01-22T08:29:05.000Z</time>
      </trkpt>
      <trkpt lat="44.53368" lon="0.68781">
        <ele>132.7</ele>
        <time>2017-01-22T08:29:06.000Z</time>
      </trkpt>
      <trkpt lat="44.53367" lon="0.68783">
        <ele>132.8</ele>
        <time>2017-01-22T08:29:07.000Z</time>
      </trkpt>
      <trkpt lat="44.53367" lon="0.68785">
        <ele>132.9</ele>
        <time>2017-01-22T08:29:08.000Z</time>
      </trkpt>
      <trkpt lat="44.53366" lon="0.68788">
        <ele>133</ele>
        <time>2017-01-22T08:29:09.000Z</time>
      </trkpt>
      <trkpt lat="44.53365" lon="0.6879">
        <ele>133.1</ele>
        <time>2017-01-22T08:29:10.000Z</time>
      </trkpt>
      <trkpt lat="44.53365" lon="0.68792">
        <ele>133.1</ele>
        <time>2017-01-22T08:29:11.000Z</time>
      </trkpt>
      <trkpt lat="44.53364" lon="0.68794">
        <ele>133.2</ele>
        <time>2017-01-22T08:29:12.000Z</time>
      </trkpt>
      <trkpt lat="44.53363" lon="0.68796">
        <ele>133.3</ele>
        <time>2017-01-22T08:29:13.000Z</time>
      </trkpt>
      <trkpt lat="44.53363" lon="0.68799">
        <ele>133.4</ele>
        <time>2017-01-22T08:29:14.000Z</time>
      </trkpt>
      <trkpt lat="44.53362" lon="0.68801">
        <ele>133.4</ele>
        <time>2017-01-22T08:29:15.000Z</time>
      </trkpt>
      <trkpt lat="44.53361" lon="0.68803">
        <ele>133.5</ele>
        <time>2017-01-22T08:29:16.000Z</time>
      </trkpt>
      <trkpt lat="44.5336" lon="0.68805">
        <ele>133.6</ele>
        <time>2017-01-22T08:29:17.000Z</time>
      </trkpt>
      <trkpt lat="44.5336" lon="0.68808">
        <ele>133.7</ele>
        <time>2017-01-22T08:29:18.000Z</time>
      </trkpt>
      <trkpt lat="44.53359" lon="0.6881">
        <ele>133.7</ele>
        <time>2017-01-22T08:29:19.000Z</time>
      </trkpt>
      <trkpt lat="44.53358" lon="0.68812">
        <ele>133.8</ele>
        <time>2017-01-22T08:29:20.000Z</time>
      </trkpt>
      <trkpt lat="44.53357" lon="0.68815">
        <ele>133.9</ele>
        <time>2017-01-22T08:29:21.000Z</time>
      </trkpt>
      <trkpt lat="44.53356" lon="0.68818">
        <ele>134</ele>
        <time>2017-01-22T08:29:22.000Z</time>
      </trkpt>
      <trkpt lat="44.53355" lon="0.6882">
        <ele>134.1</ele>
        <time>2017-01-22T08:29:23.000Z</time>
      </trkpt>
      <trkpt lat="44.53354" lon="0.68823">
        <ele>134.1</ele>
        <time>2017-01-22T08:29:24.000Z</time>
      </trkpt>
      <trkpt lat="44.53353" lon="0.68826">
        <ele>134.2</ele>
        <time>2017-01-22T08:29:25.000Z</time>
      </trkpt>
      <trkpt lat="44.53352" lon="0.68828">
        <ele>134.3</ele>
        <time>2017-01-22T08:29:26.000Z</time>
      </trkpt>
      <trkpt lat="44.5335" lon="0.68831">
        <ele>134.4</ele>
        <time>2017-01-22T08:29:27.000Z</time>
      </trkpt>
      <trkpt lat="44.53349" lon="0.68834">
        <ele>134.4</ele>
        <time>2017-01-22T08:29:28.000Z</time>
      </trkpt>
      <trkpt lat="44.53348" lon="0.68837">
        <ele>134.4</ele>
        <time>2017-01-22T08:29:29.000Z</time>
      </trkpt>
      <trkpt lat="44.53346" lon="0.6884">
        <ele>134.4</ele>
        <time>2017-01-22T08:29:30.000Z</time>
      </trkpt>
      <trkpt lat="44.53345" lon="0.68842">
        <ele>134.4</ele>
        <time>2017-01-22T08:29:31.000Z</time>
      </trkpt>
      <trkpt lat="44.53344" lon="0.68845">
        <ele>134.3</ele>
        <time>2017-01-22T08:29:32.000Z</time>
      </trkpt>
      <trkpt lat="44.53342" lon="0.68848">
        <ele>134.3</ele>
        <time>2017-01-22T08:29:33.000Z</time>
      </trkpt>
      <trkpt lat="44.53341" lon="0.68851">
        <ele>134.3</ele>
        <time>2017-01-22T08:29:34.000Z</time>
      </trkpt>
      <trkpt lat="44.53339" lon="0.68854">
        <ele>134.3</ele>
        <time>2017-01-22T08:29:35.000Z</time>
      </trkpt>
      <trkpt lat="44.53338" lon="0.68857">
        <ele>134.3</ele>
        <time>2017-01-22T08:29:36.000Z</time>
      </trkpt>
      <trkpt lat="44.53336" lon="0.68859">
        <ele>134.3</ele>
        <time>2017-01-22T08:29:37.000Z</time>
      </trkpt>
      <trkpt lat="44.53335" lon="0.68862">
        <ele>134.3</ele>
        <time>2017-01-22T08:29:38.000Z</time>
      </trkpt>
      <trkpt lat="44.53333" lon="0.68865">
        <ele>134.3</ele>
        <time>2017-01-22T08:29:39.000Z</time>
      </trkpt>
      <trkpt lat="44.53331" lon="0.68868">
        <ele>134.2</ele>
        <time>2017-01-22T08:29:40.000Z</time>
      </trkpt>
      <trkpt lat="44.5333" lon="0.6887">
        <ele>134.2</ele>
        <time>2017-01-22T08:29:41.000Z</time>
      </trkpt>
      <trkpt lat="44.53328" lon="0.68873">
        <ele>134.1</ele>
        <time>2017-01-22T08:29:42.000Z</time>
      </trkpt>
      <trkpt lat="44.53326" lon="0.68876">
        <ele>134.1</ele>
        <time>2017-01-22T08:29:43.000Z</time>
      </trkpt>
      <trkpt lat="44.53324" lon="0.68879">
        <ele>134</ele>
        <time>2017-01-22T08:29:44.000Z</time>
      </trkpt>
      <trkpt lat="44.53322" lon="0.68882">
        <ele>134</ele>
        <time>2017-01-22T08:29:45.000Z</time>
      </trkpt>
      <trkpt lat="44.5332" lon="0.68884">
        <ele>133.9</ele>
        <time>2017-01-22T08:29:46.000Z</time>
      </trkpt>
      <trkpt lat="44.53318" lon="0.68887">
        <ele>133.9</ele>
        <time>2017-01-22T08:29:47.000Z</time>
      </trkpt>
      <trkpt lat="44.53316" lon="0.68889">
        <ele>133.8</ele>
        <time>2017-01-22T08:29:48.000Z</time>
      </trkpt>
      <trkpt lat="44.53315" lon="0.6889">
        <ele>133.8</ele>
        <time>2017-01-22T08:29:49.000Z</time>
      </trkpt>
      <trkpt lat="44.53313" lon="0.68892">
        <ele>133.7</ele>
        <time>2017-01-22T08:29:50.000Z</time>
      </trkpt>
      <trkpt lat="44.53312" lon="0.68894">
        <ele>133.7</ele>
        <time>2017-01-22T08:29:51.000Z</time>
      </trkpt>
      <trkpt lat="44.5331" lon="0.68896">
        <ele>133.6</ele>
        <time>2017-01-22T08:29:52.000Z</time>
      </trkpt>
      <trkpt lat="44.53309" lon="0.68898">
        <ele>133.6</ele>
        <time>2017-01-22T08:29:53.000Z</time>
      </trkpt>
      <trkpt lat="44.53308" lon="0.689">
        <ele>133.5</ele>
        <time>2017-01-22T08:29:54.000Z</time>
      </trkpt>
      <trkpt lat="44.53306" lon="0.68903">
        <ele>133.4</ele>
        <time>2017-01-22T08:29:55.000Z</time>
      </trkpt>
      <trkpt lat="44.53304" lon="0.68905">
        <ele>133.4</ele>
        <time>2017-01-22T08:29:56.000Z</time>
      </trkpt>
      <trkpt lat="44.53303" lon="0.68908">
        <ele>133.3</ele>
        <time>2017-01-22T08:29:57.000Z</time>
      </trkpt>
      <trkpt lat="44.53301" lon="0.68911">
        <ele>133.2</ele>
        <time>2017-01-22T08:29:58.000Z</time>
      </trkpt>
      <trkpt lat="44.53299" lon="0.68913">
        <ele>133.1</ele>
        <time>2017-01-22T08:29:59.000Z</time>
      </trkpt>
      <trkpt lat="44.53298" lon="0.68916">
        <ele>133</ele>
        <time>2017-01-22T08:30:00.000Z</time>
      </trkpt>
      <trkpt lat="44.53296" lon="0.68918">
        <ele>133</ele>
        <time>2017-01-22T08:30:01.000Z</time>
      </trkpt>
      <trkpt lat="44.53295" lon="0.6892">
        <ele>133</ele>
        <time>2017-01-22T08:30:02.000Z</time>
      </trkpt>
      <trkpt lat="44.53294" lon="0.68922">
        <ele>133</ele>
        <time>2017-01-22T08:30:03.000Z</time>
      </trkpt>
      <trkpt lat="44.53292" lon="0.68924">
        <ele>133</ele>
        <time>2017-01-22T08:30:04.000Z</time>
      </trkpt>
      <trkpt lat="44.53291" lon="0.68926">
        <ele>133.1</ele>
        <time>2017-01-22T08:30:05.000Z</time>
      </trkpt>
      <trkpt lat="44.5329" lon="0.68928">
        <ele>133.1</ele>
        <time>2017-01-22T08:30:06.000Z</time>
      </trkpt>
      <trkpt lat="44.53289" lon="0.6893">
        <ele>133.1</ele>
        <time>2017-01-22T08:30:07.000Z</time>
      </trkpt>
      <trkpt lat="44.53288" lon="0.68932">
        <ele>133.1</ele>
        <time>2017-01-22T08:30:08.000Z</time>
      </trkpt>
      <trkpt lat="44.53287" lon="0.68935">
        <ele>133.1</ele>
        <time>2017-01-22T08:30:09.000Z</time>
      </trkpt>
      <trkpt lat="44.53286" lon="0.68938">
        <ele>133.1</ele>
        <time>2017-01-22T08:30:10.000Z</time>
      </trkpt>
      <trkpt lat="44.53285" lon="0.68941">
        <ele>133.1</ele>
        <time>2017-01-22T08:30:11.000Z</time>
      </trkpt>
      <trkpt lat="44.53283" lon="0.68944">
        <ele>133.1</ele>
        <time>2017-01-22T08:30:12.000Z</time>
      </trkpt>
      <trkpt lat="44.53282" lon="0.68946">
        <ele>133.1</ele>
        <time>2017-01-22T08:30:13.000Z</time>
      </trkpt>
      <trkpt lat="44.5328" lon="0.68949">
        <ele>133.1</ele>
        <time>2017-01-22T08:30:14.000Z</time>
      </trkpt>
      <trkpt lat="44.53279" lon="0.68952">
        <ele>133.1</ele>
        <time>2017-01-22T08:30:15.000Z</time>
      </trkpt>
      <trkpt lat="44.53277" lon="0.68955">
        <ele>133.2</ele>
        <time>2017-01-22T08:30:16.000Z</time>
      </trkpt>
      <trkpt lat="44.53276" lon="0.68958">
        <ele>133.2</ele>
        <time>2017-01-22T08:30:17.000Z</time>
      </trkpt>
      <trkpt lat="44.53274" lon="0.68961">
        <ele>133.2</ele>
        <time>2017-01-22T08:30:18.000Z</time>
      </trkpt>
      <trkpt lat="44.53272" lon="0.68964">
        <ele>133.2</ele>
        <time>2017-01-22T08:30:19.000Z</time>
      </trkpt>
      <trkpt lat="44.53271" lon="0.68967">
        <ele>133.1</ele>
        <time>2017-01-22T08:30:20.000Z</time>
      </trkpt>
      <trkpt lat="44.53269" lon="0.68971">
        <ele>133.1</ele>
        <time>2017-01-22T08:30:21.000Z</time>
      </trkpt>
      <trkpt lat="44.53267" lon="0.68974">
        <ele>133.1</ele>
        <time>2017-01-22T08:30:22.000Z</time>
      </trkpt>
      <trkpt lat="44.53265" lon="0.68976">
        <ele>133.1</ele>
        <time>2017-01-22T08:30:23.000Z</time>
      </trkpt>
      <trkpt lat="44.53263" lon="0.68979">
        <ele>133.1</ele>
        <time>2017-01-22T08:30:24.000Z</time>
      </trkpt>
      <trkpt lat="44.53261" lon="0.68981">
        <ele>133.1</ele>
        <time>2017-01-22T08:30:25.000Z</time>
      </trkpt>
      <trkpt lat="44.53259" lon="0.68983">
        <ele>133.1</ele>
        <time>2017-01-22T08:30:26.000Z</time>
      </trkpt>
      <trkpt lat="44.53257" lon="0.68984">
        <ele>133.1</ele>
        <time>2017-01-22T08:30:27.000Z</time>
      </trkpt>
      <trkpt lat="44.53254" lon="0.68985">
        <ele>133</ele>
        <time>2017-01-22T08:30:28.000Z</time>
      </trkpt>
      <trkpt lat="44.53252" lon="0.68986">
        <ele>133</ele>
        <time>2017-01-22T08:30:29.000Z</time>
      </trkpt>
      <trkpt lat="44.53249" lon="0.68986">
        <ele>133</ele>
        <time>2017-01-22T08:30:30.000Z</time>
      </trkpt>
      <trkpt lat="44.53246" lon="0.68986">
        <ele>132.9</ele>
        <time>2017-01-22T08:30:31.000Z</time>
      </trkpt>
      <trkpt lat="44.53243" lon="0.68985">
        <ele>132.8</ele>
        <time>2017-01-22T08:30:32.000Z</time>
      </trkpt>
      <trkpt lat="44.5324" lon="0.68985">
        <ele>132.7</ele>
        <time>2017-01-22T08:30:33.000Z</time>
      </trkpt>
      <trkpt lat="44.53238" lon="0.68984">
        <ele>132.6</ele>
        <time>2017-01-22T08:30:34.000Z</time>
      </trkpt>
      <trkpt lat="44.53235" lon="0.68983">
        <ele>132.6</ele>
        <time>2017-01-22T08:30:35.000Z</time>
      </trkpt>
      <trkpt lat="44.53232" lon="0.68982">
        <ele>132.5</ele>
        <time>2017-01-22T08:30:36.000Z</time>
      </trkpt>
      <trkpt lat="44.5323" lon="0.6898">
        <ele>132.4</ele>
        <time>2017-01-22T08:30:37.000Z</time>
      </trkpt>
      <trkpt lat="44.53227" lon="0.68979">
        <ele>132.4</ele>
        <time>2017-01-22T08:30:38.000Z</time>
      </trkpt>
      <trkpt lat="44.53225" lon="0.68977">
        <ele>132.3</ele>
        <time>2017-01-22T08:30:39.000Z</time>
      </trkpt>
      <trkpt lat="44.53222" lon="0.68976">
        <ele>132.3</ele>
        <time>2017-01-22T08:30:40.000Z</time>
      </trkpt>
      <trkpt lat="44.53219" lon="0.68974">
        <ele>132.2</ele>
        <time>2017-01-22T08:30:41.000Z</time>
      </trkpt>
      <trkpt lat="44.53217" lon="0.68973">
        <ele>132.2</ele>
        <time>2017-01-22T08:30:42.000Z</time>
      </trkpt>
      <trkpt lat="44.53214" lon="0.68971">
        <ele>132.2</ele>
        <time>2017-01-22T08:30:43.000Z</time>
      </trkpt>
      <trkpt lat="44.53212" lon="0.68969">
        <ele>132.1</ele>
        <time>2017-01-22T08:30:44.000Z</time>
      </trkpt>
      <trkpt lat="44.53209" lon="0.68968">
        <ele>132.1</ele>
        <time>2017-01-22T08:30:45.000Z</time>
      </trkpt>
      <trkpt lat="44.53207" lon="0.68966">
        <ele>132.1</ele>
        <time>2017-01-22T08:30:46.000Z</time>
      </trkpt>
      <trkpt lat="44.53204" lon="0.68964">
        <ele>132.1</ele>
        <time>2017-01-22T08:30:47.000Z</time>
      </trkpt>
      <trkpt lat="44.53201" lon="0.68962">
        <ele>132</ele>
        <time>2017-01-22T08:30:48.000Z</time>
      </trkpt>
      <trkpt lat="44.53199" lon="0.68961">
        <ele>132</ele>
        <time>2017-01-22T08:30:49.000Z</time>
      </trkpt>
      <trkpt lat="44.53196" lon="0.68959">
        <ele>132</ele>
        <time>2017-01-22T08:30:50.000Z</time>
      </trkpt>
      <trkpt lat="44.53194" lon="0.68958">
        <ele>132</ele>
        <time>2017-01-22T08:30:51.000Z</time>
      </trkpt>
      <trkpt lat="44.53191" lon="0.68956">
        <ele>132</ele>
        <time>2017-01-22T08:30:52.000Z</time>
      </trkpt>
      <trkpt lat="44.53189" lon="0.68954">
        <ele>132</ele>
        <time>2017-01-22T08:30:53.000Z</time>
      </trkpt>
      <trkpt lat="44.53186" lon="0.68953">
        <ele>132</ele>
        <time>2017-01-22T08:30:54.000Z</time>
      </trkpt>
      <trkpt lat="44.53183" lon="0.68951">
        <ele>132</ele>
        <time>2017-01-22T08:30:55.000Z</time>
      </trkpt>
      <trkpt lat="44.53181" lon="0.68949">
        <ele>132</ele>
        <time>2017-01-22T08:30:56.000Z</time>
      </trkpt>
      <trkpt lat="44.53178" lon="0.68947">
        <ele>132</ele>
        <time>2017-01-22T08:30:57.000Z</time>
      </trkpt>
      <trkpt lat="44.53175" lon="0.68945">
        <ele>132.1</ele>
        <time>2017-01-22T08:30:58.000Z</time>
      </trkpt>
      <trkpt lat="44.53173" lon="0.68943">
        <ele>132.1</ele>
        <time>2017-01-22T08:30:59.000Z</time>
      </trkpt>
      <trkpt lat="44.53171" lon="0.6894">
        <ele>132.2</ele>
        <time>2017-01-22T08:31:00.000Z</time>
      </trkpt>
      <trkpt lat="44.5317" lon="0.68936">
        <ele>132.3</ele>
        <time>2017-01-22T08:31:01.000Z</time>
      </trkpt>
      <trkpt lat="44.53168" lon="0.68933">
        <ele>132.4</ele>
        <time>2017-01-22T08:31:02.000Z</time>
      </trkpt>
      <trkpt lat="44.53166" lon="0.68931">
        <ele>132.5</ele>
        <time>2017-01-22T08:31:03.000Z</time>
      </trkpt>
      <trkpt lat="44.53164" lon="0.68928">
        <ele>132.5</ele>
        <time>2017-01-22T08:31:04.000Z</time>
      </trkpt>
      <trkpt lat="44.53161" lon="0.68925">
        <ele>132.6</ele>
        <time>2017-01-22T08:31:05.000Z</time>
      </trkpt>
      <trkpt lat="44.53159" lon="0.68922">
        <ele>132.6</ele>
        <time>2017-01-22T08:31:06.000Z</time>
      </trkpt>
      <trkpt lat="44.53157" lon="0.68919">
        <ele>132.7</ele>
        <time>2017-01-22T08:31:07.000Z</time>
      </trkpt>
      <trkpt lat="44.53155" lon="0.68916">
        <ele>132.7</ele>
        <time>2017-01-22T08:31:08.000Z</time>
      </trkpt>
      <trkpt lat="44.53153" lon="0.68913">
        <ele>132.8</ele>
        <time>2017-01-22T08:31:09.000Z</time>
      </trkpt>
      <trkpt lat="44.53151" lon="0.6891">
        <ele>132.8</ele>
        <time>2017-01-22T08:31:10.000Z</time>
      </trkpt>
      <trkpt lat="44.53149" lon="0.68907">
        <ele>132.8</ele>
        <time>2017-01-22T08:31:11.000Z</time>
      </trkpt>
      <trkpt lat="44.53146" lon="0.68904">
        <ele>132.9</ele>
        <time>2017-01-22T08:31:12.000Z</time>
      </trkpt>
      <trkpt lat="44.53144" lon="0.68902">
        <ele>132.9</ele>
        <time>2017-01-22T08:31:13.000Z</time>
      </trkpt>
      <trkpt lat="44.53141" lon="0.689">
        <ele>132.9</ele>
        <time>2017-01-22T08:31:14.000Z</time>
      </trkpt>
      <trkpt lat="44.53138" lon="0.68898">
        <ele>132.9</ele>
        <time>2017-01-22T08:31:15.000Z</time>
      </trkpt>
      <trkpt lat="44.53136" lon="0.68895">
        <ele>133</ele>
        <time>2017-01-22T08:31:16.000Z</time>
      </trkpt>
      <trkpt lat="44.53135" lon="0.68891">
        <ele>133.1</ele>
        <time>2017-01-22T08:31:17.000Z</time>
      </trkpt>
      <trkpt lat="44.53134" lon="0.68887">
        <ele>133.2</ele>
        <time>2017-01-22T08:31:18.000Z</time>
      </trkpt>
      <trkpt lat="44.53132" lon="0.68883">
        <ele>133.3</ele>
        <time>2017-01-22T08:31:19.000Z</time>
      </trkpt>
      <trkpt lat="44.53131" lon="0.6888">
        <ele>133.4</ele>
        <time>2017-01-22T08:31:20.000Z</time>
      </trkpt>
      <trkpt lat="44.5313" lon="0.68876">
        <ele>133.5</ele>
        <time>2017-01-22T08:31:21.000Z</time>
      </trkpt>
      <trkpt lat="44.53128" lon="0.68872">
        <ele>133.6</ele>
        <time>2017-01-22T08:31:22.000Z</time>
      </trkpt>
      <trkpt lat="44.53127" lon="0.68868">
        <ele>133.8</ele>
        <time>2017-01-22T08:31:23.000Z</time>
      </trkpt>
      <trkpt lat="44.53125" lon="0.68864">
        <ele>133.9</ele>
        <time>2017-01-22T08:31:24.000Z</time>
      </trkpt>
      <trkpt lat="44.53123" lon="0.68861">
        <ele>134</ele>
        <time>2017-01-22T08:31:25.000Z</time>
      </trkpt>
      <trkpt lat="44.53121" lon="0.68858">
        <ele>134.1</ele>
        <time>2017-01-22T08:31:26.000Z</time>
      </trkpt>
      <trkpt lat="44.53119" lon="0.68855">
        <ele>134.2</ele>
        <time>2017-01-22T08:31:27.000Z</time>
      </trkpt>
      <trkpt lat="44.53117" lon="0.68852">
        <ele>134.3</ele>
        <time>2017-01-22T08:31:28.000Z</time>
      </trkpt>
      <trkpt lat="44.53115" lon="0.6885">
        <ele>134.4</ele>
        <time>2017-01-22T08:31:29.000Z</time>
      </trkpt>
      <trkpt lat="44.53113" lon="0.68846">
        <ele>134.5</ele>
        <time>2017-01-22T08:31:30.000Z</time>
      </trkpt>
      <trkpt lat="44.53111" lon="0.68843">
        <ele>134.6</ele>
        <time>2017-01-22T08:31:31.000Z</time>
      </trkpt>
      <trkpt lat="44.53109" lon="0.6884">
        <ele>134.7</ele>
        <time>2017-01-22T08:31:32.000Z</time>
      </trkpt>
      <trkpt lat="44.53107" lon="0.68837">
        <ele>134.8</ele>
        <time>2017-01-22T08:31:33.000Z</time>
      </trkpt>
      <trkpt lat="44.53104" lon="0.68835">
        <ele>134.9</ele>
        <time>2017-01-22T08:31:34.000Z</time>
      </trkpt>
      <trkpt lat="44.53102" lon="0.68832">
        <ele>135</ele>
        <time>2017-01-22T08:31:35.000Z</time>
      </trkpt>
      <trkpt lat="44.53099" lon="0.6883">
        <ele>135</ele>
        <time>2017-01-22T08:31:36.000Z</time>
      </trkpt>
      <trkpt lat="44.53097" lon="0.68827">
        <ele>135.1</ele>
        <time>2017-01-22T08:31:37.000Z</time>
      </trkpt>
      <trkpt lat="44.53095" lon="0.68825">
        <ele>135.1</ele>
        <time>2017-01-22T08:31:38.000Z</time>
      </trkpt>
      <trkpt lat="44.53092" lon="0.68822">
        <ele>135.1</ele>
        <time>2017-01-22T08:31:39.000Z</time>
      </trkpt>
      <trkpt lat="44.5309" lon="0.68819">
        <ele>135.2</ele>
        <time>2017-01-22T08:31:40.000Z</time>
      </trkpt>
      <trkpt lat="44.53088" lon="0.68816">
        <ele>135.2</ele>
        <time>2017-01-22T08:31:41.000Z</time>
      </trkpt>
      <trkpt lat="44.53086" lon="0.68813">
        <ele>135.2</ele>
        <time>2017-01-22T08:31:42.000Z</time>
      </trkpt>
      <trkpt lat="44.53083" lon="0.68811">
        <ele>135.3</ele>
        <time>2017-01-22T08:31:43.000Z</time>
      </trkpt>
      <trkpt lat="44.53081" lon="0.68808">
        <ele>135.3</ele>
        <time>2017-01-22T08:31:44.000Z</time>
      </trkpt>
      <trkpt lat="44.53079" lon="0.68806">
        <ele>135.2</ele>
        <time>2017-01-22T08:31:45.000Z</time>
      </trkpt>
      <trkpt lat="44.53077" lon="0.68803">
        <ele>135.2</ele>
        <time>2017-01-22T08:31:46.000Z</time>
      </trkpt>
      <trkpt lat="44.53075" lon="0.68801">
        <ele>135.2</ele>
        <time>2017-01-22T08:31:47.000Z</time>
      </trkpt>
      <trkpt lat="44.53072" lon="0.688">
        <ele>135.2</ele>
        <time>2017-01-22T08:31:48.000Z</time>
      </trkpt>
      <trkpt lat="44.5307" lon="0.68798">
        <ele>135.1</ele>
        <time>2017-01-22T08:31:49.000Z</time>
      </trkpt>
      <trkpt lat="44.53067" lon="0.68796">
        <ele>135.1</ele>
        <time>2017-01-22T08:31:50.000Z</time>
      </trkpt>
      <trkpt lat="44.53065" lon="0.68793">
        <ele>135.1</ele>
        <time>2017-01-22T08:31:51.000Z</time>
      </trkpt>
      <trkpt lat="44.53063" lon="0.68791">
        <ele>135.1</ele>
        <time>2017-01-22T08:31:52.000Z</time>
      </trkpt>
      <trkpt lat="44.53061" lon="0.68788">
        <ele>135.2</ele>
        <time>2017-01-22T08:31:53.000Z</time>
      </trkpt>
      <trkpt lat="44.53058" lon="0.68785">
        <ele>135.2</ele>
        <time>2017-01-22T08:31:54.000Z</time>
      </trkpt>
      <trkpt lat="44.53056" lon="0.68783">
        <ele>135.2</ele>
        <time>2017-01-22T08:31:55.000Z</time>
      </trkpt>
      <trkpt lat="44.53054" lon="0.6878">
        <ele>135.3</ele>
        <time>2017-01-22T08:31:56.000Z</time>
      </trkpt>
      <trkpt lat="44.53052" lon="0.68778">
        <ele>135.3</ele>
        <time>2017-01-22T08:31:57.000Z</time>
      </trkpt>
      <trkpt lat="44.5305" lon="0.68776">
        <ele>135.3</ele>
        <time>2017-01-22T08:31:58.000Z</time>
      </trkpt>
      <trkpt lat="44.53047" lon="0.68773">
        <ele>135.4</ele>
        <time>2017-01-22T08:31:59.000Z</time>
      </trkpt>
      <trkpt lat="44.53045" lon="0.68771">
        <ele>135.4</ele>
        <time>2017-01-22T08:32:00.000Z</time>
      </trkpt>
      <trkpt lat="44.53042" lon="0.68769">
        <ele>135.4</ele>
        <time>2017-01-22T08:32:01.000Z</time>
      </trkpt>
      <trkpt lat="44.5304" lon="0.68766">
        <ele>135.5</ele>
        <time>2017-01-22T08:32:02.000Z</time>
      </trkpt>
      <trkpt lat="44.53037" lon="0.68764">
        <ele>135.6</ele>
        <time>2017-01-22T08:32:03.000Z</time>
      </trkpt>
      <trkpt lat="44.53035" lon="0.68762">
        <ele>135.6</ele>
        <time>2017-01-22T08:32:04.000Z</time>
      </trkpt>
      <trkpt lat="44.53032" lon="0.68759">
        <ele>135.7</ele>
        <time>2017-01-22T08:32:05.000Z</time>
      </trkpt>
      <trkpt lat="44.5303" lon="0.68757">
        <ele>135.8</ele>
        <time>2017-01-22T08:32:06.000Z</time>
      </trkpt>
      <trkpt lat="44.53027" lon="0.68755">
        <ele>135.8</ele>
        <time>2017-01-22T08:32:07.000Z</time>
      </trkpt>
      <trkpt lat="44.53025" lon="0.68753">
        <ele>135.9</ele>
        <time>2017-01-22T08:32:08.000Z</time>
      </trkpt>
      <trkpt lat="44.53023" lon="0.6875">
        <ele>136</ele>
        <time>2017-01-22T08:32:09.000Z</time>
      </trkpt>
      <trkpt lat="44.5302" lon="0.68748">
        <ele>136</ele>
        <time>2017-01-22T08:32:10.000Z</time>
      </trkpt>
      <trkpt lat="44.53018" lon="0.68746">
        <ele>136</ele>
        <time>2017-01-22T08:32:11.000Z</time>
      </trkpt>
      <trkpt lat="44.53015" lon="0.68744">
        <ele>136</ele>
        <time>2017-01-22T08:32:12.000Z</time>
      </trkpt>
      <trkpt lat="44.53013" lon="0.68741">
        <ele>136</ele>
        <time>2017-01-22T08:32:13.000Z</time>
      </trkpt>
      <trkpt lat="44.5301" lon="0.68739">
        <ele>136</ele>
        <time>2017-01-22T08:32:14.000Z</time>
      </trkpt>
      <trkpt lat="44.53008" lon="0.68737">
        <ele>136</ele>
        <time>2017-01-22T08:32:15.000Z</time>
      </trkpt>
      <trkpt lat="44.53006" lon="0.68735">
        <ele>136</ele>
        <time>2017-01-22T08:32:16.000Z</time>
      </trkpt>
      <trkpt lat="44.53003" lon="0.68733">
        <ele>136</ele>
        <time>2017-01-22T08:32:17.000Z</time>
      </trkpt>
      <trkpt lat="44.53001" lon="0.68731">
        <ele>136</ele>
        <time>2017-01-22T08:32:18.000Z</time>
      </trkpt>
      <trkpt lat="44.52998" lon="0.68729">
        <ele>136</ele>
        <time>2017-01-22T08:32:19.000Z</time>
      </trkpt>
      <trkpt lat="44.52996" lon="0.68727">
        <ele>136.1</ele>
        <time>2017-01-22T08:32:20.000Z</time>
      </trkpt>
      <trkpt lat="44.52993" lon="0.68725">
        <ele>136.1</ele>
        <time>2017-01-22T08:32:21.000Z</time>
      </trkpt>
      <trkpt lat="44.52991" lon="0.68723">
        <ele>136.2</ele>
        <time>2017-01-22T08:32:22.000Z</time>
      </trkpt>
      <trkpt lat="44.52989" lon="0.6872">
        <ele>136.2</ele>
        <time>2017-01-22T08:32:23.000Z</time>
      </trkpt>
      <trkpt lat="44.52986" lon="0.68718">
        <ele>136.3</ele>
        <time>2017-01-22T08:32:24.000Z</time>
      </trkpt>
      <trkpt lat="44.52984" lon="0.68716">
        <ele>136.3</ele>
        <time>2017-01-22T08:32:25.000Z</time>
      </trkpt>
      <trkpt lat="44.52982" lon="0.68713">
        <ele>136.3</ele>
        <time>2017-01-22T08:32:26.000Z</time>
      </trkpt>
      <trkpt lat="44.52979" lon="0.6871">
        <ele>136.4</ele>
        <time>2017-01-22T08:32:27.000Z</time>
      </trkpt>
      <trkpt lat="44.52977" lon="0.68707">
        <ele>136.4</ele>
        <time>2017-01-22T08:32:28.000Z</time>
      </trkpt>
      <trkpt lat="44.52975" lon="0.68705">
        <ele>136.4</ele>
        <time>2017-01-22T08:32:29.000Z</time>
      </trkpt>
      <trkpt lat="44.52972" lon="0.68703">
        <ele>136.5</ele>
        <time>2017-01-22T08:32:30.000Z</time>
      </trkpt>
      <trkpt lat="44.5297" lon="0.68701">
        <ele>136.5</ele>
        <time>2017-01-22T08:32:31.000Z</time>
      </trkpt>
      <trkpt lat="44.52967" lon="0.68699">
        <ele>136.6</ele>
        <time>2017-01-22T08:32:32.000Z</time>
      </trkpt>
      <trkpt lat="44.52964" lon="0.68698">
        <ele>136.6</ele>
        <time>2017-01-22T08:32:33.000Z</time>
      </trkpt>
      <trkpt lat="44.52961" lon="0.68697">
        <ele>136.6</ele>
        <time>2017-01-22T08:32:34.000Z</time>
      </trkpt>
      <trkpt lat="44.52959" lon="0.68697">
        <ele>136.7</ele>
        <time>2017-01-22T08:32:35.000Z</time>
      </trkpt>
      <trkpt lat="44.52956" lon="0.68696">
        <ele>136.7</ele>
        <time>2017-01-22T08:32:36.000Z</time>
      </trkpt>
      <trkpt lat="44.52953" lon="0.68696">
        <ele>136.8</ele>
        <time>2017-01-22T08:32:37.000Z</time>
      </trkpt>
      <trkpt lat="44.5295" lon="0.68696">
        <ele>136.8</ele>
        <time>2017-01-22T08:32:38.000Z</time>
      </trkpt>
      <trkpt lat="44.52947" lon="0.68695">
        <ele>136.9</ele>
        <time>2017-01-22T08:32:39.000Z</time>
      </trkpt>
      <trkpt lat="44.52944" lon="0.68695">
        <ele>136.9</ele>
        <time>2017-01-22T08:32:40.000Z</time>
      </trkpt>
      <trkpt lat="44.52941" lon="0.68695">
        <ele>137</ele>
        <time>2017-01-22T08:32:41.000Z</time>
      </trkpt>
      <trkpt lat="44.52938" lon="0.68696">
        <ele>137</ele>
        <time>2017-01-22T08:32:42.000Z</time>
      </trkpt>
      <trkpt lat="44.52935" lon="0.68696">
        <ele>137</ele>
        <time>2017-01-22T08:32:43.000Z</time>
      </trkpt>
      <trkpt lat="44.52932" lon="0.68696">
        <ele>137.1</ele>
        <time>2017-01-22T08:32:44.000Z</time>
      </trkpt>
      <trkpt lat="44.52929" lon="0.68696">
        <ele>137.1</ele>
        <time>2017-01-22T08:32:45.000Z</time>
      </trkpt>
      <trkpt lat="44.52926" lon="0.68696">
        <ele>137.2</ele>
        <time>2017-01-22T08:32:46.000Z</time>
      </trkpt>
      <trkpt lat="44.52923" lon="0.68695">
        <ele>137.2</ele>
        <time>2017-01-22T08:32:47.000Z</time>
      </trkpt>
      <trkpt lat="44.5292" lon="0.68695">
        <ele>137.3</ele>
        <time>2017-01-22T08:32:48.000Z</time>
      </trkpt>
      <trkpt lat="44.52917" lon="0.68695">
        <ele>137.3</ele>
        <time>2017-01-22T08:32:49.000Z</time>
      </trkpt>
      <trkpt lat="44.52914" lon="0.68694">
        <ele>137.5</ele>
        <time>2017-01-22T08:32:50.000Z</time>
      </trkpt>
      <trkpt lat="44.52911" lon="0.68694">
        <ele>137.7</ele>
        <time>2017-01-22T08:32:51.000Z</time>
      </trkpt>
      <trkpt lat="44.52908" lon="0.68693">
        <ele>137.9</ele>
        <time>2017-01-22T08:32:52.000Z</time>
      </trkpt>
      <trkpt lat="44.52905" lon="0.68693">
        <ele>138.1</ele>
        <time>2017-01-22T08:32:53.000Z</time>
      </trkpt>
      <trkpt lat="44.52902" lon="0.68693">
        <ele>138.3</ele>
        <time>2017-01-22T08:32:54.000Z</time>
      </trkpt>
      <trkpt lat="44.52899" lon="0.68692">
        <ele>138.6</ele>
        <time>2017-01-22T08:32:55.000Z</time>
      </trkpt>
      <trkpt lat="44.52896" lon="0.68692">
        <ele>138.8</ele>
        <time>2017-01-22T08:32:56.000Z</time>
      </trkpt>
      <trkpt lat="44.52893" lon="0.68692">
        <ele>139</ele>
        <time>2017-01-22T08:32:57.000Z</time>
      </trkpt>
      <trkpt lat="44.5289" lon="0.68693">
        <ele>139.2</ele>
        <time>2017-01-22T08:32:58.000Z</time>
      </trkpt>
      <trkpt lat="44.52887" lon="0.68693">
        <ele>139.5</ele>
        <time>2017-01-22T08:32:59.000Z</time>
      </trkpt>
      <trkpt lat="44.52884" lon="0.68693">
        <ele>139.7</ele>
        <time>2017-01-22T08:33:00.000Z</time>
      </trkpt>
      <trkpt lat="44.52881" lon="0.68693">
        <ele>139.9</ele>
        <time>2017-01-22T08:33:01.000Z</time>
      </trkpt>
      <trkpt lat="44.52878" lon="0.68692">
        <ele>140.1</ele>
        <time>2017-01-22T08:33:02.000Z</time>
      </trkpt>
      <trkpt lat="44.52875" lon="0.68691">
        <ele>140.3</ele>
        <time>2017-01-22T08:33:03.000Z</time>
      </trkpt>
      <trkpt lat="44.52872" lon="0.6869">
        <ele>140.5</ele>
        <time>2017-01-22T08:33:04.000Z</time>
      </trkpt>
      <trkpt lat="44.52869" lon="0.6869">
        <ele>140.7</ele>
        <time>2017-01-22T08:33:05.000Z</time>
      </trkpt>
      <trkpt lat="44.52866" lon="0.68689">
        <ele>140.9</ele>
        <time>2017-01-22T08:33:06.000Z</time>
      </trkpt>
      <trkpt lat="44.52863" lon="0.6869">
        <ele>141.1</ele>
        <time>2017-01-22T08:33:07.000Z</time>
      </trkpt>
      <trkpt lat="44.5286" lon="0.6869">
        <ele>141.3</ele>
        <time>2017-01-22T08:33:08.000Z</time>
      </trkpt>
      <trkpt lat="44.52857" lon="0.68691">
        <ele>141.6</ele>
        <time>2017-01-22T08:33:09.000Z</time>
      </trkpt>
      <trkpt lat="44.52855" lon="0.68692">
        <ele>141.8</ele>
        <time>2017-01-22T08:33:10.000Z</time>
      </trkpt>
      <trkpt lat="44.52852" lon="0.68692">
        <ele>142</ele>
        <time>2017-01-22T08:33:11.000Z</time>
      </trkpt>
      <trkpt lat="44.52849" lon="0.68693">
        <ele>142.2</ele>
        <time>2017-01-22T08:33:12.000Z</time>
      </trkpt>
      <trkpt lat="44.52846" lon="0.68693">
        <ele>142.4</ele>
        <time>2017-01-22T08:33:13.000Z</time>
      </trkpt>
      <trkpt lat="44.52843" lon="0.68693">
        <ele>142.6</ele>
        <time>2017-01-22T08:33:14.000Z</time>
      </trkpt>
      <trkpt lat="44.5284" lon="0.68693">
        <ele>142.8</ele>
        <time>2017-01-22T08:33:15.000Z</time>
      </trkpt>
      <trkpt lat="44.52838" lon="0.68693">
        <ele>143</ele>
        <time>2017-01-22T08:33:16.000Z</time>
      </trkpt>
      <trkpt lat="44.52835" lon="0.68692">
        <ele>143.2</ele>
        <time>2017-01-22T08:33:17.000Z</time>
      </trkpt>
      <trkpt lat="44.52832" lon="0.68692">
        <ele>143.4</ele>
        <time>2017-01-22T08:33:18.000Z</time>
      </trkpt>
      <trkpt lat="44.5283" lon="0.68691">
        <ele>143.5</ele>
        <time>2017-01-22T08:33:19.000Z</time>
      </trkpt>
      <trkpt lat="44.52827" lon="0.6869">
        <ele>143.7</ele>
        <time>2017-01-22T08:33:20.000Z</time>
      </trkpt>
      <trkpt lat="44.52824" lon="0.6869">
        <ele>143.8</ele>
        <time>2017-01-22T08:33:21.000Z</time>
      </trkpt>
      <trkpt lat="44.52822" lon="0.68689">
        <ele>144</ele>
        <time>2017-01-22T08:33:22.000Z</time>
      </trkpt>
      <trkpt lat="44.52819" lon="0.68689">
        <ele>144.1</ele>
        <time>2017-01-22T08:33:23.000Z</time>
      </trkpt>
      <trkpt lat="44.52817" lon="0.68688">
        <ele>144.3</ele>
        <time>2017-01-22T08:33:24.000Z</time>
      </trkpt>
      <trkpt lat="44.52814" lon="0.68688">
        <ele>144.5</ele>
        <time>2017-01-22T08:33:25.000Z</time>
      </trkpt>
      <trkpt lat="44.52812" lon="0.68687">
        <ele>144.6</ele>
        <time>2017-01-22T08:33:26.000Z</time>
      </trkpt>
      <trkpt lat="44.52809" lon="0.68687">
        <ele>144.8</ele>
        <time>2017-01-22T08:33:27.000Z</time>
      </trkpt>
      <trkpt lat="44.52807" lon="0.68686">
        <ele>144.9</ele>
        <time>2017-01-22T08:33:28.000Z</time>
      </trkpt>
      <trkpt lat="44.52805" lon="0.68686">
        <ele>145</ele>
        <time>2017-01-22T08:33:29.000Z</time>
      </trkpt>
      <trkpt lat="44.52802" lon="0.68685">
        <ele>145.2</ele>
        <time>2017-01-22T08:33:30.000Z</time>
      </trkpt>
      <trkpt lat="44.528" lon="0.68685">
        <ele>145.3</ele>
        <time>2017-01-22T08:33:31.000Z</time>
      </trkpt>
      <trkpt lat="44.52798" lon="0.68685">
        <ele>145.4</ele>
        <time>2017-01-22T08:33:32.000Z</time>
      </trkpt>
      <trkpt lat="44.52796" lon="0.68684">
        <ele>145.6</ele>
        <time>2017-01-22T08:33:33.000Z</time>
      </trkpt>
      <trkpt lat="44.52794" lon="0.68684">
        <ele>145.7</ele>
        <time>2017-01-22T08:33:34.000Z</time>
      </trkpt>
      <trkpt lat="44.52791" lon="0.68684">
        <ele>145.8</ele>
        <time>2017-01-22T08:33:35.000Z</time>
      </trkpt>
      <trkpt lat="44.52789" lon="0.68684">
        <ele>146</ele>
        <time>2017-01-22T08:33:36.000Z</time>
      </trkpt>
      <trkpt lat="44.52786" lon="0.68683">
        <ele>146.2</ele>
        <time>2017-01-22T08:33:37.000Z</time>
      </trkpt>
      <trkpt lat="44.52783" lon="0.68683">
        <ele>146.3</ele>
        <time>2017-01-22T08:33:38.000Z</time>
      </trkpt>
      <trkpt lat="44.5278" lon="0.68683">
        <ele>146.5</ele>
        <time>2017-01-22T08:33:39.000Z</time>
      </trkpt>
      <trkpt lat="44.52777" lon="0.68682">
        <ele>146.7</ele>
        <time>2017-01-22T08:33:40.000Z</time>
      </trkpt>
      <trkpt lat="44.52774" lon="0.68682">
        <ele>146.8</ele>
        <time>2017-01-22T08:33:41.000Z</time>
      </trkpt>
      <trkpt lat="44.52772" lon="0.68681">
        <ele>147</ele>
        <time>2017-01-22T08:33:42.000Z</time>
      </trkpt>
      <trkpt lat="44.52769" lon="0.68681">
        <ele>147.2</ele>
        <time>2017-01-22T08:33:43.000Z</time>
      </trkpt>
      <trkpt lat="44.52766" lon="0.6868">
        <ele>147.4</ele>
        <time>2017-01-22T08:33:44.000Z</time>
      </trkpt>
      <trkpt lat="44.52763" lon="0.6868">
        <ele>147.5</ele>
        <time>2017-01-22T08:33:45.000Z</time>
      </trkpt>
      <trkpt lat="44.5276" lon="0.6868">
        <ele>147.7</ele>
        <time>2017-01-22T08:33:46.000Z</time>
      </trkpt>
      <trkpt lat="44.52757" lon="0.68679">
        <ele>147.9</ele>
        <time>2017-01-22T08:33:47.000Z</time>
      </trkpt>
      <trkpt lat="44.52754" lon="0.68679">
        <ele>148.1</ele>
        <time>2017-01-22T08:33:48.000Z</time>
      </trkpt>
      <trkpt lat="44.5275" lon="0.68678">
        <ele>148.3</ele>
        <time>2017-01-22T08:33:49.000Z</time>
      </trkpt>
      <trkpt lat="44.52747" lon="0.68678">
        <ele>148.3</ele>
        <time>2017-01-22T08:33:50.000Z</time>
      </trkpt>
      <trkpt lat="44.52744" lon="0.68678">
        <ele>148.3</ele>
        <time>2017-01-22T08:33:51.000Z</time>
      </trkpt>
      <trkpt lat="44.52741" lon="0.68677">
        <ele>148.3</ele>
        <time>2017-01-22T08:33:52.000Z</time>
      </trkpt>
      <trkpt lat="44.52738" lon="0.68677">
        <ele>148.4</ele>
        <time>2017-01-22T08:33:53.000Z</time>
      </trkpt>
      <trkpt lat="44.52735" lon="0.68676">
        <ele>148.4</ele>
        <time>2017-01-22T08:33:54.000Z</time>
      </trkpt>
      <trkpt lat="44.52732" lon="0.68676">
        <ele>148.4</ele>
        <time>2017-01-22T08:33:55.000Z</time>
      </trkpt>
      <trkpt lat="44.52729" lon="0.68675">
        <ele>148.4</ele>
        <time>2017-01-22T08:33:56.000Z</time>
      </trkpt>
      <trkpt lat="44.52726" lon="0.68675">
        <ele>148.5</ele>
        <time>2017-01-22T08:33:57.000Z</time>
      </trkpt>
      <trkpt lat="44.52723" lon="0.68674">
        <ele>148.5</ele>
        <time>2017-01-22T08:33:58.000Z</time>
      </trkpt>
      <trkpt lat="44.5272" lon="0.68674">
        <ele>148.5</ele>
        <time>2017-01-22T08:33:59.000Z</time>
      </trkpt>
      <trkpt lat="44.52716" lon="0.68673">
        <ele>148.5</ele>
        <time>2017-01-22T08:34:00.000Z</time>
      </trkpt>
      <trkpt lat="44.52713" lon="0.68673">
        <ele>148.5</ele>
        <time>2017-01-22T08:34:01.000Z</time>
      </trkpt>
      <trkpt lat="44.5271" lon="0.68672">
        <ele>148.6</ele>
        <time>2017-01-22T08:34:02.000Z</time>
      </trkpt>
      <trkpt lat="44.52707" lon="0.68672">
        <ele>148.6</ele>
        <time>2017-01-22T08:34:03.000Z</time>
      </trkpt>
      <trkpt lat="44.52704" lon="0.68671">
        <ele>148.6</ele>
        <time>2017-01-22T08:34:04.000Z</time>
      </trkpt>
      <trkpt lat="44.52701" lon="0.68671">
        <ele>148.7</ele>
        <time>2017-01-22T08:34:05.000Z</time>
      </trkpt>
      <trkpt lat="44.52698" lon="0.6867">
        <ele>148.7</ele>
        <time>2017-01-22T08:34:06.000Z</time>
      </trkpt>
      <trkpt lat="44.52695" lon="0.6867">
        <ele>148.7</ele>
        <time>2017-01-22T08:34:07.000Z</time>
      </trkpt>
      <trkpt lat="44.52692" lon="0.68669">
        <ele>148.7</ele>
        <time>2017-01-22T08:34:08.000Z</time>
      </trkpt>
      <trkpt lat="44.52689" lon="0.68669">
        <ele>148.8</ele>
        <time>2017-01-22T08:34:09.000Z</time>
      </trkpt>
      <trkpt lat="44.52686" lon="0.68669">
        <ele>148.8</ele>
        <time>2017-01-22T08:34:10.000Z</time>
      </trkpt>
      <trkpt lat="44.52683" lon="0.68668">
        <ele>148.8</ele>
        <time>2017-01-22T08:34:11.000Z</time>
      </trkpt>
      <trkpt lat="44.5268" lon="0.68668">
        <ele>148.9</ele>
        <time>2017-01-22T08:34:12.000Z</time>
      </trkpt>
      <trkpt lat="44.52677" lon="0.68667">
        <ele>148.9</ele>
        <time>2017-01-22T08:34:13.000Z</time>
      </trkpt>
      <trkpt lat="44.52674" lon="0.68667">
        <ele>148.9</ele>
        <time>2017-01-22T08:34:14.000Z</time>
      </trkpt>
      <trkpt lat="44.52671" lon="0.68667">
        <ele>148.9</ele>
        <time>2017-01-22T08:34:15.000Z</time>
      </trkpt>
      <trkpt lat="44.52668" lon="0.68666">
        <ele>148.9</ele>
        <time>2017-01-22T08:34:16.000Z</time>
      </trkpt>
      <trkpt lat="44.52665" lon="0.68665">
        <ele>148.8</ele>
        <time>2017-01-22T08:34:17.000Z</time>
      </trkpt>
      <trkpt lat="44.52662" lon="0.68665">
        <ele>148.7</ele>
        <time>2017-01-22T08:34:18.000Z</time>
      </trkpt>
      <trkpt lat="44.5266" lon="0.68664">
        <ele>148.5</ele>
        <time>2017-01-22T08:34:19.000Z</time>
      </trkpt>
      <trkpt lat="44.52657" lon="0.68664">
        <ele>148.3</ele>
        <time>2017-01-22T08:34:20.000Z</time>
      </trkpt>
      <trkpt lat="44.52654" lon="0.68663">
        <ele>148.2</ele>
        <time>2017-01-22T08:34:21.000Z</time>
      </trkpt>
      <trkpt lat="44.52651" lon="0.68663">
        <ele>148</ele>
        <time>2017-01-22T08:34:22.000Z</time>
      </trkpt>
      <trkpt lat="44.52649" lon="0.68662">
        <ele>147.8</ele>
        <time>2017-01-22T08:34:23.000Z</time>
      </trkpt>
      <trkpt lat="44.52646" lon="0.68662">
        <ele>147.7</ele>
        <time>2017-01-22T08:34:24.000Z</time>
      </trkpt>
      <trkpt lat="44.52643" lon="0.68662">
        <ele>147.5</ele>
        <time>2017-01-22T08:34:25.000Z</time>
      </trkpt>
      <trkpt lat="44.5264" lon="0.68663">
        <ele>147.4</ele>
        <time>2017-01-22T08:34:26.000Z</time>
      </trkpt>
      <trkpt lat="44.52637" lon="0.68663">
        <ele>147.3</ele>
        <time>2017-01-22T08:34:27.000Z</time>
      </trkpt>
      <trkpt lat="44.52634" lon="0.68664">
        <ele>147.2</ele>
        <time>2017-01-22T08:34:28.000Z</time>
      </trkpt>
      <trkpt lat="44.52632" lon="0.68665">
        <ele>147.2</ele>
        <time>2017-01-22T08:34:29.000Z</time>
      </trkpt>
      <trkpt lat="44.5263" lon="0.68665">
        <ele>147.1</ele>
        <time>2017-01-22T08:34:30.000Z</time>
      </trkpt>
      <trkpt lat="44.52628" lon="0.68666">
        <ele>147.1</ele>
        <time>2017-01-22T08:34:31.000Z</time>
      </trkpt>
      <trkpt lat="44.52625" lon="0.68667">
        <ele>147</ele>
        <time>2017-01-22T08:34:32.000Z</time>
      </trkpt>
      <trkpt lat="44.52623" lon="0.68667">
        <ele>146.9</ele>
        <time>2017-01-22T08:34:33.000Z</time>
      </trkpt>
      <trkpt lat="44.5262" lon="0.68668">
        <ele>146.8</ele>
        <time>2017-01-22T08:34:34.000Z</time>
      </trkpt>
      <trkpt lat="44.52618" lon="0.68669">
        <ele>146.7</ele>
        <time>2017-01-22T08:34:35.000Z</time>
      </trkpt>
      <trkpt lat="44.52615" lon="0.68669">
        <ele>146.6</ele>
        <time>2017-01-22T08:34:36.000Z</time>
      </trkpt>
      <trkpt lat="44.52613" lon="0.6867">
        <ele>146.5</ele>
        <time>2017-01-22T08:34:37.000Z</time>
      </trkpt>
      <trkpt lat="44.5261" lon="0.68671">
        <ele>146.4</ele>
        <time>2017-01-22T08:34:38.000Z</time>
      </trkpt>
      <trkpt lat="44.52607" lon="0.68672">
        <ele>146.3</ele>
        <time>2017-01-22T08:34:39.000Z</time>
      </trkpt>
      <trkpt lat="44.52605" lon="0.68672">
        <ele>146.2</ele>
        <time>2017-01-22T08:34:40.000Z</time>
      </trkpt>
      <trkpt lat="44.52603" lon="0.68673">
        <ele>146.1</ele>
        <time>2017-01-22T08:34:41.000Z</time>
      </trkpt>
      <trkpt lat="44.526" lon="0.68674">
        <ele>146</ele>
        <time>2017-01-22T08:34:42.000Z</time>
      </trkpt>
      <trkpt lat="44.52598" lon="0.68674">
        <ele>145.9</ele>
        <time>2017-01-22T08:34:43.000Z</time>
      </trkpt>
      <trkpt lat="44.52595" lon="0.68675">
        <ele>145.8</ele>
        <time>2017-01-22T08:34:44.000Z</time>
      </trkpt>
      <trkpt lat="44.52593" lon="0.68675">
        <ele>145.7</ele>
        <time>2017-01-22T08:34:45.000Z</time>
      </trkpt>
      <trkpt lat="44.52591" lon="0.68676">
        <ele>145.6</ele>
        <time>2017-01-22T08:34:46.000Z</time>
      </trkpt>
      <trkpt lat="44.52588" lon="0.68677">
        <ele>145.5</ele>
        <time>2017-01-22T08:34:47.000Z</time>
      </trkpt>
      <trkpt lat="44.52586" lon="0.68677">
        <ele>145.4</ele>
        <time>2017-01-22T08:34:48.000Z</time>
      </trkpt>
      <trkpt lat="44.52583" lon="0.68678">
        <ele>145.3</ele>
        <time>2017-01-22T08:34:49.000Z</time>
      </trkpt>
      <trkpt lat="44.5258" lon="0.68679">
        <ele>145.3</ele>
        <time>2017-01-22T08:34:50.000Z</time>
      </trkpt>
      <trkpt lat="44.52578" lon="0.6868">
        <ele>145.3</ele>
        <time>2017-01-22T08:34:51.000Z</time>
      </trkpt>
      <trkpt lat="44.52575" lon="0.68681">
        <ele>145.3</ele>
        <time>2017-01-22T08:34:52.000Z</time>
      </trkpt>
      <trkpt lat="44.52572" lon="0.68682">
        <ele>145.3</ele>
        <time>2017-01-22T08:34:53.000Z</time>
      </trkpt>
      <trkpt lat="44.52569" lon="0.68682">
        <ele>145.2</ele>
        <time>2017-01-22T08:34:54.000Z</time>
      </trkpt>
      <trkpt lat="44.52566" lon="0.68683">
        <ele>145.2</ele>
        <time>2017-01-22T08:34:55.000Z</time>
      </trkpt>
      <trkpt lat="44.52564" lon="0.68683">
        <ele>145.2</ele>
        <time>2017-01-22T08:34:56.000Z</time>
      </trkpt>
      <trkpt lat="44.52562" lon="0.68684">
        <ele>145.2</ele>
        <time>2017-01-22T08:34:57.000Z</time>
      </trkpt>
      <trkpt lat="44.5256" lon="0.68684">
        <ele>145.2</ele>
        <time>2017-01-22T08:34:58.000Z</time>
      </trkpt>
      <trkpt lat="44.52558" lon="0.68684">
        <ele>145.2</ele>
        <time>2017-01-22T08:34:59.000Z</time>
      </trkpt>
      <trkpt lat="44.52556" lon="0.68685">
        <ele>145.1</ele>
        <time>2017-01-22T08:35:00.000Z</time>
      </trkpt>
      <trkpt lat="44.52554" lon="0.68685">
        <ele>145.1</ele>
        <time>2017-01-22T08:35:01.000Z</time>
      </trkpt>
      <trkpt lat="44.52551" lon="0.68686">
        <ele>145.1</ele>
        <time>2017-01-22T08:35:02.000Z</time>
      </trkpt>
      <trkpt lat="44.52548" lon="0.68686">
        <ele>145.1</ele>
        <time>2017-01-22T08:35:03.000Z</time>
      </trkpt>
      <trkpt lat="44.52545" lon="0.68687">
        <ele>145</ele>
        <time>2017-01-22T08:35:04.000Z</time>
      </trkpt>
      <trkpt lat="44.52541" lon="0.68688">
        <ele>145</ele>
        <time>2017-01-22T08:35:05.000Z</time>
      </trkpt>
      <trkpt lat="44.52538" lon="0.6869">
        <ele>145</ele>
        <time>2017-01-22T08:35:06.000Z</time>
      </trkpt>
      <trkpt lat="44.52535" lon="0.68691">
        <ele>144.9</ele>
        <time>2017-01-22T08:35:07.000Z</time>
      </trkpt>
      <trkpt lat="44.52532" lon="0.68692">
        <ele>144.9</ele>
        <time>2017-01-22T08:35:08.000Z</time>
      </trkpt>
      <trkpt lat="44.52528" lon="0.68694">
        <ele>144.8</ele>
        <time>2017-01-22T08:35:09.000Z</time>
      </trkpt>
      <trkpt lat="44.52525" lon="0.68695">
        <ele>144.7</ele>
        <time>2017-01-22T08:35:10.000Z</time>
      </trkpt>
      <trkpt lat="44.52522" lon="0.68696">
        <ele>144.7</ele>
        <time>2017-01-22T08:35:11.000Z</time>
      </trkpt>
      <trkpt lat="44.52519" lon="0.68697">
        <ele>144.6</ele>
        <time>2017-01-22T08:35:12.000Z</time>
      </trkpt>
      <trkpt lat="44.52516" lon="0.68698">
        <ele>144.5</ele>
        <time>2017-01-22T08:35:13.000Z</time>
      </trkpt>
      <trkpt lat="44.52513" lon="0.68698">
        <ele>144.5</ele>
        <time>2017-01-22T08:35:14.000Z</time>
      </trkpt>
      <trkpt lat="44.5251" lon="0.68698">
        <ele>144.4</ele>
        <time>2017-01-22T08:35:15.000Z</time>
      </trkpt>
      <trkpt lat="44.52506" lon="0.68697">
        <ele>144.4</ele>
        <time>2017-01-22T08:35:16.000Z</time>
      </trkpt>
      <trkpt lat="44.52503" lon="0.68697">
        <ele>144.3</ele>
        <time>2017-01-22T08:35:17.000Z</time>
      </trkpt>
      <trkpt lat="44.525" lon="0.68696">
        <ele>144.3</ele>
        <time>2017-01-22T08:35:18.000Z</time>
      </trkpt>
      <trkpt lat="44.52496" lon="0.68696">
        <ele>144.2</ele>
        <time>2017-01-22T08:35:19.000Z</time>
      </trkpt>
      <trkpt lat="44.52493" lon="0.68696">
        <ele>144.1</ele>
        <time>2017-01-22T08:35:20.000Z</time>
      </trkpt>
      <trkpt lat="44.5249" lon="0.68697">
        <ele>144.1</ele>
        <time>2017-01-22T08:35:21.000Z</time>
      </trkpt>
      <trkpt lat="44.52486" lon="0.68698">
        <ele>144</ele>
        <time>2017-01-22T08:35:22.000Z</time>
      </trkpt>
      <trkpt lat="44.52483" lon="0.68698">
        <ele>143.9</ele>
        <time>2017-01-22T08:35:23.000Z</time>
      </trkpt>
      <trkpt lat="44.5248" lon="0.68699">
        <ele>143.8</ele>
        <time>2017-01-22T08:35:24.000Z</time>
      </trkpt>
      <trkpt lat="44.52476" lon="0.68699">
        <ele>143.8</ele>
        <time>2017-01-22T08:35:25.000Z</time>
      </trkpt>
      <trkpt lat="44.52472" lon="0.687">
        <ele>143.7</ele>
        <time>2017-01-22T08:35:26.000Z</time>
      </trkpt>
      <trkpt lat="44.52469" lon="0.687">
        <ele>143.6</ele>
        <time>2017-01-22T08:35:27.000Z</time>
      </trkpt>
      <trkpt lat="44.52465" lon="0.68701">
        <ele>143.5</ele>
        <time>2017-01-22T08:35:28.000Z</time>
      </trkpt>
      <trkpt lat="44.52461" lon="0.68702">
        <ele>143.4</ele>
        <time>2017-01-22T08:35:29.000Z</time>
      </trkpt>
      <trkpt lat="44.52457" lon="0.68704">
        <ele>143.3</ele>
        <time>2017-01-22T08:35:30.000Z</time>
      </trkpt>
      <trkpt lat="44.52453" lon="0.68706">
        <ele>143.2</ele>
        <time>2017-01-22T08:35:31.000Z</time>
      </trkpt>
      <trkpt lat="44.5245" lon="0.68708">
        <ele>143.1</ele>
        <time>2017-01-22T08:35:32.000Z</time>
      </trkpt>
      <trkpt lat="44.52447" lon="0.68711">
        <ele>143</ele>
        <time>2017-01-22T08:35:33.000Z</time>
      </trkpt>
      <trkpt lat="44.52446" lon="0.68714">
        <ele>142.9</ele>
        <time>2017-01-22T08:35:34.000Z</time>
      </trkpt>
      <trkpt lat="44.52445" lon="0.68718">
        <ele>142.9</ele>
        <time>2017-01-22T08:35:35.000Z</time>
      </trkpt>
      <trkpt lat="44.52445" lon="0.68722">
        <ele>142.8</ele>
        <time>2017-01-22T08:35:36.000Z</time>
      </trkpt>
      <trkpt lat="44.52444" lon="0.68726">
        <ele>142.7</ele>
        <time>2017-01-22T08:35:37.000Z</time>
      </trkpt>
      <trkpt lat="44.52444" lon="0.68729">
        <ele>142.7</ele>
        <time>2017-01-22T08:35:38.000Z</time>
      </trkpt>
      <trkpt lat="44.52444" lon="0.68732">
        <ele>142.6</ele>
        <time>2017-01-22T08:35:39.000Z</time>
      </trkpt>
      <trkpt lat="44.52444" lon="0.68735">
        <ele>142.6</ele>
        <time>2017-01-22T08:35:40.000Z</time>
      </trkpt>
      <trkpt lat="44.52444" lon="0.68738">
        <ele>142.5</ele>
        <time>2017-01-22T08:35:41.000Z</time>
      </trkpt>
      <trkpt lat="44.52444" lon="0.6874">
        <ele>142.5</ele>
        <time>2017-01-22T08:35:42.000Z</time>
      </trkpt>
      <trkpt lat="44.52444" lon="0.68743">
        <ele>142.4</ele>
        <time>2017-01-22T08:35:43.000Z</time>
      </trkpt>
      <trkpt lat="44.52444" lon="0.68746">
        <ele>142.4</ele>
        <time>2017-01-22T08:35:44.000Z</time>
      </trkpt>
      <trkpt lat="44.52443" lon="0.6875">
        <ele>142.3</ele>
        <time>2017-01-22T08:35:45.000Z</time>
      </trkpt>
      <trkpt lat="44.52443" lon="0.68754">
        <ele>142.1</ele>
        <time>2017-01-22T08:35:46.000Z</time>
      </trkpt>
      <trkpt lat="44.52443" lon="0.68758">
        <ele>141.9</ele>
        <time>2017-01-22T08:35:47.000Z</time>
      </trkpt>
      <trkpt lat="44.52442" lon="0.68763">
        <ele>141.7</ele>
        <time>2017-01-22T08:35:48.000Z</time>
      </trkpt>
      <trkpt lat="44.52441" lon="0.68768">
        <ele>141.4</ele>
        <time>2017-01-22T08:35:49.000Z</time>
      </trkpt>
      <trkpt lat="44.52441" lon="0.68773">
        <ele>141.2</ele>
        <time>2017-01-22T08:35:50.000Z</time>
      </trkpt>
      <trkpt lat="44.5244" lon="0.68778">
        <ele>140.9</ele>
        <time>2017-01-22T08:35:51.000Z</time>
      </trkpt>
      <trkpt lat="44.52439" lon="0.68784">
        <ele>140.7</ele>
        <time>2017-01-22T08:35:52.000Z</time>
      </trkpt>
      <trkpt lat="44.52438" lon="0.6879">
        <ele>140.4</ele>
        <time>2017-01-22T08:35:53.000Z</time>
      </trkpt>
      <trkpt lat="44.52438" lon="0.68795">
        <ele>140.2</ele>
        <time>2017-01-22T08:35:54.000Z</time>
      </trkpt>
      <trkpt lat="44.52437" lon="0.68801">
        <ele>140</ele>
        <time>2017-01-22T08:35:55.000Z</time>
      </trkpt>
      <trkpt lat="44.52436" lon="0.68806">
        <ele>139.8</ele>
        <time>2017-01-22T08:35:56.000Z</time>
      </trkpt>
      <trkpt lat="44.52436" lon="0.68811">
        <ele>139.6</ele>
        <time>2017-01-22T08:35:57.000Z</time>
      </trkpt>
      <trkpt lat="44.52435" lon="0.68816">
        <ele>139.4</ele>
        <time>2017-01-22T08:35:58.000Z</time>
      </trkpt>
      <trkpt lat="44.52435" lon="0.68821">
        <ele>139.2</ele>
        <time>2017-01-22T08:35:59.000Z</time>
      </trkpt>
      <trkpt lat="44.52434" lon="0.68825">
        <ele>139.1</ele>
        <time>2017-01-22T08:36:00.000Z</time>
      </trkpt>
      <trkpt lat="44.52434" lon="0.6883">
        <ele>138.9</ele>
        <time>2017-01-22T08:36:01.000Z</time>
      </trkpt>
      <trkpt lat="44.52433" lon="0.68835">
        <ele>138.8</ele>
        <time>2017-01-22T08:36:02.000Z</time>
      </trkpt>
      <trkpt lat="44.52432" lon="0.68839">
        <ele>138.9</ele>
        <time>2017-01-22T08:36:03.000Z</time>
      </trkpt>
      <trkpt lat="44.52432" lon="0.68844">
        <ele>138.9</ele>
        <time>2017-01-22T08:36:04.000Z</time>
      </trkpt>
      <trkpt lat="44.52431" lon="0.68849">
        <ele>138.9</ele>
        <time>2017-01-22T08:36:05.000Z</time>
      </trkpt>
      <trkpt lat="44.52431" lon="0.68853">
        <ele>138.9</ele>
        <time>2017-01-22T08:36:06.000Z</time>
      </trkpt>
      <trkpt lat="44.52431" lon="0.68858">
        <ele>138.9</ele>
        <time>2017-01-22T08:36:07.000Z</time>
      </trkpt>
      <trkpt lat="44.52432" lon="0.68863">
        <ele>138.8</ele>
        <time>2017-01-22T08:36:08.000Z</time>
      </trkpt>
      <trkpt lat="44.52433" lon="0.68868">
        <ele>138.7</ele>
        <time>2017-01-22T08:36:09.000Z</time>
      </trkpt>
      <trkpt lat="44.52435" lon="0.68872">
        <ele>138.6</ele>
        <time>2017-01-22T08:36:10.000Z</time>
      </trkpt>
      <trkpt lat="44.52437" lon="0.68877">
        <ele>138.4</ele>
        <time>2017-01-22T08:36:11.000Z</time>
      </trkpt>
      <trkpt lat="44.5244" lon="0.68882">
        <ele>138.2</ele>
        <time>2017-01-22T08:36:12.000Z</time>
      </trkpt>
      <trkpt lat="44.52443" lon="0.68886">
        <ele>137.9</ele>
        <time>2017-01-22T08:36:13.000Z</time>
      </trkpt>
      <trkpt lat="44.52446" lon="0.68891">
        <ele>137.6</ele>
        <time>2017-01-22T08:36:14.000Z</time>
      </trkpt>
      <trkpt lat="44.5245" lon="0.68895">
        <ele>137.3</ele>
        <time>2017-01-22T08:36:15.000Z</time>
      </trkpt>
      <trkpt lat="44.52453" lon="0.68899">
        <ele>137</ele>
        <time>2017-01-22T08:36:16.000Z</time>
      </trkpt>
      <trkpt lat="44.52456" lon="0.68903">
        <ele>136.7</ele>
        <time>2017-01-22T08:36:17.000Z</time>
      </trkpt>
      <trkpt lat="44.52459" lon="0.68908">
        <ele>136.5</ele>
        <time>2017-01-22T08:36:18.000Z</time>
      </trkpt>
      <trkpt lat="44.52462" lon="0.68912">
        <ele>136.2</ele>
        <time>2017-01-22T08:36:19.000Z</time>
      </trkpt>
      <trkpt lat="44.52464" lon="0.68916">
        <ele>136</ele>
        <time>2017-01-22T08:36:20.000Z</time>
      </trkpt>
      <trkpt lat="44.52466" lon="0.6892">
        <ele>135.7</ele>
        <time>2017-01-22T08:36:21.000Z</time>
      </trkpt>
      <trkpt lat="44.52468" lon="0.68924">
        <ele>135.5</ele>
        <time>2017-01-22T08:36:22.000Z</time>
      </trkpt>
      <trkpt lat="44.5247" lon="0.68928">
        <ele>135.2</ele>
        <time>2017-01-22T08:36:23.000Z</time>
      </trkpt>
      <trkpt lat="44.52471" lon="0.68933">
        <ele>135</ele>
        <time>2017-01-22T08:36:24.000Z</time>
      </trkpt>
      <trkpt lat="44.52473" lon="0.68937">
        <ele>134.7</ele>
        <time>2017-01-22T08:36:25.000Z</time>
      </trkpt>
      <trkpt lat="44.52474" lon="0.68941">
        <ele>134.5</ele>
        <time>2017-01-22T08:36:26.000Z</time>
      </trkpt>
      <trkpt lat="44.52475" lon="0.68945">
        <ele>134.3</ele>
        <time>2017-01-22T08:36:27.000Z</time>
      </trkpt>
      <trkpt lat="44.52477" lon="0.68949">
        <ele>134.1</ele>
        <time>2017-01-22T08:36:28.000Z</time>
      </trkpt>
      <trkpt lat="44.52478" lon="0.68954">
        <ele>133.8</ele>
        <time>2017-01-22T08:36:29.000Z</time>
      </trkpt>
      <trkpt lat="44.52479" lon="0.68958">
        <ele>133.6</ele>
        <time>2017-01-22T08:36:30.000Z</time>
      </trkpt>
      <trkpt lat="44.52481" lon="0.68963">
        <ele>133.4</ele>
        <time>2017-01-22T08:36:31.000Z</time>
      </trkpt>
      <trkpt lat="44.52483" lon="0.68968">
        <ele>133.1</ele>
        <time>2017-01-22T08:36:32.000Z</time>
      </trkpt>
      <trkpt lat="44.52483" lon="0.68974">
        <ele>132.9</ele>
        <time>2017-01-22T08:36:33.000Z</time>
      </trkpt>
      <trkpt lat="44.52483" lon="0.68981">
        <ele>132.7</ele>
        <time>2017-01-22T08:36:34.000Z</time>
      </trkpt>
      <trkpt lat="44.52484" lon="0.68988">
        <ele>132.5</ele>
        <time>2017-01-22T08:36:35.000Z</time>
      </trkpt>
      <trkpt lat="44.52486" lon="0.68995">
        <ele>132.1</ele>
        <time>2017-01-22T08:36:36.000Z</time>
      </trkpt>
      <trkpt lat="44.52489" lon="0.69002">
        <ele>131.7</ele>
        <time>2017-01-22T08:36:37.000Z</time>
      </trkpt>
      <trkpt lat="44.52491" lon="0.69011">
        <ele>131</ele>
        <time>2017-01-22T08:36:38.000Z</time>
      </trkpt>
      <trkpt lat="44.52493" lon="0.6902">
        <ele>130.3</ele>
        <time>2017-01-22T08:36:39.000Z</time>
      </trkpt>
      <trkpt lat="44.52495" lon="0.6903">
        <ele>129.6</ele>
        <time>2017-01-22T08:36:40.000Z</time>
      </trkpt>
      <trkpt lat="44.52497" lon="0.6904">
        <ele>128.8</ele>
        <time>2017-01-22T08:36:41.000Z</time>
      </trkpt>
      <trkpt lat="44.52499" lon="0.69051">
        <ele>128</ele>
        <time>2017-01-22T08:36:42.000Z</time>
      </trkpt>
      <trkpt lat="44.52501" lon="0.69063">
        <ele>127.2</ele>
        <time>2017-01-22T08:36:43.000Z</time>
      </trkpt>
      <trkpt lat="44.52505" lon="0.69073">
        <ele>126.2</ele>
        <time>2017-01-22T08:36:44.000Z</time>
      </trkpt>
      <trkpt lat="44.52509" lon="0.69084">
        <ele>125.3</ele>
        <time>2017-01-22T08:36:45.000Z</time>
      </trkpt>
      <trkpt lat="44.52514" lon="0.69095">
        <ele>124.5</ele>
        <time>2017-01-22T08:36:46.000Z</time>
      </trkpt>
      <trkpt lat="44.52519" lon="0.69105">
        <ele>123.7</ele>
        <time>2017-01-22T08:36:47.000Z</time>
      </trkpt>
      <trkpt lat="44.52524" lon="0.69116">
        <ele>123</ele>
        <time>2017-01-22T08:36:48.000Z</time>
      </trkpt>
      <trkpt lat="44.52529" lon="0.69127">
        <ele>122.4</ele>
        <time>2017-01-22T08:36:49.000Z</time>
      </trkpt>
      <trkpt lat="44.52534" lon="0.69137">
        <ele>121.8</ele>
        <time>2017-01-22T08:36:50.000Z</time>
      </trkpt>
      <trkpt lat="44.52539" lon="0.69148">
        <ele>121.2</ele>
        <time>2017-01-22T08:36:51.000Z</time>
      </trkpt>
      <trkpt lat="44.52543" lon="0.69158">
        <ele>120.7</ele>
        <time>2017-01-22T08:36:52.000Z</time>
      </trkpt>
      <trkpt lat="44.52548" lon="0.69168">
        <ele>120.2</ele>
        <time>2017-01-22T08:36:53.000Z</time>
      </trkpt>
      <trkpt lat="44.52553" lon="0.69177">
        <ele>119.9</ele>
        <time>2017-01-22T08:36:54.000Z</time>
      </trkpt>
      <trkpt lat="44.52559" lon="0.69186">
        <ele>119.6</ele>
        <time>2017-01-22T08:36:55.000Z</time>
      </trkpt>
      <trkpt lat="44.52565" lon="0.69194">
        <ele>119.3</ele>
        <time>2017-01-22T08:36:56.000Z</time>
      </trkpt>
      <trkpt lat="44.5257" lon="0.69203">
        <ele>119</ele>
        <time>2017-01-22T08:36:57.000Z</time>
      </trkpt>
      <trkpt lat="44.52575" lon="0.69211">
        <ele>118.7</ele>
        <time>2017-01-22T08:36:58.000Z</time>
      </trkpt>
      <trkpt lat="44.52579" lon="0.69219">
        <ele>118.5</ele>
        <time>2017-01-22T08:36:59.000Z</time>
      </trkpt>
      <trkpt lat="44.52582" lon="0.69227">
        <ele>118.3</ele>
        <time>2017-01-22T08:37:00.000Z</time>
      </trkpt>
      <trkpt lat="44.52585" lon="0.69234">
        <ele>118.2</ele>
        <time>2017-01-22T08:37:01.000Z</time>
      </trkpt>
      <trkpt lat="44.52589" lon="0.6924">
        <ele>118.3</ele>
        <time>2017-01-22T08:37:02.000Z</time>
      </trkpt>
      <trkpt lat="44.52592" lon="0.69246">
        <ele>118.3</ele>
        <time>2017-01-22T08:37:03.000Z</time>
      </trkpt>
      <trkpt lat="44.52595" lon="0.69251">
        <ele>118.5</ele>
        <time>2017-01-22T08:37:04.000Z</time>
      </trkpt>
      <trkpt lat="44.52598" lon="0.69256">
        <ele>118.9</ele>
        <time>2017-01-22T08:37:05.000Z</time>
      </trkpt>
      <trkpt lat="44.52602" lon="0.6926">
        <ele>119.3</ele>
        <time>2017-01-22T08:37:06.000Z</time>
      </trkpt>
      <trkpt lat="44.52606" lon="0.69265">
        <ele>119.7</ele>
        <time>2017-01-22T08:37:07.000Z</time>
      </trkpt>
      <trkpt lat="44.52609" lon="0.6927">
        <ele>120.2</ele>
        <time>2017-01-22T08:37:08.000Z</time>
      </trkpt>
      <trkpt lat="44.52612" lon="0.69275">
        <ele>120.7</ele>
        <time>2017-01-22T08:37:09.000Z</time>
      </trkpt>
      <trkpt lat="44.52615" lon="0.69281">
        <ele>121.2</ele>
        <time>2017-01-22T08:37:10.000Z</time>
      </trkpt>
      <trkpt lat="44.52618" lon="0.69288">
        <ele>121.7</ele>
        <time>2017-01-22T08:37:11.000Z</time>
      </trkpt>
      <trkpt lat="44.5262" lon="0.69295">
        <ele>122.2</ele>
        <time>2017-01-22T08:37:12.000Z</time>
      </trkpt>
      <trkpt lat="44.52622" lon="0.69301">
        <ele>122.7</ele>
        <time>2017-01-22T08:37:13.000Z</time>
      </trkpt>
      <trkpt lat="44.52624" lon="0.69307">
        <ele>123.2</ele>
        <time>2017-01-22T08:37:14.000Z</time>
      </trkpt>
      <trkpt lat="44.52625" lon="0.69312">
        <ele>123.6</ele>
        <time>2017-01-22T08:37:15.000Z</time>
      </trkpt>
      <trkpt lat="44.52627" lon="0.69316">
        <ele>124</ele>
        <time>2017-01-22T08:37:16.000Z</time>
      </trkpt>
      <trkpt lat="44.52628" lon="0.6932">
        <ele>124.2</ele>
        <time>2017-01-22T08:37:17.000Z</time>
      </trkpt>
      <trkpt lat="44.52629" lon="0.69323">
        <ele>124.5</ele>
        <time>2017-01-22T08:37:18.000Z</time>
      </trkpt>
      <trkpt lat="44.52629" lon="0.69325">
        <ele>124.7</ele>
        <time>2017-01-22T08:37:19.000Z</time>
      </trkpt>
      <trkpt lat="44.5263" lon="0.69327">
        <ele>124.8</ele>
        <time>2017-01-22T08:37:20.000Z</time>
      </trkpt>
      <trkpt lat="44.5263" lon="0.69329">
        <ele>125</ele>
        <time>2017-01-22T08:37:21.000Z</time>
      </trkpt>
      <trkpt lat="44.52631" lon="0.69331">
        <ele>125.1</ele>
        <time>2017-01-22T08:37:22.000Z</time>
      </trkpt>
      <trkpt lat="44.52632" lon="0.69333">
        <ele>125.3</ele>
        <time>2017-01-22T08:37:23.000Z</time>
      </trkpt>
      <trkpt lat="44.52632" lon="0.69335">
        <ele>125.5</ele>
        <time>2017-01-22T08:37:24.000Z</time>
      </trkpt>
      <trkpt lat="44.52633" lon="0.69337">
        <ele>125.7</ele>
        <time>2017-01-22T08:37:25.000Z</time>
      </trkpt>
      <trkpt lat="44.52634" lon="0.69339">
        <ele>125.9</ele>
        <time>2017-01-22T08:37:26.000Z</time>
      </trkpt>
      <trkpt lat="44.52634" lon="0.69341">
        <ele>126.1</ele>
        <time>2017-01-22T08:37:27.000Z</time>
      </trkpt>
      <trkpt lat="44.52635" lon="0.69343">
        <ele>126.2</ele>
        <time>2017-01-22T08:37:28.000Z</time>
      </trkpt>
      <trkpt lat="44.52635" lon="0.69345">
        <ele>126.4</ele>
        <time>2017-01-22T08:37:29.000Z</time>
      </trkpt>
      <trkpt lat="44.52636" lon="0.69347">
        <ele>126.6</ele>
        <time>2017-01-22T08:37:30.000Z</time>
      </trkpt>
      <trkpt lat="44.52637" lon="0.69349">
        <ele>126.8</ele>
        <time>2017-01-22T08:37:31.000Z</time>
      </trkpt>
      <trkpt lat="44.52637" lon="0.69351">
        <ele>127</ele>
        <time>2017-01-22T08:37:32.000Z</time>
      </trkpt>
      <trkpt lat="44.52638" lon="0.69354">
        <ele>127.2</ele>
        <time>2017-01-22T08:37:33.000Z</time>
      </trkpt>
      <trkpt lat="44.52639" lon="0.69356">
        <ele>127.4</ele>
        <time>2017-01-22T08:37:34.000Z</time>
      </trkpt>
      <trkpt lat="44.52639" lon="0.69358">
        <ele>127.6</ele>
        <time>2017-01-22T08:37:35.000Z</time>
      </trkpt>
      <trkpt lat="44.5264" lon="0.6936">
        <ele>127.8</ele>
        <time>2017-01-22T08:37:36.000Z</time>
      </trkpt>
      <trkpt lat="44.5264" lon="0.69362">
        <ele>128</ele>
        <time>2017-01-22T08:37:37.000Z</time>
      </trkpt>
      <trkpt lat="44.52641" lon="0.69363">
        <ele>128.2</ele>
        <time>2017-01-22T08:37:38.000Z</time>
      </trkpt>
      <trkpt lat="44.52641" lon="0.69365">
        <ele>128.4</ele>
        <time>2017-01-22T08:37:39.000Z</time>
      </trkpt>
      <trkpt lat="44.52642" lon="0.69367">
        <ele>128.5</ele>
        <time>2017-01-22T08:37:40.000Z</time>
      </trkpt>
      <trkpt lat="44.52642" lon="0.69369">
        <ele>128.7</ele>
        <time>2017-01-22T08:37:41.000Z</time>
      </trkpt>
      <trkpt lat="44.52643" lon="0.69371">
        <ele>128.9</ele>
        <time>2017-01-22T08:37:42.000Z</time>
      </trkpt>
      <trkpt lat="44.52643" lon="0.69373">
        <ele>129.1</ele>
        <time>2017-01-22T08:37:43.000Z</time>
      </trkpt>
      <trkpt lat="44.52644" lon="0.69375">
        <ele>129.2</ele>
        <time>2017-01-22T08:37:44.000Z</time>
      </trkpt>
      <trkpt lat="44.52644" lon="0.69376">
        <ele>129.4</ele>
        <time>2017-01-22T08:37:45.000Z</time>
      </trkpt>
      <trkpt lat="44.52645" lon="0.69378">
        <ele>129.5</ele>
        <time>2017-01-22T08:37:46.000Z</time>
      </trkpt>
      <trkpt lat="44.52645" lon="0.6938">
        <ele>129.7</ele>
        <time>2017-01-22T08:37:47.000Z</time>
      </trkpt>
      <trkpt lat="44.52646" lon="0.69381">
        <ele>129.9</ele>
        <time>2017-01-22T08:37:48.000Z</time>
      </trkpt>
      <trkpt lat="44.52646" lon="0.69383">
        <ele>130</ele>
        <time>2017-01-22T08:37:49.000Z</time>
      </trkpt>
      <trkpt lat="44.52646" lon="0.69385">
        <ele>130.2</ele>
        <time>2017-01-22T08:37:50.000Z</time>
      </trkpt>
      <trkpt lat="44.52647" lon="0.69386">
        <ele>130.3</ele>
        <time>2017-01-22T08:37:51.000Z</time>
      </trkpt>
      <trkpt lat="44.52647" lon="0.69388">
        <ele>130.5</ele>
        <time>2017-01-22T08:37:52.000Z</time>
      </trkpt>
      <trkpt lat="44.52648" lon="0.6939">
        <ele>130.7</ele>
        <time>2017-01-22T08:37:53.000Z</time>
      </trkpt>
      <trkpt lat="44.52648" lon="0.69392">
        <ele>130.9</ele>
        <time>2017-01-22T08:37:54.000Z</time>
      </trkpt>
      <trkpt lat="44.52648" lon="0.69394">
        <ele>131</ele>
        <time>2017-01-22T08:37:55.000Z</time>
      </trkpt>
      <trkpt lat="44.52649" lon="0.69395">
        <ele>131.2</ele>
        <time>2017-01-22T08:37:56.000Z</time>
      </trkpt>
      <trkpt lat="44.52648" lon="0.69397">
        <ele>131.3</ele>
        <time>2017-01-22T08:37:57.000Z</time>
      </trkpt>
      <trkpt lat="44.52648" lon="0.69399">
        <ele>131.5</ele>
        <time>2017-01-22T08:37:58.000Z</time>
      </trkpt>
      <trkpt lat="44.52648" lon="0.69401">
        <ele>131.6</ele>
        <time>2017-01-22T08:37:59.000Z</time>
      </trkpt>
      <trkpt lat="44.52648" lon="0.69404">
        <ele>131.8</ele>
        <time>2017-01-22T08:38:00.000Z</time>
      </trkpt>
      <trkpt lat="44.52648" lon="0.69406">
        <ele>132</ele>
        <time>2017-01-22T08:38:01.000Z</time>
      </trkpt>
      <trkpt lat="44.52649" lon="0.69408">
        <ele>132.3</ele>
        <time>2017-01-22T08:38:02.000Z</time>
      </trkpt>
      <trkpt lat="44.5265" lon="0.69411">
        <ele>132.5</ele>
        <time>2017-01-22T08:38:03.000Z</time>
      </trkpt>
      <trkpt lat="44.52651" lon="0.69413">
        <ele>132.7</ele>
        <time>2017-01-22T08:38:04.000Z</time>
      </trkpt>
      <trkpt lat="44.52651" lon="0.69415">
        <ele>132.9</ele>
        <time>2017-01-22T08:38:05.000Z</time>
      </trkpt>
      <trkpt lat="44.52652" lon="0.69418">
        <ele>133.1</ele>
        <time>2017-01-22T08:38:06.000Z</time>
      </trkpt>
      <trkpt lat="44.52653" lon="0.69421">
        <ele>133.1</ele>
        <time>2017-01-22T08:38:07.000Z</time>
      </trkpt>
      <trkpt lat="44.52654" lon="0.69424">
        <ele>133.2</ele>
        <time>2017-01-22T08:38:08.000Z</time>
      </trkpt>
      <trkpt lat="44.52655" lon="0.69428">
        <ele>133.2</ele>
        <time>2017-01-22T08:38:09.000Z</time>
      </trkpt>
      <trkpt lat="44.52656" lon="0.69432">
        <ele>133.2</ele>
        <time>2017-01-22T08:38:10.000Z</time>
      </trkpt>
      <trkpt lat="44.52657" lon="0.69437">
        <ele>133.2</ele>
        <time>2017-01-22T08:38:11.000Z</time>
      </trkpt>
      <trkpt lat="44.52658" lon="0.69442">
        <ele>133.2</ele>
        <time>2017-01-22T08:38:12.000Z</time>
      </trkpt>
      <trkpt lat="44.52659" lon="0.69449">
        <ele>133.2</ele>
        <time>2017-01-22T08:38:13.000Z</time>
      </trkpt>
      <trkpt lat="44.52661" lon="0.69456">
        <ele>133.2</ele>
        <time>2017-01-22T08:38:14.000Z</time>
      </trkpt>
      <trkpt lat="44.52662" lon="0.69463">
        <ele>133.2</ele>
        <time>2017-01-22T08:38:15.000Z</time>
      </trkpt>
      <trkpt lat="44.52664" lon="0.69472">
        <ele>133.2</ele>
        <time>2017-01-22T08:38:16.000Z</time>
      </trkpt>
      <trkpt lat="44.52666" lon="0.6948">
        <ele>133.2</ele>
        <time>2017-01-22T08:38:17.000Z</time>
      </trkpt>
      <trkpt lat="44.52668" lon="0.6949">
        <ele>133</ele>
        <time>2017-01-22T08:38:18.000Z</time>
      </trkpt>
      <trkpt lat="44.5267" lon="0.695">
        <ele>132.6</ele>
        <time>2017-01-22T08:38:19.000Z</time>
      </trkpt>
      <trkpt lat="44.52672" lon="0.69511">
        <ele>131.8</ele>
        <time>2017-01-22T08:38:20.000Z</time>
      </trkpt>
      <trkpt lat="44.52675" lon="0.69522">
        <ele>130.9</ele>
        <time>2017-01-22T08:38:21.000Z</time>
      </trkpt>
      <trkpt lat="44.52677" lon="0.69534">
        <ele>130.1</ele>
        <time>2017-01-22T08:38:22.000Z</time>
      </trkpt>
      <trkpt lat="44.52679" lon="0.69545">
        <ele>129.3</ele>
        <time>2017-01-22T08:38:23.000Z</time>
      </trkpt>
      <trkpt lat="44.52681" lon="0.69557">
        <ele>128.6</ele>
        <time>2017-01-22T08:38:24.000Z</time>
      </trkpt>
      <trkpt lat="44.52683" lon="0.69567">
        <ele>128</ele>
        <time>2017-01-22T08:38:25.000Z</time>
      </trkpt>
      <trkpt lat="44.52685" lon="0.69578">
        <ele>127.4</ele>
        <time>2017-01-22T08:38:26.000Z</time>
      </trkpt>
      <trkpt lat="44.52686" lon="0.69588">
        <ele>126.7</ele>
        <time>2017-01-22T08:38:27.000Z</time>
      </trkpt>
      <trkpt lat="44.52687" lon="0.69599">
        <ele>125.8</ele>
        <time>2017-01-22T08:38:28.000Z</time>
      </trkpt>
      <trkpt lat="44.52689" lon="0.69609">
        <ele>124.8</ele>
        <time>2017-01-22T08:38:29.000Z</time>
      </trkpt>
      <trkpt lat="44.5269" lon="0.6962">
        <ele>123.9</ele>
        <time>2017-01-22T08:38:30.000Z</time>
      </trkpt>
      <trkpt lat="44.52691" lon="0.69631">
        <ele>123</ele>
        <time>2017-01-22T08:38:31.000Z</time>
      </trkpt>
      <trkpt lat="44.52693" lon="0.69641">
        <ele>122.2</ele>
        <time>2017-01-22T08:38:32.000Z</time>
      </trkpt>
      <trkpt lat="44.52694" lon="0.6965">
        <ele>121.3</ele>
        <time>2017-01-22T08:38:33.000Z</time>
      </trkpt>
      <trkpt lat="44.52696" lon="0.69659">
        <ele>120.6</ele>
        <time>2017-01-22T08:38:34.000Z</time>
      </trkpt>
      <trkpt lat="44.52697" lon="0.69666">
        <ele>119.9</ele>
        <time>2017-01-22T08:38:35.000Z</time>
      </trkpt>
      <trkpt lat="44.52699" lon="0.69674">
        <ele>119.4</ele>
        <time>2017-01-22T08:38:36.000Z</time>
      </trkpt>
      <trkpt lat="44.527" lon="0.69681">
        <ele>119</ele>
        <time>2017-01-22T08:38:37.000Z</time>
      </trkpt>
      <trkpt lat="44.52702" lon="0.69689">
        <ele>118.5</ele>
        <time>2017-01-22T08:38:38.000Z</time>
      </trkpt>
      <trkpt lat="44.52703" lon="0.69696">
        <ele>118.1</ele>
        <time>2017-01-22T08:38:39.000Z</time>
      </trkpt>
      <trkpt lat="44.52705" lon="0.69704">
        <ele>117.6</ele>
        <time>2017-01-22T08:38:40.000Z</time>
      </trkpt>
      <trkpt lat="44.52707" lon="0.69711">
        <ele>117.1</ele>
        <time>2017-01-22T08:38:41.000Z</time>
      </trkpt>
      <trkpt lat="44.52708" lon="0.69719">
        <ele>116.7</ele>
        <time>2017-01-22T08:38:42.000Z</time>
      </trkpt>
      <trkpt lat="44.5271" lon="0.69727">
        <ele>116.2</ele>
        <time>2017-01-22T08:38:43.000Z</time>
      </trkpt>
      <trkpt lat="44.52711" lon="0.69734">
        <ele>115.8</ele>
        <time>2017-01-22T08:38:44.000Z</time>
      </trkpt>
      <trkpt lat="44.52713" lon="0.69742">
        <ele>115.3</ele>
        <time>2017-01-22T08:38:45.000Z</time>
      </trkpt>
      <trkpt lat="44.52715" lon="0.69749">
        <ele>114.9</ele>
        <time>2017-01-22T08:38:46.000Z</time>
      </trkpt>
      <trkpt lat="44.52717" lon="0.69755">
        <ele>114.7</ele>
        <time>2017-01-22T08:38:47.000Z</time>
      </trkpt>
      <trkpt lat="44.52719" lon="0.69761">
        <ele>114.5</ele>
        <time>2017-01-22T08:38:48.000Z</time>
      </trkpt>
      <trkpt lat="44.5272" lon="0.69766">
        <ele>114.3</ele>
        <time>2017-01-22T08:38:49.000Z</time>
      </trkpt>
      <trkpt lat="44.52721" lon="0.69769">
        <ele>114.2</ele>
        <time>2017-01-22T08:38:50.000Z</time>
      </trkpt>
      <trkpt lat="44.52721" lon="0.69772">
        <ele>114.2</ele>
        <time>2017-01-22T08:38:51.000Z</time>
      </trkpt>
      <trkpt lat="44.52721" lon="0.69774">
        <ele>114.1</ele>
        <time>2017-01-22T08:38:52.000Z</time>
      </trkpt>
      <trkpt lat="44.5272" lon="0.69775">
        <ele>114.1</ele>
        <time>2017-01-22T08:38:53.000Z</time>
      </trkpt>
      <trkpt lat="44.52718" lon="0.69777">
        <ele>114.1</ele>
        <time>2017-01-22T08:38:54.000Z</time>
      </trkpt>
      <trkpt lat="44.52716" lon="0.69778">
        <ele>114.2</ele>
        <time>2017-01-22T08:38:55.000Z</time>
      </trkpt>
      <trkpt lat="44.52714" lon="0.69779">
        <ele>114.2</ele>
        <time>2017-01-22T08:38:56.000Z</time>
      </trkpt>
      <trkpt lat="44.52711" lon="0.6978">
        <ele>114.2</ele>
        <time>2017-01-22T08:38:57.000Z</time>
      </trkpt>
      <trkpt lat="44.52708" lon="0.6978">
        <ele>114.3</ele>
        <time>2017-01-22T08:38:58.000Z</time>
      </trkpt>
      <trkpt lat="44.52705" lon="0.69781">
        <ele>114.3</ele>
        <time>2017-01-22T08:38:59.000Z</time>
      </trkpt>
      <trkpt lat="44.52702" lon="0.69783">
        <ele>114.4</ele>
        <time>2017-01-22T08:39:00.000Z</time>
      </trkpt>
      <trkpt lat="44.52699" lon="0.69784">
        <ele>114.4</ele>
        <time>2017-01-22T08:39:01.000Z</time>
      </trkpt>
      <trkpt lat="44.52696" lon="0.69785">
        <ele>114.4</ele>
        <time>2017-01-22T08:39:02.000Z</time>
      </trkpt>
      <trkpt lat="44.52693" lon="0.69787">
        <ele>114.5</ele>
        <time>2017-01-22T08:39:03.000Z</time>
      </trkpt>
      <trkpt lat="44.52691" lon="0.69788">
        <ele>114.5</ele>
        <time>2017-01-22T08:39:04.000Z</time>
      </trkpt>
      <trkpt lat="44.52688" lon="0.69789">
        <ele>114.6</ele>
        <time>2017-01-22T08:39:05.000Z</time>
      </trkpt>
      <trkpt lat="44.52685" lon="0.6979">
        <ele>114.6</ele>
        <time>2017-01-22T08:39:06.000Z</time>
      </trkpt>
      <trkpt lat="44.52682" lon="0.69791">
        <ele>114.7</ele>
        <time>2017-01-22T08:39:07.000Z</time>
      </trkpt>
      <trkpt lat="44.52679" lon="0.69792">
        <ele>114.7</ele>
        <time>2017-01-22T08:39:08.000Z</time>
      </trkpt>
      <trkpt lat="44.52677" lon="0.69795">
        <ele>114.7</ele>
        <time>2017-01-22T08:39:09.000Z</time>
      </trkpt>
      <trkpt lat="44.52675" lon="0.69797">
        <ele>114.7</ele>
        <time>2017-01-22T08:39:10.000Z</time>
      </trkpt>
      <trkpt lat="44.52674" lon="0.69801">
        <ele>114.6</ele>
        <time>2017-01-22T08:39:11.000Z</time>
      </trkpt>
      <trkpt lat="44.52674" lon="0.69805">
        <ele>114.5</ele>
        <time>2017-01-22T08:39:12.000Z</time>
      </trkpt>
      <trkpt lat="44.52675" lon="0.6981">
        <ele>114.4</ele>
        <time>2017-01-22T08:39:13.000Z</time>
      </trkpt>
      <trkpt lat="44.52676" lon="0.69814">
        <ele>114.2</ele>
        <time>2017-01-22T08:39:14.000Z</time>
      </trkpt>
      <trkpt lat="44.52677" lon="0.69818">
        <ele>114.1</ele>
        <time>2017-01-22T08:39:15.000Z</time>
      </trkpt>
      <trkpt lat="44.52678" lon="0.69822">
        <ele>114</ele>
        <time>2017-01-22T08:39:16.000Z</time>
      </trkpt>
      <trkpt lat="44.52679" lon="0.69827">
        <ele>113.9</ele>
        <time>2017-01-22T08:39:17.000Z</time>
      </trkpt>
      <trkpt lat="44.52679" lon="0.69831">
        <ele>113.8</ele>
        <time>2017-01-22T08:39:18.000Z</time>
      </trkpt>
      <trkpt lat="44.5268" lon="0.69835">
        <ele>113.7</ele>
        <time>2017-01-22T08:39:19.000Z</time>
      </trkpt>
      <trkpt lat="44.52681" lon="0.6984">
        <ele>113.7</ele>
        <time>2017-01-22T08:39:20.000Z</time>
      </trkpt>
      <trkpt lat="44.52681" lon="0.69844">
        <ele>113.6</ele>
        <time>2017-01-22T08:39:21.000Z</time>
      </trkpt>
      <trkpt lat="44.52682" lon="0.69848">
        <ele>113.6</ele>
        <time>2017-01-22T08:39:22.000Z</time>
      </trkpt>
      <trkpt lat="44.52683" lon="0.69853">
        <ele>113.6</ele>
        <time>2017-01-22T08:39:23.000Z</time>
      </trkpt>
      <trkpt lat="44.52684" lon="0.69857">
        <ele>113.6</ele>
        <time>2017-01-22T08:39:24.000Z</time>
      </trkpt>
      <trkpt lat="44.52685" lon="0.69862">
        <ele>113.6</ele>
        <time>2017-01-22T08:39:25.000Z</time>
      </trkpt>
      <trkpt lat="44.52686" lon="0.69866">
        <ele>113.5</ele>
        <time>2017-01-22T08:39:26.000Z</time>
      </trkpt>
      <trkpt lat="44.52687" lon="0.69871">
        <ele>113.5</ele>
        <time>2017-01-22T08:39:27.000Z</time>
      </trkpt>
      <trkpt lat="44.52688" lon="0.69876">
        <ele>113.5</ele>
        <time>2017-01-22T08:39:28.000Z</time>
      </trkpt>
      <trkpt lat="44.52689" lon="0.6988">
        <ele>113.5</ele>
        <time>2017-01-22T08:39:29.000Z</time>
      </trkpt>
      <trkpt lat="44.52691" lon="0.69885">
        <ele>113.4</ele>
        <time>2017-01-22T08:39:30.000Z</time>
      </trkpt>
      <trkpt lat="44.52692" lon="0.6989">
        <ele>113.4</ele>
        <time>2017-01-22T08:39:31.000Z</time>
      </trkpt>
      <trkpt lat="44.52693" lon="0.69895">
        <ele>113.4</ele>
        <time>2017-01-22T08:39:32.000Z</time>
      </trkpt>
      <trkpt lat="44.52695" lon="0.699">
        <ele>113.3</ele>
        <time>2017-01-22T08:39:33.000Z</time>
      </trkpt>
      <trkpt lat="44.52696" lon="0.69905">
        <ele>113.3</ele>
        <time>2017-01-22T08:39:34.000Z</time>
      </trkpt>
      <trkpt lat="44.52698" lon="0.6991">
        <ele>113.3</ele>
        <time>2017-01-22T08:39:35.000Z</time>
      </trkpt>
      <trkpt lat="44.52699" lon="0.69916">
        <ele>113.2</ele>
        <time>2017-01-22T08:39:36.000Z</time>
      </trkpt>
      <trkpt lat="44.527" lon="0.69921">
        <ele>113.3</ele>
        <time>2017-01-22T08:39:37.000Z</time>
      </trkpt>
      <trkpt lat="44.52702" lon="0.69926">
        <ele>113.3</ele>
        <time>2017-01-22T08:39:38.000Z</time>
      </trkpt>
      <trkpt lat="44.52703" lon="0.69931">
        <ele>113.4</ele>
        <time>2017-01-22T08:39:39.000Z</time>
      </trkpt>
      <trkpt lat="44.52704" lon="0.69937">
        <ele>113.5</ele>
        <time>2017-01-22T08:39:40.000Z</time>
      </trkpt>
      <trkpt lat="44.52705" lon="0.69942">
        <ele>113.5</ele>
        <time>2017-01-22T08:39:41.000Z</time>
      </trkpt>
      <trkpt lat="44.52705" lon="0.69947">
        <ele>113.6</ele>
        <time>2017-01-22T08:39:42.000Z</time>
      </trkpt>
      <trkpt lat="44.52705" lon="0.69952">
        <ele>113.7</ele>
        <time>2017-01-22T08:39:43.000Z</time>
      </trkpt>
      <trkpt lat="44.52705" lon="0.69958">
        <ele>113.8</ele>
        <time>2017-01-22T08:39:44.000Z</time>
      </trkpt>
      <trkpt lat="44.52705" lon="0.69963">
        <ele>113.9</ele>
        <time>2017-01-22T08:39:45.000Z</time>
      </trkpt>
      <trkpt lat="44.52704" lon="0.69968">
        <ele>114</ele>
        <time>2017-01-22T08:39:46.000Z</time>
      </trkpt>
      <trkpt lat="44.52704" lon="0.69973">
        <ele>114.1</ele>
        <time>2017-01-22T08:39:47.000Z</time>
      </trkpt>
      <trkpt lat="44.52703" lon="0.69978">
        <ele>114.2</ele>
        <time>2017-01-22T08:39:48.000Z</time>
      </trkpt>
      <trkpt lat="44.52703" lon="0.69984">
        <ele>114.3</ele>
        <time>2017-01-22T08:39:49.000Z</time>
      </trkpt>
      <trkpt lat="44.52702" lon="0.69989">
        <ele>114.4</ele>
        <time>2017-01-22T08:39:50.000Z</time>
      </trkpt>
      <trkpt lat="44.52702" lon="0.69994">
        <ele>114.5</ele>
        <time>2017-01-22T08:39:51.000Z</time>
      </trkpt>
      <trkpt lat="44.52702" lon="0.69998">
        <ele>114.6</ele>
        <time>2017-01-22T08:39:52.000Z</time>
      </trkpt>
      <trkpt lat="44.52701" lon="0.70003">
        <ele>114.7</ele>
        <time>2017-01-22T08:39:53.000Z</time>
      </trkpt>
      <trkpt lat="44.52701" lon="0.70008">
        <ele>114.9</ele>
        <time>2017-01-22T08:39:54.000Z</time>
      </trkpt>
      <trkpt lat="44.527" lon="0.70013">
        <ele>115.2</ele>
        <time>2017-01-22T08:39:55.000Z</time>
      </trkpt>
      <trkpt lat="44.527" lon="0.70017">
        <ele>115.4</ele>
        <time>2017-01-22T08:39:56.000Z</time>
      </trkpt>
      <trkpt lat="44.52699" lon="0.70022">
        <ele>115.6</ele>
        <time>2017-01-22T08:39:57.000Z</time>
      </trkpt>
      <trkpt lat="44.52699" lon="0.70026">
        <ele>115.8</ele>
        <time>2017-01-22T08:39:58.000Z</time>
      </trkpt>
      <trkpt lat="44.52698" lon="0.70031">
        <ele>116</ele>
        <time>2017-01-22T08:39:59.000Z</time>
      </trkpt>
      <trkpt lat="44.52698" lon="0.70035">
        <ele>116.2</ele>
        <time>2017-01-22T08:40:00.000Z</time>
      </trkpt>
      <trkpt lat="44.52698" lon="0.7004">
        <ele>116.4</ele>
        <time>2017-01-22T08:40:01.000Z</time>
      </trkpt>
      <trkpt lat="44.52697" lon="0.70044">
        <ele>116.6</ele>
        <time>2017-01-22T08:40:02.000Z</time>
      </trkpt>
      <trkpt lat="44.52697" lon="0.70049">
        <ele>116.8</ele>
        <time>2017-01-22T08:40:03.000Z</time>
      </trkpt>
      <trkpt lat="44.52696" lon="0.70053">
        <ele>117</ele>
        <time>2017-01-22T08:40:04.000Z</time>
      </trkpt>
      <trkpt lat="44.52696" lon="0.70058">
        <ele>117.2</ele>
        <time>2017-01-22T08:40:05.000Z</time>
      </trkpt>
      <trkpt lat="44.52695" lon="0.70062">
        <ele>117.4</ele>
        <time>2017-01-22T08:40:06.000Z</time>
      </trkpt>
      <trkpt lat="44.52695" lon="0.70067">
        <ele>117.6</ele>
        <time>2017-01-22T08:40:07.000Z</time>
      </trkpt>
      <trkpt lat="44.52694" lon="0.70071">
        <ele>117.8</ele>
        <time>2017-01-22T08:40:08.000Z</time>
      </trkpt>
      <trkpt lat="44.52693" lon="0.70076">
        <ele>118</ele>
        <time>2017-01-22T08:40:09.000Z</time>
      </trkpt>
      <trkpt lat="44.52693" lon="0.70081">
        <ele>118.2</ele>
        <time>2017-01-22T08:40:10.000Z</time>
      </trkpt>
      <trkpt lat="44.52692" lon="0.70086">
        <ele>118.5</ele>
        <time>2017-01-22T08:40:11.000Z</time>
      </trkpt>
      <trkpt lat="44.52692" lon="0.7009">
        <ele>118.8</ele>
        <time>2017-01-22T08:40:12.000Z</time>
      </trkpt>
      <trkpt lat="44.52691" lon="0.70095">
        <ele>119.2</ele>
        <time>2017-01-22T08:40:13.000Z</time>
      </trkpt>
      <trkpt lat="44.52691" lon="0.701">
        <ele>119.6</ele>
        <time>2017-01-22T08:40:14.000Z</time>
      </trkpt>
      <trkpt lat="44.5269" lon="0.70105">
        <ele>119.9</ele>
        <time>2017-01-22T08:40:15.000Z</time>
      </trkpt>
      <trkpt lat="44.5269" lon="0.7011">
        <ele>120.3</ele>
        <time>2017-01-22T08:40:16.000Z</time>
      </trkpt>
      <trkpt lat="44.52689" lon="0.70115">
        <ele>120.7</ele>
        <time>2017-01-22T08:40:17.000Z</time>
      </trkpt>
      <trkpt lat="44.52689" lon="0.7012">
        <ele>121.1</ele>
        <time>2017-01-22T08:40:18.000Z</time>
      </trkpt>
      <trkpt lat="44.52688" lon="0.70124">
        <ele>121.4</ele>
        <time>2017-01-22T08:40:19.000Z</time>
      </trkpt>
      <trkpt lat="44.52688" lon="0.70129">
        <ele>121.8</ele>
        <time>2017-01-22T08:40:20.000Z</time>
      </trkpt>
      <trkpt lat="44.52687" lon="0.70133">
        <ele>122.1</ele>
        <time>2017-01-22T08:40:21.000Z</time>
      </trkpt>
      <trkpt lat="44.52687" lon="0.70137">
        <ele>122.4</ele>
        <time>2017-01-22T08:40:22.000Z</time>
      </trkpt>
      <trkpt lat="44.52687" lon="0.70141">
        <ele>122.7</ele>
        <time>2017-01-22T08:40:23.000Z</time>
      </trkpt>
      <trkpt lat="44.52686" lon="0.70144">
        <ele>123</ele>
        <time>2017-01-22T08:40:24.000Z</time>
      </trkpt>
      <trkpt lat="44.52686" lon="0.70147">
        <ele>123.2</ele>
        <time>2017-01-22T08:40:25.000Z</time>
      </trkpt>
      <trkpt lat="44.52686" lon="0.7015">
        <ele>123.5</ele>
        <time>2017-01-22T08:40:26.000Z</time>
      </trkpt>
      <trkpt lat="44.52686" lon="0.70153">
        <ele>123.7</ele>
        <time>2017-01-22T08:40:27.000Z</time>
      </trkpt>
      <trkpt lat="44.52686" lon="0.70155">
        <ele>123.8</ele>
        <time>2017-01-22T08:40:28.000Z</time>
      </trkpt>
      <trkpt lat="44.52686" lon="0.70157">
        <ele>124</ele>
        <time>2017-01-22T08:40:29.000Z</time>
      </trkpt>
      <trkpt lat="44.52686" lon="0.70159">
        <ele>124.2</ele>
        <time>2017-01-22T08:40:30.000Z</time>
      </trkpt>
      <trkpt lat="44.52687" lon="0.70161">
        <ele>124.3</ele>
        <time>2017-01-22T08:40:31.000Z</time>
      </trkpt>
      <trkpt lat="44.52687" lon="0.70164">
        <ele>124.5</ele>
        <time>2017-01-22T08:40:32.000Z</time>
      </trkpt>
      <trkpt lat="44.52688" lon="0.70166">
        <ele>124.7</ele>
        <time>2017-01-22T08:40:33.000Z</time>
      </trkpt>
      <trkpt lat="44.52689" lon="0.70168">
        <ele>124.8</ele>
        <time>2017-01-22T08:40:34.000Z</time>
      </trkpt>
      <trkpt lat="44.5269" lon="0.7017">
        <ele>124.9</ele>
        <time>2017-01-22T08:40:35.000Z</time>
      </trkpt>
      <trkpt lat="44.52691" lon="0.70172">
        <ele>125</ele>
        <time>2017-01-22T08:40:36.000Z</time>
      </trkpt>
      <trkpt lat="44.52692" lon="0.70174">
        <ele>125</ele>
        <time>2017-01-22T08:40:37.000Z</time>
      </trkpt>
      <trkpt lat="44.52693" lon="0.70176">
        <ele>125.1</ele>
        <time>2017-01-22T08:40:38.000Z</time>
      </trkpt>
      <trkpt lat="44.52695" lon="0.70178">
        <ele>125.2</ele>
        <time>2017-01-22T08:40:39.000Z</time>
      </trkpt>
      <trkpt lat="44.52696" lon="0.70179">
        <ele>125.2</ele>
        <time>2017-01-22T08:40:40.000Z</time>
      </trkpt>
      <trkpt lat="44.52697" lon="0.70181">
        <ele>125.2</ele>
        <time>2017-01-22T08:40:41.000Z</time>
      </trkpt>
      <trkpt lat="44.52699" lon="0.70182">
        <ele>125.3</ele>
        <time>2017-01-22T08:40:42.000Z</time>
      </trkpt>
      <trkpt lat="44.527" lon="0.70184">
        <ele>125.3</ele>
        <time>2017-01-22T08:40:43.000Z</time>
      </trkpt>
      <trkpt lat="44.52701" lon="0.70186">
        <ele>125.3</ele>
        <time>2017-01-22T08:40:44.000Z</time>
      </trkpt>
      <trkpt lat="44.52703" lon="0.70188">
        <ele>125.4</ele>
        <time>2017-01-22T08:40:45.000Z</time>
      </trkpt>
      <trkpt lat="44.52704" lon="0.7019">
        <ele>125.5</ele>
        <time>2017-01-22T08:40:46.000Z</time>
      </trkpt>
      <trkpt lat="44.52706" lon="0.70193">
        <ele>125.5</ele>
        <time>2017-01-22T08:40:47.000Z</time>
      </trkpt>
      <trkpt lat="44.52707" lon="0.70196">
        <ele>125.6</ele>
        <time>2017-01-22T08:40:48.000Z</time>
      </trkpt>
      <trkpt lat="44.52708" lon="0.70198">
        <ele>125.6</ele>
        <time>2017-01-22T08:40:49.000Z</time>
      </trkpt>
      <trkpt lat="44.52709" lon="0.702">
        <ele>125.7</ele>
        <time>2017-01-22T08:40:50.000Z</time>
      </trkpt>
      <trkpt lat="44.5271" lon="0.70203">
        <ele>125.7</ele>
        <time>2017-01-22T08:40:51.000Z</time>
      </trkpt>
      <trkpt lat="44.52711" lon="0.70205">
        <ele>125.8</ele>
        <time>2017-01-22T08:40:52.000Z</time>
      </trkpt>
      <trkpt lat="44.52713" lon="0.70207">
        <ele>125.8</ele>
        <time>2017-01-22T08:40:53.000Z</time>
      </trkpt>
      <trkpt lat="44.52714" lon="0.7021">
        <ele>125.8</ele>
        <time>2017-01-22T08:40:54.000Z</time>
      </trkpt>
      <trkpt lat="44.52715" lon="0.70212">
        <ele>125.9</ele>
        <time>2017-01-22T08:40:55.000Z</time>
      </trkpt>
      <trkpt lat="44.52716" lon="0.70214">
        <ele>125.9</ele>
        <time>2017-01-22T08:40:56.000Z</time>
      </trkpt>
      <trkpt lat="44.52716" lon="0.70216">
        <ele>126</ele>
        <time>2017-01-22T08:40:57.000Z</time>
      </trkpt>
      <trkpt lat="44.52716" lon="0.70218">
        <ele>126</ele>
        <time>2017-01-22T08:40:58.000Z</time>
      </trkpt>
      <trkpt lat="44.52716" lon="0.7022">
        <ele>126.1</ele>
        <time>2017-01-22T08:40:59.000Z</time>
      </trkpt>
      <trkpt lat="44.52715" lon="0.70222">
        <ele>126.2</ele>
        <time>2017-01-22T08:41:00.000Z</time>
      </trkpt>
      <trkpt lat="44.52714" lon="0.70224">
        <ele>126.3</ele>
        <time>2017-01-22T08:41:01.000Z</time>
      </trkpt>
      <trkpt lat="44.52713" lon="0.70225">
        <ele>126.4</ele>
        <time>2017-01-22T08:41:02.000Z</time>
      </trkpt>
      <trkpt lat="44.52712" lon="0.70227">
        <ele>126.5</ele>
        <time>2017-01-22T08:41:03.000Z</time>
      </trkpt>
      <trkpt lat="44.5271" lon="0.70228">
        <ele>126.6</ele>
        <time>2017-01-22T08:41:04.000Z</time>
      </trkpt>
      <trkpt lat="44.52708" lon="0.70229">
        <ele>126.7</ele>
        <time>2017-01-22T08:41:05.000Z</time>
      </trkpt>
      <trkpt lat="44.52706" lon="0.70229">
        <ele>126.9</ele>
        <time>2017-01-22T08:41:06.000Z</time>
      </trkpt>
      <trkpt lat="44.52704" lon="0.7023">
        <ele>127</ele>
        <time>2017-01-22T08:41:07.000Z</time>
      </trkpt>
      <trkpt lat="44.52702" lon="0.70231">
        <ele>127.1</ele>
        <time>2017-01-22T08:41:08.000Z</time>
      </trkpt>
      <trkpt lat="44.527" lon="0.70232">
        <ele>127.3</ele>
        <time>2017-01-22T08:41:09.000Z</time>
      </trkpt>
      <trkpt lat="44.52697" lon="0.70233">
        <ele>127.4</ele>
        <time>2017-01-22T08:41:10.000Z</time>
      </trkpt>
      <trkpt lat="44.52695" lon="0.70233">
        <ele>127.6</ele>
        <time>2017-01-22T08:41:11.000Z</time>
      </trkpt>
      <trkpt lat="44.52693" lon="0.70234">
        <ele>127.7</ele>
        <time>2017-01-22T08:41:12.000Z</time>
      </trkpt>
      <trkpt lat="44.52691" lon="0.70235">
        <ele>127.9</ele>
        <time>2017-01-22T08:41:13.000Z</time>
      </trkpt>
      <trkpt lat="44.52688" lon="0.70236">
        <ele>128.1</ele>
        <time>2017-01-22T08:41:14.000Z</time>
      </trkpt>
      <trkpt lat="44.52685" lon="0.70237">
        <ele>128.2</ele>
        <time>2017-01-22T08:41:15.000Z</time>
      </trkpt>
      <trkpt lat="44.52683" lon="0.70238">
        <ele>128.4</ele>
        <time>2017-01-22T08:41:16.000Z</time>
      </trkpt>
      <trkpt lat="44.5268" lon="0.70239">
        <ele>128.6</ele>
        <time>2017-01-22T08:41:17.000Z</time>
      </trkpt>
      <trkpt lat="44.52677" lon="0.7024">
        <ele>128.8</ele>
        <time>2017-01-22T08:41:18.000Z</time>
      </trkpt>
      <trkpt lat="44.52674" lon="0.70241">
        <ele>129</ele>
        <time>2017-01-22T08:41:19.000Z</time>
      </trkpt>
      <trkpt lat="44.52671" lon="0.70242">
        <ele>129.2</ele>
        <time>2017-01-22T08:41:20.000Z</time>
      </trkpt>
      <trkpt lat="44.52669" lon="0.70242">
        <ele>129.4</ele>
        <time>2017-01-22T08:41:21.000Z</time>
      </trkpt>
      <trkpt lat="44.52666" lon="0.70243">
        <ele>129.6</ele>
        <time>2017-01-22T08:41:22.000Z</time>
      </trkpt>
      <trkpt lat="44.52664" lon="0.70244">
        <ele>129.7</ele>
        <time>2017-01-22T08:41:23.000Z</time>
      </trkpt>
      <trkpt lat="44.52661" lon="0.70245">
        <ele>129.8</ele>
        <time>2017-01-22T08:41:24.000Z</time>
      </trkpt>
      <trkpt lat="44.52658" lon="0.70246">
        <ele>130</ele>
        <time>2017-01-22T08:41:25.000Z</time>
      </trkpt>
      <trkpt lat="44.52656" lon="0.70247">
        <ele>130.1</ele>
        <time>2017-01-22T08:41:26.000Z</time>
      </trkpt>
      <trkpt lat="44.52653" lon="0.70248">
        <ele>130.2</ele>
        <time>2017-01-22T08:41:27.000Z</time>
      </trkpt>
      <trkpt lat="44.5265" lon="0.70249">
        <ele>130.3</ele>
        <time>2017-01-22T08:41:28.000Z</time>
      </trkpt>
      <trkpt lat="44.52648" lon="0.70249">
        <ele>130.4</ele>
        <time>2017-01-22T08:41:29.000Z</time>
      </trkpt>
      <trkpt lat="44.52645" lon="0.7025">
        <ele>130.5</ele>
        <time>2017-01-22T08:41:30.000Z</time>
      </trkpt>
      <trkpt lat="44.52642" lon="0.7025">
        <ele>130.6</ele>
        <time>2017-01-22T08:41:31.000Z</time>
      </trkpt>
      <trkpt lat="44.5264" lon="0.70251">
        <ele>130.6</ele>
        <time>2017-01-22T08:41:32.000Z</time>
      </trkpt>
      <trkpt lat="44.52637" lon="0.70251">
        <ele>130.7</ele>
        <time>2017-01-22T08:41:33.000Z</time>
      </trkpt>
      <trkpt lat="44.52634" lon="0.70252">
        <ele>130.8</ele>
        <time>2017-01-22T08:41:34.000Z</time>
      </trkpt>
      <trkpt lat="44.52631" lon="0.70252">
        <ele>130.9</ele>
        <time>2017-01-22T08:41:35.000Z</time>
      </trkpt>
      <trkpt lat="44.52628" lon="0.70252">
        <ele>130.9</ele>
        <time>2017-01-22T08:41:36.000Z</time>
      </trkpt>
      <trkpt lat="44.52625" lon="0.70253">
        <ele>131</ele>
        <time>2017-01-22T08:41:37.000Z</time>
      </trkpt>
      <trkpt lat="44.52622" lon="0.70253">
        <ele>131.1</ele>
        <time>2017-01-22T08:41:38.000Z</time>
      </trkpt>
      <trkpt lat="44.52619" lon="0.70252">
        <ele>131.1</ele>
        <time>2017-01-22T08:41:39.000Z</time>
      </trkpt>
      <trkpt lat="44.52616" lon="0.70252">
        <ele>131.2</ele>
        <time>2017-01-22T08:41:40.000Z</time>
      </trkpt>
      <trkpt lat="44.52614" lon="0.70252">
        <ele>131.3</ele>
        <time>2017-01-22T08:41:41.000Z</time>
      </trkpt>
      <trkpt lat="44.52611" lon="0.70252">
        <ele>131.3</ele>
        <time>2017-01-22T08:41:42.000Z</time>
      </trkpt>
      <trkpt lat="44.52608" lon="0.70252">
        <ele>131.4</ele>
        <time>2017-01-22T08:41:43.000Z</time>
      </trkpt>
      <trkpt lat="44.52606" lon="0.70251">
        <ele>131.4</ele>
        <time>2017-01-22T08:41:44.000Z</time>
      </trkpt>
      <trkpt lat="44.52603" lon="0.70251">
        <ele>131.5</ele>
        <time>2017-01-22T08:41:45.000Z</time>
      </trkpt>
      <trkpt lat="44.526" lon="0.70251">
        <ele>131.6</ele>
        <time>2017-01-22T08:41:46.000Z</time>
      </trkpt>
      <trkpt lat="44.52597" lon="0.70251">
        <ele>131.6</ele>
        <time>2017-01-22T08:41:47.000Z</time>
      </trkpt>
      <trkpt lat="44.52594" lon="0.70251">
        <ele>131.7</ele>
        <time>2017-01-22T08:41:48.000Z</time>
      </trkpt>
      <trkpt lat="44.52591" lon="0.70251">
        <ele>131.8</ele>
        <time>2017-01-22T08:41:49.000Z</time>
      </trkpt>
      <trkpt lat="44.52588" lon="0.70251">
        <ele>131.9</ele>
        <time>2017-01-22T08:41:50.000Z</time>
      </trkpt>
      <trkpt lat="44.52585" lon="0.70251">
        <ele>131.9</ele>
        <time>2017-01-22T08:41:51.000Z</time>
      </trkpt>
      <trkpt lat="44.52582" lon="0.70251">
        <ele>132.1</ele>
        <time>2017-01-22T08:41:52.000Z</time>
      </trkpt>
      <trkpt lat="44.52579" lon="0.70251">
        <ele>132.6</ele>
        <time>2017-01-22T08:41:53.000Z</time>
      </trkpt>
      <trkpt lat="44.52576" lon="0.70251">
        <ele>133</ele>
        <time>2017-01-22T08:41:54.000Z</time>
      </trkpt>
      <trkpt lat="44.52573" lon="0.70251">
        <ele>133.4</ele>
        <time>2017-01-22T08:41:55.000Z</time>
      </trkpt>
      <trkpt lat="44.5257" lon="0.70251">
        <ele>133.9</ele>
        <time>2017-01-22T08:41:56.000Z</time>
      </trkpt>
      <trkpt lat="44.52567" lon="0.7025">
        <ele>134.3</ele>
        <time>2017-01-22T08:41:57.000Z</time>
      </trkpt>
      <trkpt lat="44.52564" lon="0.7025">
        <ele>134.7</ele>
        <time>2017-01-22T08:41:58.000Z</time>
      </trkpt>
      <trkpt lat="44.52562" lon="0.7025">
        <ele>135.1</ele>
        <time>2017-01-22T08:41:59.000Z</time>
      </trkpt>
      <trkpt lat="44.52559" lon="0.7025">
        <ele>135.6</ele>
        <time>2017-01-22T08:42:00.000Z</time>
      </trkpt>
      <trkpt lat="44.52556" lon="0.7025">
        <ele>136</ele>
        <time>2017-01-22T08:42:01.000Z</time>
      </trkpt>
      <trkpt lat="44.52553" lon="0.7025">
        <ele>136.4</ele>
        <time>2017-01-22T08:42:02.000Z</time>
      </trkpt>
      <trkpt lat="44.5255" lon="0.70249">
        <ele>136.8</ele>
        <time>2017-01-22T08:42:03.000Z</time>
      </trkpt>
      <trkpt lat="44.52547" lon="0.70249">
        <ele>137.2</ele>
        <time>2017-01-22T08:42:04.000Z</time>
      </trkpt>
      <trkpt lat="44.52544" lon="0.70249">
        <ele>137.6</ele>
        <time>2017-01-22T08:42:05.000Z</time>
      </trkpt>
      <trkpt lat="44.52541" lon="0.70248">
        <ele>138</ele>
        <time>2017-01-22T08:42:06.000Z</time>
      </trkpt>
      <trkpt lat="44.52539" lon="0.70248">
        <ele>138.4</ele>
        <time>2017-01-22T08:42:07.000Z</time>
      </trkpt>
      <trkpt lat="44.52536" lon="0.70247">
        <ele>138.8</ele>
        <time>2017-01-22T08:42:08.000Z</time>
      </trkpt>
      <trkpt lat="44.52533" lon="0.70247">
        <ele>139.1</ele>
        <time>2017-01-22T08:42:09.000Z</time>
      </trkpt>
      <trkpt lat="44.5253" lon="0.70246">
        <ele>139.5</ele>
        <time>2017-01-22T08:42:10.000Z</time>
      </trkpt>
      <trkpt lat="44.52527" lon="0.70246">
        <ele>139.9</ele>
        <time>2017-01-22T08:42:11.000Z</time>
      </trkpt>
      <trkpt lat="44.52525" lon="0.70245">
        <ele>140.3</ele>
        <time>2017-01-22T08:42:12.000Z</time>
      </trkpt>
      <trkpt lat="44.52522" lon="0.70245">
        <ele>140.7</ele>
        <time>2017-01-22T08:42:13.000Z</time>
      </trkpt>
      <trkpt lat="44.52519" lon="0.70244">
        <ele>141</ele>
        <time>2017-01-22T08:42:14.000Z</time>
      </trkpt>
      <trkpt lat="44.52516" lon="0.70244">
        <ele>141.4</ele>
        <time>2017-01-22T08:42:15.000Z</time>
      </trkpt>
      <trkpt lat="44.52513" lon="0.70243">
        <ele>141.8</ele>
        <time>2017-01-22T08:42:16.000Z</time>
      </trkpt>
      <trkpt lat="44.5251" lon="0.70243">
        <ele>142.2</ele>
        <time>2017-01-22T08:42:17.000Z</time>
      </trkpt>
      <trkpt lat="44.52508" lon="0.70243">
        <ele>142.6</ele>
        <time>2017-01-22T08:42:18.000Z</time>
      </trkpt>
      <trkpt lat="44.52505" lon="0.70242">
        <ele>143</ele>
        <time>2017-01-22T08:42:19.000Z</time>
      </trkpt>
      <trkpt lat="44.52502" lon="0.70242">
        <ele>143.4</ele>
        <time>2017-01-22T08:42:20.000Z</time>
      </trkpt>
      <trkpt lat="44.52499" lon="0.70242">
        <ele>143.6</ele>
        <time>2017-01-22T08:42:21.000Z</time>
      </trkpt>
      <trkpt lat="44.52496" lon="0.70242">
        <ele>143.6</ele>
        <time>2017-01-22T08:42:22.000Z</time>
      </trkpt>
      <trkpt lat="44.52493" lon="0.70242">
        <ele>143.5</ele>
        <time>2017-01-22T08:42:23.000Z</time>
      </trkpt>
      <trkpt lat="44.5249" lon="0.70242">
        <ele>143.5</ele>
        <time>2017-01-22T08:42:24.000Z</time>
      </trkpt>
      <trkpt lat="44.52487" lon="0.70242">
        <ele>143.4</ele>
        <time>2017-01-22T08:42:25.000Z</time>
      </trkpt>
      <trkpt lat="44.52484" lon="0.70241">
        <ele>143.4</ele>
        <time>2017-01-22T08:42:26.000Z</time>
      </trkpt>
      <trkpt lat="44.52481" lon="0.70241">
        <ele>143.4</ele>
        <time>2017-01-22T08:42:27.000Z</time>
      </trkpt>
      <trkpt lat="44.52479" lon="0.70241">
        <ele>143.3</ele>
        <time>2017-01-22T08:42:28.000Z</time>
      </trkpt>
      <trkpt lat="44.52476" lon="0.70241">
        <ele>143.3</ele>
        <time>2017-01-22T08:42:29.000Z</time>
      </trkpt>
      <trkpt lat="44.52474" lon="0.7024">
        <ele>143.2</ele>
        <time>2017-01-22T08:42:30.000Z</time>
      </trkpt>
      <trkpt lat="44.52471" lon="0.7024">
        <ele>143.2</ele>
        <time>2017-01-22T08:42:31.000Z</time>
      </trkpt>
      <trkpt lat="44.52468" lon="0.7024">
        <ele>143.2</ele>
        <time>2017-01-22T08:42:32.000Z</time>
      </trkpt>
      <trkpt lat="44.52465" lon="0.7024">
        <ele>143.1</ele>
        <time>2017-01-22T08:42:33.000Z</time>
      </trkpt>
      <trkpt lat="44.52463" lon="0.70241">
        <ele>143.1</ele>
        <time>2017-01-22T08:42:34.000Z</time>
      </trkpt>
      <trkpt lat="44.5246" lon="0.70241">
        <ele>143.1</ele>
        <time>2017-01-22T08:42:35.000Z</time>
      </trkpt>
      <trkpt lat="44.52457" lon="0.70241">
        <ele>143</ele>
        <time>2017-01-22T08:42:36.000Z</time>
      </trkpt>
      <trkpt lat="44.52454" lon="0.70241">
        <ele>143</ele>
        <time>2017-01-22T08:42:37.000Z</time>
      </trkpt>
      <trkpt lat="44.52451" lon="0.70241">
        <ele>143</ele>
        <time>2017-01-22T08:42:38.000Z</time>
      </trkpt>
      <trkpt lat="44.52449" lon="0.7024">
        <ele>142.9</ele>
        <time>2017-01-22T08:42:39.000Z</time>
      </trkpt>
      <trkpt lat="44.52446" lon="0.7024">
        <ele>142.9</ele>
        <time>2017-01-22T08:42:40.000Z</time>
      </trkpt>
      <trkpt lat="44.52444" lon="0.7024">
        <ele>142.8</ele>
        <time>2017-01-22T08:42:41.000Z</time>
      </trkpt>
      <trkpt lat="44.52442" lon="0.7024">
        <ele>142.8</ele>
        <time>2017-01-22T08:42:42.000Z</time>
      </trkpt>
      <trkpt lat="44.5244" lon="0.7024">
        <ele>142.8</ele>
        <time>2017-01-22T08:42:43.000Z</time>
      </trkpt>
      <trkpt lat="44.52438" lon="0.70241">
        <ele>142.8</ele>
        <time>2017-01-22T08:42:44.000Z</time>
      </trkpt>
      <trkpt lat="44.52436" lon="0.70242">
        <ele>142.8</ele>
        <time>2017-01-22T08:42:45.000Z</time>
      </trkpt>
      <trkpt lat="44.52434" lon="0.70244">
        <ele>142.9</ele>
        <time>2017-01-22T08:42:46.000Z</time>
      </trkpt>
      <trkpt lat="44.52432" lon="0.70245">
        <ele>142.9</ele>
        <time>2017-01-22T08:42:47.000Z</time>
      </trkpt>
      <trkpt lat="44.52429" lon="0.70247">
        <ele>143</ele>
        <time>2017-01-22T08:42:48.000Z</time>
      </trkpt>
      <trkpt lat="44.52427" lon="0.70247">
        <ele>143</ele>
        <time>2017-01-22T08:42:49.000Z</time>
      </trkpt>
      <trkpt lat="44.52424" lon="0.70248">
        <ele>143</ele>
        <time>2017-01-22T08:42:50.000Z</time>
      </trkpt>
      <trkpt lat="44.52421" lon="0.70248">
        <ele>142.9</ele>
        <time>2017-01-22T08:42:51.000Z</time>
      </trkpt>
      <trkpt lat="44.52418" lon="0.70247">
        <ele>142.9</ele>
        <time>2017-01-22T08:42:52.000Z</time>
      </trkpt>
      <trkpt lat="44.52415" lon="0.70247">
        <ele>143</ele>
        <time>2017-01-22T08:42:53.000Z</time>
      </trkpt>
      <trkpt lat="44.52412" lon="0.70247">
        <ele>143.1</ele>
        <time>2017-01-22T08:42:54.000Z</time>
      </trkpt>
      <trkpt lat="44.52409" lon="0.70248">
        <ele>143.2</ele>
        <time>2017-01-22T08:42:55.000Z</time>
      </trkpt>
      <trkpt lat="44.52406" lon="0.70248">
        <ele>143.4</ele>
        <time>2017-01-22T08:42:56.000Z</time>
      </trkpt>
      <trkpt lat="44.52404" lon="0.70248">
        <ele>143.6</ele>
        <time>2017-01-22T08:42:57.000Z</time>
      </trkpt>
      <trkpt lat="44.52401" lon="0.70249">
        <ele>143.7</ele>
        <time>2017-01-22T08:42:58.000Z</time>
      </trkpt>
      <trkpt lat="44.52398" lon="0.70249">
        <ele>143.8</ele>
        <time>2017-01-22T08:42:59.000Z</time>
      </trkpt>
      <trkpt lat="44.52395" lon="0.70249">
        <ele>144</ele>
        <time>2017-01-22T08:43:00.000Z</time>
      </trkpt>
      <trkpt lat="44.52393" lon="0.70249">
        <ele>144.1</ele>
        <time>2017-01-22T08:43:01.000Z</time>
      </trkpt>
      <trkpt lat="44.5239" lon="0.70249">
        <ele>144.2</ele>
        <time>2017-01-22T08:43:02.000Z</time>
      </trkpt>
      <trkpt lat="44.52388" lon="0.70249">
        <ele>144.4</ele>
        <time>2017-01-22T08:43:03.000Z</time>
      </trkpt>
      <trkpt lat="44.52385" lon="0.7025">
        <ele>144.5</ele>
        <time>2017-01-22T08:43:04.000Z</time>
      </trkpt>
      <trkpt lat="44.52382" lon="0.7025">
        <ele>144.6</ele>
        <time>2017-01-22T08:43:05.000Z</time>
      </trkpt>
      <trkpt lat="44.5238" lon="0.7025">
        <ele>144.8</ele>
        <time>2017-01-22T08:43:06.000Z</time>
      </trkpt>
      <trkpt lat="44.52377" lon="0.7025">
        <ele>144.9</ele>
        <time>2017-01-22T08:43:07.000Z</time>
      </trkpt>
      <trkpt lat="44.52374" lon="0.7025">
        <ele>145</ele>
        <time>2017-01-22T08:43:08.000Z</time>
      </trkpt>
      <trkpt lat="44.52371" lon="0.7025">
        <ele>145.2</ele>
        <time>2017-01-22T08:43:09.000Z</time>
      </trkpt>
      <trkpt lat="44.52368" lon="0.7025">
        <ele>145.3</ele>
        <time>2017-01-22T08:43:10.000Z</time>
      </trkpt>
      <trkpt lat="44.52366" lon="0.7025">
        <ele>145.4</ele>
        <time>2017-01-22T08:43:11.000Z</time>
      </trkpt>
      <trkpt lat="44.52363" lon="0.7025">
        <ele>145.5</ele>
        <time>2017-01-22T08:43:12.000Z</time>
      </trkpt>
      <trkpt lat="44.52361" lon="0.70249">
        <ele>145.6</ele>
        <time>2017-01-22T08:43:13.000Z</time>
      </trkpt>
      <trkpt lat="44.52359" lon="0.7025">
        <ele>145.7</ele>
        <time>2017-01-22T08:43:14.000Z</time>
      </trkpt>
      <trkpt lat="44.52357" lon="0.7025">
        <ele>145.9</ele>
        <time>2017-01-22T08:43:15.000Z</time>
      </trkpt>
      <trkpt lat="44.52355" lon="0.7025">
        <ele>146</ele>
        <time>2017-01-22T08:43:16.000Z</time>
      </trkpt>
      <trkpt lat="44.52353" lon="0.7025">
        <ele>146.1</ele>
        <time>2017-01-22T08:43:17.000Z</time>
      </trkpt>
      <trkpt lat="44.52351" lon="0.7025">
        <ele>146.2</ele>
        <time>2017-01-22T08:43:18.000Z</time>
      </trkpt>
      <trkpt lat="44.52348" lon="0.7025">
        <ele>146.3</ele>
        <time>2017-01-22T08:43:19.000Z</time>
      </trkpt>
      <trkpt lat="44.52346" lon="0.70251">
        <ele>146.4</ele>
        <time>2017-01-22T08:43:20.000Z</time>
      </trkpt>
      <trkpt lat="44.52344" lon="0.70251">
        <ele>146.5</ele>
        <time>2017-01-22T08:43:21.000Z</time>
      </trkpt>
      <trkpt lat="44.52342" lon="0.70251">
        <ele>146.5</ele>
        <time>2017-01-22T08:43:22.000Z</time>
      </trkpt>
      <trkpt lat="44.5234" lon="0.70252">
        <ele>146.6</ele>
        <time>2017-01-22T08:43:23.000Z</time>
      </trkpt>
      <trkpt lat="44.52338" lon="0.70252">
        <ele>146.7</ele>
        <time>2017-01-22T08:43:24.000Z</time>
      </trkpt>
      <trkpt lat="44.52336" lon="0.70252">
        <ele>146.8</ele>
        <time>2017-01-22T08:43:25.000Z</time>
      </trkpt>
      <trkpt lat="44.52334" lon="0.70253">
        <ele>146.9</ele>
        <time>2017-01-22T08:43:26.000Z</time>
      </trkpt>
      <trkpt lat="44.52332" lon="0.70253">
        <ele>146.9</ele>
        <time>2017-01-22T08:43:27.000Z</time>
      </trkpt>
      <trkpt lat="44.5233" lon="0.70254">
        <ele>146.9</ele>
        <time>2017-01-22T08:43:28.000Z</time>
      </trkpt>
      <trkpt lat="44.52328" lon="0.70255">
        <ele>146.9</ele>
        <time>2017-01-22T08:43:29.000Z</time>
      </trkpt>
      <trkpt lat="44.52326" lon="0.70255">
        <ele>146.9</ele>
        <time>2017-01-22T08:43:30.000Z</time>
      </trkpt>
      <trkpt lat="44.52324" lon="0.70256">
        <ele>146.8</ele>
        <time>2017-01-22T08:43:31.000Z</time>
      </trkpt>
      <trkpt lat="44.52323" lon="0.70257">
        <ele>146.8</ele>
        <time>2017-01-22T08:43:32.000Z</time>
      </trkpt>
      <trkpt lat="44.52321" lon="0.70258">
        <ele>146.8</ele>
        <time>2017-01-22T08:43:33.000Z</time>
      </trkpt>
      <trkpt lat="44.52319" lon="0.70258">
        <ele>146.8</ele>
        <time>2017-01-22T08:43:34.000Z</time>
      </trkpt>
      <trkpt lat="44.52317" lon="0.70259">
        <ele>146.7</ele>
        <time>2017-01-22T08:43:35.000Z</time>
      </trkpt>
      <trkpt lat="44.52316" lon="0.70259">
        <ele>146.7</ele>
        <time>2017-01-22T08:43:36.000Z</time>
      </trkpt>
      <trkpt lat="44.52314" lon="0.7026">
        <ele>146.7</ele>
        <time>2017-01-22T08:43:37.000Z</time>
      </trkpt>
      <trkpt lat="44.52312" lon="0.7026">
        <ele>146.7</ele>
        <time>2017-01-22T08:43:38.000Z</time>
      </trkpt>
      <trkpt lat="44.52311" lon="0.7026">
        <ele>146.7</ele>
        <time>2017-01-22T08:43:39.000Z</time>
      </trkpt>
      <trkpt lat="44.52309" lon="0.70261">
        <ele>146.6</ele>
        <time>2017-01-22T08:43:40.000Z</time>
      </trkpt>
      <trkpt lat="44.52308" lon="0.70261">
        <ele>146.6</ele>
        <time>2017-01-22T08:43:41.000Z</time>
      </trkpt>
      <trkpt lat="44.52307" lon="0.70261">
        <ele>146.6</ele>
        <time>2017-01-22T08:43:42.000Z</time>
      </trkpt>
      <trkpt lat="44.52305" lon="0.70261">
        <ele>146.6</ele>
        <time>2017-01-22T08:43:43.000Z</time>
      </trkpt>
      <trkpt lat="44.52304" lon="0.70261">
        <ele>146.6</ele>
        <time>2017-01-22T08:43:44.000Z</time>
      </trkpt>
      <trkpt lat="44.52303" lon="0.70262">
        <ele>146.6</ele>
        <time>2017-01-22T08:43:45.000Z</time>
      </trkpt>
      <trkpt lat="44.52302" lon="0.70262">
        <ele>146.5</ele>
        <time>2017-01-22T08:43:46.000Z</time>
      </trkpt>
      <trkpt lat="44.523" lon="0.70263">
        <ele>146.5</ele>
        <time>2017-01-22T08:43:47.000Z</time>
      </trkpt>
      <trkpt lat="44.52299" lon="0.70263">
        <ele>146.5</ele>
        <time>2017-01-22T08:43:48.000Z</time>
      </trkpt>
      <trkpt lat="44.52297" lon="0.70264">
        <ele>146.4</ele>
        <time>2017-01-22T08:43:49.000Z</time>
      </trkpt>
      <trkpt lat="44.52295" lon="0.70265">
        <ele>146.4</ele>
        <time>2017-01-22T08:43:50.000Z</time>
      </trkpt>
      <trkpt lat="44.52293" lon="0.70267">
        <ele>146.3</ele>
        <time>2017-01-22T08:43:51.000Z</time>
      </trkpt>
      <trkpt lat="44.5229" lon="0.70268">
        <ele>146.2</ele>
        <time>2017-01-22T08:43:52.000Z</time>
      </trkpt>
      <trkpt lat="44.52287" lon="0.7027">
        <ele>146.1</ele>
        <time>2017-01-22T08:43:53.000Z</time>
      </trkpt>
      <trkpt lat="44.52284" lon="0.70272">
        <ele>146</ele>
        <time>2017-01-22T08:43:54.000Z</time>
      </trkpt>
      <trkpt lat="44.52281" lon="0.70274">
        <ele>145.9</ele>
        <time>2017-01-22T08:43:55.000Z</time>
      </trkpt>
      <trkpt lat="44.52277" lon="0.70276">
        <ele>145.7</ele>
        <time>2017-01-22T08:43:56.000Z</time>
      </trkpt>
      <trkpt lat="44.52274" lon="0.70278">
        <ele>145.6</ele>
        <time>2017-01-22T08:43:57.000Z</time>
      </trkpt>
      <trkpt lat="44.52271" lon="0.7028">
        <ele>145.5</ele>
        <time>2017-01-22T08:43:58.000Z</time>
      </trkpt>
      <trkpt lat="44.52268" lon="0.70282">
        <ele>145.3</ele>
        <time>2017-01-22T08:43:59.000Z</time>
      </trkpt>
      <trkpt lat="44.52265" lon="0.70284">
        <ele>145.2</ele>
        <time>2017-01-22T08:44:00.000Z</time>
      </trkpt>
      <trkpt lat="44.52263" lon="0.70285">
        <ele>145.1</ele>
        <time>2017-01-22T08:44:01.000Z</time>
      </trkpt>
      <trkpt lat="44.5226" lon="0.70286">
        <ele>145</ele>
        <time>2017-01-22T08:44:02.000Z</time>
      </trkpt>
      <trkpt lat="44.52258" lon="0.70288">
        <ele>144.9</ele>
        <time>2017-01-22T08:44:03.000Z</time>
      </trkpt>
      <trkpt lat="44.52255" lon="0.70289">
        <ele>144.8</ele>
        <time>2017-01-22T08:44:04.000Z</time>
      </trkpt>
      <trkpt lat="44.52253" lon="0.7029">
        <ele>144.7</ele>
        <time>2017-01-22T08:44:05.000Z</time>
      </trkpt>
      <trkpt lat="44.52251" lon="0.70291">
        <ele>144.6</ele>
        <time>2017-01-22T08:44:06.000Z</time>
      </trkpt>
      <trkpt lat="44.52248" lon="0.70292">
        <ele>144.6</ele>
        <time>2017-01-22T08:44:07.000Z</time>
      </trkpt>
      <trkpt lat="44.52246" lon="0.70293">
        <ele>144.7</ele>
        <time>2017-01-22T08:44:08.000Z</time>
      </trkpt>
      <trkpt lat="44.52243" lon="0.70294">
        <ele>144.9</ele>
        <time>2017-01-22T08:44:09.000Z</time>
      </trkpt>
      <trkpt lat="44.52241" lon="0.70295">
        <ele>145</ele>
        <time>2017-01-22T08:44:10.000Z</time>
      </trkpt>
      <trkpt lat="44.52238" lon="0.70296">
        <ele>145.1</ele>
        <time>2017-01-22T08:44:11.000Z</time>
      </trkpt>
      <trkpt lat="44.52236" lon="0.70297">
        <ele>145.3</ele>
        <time>2017-01-22T08:44:12.000Z</time>
      </trkpt>
      <trkpt lat="44.52233" lon="0.70298">
        <ele>145.4</ele>
        <time>2017-01-22T08:44:13.000Z</time>
      </trkpt>
      <trkpt lat="44.52231" lon="0.70299">
        <ele>145.6</ele>
        <time>2017-01-22T08:44:14.000Z</time>
      </trkpt>
      <trkpt lat="44.52228" lon="0.703">
        <ele>145.7</ele>
        <time>2017-01-22T08:44:15.000Z</time>
      </trkpt>
      <trkpt lat="44.52226" lon="0.70301">
        <ele>145.8</ele>
        <time>2017-01-22T08:44:16.000Z</time>
      </trkpt>
      <trkpt lat="44.52224" lon="0.70302">
        <ele>145.9</ele>
        <time>2017-01-22T08:44:17.000Z</time>
      </trkpt>
      <trkpt lat="44.52222" lon="0.70303">
        <ele>146.1</ele>
        <time>2017-01-22T08:44:18.000Z</time>
      </trkpt>
      <trkpt lat="44.5222" lon="0.70303">
        <ele>146.2</ele>
        <time>2017-01-22T08:44:19.000Z</time>
      </trkpt>
      <trkpt lat="44.52218" lon="0.70304">
        <ele>146.3</ele>
        <time>2017-01-22T08:44:20.000Z</time>
      </trkpt>
      <trkpt lat="44.52215" lon="0.70305">
        <ele>146.5</ele>
        <time>2017-01-22T08:44:21.000Z</time>
      </trkpt>
      <trkpt lat="44.52213" lon="0.70306">
        <ele>146.6</ele>
        <time>2017-01-22T08:44:22.000Z</time>
      </trkpt>
      <trkpt lat="44.52211" lon="0.70307">
        <ele>146.8</ele>
        <time>2017-01-22T08:44:23.000Z</time>
      </trkpt>
      <trkpt lat="44.52208" lon="0.70308">
        <ele>146.9</ele>
        <time>2017-01-22T08:44:24.000Z</time>
      </trkpt>
      <trkpt lat="44.52206" lon="0.70309">
        <ele>147.1</ele>
        <time>2017-01-22T08:44:25.000Z</time>
      </trkpt>
      <trkpt lat="44.52203" lon="0.7031">
        <ele>147.3</ele>
        <time>2017-01-22T08:44:26.000Z</time>
      </trkpt>
      <trkpt lat="44.52201" lon="0.70311">
        <ele>147.4</ele>
        <time>2017-01-22T08:44:27.000Z</time>
      </trkpt>
      <trkpt lat="44.52198" lon="0.70312">
        <ele>147.6</ele>
        <time>2017-01-22T08:44:28.000Z</time>
      </trkpt>
      <trkpt lat="44.52196" lon="0.70313">
        <ele>147.8</ele>
        <time>2017-01-22T08:44:29.000Z</time>
      </trkpt>
      <trkpt lat="44.52193" lon="0.70314">
        <ele>148</ele>
        <time>2017-01-22T08:44:30.000Z</time>
      </trkpt>
      <trkpt lat="44.52191" lon="0.70315">
        <ele>148.2</ele>
        <time>2017-01-22T08:44:31.000Z</time>
      </trkpt>
      <trkpt lat="44.52189" lon="0.70316">
        <ele>148.3</ele>
        <time>2017-01-22T08:44:32.000Z</time>
      </trkpt>
      <trkpt lat="44.52187" lon="0.70317">
        <ele>148.5</ele>
        <time>2017-01-22T08:44:33.000Z</time>
      </trkpt>
      <trkpt lat="44.52185" lon="0.70317">
        <ele>148.6</ele>
        <time>2017-01-22T08:44:34.000Z</time>
      </trkpt>
      <trkpt lat="44.52183" lon="0.70318">
        <ele>148.8</ele>
        <time>2017-01-22T08:44:35.000Z</time>
      </trkpt>
      <trkpt lat="44.52181" lon="0.70319">
        <ele>148.9</ele>
        <time>2017-01-22T08:44:36.000Z</time>
      </trkpt>
      <trkpt lat="44.52179" lon="0.7032">
        <ele>149.1</ele>
        <time>2017-01-22T08:44:37.000Z</time>
      </trkpt>
      <trkpt lat="44.52177" lon="0.7032">
        <ele>149.2</ele>
        <time>2017-01-22T08:44:38.000Z</time>
      </trkpt>
      <trkpt lat="44.52176" lon="0.70321">
        <ele>149.4</ele>
        <time>2017-01-22T08:44:39.000Z</time>
      </trkpt>
      <trkpt lat="44.52174" lon="0.70322">
        <ele>149.5</ele>
        <time>2017-01-22T08:44:40.000Z</time>
      </trkpt>
      <trkpt lat="44.52172" lon="0.70322">
        <ele>149.7</ele>
        <time>2017-01-22T08:44:41.000Z</time>
      </trkpt>
      <trkpt lat="44.5217" lon="0.70323">
        <ele>149.8</ele>
        <time>2017-01-22T08:44:42.000Z</time>
      </trkpt>
      <trkpt lat="44.52168" lon="0.70323">
        <ele>150</ele>
        <time>2017-01-22T08:44:43.000Z</time>
      </trkpt>
      <trkpt lat="44.52166" lon="0.70324">
        <ele>150.1</ele>
        <time>2017-01-22T08:44:44.000Z</time>
      </trkpt>
      <trkpt lat="44.52164" lon="0.70324">
        <ele>150.3</ele>
        <time>2017-01-22T08:44:45.000Z</time>
      </trkpt>
      <trkpt lat="44.52163" lon="0.70325">
        <ele>150.4</ele>
        <time>2017-01-22T08:44:46.000Z</time>
      </trkpt>
      <trkpt lat="44.52161" lon="0.70325">
        <ele>150.5</ele>
        <time>2017-01-22T08:44:47.000Z</time>
      </trkpt>
      <trkpt lat="44.52159" lon="0.70326">
        <ele>150.6</ele>
        <time>2017-01-22T08:44:48.000Z</time>
      </trkpt>
      <trkpt lat="44.52157" lon="0.70326">
        <ele>150.7</ele>
        <time>2017-01-22T08:44:49.000Z</time>
      </trkpt>
      <trkpt lat="44.52155" lon="0.70327">
        <ele>150.8</ele>
        <time>2017-01-22T08:44:50.000Z</time>
      </trkpt>
      <trkpt lat="44.52154" lon="0.70327">
        <ele>150.9</ele>
        <time>2017-01-22T08:44:51.000Z</time>
      </trkpt>
      <trkpt lat="44.52152" lon="0.70328">
        <ele>151</ele>
        <time>2017-01-22T08:44:52.000Z</time>
      </trkpt>
      <trkpt lat="44.5215" lon="0.70328">
        <ele>151.1</ele>
        <time>2017-01-22T08:44:53.000Z</time>
      </trkpt>
      <trkpt lat="44.52148" lon="0.70329">
        <ele>151.2</ele>
        <time>2017-01-22T08:44:54.000Z</time>
      </trkpt>
      <trkpt lat="44.52146" lon="0.70329">
        <ele>151.3</ele>
        <time>2017-01-22T08:44:55.000Z</time>
      </trkpt>
      <trkpt lat="44.52145" lon="0.70329">
        <ele>151.4</ele>
        <time>2017-01-22T08:44:56.000Z</time>
      </trkpt>
      <trkpt lat="44.52143" lon="0.7033">
        <ele>151.5</ele>
        <time>2017-01-22T08:44:57.000Z</time>
      </trkpt>
      <trkpt lat="44.52141" lon="0.7033">
        <ele>151.6</ele>
        <time>2017-01-22T08:44:58.000Z</time>
      </trkpt>
      <trkpt lat="44.5214" lon="0.70331">
        <ele>151.7</ele>
        <time>2017-01-22T08:44:59.000Z</time>
      </trkpt>
      <trkpt lat="44.52138" lon="0.70331">
        <ele>151.8</ele>
        <time>2017-01-22T08:45:00.000Z</time>
      </trkpt>
      <trkpt lat="44.52136" lon="0.70331">
        <ele>151.9</ele>
        <time>2017-01-22T08:45:01.000Z</time>
      </trkpt>
      <trkpt lat="44.52135" lon="0.70331">
        <ele>152</ele>
        <time>2017-01-22T08:45:02.000Z</time>
      </trkpt>
      <trkpt lat="44.52133" lon="0.70332">
        <ele>152.1</ele>
        <time>2017-01-22T08:45:03.000Z</time>
      </trkpt>
      <trkpt lat="44.52131" lon="0.70332">
        <ele>152.2</ele>
        <time>2017-01-22T08:45:04.000Z</time>
      </trkpt>
      <trkpt lat="44.52129" lon="0.70332">
        <ele>152.3</ele>
        <time>2017-01-22T08:45:05.000Z</time>
      </trkpt>
      <trkpt lat="44.52128" lon="0.70332">
        <ele>152.4</ele>
        <time>2017-01-22T08:45:06.000Z</time>
      </trkpt>
      <trkpt lat="44.52126" lon="0.70333">
        <ele>152.5</ele>
        <time>2017-01-22T08:45:07.000Z</time>
      </trkpt>
      <trkpt lat="44.52124" lon="0.70333">
        <ele>152.6</ele>
        <time>2017-01-22T08:45:08.000Z</time>
      </trkpt>
      <trkpt lat="44.52123" lon="0.70333">
        <ele>152.7</ele>
        <time>2017-01-22T08:45:09.000Z</time>
      </trkpt>
      <trkpt lat="44.52121" lon="0.70333">
        <ele>152.8</ele>
        <time>2017-01-22T08:45:10.000Z</time>
      </trkpt>
      <trkpt lat="44.52119" lon="0.70333">
        <ele>152.9</ele>
        <time>2017-01-22T08:45:11.000Z</time>
      </trkpt>
      <trkpt lat="44.52118" lon="0.70333">
        <ele>153</ele>
        <time>2017-01-22T08:45:12.000Z</time>
      </trkpt>
      <trkpt lat="44.52116" lon="0.70333">
        <ele>153.1</ele>
        <time>2017-01-22T08:45:13.000Z</time>
      </trkpt>
      <trkpt lat="44.52114" lon="0.70333">
        <ele>153.2</ele>
        <time>2017-01-22T08:45:14.000Z</time>
      </trkpt>
      <trkpt lat="44.52112" lon="0.70333">
        <ele>153.3</ele>
        <time>2017-01-22T08:45:15.000Z</time>
      </trkpt>
      <trkpt lat="44.52111" lon="0.70333">
        <ele>153.4</ele>
        <time>2017-01-22T08:45:16.000Z</time>
      </trkpt>
      <trkpt lat="44.52109" lon="0.70333">
        <ele>153.5</ele>
        <time>2017-01-22T08:45:17.000Z</time>
      </trkpt>
      <trkpt lat="44.52107" lon="0.70333">
        <ele>153.6</ele>
        <time>2017-01-22T08:45:18.000Z</time>
      </trkpt>
      <trkpt lat="44.52106" lon="0.70333">
        <ele>153.7</ele>
        <time>2017-01-22T08:45:19.000Z</time>
      </trkpt>
      <trkpt lat="44.52104" lon="0.70333">
        <ele>153.8</ele>
        <time>2017-01-22T08:45:20.000Z</time>
      </trkpt>
      <trkpt lat="44.52102" lon="0.70333">
        <ele>153.9</ele>
        <time>2017-01-22T08:45:21.000Z</time>
      </trkpt>
      <trkpt lat="44.521" lon="0.70333">
        <ele>154</ele>
        <time>2017-01-22T08:45:22.000Z</time>
      </trkpt>
      <trkpt lat="44.52099" lon="0.70333">
        <ele>154.1</ele>
        <time>2017-01-22T08:45:23.000Z</time>
      </trkpt>
      <trkpt lat="44.52097" lon="0.70333">
        <ele>154.2</ele>
        <time>2017-01-22T08:45:24.000Z</time>
      </trkpt>
      <trkpt lat="44.52095" lon="0.70333">
        <ele>154.3</ele>
        <time>2017-01-22T08:45:25.000Z</time>
      </trkpt>
      <trkpt lat="44.52093" lon="0.70333">
        <ele>154.4</ele>
        <time>2017-01-22T08:45:26.000Z</time>
      </trkpt>
      <trkpt lat="44.52092" lon="0.70333">
        <ele>154.5</ele>
        <time>2017-01-22T08:45:27.000Z</time>
      </trkpt>
      <trkpt lat="44.5209" lon="0.70333">
        <ele>154.6</ele>
        <time>2017-01-22T08:45:28.000Z</time>
      </trkpt>
      <trkpt lat="44.52089" lon="0.70333">
        <ele>154.7</ele>
        <time>2017-01-22T08:45:29.000Z</time>
      </trkpt>
      <trkpt lat="44.52087" lon="0.70333">
        <ele>154.8</ele>
        <time>2017-01-22T08:45:30.000Z</time>
      </trkpt>
      <trkpt lat="44.52085" lon="0.70333">
        <ele>154.9</ele>
        <time>2017-01-22T08:45:31.000Z</time>
      </trkpt>
      <trkpt lat="44.52084" lon="0.70332">
        <ele>155</ele>
        <time>2017-01-22T08:45:32.000Z</time>
      </trkpt>
      <trkpt lat="44.52083" lon="0.70332">
        <ele>155.2</ele>
        <time>2017-01-22T08:45:33.000Z</time>
      </trkpt>
      <trkpt lat="44.52081" lon="0.70332">
        <ele>155.4</ele>
        <time>2017-01-22T08:45:34.000Z</time>
      </trkpt>
      <trkpt lat="44.5208" lon="0.70331">
        <ele>155.6</ele>
        <time>2017-01-22T08:45:35.000Z</time>
      </trkpt>
      <trkpt lat="44.52079" lon="0.70331">
        <ele>155.9</ele>
        <time>2017-01-22T08:45:36.000Z</time>
      </trkpt>
      <trkpt lat="44.52077" lon="0.70331">
        <ele>156.1</ele>
        <time>2017-01-22T08:45:37.000Z</time>
      </trkpt>
      <trkpt lat="44.52076" lon="0.7033">
        <ele>156.3</ele>
        <time>2017-01-22T08:45:38.000Z</time>
      </trkpt>
      <trkpt lat="44.52075" lon="0.7033">
        <ele>156.5</ele>
        <time>2017-01-22T08:45:39.000Z</time>
      </trkpt>
      <trkpt lat="44.52073" lon="0.7033">
        <ele>156.8</ele>
        <time>2017-01-22T08:45:40.000Z</time>
      </trkpt>
      <trkpt lat="44.52072" lon="0.7033">
        <ele>157</ele>
        <time>2017-01-22T08:45:41.000Z</time>
      </trkpt>
      <trkpt lat="44.5207" lon="0.7033">
        <ele>157.2</ele>
        <time>2017-01-22T08:45:42.000Z</time>
      </trkpt>
      <trkpt lat="44.52069" lon="0.7033">
        <ele>157.4</ele>
        <time>2017-01-22T08:45:43.000Z</time>
      </trkpt>
      <trkpt lat="44.52068" lon="0.7033">
        <ele>157.6</ele>
        <time>2017-01-22T08:45:44.000Z</time>
      </trkpt>
      <trkpt lat="44.52067" lon="0.7033">
        <ele>157.7</ele>
        <time>2017-01-22T08:45:45.000Z</time>
      </trkpt>
      <trkpt lat="44.52066" lon="0.7033">
        <ele>157.9</ele>
        <time>2017-01-22T08:45:46.000Z</time>
      </trkpt>
      <trkpt lat="44.52065" lon="0.7033">
        <ele>158</ele>
        <time>2017-01-22T08:45:47.000Z</time>
      </trkpt>
      <trkpt lat="44.52065" lon="0.7033">
        <ele>158.1</ele>
        <time>2017-01-22T08:45:48.000Z</time>
      </trkpt>
      <trkpt lat="44.52064" lon="0.7033">
        <ele>158.1</ele>
        <time>2017-01-22T08:45:49.000Z</time>
      </trkpt>
      <trkpt lat="44.52064" lon="0.7033">
        <ele>158.2</ele>
        <time>2017-01-22T08:45:50.000Z</time>
      </trkpt>
      <trkpt lat="44.52064" lon="0.7033">
        <ele>158.2</ele>
        <time>2017-01-22T08:45:51.000Z</time>
      </trkpt>
      <trkpt lat="44.52063" lon="0.7033">
        <ele>158.3</ele>
        <time>2017-01-22T08:45:52.000Z</time>
      </trkpt>
      <trkpt lat="44.52063" lon="0.7033">
        <ele>158.3</ele>
        <time>2017-01-22T08:45:53.000Z</time>
      </trkpt>
      <trkpt lat="44.52063" lon="0.7033">
        <ele>158.3</ele>
        <time>2017-01-22T08:45:54.000Z</time>
      </trkpt>
      <trkpt lat="44.52063" lon="0.7033">
        <ele>158.3</ele>
        <time>2017-01-22T08:45:55.000Z</time>
      </trkpt>
      <trkpt lat="44.52063" lon="0.7033">
        <ele>158.3</ele>
        <time>2017-01-22T08:45:56.000Z</time>
      </trkpt>
      <trkpt lat="44.52063" lon="0.7033">
        <ele>158.3</ele>
        <time>2017-01-22T08:45:57.000Z</time>
      </trkpt>
      <trkpt lat="44.52063" lon="0.7033">
        <ele>158.3</ele>
        <time>2017-01-22T08:45:58.000Z</time>
      </trkpt>
      <trkpt lat="44.52063" lon="0.7033">
        <ele>158.3</ele>
        <time>2017-01-22T08:45:59.000Z</time>
      </trkpt>
      <trkpt lat="44.52063" lon="0.7033">
        <ele>158.3</ele>
        <time>2017-01-22T08:46:00.000Z</time>
      </trkpt>
      <trkpt lat="44.52063" lon="0.7033">
        <ele>158.3</ele>
        <time>2017-01-22T08:46:01.000Z</time>
      </trkpt>
      <trkpt lat="44.52063" lon="0.7033">
        <ele>158.3</ele>
        <time>2017-01-22T08:46:02.000Z</time>
      </trkpt>
      <trkpt lat="44.52063" lon="0.7033">
        <ele>158.3</ele>
        <time>2017-01-22T08:46:03.000Z</time>
      </trkpt>
      <trkpt lat="44.52063" lon="0.7033">
        <ele>158.3</ele>
        <time>2017-01-22T08:46:04.000Z</time>
      </trkpt>
      <trkpt lat="44.52063" lon="0.7033">
        <ele>158.3</ele>
        <time>2017-01-22T08:46:05.000Z</time>
      </trkpt>
      <trkpt lat="44.52063" lon="0.7033">
        <ele>158.3</ele>
        <time>2017-01-22T08:46:06.000Z</time>
      </trkpt>
      <trkpt lat="44.52063" lon="0.7033">
        <ele>158.3</ele>
        <time>2017-01-22T08:46:07.000Z</time>
      </trkpt>
      <trkpt lat="44.52063" lon="0.7033">
        <ele>158.3</ele>
        <time>2017-01-22T08:46:08.000Z</time>
      </trkpt>
      <trkpt lat="44.52063" lon="0.7033">
        <ele>158.3</ele>
        <time>2017-01-22T08:46:09.000Z</time>
      </trkpt>
      <trkpt lat="44.52063" lon="0.7033">
        <ele>158.3</ele>
        <time>2017-01-22T08:46:10.000Z</time>
      </trkpt>
      <trkpt lat="44.52063" lon="0.7033">
        <ele>158.3</ele>
        <time>2017-01-22T08:46:11.000Z</time>
      </trkpt>
      <trkpt lat="44.52063" lon="0.7033">
        <ele>158.3</ele>
        <time>2017-01-22T08:46:12.000Z</time>
      </trkpt>
      <trkpt lat="44.52063" lon="0.7033">
        <ele>158.3</ele>
        <time>2017-01-22T08:46:13.000Z</time>
      </trkpt>
      <trkpt lat="44.52063" lon="0.7033">
        <ele>158.3</ele>
        <time>2017-01-22T08:46:14.000Z</time>
      </trkpt>
      <trkpt lat="44.52063" lon="0.7033">
        <ele>158.3</ele>
        <time>2017-01-22T08:46:15.000Z</time>
      </trkpt>
      <trkpt lat="44.52063" lon="0.7033">
        <ele>158.3</ele>
        <time>2017-01-22T08:46:16.000Z</time>
      </trkpt>
      <trkpt lat="44.52063" lon="0.7033">
        <ele>158.3</ele>
        <time>2017-01-22T08:46:17.000Z</time>
      </trkpt>
      <trkpt lat="44.52063" lon="0.7033">
        <ele>158.3</ele>
        <time>2017-01-22T08:46:18.000Z</time>
      </trkpt>
      <trkpt lat="44.52063" lon="0.7033">
        <ele>158.3</ele>
        <time>2017-01-22T08:46:19.000Z</time>
      </trkpt>
      <trkpt lat="44.52063" lon="0.7033">
        <ele>158.3</ele>
        <time>2017-01-22T08:46:20.000Z</time>
      </trkpt>
      <trkpt lat="44.52063" lon="0.7033">
        <ele>158.3</ele>
        <time>2017-01-22T08:46:21.000Z</time>
      </trkpt>
      <trkpt lat="44.52063" lon="0.7033">
        <ele>158.3</ele>
        <time>2017-01-22T08:46:22.000Z</time>
      </trkpt>
      <trkpt lat="44.52063" lon="0.7033">
        <ele>158.3</ele>
        <time>2017-01-22T08:46:23.000Z</time>
      </trkpt>
      <trkpt lat="44.52063" lon="0.7033">
        <ele>158.3</ele>
        <time>2017-01-22T08:46:24.000Z</time>
      </trkpt>
      <trkpt lat="44.52063" lon="0.7033">
        <ele>158.3</ele>
        <time>2017-01-22T08:46:25.000Z</time>
      </trkpt>
      <trkpt lat="44.52063" lon="0.7033">
        <ele>158.3</ele>
        <time>2017-01-22T08:46:26.000Z</time>
      </trkpt>
      <trkpt lat="44.52063" lon="0.7033">
        <ele>158.3</ele>
        <time>2017-01-22T08:46:27.000Z</time>
      </trkpt>
      <trkpt lat="44.52063" lon="0.7033">
        <ele>158.3</ele>
        <time>2017-01-22T08:46:28.000Z</time>
      </trkpt>
      <trkpt lat="44.52063" lon="0.7033">
        <ele>158.3</ele>
        <time>2017-01-22T08:46:29.000Z</time>
      </trkpt>
      <trkpt lat="44.52063" lon="0.7033">
        <ele>158.3</ele>
        <time>2017-01-22T08:46:30.000Z</time>
      </trkpt>
      <trkpt lat="44.52063" lon="0.7033">
        <ele>158.3</ele>
        <time>2017-01-22T08:46:31.000Z</time>
      </trkpt>
      <trkpt lat="44.52063" lon="0.7033">
        <ele>158.3</ele>
        <time>2017-01-22T08:46:32.000Z</time>
      </trkpt>
      <trkpt lat="44.52063" lon="0.7033">
        <ele>158.3</ele>
        <time>2017-01-22T08:46:33.000Z</time>
      </trkpt>
      <trkpt lat="44.52063" lon="0.7033">
        <ele>158.3</ele>
        <time>2017-01-22T08:46:34.000Z</time>
      </trkpt>
      <trkpt lat="44.52063" lon="0.7033">
        <ele>158.3</ele>
        <time>2017-01-22T08:46:35.000Z</time>
      </trkpt>
      <trkpt lat="44.52063" lon="0.7033">
        <ele>158.3</ele>
        <time>2017-01-22T08:46:36.000Z</time>
      </trkpt>
      <trkpt lat="44.52063" lon="0.7033">
        <ele>158.3</ele>
        <time>2017-01-22T08:46:37.000Z</time>
      </trkpt>
      <trkpt lat="44.52063" lon="0.7033">
        <ele>158.3</ele>
        <time>2017-01-22T08:46:38.000Z</time>
      </trkpt>
      <trkpt lat="44.52063" lon="0.7033">
        <ele>158.3</ele>
        <time>2017-01-22T08:46:39.000Z</time>
      </trkpt>
      <trkpt lat="44.52063" lon="0.7033">
        <ele>158.3</ele>
        <time>2017-01-22T08:46:40.000Z</time>
      </trkpt>
      <trkpt lat="44.52063" lon="0.7033">
        <ele>158.3</ele>
        <time>2017-01-22T08:46:41.000Z</time>
      </trkpt>
      <trkpt lat="44.52063" lon="0.7033">
        <ele>158.3</ele>
        <time>2017-01-22T08:46:42.000Z</time>
      </trkpt>
      <trkpt lat="44.52063" lon="0.7033">
        <ele>158.3</ele>
        <time>2017-01-22T08:46:43.000Z</time>
      </trkpt>
      <trkpt lat="44.52063" lon="0.7033">
        <ele>158.3</ele>
        <time>2017-01-22T08:46:44.000Z</time>
      </trkpt>
      <trkpt lat="44.52063" lon="0.7033">
        <ele>158.3</ele>
        <time>2017-01-22T08:46:45.000Z</time>
      </trkpt>
      <trkpt lat="44.52063" lon="0.7033">
        <ele>158.3</ele>
        <time>2017-01-22T08:46:46.000Z</time>
      </trkpt>
      <trkpt lat="44.52063" lon="0.7033">
        <ele>158.3</ele>
        <time>2017-01-22T08:46:47.000Z</time>
      </trkpt>
      <trkpt lat="44.52063" lon="0.7033">
        <ele>158.3</ele>
        <time>2017-01-22T08:46:48.000Z</time>
      </trkpt>
      <trkpt lat="44.52063" lon="0.7033">
        <ele>158.3</ele>
        <time>2017-01-22T08:46:49.000Z</time>
      </trkpt>
      <trkpt lat="44.52063" lon="0.7033">
        <ele>158.3</ele>
        <time>2017-01-22T08:46:50.000Z</time>
      </trkpt>
      <trkpt lat="44.52063" lon="0.7033">
        <ele>158.3</ele>
        <time>2017-01-22T08:46:51.000Z</time>
      </trkpt>
      <trkpt lat="44.52063" lon="0.7033">
        <ele>158.3</ele>
        <time>2017-01-22T08:46:52.000Z</time>
      </trkpt>
      <trkpt lat="44.52063" lon="0.7033">
        <ele>158.3</ele>
        <time>2017-01-22T08:46:53.000Z</time>
      </trkpt>
      <trkpt lat="44.52063" lon="0.7033">
        <ele>158.3</ele>
        <time>2017-01-22T08:46:54.000Z</time>
      </trkpt>
      <trkpt lat="44.52063" lon="0.7033">
        <ele>158.3</ele>
        <time>2017-01-22T08:46:55.000Z</time>
      </trkpt>
      <trkpt lat="44.52063" lon="0.7033">
        <ele>158.3</ele>
        <time>2017-01-22T08:46:56.000Z</time>
      </trkpt>
      <trkpt lat="44.52063" lon="0.7033">
        <ele>158.3</ele>
        <time>2017-01-22T08:46:57.000Z</time>
      </trkpt>
      <trkpt lat="44.52063" lon="0.7033">
        <ele>158.3</ele>
        <time>2017-01-22T08:46:58.000Z</time>
      </trkpt>
      <trkpt lat="44.52063" lon="0.7033">
        <ele>158.3</ele>
        <time>2017-01-22T08:46:59.000Z</time>
      </trkpt>
      <trkpt lat="44.52063" lon="0.7033">
        <ele>158.3</ele>
        <time>2017-01-22T08:47:00.000Z</time>
      </trkpt>
      <trkpt lat="44.52063" lon="0.7033">
        <ele>158.3</ele>
        <time>2017-01-22T08:47:01.000Z</time>
      </trkpt>
      <trkpt lat="44.52063" lon="0.7033">
        <ele>158.3</ele>
        <time>2017-01-22T08:47:02.000Z</time>
      </trkpt>
      <trkpt lat="44.52063" lon="0.7033">
        <ele>158.3</ele>
        <time>2017-01-22T08:47:03.000Z</time>
      </trkpt>
      <trkpt lat="44.52063" lon="0.7033">
        <ele>158.3</ele>
        <time>2017-01-22T08:47:04.000Z</time>
      </trkpt>
      <trkpt lat="44.52063" lon="0.7033">
        <ele>158.3</ele>
        <time>2017-01-22T08:47:05.000Z</time>
      </trkpt>
      <trkpt lat="44.52063" lon="0.7033">
        <ele>158.3</ele>
        <time>2017-01-22T08:47:06.000Z</time>
      </trkpt>
      <trkpt lat="44.52063" lon="0.7033">
        <ele>158.3</ele>
        <time>2017-01-22T08:47:07.000Z</time>
      </trkpt>
      <trkpt lat="44.52063" lon="0.7033">
        <ele>158.3</ele>
        <time>2017-01-22T08:47:08.000Z</time>
      </trkpt>
      <trkpt lat="44.52063" lon="0.7033">
        <ele>158.3</ele>
        <time>2017-01-22T08:47:09.000Z</time>
      </trkpt>
      <trkpt lat="44.52063" lon="0.7033">
        <ele>158.3</ele>
        <time>2017-01-22T08:47:10.000Z</time>
      </trkpt>
      <trkpt lat="44.52063" lon="0.7033">
        <ele>158.3</ele>
        <time>2017-01-22T08:47:11.000Z</time>
      </trkpt>
      <trkpt lat="44.52063" lon="0.7033">
        <ele>158.3</ele>
        <time>2017-01-22T08:47:12.000Z</time>
      </trkpt>
      <trkpt lat="44.52063" lon="0.7033">
        <ele>158.3</ele>
        <time>2017-01-22T08:47:13.000Z</time>
      </trkpt>
      <trkpt lat="44.52063" lon="0.7033">
        <ele>158.3</ele>
        <time>2017-01-22T08:47:14.000Z</time>
      </trkpt>
      <trkpt lat="44.52063" lon="0.7033">
        <ele>158.3</ele>
        <time>2017-01-22T08:47:15.000Z</time>
      </trkpt>
      <trkpt lat="44.52063" lon="0.7033">
        <ele>158.3</ele>
        <time>2017-01-22T08:47:16.000Z</time>
      </trkpt>
      <trkpt lat="44.52063" lon="0.7033">
        <ele>158.3</ele>
        <time>2017-01-22T08:47:17.000Z</time>
      </trkpt>
      <trkpt lat="44.52063" lon="0.7033">
        <ele>158.3</ele>
        <time>2017-01-22T08:47:18.000Z</time>
      </trkpt>
      <trkpt lat="44.52063" lon="0.7033">
        <ele>158.3</ele>
        <time>2017-01-22T08:47:19.000Z</time>
      </trkpt>
      <trkpt lat="44.52063" lon="0.7033">
        <ele>158.3</ele>
        <time>2017-01-22T08:47:20.000Z</time>
      </trkpt>
      <trkpt lat="44.52063" lon="0.7033">
        <ele>158.3</ele>
        <time>2017-01-22T08:47:21.000Z</time>
      </trkpt>
      <trkpt lat="44.52063" lon="0.7033">
        <ele>158.3</ele>
        <time>2017-01-22T08:47:22.000Z</time>
      </trkpt>
      <trkpt lat="44.52063" lon="0.7033">
        <ele>158.3</ele>
        <time>2017-01-22T08:47:23.000Z</time>
      </trkpt>
      <trkpt lat="44.52063" lon="0.7033">
        <ele>158.3</ele>
        <time>2017-01-22T08:47:24.000Z</time>
      </trkpt>
      <trkpt lat="44.52063" lon="0.7033">
        <ele>158.3</ele>
        <time>2017-01-22T08:47:25.000Z</time>
      </trkpt>
      <trkpt lat="44.52063" lon="0.7033">
        <ele>158.3</ele>
        <time>2017-01-22T08:47:26.000Z</time>
      </trkpt>
      <trkpt lat="44.52063" lon="0.7033">
        <ele>158.3</ele>
        <time>2017-01-22T08:47:27.000Z</time>
      </trkpt>
      <trkpt lat="44.52063" lon="0.7033">
        <ele>158.3</ele>
        <time>2017-01-22T08:47:28.000Z</time>
      </trkpt>
      <trkpt lat="44.52063" lon="0.7033">
        <ele>158.3</ele>
        <time>2017-01-22T08:47:29.000Z</time>
      </trkpt>
      <trkpt lat="44.52063" lon="0.7033">
        <ele>158.3</ele>
        <time>2017-01-22T08:47:30.000Z</time>
      </trkpt>
      <trkpt lat="44.52063" lon="0.7033">
        <ele>158.3</ele>
        <time>2017-01-22T08:47:31.000Z</time>
      </trkpt>
      <trkpt lat="44.52063" lon="0.7033">
        <ele>158.3</ele>
        <time>2017-01-22T08:47:32.000Z</time>
      </trkpt>
      <trkpt lat="44.52063" lon="0.7033">
        <ele>158.3</ele>
        <time>2017-01-22T08:47:33.000Z</time>
      </trkpt>
      <trkpt lat="44.52063" lon="0.7033">
        <ele>158.3</ele>
        <time>2017-01-22T08:47:34.000Z</time>
      </trkpt>
      <trkpt lat="44.52063" lon="0.7033">
        <ele>158.3</ele>
        <time>2017-01-22T08:47:35.000Z</time>
      </trkpt>
      <trkpt lat="44.52063" lon="0.7033">
        <ele>158.3</ele>
        <time>2017-01-22T08:47:36.000Z</time>
      </trkpt>
      <trkpt lat="44.52063" lon="0.7033">
        <ele>158.3</ele>
        <time>2017-01-22T08:47:37.000Z</time>
      </trkpt>
      <trkpt lat="44.52063" lon="0.7033">
        <ele>158.3</ele>
        <time>2017-01-22T08:47:38.000Z</time>
      </trkpt>
      <trkpt lat="44.52063" lon="0.7033">
        <ele>158.3</ele>
        <time>2017-01-22T08:47:39.000Z</time>
      </trkpt>
      <trkpt lat="44.52063" lon="0.7033">
        <ele>158.3</ele>
        <time>2017-01-22T08:47:40.000Z</time>
      </trkpt>
      <trkpt lat="44.52063" lon="0.7033">
        <ele>158.3</ele>
        <time>2017-01-22T08:47:41.000Z</time>
      </trkpt>
      <trkpt lat="44.52063" lon="0.7033">
        <ele>158.3</ele>
        <time>2017-01-22T08:47:42.000Z</time>
      </trkpt>
      <trkpt lat="44.52063" lon="0.7033">
        <ele>158.3</ele>
        <time>2017-01-22T08:47:43.000Z</time>
      </trkpt>
      <trkpt lat="44.52063" lon="0.7033">
        <ele>158.3</ele>
        <time>2017-01-22T08:47:44.000Z</time>
      </trkpt>
      <trkpt lat="44.52063" lon="0.7033">
        <ele>158.3</ele>
        <time>2017-01-22T08:47:45.000Z</time>
      </trkpt>
      <trkpt lat="44.52063" lon="0.7033">
        <ele>158.3</ele>
        <time>2017-01-22T08:47:46.000Z</time>
      </trkpt>
      <trkpt lat="44.52063" lon="0.7033">
        <ele>158.3</ele>
        <time>2017-01-22T08:47:47.000Z</time>
      </trkpt>
      <trkpt lat="44.52062" lon="0.7033">
        <ele>158.4</ele>
        <time>2017-01-22T08:47:48.000Z</time>
      </trkpt>
      <trkpt lat="44.52061" lon="0.7033">
        <ele>158.6</ele>
        <time>2017-01-22T08:47:49.000Z</time>
      </trkpt>
      <trkpt lat="44.5206" lon="0.7033">
        <ele>158.8</ele>
        <time>2017-01-22T08:47:50.000Z</time>
      </trkpt>
      <trkpt lat="44.52058" lon="0.7033">
        <ele>159</ele>
        <time>2017-01-22T08:47:51.000Z</time>
      </trkpt>
      <trkpt lat="44.52056" lon="0.7033">
        <ele>159.4</ele>
        <time>2017-01-22T08:47:52.000Z</time>
      </trkpt>
      <trkpt lat="44.52054" lon="0.7033">
        <ele>159.7</ele>
        <time>2017-01-22T08:47:53.000Z</time>
      </trkpt>
      <trkpt lat="44.52052" lon="0.7033">
        <ele>159.9</ele>
        <time>2017-01-22T08:47:54.000Z</time>
      </trkpt>
      <trkpt lat="44.52051" lon="0.70329">
        <ele>160.2</ele>
        <time>2017-01-22T08:47:55.000Z</time>
      </trkpt>
      <trkpt lat="44.52049" lon="0.70328">
        <ele>160.5</ele>
        <time>2017-01-22T08:47:56.000Z</time>
      </trkpt>
      <trkpt lat="44.52047" lon="0.70327">
        <ele>160.8</ele>
        <time>2017-01-22T08:47:57.000Z</time>
      </trkpt>
      <trkpt lat="44.52045" lon="0.70327">
        <ele>161.1</ele>
        <time>2017-01-22T08:47:58.000Z</time>
      </trkpt>
      <trkpt lat="44.52044" lon="0.70326">
        <ele>161.3</ele>
        <time>2017-01-22T08:47:59.000Z</time>
      </trkpt>
      <trkpt lat="44.52042" lon="0.70326">
        <ele>161.6</ele>
        <time>2017-01-22T08:48:00.000Z</time>
      </trkpt>
      <trkpt lat="44.5204" lon="0.70326">
        <ele>161.8</ele>
        <time>2017-01-22T08:48:01.000Z</time>
      </trkpt>
      <trkpt lat="44.52039" lon="0.70326">
        <ele>162</ele>
        <time>2017-01-22T08:48:02.000Z</time>
      </trkpt>
      <trkpt lat="44.52037" lon="0.70326">
        <ele>162.3</ele>
        <time>2017-01-22T08:48:03.000Z</time>
      </trkpt>
      <trkpt lat="44.52035" lon="0.70326">
        <ele>162.5</ele>
        <time>2017-01-22T08:48:04.000Z</time>
      </trkpt>
      <trkpt lat="44.52034" lon="0.70326">
        <ele>162.8</ele>
        <time>2017-01-22T08:48:05.000Z</time>
      </trkpt>
      <trkpt lat="44.52032" lon="0.70326">
        <ele>163</ele>
        <time>2017-01-22T08:48:06.000Z</time>
      </trkpt>
      <trkpt lat="44.52031" lon="0.70326">
        <ele>163.2</ele>
        <time>2017-01-22T08:48:07.000Z</time>
      </trkpt>
      <trkpt lat="44.5203" lon="0.70326">
        <ele>163.3</ele>
        <time>2017-01-22T08:48:08.000Z</time>
      </trkpt>
      <trkpt lat="44.5203" lon="0.70326">
        <ele>163.3</ele>
        <time>2017-01-22T08:48:09.000Z</time>
      </trkpt>
      <trkpt lat="44.5203" lon="0.70326">
        <ele>163.4</ele>
        <time>2017-01-22T08:48:10.000Z</time>
      </trkpt>
      <trkpt lat="44.52029" lon="0.70326">
        <ele>163.4</ele>
        <time>2017-01-22T08:48:11.000Z</time>
      </trkpt>
      <trkpt lat="44.52029" lon="0.70326">
        <ele>163.4</ele>
        <time>2017-01-22T08:48:12.000Z</time>
      </trkpt>
      <trkpt lat="44.52029" lon="0.70326">
        <ele>163.4</ele>
        <time>2017-01-22T08:48:13.000Z</time>
      </trkpt>
      <trkpt lat="44.52029" lon="0.70326">
        <ele>163.4</ele>
        <time>2017-01-22T08:48:14.000Z</time>
      </trkpt>
      <trkpt lat="44.52029" lon="0.70326">
        <ele>163.4</ele>
        <time>2017-01-22T08:48:15.000Z</time>
      </trkpt>
      <trkpt lat="44.52029" lon="0.70326">
        <ele>163.4</ele>
        <time>2017-01-22T08:48:16.000Z</time>
      </trkpt>
      <trkpt lat="44.52029" lon="0.70326">
        <ele>163.4</ele>
        <time>2017-01-22T08:48:17.000Z</time>
      </trkpt>
      <trkpt lat="44.52029" lon="0.70326">
        <ele>163.4</ele>
        <time>2017-01-22T08:48:18.000Z</time>
      </trkpt>
      <trkpt lat="44.52029" lon="0.70326">
        <ele>163.4</ele>
        <time>2017-01-22T08:48:19.000Z</time>
      </trkpt>
      <trkpt lat="44.52029" lon="0.70326">
        <ele>163.4</ele>
        <time>2017-01-22T08:48:20.000Z</time>
      </trkpt>
      <trkpt lat="44.52029" lon="0.70326">
        <ele>163.5</ele>
        <time>2017-01-22T08:48:21.000Z</time>
      </trkpt>
      <trkpt lat="44.52028" lon="0.70326">
        <ele>163.6</ele>
        <time>2017-01-22T08:48:22.000Z</time>
      </trkpt>
      <trkpt lat="44.52026" lon="0.70326">
        <ele>163.9</ele>
        <time>2017-01-22T08:48:23.000Z</time>
      </trkpt>
      <trkpt lat="44.52025" lon="0.70325">
        <ele>164.1</ele>
        <time>2017-01-22T08:48:24.000Z</time>
      </trkpt>
      <trkpt lat="44.52023" lon="0.70325">
        <ele>164.3</ele>
        <time>2017-01-22T08:48:25.000Z</time>
      </trkpt>
      <trkpt lat="44.52022" lon="0.70325">
        <ele>164.5</ele>
        <time>2017-01-22T08:48:26.000Z</time>
      </trkpt>
      <trkpt lat="44.5202" lon="0.70325">
        <ele>164.7</ele>
        <time>2017-01-22T08:48:27.000Z</time>
      </trkpt>
      <trkpt lat="44.52019" lon="0.70324">
        <ele>165</ele>
        <time>2017-01-22T08:48:28.000Z</time>
      </trkpt>
      <trkpt lat="44.52017" lon="0.70324">
        <ele>165.2</ele>
        <time>2017-01-22T08:48:29.000Z</time>
      </trkpt>
      <trkpt lat="44.52015" lon="0.70324">
        <ele>165.5</ele>
        <time>2017-01-22T08:48:30.000Z</time>
      </trkpt>
      <trkpt lat="44.52014" lon="0.70325">
        <ele>165.7</ele>
        <time>2017-01-22T08:48:31.000Z</time>
      </trkpt>
      <trkpt lat="44.52012" lon="0.70325">
        <ele>165.9</ele>
        <time>2017-01-22T08:48:32.000Z</time>
      </trkpt>
      <trkpt lat="44.52011" lon="0.70325">
        <ele>166.2</ele>
        <time>2017-01-22T08:48:33.000Z</time>
      </trkpt>
      <trkpt lat="44.52009" lon="0.70325">
        <ele>166.4</ele>
        <time>2017-01-22T08:48:34.000Z</time>
      </trkpt>
      <trkpt lat="44.52008" lon="0.70325">
        <ele>166.6</ele>
        <time>2017-01-22T08:48:35.000Z</time>
      </trkpt>
      <trkpt lat="44.52006" lon="0.70325">
        <ele>166.8</ele>
        <time>2017-01-22T08:48:36.000Z</time>
      </trkpt>
      <trkpt lat="44.52005" lon="0.70325">
        <ele>167</ele>
        <time>2017-01-22T08:48:37.000Z</time>
      </trkpt>
      <trkpt lat="44.52003" lon="0.70325">
        <ele>167.2</ele>
        <time>2017-01-22T08:48:38.000Z</time>
      </trkpt>
      <trkpt lat="44.52002" lon="0.70325">
        <ele>167.4</ele>
        <time>2017-01-22T08:48:39.000Z</time>
      </trkpt>
      <trkpt lat="44.52001" lon="0.70325">
        <ele>167.6</ele>
        <time>2017-01-22T08:48:40.000Z</time>
      </trkpt>
      <trkpt lat="44.52" lon="0.70325">
        <ele>167.8</ele>
        <time>2017-01-22T08:48:41.000Z</time>
      </trkpt>
      <trkpt lat="44.51998" lon="0.70325">
        <ele>168.1</ele>
        <time>2017-01-22T08:48:42.000Z</time>
      </trkpt>
      <trkpt lat="44.51997" lon="0.70325">
        <ele>168.5</ele>
        <time>2017-01-22T08:48:43.000Z</time>
      </trkpt>
      <trkpt lat="44.51996" lon="0.70325">
        <ele>168.8</ele>
        <time>2017-01-22T08:48:44.000Z</time>
      </trkpt>
      <trkpt lat="44.51995" lon="0.70325">
        <ele>169.1</ele>
        <time>2017-01-22T08:48:45.000Z</time>
      </trkpt>
      <trkpt lat="44.51993" lon="0.70325">
        <ele>169.4</ele>
        <time>2017-01-22T08:48:46.000Z</time>
      </trkpt>
      <trkpt lat="44.51992" lon="0.70325">
        <ele>169.8</ele>
        <time>2017-01-22T08:48:47.000Z</time>
      </trkpt>
      <trkpt lat="44.51991" lon="0.70325">
        <ele>170.1</ele>
        <time>2017-01-22T08:48:48.000Z</time>
      </trkpt>
      <trkpt lat="44.5199" lon="0.70325">
        <ele>170.4</ele>
        <time>2017-01-22T08:48:49.000Z</time>
      </trkpt>
      <trkpt lat="44.51988" lon="0.70325">
        <ele>170.7</ele>
        <time>2017-01-22T08:48:50.000Z</time>
      </trkpt>
      <trkpt lat="44.51987" lon="0.70325">
        <ele>171.1</ele>
        <time>2017-01-22T08:48:51.000Z</time>
      </trkpt>
      <trkpt lat="44.51986" lon="0.70325">
        <ele>171.4</ele>
        <time>2017-01-22T08:48:52.000Z</time>
      </trkpt>
      <trkpt lat="44.51985" lon="0.70326">
        <ele>171.7</ele>
        <time>2017-01-22T08:48:53.000Z</time>
      </trkpt>
      <trkpt lat="44.51983" lon="0.70326">
        <ele>172.1</ele>
        <time>2017-01-22T08:48:54.000Z</time>
      </trkpt>
      <trkpt lat="44.51982" lon="0.70326">
        <ele>172.5</ele>
        <time>2017-01-22T08:48:55.000Z</time>
      </trkpt>
      <trkpt lat="44.51981" lon="0.70327">
        <ele>172.8</ele>
        <time>2017-01-22T08:48:56.000Z</time>
      </trkpt>
      <trkpt lat="44.51979" lon="0.70328">
        <ele>173.2</ele>
        <time>2017-01-22T08:48:57.000Z</time>
      </trkpt>
      <trkpt lat="44.51978" lon="0.70328">
        <ele>173.6</ele>
        <time>2017-01-22T08:48:58.000Z</time>
      </trkpt>
      <trkpt lat="44.51976" lon="0.70329">
        <ele>174.1</ele>
        <time>2017-01-22T08:48:59.000Z</time>
      </trkpt>
      <trkpt lat="44.51975" lon="0.7033">
        <ele>174.5</ele>
        <time>2017-01-22T08:49:00.000Z</time>
      </trkpt>
      <trkpt lat="44.51974" lon="0.70332">
        <ele>174.9</ele>
        <time>2017-01-22T08:49:01.000Z</time>
      </trkpt>
      <trkpt lat="44.51972" lon="0.70333">
        <ele>175.3</ele>
        <time>2017-01-22T08:49:02.000Z</time>
      </trkpt>
      <trkpt lat="44.51971" lon="0.70334">
        <ele>175.7</ele>
        <time>2017-01-22T08:49:03.000Z</time>
      </trkpt>
      <trkpt lat="44.51969" lon="0.70336">
        <ele>176</ele>
        <time>2017-01-22T08:49:04.000Z</time>
      </trkpt>
      <trkpt lat="44.51968" lon="0.70337">
        <ele>176.3</ele>
        <time>2017-01-22T08:49:05.000Z</time>
      </trkpt>
      <trkpt lat="44.51967" lon="0.70339">
        <ele>176.6</ele>
        <time>2017-01-22T08:49:06.000Z</time>
      </trkpt>
      <trkpt lat="44.51966" lon="0.70341">
        <ele>176.9</ele>
        <time>2017-01-22T08:49:07.000Z</time>
      </trkpt>
      <trkpt lat="44.51965" lon="0.70342">
        <ele>177.2</ele>
        <time>2017-01-22T08:49:08.000Z</time>
      </trkpt>
      <trkpt lat="44.51963" lon="0.70344">
        <ele>177.4</ele>
        <time>2017-01-22T08:49:09.000Z</time>
      </trkpt>
      <trkpt lat="44.51963" lon="0.70346">
        <ele>177.6</ele>
        <time>2017-01-22T08:49:10.000Z</time>
      </trkpt>
      <trkpt lat="44.51962" lon="0.70348">
        <ele>177.8</ele>
        <time>2017-01-22T08:49:11.000Z</time>
      </trkpt>
      <trkpt lat="44.51961" lon="0.70349">
        <ele>178</ele>
        <time>2017-01-22T08:49:12.000Z</time>
      </trkpt>
      <trkpt lat="44.5196" lon="0.70351">
        <ele>178.1</ele>
        <time>2017-01-22T08:49:13.000Z</time>
      </trkpt>
      <trkpt lat="44.5196" lon="0.70353">
        <ele>178.2</ele>
        <time>2017-01-22T08:49:14.000Z</time>
      </trkpt>
      <trkpt lat="44.51959" lon="0.70355">
        <ele>178.3</ele>
        <time>2017-01-22T08:49:15.000Z</time>
      </trkpt>
      <trkpt lat="44.51959" lon="0.70357">
        <ele>178.4</ele>
        <time>2017-01-22T08:49:16.000Z</time>
      </trkpt>
      <trkpt lat="44.51959" lon="0.7036">
        <ele>178.4</ele>
        <time>2017-01-22T08:49:17.000Z</time>
      </trkpt>
      <trkpt lat="44.51959" lon="0.70362">
        <ele>178.4</ele>
        <time>2017-01-22T08:49:18.000Z</time>
      </trkpt>
      <trkpt lat="44.51958" lon="0.70365">
        <ele>178.5</ele>
        <time>2017-01-22T08:49:19.000Z</time>
      </trkpt>
      <trkpt lat="44.51958" lon="0.70367">
        <ele>178.5</ele>
        <time>2017-01-22T08:49:20.000Z</time>
      </trkpt>
      <trkpt lat="44.51958" lon="0.7037">
        <ele>178.6</ele>
        <time>2017-01-22T08:49:21.000Z</time>
      </trkpt>
      <trkpt lat="44.51957" lon="0.70372">
        <ele>178.6</ele>
        <time>2017-01-22T08:49:22.000Z</time>
      </trkpt>
      <trkpt lat="44.51957" lon="0.70375">
        <ele>178.7</ele>
        <time>2017-01-22T08:49:23.000Z</time>
      </trkpt>
      <trkpt lat="44.51956" lon="0.70378">
        <ele>178.8</ele>
        <time>2017-01-22T08:49:24.000Z</time>
      </trkpt>
      <trkpt lat="44.51956" lon="0.7038">
        <ele>178.9</ele>
        <time>2017-01-22T08:49:25.000Z</time>
      </trkpt>
      <trkpt lat="44.51955" lon="0.70382">
        <ele>179.1</ele>
        <time>2017-01-22T08:49:26.000Z</time>
      </trkpt>
      <trkpt lat="44.51955" lon="0.70385">
        <ele>179.2</ele>
        <time>2017-01-22T08:49:27.000Z</time>
      </trkpt>
      <trkpt lat="44.51954" lon="0.70387">
        <ele>179.4</ele>
        <time>2017-01-22T08:49:28.000Z</time>
      </trkpt>
      <trkpt lat="44.51953" lon="0.70389">
        <ele>179.6</ele>
        <time>2017-01-22T08:49:29.000Z</time>
      </trkpt>
      <trkpt lat="44.51953" lon="0.70392">
        <ele>179.7</ele>
        <time>2017-01-22T08:49:30.000Z</time>
      </trkpt>
      <trkpt lat="44.51952" lon="0.70394">
        <ele>179.9</ele>
        <time>2017-01-22T08:49:31.000Z</time>
      </trkpt>
      <trkpt lat="44.51952" lon="0.70396">
        <ele>180</ele>
        <time>2017-01-22T08:49:32.000Z</time>
      </trkpt>
      <trkpt lat="44.51951" lon="0.70399">
        <ele>180.2</ele>
        <time>2017-01-22T08:49:33.000Z</time>
      </trkpt>
      <trkpt lat="44.51951" lon="0.70401">
        <ele>180.3</ele>
        <time>2017-01-22T08:49:34.000Z</time>
      </trkpt>
      <trkpt lat="44.51951" lon="0.70403">
        <ele>180.4</ele>
        <time>2017-01-22T08:49:35.000Z</time>
      </trkpt>
      <trkpt lat="44.5195" lon="0.70405">
        <ele>180.4</ele>
        <time>2017-01-22T08:49:36.000Z</time>
      </trkpt>
      <trkpt lat="44.5195" lon="0.70408">
        <ele>180.5</ele>
        <time>2017-01-22T08:49:37.000Z</time>
      </trkpt>
      <trkpt lat="44.5195" lon="0.7041">
        <ele>180.6</ele>
        <time>2017-01-22T08:49:38.000Z</time>
      </trkpt>
      <trkpt lat="44.51949" lon="0.70412">
        <ele>180.7</ele>
        <time>2017-01-22T08:49:39.000Z</time>
      </trkpt>
      <trkpt lat="44.51949" lon="0.70415">
        <ele>180.8</ele>
        <time>2017-01-22T08:49:40.000Z</time>
      </trkpt>
      <trkpt lat="44.51948" lon="0.70417">
        <ele>181</ele>
        <time>2017-01-22T08:49:41.000Z</time>
      </trkpt>
      <trkpt lat="44.51948" lon="0.7042">
        <ele>181.1</ele>
        <time>2017-01-22T08:49:42.000Z</time>
      </trkpt>
      <trkpt lat="44.51947" lon="0.70423">
        <ele>181.2</ele>
        <time>2017-01-22T08:49:43.000Z</time>
      </trkpt>
      <trkpt lat="44.51947" lon="0.70425">
        <ele>181.3</ele>
        <time>2017-01-22T08:49:44.000Z</time>
      </trkpt>
      <trkpt lat="44.51946" lon="0.70428">
        <ele>181.4</ele>
        <time>2017-01-22T08:49:45.000Z</time>
      </trkpt>
      <trkpt lat="44.51945" lon="0.70431">
        <ele>181.5</ele>
        <time>2017-01-22T08:49:46.000Z</time>
      </trkpt>
      <trkpt lat="44.51944" lon="0.70434">
        <ele>181.7</ele>
        <time>2017-01-22T08:49:47.000Z</time>
      </trkpt>
      <trkpt lat="44.51944" lon="0.70437">
        <ele>181.7</ele>
        <time>2017-01-22T08:49:48.000Z</time>
      </trkpt>
      <trkpt lat="44.51943" lon="0.7044">
        <ele>181.8</ele>
        <time>2017-01-22T08:49:49.000Z</time>
      </trkpt>
      <trkpt lat="44.51943" lon="0.70443">
        <ele>181.9</ele>
        <time>2017-01-22T08:49:50.000Z</time>
      </trkpt>
      <trkpt lat="44.51942" lon="0.70446">
        <ele>181.9</ele>
        <time>2017-01-22T08:49:51.000Z</time>
      </trkpt>
      <trkpt lat="44.51942" lon="0.70449">
        <ele>181.9</ele>
        <time>2017-01-22T08:49:52.000Z</time>
      </trkpt>
      <trkpt lat="44.51942" lon="0.70452">
        <ele>181.9</ele>
        <time>2017-01-22T08:49:53.000Z</time>
      </trkpt>
      <trkpt lat="44.51941" lon="0.70455">
        <ele>181.9</ele>
        <time>2017-01-22T08:49:54.000Z</time>
      </trkpt>
      <trkpt lat="44.51941" lon="0.70458">
        <ele>181.9</ele>
        <time>2017-01-22T08:49:55.000Z</time>
      </trkpt>
      <trkpt lat="44.51941" lon="0.70461">
        <ele>181.8</ele>
        <time>2017-01-22T08:49:56.000Z</time>
      </trkpt>
      <trkpt lat="44.51941" lon="0.70464">
        <ele>181.8</ele>
        <time>2017-01-22T08:49:57.000Z</time>
      </trkpt>
      <trkpt lat="44.5194" lon="0.70467">
        <ele>181.8</ele>
        <time>2017-01-22T08:49:58.000Z</time>
      </trkpt>
      <trkpt lat="44.5194" lon="0.7047">
        <ele>181.7</ele>
        <time>2017-01-22T08:49:59.000Z</time>
      </trkpt>
      <trkpt lat="44.5194" lon="0.70473">
        <ele>181.8</ele>
        <time>2017-01-22T08:50:00.000Z</time>
      </trkpt>
      <trkpt lat="44.51939" lon="0.70475">
        <ele>181.8</ele>
        <time>2017-01-22T08:50:01.000Z</time>
      </trkpt>
      <trkpt lat="44.51939" lon="0.70478">
        <ele>181.9</ele>
        <time>2017-01-22T08:50:02.000Z</time>
      </trkpt>
      <trkpt lat="44.51939" lon="0.7048">
        <ele>181.9</ele>
        <time>2017-01-22T08:50:03.000Z</time>
      </trkpt>
      <trkpt lat="44.51938" lon="0.70483">
        <ele>182</ele>
        <time>2017-01-22T08:50:04.000Z</time>
      </trkpt>
      <trkpt lat="44.51938" lon="0.70485">
        <ele>182.1</ele>
        <time>2017-01-22T08:50:05.000Z</time>
      </trkpt>
      <trkpt lat="44.51937" lon="0.70488">
        <ele>182.2</ele>
        <time>2017-01-22T08:50:06.000Z</time>
      </trkpt>
      <trkpt lat="44.51936" lon="0.7049">
        <ele>182.3</ele>
        <time>2017-01-22T08:50:07.000Z</time>
      </trkpt>
      <trkpt lat="44.51936" lon="0.70493">
        <ele>182.3</ele>
        <time>2017-01-22T08:50:08.000Z</time>
      </trkpt>
      <trkpt lat="44.51935" lon="0.70496">
        <ele>182.5</ele>
        <time>2017-01-22T08:50:09.000Z</time>
      </trkpt>
      <trkpt lat="44.51935" lon="0.70498">
        <ele>182.5</ele>
        <time>2017-01-22T08:50:10.000Z</time>
      </trkpt>
      <trkpt lat="44.51934" lon="0.70501">
        <ele>182.6</ele>
        <time>2017-01-22T08:50:11.000Z</time>
      </trkpt>
      <trkpt lat="44.51934" lon="0.70504">
        <ele>182.4</ele>
        <time>2017-01-22T08:50:12.000Z</time>
      </trkpt>
      <trkpt lat="44.51933" lon="0.70506">
        <ele>182.3</ele>
        <time>2017-01-22T08:50:13.000Z</time>
      </trkpt>
      <trkpt lat="44.51933" lon="0.70509">
        <ele>182.1</ele>
        <time>2017-01-22T08:50:14.000Z</time>
      </trkpt>
      <trkpt lat="44.51932" lon="0.70512">
        <ele>181.9</ele>
        <time>2017-01-22T08:50:15.000Z</time>
      </trkpt>
      <trkpt lat="44.51932" lon="0.70515">
        <ele>181.7</ele>
        <time>2017-01-22T08:50:16.000Z</time>
      </trkpt>
      <trkpt lat="44.51931" lon="0.70518">
        <ele>181.4</ele>
        <time>2017-01-22T08:50:17.000Z</time>
      </trkpt>
      <trkpt lat="44.5193" lon="0.70521">
        <ele>181.2</ele>
        <time>2017-01-22T08:50:18.000Z</time>
      </trkpt>
      <trkpt lat="44.5193" lon="0.70524">
        <ele>181</ele>
        <time>2017-01-22T08:50:19.000Z</time>
      </trkpt>
      <trkpt lat="44.51929" lon="0.70527">
        <ele>180.7</ele>
        <time>2017-01-22T08:50:20.000Z</time>
      </trkpt>
      <trkpt lat="44.51929" lon="0.7053">
        <ele>180.4</ele>
        <time>2017-01-22T08:50:21.000Z</time>
      </trkpt>
      <trkpt lat="44.51928" lon="0.70534">
        <ele>180.1</ele>
        <time>2017-01-22T08:50:22.000Z</time>
      </trkpt>
      <trkpt lat="44.51928" lon="0.70537">
        <ele>179.8</ele>
        <time>2017-01-22T08:50:23.000Z</time>
      </trkpt>
      <trkpt lat="44.51928" lon="0.7054">
        <ele>179.5</ele>
        <time>2017-01-22T08:50:24.000Z</time>
      </trkpt>
      <trkpt lat="44.51927" lon="0.70543">
        <ele>179.2</ele>
        <time>2017-01-22T08:50:25.000Z</time>
      </trkpt>
      <trkpt lat="44.51927" lon="0.70546">
        <ele>178.8</ele>
        <time>2017-01-22T08:50:26.000Z</time>
      </trkpt>
      <trkpt lat="44.51926" lon="0.7055">
        <ele>178.5</ele>
        <time>2017-01-22T08:50:27.000Z</time>
      </trkpt>
      <trkpt lat="44.51926" lon="0.70553">
        <ele>178.1</ele>
        <time>2017-01-22T08:50:28.000Z</time>
      </trkpt>
      <trkpt lat="44.51926" lon="0.70556">
        <ele>177.8</ele>
        <time>2017-01-22T08:50:29.000Z</time>
      </trkpt>
      <trkpt lat="44.51925" lon="0.70559">
        <ele>177.5</ele>
        <time>2017-01-22T08:50:30.000Z</time>
      </trkpt>
      <trkpt lat="44.51924" lon="0.70563">
        <ele>177.2</ele>
        <time>2017-01-22T08:50:31.000Z</time>
      </trkpt>
      <trkpt lat="44.51923" lon="0.70567">
        <ele>176.9</ele>
        <time>2017-01-22T08:50:32.000Z</time>
      </trkpt>
      <trkpt lat="44.51922" lon="0.70571">
        <ele>176.6</ele>
        <time>2017-01-22T08:50:33.000Z</time>
      </trkpt>
      <trkpt lat="44.5192" lon="0.70576">
        <ele>176.4</ele>
        <time>2017-01-22T08:50:34.000Z</time>
      </trkpt>
      <trkpt lat="44.51918" lon="0.7058">
        <ele>176.1</ele>
        <time>2017-01-22T08:50:35.000Z</time>
      </trkpt>
      <trkpt lat="44.51917" lon="0.70585">
        <ele>175.8</ele>
        <time>2017-01-22T08:50:36.000Z</time>
      </trkpt>
      <trkpt lat="44.51916" lon="0.70589">
        <ele>175.6</ele>
        <time>2017-01-22T08:50:37.000Z</time>
      </trkpt>
      <trkpt lat="44.51914" lon="0.70593">
        <ele>175.5</ele>
        <time>2017-01-22T08:50:38.000Z</time>
      </trkpt>
      <trkpt lat="44.51913" lon="0.70597">
        <ele>175.3</ele>
        <time>2017-01-22T08:50:39.000Z</time>
      </trkpt>
      <trkpt lat="44.51911" lon="0.70601">
        <ele>175.2</ele>
        <time>2017-01-22T08:50:40.000Z</time>
      </trkpt>
      <trkpt lat="44.5191" lon="0.70604">
        <ele>175.1</ele>
        <time>2017-01-22T08:50:41.000Z</time>
      </trkpt>
      <trkpt lat="44.51909" lon="0.70608">
        <ele>175.1</ele>
        <time>2017-01-22T08:50:42.000Z</time>
      </trkpt>
      <trkpt lat="44.51908" lon="0.70611">
        <ele>175</ele>
        <time>2017-01-22T08:50:43.000Z</time>
      </trkpt>
      <trkpt lat="44.51906" lon="0.70614">
        <ele>174.9</ele>
        <time>2017-01-22T08:50:44.000Z</time>
      </trkpt>
      <trkpt lat="44.51905" lon="0.70617">
        <ele>174.7</ele>
        <time>2017-01-22T08:50:45.000Z</time>
      </trkpt>
      <trkpt lat="44.51904" lon="0.70621">
        <ele>174.5</ele>
        <time>2017-01-22T08:50:46.000Z</time>
      </trkpt>
      <trkpt lat="44.51903" lon="0.70625">
        <ele>174.3</ele>
        <time>2017-01-22T08:50:47.000Z</time>
      </trkpt>
      <trkpt lat="44.51902" lon="0.70629">
        <ele>174</ele>
        <time>2017-01-22T08:50:48.000Z</time>
      </trkpt>
      <trkpt lat="44.51901" lon="0.70634">
        <ele>173.7</ele>
        <time>2017-01-22T08:50:49.000Z</time>
      </trkpt>
      <trkpt lat="44.519" lon="0.70638">
        <ele>173.4</ele>
        <time>2017-01-22T08:50:50.000Z</time>
      </trkpt>
      <trkpt lat="44.51899" lon="0.70643">
        <ele>173</ele>
        <time>2017-01-22T08:50:51.000Z</time>
      </trkpt>
      <trkpt lat="44.51898" lon="0.70647">
        <ele>172.7</ele>
        <time>2017-01-22T08:50:52.000Z</time>
      </trkpt>
      <trkpt lat="44.51896" lon="0.70652">
        <ele>172.4</ele>
        <time>2017-01-22T08:50:53.000Z</time>
      </trkpt>
      <trkpt lat="44.51895" lon="0.70656">
        <ele>172.1</ele>
        <time>2017-01-22T08:50:54.000Z</time>
      </trkpt>
      <trkpt lat="44.51894" lon="0.7066">
        <ele>171.7</ele>
        <time>2017-01-22T08:50:55.000Z</time>
      </trkpt>
      <trkpt lat="44.51893" lon="0.70664">
        <ele>171.5</ele>
        <time>2017-01-22T08:50:56.000Z</time>
      </trkpt>
      <trkpt lat="44.51892" lon="0.70668">
        <ele>171.3</ele>
        <time>2017-01-22T08:50:57.000Z</time>
      </trkpt>
      <trkpt lat="44.5189" lon="0.70671">
        <ele>171.5</ele>
        <time>2017-01-22T08:50:58.000Z</time>
      </trkpt>
      <trkpt lat="44.51889" lon="0.70674">
        <ele>171.6</ele>
        <time>2017-01-22T08:50:59.000Z</time>
      </trkpt>
      <trkpt lat="44.51887" lon="0.70677">
        <ele>171.8</ele>
        <time>2017-01-22T08:51:00.000Z</time>
      </trkpt>
      <trkpt lat="44.51885" lon="0.7068">
        <ele>172.1</ele>
        <time>2017-01-22T08:51:01.000Z</time>
      </trkpt>
      <trkpt lat="44.51883" lon="0.70682">
        <ele>172.3</ele>
        <time>2017-01-22T08:51:02.000Z</time>
      </trkpt>
      <trkpt lat="44.51881" lon="0.70684">
        <ele>172.6</ele>
        <time>2017-01-22T08:51:03.000Z</time>
      </trkpt>
      <trkpt lat="44.51879" lon="0.70685">
        <ele>172.8</ele>
        <time>2017-01-22T08:51:04.000Z</time>
      </trkpt>
      <trkpt lat="44.51878" lon="0.70686">
        <ele>173.1</ele>
        <time>2017-01-22T08:51:05.000Z</time>
      </trkpt>
      <trkpt lat="44.51876" lon="0.70688">
        <ele>173.3</ele>
        <time>2017-01-22T08:51:06.000Z</time>
      </trkpt>
      <trkpt lat="44.51874" lon="0.70689">
        <ele>173.6</ele>
        <time>2017-01-22T08:51:07.000Z</time>
      </trkpt>
      <trkpt lat="44.51873" lon="0.7069">
        <ele>173.8</ele>
        <time>2017-01-22T08:51:08.000Z</time>
      </trkpt>
      <trkpt lat="44.51871" lon="0.70692">
        <ele>174</ele>
        <time>2017-01-22T08:51:09.000Z</time>
      </trkpt>
      <trkpt lat="44.51869" lon="0.70694">
        <ele>174.2</ele>
        <time>2017-01-22T08:51:10.000Z</time>
      </trkpt>
      <trkpt lat="44.51867" lon="0.70696">
        <ele>174.3</ele>
        <time>2017-01-22T08:51:11.000Z</time>
      </trkpt>
      <trkpt lat="44.51865" lon="0.70698">
        <ele>174.5</ele>
        <time>2017-01-22T08:51:12.000Z</time>
      </trkpt>
      <trkpt lat="44.51863" lon="0.70702">
        <ele>174.5</ele>
        <time>2017-01-22T08:51:13.000Z</time>
      </trkpt>
      <trkpt lat="44.51862" lon="0.70705">
        <ele>174.6</ele>
        <time>2017-01-22T08:51:14.000Z</time>
      </trkpt>
      <trkpt lat="44.5186" lon="0.70709">
        <ele>174.6</ele>
        <time>2017-01-22T08:51:15.000Z</time>
      </trkpt>
      <trkpt lat="44.51858" lon="0.70712">
        <ele>174.5</ele>
        <time>2017-01-22T08:51:16.000Z</time>
      </trkpt>
      <trkpt lat="44.51856" lon="0.70716">
        <ele>174.5</ele>
        <time>2017-01-22T08:51:17.000Z</time>
      </trkpt>
      <trkpt lat="44.51854" lon="0.7072">
        <ele>174.4</ele>
        <time>2017-01-22T08:51:18.000Z</time>
      </trkpt>
      <trkpt lat="44.51852" lon="0.70724">
        <ele>174.3</ele>
        <time>2017-01-22T08:51:19.000Z</time>
      </trkpt>
      <trkpt lat="44.51851" lon="0.70727">
        <ele>174.2</ele>
        <time>2017-01-22T08:51:20.000Z</time>
      </trkpt>
      <trkpt lat="44.51849" lon="0.7073">
        <ele>174.1</ele>
        <time>2017-01-22T08:51:21.000Z</time>
      </trkpt>
      <trkpt lat="44.51848" lon="0.70733">
        <ele>174.1</ele>
        <time>2017-01-22T08:51:22.000Z</time>
      </trkpt>
      <trkpt lat="44.51846" lon="0.70736">
        <ele>174</ele>
        <time>2017-01-22T08:51:23.000Z</time>
      </trkpt>
      <trkpt lat="44.51845" lon="0.70738">
        <ele>173.9</ele>
        <time>2017-01-22T08:51:24.000Z</time>
      </trkpt>
      <trkpt lat="44.51843" lon="0.70741">
        <ele>173.8</ele>
        <time>2017-01-22T08:51:25.000Z</time>
      </trkpt>
      <trkpt lat="44.51841" lon="0.70744">
        <ele>173.8</ele>
        <time>2017-01-22T08:51:26.000Z</time>
      </trkpt>
      <trkpt lat="44.51839" lon="0.70747">
        <ele>173.7</ele>
        <time>2017-01-22T08:51:27.000Z</time>
      </trkpt>
      <trkpt lat="44.51837" lon="0.7075">
        <ele>173.6</ele>
        <time>2017-01-22T08:51:28.000Z</time>
      </trkpt>
      <trkpt lat="44.51835" lon="0.70753">
        <ele>173.5</ele>
        <time>2017-01-22T08:51:29.000Z</time>
      </trkpt>
      <trkpt lat="44.51833" lon="0.70756">
        <ele>173.4</ele>
        <time>2017-01-22T08:51:30.000Z</time>
      </trkpt>
      <trkpt lat="44.51831" lon="0.70759">
        <ele>173.1</ele>
        <time>2017-01-22T08:51:31.000Z</time>
      </trkpt>
      <trkpt lat="44.51828" lon="0.70761">
        <ele>172.7</ele>
        <time>2017-01-22T08:51:32.000Z</time>
      </trkpt>
      <trkpt lat="44.51825" lon="0.70763">
        <ele>172.4</ele>
        <time>2017-01-22T08:51:33.000Z</time>
      </trkpt>
      <trkpt lat="44.51821" lon="0.70763">
        <ele>172.2</ele>
        <time>2017-01-22T08:51:34.000Z</time>
      </trkpt>
      <trkpt lat="44.51818" lon="0.70762">
        <ele>172.2</ele>
        <time>2017-01-22T08:51:35.000Z</time>
      </trkpt>
      <trkpt lat="44.51816" lon="0.7076">
        <ele>172.4</ele>
        <time>2017-01-22T08:51:36.000Z</time>
      </trkpt>
      <trkpt lat="44.51814" lon="0.70758">
        <ele>172.5</ele>
        <time>2017-01-22T08:51:37.000Z</time>
      </trkpt>
      <trkpt lat="44.51813" lon="0.70756">
        <ele>172.7</ele>
        <time>2017-01-22T08:51:38.000Z</time>
      </trkpt>
      <trkpt lat="44.51811" lon="0.70753">
        <ele>172.9</ele>
        <time>2017-01-22T08:51:39.000Z</time>
      </trkpt>
      <trkpt lat="44.5181" lon="0.70751">
        <ele>173</ele>
        <time>2017-01-22T08:51:40.000Z</time>
      </trkpt>
      <trkpt lat="44.51808" lon="0.70749">
        <ele>173.2</ele>
        <time>2017-01-22T08:51:41.000Z</time>
      </trkpt>
      <trkpt lat="44.51807" lon="0.70748">
        <ele>173.4</ele>
        <time>2017-01-22T08:51:42.000Z</time>
      </trkpt>
      <trkpt lat="44.51805" lon="0.70746">
        <ele>173.6</ele>
        <time>2017-01-22T08:51:43.000Z</time>
      </trkpt>
      <trkpt lat="44.51803" lon="0.70744">
        <ele>173.7</ele>
        <time>2017-01-22T08:51:44.000Z</time>
      </trkpt>
      <trkpt lat="44.51802" lon="0.70743">
        <ele>173.9</ele>
        <time>2017-01-22T08:51:45.000Z</time>
      </trkpt>
      <trkpt lat="44.518" lon="0.70741">
        <ele>174.1</ele>
        <time>2017-01-22T08:51:46.000Z</time>
      </trkpt>
      <trkpt lat="44.51798" lon="0.7074">
        <ele>174.3</ele>
        <time>2017-01-22T08:51:47.000Z</time>
      </trkpt>
      <trkpt lat="44.51796" lon="0.70738">
        <ele>174.4</ele>
        <time>2017-01-22T08:51:48.000Z</time>
      </trkpt>
      <trkpt lat="44.51795" lon="0.70736">
        <ele>174.6</ele>
        <time>2017-01-22T08:51:49.000Z</time>
      </trkpt>
      <trkpt lat="44.51793" lon="0.70735">
        <ele>174.8</ele>
        <time>2017-01-22T08:51:50.000Z</time>
      </trkpt>
      <trkpt lat="44.51792" lon="0.70733">
        <ele>175</ele>
        <time>2017-01-22T08:51:51.000Z</time>
      </trkpt>
      <trkpt lat="44.5179" lon="0.70732">
        <ele>175.2</ele>
        <time>2017-01-22T08:51:52.000Z</time>
      </trkpt>
      <trkpt lat="44.51788" lon="0.7073">
        <ele>175.4</ele>
        <time>2017-01-22T08:51:53.000Z</time>
      </trkpt>
      <trkpt lat="44.51787" lon="0.70728">
        <ele>175.6</ele>
        <time>2017-01-22T08:51:54.000Z</time>
      </trkpt>
      <trkpt lat="44.51785" lon="0.70727">
        <ele>175.9</ele>
        <time>2017-01-22T08:51:55.000Z</time>
      </trkpt>
      <trkpt lat="44.51784" lon="0.70725">
        <ele>176.1</ele>
        <time>2017-01-22T08:51:56.000Z</time>
      </trkpt>
      <trkpt lat="44.51783" lon="0.70724">
        <ele>176.3</ele>
        <time>2017-01-22T08:51:57.000Z</time>
      </trkpt>
      <trkpt lat="44.51781" lon="0.70722">
        <ele>176.5</ele>
        <time>2017-01-22T08:51:58.000Z</time>
      </trkpt>
      <trkpt lat="44.5178" lon="0.70721">
        <ele>176.7</ele>
        <time>2017-01-22T08:51:59.000Z</time>
      </trkpt>
      <trkpt lat="44.51778" lon="0.70719">
        <ele>177</ele>
        <time>2017-01-22T08:52:00.000Z</time>
      </trkpt>
      <trkpt lat="44.51777" lon="0.70717">
        <ele>177.2</ele>
        <time>2017-01-22T08:52:01.000Z</time>
      </trkpt>
      <trkpt lat="44.51775" lon="0.70716">
        <ele>177.4</ele>
        <time>2017-01-22T08:52:02.000Z</time>
      </trkpt>
      <trkpt lat="44.51774" lon="0.70714">
        <ele>177.7</ele>
        <time>2017-01-22T08:52:03.000Z</time>
      </trkpt>
      <trkpt lat="44.51773" lon="0.70713">
        <ele>177.9</ele>
        <time>2017-01-22T08:52:04.000Z</time>
      </trkpt>
      <trkpt lat="44.51771" lon="0.70711">
        <ele>178.2</ele>
        <time>2017-01-22T08:52:05.000Z</time>
      </trkpt>
      <trkpt lat="44.5177" lon="0.7071">
        <ele>178.4</ele>
        <time>2017-01-22T08:52:06.000Z</time>
      </trkpt>
      <trkpt lat="44.51768" lon="0.70708">
        <ele>178.6</ele>
        <time>2017-01-22T08:52:07.000Z</time>
      </trkpt>
      <trkpt lat="44.51767" lon="0.70707">
        <ele>178.8</ele>
        <time>2017-01-22T08:52:08.000Z</time>
      </trkpt>
      <trkpt lat="44.51765" lon="0.70706">
        <ele>179.1</ele>
        <time>2017-01-22T08:52:09.000Z</time>
      </trkpt>
      <trkpt lat="44.51764" lon="0.70704">
        <ele>179.3</ele>
        <time>2017-01-22T08:52:10.000Z</time>
      </trkpt>
      <trkpt lat="44.51763" lon="0.70703">
        <ele>179.5</ele>
        <time>2017-01-22T08:52:11.000Z</time>
      </trkpt>
      <trkpt lat="44.51761" lon="0.70701">
        <ele>179.8</ele>
        <time>2017-01-22T08:52:12.000Z</time>
      </trkpt>
      <trkpt lat="44.5176" lon="0.707">
        <ele>180</ele>
        <time>2017-01-22T08:52:13.000Z</time>
      </trkpt>
      <trkpt lat="44.51758" lon="0.70699">
        <ele>180.2</ele>
        <time>2017-01-22T08:52:14.000Z</time>
      </trkpt>
      <trkpt lat="44.51757" lon="0.70697">
        <ele>180.5</ele>
        <time>2017-01-22T08:52:15.000Z</time>
      </trkpt>
      <trkpt lat="44.51755" lon="0.70696">
        <ele>180.7</ele>
        <time>2017-01-22T08:52:16.000Z</time>
      </trkpt>
      <trkpt lat="44.51754" lon="0.70695">
        <ele>180.9</ele>
        <time>2017-01-22T08:52:17.000Z</time>
      </trkpt>
      <trkpt lat="44.51753" lon="0.70694">
        <ele>181.1</ele>
        <time>2017-01-22T08:52:18.000Z</time>
      </trkpt>
      <trkpt lat="44.51751" lon="0.70692">
        <ele>181.4</ele>
        <time>2017-01-22T08:52:19.000Z</time>
      </trkpt>
      <trkpt lat="44.5175" lon="0.70691">
        <ele>181.6</ele>
        <time>2017-01-22T08:52:20.000Z</time>
      </trkpt>
      <trkpt lat="44.51748" lon="0.7069">
        <ele>181.8</ele>
        <time>2017-01-22T08:52:21.000Z</time>
      </trkpt>
      <trkpt lat="44.51747" lon="0.70689">
        <ele>181.9</ele>
        <time>2017-01-22T08:52:22.000Z</time>
      </trkpt>
      <trkpt lat="44.51746" lon="0.70688">
        <ele>182.1</ele>
        <time>2017-01-22T08:52:23.000Z</time>
      </trkpt>
      <trkpt lat="44.51744" lon="0.70686">
        <ele>182.2</ele>
        <time>2017-01-22T08:52:24.000Z</time>
      </trkpt>
      <trkpt lat="44.51743" lon="0.70685">
        <ele>182.4</ele>
        <time>2017-01-22T08:52:25.000Z</time>
      </trkpt>
      <trkpt lat="44.51742" lon="0.70684">
        <ele>182.5</ele>
        <time>2017-01-22T08:52:26.000Z</time>
      </trkpt>
      <trkpt lat="44.5174" lon="0.70683">
        <ele>182.7</ele>
        <time>2017-01-22T08:52:27.000Z</time>
      </trkpt>
      <trkpt lat="44.51739" lon="0.70682">
        <ele>182.8</ele>
        <time>2017-01-22T08:52:28.000Z</time>
      </trkpt>
      <trkpt lat="44.51737" lon="0.70681">
        <ele>183</ele>
        <time>2017-01-22T08:52:29.000Z</time>
      </trkpt>
      <trkpt lat="44.51736" lon="0.70679">
        <ele>183.1</ele>
        <time>2017-01-22T08:52:30.000Z</time>
      </trkpt>
      <trkpt lat="44.51735" lon="0.70678">
        <ele>183.3</ele>
        <time>2017-01-22T08:52:31.000Z</time>
      </trkpt>
      <trkpt lat="44.51733" lon="0.70677">
        <ele>183.4</ele>
        <time>2017-01-22T08:52:32.000Z</time>
      </trkpt>
      <trkpt lat="44.51732" lon="0.70676">
        <ele>183.5</ele>
        <time>2017-01-22T08:52:33.000Z</time>
      </trkpt>
      <trkpt lat="44.5173" lon="0.70675">
        <ele>183.7</ele>
        <time>2017-01-22T08:52:34.000Z</time>
      </trkpt>
      <trkpt lat="44.51729" lon="0.70673">
        <ele>183.8</ele>
        <time>2017-01-22T08:52:35.000Z</time>
      </trkpt>
      <trkpt lat="44.51727" lon="0.70672">
        <ele>184</ele>
        <time>2017-01-22T08:52:36.000Z</time>
      </trkpt>
      <trkpt lat="44.51726" lon="0.70671">
        <ele>184.1</ele>
        <time>2017-01-22T08:52:37.000Z</time>
      </trkpt>
      <trkpt lat="44.51724" lon="0.7067">
        <ele>184.2</ele>
        <time>2017-01-22T08:52:38.000Z</time>
      </trkpt>
      <trkpt lat="44.51722" lon="0.70668">
        <ele>184.4</ele>
        <time>2017-01-22T08:52:39.000Z</time>
      </trkpt>
      <trkpt lat="44.51721" lon="0.70667">
        <ele>184.5</ele>
        <time>2017-01-22T08:52:40.000Z</time>
      </trkpt>
      <trkpt lat="44.51719" lon="0.70666">
        <ele>184.7</ele>
        <time>2017-01-22T08:52:41.000Z</time>
      </trkpt>
      <trkpt lat="44.51717" lon="0.70664">
        <ele>184.9</ele>
        <time>2017-01-22T08:52:42.000Z</time>
      </trkpt>
      <trkpt lat="44.51716" lon="0.70663">
        <ele>185</ele>
        <time>2017-01-22T08:52:43.000Z</time>
      </trkpt>
      <trkpt lat="44.51714" lon="0.70662">
        <ele>185.2</ele>
        <time>2017-01-22T08:52:44.000Z</time>
      </trkpt>
      <trkpt lat="44.51713" lon="0.70661">
        <ele>185.3</ele>
        <time>2017-01-22T08:52:45.000Z</time>
      </trkpt>
      <trkpt lat="44.51711" lon="0.7066">
        <ele>185.5</ele>
        <time>2017-01-22T08:52:46.000Z</time>
      </trkpt>
      <trkpt lat="44.5171" lon="0.70659">
        <ele>185.6</ele>
        <time>2017-01-22T08:52:47.000Z</time>
      </trkpt>
      <trkpt lat="44.51709" lon="0.70658">
        <ele>185.7</ele>
        <time>2017-01-22T08:52:48.000Z</time>
      </trkpt>
      <trkpt lat="44.51708" lon="0.70657">
        <ele>185.8</ele>
        <time>2017-01-22T08:52:49.000Z</time>
      </trkpt>
      <trkpt lat="44.51707" lon="0.70656">
        <ele>185.9</ele>
        <time>2017-01-22T08:52:50.000Z</time>
      </trkpt>
      <trkpt lat="44.51705" lon="0.70655">
        <ele>186</ele>
        <time>2017-01-22T08:52:51.000Z</time>
      </trkpt>
      <trkpt lat="44.51704" lon="0.70654">
        <ele>186.2</ele>
        <time>2017-01-22T08:52:52.000Z</time>
      </trkpt>
      <trkpt lat="44.51702" lon="0.70653">
        <ele>186.3</ele>
        <time>2017-01-22T08:52:53.000Z</time>
      </trkpt>
      <trkpt lat="44.51701" lon="0.70651">
        <ele>186.5</ele>
        <time>2017-01-22T08:52:54.000Z</time>
      </trkpt>
      <trkpt lat="44.51699" lon="0.7065">
        <ele>186.7</ele>
        <time>2017-01-22T08:52:55.000Z</time>
      </trkpt>
      <trkpt lat="44.51698" lon="0.70648">
        <ele>186.9</ele>
        <time>2017-01-22T08:52:56.000Z</time>
      </trkpt>
      <trkpt lat="44.51697" lon="0.70647">
        <ele>187.1</ele>
        <time>2017-01-22T08:52:57.000Z</time>
      </trkpt>
      <trkpt lat="44.51696" lon="0.70645">
        <ele>187.3</ele>
        <time>2017-01-22T08:52:58.000Z</time>
      </trkpt>
      <trkpt lat="44.51694" lon="0.70644">
        <ele>187.5</ele>
        <time>2017-01-22T08:52:59.000Z</time>
      </trkpt>
      <trkpt lat="44.51693" lon="0.70643">
        <ele>187.7</ele>
        <time>2017-01-22T08:53:00.000Z</time>
      </trkpt>
      <trkpt lat="44.51692" lon="0.70641">
        <ele>187.9</ele>
        <time>2017-01-22T08:53:01.000Z</time>
      </trkpt>
      <trkpt lat="44.51691" lon="0.7064">
        <ele>188</ele>
        <time>2017-01-22T08:53:02.000Z</time>
      </trkpt>
      <trkpt lat="44.51689" lon="0.70639">
        <ele>188.2</ele>
        <time>2017-01-22T08:53:03.000Z</time>
      </trkpt>
      <trkpt lat="44.51688" lon="0.70638">
        <ele>188.3</ele>
        <time>2017-01-22T08:53:04.000Z</time>
      </trkpt>
      <trkpt lat="44.51686" lon="0.70636">
        <ele>188.5</ele>
        <time>2017-01-22T08:53:05.000Z</time>
      </trkpt>
      <trkpt lat="44.51684" lon="0.70635">
        <ele>188.6</ele>
        <time>2017-01-22T08:53:06.000Z</time>
      </trkpt>
      <trkpt lat="44.51683" lon="0.70634">
        <ele>188.8</ele>
        <time>2017-01-22T08:53:07.000Z</time>
      </trkpt>
      <trkpt lat="44.51681" lon="0.70632">
        <ele>189</ele>
        <time>2017-01-22T08:53:08.000Z</time>
      </trkpt>
      <trkpt lat="44.5168" lon="0.70631">
        <ele>189.2</ele>
        <time>2017-01-22T08:53:09.000Z</time>
      </trkpt>
      <trkpt lat="44.51679" lon="0.70629">
        <ele>189.4</ele>
        <time>2017-01-22T08:53:10.000Z</time>
      </trkpt>
      <trkpt lat="44.51678" lon="0.70628">
        <ele>189.6</ele>
        <time>2017-01-22T08:53:11.000Z</time>
      </trkpt>
      <trkpt lat="44.51676" lon="0.70626">
        <ele>189.8</ele>
        <time>2017-01-22T08:53:12.000Z</time>
      </trkpt>
      <trkpt lat="44.51675" lon="0.70624">
        <ele>190.1</ele>
        <time>2017-01-22T08:53:13.000Z</time>
      </trkpt>
      <trkpt lat="44.51674" lon="0.70623">
        <ele>190.3</ele>
        <time>2017-01-22T08:53:14.000Z</time>
      </trkpt>
      <trkpt lat="44.51673" lon="0.70621">
        <ele>190.6</ele>
        <time>2017-01-22T08:53:15.000Z</time>
      </trkpt>
      <trkpt lat="44.51672" lon="0.70619">
        <ele>190.8</ele>
        <time>2017-01-22T08:53:16.000Z</time>
      </trkpt>
      <trkpt lat="44.5167" lon="0.70618">
        <ele>191</ele>
        <time>2017-01-22T08:53:17.000Z</time>
      </trkpt>
      <trkpt lat="44.51669" lon="0.70616">
        <ele>191.2</ele>
        <time>2017-01-22T08:53:18.000Z</time>
      </trkpt>
      <trkpt lat="44.51668" lon="0.70615">
        <ele>191.4</ele>
        <time>2017-01-22T08:53:19.000Z</time>
      </trkpt>
      <trkpt lat="44.51666" lon="0.70614">
        <ele>191.5</ele>
        <time>2017-01-22T08:53:20.000Z</time>
      </trkpt>
      <trkpt lat="44.51665" lon="0.70612">
        <ele>191.7</ele>
        <time>2017-01-22T08:53:21.000Z</time>
      </trkpt>
      <trkpt lat="44.51663" lon="0.70611">
        <ele>191.9</ele>
        <time>2017-01-22T08:53:22.000Z</time>
      </trkpt>
      <trkpt lat="44.51662" lon="0.7061">
        <ele>192</ele>
        <time>2017-01-22T08:53:23.000Z</time>
      </trkpt>
      <trkpt lat="44.5166" lon="0.70609">
        <ele>192.2</ele>
        <time>2017-01-22T08:53:24.000Z</time>
      </trkpt>
      <trkpt lat="44.51659" lon="0.70608">
        <ele>192.4</ele>
        <time>2017-01-22T08:53:25.000Z</time>
      </trkpt>
      <trkpt lat="44.51657" lon="0.70606">
        <ele>192.5</ele>
        <time>2017-01-22T08:53:26.000Z</time>
      </trkpt>
      <trkpt lat="44.51656" lon="0.70605">
        <ele>192.7</ele>
        <time>2017-01-22T08:53:27.000Z</time>
      </trkpt>
      <trkpt lat="44.51654" lon="0.70604">
        <ele>192.8</ele>
        <time>2017-01-22T08:53:28.000Z</time>
      </trkpt>
      <trkpt lat="44.51653" lon="0.70603">
        <ele>193</ele>
        <time>2017-01-22T08:53:29.000Z</time>
      </trkpt>
      <trkpt lat="44.51651" lon="0.70601">
        <ele>193.2</ele>
        <time>2017-01-22T08:53:30.000Z</time>
      </trkpt>
      <trkpt lat="44.5165" lon="0.70599">
        <ele>193.5</ele>
        <time>2017-01-22T08:53:31.000Z</time>
      </trkpt>
      <trkpt lat="44.51649" lon="0.70597">
        <ele>193.8</ele>
        <time>2017-01-22T08:53:32.000Z</time>
      </trkpt>
      <trkpt lat="44.51648" lon="0.70595">
        <ele>194</ele>
        <time>2017-01-22T08:53:33.000Z</time>
      </trkpt>
      <trkpt lat="44.51647" lon="0.70594">
        <ele>194.3</ele>
        <time>2017-01-22T08:53:34.000Z</time>
      </trkpt>
      <trkpt lat="44.51646" lon="0.70593">
        <ele>194.4</ele>
        <time>2017-01-22T08:53:35.000Z</time>
      </trkpt>
      <trkpt lat="44.51644" lon="0.70592">
        <ele>194.5</ele>
        <time>2017-01-22T08:53:36.000Z</time>
      </trkpt>
      <trkpt lat="44.51643" lon="0.70591">
        <ele>194.5</ele>
        <time>2017-01-22T08:53:37.000Z</time>
      </trkpt>
      <trkpt lat="44.51641" lon="0.70591">
        <ele>194.6</ele>
        <time>2017-01-22T08:53:38.000Z</time>
      </trkpt>
      <trkpt lat="44.5164" lon="0.7059">
        <ele>194.6</ele>
        <time>2017-01-22T08:53:39.000Z</time>
      </trkpt>
      <trkpt lat="44.51638" lon="0.70588">
        <ele>194.8</ele>
        <time>2017-01-22T08:53:40.000Z</time>
      </trkpt>
      <trkpt lat="44.51637" lon="0.70587">
        <ele>195</ele>
        <time>2017-01-22T08:53:41.000Z</time>
      </trkpt>
      <trkpt lat="44.51636" lon="0.70585">
        <ele>195.2</ele>
        <time>2017-01-22T08:53:42.000Z</time>
      </trkpt>
      <trkpt lat="44.51635" lon="0.70583">
        <ele>195.5</ele>
        <time>2017-01-22T08:53:43.000Z</time>
      </trkpt>
      <trkpt lat="44.51634" lon="0.70582">
        <ele>195.5</ele>
        <time>2017-01-22T08:53:44.000Z</time>
      </trkpt>
      <trkpt lat="44.51633" lon="0.7058">
        <ele>195.6</ele>
        <time>2017-01-22T08:53:45.000Z</time>
      </trkpt>
      <trkpt lat="44.51632" lon="0.70578">
        <ele>195.6</ele>
        <time>2017-01-22T08:53:46.000Z</time>
      </trkpt>
      <trkpt lat="44.51631" lon="0.70577">
        <ele>195.7</ele>
        <time>2017-01-22T08:53:47.000Z</time>
      </trkpt>
      <trkpt lat="44.51629" lon="0.70575">
        <ele>195.7</ele>
        <time>2017-01-22T08:53:48.000Z</time>
      </trkpt>
      <trkpt lat="44.51628" lon="0.70574">
        <ele>195.7</ele>
        <time>2017-01-22T08:53:49.000Z</time>
      </trkpt>
      <trkpt lat="44.51627" lon="0.70573">
        <ele>195.7</ele>
        <time>2017-01-22T08:53:50.000Z</time>
      </trkpt>
      <trkpt lat="44.51625" lon="0.70571">
        <ele>195.7</ele>
        <time>2017-01-22T08:53:51.000Z</time>
      </trkpt>
      <trkpt lat="44.51624" lon="0.7057">
        <ele>195.7</ele>
        <time>2017-01-22T08:53:52.000Z</time>
      </trkpt>
      <trkpt lat="44.51623" lon="0.70569">
        <ele>195.7</ele>
        <time>2017-01-22T08:53:53.000Z</time>
      </trkpt>
      <trkpt lat="44.51621" lon="0.70568">
        <ele>195.7</ele>
        <time>2017-01-22T08:53:54.000Z</time>
      </trkpt>
      <trkpt lat="44.5162" lon="0.70567">
        <ele>195.7</ele>
        <time>2017-01-22T08:53:55.000Z</time>
      </trkpt>
      <trkpt lat="44.51618" lon="0.70566">
        <ele>195.7</ele>
        <time>2017-01-22T08:53:56.000Z</time>
      </trkpt>
      <trkpt lat="44.51617" lon="0.70564">
        <ele>195.7</ele>
        <time>2017-01-22T08:53:57.000Z</time>
      </trkpt>
      <trkpt lat="44.51615" lon="0.70563">
        <ele>195.6</ele>
        <time>2017-01-22T08:53:58.000Z</time>
      </trkpt>
      <trkpt lat="44.51614" lon="0.70562">
        <ele>195.6</ele>
        <time>2017-01-22T08:53:59.000Z</time>
      </trkpt>
      <trkpt lat="44.51613" lon="0.70561">
        <ele>195.6</ele>
        <time>2017-01-22T08:54:00.000Z</time>
      </trkpt>
      <trkpt lat="44.51611" lon="0.70559">
        <ele>195.6</ele>
        <time>2017-01-22T08:54:01.000Z</time>
      </trkpt>
      <trkpt lat="44.5161" lon="0.70558">
        <ele>195.6</ele>
        <time>2017-01-22T08:54:02.000Z</time>
      </trkpt>
      <trkpt lat="44.51609" lon="0.70557">
        <ele>195.6</ele>
        <time>2017-01-22T08:54:03.000Z</time>
      </trkpt>
      <trkpt lat="44.51607" lon="0.70555">
        <ele>195.5</ele>
        <time>2017-01-22T08:54:04.000Z</time>
      </trkpt>
      <trkpt lat="44.51606" lon="0.70554">
        <ele>195.5</ele>
        <time>2017-01-22T08:54:05.000Z</time>
      </trkpt>
      <trkpt lat="44.51604" lon="0.70552">
        <ele>195.5</ele>
        <time>2017-01-22T08:54:06.000Z</time>
      </trkpt>
      <trkpt lat="44.51603" lon="0.70551">
        <ele>195.5</ele>
        <time>2017-01-22T08:54:07.000Z</time>
      </trkpt>
      <trkpt lat="44.51602" lon="0.70549">
        <ele>195.5</ele>
        <time>2017-01-22T08:54:08.000Z</time>
      </trkpt>
      <trkpt lat="44.516" lon="0.70548">
        <ele>195.4</ele>
        <time>2017-01-22T08:54:09.000Z</time>
      </trkpt>
      <trkpt lat="44.51599" lon="0.70547">
        <ele>195.4</ele>
        <time>2017-01-22T08:54:10.000Z</time>
      </trkpt>
      <trkpt lat="44.51597" lon="0.70546">
        <ele>195.3</ele>
        <time>2017-01-22T08:54:11.000Z</time>
      </trkpt>
      <trkpt lat="44.51596" lon="0.70545">
        <ele>195.2</ele>
        <time>2017-01-22T08:54:12.000Z</time>
      </trkpt>
      <trkpt lat="44.51594" lon="0.70544">
        <ele>195.1</ele>
        <time>2017-01-22T08:54:13.000Z</time>
      </trkpt>
      <trkpt lat="44.51592" lon="0.70544">
        <ele>195</ele>
        <time>2017-01-22T08:54:14.000Z</time>
      </trkpt>
      <trkpt lat="44.5159" lon="0.70544">
        <ele>194.9</ele>
        <time>2017-01-22T08:54:15.000Z</time>
      </trkpt>
      <trkpt lat="44.51588" lon="0.70544">
        <ele>194.8</ele>
        <time>2017-01-22T08:54:16.000Z</time>
      </trkpt>
      <trkpt lat="44.51587" lon="0.70545">
        <ele>194.6</ele>
        <time>2017-01-22T08:54:17.000Z</time>
      </trkpt>
      <trkpt lat="44.51585" lon="0.70546">
        <ele>194.4</ele>
        <time>2017-01-22T08:54:18.000Z</time>
      </trkpt>
      <trkpt lat="44.51583" lon="0.70547">
        <ele>194.3</ele>
        <time>2017-01-22T08:54:19.000Z</time>
      </trkpt>
      <trkpt lat="44.51581" lon="0.70548">
        <ele>194.2</ele>
        <time>2017-01-22T08:54:20.000Z</time>
      </trkpt>
      <trkpt lat="44.51579" lon="0.70549">
        <ele>194</ele>
        <time>2017-01-22T08:54:21.000Z</time>
      </trkpt>
      <trkpt lat="44.51577" lon="0.7055">
        <ele>193.9</ele>
        <time>2017-01-22T08:54:22.000Z</time>
      </trkpt>
      <trkpt lat="44.51575" lon="0.70551">
        <ele>193.8</ele>
        <time>2017-01-22T08:54:23.000Z</time>
      </trkpt>
      <trkpt lat="44.51573" lon="0.70552">
        <ele>193.7</ele>
        <time>2017-01-22T08:54:24.000Z</time>
      </trkpt>
      <trkpt lat="44.51571" lon="0.70554">
        <ele>193.6</ele>
        <time>2017-01-22T08:54:25.000Z</time>
      </trkpt>
      <trkpt lat="44.51569" lon="0.70555">
        <ele>193.5</ele>
        <time>2017-01-22T08:54:26.000Z</time>
      </trkpt>
      <trkpt lat="44.51567" lon="0.70556">
        <ele>193.4</ele>
        <time>2017-01-22T08:54:27.000Z</time>
      </trkpt>
      <trkpt lat="44.51564" lon="0.70557">
        <ele>193.3</ele>
        <time>2017-01-22T08:54:28.000Z</time>
      </trkpt>
      <trkpt lat="44.51562" lon="0.70558">
        <ele>193.2</ele>
        <time>2017-01-22T08:54:29.000Z</time>
      </trkpt>
      <trkpt lat="44.5156" lon="0.70559">
        <ele>193.1</ele>
        <time>2017-01-22T08:54:30.000Z</time>
      </trkpt>
      <trkpt lat="44.51557" lon="0.7056">
        <ele>193</ele>
        <time>2017-01-22T08:54:31.000Z</time>
      </trkpt>
      <trkpt lat="44.51555" lon="0.70561">
        <ele>193</ele>
        <time>2017-01-22T08:54:32.000Z</time>
      </trkpt>
      <trkpt lat="44.51553" lon="0.70562">
        <ele>192.9</ele>
        <time>2017-01-22T08:54:33.000Z</time>
      </trkpt>
      <trkpt lat="44.51551" lon="0.70564">
        <ele>192.9</ele>
        <time>2017-01-22T08:54:34.000Z</time>
      </trkpt>
      <trkpt lat="44.5155" lon="0.70565">
        <ele>192.9</ele>
        <time>2017-01-22T08:54:35.000Z</time>
      </trkpt>
      <trkpt lat="44.51548" lon="0.70566">
        <ele>192.8</ele>
        <time>2017-01-22T08:54:36.000Z</time>
      </trkpt>
      <trkpt lat="44.51547" lon="0.70567">
        <ele>192.8</ele>
        <time>2017-01-22T08:54:37.000Z</time>
      </trkpt>
      <trkpt lat="44.51546" lon="0.70567">
        <ele>192.8</ele>
        <time>2017-01-22T08:54:38.000Z</time>
      </trkpt>
      <trkpt lat="44.51544" lon="0.70568">
        <ele>192.8</ele>
        <time>2017-01-22T08:54:39.000Z</time>
      </trkpt>
      <trkpt lat="44.51542" lon="0.70568">
        <ele>192.7</ele>
        <time>2017-01-22T08:54:40.000Z</time>
      </trkpt>
      <trkpt lat="44.51541" lon="0.70568">
        <ele>192.7</ele>
        <time>2017-01-22T08:54:41.000Z</time>
      </trkpt>
      <trkpt lat="44.51539" lon="0.70569">
        <ele>192.7</ele>
        <time>2017-01-22T08:54:42.000Z</time>
      </trkpt>
      <trkpt lat="44.51537" lon="0.7057">
        <ele>192.7</ele>
        <time>2017-01-22T08:54:43.000Z</time>
      </trkpt>
      <trkpt lat="44.51535" lon="0.70571">
        <ele>192.7</ele>
        <time>2017-01-22T08:54:44.000Z</time>
      </trkpt>
      <trkpt lat="44.51533" lon="0.70572">
        <ele>192.7</ele>
        <time>2017-01-22T08:54:45.000Z</time>
      </trkpt>
      <trkpt lat="44.5153" lon="0.70573">
        <ele>192.7</ele>
        <time>2017-01-22T08:54:46.000Z</time>
      </trkpt>
      <trkpt lat="44.51528" lon="0.70573">
        <ele>192.6</ele>
        <time>2017-01-22T08:54:47.000Z</time>
      </trkpt>
      <trkpt lat="44.51526" lon="0.70574">
        <ele>192.6</ele>
        <time>2017-01-22T08:54:48.000Z</time>
      </trkpt>
      <trkpt lat="44.51523" lon="0.70575">
        <ele>192.6</ele>
        <time>2017-01-22T08:54:49.000Z</time>
      </trkpt>
      <trkpt lat="44.5152" lon="0.70575">
        <ele>192.6</ele>
        <time>2017-01-22T08:54:50.000Z</time>
      </trkpt>
      <trkpt lat="44.51517" lon="0.70576">
        <ele>192.6</ele>
        <time>2017-01-22T08:54:51.000Z</time>
      </trkpt>
      <trkpt lat="44.51514" lon="0.70577">
        <ele>192.7</ele>
        <time>2017-01-22T08:54:52.000Z</time>
      </trkpt>
      <trkpt lat="44.5151" lon="0.70578">
        <ele>192.7</ele>
        <time>2017-01-22T08:54:53.000Z</time>
      </trkpt>
      <trkpt lat="44.51506" lon="0.7058">
        <ele>192.8</ele>
        <time>2017-01-22T08:54:54.000Z</time>
      </trkpt>
      <trkpt lat="44.51503" lon="0.70581">
        <ele>192.9</ele>
        <time>2017-01-22T08:54:55.000Z</time>
      </trkpt>
      <trkpt lat="44.515" lon="0.70583">
        <ele>193</ele>
        <time>2017-01-22T08:54:56.000Z</time>
      </trkpt>
      <trkpt lat="44.51497" lon="0.70585">
        <ele>192.8</ele>
        <time>2017-01-22T08:54:57.000Z</time>
      </trkpt>
      <trkpt lat="44.51494" lon="0.70587">
        <ele>192.5</ele>
        <time>2017-01-22T08:54:58.000Z</time>
      </trkpt>
      <trkpt lat="44.51492" lon="0.70588">
        <ele>192.3</ele>
        <time>2017-01-22T08:54:59.000Z</time>
      </trkpt>
      <trkpt lat="44.5149" lon="0.70589">
        <ele>192.1</ele>
        <time>2017-01-22T08:55:00.000Z</time>
      </trkpt>
      <trkpt lat="44.51488" lon="0.7059">
        <ele>192</ele>
        <time>2017-01-22T08:55:01.000Z</time>
      </trkpt>
      <trkpt lat="44.51486" lon="0.7059">
        <ele>191.9</ele>
        <time>2017-01-22T08:55:02.000Z</time>
      </trkpt>
      <trkpt lat="44.51484" lon="0.70591">
        <ele>191.9</ele>
        <time>2017-01-22T08:55:03.000Z</time>
      </trkpt>
      <trkpt lat="44.51482" lon="0.70591">
        <ele>191.9</ele>
        <time>2017-01-22T08:55:04.000Z</time>
      </trkpt>
      <trkpt lat="44.5148" lon="0.70591">
        <ele>191.8</ele>
        <time>2017-01-22T08:55:05.000Z</time>
      </trkpt>
      <trkpt lat="44.51478" lon="0.70591">
        <ele>191.8</ele>
        <time>2017-01-22T08:55:06.000Z</time>
      </trkpt>
      <trkpt lat="44.51476" lon="0.70591">
        <ele>191.8</ele>
        <time>2017-01-22T08:55:07.000Z</time>
      </trkpt>
      <trkpt lat="44.51474" lon="0.70591">
        <ele>191.7</ele>
        <time>2017-01-22T08:55:08.000Z</time>
      </trkpt>
      <trkpt lat="44.51472" lon="0.70591">
        <ele>191.7</ele>
        <time>2017-01-22T08:55:09.000Z</time>
      </trkpt>
      <trkpt lat="44.5147" lon="0.70591">
        <ele>191.7</ele>
        <time>2017-01-22T08:55:10.000Z</time>
      </trkpt>
      <trkpt lat="44.51468" lon="0.70591">
        <ele>191.6</ele>
        <time>2017-01-22T08:55:11.000Z</time>
      </trkpt>
      <trkpt lat="44.51465" lon="0.70592">
        <ele>191.6</ele>
        <time>2017-01-22T08:55:12.000Z</time>
      </trkpt>
      <trkpt lat="44.51463" lon="0.70592">
        <ele>191.5</ele>
        <time>2017-01-22T08:55:13.000Z</time>
      </trkpt>
      <trkpt lat="44.51461" lon="0.70592">
        <ele>191.5</ele>
        <time>2017-01-22T08:55:14.000Z</time>
      </trkpt>
      <trkpt lat="44.51459" lon="0.70592">
        <ele>191.4</ele>
        <time>2017-01-22T08:55:15.000Z</time>
      </trkpt>
      <trkpt lat="44.51456" lon="0.70593">
        <ele>191.4</ele>
        <time>2017-01-22T08:55:16.000Z</time>
      </trkpt>
      <trkpt lat="44.51454" lon="0.70593">
        <ele>191.3</ele>
        <time>2017-01-22T08:55:17.000Z</time>
      </trkpt>
      <trkpt lat="44.51452" lon="0.70593">
        <ele>191.2</ele>
        <time>2017-01-22T08:55:18.000Z</time>
      </trkpt>
      <trkpt lat="44.51449" lon="0.70594">
        <ele>191.2</ele>
        <time>2017-01-22T08:55:19.000Z</time>
      </trkpt>
      <trkpt lat="44.51447" lon="0.70594">
        <ele>191.1</ele>
        <time>2017-01-22T08:55:20.000Z</time>
      </trkpt>
      <trkpt lat="44.51444" lon="0.70594">
        <ele>191.1</ele>
        <time>2017-01-22T08:55:21.000Z</time>
      </trkpt>
      <trkpt lat="44.51442" lon="0.70595">
        <ele>191</ele>
        <time>2017-01-22T08:55:22.000Z</time>
      </trkpt>
      <trkpt lat="44.51439" lon="0.70595">
        <ele>190.9</ele>
        <time>2017-01-22T08:55:23.000Z</time>
      </trkpt>
      <trkpt lat="44.51437" lon="0.70595">
        <ele>190.9</ele>
        <time>2017-01-22T08:55:24.000Z</time>
      </trkpt>
      <trkpt lat="44.51435" lon="0.70596">
        <ele>190.8</ele>
        <time>2017-01-22T08:55:25.000Z</time>
      </trkpt>
      <trkpt lat="44.51432" lon="0.70596">
        <ele>190.8</ele>
        <time>2017-01-22T08:55:26.000Z</time>
      </trkpt>
      <trkpt lat="44.5143" lon="0.70596">
        <ele>190.7</ele>
        <time>2017-01-22T08:55:27.000Z</time>
      </trkpt>
      <trkpt lat="44.51427" lon="0.70596">
        <ele>190.7</ele>
        <time>2017-01-22T08:55:28.000Z</time>
      </trkpt>
      <trkpt lat="44.51425" lon="0.70596">
        <ele>190.7</ele>
        <time>2017-01-22T08:55:29.000Z</time>
      </trkpt>
      <trkpt lat="44.51422" lon="0.70597">
        <ele>190.6</ele>
        <time>2017-01-22T08:55:30.000Z</time>
      </trkpt>
      <trkpt lat="44.5142" lon="0.70597">
        <ele>190.6</ele>
        <time>2017-01-22T08:55:31.000Z</time>
      </trkpt>
      <trkpt lat="44.51417" lon="0.70597">
        <ele>190.5</ele>
        <time>2017-01-22T08:55:32.000Z</time>
      </trkpt>
      <trkpt lat="44.51415" lon="0.70598">
        <ele>190.7</ele>
        <time>2017-01-22T08:55:33.000Z</time>
      </trkpt>
      <trkpt lat="44.51412" lon="0.70598">
        <ele>191</ele>
        <time>2017-01-22T08:55:34.000Z</time>
      </trkpt>
      <trkpt lat="44.5141" lon="0.70598">
        <ele>191.3</ele>
        <time>2017-01-22T08:55:35.000Z</time>
      </trkpt>
      <trkpt lat="44.51407" lon="0.70598">
        <ele>191.6</ele>
        <time>2017-01-22T08:55:36.000Z</time>
      </trkpt>
      <trkpt lat="44.51404" lon="0.70598">
        <ele>191.9</ele>
        <time>2017-01-22T08:55:37.000Z</time>
      </trkpt>
      <trkpt lat="44.51402" lon="0.70599">
        <ele>192.2</ele>
        <time>2017-01-22T08:55:38.000Z</time>
      </trkpt>
      <trkpt lat="44.51399" lon="0.70599">
        <ele>192.5</ele>
        <time>2017-01-22T08:55:39.000Z</time>
      </trkpt>
      <trkpt lat="44.51396" lon="0.70599">
        <ele>192.9</ele>
        <time>2017-01-22T08:55:40.000Z</time>
      </trkpt>
      <trkpt lat="44.51393" lon="0.70598">
        <ele>193.2</ele>
        <time>2017-01-22T08:55:41.000Z</time>
      </trkpt>
      <trkpt lat="44.5139" lon="0.70598">
        <ele>193.6</ele>
        <time>2017-01-22T08:55:42.000Z</time>
      </trkpt>
      <trkpt lat="44.51387" lon="0.70598">
        <ele>194</ele>
        <time>2017-01-22T08:55:43.000Z</time>
      </trkpt>
      <trkpt lat="44.51384" lon="0.70598">
        <ele>194.4</ele>
        <time>2017-01-22T08:55:44.000Z</time>
      </trkpt>
      <trkpt lat="44.51381" lon="0.70597">
        <ele>194.8</ele>
        <time>2017-01-22T08:55:45.000Z</time>
      </trkpt>
      <trkpt lat="44.51378" lon="0.70597">
        <ele>195.2</ele>
        <time>2017-01-22T08:55:46.000Z</time>
      </trkpt>
      <trkpt lat="44.51376" lon="0.70597">
        <ele>195.5</ele>
        <time>2017-01-22T08:55:47.000Z</time>
      </trkpt>
      <trkpt lat="44.51373" lon="0.70597">
        <ele>195.9</ele>
        <time>2017-01-22T08:55:48.000Z</time>
      </trkpt>
      <trkpt lat="44.5137" lon="0.70597">
        <ele>196.3</ele>
        <time>2017-01-22T08:55:49.000Z</time>
      </trkpt>
      <trkpt lat="44.51367" lon="0.70597">
        <ele>196.6</ele>
        <time>2017-01-22T08:55:50.000Z</time>
      </trkpt>
      <trkpt lat="44.51365" lon="0.70597">
        <ele>196.9</ele>
        <time>2017-01-22T08:55:51.000Z</time>
      </trkpt>
      <trkpt lat="44.51362" lon="0.70596">
        <ele>197.3</ele>
        <time>2017-01-22T08:55:52.000Z</time>
      </trkpt>
      <trkpt lat="44.51359" lon="0.70596">
        <ele>197.6</ele>
        <time>2017-01-22T08:55:53.000Z</time>
      </trkpt>
      <trkpt lat="44.51357" lon="0.70596">
        <ele>197.9</ele>
        <time>2017-01-22T08:55:54.000Z</time>
      </trkpt>
      <trkpt lat="44.51354" lon="0.70596">
        <ele>198.3</ele>
        <time>2017-01-22T08:55:55.000Z</time>
      </trkpt>
      <trkpt lat="44.51351" lon="0.70596">
        <ele>198.6</ele>
        <time>2017-01-22T08:55:56.000Z</time>
      </trkpt>
      <trkpt lat="44.51348" lon="0.70596">
        <ele>199</ele>
        <time>2017-01-22T08:55:57.000Z</time>
      </trkpt>
      <trkpt lat="44.51345" lon="0.70596">
        <ele>199.3</ele>
        <time>2017-01-22T08:55:58.000Z</time>
      </trkpt>
      <trkpt lat="44.51342" lon="0.70596">
        <ele>199.7</ele>
        <time>2017-01-22T08:55:59.000Z</time>
      </trkpt>
      <trkpt lat="44.51339" lon="0.70596">
        <ele>200.1</ele>
        <time>2017-01-22T08:56:00.000Z</time>
      </trkpt>
      <trkpt lat="44.51336" lon="0.70595">
        <ele>200.5</ele>
        <time>2017-01-22T08:56:01.000Z</time>
      </trkpt>
      <trkpt lat="44.51333" lon="0.70595">
        <ele>200.9</ele>
        <time>2017-01-22T08:56:02.000Z</time>
      </trkpt>
      <trkpt lat="44.5133" lon="0.70595">
        <ele>201.2</ele>
        <time>2017-01-22T08:56:03.000Z</time>
      </trkpt>
      <trkpt lat="44.51327" lon="0.70594">
        <ele>201.5</ele>
        <time>2017-01-22T08:56:04.000Z</time>
      </trkpt>
      <trkpt lat="44.51324" lon="0.70594">
        <ele>201.8</ele>
        <time>2017-01-22T08:56:05.000Z</time>
      </trkpt>
      <trkpt lat="44.51321" lon="0.70594">
        <ele>202.1</ele>
        <time>2017-01-22T08:56:06.000Z</time>
      </trkpt>
      <trkpt lat="44.51318" lon="0.70593">
        <ele>202.4</ele>
        <time>2017-01-22T08:56:07.000Z</time>
      </trkpt>
      <trkpt lat="44.51315" lon="0.70593">
        <ele>202.7</ele>
        <time>2017-01-22T08:56:08.000Z</time>
      </trkpt>
      <trkpt lat="44.51312" lon="0.70592">
        <ele>203</ele>
        <time>2017-01-22T08:56:09.000Z</time>
      </trkpt>
      <trkpt lat="44.51309" lon="0.70592">
        <ele>203.3</ele>
        <time>2017-01-22T08:56:10.000Z</time>
      </trkpt>
      <trkpt lat="44.51306" lon="0.70591">
        <ele>203.6</ele>
        <time>2017-01-22T08:56:11.000Z</time>
      </trkpt>
      <trkpt lat="44.51303" lon="0.70591">
        <ele>203.9</ele>
        <time>2017-01-22T08:56:12.000Z</time>
      </trkpt>
      <trkpt lat="44.51301" lon="0.7059">
        <ele>204.2</ele>
        <time>2017-01-22T08:56:13.000Z</time>
      </trkpt>
      <trkpt lat="44.51298" lon="0.7059">
        <ele>204.5</ele>
        <time>2017-01-22T08:56:14.000Z</time>
      </trkpt>
      <trkpt lat="44.51295" lon="0.70589">
        <ele>204.8</ele>
        <time>2017-01-22T08:56:15.000Z</time>
      </trkpt>
      <trkpt lat="44.51292" lon="0.70589">
        <ele>205.1</ele>
        <time>2017-01-22T08:56:16.000Z</time>
      </trkpt>
      <trkpt lat="44.51289" lon="0.70588">
        <ele>205.4</ele>
        <time>2017-01-22T08:56:17.000Z</time>
      </trkpt>
      <trkpt lat="44.51286" lon="0.70587">
        <ele>205.7</ele>
        <time>2017-01-22T08:56:18.000Z</time>
      </trkpt>
      <trkpt lat="44.51283" lon="0.70587">
        <ele>206</ele>
        <time>2017-01-22T08:56:19.000Z</time>
      </trkpt>
      <trkpt lat="44.51281" lon="0.70586">
        <ele>206.2</ele>
        <time>2017-01-22T08:56:20.000Z</time>
      </trkpt>
      <trkpt lat="44.51278" lon="0.70586">
        <ele>206.5</ele>
        <time>2017-01-22T08:56:21.000Z</time>
      </trkpt>
      <trkpt lat="44.51275" lon="0.70585">
        <ele>206.8</ele>
        <time>2017-01-22T08:56:22.000Z</time>
      </trkpt>
      <trkpt lat="44.51272" lon="0.70585">
        <ele>207.1</ele>
        <time>2017-01-22T08:56:23.000Z</time>
      </trkpt>
      <trkpt lat="44.5127" lon="0.70584">
        <ele>207.3</ele>
        <time>2017-01-22T08:56:24.000Z</time>
      </trkpt>
      <trkpt lat="44.51267" lon="0.70584">
        <ele>207.6</ele>
        <time>2017-01-22T08:56:25.000Z</time>
      </trkpt>
      <trkpt lat="44.51264" lon="0.70583">
        <ele>207.8</ele>
        <time>2017-01-22T08:56:26.000Z</time>
      </trkpt>
      <trkpt lat="44.51261" lon="0.70583">
        <ele>208</ele>
        <time>2017-01-22T08:56:27.000Z</time>
      </trkpt>
      <trkpt lat="44.51258" lon="0.70582">
        <ele>208.3</ele>
        <time>2017-01-22T08:56:28.000Z</time>
      </trkpt>
      <trkpt lat="44.51255" lon="0.70582">
        <ele>208.5</ele>
        <time>2017-01-22T08:56:29.000Z</time>
      </trkpt>
      <trkpt lat="44.51253" lon="0.70581">
        <ele>208.7</ele>
        <time>2017-01-22T08:56:30.000Z</time>
      </trkpt>
      <trkpt lat="44.5125" lon="0.70581">
        <ele>208.9</ele>
        <time>2017-01-22T08:56:31.000Z</time>
      </trkpt>
      <trkpt lat="44.51247" lon="0.7058">
        <ele>209</ele>
        <time>2017-01-22T08:56:32.000Z</time>
      </trkpt>
      <trkpt lat="44.51244" lon="0.7058">
        <ele>209</ele>
        <time>2017-01-22T08:56:33.000Z</time>
      </trkpt>
      <trkpt lat="44.51242" lon="0.70579">
        <ele>209</ele>
        <time>2017-01-22T08:56:34.000Z</time>
      </trkpt>
      <trkpt lat="44.51239" lon="0.70578">
        <ele>209</ele>
        <time>2017-01-22T08:56:35.000Z</time>
      </trkpt>
      <trkpt lat="44.51236" lon="0.70577">
        <ele>209.1</ele>
        <time>2017-01-22T08:56:36.000Z</time>
      </trkpt>
      <trkpt lat="44.51233" lon="0.70576">
        <ele>209.1</ele>
        <time>2017-01-22T08:56:37.000Z</time>
      </trkpt>
      <trkpt lat="44.51231" lon="0.70575">
        <ele>209.1</ele>
        <time>2017-01-22T08:56:38.000Z</time>
      </trkpt>
      <trkpt lat="44.51228" lon="0.70574">
        <ele>209.1</ele>
        <time>2017-01-22T08:56:39.000Z</time>
      </trkpt>
      <trkpt lat="44.51225" lon="0.70573">
        <ele>209.2</ele>
        <time>2017-01-22T08:56:40.000Z</time>
      </trkpt>
      <trkpt lat="44.51222" lon="0.70573">
        <ele>209.2</ele>
        <time>2017-01-22T08:56:41.000Z</time>
      </trkpt>
      <trkpt lat="44.51219" lon="0.70572">
        <ele>209.3</ele>
        <time>2017-01-22T08:56:42.000Z</time>
      </trkpt>
      <trkpt lat="44.51216" lon="0.70572">
        <ele>209.3</ele>
        <time>2017-01-22T08:56:43.000Z</time>
      </trkpt>
      <trkpt lat="44.51213" lon="0.70572">
        <ele>209.4</ele>
        <time>2017-01-22T08:56:44.000Z</time>
      </trkpt>
      <trkpt lat="44.5121" lon="0.70571">
        <ele>209.4</ele>
        <time>2017-01-22T08:56:45.000Z</time>
      </trkpt>
      <trkpt lat="44.51207" lon="0.70571">
        <ele>209.4</ele>
        <time>2017-01-22T08:56:46.000Z</time>
      </trkpt>
      <trkpt lat="44.51204" lon="0.70571">
        <ele>209.5</ele>
        <time>2017-01-22T08:56:47.000Z</time>
      </trkpt>
      <trkpt lat="44.51202" lon="0.7057">
        <ele>209.5</ele>
        <time>2017-01-22T08:56:48.000Z</time>
      </trkpt>
      <trkpt lat="44.51199" lon="0.7057">
        <ele>209.6</ele>
        <time>2017-01-22T08:56:49.000Z</time>
      </trkpt>
      <trkpt lat="44.51196" lon="0.70569">
        <ele>209.6</ele>
        <time>2017-01-22T08:56:50.000Z</time>
      </trkpt>
      <trkpt lat="44.51193" lon="0.70568">
        <ele>209.7</ele>
        <time>2017-01-22T08:56:51.000Z</time>
      </trkpt>
      <trkpt lat="44.5119" lon="0.70568">
        <ele>209.8</ele>
        <time>2017-01-22T08:56:52.000Z</time>
      </trkpt>
      <trkpt lat="44.51187" lon="0.70568">
        <ele>209.8</ele>
        <time>2017-01-22T08:56:53.000Z</time>
      </trkpt>
      <trkpt lat="44.51183" lon="0.70568">
        <ele>209.9</ele>
        <time>2017-01-22T08:56:54.000Z</time>
      </trkpt>
      <trkpt lat="44.5118" lon="0.70567">
        <ele>209.9</ele>
        <time>2017-01-22T08:56:55.000Z</time>
      </trkpt>
      <trkpt lat="44.51177" lon="0.70567">
        <ele>210</ele>
        <time>2017-01-22T08:56:56.000Z</time>
      </trkpt>
      <trkpt lat="44.51174" lon="0.70567">
        <ele>210.1</ele>
        <time>2017-01-22T08:56:57.000Z</time>
      </trkpt>
      <trkpt lat="44.51171" lon="0.70566">
        <ele>210.1</ele>
        <time>2017-01-22T08:56:58.000Z</time>
      </trkpt>
      <trkpt lat="44.51168" lon="0.70565">
        <ele>210.2</ele>
        <time>2017-01-22T08:56:59.000Z</time>
      </trkpt>
      <trkpt lat="44.51166" lon="0.70565">
        <ele>210.2</ele>
        <time>2017-01-22T08:57:00.000Z</time>
      </trkpt>
      <trkpt lat="44.51163" lon="0.70564">
        <ele>210.3</ele>
        <time>2017-01-22T08:57:01.000Z</time>
      </trkpt>
      <trkpt lat="44.5116" lon="0.70564">
        <ele>210.4</ele>
        <time>2017-01-22T08:57:02.000Z</time>
      </trkpt>
      <trkpt lat="44.51157" lon="0.70563">
        <ele>210.4</ele>
        <time>2017-01-22T08:57:03.000Z</time>
      </trkpt>
      <trkpt lat="44.51154" lon="0.70563">
        <ele>210.5</ele>
        <time>2017-01-22T08:57:04.000Z</time>
      </trkpt>
      <trkpt lat="44.5115" lon="0.70563">
        <ele>210.5</ele>
        <time>2017-01-22T08:57:05.000Z</time>
      </trkpt>
      <trkpt lat="44.51147" lon="0.70563">
        <ele>210.6</ele>
        <time>2017-01-22T08:57:06.000Z</time>
      </trkpt>
      <trkpt lat="44.51143" lon="0.70563">
        <ele>210.7</ele>
        <time>2017-01-22T08:57:07.000Z</time>
      </trkpt>
      <trkpt lat="44.5114" lon="0.70563">
        <ele>210.7</ele>
        <time>2017-01-22T08:57:08.000Z</time>
      </trkpt>
      <trkpt lat="44.51136" lon="0.70563">
        <ele>210.8</ele>
        <time>2017-01-22T08:57:09.000Z</time>
      </trkpt>
      <trkpt lat="44.51133" lon="0.70563">
        <ele>210.8</ele>
        <time>2017-01-22T08:57:10.000Z</time>
      </trkpt>
      <trkpt lat="44.5113" lon="0.70563">
        <ele>210.9</ele>
        <time>2017-01-22T08:57:11.000Z</time>
      </trkpt>
      <trkpt lat="44.51126" lon="0.70563">
        <ele>211</ele>
        <time>2017-01-22T08:57:12.000Z</time>
      </trkpt>
      <trkpt lat="44.51123" lon="0.70563">
        <ele>211</ele>
        <time>2017-01-22T08:57:13.000Z</time>
      </trkpt>
      <trkpt lat="44.5112" lon="0.70563">
        <ele>211.1</ele>
        <time>2017-01-22T08:57:14.000Z</time>
      </trkpt>
      <trkpt lat="44.51117" lon="0.70563">
        <ele>211.1</ele>
        <time>2017-01-22T08:57:15.000Z</time>
      </trkpt>
      <trkpt lat="44.51114" lon="0.70563">
        <ele>211.2</ele>
        <time>2017-01-22T08:57:16.000Z</time>
      </trkpt>
      <trkpt lat="44.51111" lon="0.70563">
        <ele>211.2</ele>
        <time>2017-01-22T08:57:17.000Z</time>
      </trkpt>
      <trkpt lat="44.51108" lon="0.70563">
        <ele>211.3</ele>
        <time>2017-01-22T08:57:18.000Z</time>
      </trkpt>
      <trkpt lat="44.51105" lon="0.70563">
        <ele>211.3</ele>
        <time>2017-01-22T08:57:19.000Z</time>
      </trkpt>
      <trkpt lat="44.51102" lon="0.70563">
        <ele>211.4</ele>
        <time>2017-01-22T08:57:20.000Z</time>
      </trkpt>
      <trkpt lat="44.51098" lon="0.70564">
        <ele>211.4</ele>
        <time>2017-01-22T08:57:21.000Z</time>
      </trkpt>
      <trkpt lat="44.51095" lon="0.70564">
        <ele>211.5</ele>
        <time>2017-01-22T08:57:22.000Z</time>
      </trkpt>
      <trkpt lat="44.51092" lon="0.70565">
        <ele>211.5</ele>
        <time>2017-01-22T08:57:23.000Z</time>
      </trkpt>
      <trkpt lat="44.51088" lon="0.70565">
        <ele>211.6</ele>
        <time>2017-01-22T08:57:24.000Z</time>
      </trkpt>
      <trkpt lat="44.51085" lon="0.70566">
        <ele>211.6</ele>
        <time>2017-01-22T08:57:25.000Z</time>
      </trkpt>
      <trkpt lat="44.51081" lon="0.70567">
        <ele>211.6</ele>
        <time>2017-01-22T08:57:26.000Z</time>
      </trkpt>
      <trkpt lat="44.51078" lon="0.70567">
        <ele>211.5</ele>
        <time>2017-01-22T08:57:27.000Z</time>
      </trkpt>
      <trkpt lat="44.51075" lon="0.70568">
        <ele>211.5</ele>
        <time>2017-01-22T08:57:28.000Z</time>
      </trkpt>
      <trkpt lat="44.51071" lon="0.70569">
        <ele>211.4</ele>
        <time>2017-01-22T08:57:29.000Z</time>
      </trkpt>
      <trkpt lat="44.51068" lon="0.7057">
        <ele>211.4</ele>
        <time>2017-01-22T08:57:30.000Z</time>
      </trkpt>
      <trkpt lat="44.51065" lon="0.70571">
        <ele>211.3</ele>
        <time>2017-01-22T08:57:31.000Z</time>
      </trkpt>
      <trkpt lat="44.51062" lon="0.70572">
        <ele>211.3</ele>
        <time>2017-01-22T08:57:32.000Z</time>
      </trkpt>
      <trkpt lat="44.51059" lon="0.70573">
        <ele>211.2</ele>
        <time>2017-01-22T08:57:33.000Z</time>
      </trkpt>
      <trkpt lat="44.51056" lon="0.70574">
        <ele>211.2</ele>
        <time>2017-01-22T08:57:34.000Z</time>
      </trkpt>
      <trkpt lat="44.51052" lon="0.70576">
        <ele>211.1</ele>
        <time>2017-01-22T08:57:35.000Z</time>
      </trkpt>
      <trkpt lat="44.51049" lon="0.70577">
        <ele>211.1</ele>
        <time>2017-01-22T08:57:36.000Z</time>
      </trkpt>
      <trkpt lat="44.51046" lon="0.70578">
        <ele>211.1</ele>
        <time>2017-01-22T08:57:37.000Z</time>
      </trkpt>
      <trkpt lat="44.51042" lon="0.70579">
        <ele>211.1</ele>
        <time>2017-01-22T08:57:38.000Z</time>
      </trkpt>
      <trkpt lat="44.51039" lon="0.7058">
        <ele>211</ele>
        <time>2017-01-22T08:57:39.000Z</time>
      </trkpt>
      <trkpt lat="44.51035" lon="0.70582">
        <ele>211</ele>
        <time>2017-01-22T08:57:40.000Z</time>
      </trkpt>
      <trkpt lat="44.51032" lon="0.70583">
        <ele>211</ele>
        <time>2017-01-22T08:57:41.000Z</time>
      </trkpt>
      <trkpt lat="44.51028" lon="0.70584">
        <ele>211</ele>
        <time>2017-01-22T08:57:42.000Z</time>
      </trkpt>
      <trkpt lat="44.51025" lon="0.70586">
        <ele>211</ele>
        <time>2017-01-22T08:57:43.000Z</time>
      </trkpt>
      <trkpt lat="44.51022" lon="0.70587">
        <ele>211</ele>
        <time>2017-01-22T08:57:44.000Z</time>
      </trkpt>
      <trkpt lat="44.51018" lon="0.70588">
        <ele>211</ele>
        <time>2017-01-22T08:57:45.000Z</time>
      </trkpt>
      <trkpt lat="44.51015" lon="0.7059">
        <ele>211</ele>
        <time>2017-01-22T08:57:46.000Z</time>
      </trkpt>
      <trkpt lat="44.51012" lon="0.70591">
        <ele>211</ele>
        <time>2017-01-22T08:57:47.000Z</time>
      </trkpt>
      <trkpt lat="44.51009" lon="0.70593">
        <ele>211</ele>
        <time>2017-01-22T08:57:48.000Z</time>
      </trkpt>
      <trkpt lat="44.51006" lon="0.70594">
        <ele>211</ele>
        <time>2017-01-22T08:57:49.000Z</time>
      </trkpt>
      <trkpt lat="44.51003" lon="0.70595">
        <ele>211</ele>
        <time>2017-01-22T08:57:50.000Z</time>
      </trkpt>
      <trkpt lat="44.51" lon="0.70597">
        <ele>211</ele>
        <time>2017-01-22T08:57:51.000Z</time>
      </trkpt>
      <trkpt lat="44.50997" lon="0.70598">
        <ele>211.1</ele>
        <time>2017-01-22T08:57:52.000Z</time>
      </trkpt>
      <trkpt lat="44.50994" lon="0.70599">
        <ele>211.1</ele>
        <time>2017-01-22T08:57:53.000Z</time>
      </trkpt>
      <trkpt lat="44.50991" lon="0.70601">
        <ele>211.2</ele>
        <time>2017-01-22T08:57:54.000Z</time>
      </trkpt>
      <trkpt lat="44.50988" lon="0.70602">
        <ele>211.2</ele>
        <time>2017-01-22T08:57:55.000Z</time>
      </trkpt>
      <trkpt lat="44.50985" lon="0.70603">
        <ele>211.3</ele>
        <time>2017-01-22T08:57:56.000Z</time>
      </trkpt>
      <trkpt lat="44.50982" lon="0.70604">
        <ele>211.3</ele>
        <time>2017-01-22T08:57:57.000Z</time>
      </trkpt>
      <trkpt lat="44.50979" lon="0.70605">
        <ele>211.4</ele>
        <time>2017-01-22T08:57:58.000Z</time>
      </trkpt>
      <trkpt lat="44.50976" lon="0.70606">
        <ele>211.5</ele>
        <time>2017-01-22T08:57:59.000Z</time>
      </trkpt>
      <trkpt lat="44.50972" lon="0.70607">
        <ele>211.5</ele>
        <time>2017-01-22T08:58:00.000Z</time>
      </trkpt>
      <trkpt lat="44.50969" lon="0.70608">
        <ele>211.6</ele>
        <time>2017-01-22T08:58:01.000Z</time>
      </trkpt>
      <trkpt lat="44.50966" lon="0.7061">
        <ele>211.7</ele>
        <time>2017-01-22T08:58:02.000Z</time>
      </trkpt>
      <trkpt lat="44.50963" lon="0.70611">
        <ele>211.7</ele>
        <time>2017-01-22T08:58:03.000Z</time>
      </trkpt>
      <trkpt lat="44.50959" lon="0.70612">
        <ele>211.8</ele>
        <time>2017-01-22T08:58:04.000Z</time>
      </trkpt>
      <trkpt lat="44.50956" lon="0.70613">
        <ele>211.9</ele>
        <time>2017-01-22T08:58:05.000Z</time>
      </trkpt>
      <trkpt lat="44.50953" lon="0.70614">
        <ele>212</ele>
        <time>2017-01-22T08:58:06.000Z</time>
      </trkpt>
      <trkpt lat="44.5095" lon="0.70616">
        <ele>212.1</ele>
        <time>2017-01-22T08:58:07.000Z</time>
      </trkpt>
      <trkpt lat="44.50946" lon="0.70617">
        <ele>212.2</ele>
        <time>2017-01-22T08:58:08.000Z</time>
      </trkpt>
      <trkpt lat="44.50943" lon="0.70618">
        <ele>212.3</ele>
        <time>2017-01-22T08:58:09.000Z</time>
      </trkpt>
      <trkpt lat="44.5094" lon="0.7062">
        <ele>212.4</ele>
        <time>2017-01-22T08:58:10.000Z</time>
      </trkpt>
      <trkpt lat="44.50936" lon="0.70621">
        <ele>212.5</ele>
        <time>2017-01-22T08:58:11.000Z</time>
      </trkpt>
      <trkpt lat="44.50933" lon="0.70622">
        <ele>212.6</ele>
        <time>2017-01-22T08:58:12.000Z</time>
      </trkpt>
      <trkpt lat="44.5093" lon="0.70624">
        <ele>212.7</ele>
        <time>2017-01-22T08:58:13.000Z</time>
      </trkpt>
      <trkpt lat="44.50927" lon="0.70625">
        <ele>212.8</ele>
        <time>2017-01-22T08:58:14.000Z</time>
      </trkpt>
      <trkpt lat="44.50923" lon="0.70626">
        <ele>212.9</ele>
        <time>2017-01-22T08:58:15.000Z</time>
      </trkpt>
      <trkpt lat="44.5092" lon="0.70627">
        <ele>213</ele>
        <time>2017-01-22T08:58:16.000Z</time>
      </trkpt>
      <trkpt lat="44.50917" lon="0.70628">
        <ele>213.1</ele>
        <time>2017-01-22T08:58:17.000Z</time>
      </trkpt>
      <trkpt lat="44.50914" lon="0.7063">
        <ele>213.3</ele>
        <time>2017-01-22T08:58:18.000Z</time>
      </trkpt>
      <trkpt lat="44.5091" lon="0.70631">
        <ele>213.5</ele>
        <time>2017-01-22T08:58:19.000Z</time>
      </trkpt>
      <trkpt lat="44.50907" lon="0.70632">
        <ele>213.7</ele>
        <time>2017-01-22T08:58:20.000Z</time>
      </trkpt>
      <trkpt lat="44.50904" lon="0.70633">
        <ele>213.8</ele>
        <time>2017-01-22T08:58:21.000Z</time>
      </trkpt>
      <trkpt lat="44.50901" lon="0.70635">
        <ele>214</ele>
        <time>2017-01-22T08:58:22.000Z</time>
      </trkpt>
      <trkpt lat="44.50898" lon="0.70636">
        <ele>214.2</ele>
        <time>2017-01-22T08:58:23.000Z</time>
      </trkpt>
      <trkpt lat="44.50894" lon="0.70637">
        <ele>214.4</ele>
        <time>2017-01-22T08:58:24.000Z</time>
      </trkpt>
      <trkpt lat="44.50891" lon="0.70639">
        <ele>214.6</ele>
        <time>2017-01-22T08:58:25.000Z</time>
      </trkpt>
      <trkpt lat="44.50888" lon="0.7064">
        <ele>214.7</ele>
        <time>2017-01-22T08:58:26.000Z</time>
      </trkpt>
      <trkpt lat="44.50885" lon="0.70641">
        <ele>214.9</ele>
        <time>2017-01-22T08:58:27.000Z</time>
      </trkpt>
      <trkpt lat="44.50882" lon="0.70643">
        <ele>215</ele>
        <time>2017-01-22T08:58:28.000Z</time>
      </trkpt>
      <trkpt lat="44.50879" lon="0.70644">
        <ele>215.2</ele>
        <time>2017-01-22T08:58:29.000Z</time>
      </trkpt>
      <trkpt lat="44.50876" lon="0.70645">
        <ele>215.3</ele>
        <time>2017-01-22T08:58:30.000Z</time>
      </trkpt>
      <trkpt lat="44.50872" lon="0.70646">
        <ele>215.5</ele>
        <time>2017-01-22T08:58:31.000Z</time>
      </trkpt>
      <trkpt lat="44.50869" lon="0.70648">
        <ele>215.6</ele>
        <time>2017-01-22T08:58:32.000Z</time>
      </trkpt>
      <trkpt lat="44.50866" lon="0.70649">
        <ele>215.8</ele>
        <time>2017-01-22T08:58:33.000Z</time>
      </trkpt>
      <trkpt lat="44.50863" lon="0.7065">
        <ele>215.9</ele>
        <time>2017-01-22T08:58:34.000Z</time>
      </trkpt>
      <trkpt lat="44.5086" lon="0.70651">
        <ele>216.1</ele>
        <time>2017-01-22T08:58:35.000Z</time>
      </trkpt>
      <trkpt lat="44.50856" lon="0.70652">
        <ele>216.2</ele>
        <time>2017-01-22T08:58:36.000Z</time>
      </trkpt>
      <trkpt lat="44.50853" lon="0.70654">
        <ele>216.3</ele>
        <time>2017-01-22T08:58:37.000Z</time>
      </trkpt>
      <trkpt lat="44.5085" lon="0.70655">
        <ele>216.5</ele>
        <time>2017-01-22T08:58:38.000Z</time>
      </trkpt>
      <trkpt lat="44.50847" lon="0.70656">
        <ele>216.6</ele>
        <time>2017-01-22T08:58:39.000Z</time>
      </trkpt>
      <trkpt lat="44.50844" lon="0.70657">
        <ele>216.7</ele>
        <time>2017-01-22T08:58:40.000Z</time>
      </trkpt>
      <trkpt lat="44.5084" lon="0.70659">
        <ele>216.8</ele>
        <time>2017-01-22T08:58:41.000Z</time>
      </trkpt>
      <trkpt lat="44.50837" lon="0.7066">
        <ele>216.9</ele>
        <time>2017-01-22T08:58:42.000Z</time>
      </trkpt>
      <trkpt lat="44.50834" lon="0.70661">
        <ele>217</ele>
        <time>2017-01-22T08:58:43.000Z</time>
      </trkpt>
      <trkpt lat="44.50831" lon="0.70663">
        <ele>217</ele>
        <time>2017-01-22T08:58:44.000Z</time>
      </trkpt>
      <trkpt lat="44.50828" lon="0.70664">
        <ele>217</ele>
        <time>2017-01-22T08:58:45.000Z</time>
      </trkpt>
      <trkpt lat="44.50825" lon="0.70666">
        <ele>216.9</ele>
        <time>2017-01-22T08:58:46.000Z</time>
      </trkpt>
      <trkpt lat="44.50821" lon="0.70667">
        <ele>216.8</ele>
        <time>2017-01-22T08:58:47.000Z</time>
      </trkpt>
      <trkpt lat="44.50818" lon="0.70668">
        <ele>216.8</ele>
        <time>2017-01-22T08:58:48.000Z</time>
      </trkpt>
      <trkpt lat="44.50815" lon="0.7067">
        <ele>216.7</ele>
        <time>2017-01-22T08:58:49.000Z</time>
      </trkpt>
      <trkpt lat="44.50812" lon="0.70671">
        <ele>216.6</ele>
        <time>2017-01-22T08:58:50.000Z</time>
      </trkpt>
      <trkpt lat="44.50808" lon="0.70673">
        <ele>216.6</ele>
        <time>2017-01-22T08:58:51.000Z</time>
      </trkpt>
      <trkpt lat="44.50805" lon="0.70674">
        <ele>216.5</ele>
        <time>2017-01-22T08:58:52.000Z</time>
      </trkpt>
      <trkpt lat="44.50801" lon="0.70675">
        <ele>216.4</ele>
        <time>2017-01-22T08:58:53.000Z</time>
      </trkpt>
      <trkpt lat="44.50798" lon="0.70677">
        <ele>216.4</ele>
        <time>2017-01-22T08:58:54.000Z</time>
      </trkpt>
      <trkpt lat="44.50795" lon="0.70678">
        <ele>216.3</ele>
        <time>2017-01-22T08:58:55.000Z</time>
      </trkpt>
      <trkpt lat="44.50791" lon="0.7068">
        <ele>216.3</ele>
        <time>2017-01-22T08:58:56.000Z</time>
      </trkpt>
      <trkpt lat="44.50788" lon="0.70681">
        <ele>216.2</ele>
        <time>2017-01-22T08:58:57.000Z</time>
      </trkpt>
      <trkpt lat="44.50784" lon="0.70683">
        <ele>216.2</ele>
        <time>2017-01-22T08:58:58.000Z</time>
      </trkpt>
      <trkpt lat="44.50781" lon="0.70684">
        <ele>216.1</ele>
        <time>2017-01-22T08:58:59.000Z</time>
      </trkpt>
      <trkpt lat="44.50777" lon="0.70686">
        <ele>216.1</ele>
        <time>2017-01-22T08:59:00.000Z</time>
      </trkpt>
      <trkpt lat="44.50774" lon="0.70688">
        <ele>216.1</ele>
        <time>2017-01-22T08:59:01.000Z</time>
      </trkpt>
      <trkpt lat="44.5077" lon="0.7069">
        <ele>216</ele>
        <time>2017-01-22T08:59:02.000Z</time>
      </trkpt>
      <trkpt lat="44.50767" lon="0.70691">
        <ele>216</ele>
        <time>2017-01-22T08:59:03.000Z</time>
      </trkpt>
      <trkpt lat="44.50763" lon="0.70693">
        <ele>216</ele>
        <time>2017-01-22T08:59:04.000Z</time>
      </trkpt>
      <trkpt lat="44.5076" lon="0.70695">
        <ele>216</ele>
        <time>2017-01-22T08:59:05.000Z</time>
      </trkpt>
      <trkpt lat="44.50756" lon="0.70697">
        <ele>216</ele>
        <time>2017-01-22T08:59:06.000Z</time>
      </trkpt>
      <trkpt lat="44.50753" lon="0.70698">
        <ele>216</ele>
        <time>2017-01-22T08:59:07.000Z</time>
      </trkpt>
      <trkpt lat="44.50749" lon="0.707">
        <ele>215.9</ele>
        <time>2017-01-22T08:59:08.000Z</time>
      </trkpt>
      <trkpt lat="44.50746" lon="0.70701">
        <ele>215.7</ele>
        <time>2017-01-22T08:59:09.000Z</time>
      </trkpt>
      <trkpt lat="44.50742" lon="0.70703">
        <ele>215.5</ele>
        <time>2017-01-22T08:59:10.000Z</time>
      </trkpt>
      <trkpt lat="44.50739" lon="0.70704">
        <ele>215.2</ele>
        <time>2017-01-22T08:59:11.000Z</time>
      </trkpt>
      <trkpt lat="44.50736" lon="0.70706">
        <ele>215</ele>
        <time>2017-01-22T08:59:12.000Z</time>
      </trkpt>
      <trkpt lat="44.50732" lon="0.70707">
        <ele>214.8</ele>
        <time>2017-01-22T08:59:13.000Z</time>
      </trkpt>
      <trkpt lat="44.50729" lon="0.70709">
        <ele>214.6</ele>
        <time>2017-01-22T08:59:14.000Z</time>
      </trkpt>
      <trkpt lat="44.50725" lon="0.7071">
        <ele>214.4</ele>
        <time>2017-01-22T08:59:15.000Z</time>
      </trkpt>
      <trkpt lat="44.50722" lon="0.70712">
        <ele>214.2</ele>
        <time>2017-01-22T08:59:16.000Z</time>
      </trkpt>
      <trkpt lat="44.50719" lon="0.70713">
        <ele>214</ele>
        <time>2017-01-22T08:59:17.000Z</time>
      </trkpt>
      <trkpt lat="44.50715" lon="0.70715">
        <ele>213.9</ele>
        <time>2017-01-22T08:59:18.000Z</time>
      </trkpt>
      <trkpt lat="44.50712" lon="0.70717">
        <ele>213.7</ele>
        <time>2017-01-22T08:59:19.000Z</time>
      </trkpt>
      <trkpt lat="44.50708" lon="0.70719">
        <ele>213.5</ele>
        <time>2017-01-22T08:59:20.000Z</time>
      </trkpt>
      <trkpt lat="44.50704" lon="0.70721">
        <ele>213.4</ele>
        <time>2017-01-22T08:59:21.000Z</time>
      </trkpt>
      <trkpt lat="44.50701" lon="0.70722">
        <ele>213.2</ele>
        <time>2017-01-22T08:59:22.000Z</time>
      </trkpt>
      <trkpt lat="44.50697" lon="0.70724">
        <ele>213.1</ele>
        <time>2017-01-22T08:59:23.000Z</time>
      </trkpt>
      <trkpt lat="44.50693" lon="0.70726">
        <ele>213</ele>
        <time>2017-01-22T08:59:24.000Z</time>
      </trkpt>
      <trkpt lat="44.50689" lon="0.70728">
        <ele>212.8</ele>
        <time>2017-01-22T08:59:25.000Z</time>
      </trkpt>
      <trkpt lat="44.50685" lon="0.7073">
        <ele>212.7</ele>
        <time>2017-01-22T08:59:26.000Z</time>
      </trkpt>
      <trkpt lat="44.50682" lon="0.70731">
        <ele>212.6</ele>
        <time>2017-01-22T08:59:27.000Z</time>
      </trkpt>
      <trkpt lat="44.50678" lon="0.70733">
        <ele>212.5</ele>
        <time>2017-01-22T08:59:28.000Z</time>
      </trkpt>
      <trkpt lat="44.50674" lon="0.70735">
        <ele>212.4</ele>
        <time>2017-01-22T08:59:29.000Z</time>
      </trkpt>
      <trkpt lat="44.50671" lon="0.70736">
        <ele>212.4</ele>
        <time>2017-01-22T08:59:30.000Z</time>
      </trkpt>
      <trkpt lat="44.50667" lon="0.70738">
        <ele>212.3</ele>
        <time>2017-01-22T08:59:31.000Z</time>
      </trkpt>
      <trkpt lat="44.50664" lon="0.70739">
        <ele>212.4</ele>
        <time>2017-01-22T08:59:32.000Z</time>
      </trkpt>
      <trkpt lat="44.5066" lon="0.70741">
        <ele>212.6</ele>
        <time>2017-01-22T08:59:33.000Z</time>
      </trkpt>
      <trkpt lat="44.50657" lon="0.70742">
        <ele>212.8</ele>
        <time>2017-01-22T08:59:34.000Z</time>
      </trkpt>
      <trkpt lat="44.50654" lon="0.70744">
        <ele>213.1</ele>
        <time>2017-01-22T08:59:35.000Z</time>
      </trkpt>
      <trkpt lat="44.5065" lon="0.70746">
        <ele>213.3</ele>
        <time>2017-01-22T08:59:36.000Z</time>
      </trkpt>
      <trkpt lat="44.50647" lon="0.70747">
        <ele>213.5</ele>
        <time>2017-01-22T08:59:37.000Z</time>
      </trkpt>
      <trkpt lat="44.50643" lon="0.70749">
        <ele>213.8</ele>
        <time>2017-01-22T08:59:38.000Z</time>
      </trkpt>
      <trkpt lat="44.5064" lon="0.70751">
        <ele>214</ele>
        <time>2017-01-22T08:59:39.000Z</time>
      </trkpt>
      <trkpt lat="44.50636" lon="0.70752">
        <ele>214.1</ele>
        <time>2017-01-22T08:59:40.000Z</time>
      </trkpt>
      <trkpt lat="44.50632" lon="0.70754">
        <ele>214.2</ele>
        <time>2017-01-22T08:59:41.000Z</time>
      </trkpt>
      <trkpt lat="44.50628" lon="0.70755">
        <ele>214.3</ele>
        <time>2017-01-22T08:59:42.000Z</time>
      </trkpt>
      <trkpt lat="44.50624" lon="0.70757">
        <ele>214.5</ele>
        <time>2017-01-22T08:59:43.000Z</time>
      </trkpt>
      <trkpt lat="44.50619" lon="0.70758">
        <ele>214.6</ele>
        <time>2017-01-22T08:59:44.000Z</time>
      </trkpt>
      <trkpt lat="44.50615" lon="0.7076">
        <ele>214.7</ele>
        <time>2017-01-22T08:59:45.000Z</time>
      </trkpt>
      <trkpt lat="44.50611" lon="0.70761">
        <ele>214.8</ele>
        <time>2017-01-22T08:59:46.000Z</time>
      </trkpt>
      <trkpt lat="44.50607" lon="0.70763">
        <ele>214.9</ele>
        <time>2017-01-22T08:59:47.000Z</time>
      </trkpt>
      <trkpt lat="44.50603" lon="0.70764">
        <ele>215</ele>
        <time>2017-01-22T08:59:48.000Z</time>
      </trkpt>
      <trkpt lat="44.50598" lon="0.70765">
        <ele>215.1</ele>
        <time>2017-01-22T08:59:49.000Z</time>
      </trkpt>
      <trkpt lat="44.50594" lon="0.70766">
        <ele>215.1</ele>
        <time>2017-01-22T08:59:50.000Z</time>
      </trkpt>
      <trkpt lat="44.5059" lon="0.70767">
        <ele>215.2</ele>
        <time>2017-01-22T08:59:51.000Z</time>
      </trkpt>
      <trkpt lat="44.50585" lon="0.70768">
        <ele>215.3</ele>
        <time>2017-01-22T08:59:52.000Z</time>
      </trkpt>
      <trkpt lat="44.50581" lon="0.70769">
        <ele>215.3</ele>
        <time>2017-01-22T08:59:53.000Z</time>
      </trkpt>
      <trkpt lat="44.50576" lon="0.7077">
        <ele>215.4</ele>
        <time>2017-01-22T08:59:54.000Z</time>
      </trkpt>
      <trkpt lat="44.50572" lon="0.70771">
        <ele>215.4</ele>
        <time>2017-01-22T08:59:55.000Z</time>
      </trkpt>
      <trkpt lat="44.50567" lon="0.70772">
        <ele>215.4</ele>
        <time>2017-01-22T08:59:56.000Z</time>
      </trkpt>
      <trkpt lat="44.50563" lon="0.70772">
        <ele>215.4</ele>
        <time>2017-01-22T08:59:57.000Z</time>
      </trkpt>
      <trkpt lat="44.50559" lon="0.70773">
        <ele>215.5</ele>
        <time>2017-01-22T08:59:58.000Z</time>
      </trkpt>
      <trkpt lat="44.50554" lon="0.70773">
        <ele>215.5</ele>
        <time>2017-01-22T08:59:59.000Z</time>
      </trkpt>
      <trkpt lat="44.5055" lon="0.70773">
        <ele>215.6</ele>
        <time>2017-01-22T09:00:00.000Z</time>
      </trkpt>
      <trkpt lat="44.50546" lon="0.70773">
        <ele>215.6</ele>
        <time>2017-01-22T09:00:01.000Z</time>
      </trkpt>
      <trkpt lat="44.50541" lon="0.70773">
        <ele>215.7</ele>
        <time>2017-01-22T09:00:02.000Z</time>
      </trkpt>
      <trkpt lat="44.50537" lon="0.70773">
        <ele>215.7</ele>
        <time>2017-01-22T09:00:03.000Z</time>
      </trkpt>
      <trkpt lat="44.50533" lon="0.70773">
        <ele>215.8</ele>
        <time>2017-01-22T09:00:04.000Z</time>
      </trkpt>
      <trkpt lat="44.50529" lon="0.70773">
        <ele>215.8</ele>
        <time>2017-01-22T09:00:05.000Z</time>
      </trkpt>
      <trkpt lat="44.50525" lon="0.70773">
        <ele>215.9</ele>
        <time>2017-01-22T09:00:06.000Z</time>
      </trkpt>
      <trkpt lat="44.50521" lon="0.70774">
        <ele>215.9</ele>
        <time>2017-01-22T09:00:07.000Z</time>
      </trkpt>
      <trkpt lat="44.50516" lon="0.70774">
        <ele>215.9</ele>
        <time>2017-01-22T09:00:08.000Z</time>
      </trkpt>
      <trkpt lat="44.50512" lon="0.70775">
        <ele>216</ele>
        <time>2017-01-22T09:00:09.000Z</time>
      </trkpt>
      <trkpt lat="44.50507" lon="0.70776">
        <ele>216</ele>
        <time>2017-01-22T09:00:10.000Z</time>
      </trkpt>
      <trkpt lat="44.50503" lon="0.70778">
        <ele>216</ele>
        <time>2017-01-22T09:00:11.000Z</time>
      </trkpt>
      <trkpt lat="44.50498" lon="0.7078">
        <ele>215.8</ele>
        <time>2017-01-22T09:00:12.000Z</time>
      </trkpt>
      <trkpt lat="44.50493" lon="0.70782">
        <ele>215.5</ele>
        <time>2017-01-22T09:00:13.000Z</time>
      </trkpt>
      <trkpt lat="44.50487" lon="0.70783">
        <ele>215.3</ele>
        <time>2017-01-22T09:00:14.000Z</time>
      </trkpt>
      <trkpt lat="44.50482" lon="0.70784">
        <ele>215</ele>
        <time>2017-01-22T09:00:15.000Z</time>
      </trkpt>
      <trkpt lat="44.50476" lon="0.70785">
        <ele>214.7</ele>
        <time>2017-01-22T09:00:16.000Z</time>
      </trkpt>
      <trkpt lat="44.5047" lon="0.70786">
        <ele>214.4</ele>
        <time>2017-01-22T09:00:17.000Z</time>
      </trkpt>
      <trkpt lat="44.50464" lon="0.7079">
        <ele>214.1</ele>
        <time>2017-01-22T09:00:18.000Z</time>
      </trkpt>
      <trkpt lat="44.50458" lon="0.70794">
        <ele>213.7</ele>
        <time>2017-01-22T09:00:19.000Z</time>
      </trkpt>
      <trkpt lat="44.50452" lon="0.70798">
        <ele>213.3</ele>
        <time>2017-01-22T09:00:20.000Z</time>
      </trkpt>
      <trkpt lat="44.50445" lon="0.70803">
        <ele>212.9</ele>
        <time>2017-01-22T09:00:21.000Z</time>
      </trkpt>
      <trkpt lat="44.50438" lon="0.70807">
        <ele>212.5</ele>
        <time>2017-01-22T09:00:22.000Z</time>
      </trkpt>
      <trkpt lat="44.5043" lon="0.70812">
        <ele>212.1</ele>
        <time>2017-01-22T09:00:23.000Z</time>
      </trkpt>
      <trkpt lat="44.50423" lon="0.70817">
        <ele>211.6</ele>
        <time>2017-01-22T09:00:24.000Z</time>
      </trkpt>
      <trkpt lat="44.50416" lon="0.70823">
        <ele>211.1</ele>
        <time>2017-01-22T09:00:25.000Z</time>
      </trkpt>
      <trkpt lat="44.50408" lon="0.70829">
        <ele>210</ele>
        <time>2017-01-22T09:00:26.000Z</time>
      </trkpt>
      <trkpt lat="44.50401" lon="0.70836">
        <ele>208.6</ele>
        <time>2017-01-22T09:00:27.000Z</time>
      </trkpt>
      <trkpt lat="44.50393" lon="0.70843">
        <ele>207</ele>
        <time>2017-01-22T09:00:28.000Z</time>
      </trkpt>
      <trkpt lat="44.50386" lon="0.7085">
        <ele>205.3</ele>
        <time>2017-01-22T09:00:29.000Z</time>
      </trkpt>
      <trkpt lat="44.50378" lon="0.70857">
        <ele>203.8</ele>
        <time>2017-01-22T09:00:30.000Z</time>
      </trkpt>
      <trkpt lat="44.5037" lon="0.70864">
        <ele>202.2</ele>
        <time>2017-01-22T09:00:31.000Z</time>
      </trkpt>
      <trkpt lat="44.50362" lon="0.70871">
        <ele>200.7</ele>
        <time>2017-01-22T09:00:32.000Z</time>
      </trkpt>
      <trkpt lat="44.50355" lon="0.70878">
        <ele>199.2</ele>
        <time>2017-01-22T09:00:33.000Z</time>
      </trkpt>
      <trkpt lat="44.50347" lon="0.70885">
        <ele>197.7</ele>
        <time>2017-01-22T09:00:34.000Z</time>
      </trkpt>
      <trkpt lat="44.50339" lon="0.70892">
        <ele>196.4</ele>
        <time>2017-01-22T09:00:35.000Z</time>
      </trkpt>
      <trkpt lat="44.50332" lon="0.70897">
        <ele>195.1</ele>
        <time>2017-01-22T09:00:36.000Z</time>
      </trkpt>
      <trkpt lat="44.50325" lon="0.70903">
        <ele>193.4</ele>
        <time>2017-01-22T09:00:37.000Z</time>
      </trkpt>
      <trkpt lat="44.50319" lon="0.70909">
        <ele>191.8</ele>
        <time>2017-01-22T09:00:38.000Z</time>
      </trkpt>
      <trkpt lat="44.50312" lon="0.70917">
        <ele>190.2</ele>
        <time>2017-01-22T09:00:39.000Z</time>
      </trkpt>
      <trkpt lat="44.50306" lon="0.70926">
        <ele>188.9</ele>
        <time>2017-01-22T09:00:40.000Z</time>
      </trkpt>
      <trkpt lat="44.503" lon="0.70936">
        <ele>187.8</ele>
        <time>2017-01-22T09:00:41.000Z</time>
      </trkpt>
      <trkpt lat="44.50294" lon="0.70946">
        <ele>186.8</ele>
        <time>2017-01-22T09:00:42.000Z</time>
      </trkpt>
      <trkpt lat="44.50288" lon="0.70957">
        <ele>186</ele>
        <time>2017-01-22T09:00:43.000Z</time>
      </trkpt>
      <trkpt lat="44.50282" lon="0.70968">
        <ele>185.4</ele>
        <time>2017-01-22T09:00:44.000Z</time>
      </trkpt>
      <trkpt lat="44.50275" lon="0.70978">
        <ele>185</ele>
        <time>2017-01-22T09:00:45.000Z</time>
      </trkpt>
      <trkpt lat="44.5027" lon="0.70988">
        <ele>184.8</ele>
        <time>2017-01-22T09:00:46.000Z</time>
      </trkpt>
      <trkpt lat="44.50264" lon="0.70997">
        <ele>184.8</ele>
        <time>2017-01-22T09:00:47.000Z</time>
      </trkpt>
      <trkpt lat="44.50259" lon="0.71006">
        <ele>184.2</ele>
        <time>2017-01-22T09:00:48.000Z</time>
      </trkpt>
      <trkpt lat="44.50254" lon="0.71013">
        <ele>183.6</ele>
        <time>2017-01-22T09:00:49.000Z</time>
      </trkpt>
      <trkpt lat="44.50249" lon="0.7102">
        <ele>183</ele>
        <time>2017-01-22T09:00:50.000Z</time>
      </trkpt>
      <trkpt lat="44.50244" lon="0.71026">
        <ele>182.1</ele>
        <time>2017-01-22T09:00:51.000Z</time>
      </trkpt>
      <trkpt lat="44.50239" lon="0.71032">
        <ele>181.2</ele>
        <time>2017-01-22T09:00:52.000Z</time>
      </trkpt>
      <trkpt lat="44.50233" lon="0.71037">
        <ele>180.3</ele>
        <time>2017-01-22T09:00:53.000Z</time>
      </trkpt>
      <trkpt lat="44.50226" lon="0.71043">
        <ele>179.4</ele>
        <time>2017-01-22T09:00:54.000Z</time>
      </trkpt>
      <trkpt lat="44.50219" lon="0.71048">
        <ele>178.4</ele>
        <time>2017-01-22T09:00:55.000Z</time>
      </trkpt>
      <trkpt lat="44.5021" lon="0.71054">
        <ele>177.4</ele>
        <time>2017-01-22T09:00:56.000Z</time>
      </trkpt>
      <trkpt lat="44.50201" lon="0.71059">
        <ele>176.4</ele>
        <time>2017-01-22T09:00:57.000Z</time>
      </trkpt>
      <trkpt lat="44.50192" lon="0.71064">
        <ele>175.4</ele>
        <time>2017-01-22T09:00:58.000Z</time>
      </trkpt>
      <trkpt lat="44.50182" lon="0.71068">
        <ele>174.5</ele>
        <time>2017-01-22T09:00:59.000Z</time>
      </trkpt>
      <trkpt lat="44.50173" lon="0.71071">
        <ele>173.6</ele>
        <time>2017-01-22T09:01:00.000Z</time>
      </trkpt>
      <trkpt lat="44.50165" lon="0.71073">
        <ele>172.8</ele>
        <time>2017-01-22T09:01:01.000Z</time>
      </trkpt>
      <trkpt lat="44.50157" lon="0.71074">
        <ele>171.8</ele>
        <time>2017-01-22T09:01:02.000Z</time>
      </trkpt>
      <trkpt lat="44.50149" lon="0.71075">
        <ele>170.9</ele>
        <time>2017-01-22T09:01:03.000Z</time>
      </trkpt>
      <trkpt lat="44.50141" lon="0.71076">
        <ele>170</ele>
        <time>2017-01-22T09:01:04.000Z</time>
      </trkpt>
      <trkpt lat="44.50133" lon="0.71077">
        <ele>169</ele>
        <time>2017-01-22T09:01:05.000Z</time>
      </trkpt>
      <trkpt lat="44.50124" lon="0.71078">
        <ele>168</ele>
        <time>2017-01-22T09:01:06.000Z</time>
      </trkpt>
      <trkpt lat="44.50116" lon="0.71079">
        <ele>167</ele>
        <time>2017-01-22T09:01:07.000Z</time>
      </trkpt>
      <trkpt lat="44.50107" lon="0.71079">
        <ele>166</ele>
        <time>2017-01-22T09:01:08.000Z</time>
      </trkpt>
      <trkpt lat="44.50101" lon="0.71079">
        <ele>165.1</ele>
        <time>2017-01-22T09:01:09.000Z</time>
      </trkpt>
      <trkpt lat="44.50096" lon="0.71079">
        <ele>164.6</ele>
        <time>2017-01-22T09:01:10.000Z</time>
      </trkpt>
      <trkpt lat="44.50093" lon="0.71079">
        <ele>164.3</ele>
        <time>2017-01-22T09:01:11.000Z</time>
      </trkpt>
      <trkpt lat="44.50092" lon="0.71079">
        <ele>164.1</ele>
        <time>2017-01-22T09:01:12.000Z</time>
      </trkpt>
      <trkpt lat="44.50092" lon="0.71079">
        <ele>164.1</ele>
        <time>2017-01-22T09:01:13.000Z</time>
      </trkpt>
      <trkpt lat="44.50091" lon="0.7108">
        <ele>164.1</ele>
        <time>2017-01-22T09:01:14.000Z</time>
      </trkpt>
      <trkpt lat="44.50092" lon="0.71079">
        <ele>164.1</ele>
        <time>2017-01-22T09:01:15.000Z</time>
      </trkpt>
      <trkpt lat="44.50092" lon="0.71079">
        <ele>164.1</ele>
        <time>2017-01-22T09:01:16.000Z</time>
      </trkpt>
      <trkpt lat="44.50092" lon="0.71079">
        <ele>164.1</ele>
        <time>2017-01-22T09:01:17.000Z</time>
      </trkpt>
      <trkpt lat="44.50092" lon="0.71079">
        <ele>164.1</ele>
        <time>2017-01-22T09:01:18.000Z</time>
      </trkpt>
      <trkpt lat="44.50092" lon="0.71079">
        <ele>164.1</ele>
        <time>2017-01-22T09:01:19.000Z</time>
      </trkpt>
      <trkpt lat="44.50091" lon="0.71079">
        <ele>164</ele>
        <time>2017-01-22T09:01:20.000Z</time>
      </trkpt>
      <trkpt lat="44.5009" lon="0.71079">
        <ele>163.9</ele>
        <time>2017-01-22T09:01:21.000Z</time>
      </trkpt>
      <trkpt lat="44.50088" lon="0.71079">
        <ele>163.7</ele>
        <time>2017-01-22T09:01:22.000Z</time>
      </trkpt>
      <trkpt lat="44.50086" lon="0.71078">
        <ele>163.4</ele>
        <time>2017-01-22T09:01:23.000Z</time>
      </trkpt>
      <trkpt lat="44.50083" lon="0.71077">
        <ele>163.1</ele>
        <time>2017-01-22T09:01:24.000Z</time>
      </trkpt>
      <trkpt lat="44.50079" lon="0.71076">
        <ele>162.9</ele>
        <time>2017-01-22T09:01:25.000Z</time>
      </trkpt>
      <trkpt lat="44.50075" lon="0.71076">
        <ele>162.6</ele>
        <time>2017-01-22T09:01:26.000Z</time>
      </trkpt>
      <trkpt lat="44.5007" lon="0.71075">
        <ele>162.4</ele>
        <time>2017-01-22T09:01:27.000Z</time>
      </trkpt>
      <trkpt lat="44.50066" lon="0.71075">
        <ele>162.1</ele>
        <time>2017-01-22T09:01:28.000Z</time>
      </trkpt>
      <trkpt lat="44.50061" lon="0.71074">
        <ele>161.8</ele>
        <time>2017-01-22T09:01:29.000Z</time>
      </trkpt>
      <trkpt lat="44.50056" lon="0.71074">
        <ele>161.5</ele>
        <time>2017-01-22T09:01:30.000Z</time>
      </trkpt>
      <trkpt lat="44.50051" lon="0.71074">
        <ele>161.2</ele>
        <time>2017-01-22T09:01:31.000Z</time>
      </trkpt>
      <trkpt lat="44.50046" lon="0.71073">
        <ele>160.9</ele>
        <time>2017-01-22T09:01:32.000Z</time>
      </trkpt>
      <trkpt lat="44.50041" lon="0.71073">
        <ele>160.6</ele>
        <time>2017-01-22T09:01:33.000Z</time>
      </trkpt>
      <trkpt lat="44.50036" lon="0.71073">
        <ele>160.3</ele>
        <time>2017-01-22T09:01:34.000Z</time>
      </trkpt>
      <trkpt lat="44.50031" lon="0.71072">
        <ele>160</ele>
        <time>2017-01-22T09:01:35.000Z</time>
      </trkpt>
      <trkpt lat="44.50025" lon="0.71072">
        <ele>159.7</ele>
        <time>2017-01-22T09:01:36.000Z</time>
      </trkpt>
      <trkpt lat="44.5002" lon="0.71071">
        <ele>159.4</ele>
        <time>2017-01-22T09:01:37.000Z</time>
      </trkpt>
      <trkpt lat="44.50015" lon="0.71071">
        <ele>159.1</ele>
        <time>2017-01-22T09:01:38.000Z</time>
      </trkpt>
      <trkpt lat="44.5001" lon="0.71071">
        <ele>158.8</ele>
        <time>2017-01-22T09:01:39.000Z</time>
      </trkpt>
      <trkpt lat="44.50005" lon="0.71071">
        <ele>158.5</ele>
        <time>2017-01-22T09:01:40.000Z</time>
      </trkpt>
      <trkpt lat="44.5" lon="0.71071">
        <ele>158.2</ele>
        <time>2017-01-22T09:01:41.000Z</time>
      </trkpt>
      <trkpt lat="44.49995" lon="0.71071">
        <ele>158.2</ele>
        <time>2017-01-22T09:01:42.000Z</time>
      </trkpt>
      <trkpt lat="44.4999" lon="0.71072">
        <ele>158.2</ele>
        <time>2017-01-22T09:01:43.000Z</time>
      </trkpt>
      <trkpt lat="44.49985" lon="0.71073">
        <ele>158.2</ele>
        <time>2017-01-22T09:01:44.000Z</time>
      </trkpt>
      <trkpt lat="44.4998" lon="0.71073">
        <ele>158.2</ele>
        <time>2017-01-22T09:01:45.000Z</time>
      </trkpt>
      <trkpt lat="44.49975" lon="0.71073">
        <ele>158.2</ele>
        <time>2017-01-22T09:01:46.000Z</time>
      </trkpt>
      <trkpt lat="44.49971" lon="0.71073">
        <ele>158.3</ele>
        <time>2017-01-22T09:01:47.000Z</time>
      </trkpt>
      <trkpt lat="44.49966" lon="0.71073">
        <ele>158.3</ele>
        <time>2017-01-22T09:01:48.000Z</time>
      </trkpt>
      <trkpt lat="44.49961" lon="0.71074">
        <ele>158.3</ele>
        <time>2017-01-22T09:01:49.000Z</time>
      </trkpt>
      <trkpt lat="44.49955" lon="0.71075">
        <ele>158.4</ele>
        <time>2017-01-22T09:01:50.000Z</time>
      </trkpt>
      <trkpt lat="44.4995" lon="0.71076">
        <ele>158.4</ele>
        <time>2017-01-22T09:01:51.000Z</time>
      </trkpt>
      <trkpt lat="44.49944" lon="0.71076">
        <ele>158.5</ele>
        <time>2017-01-22T09:01:52.000Z</time>
      </trkpt>
      <trkpt lat="44.49938" lon="0.71077">
        <ele>158.5</ele>
        <time>2017-01-22T09:01:53.000Z</time>
      </trkpt>
      <trkpt lat="44.49931" lon="0.71076">
        <ele>158.6</ele>
        <time>2017-01-22T09:01:54.000Z</time>
      </trkpt>
      <trkpt lat="44.49925" lon="0.71076">
        <ele>158.6</ele>
        <time>2017-01-22T09:01:55.000Z</time>
      </trkpt>
      <trkpt lat="44.49919" lon="0.71075">
        <ele>158.6</ele>
        <time>2017-01-22T09:01:56.000Z</time>
      </trkpt>
      <trkpt lat="44.49913" lon="0.71073">
        <ele>158.2</ele>
        <time>2017-01-22T09:01:57.000Z</time>
      </trkpt>
      <trkpt lat="44.49907" lon="0.71071">
        <ele>157.7</ele>
        <time>2017-01-22T09:01:58.000Z</time>
      </trkpt>
      <trkpt lat="44.499" lon="0.71069">
        <ele>157.2</ele>
        <time>2017-01-22T09:01:59.000Z</time>
      </trkpt>
      <trkpt lat="44.49894" lon="0.71066">
        <ele>156.7</ele>
        <time>2017-01-22T09:02:00.000Z</time>
      </trkpt>
      <trkpt lat="44.49888" lon="0.71063">
        <ele>156.2</ele>
        <time>2017-01-22T09:02:01.000Z</time>
      </trkpt>
      <trkpt lat="44.49882" lon="0.7106">
        <ele>155.7</ele>
        <time>2017-01-22T09:02:02.000Z</time>
      </trkpt>
      <trkpt lat="44.49876" lon="0.71056">
        <ele>155.3</ele>
        <time>2017-01-22T09:02:03.000Z</time>
      </trkpt>
      <trkpt lat="44.4987" lon="0.71053">
        <ele>154.8</ele>
        <time>2017-01-22T09:02:04.000Z</time>
      </trkpt>
      <trkpt lat="44.49865" lon="0.71049">
        <ele>154.4</ele>
        <time>2017-01-22T09:02:05.000Z</time>
      </trkpt>
      <trkpt lat="44.49859" lon="0.71045">
        <ele>153.9</ele>
        <time>2017-01-22T09:02:06.000Z</time>
      </trkpt>
      <trkpt lat="44.49853" lon="0.71041">
        <ele>153.5</ele>
        <time>2017-01-22T09:02:07.000Z</time>
      </trkpt>
      <trkpt lat="44.49847" lon="0.71037">
        <ele>153.2</ele>
        <time>2017-01-22T09:02:08.000Z</time>
      </trkpt>
      <trkpt lat="44.49842" lon="0.71033">
        <ele>152.8</ele>
        <time>2017-01-22T09:02:09.000Z</time>
      </trkpt>
      <trkpt lat="44.49836" lon="0.71028">
        <ele>152.5</ele>
        <time>2017-01-22T09:02:10.000Z</time>
      </trkpt>
      <trkpt lat="44.49831" lon="0.71024">
        <ele>152.2</ele>
        <time>2017-01-22T09:02:11.000Z</time>
      </trkpt>
      <trkpt lat="44.49825" lon="0.7102">
        <ele>151.9</ele>
        <time>2017-01-22T09:02:12.000Z</time>
      </trkpt>
      <trkpt lat="44.4982" lon="0.71016">
        <ele>151.6</ele>
        <time>2017-01-22T09:02:13.000Z</time>
      </trkpt>
      <trkpt lat="44.49814" lon="0.71012">
        <ele>151.3</ele>
        <time>2017-01-22T09:02:14.000Z</time>
      </trkpt>
      <trkpt lat="44.49809" lon="0.71008">
        <ele>151.1</ele>
        <time>2017-01-22T09:02:15.000Z</time>
      </trkpt>
      <trkpt lat="44.49803" lon="0.71003">
        <ele>150.9</ele>
        <time>2017-01-22T09:02:16.000Z</time>
      </trkpt>
      <trkpt lat="44.49797" lon="0.70999">
        <ele>150.6</ele>
        <time>2017-01-22T09:02:17.000Z</time>
      </trkpt>
      <trkpt lat="44.49791" lon="0.70994">
        <ele>150.3</ele>
        <time>2017-01-22T09:02:18.000Z</time>
      </trkpt>
      <trkpt lat="44.49784" lon="0.7099">
        <ele>150</ele>
        <time>2017-01-22T09:02:19.000Z</time>
      </trkpt>
      <trkpt lat="44.49778" lon="0.70986">
        <ele>149.7</ele>
        <time>2017-01-22T09:02:20.000Z</time>
      </trkpt>
      <trkpt lat="44.49772" lon="0.70981">
        <ele>149.5</ele>
        <time>2017-01-22T09:02:21.000Z</time>
      </trkpt>
      <trkpt lat="44.49767" lon="0.70978">
        <ele>149.4</ele>
        <time>2017-01-22T09:02:22.000Z</time>
      </trkpt>
      <trkpt lat="44.49761" lon="0.70974">
        <ele>149.4</ele>
        <time>2017-01-22T09:02:23.000Z</time>
      </trkpt>
      <trkpt lat="44.49756" lon="0.70969">
        <ele>149.4</ele>
        <time>2017-01-22T09:02:24.000Z</time>
      </trkpt>
      <trkpt lat="44.49751" lon="0.70965">
        <ele>149.4</ele>
        <time>2017-01-22T09:02:25.000Z</time>
      </trkpt>
      <trkpt lat="44.49747" lon="0.7096">
        <ele>149.5</ele>
        <time>2017-01-22T09:02:26.000Z</time>
      </trkpt>
      <trkpt lat="44.49743" lon="0.70956">
        <ele>149.5</ele>
        <time>2017-01-22T09:02:27.000Z</time>
      </trkpt>
      <trkpt lat="44.49738" lon="0.70953">
        <ele>149.5</ele>
        <time>2017-01-22T09:02:28.000Z</time>
      </trkpt>
      <trkpt lat="44.49733" lon="0.70951">
        <ele>149.6</ele>
        <time>2017-01-22T09:02:29.000Z</time>
      </trkpt>
      <trkpt lat="44.49728" lon="0.70947">
        <ele>149.7</ele>
        <time>2017-01-22T09:02:30.000Z</time>
      </trkpt>
      <trkpt lat="44.49723" lon="0.70944">
        <ele>149.8</ele>
        <time>2017-01-22T09:02:31.000Z</time>
      </trkpt>
      <trkpt lat="44.49718" lon="0.7094">
        <ele>150</ele>
        <time>2017-01-22T09:02:32.000Z</time>
      </trkpt>
      <trkpt lat="44.49712" lon="0.70935">
        <ele>150.2</ele>
        <time>2017-01-22T09:02:33.000Z</time>
      </trkpt>
      <trkpt lat="44.49706" lon="0.70932">
        <ele>150.4</ele>
        <time>2017-01-22T09:02:34.000Z</time>
      </trkpt>
      <trkpt lat="44.49701" lon="0.70928">
        <ele>150.7</ele>
        <time>2017-01-22T09:02:35.000Z</time>
      </trkpt>
      <trkpt lat="44.49696" lon="0.70924">
        <ele>150.9</ele>
        <time>2017-01-22T09:02:36.000Z</time>
      </trkpt>
      <trkpt lat="44.49691" lon="0.70921">
        <ele>151.2</ele>
        <time>2017-01-22T09:02:37.000Z</time>
      </trkpt>
      <trkpt lat="44.49686" lon="0.70917">
        <ele>151.5</ele>
        <time>2017-01-22T09:02:38.000Z</time>
      </trkpt>
      <trkpt lat="44.49681" lon="0.70914">
        <ele>151.5</ele>
        <time>2017-01-22T09:02:39.000Z</time>
      </trkpt>
      <trkpt lat="44.49677" lon="0.70911">
        <ele>151.5</ele>
        <time>2017-01-22T09:02:40.000Z</time>
      </trkpt>
      <trkpt lat="44.49672" lon="0.70908">
        <ele>151.4</ele>
        <time>2017-01-22T09:02:41.000Z</time>
      </trkpt>
      <trkpt lat="44.49668" lon="0.70906">
        <ele>151.4</ele>
        <time>2017-01-22T09:02:42.000Z</time>
      </trkpt>
      <trkpt lat="44.49664" lon="0.70903">
        <ele>151.3</ele>
        <time>2017-01-22T09:02:43.000Z</time>
      </trkpt>
      <trkpt lat="44.4966" lon="0.709">
        <ele>151.1</ele>
        <time>2017-01-22T09:02:44.000Z</time>
      </trkpt>
      <trkpt lat="44.49655" lon="0.70898">
        <ele>151</ele>
        <time>2017-01-22T09:02:45.000Z</time>
      </trkpt>
      <trkpt lat="44.49651" lon="0.70895">
        <ele>150.8</ele>
        <time>2017-01-22T09:02:46.000Z</time>
      </trkpt>
      <trkpt lat="44.49646" lon="0.70892">
        <ele>150.7</ele>
        <time>2017-01-22T09:02:47.000Z</time>
      </trkpt>
      <trkpt lat="44.49642" lon="0.7089">
        <ele>150.7</ele>
        <time>2017-01-22T09:02:48.000Z</time>
      </trkpt>
      <trkpt lat="44.49637" lon="0.70887">
        <ele>150.7</ele>
        <time>2017-01-22T09:02:49.000Z</time>
      </trkpt>
      <trkpt lat="44.49632" lon="0.70885">
        <ele>150.7</ele>
        <time>2017-01-22T09:02:50.000Z</time>
      </trkpt>
      <trkpt lat="44.49628" lon="0.70882">
        <ele>150.7</ele>
        <time>2017-01-22T09:02:51.000Z</time>
      </trkpt>
      <trkpt lat="44.49623" lon="0.70879">
        <ele>150.8</ele>
        <time>2017-01-22T09:02:52.000Z</time>
      </trkpt>
      <trkpt lat="44.49618" lon="0.70876">
        <ele>150.9</ele>
        <time>2017-01-22T09:02:53.000Z</time>
      </trkpt>
      <trkpt lat="44.49614" lon="0.70873">
        <ele>151</ele>
        <time>2017-01-22T09:02:54.000Z</time>
      </trkpt>
      <trkpt lat="44.4961" lon="0.7087">
        <ele>151.2</ele>
        <time>2017-01-22T09:02:55.000Z</time>
      </trkpt>
      <trkpt lat="44.49605" lon="0.70867">
        <ele>151.4</ele>
        <time>2017-01-22T09:02:56.000Z</time>
      </trkpt>
      <trkpt lat="44.49601" lon="0.70864">
        <ele>151.6</ele>
        <time>2017-01-22T09:02:57.000Z</time>
      </trkpt>
      <trkpt lat="44.49597" lon="0.70861">
        <ele>151.9</ele>
        <time>2017-01-22T09:02:58.000Z</time>
      </trkpt>
      <trkpt lat="44.49593" lon="0.70858">
        <ele>152.2</ele>
        <time>2017-01-22T09:02:59.000Z</time>
      </trkpt>
      <trkpt lat="44.49589" lon="0.70855">
        <ele>152.5</ele>
        <time>2017-01-22T09:03:00.000Z</time>
      </trkpt>
      <trkpt lat="44.49585" lon="0.70852">
        <ele>152.8</ele>
        <time>2017-01-22T09:03:01.000Z</time>
      </trkpt>
      <trkpt lat="44.49581" lon="0.70849">
        <ele>153.1</ele>
        <time>2017-01-22T09:03:02.000Z</time>
      </trkpt>
      <trkpt lat="44.49577" lon="0.70846">
        <ele>153.4</ele>
        <time>2017-01-22T09:03:03.000Z</time>
      </trkpt>
      <trkpt lat="44.49573" lon="0.70844">
        <ele>153.6</ele>
        <time>2017-01-22T09:03:04.000Z</time>
      </trkpt>
      <trkpt lat="44.49569" lon="0.70841">
        <ele>153.8</ele>
        <time>2017-01-22T09:03:05.000Z</time>
      </trkpt>
      <trkpt lat="44.49565" lon="0.70839">
        <ele>154.1</ele>
        <time>2017-01-22T09:03:06.000Z</time>
      </trkpt>
      <trkpt lat="44.49561" lon="0.70837">
        <ele>154.3</ele>
        <time>2017-01-22T09:03:07.000Z</time>
      </trkpt>
      <trkpt lat="44.49557" lon="0.70835">
        <ele>154.5</ele>
        <time>2017-01-22T09:03:08.000Z</time>
      </trkpt>
      <trkpt lat="44.49554" lon="0.70832">
        <ele>154.8</ele>
        <time>2017-01-22T09:03:09.000Z</time>
      </trkpt>
      <trkpt lat="44.4955" lon="0.7083">
        <ele>154.9</ele>
        <time>2017-01-22T09:03:10.000Z</time>
      </trkpt>
      <trkpt lat="44.49547" lon="0.70828">
        <ele>155.1</ele>
        <time>2017-01-22T09:03:11.000Z</time>
      </trkpt>
      <trkpt lat="44.49543" lon="0.70826">
        <ele>155.3</ele>
        <time>2017-01-22T09:03:12.000Z</time>
      </trkpt>
      <trkpt lat="44.4954" lon="0.70823">
        <ele>155.5</ele>
        <time>2017-01-22T09:03:13.000Z</time>
      </trkpt>
      <trkpt lat="44.49537" lon="0.70821">
        <ele>155.7</ele>
        <time>2017-01-22T09:03:14.000Z</time>
      </trkpt>
      <trkpt lat="44.49534" lon="0.70818">
        <ele>155.9</ele>
        <time>2017-01-22T09:03:15.000Z</time>
      </trkpt>
      <trkpt lat="44.49532" lon="0.70814">
        <ele>156.2</ele>
        <time>2017-01-22T09:03:16.000Z</time>
      </trkpt>
      <trkpt lat="44.49529" lon="0.70811">
        <ele>156.4</ele>
        <time>2017-01-22T09:03:17.000Z</time>
      </trkpt>
      <trkpt lat="44.49527" lon="0.70808">
        <ele>156.5</ele>
        <time>2017-01-22T09:03:18.000Z</time>
      </trkpt>
      <trkpt lat="44.49526" lon="0.70806">
        <ele>156.7</ele>
        <time>2017-01-22T09:03:19.000Z</time>
      </trkpt>
      <trkpt lat="44.49524" lon="0.70804">
        <ele>156.9</ele>
        <time>2017-01-22T09:03:20.000Z</time>
      </trkpt>
      <trkpt lat="44.49523" lon="0.70801">
        <ele>157</ele>
        <time>2017-01-22T09:03:21.000Z</time>
      </trkpt>
      <trkpt lat="44.49521" lon="0.70799">
        <ele>157.1</ele>
        <time>2017-01-22T09:03:22.000Z</time>
      </trkpt>
      <trkpt lat="44.4952" lon="0.70797">
        <ele>157.3</ele>
        <time>2017-01-22T09:03:23.000Z</time>
      </trkpt>
      <trkpt lat="44.49518" lon="0.70794">
        <ele>157.5</ele>
        <time>2017-01-22T09:03:24.000Z</time>
      </trkpt>
      <trkpt lat="44.49516" lon="0.70791">
        <ele>157.7</ele>
        <time>2017-01-22T09:03:25.000Z</time>
      </trkpt>
      <trkpt lat="44.49515" lon="0.70787">
        <ele>157.9</ele>
        <time>2017-01-22T09:03:26.000Z</time>
      </trkpt>
      <trkpt lat="44.49512" lon="0.70784">
        <ele>158.1</ele>
        <time>2017-01-22T09:03:27.000Z</time>
      </trkpt>
      <trkpt lat="44.4951" lon="0.7078">
        <ele>158.3</ele>
        <time>2017-01-22T09:03:28.000Z</time>
      </trkpt>
      <trkpt lat="44.49507" lon="0.70776">
        <ele>158.6</ele>
        <time>2017-01-22T09:03:29.000Z</time>
      </trkpt>
      <trkpt lat="44.49505" lon="0.70771">
        <ele>158.9</ele>
        <time>2017-01-22T09:03:30.000Z</time>
      </trkpt>
      <trkpt lat="44.49502" lon="0.70767">
        <ele>159.1</ele>
        <time>2017-01-22T09:03:31.000Z</time>
      </trkpt>
      <trkpt lat="44.495" lon="0.70763">
        <ele>159.4</ele>
        <time>2017-01-22T09:03:32.000Z</time>
      </trkpt>
      <trkpt lat="44.49497" lon="0.70759">
        <ele>159.5</ele>
        <time>2017-01-22T09:03:33.000Z</time>
      </trkpt>
      <trkpt lat="44.49493" lon="0.70755">
        <ele>159.5</ele>
        <time>2017-01-22T09:03:34.000Z</time>
      </trkpt>
      <trkpt lat="44.4949" lon="0.70752">
        <ele>159.5</ele>
        <time>2017-01-22T09:03:35.000Z</time>
      </trkpt>
      <trkpt lat="44.49486" lon="0.7075">
        <ele>159.5</ele>
        <time>2017-01-22T09:03:36.000Z</time>
      </trkpt>
      <trkpt lat="44.49483" lon="0.70747">
        <ele>159.3</ele>
        <time>2017-01-22T09:03:37.000Z</time>
      </trkpt>
      <trkpt lat="44.4948" lon="0.70745">
        <ele>159.1</ele>
        <time>2017-01-22T09:03:38.000Z</time>
      </trkpt>
      <trkpt lat="44.49477" lon="0.70743">
        <ele>158.9</ele>
        <time>2017-01-22T09:03:39.000Z</time>
      </trkpt>
      <trkpt lat="44.49474" lon="0.70741">
        <ele>158.7</ele>
        <time>2017-01-22T09:03:40.000Z</time>
      </trkpt>
      <trkpt lat="44.49471" lon="0.70738">
        <ele>158.5</ele>
        <time>2017-01-22T09:03:41.000Z</time>
      </trkpt>
      <trkpt lat="44.49468" lon="0.70735">
        <ele>158.3</ele>
        <time>2017-01-22T09:03:42.000Z</time>
      </trkpt>
      <trkpt lat="44.49466" lon="0.70732">
        <ele>158</ele>
        <time>2017-01-22T09:03:43.000Z</time>
      </trkpt>
      <trkpt lat="44.49464" lon="0.70728">
        <ele>157.8</ele>
        <time>2017-01-22T09:03:44.000Z</time>
      </trkpt>
      <trkpt lat="44.49461" lon="0.70723">
        <ele>157.5</ele>
        <time>2017-01-22T09:03:45.000Z</time>
      </trkpt>
      <trkpt lat="44.49457" lon="0.70718">
        <ele>157.1</ele>
        <time>2017-01-22T09:03:46.000Z</time>
      </trkpt>
      <trkpt lat="44.49454" lon="0.70713">
        <ele>156.7</ele>
        <time>2017-01-22T09:03:47.000Z</time>
      </trkpt>
      <trkpt lat="44.49449" lon="0.70707">
        <ele>156.3</ele>
        <time>2017-01-22T09:03:48.000Z</time>
      </trkpt>
      <trkpt lat="44.49445" lon="0.70701">
        <ele>155.8</ele>
        <time>2017-01-22T09:03:49.000Z</time>
      </trkpt>
      <trkpt lat="44.4944" lon="0.70694">
        <ele>155.4</ele>
        <time>2017-01-22T09:03:50.000Z</time>
      </trkpt>
      <trkpt lat="44.49435" lon="0.70688">
        <ele>154.9</ele>
        <time>2017-01-22T09:03:51.000Z</time>
      </trkpt>
      <trkpt lat="44.4943" lon="0.70682">
        <ele>154.4</ele>
        <time>2017-01-22T09:03:52.000Z</time>
      </trkpt>
      <trkpt lat="44.49425" lon="0.70676">
        <ele>153.8</ele>
        <time>2017-01-22T09:03:53.000Z</time>
      </trkpt>
      <trkpt lat="44.4942" lon="0.70669">
        <ele>153.3</ele>
        <time>2017-01-22T09:03:54.000Z</time>
      </trkpt>
      <trkpt lat="44.49416" lon="0.70662">
        <ele>152.4</ele>
        <time>2017-01-22T09:03:55.000Z</time>
      </trkpt>
      <trkpt lat="44.49411" lon="0.70654">
        <ele>151</ele>
        <time>2017-01-22T09:03:56.000Z</time>
      </trkpt>
      <trkpt lat="44.49405" lon="0.70646">
        <ele>149.4</ele>
        <time>2017-01-22T09:03:57.000Z</time>
      </trkpt>
      <trkpt lat="44.494" lon="0.70636">
        <ele>147.8</ele>
        <time>2017-01-22T09:03:58.000Z</time>
      </trkpt>
      <trkpt lat="44.49394" lon="0.70626">
        <ele>146.1</ele>
        <time>2017-01-22T09:03:59.000Z</time>
      </trkpt>
      <trkpt lat="44.49388" lon="0.70616">
        <ele>144.4</ele>
        <time>2017-01-22T09:04:00.000Z</time>
      </trkpt>
      <trkpt lat="44.49381" lon="0.70604">
        <ele>142.8</ele>
        <time>2017-01-22T09:04:01.000Z</time>
      </trkpt>
      <trkpt lat="44.49375" lon="0.70593">
        <ele>141.1</ele>
        <time>2017-01-22T09:04:02.000Z</time>
      </trkpt>
      <trkpt lat="44.49368" lon="0.70582">
        <ele>139.5</ele>
        <time>2017-01-22T09:04:03.000Z</time>
      </trkpt>
      <trkpt lat="44.49362" lon="0.70571">
        <ele>137.9</ele>
        <time>2017-01-22T09:04:04.000Z</time>
      </trkpt>
      <trkpt lat="44.49354" lon="0.7056">
        <ele>136.2</ele>
        <time>2017-01-22T09:04:05.000Z</time>
      </trkpt>
      <trkpt lat="44.49347" lon="0.70549">
        <ele>134.6</ele>
        <time>2017-01-22T09:04:06.000Z</time>
      </trkpt>
      <trkpt lat="44.4934" lon="0.70538">
        <ele>133</ele>
        <time>2017-01-22T09:04:07.000Z</time>
      </trkpt>
      <trkpt lat="44.49333" lon="0.70526">
        <ele>131.5</ele>
        <time>2017-01-22T09:04:08.000Z</time>
      </trkpt>
      <trkpt lat="44.49326" lon="0.70514">
        <ele>129.8</ele>
        <time>2017-01-22T09:04:09.000Z</time>
      </trkpt>
      <trkpt lat="44.4932" lon="0.70501">
        <ele>128.2</ele>
        <time>2017-01-22T09:04:10.000Z</time>
      </trkpt>
      <trkpt lat="44.49314" lon="0.70488">
        <ele>126.6</ele>
        <time>2017-01-22T09:04:11.000Z</time>
      </trkpt>
      <trkpt lat="44.49309" lon="0.70476">
        <ele>125.1</ele>
        <time>2017-01-22T09:04:12.000Z</time>
      </trkpt>
      <trkpt lat="44.49305" lon="0.70465">
        <ele>123.9</ele>
        <time>2017-01-22T09:04:13.000Z</time>
      </trkpt>
      <trkpt lat="44.49301" lon="0.70454">
        <ele>122.7</ele>
        <time>2017-01-22T09:04:14.000Z</time>
      </trkpt>
      <trkpt lat="44.49298" lon="0.70443">
        <ele>121.8</ele>
        <time>2017-01-22T09:04:15.000Z</time>
      </trkpt>
      <trkpt lat="44.49296" lon="0.70433">
        <ele>120.8</ele>
        <time>2017-01-22T09:04:16.000Z</time>
      </trkpt>
      <trkpt lat="44.49293" lon="0.70423">
        <ele>120</ele>
        <time>2017-01-22T09:04:17.000Z</time>
      </trkpt>
      <trkpt lat="44.4929" lon="0.70412">
        <ele>119.2</ele>
        <time>2017-01-22T09:04:18.000Z</time>
      </trkpt>
      <trkpt lat="44.49288" lon="0.70401">
        <ele>118.4</ele>
        <time>2017-01-22T09:04:19.000Z</time>
      </trkpt>
      <trkpt lat="44.49285" lon="0.7039">
        <ele>117.8</ele>
        <time>2017-01-22T09:04:20.000Z</time>
      </trkpt>
      <trkpt lat="44.49283" lon="0.70379">
        <ele>117.1</ele>
        <time>2017-01-22T09:04:21.000Z</time>
      </trkpt>
      <trkpt lat="44.4928" lon="0.70367">
        <ele>116.5</ele>
        <time>2017-01-22T09:04:22.000Z</time>
      </trkpt>
      <trkpt lat="44.49277" lon="0.70356">
        <ele>115.9</ele>
        <time>2017-01-22T09:04:23.000Z</time>
      </trkpt>
      <trkpt lat="44.49275" lon="0.70345">
        <ele>115.3</ele>
        <time>2017-01-22T09:04:24.000Z</time>
      </trkpt>
      <trkpt lat="44.49272" lon="0.70333">
        <ele>114.8</ele>
        <time>2017-01-22T09:04:25.000Z</time>
      </trkpt>
      <trkpt lat="44.4927" lon="0.70322">
        <ele>114.2</ele>
        <time>2017-01-22T09:04:26.000Z</time>
      </trkpt>
      <trkpt lat="44.49267" lon="0.70311">
        <ele>113.5</ele>
        <time>2017-01-22T09:04:27.000Z</time>
      </trkpt>
      <trkpt lat="44.49264" lon="0.703">
        <ele>112.9</ele>
        <time>2017-01-22T09:04:28.000Z</time>
      </trkpt>
      <trkpt lat="44.49262" lon="0.70289">
        <ele>112.3</ele>
        <time>2017-01-22T09:04:29.000Z</time>
      </trkpt>
      <trkpt lat="44.49259" lon="0.70279">
        <ele>111.7</ele>
        <time>2017-01-22T09:04:30.000Z</time>
      </trkpt>
      <trkpt lat="44.49257" lon="0.70269">
        <ele>111.1</ele>
        <time>2017-01-22T09:04:31.000Z</time>
      </trkpt>
      <trkpt lat="44.49254" lon="0.70259">
        <ele>110.6</ele>
        <time>2017-01-22T09:04:32.000Z</time>
      </trkpt>
      <trkpt lat="44.49252" lon="0.70249">
        <ele>110</ele>
        <time>2017-01-22T09:04:33.000Z</time>
      </trkpt>
      <trkpt lat="44.49249" lon="0.70239">
        <ele>109.5</ele>
        <time>2017-01-22T09:04:34.000Z</time>
      </trkpt>
      <trkpt lat="44.49247" lon="0.7023">
        <ele>108.9</ele>
        <time>2017-01-22T09:04:35.000Z</time>
      </trkpt>
      <trkpt lat="44.49244" lon="0.7022">
        <ele>108.4</ele>
        <time>2017-01-22T09:04:36.000Z</time>
      </trkpt>
      <trkpt lat="44.49242" lon="0.70211">
        <ele>107.8</ele>
        <time>2017-01-22T09:04:37.000Z</time>
      </trkpt>
      <trkpt lat="44.4924" lon="0.70201">
        <ele>107.3</ele>
        <time>2017-01-22T09:04:38.000Z</time>
      </trkpt>
      <trkpt lat="44.49238" lon="0.70192">
        <ele>106.8</ele>
        <time>2017-01-22T09:04:39.000Z</time>
      </trkpt>
      <trkpt lat="44.49236" lon="0.70182">
        <ele>106.2</ele>
        <time>2017-01-22T09:04:40.000Z</time>
      </trkpt>
      <trkpt lat="44.49234" lon="0.70172">
        <ele>105.7</ele>
        <time>2017-01-22T09:04:41.000Z</time>
      </trkpt>
      <trkpt lat="44.49233" lon="0.70162">
        <ele>105.2</ele>
        <time>2017-01-22T09:04:42.000Z</time>
      </trkpt>
      <trkpt lat="44.49233" lon="0.70151">
        <ele>104.8</ele>
        <time>2017-01-22T09:04:43.000Z</time>
      </trkpt>
      <trkpt lat="44.49233" lon="0.7014">
        <ele>104.4</ele>
        <time>2017-01-22T09:04:44.000Z</time>
      </trkpt>
      <trkpt lat="44.49232" lon="0.70129">
        <ele>103.9</ele>
        <time>2017-01-22T09:04:45.000Z</time>
      </trkpt>
      <trkpt lat="44.49232" lon="0.70118">
        <ele>103.5</ele>
        <time>2017-01-22T09:04:46.000Z</time>
      </trkpt>
      <trkpt lat="44.49231" lon="0.70107">
        <ele>103</ele>
        <time>2017-01-22T09:04:47.000Z</time>
      </trkpt>
      <trkpt lat="44.49229" lon="0.70096">
        <ele>102.5</ele>
        <time>2017-01-22T09:04:48.000Z</time>
      </trkpt>
      <trkpt lat="44.49227" lon="0.70084">
        <ele>101.9</ele>
        <time>2017-01-22T09:04:49.000Z</time>
      </trkpt>
      <trkpt lat="44.49225" lon="0.70073">
        <ele>101.4</ele>
        <time>2017-01-22T09:04:50.000Z</time>
      </trkpt>
      <trkpt lat="44.49222" lon="0.70062">
        <ele>100.9</ele>
        <time>2017-01-22T09:04:51.000Z</time>
      </trkpt>
      <trkpt lat="44.49219" lon="0.70051">
        <ele>100.4</ele>
        <time>2017-01-22T09:04:52.000Z</time>
      </trkpt>
      <trkpt lat="44.49216" lon="0.70041">
        <ele>99.9</ele>
        <time>2017-01-22T09:04:53.000Z</time>
      </trkpt>
      <trkpt lat="44.49212" lon="0.70032">
        <ele>99.5</ele>
        <time>2017-01-22T09:04:54.000Z</time>
      </trkpt>
      <trkpt lat="44.49208" lon="0.70022">
        <ele>99.2</ele>
        <time>2017-01-22T09:04:55.000Z</time>
      </trkpt>
      <trkpt lat="44.49204" lon="0.70014">
        <ele>98.8</ele>
        <time>2017-01-22T09:04:56.000Z</time>
      </trkpt>
      <trkpt lat="44.49199" lon="0.70005">
        <ele>98.5</ele>
        <time>2017-01-22T09:04:57.000Z</time>
      </trkpt>
      <trkpt lat="44.49195" lon="0.69997">
        <ele>98.2</ele>
        <time>2017-01-22T09:04:58.000Z</time>
      </trkpt>
      <trkpt lat="44.49191" lon="0.69989">
        <ele>97.9</ele>
        <time>2017-01-22T09:04:59.000Z</time>
      </trkpt>
      <trkpt lat="44.49187" lon="0.69982">
        <ele>97.6</ele>
        <time>2017-01-22T09:05:00.000Z</time>
      </trkpt>
      <trkpt lat="44.49182" lon="0.69975">
        <ele>97.3</ele>
        <time>2017-01-22T09:05:01.000Z</time>
      </trkpt>
      <trkpt lat="44.49178" lon="0.69968">
        <ele>97</ele>
        <time>2017-01-22T09:05:02.000Z</time>
      </trkpt>
      <trkpt lat="44.49173" lon="0.69962">
        <ele>96.7</ele>
        <time>2017-01-22T09:05:03.000Z</time>
      </trkpt>
      <trkpt lat="44.49169" lon="0.69956">
        <ele>96.4</ele>
        <time>2017-01-22T09:05:04.000Z</time>
      </trkpt>
      <trkpt lat="44.49164" lon="0.6995">
        <ele>96.1</ele>
        <time>2017-01-22T09:05:05.000Z</time>
      </trkpt>
      <trkpt lat="44.4916" lon="0.69945">
        <ele>95.8</ele>
        <time>2017-01-22T09:05:06.000Z</time>
      </trkpt>
      <trkpt lat="44.49155" lon="0.6994">
        <ele>95.4</ele>
        <time>2017-01-22T09:05:07.000Z</time>
      </trkpt>
      <trkpt lat="44.4915" lon="0.69936">
        <ele>95.1</ele>
        <time>2017-01-22T09:05:08.000Z</time>
      </trkpt>
      <trkpt lat="44.49145" lon="0.69932">
        <ele>94.8</ele>
        <time>2017-01-22T09:05:09.000Z</time>
      </trkpt>
      <trkpt lat="44.4914" lon="0.69927">
        <ele>94.5</ele>
        <time>2017-01-22T09:05:10.000Z</time>
      </trkpt>
      <trkpt lat="44.49135" lon="0.69923">
        <ele>94.1</ele>
        <time>2017-01-22T09:05:11.000Z</time>
      </trkpt>
      <trkpt lat="44.4913" lon="0.69919">
        <ele>93.8</ele>
        <time>2017-01-22T09:05:12.000Z</time>
      </trkpt>
      <trkpt lat="44.49126" lon="0.69914">
        <ele>93.5</ele>
        <time>2017-01-22T09:05:13.000Z</time>
      </trkpt>
      <trkpt lat="44.49122" lon="0.6991">
        <ele>93.3</ele>
        <time>2017-01-22T09:05:14.000Z</time>
      </trkpt>
      <trkpt lat="44.4912" lon="0.69907">
        <ele>93.2</ele>
        <time>2017-01-22T09:05:15.000Z</time>
      </trkpt>
      <trkpt lat="44.49118" lon="0.69905">
        <ele>93.1</ele>
        <time>2017-01-22T09:05:16.000Z</time>
      </trkpt>
      <trkpt lat="44.49118" lon="0.69903">
        <ele>93.1</ele>
        <time>2017-01-22T09:05:17.000Z</time>
      </trkpt>
      <trkpt lat="44.49117" lon="0.69902">
        <ele>93.1</ele>
        <time>2017-01-22T09:05:18.000Z</time>
      </trkpt>
      <trkpt lat="44.49116" lon="0.69902">
        <ele>93</ele>
        <time>2017-01-22T09:05:19.000Z</time>
      </trkpt>
      <trkpt lat="44.49115" lon="0.69902">
        <ele>93</ele>
        <time>2017-01-22T09:05:20.000Z</time>
      </trkpt>
      <trkpt lat="44.49114" lon="0.69904">
        <ele>93</ele>
        <time>2017-01-22T09:05:21.000Z</time>
      </trkpt>
      <trkpt lat="44.49114" lon="0.69906">
        <ele>93</ele>
        <time>2017-01-22T09:05:22.000Z</time>
      </trkpt>
      <trkpt lat="44.49115" lon="0.69906">
        <ele>93.1</ele>
        <time>2017-01-22T09:05:23.000Z</time>
      </trkpt>
      <trkpt lat="44.49117" lon="0.69906">
        <ele>93.1</ele>
        <time>2017-01-22T09:05:24.000Z</time>
      </trkpt>
      <trkpt lat="44.49117" lon="0.69905">
        <ele>93.1</ele>
        <time>2017-01-22T09:05:25.000Z</time>
      </trkpt>
      <trkpt lat="44.49117" lon="0.69904">
        <ele>93.1</ele>
        <time>2017-01-22T09:05:26.000Z</time>
      </trkpt>
      <trkpt lat="44.49116" lon="0.69904">
        <ele>93.1</ele>
        <time>2017-01-22T09:05:27.000Z</time>
      </trkpt>
      <trkpt lat="44.49114" lon="0.69906">
        <ele>93</ele>
        <time>2017-01-22T09:05:28.000Z</time>
      </trkpt>
      <trkpt lat="44.49112" lon="0.69907">
        <ele>93</ele>
        <time>2017-01-22T09:05:29.000Z</time>
      </trkpt>
      <trkpt lat="44.4911" lon="0.69909">
        <ele>92.9</ele>
        <time>2017-01-22T09:05:30.000Z</time>
      </trkpt>
      <trkpt lat="44.49107" lon="0.69909">
        <ele>92.8</ele>
        <time>2017-01-22T09:05:31.000Z</time>
      </trkpt>
      <trkpt lat="44.49103" lon="0.6991">
        <ele>92.7</ele>
        <time>2017-01-22T09:05:32.000Z</time>
      </trkpt>
      <trkpt lat="44.491" lon="0.69911">
        <ele>92.6</ele>
        <time>2017-01-22T09:05:33.000Z</time>
      </trkpt>
      <trkpt lat="44.49096" lon="0.69912">
        <ele>92.4</ele>
        <time>2017-01-22T09:05:34.000Z</time>
      </trkpt>
      <trkpt lat="44.49092" lon="0.69912">
        <ele>92.3</ele>
        <time>2017-01-22T09:05:35.000Z</time>
      </trkpt>
      <trkpt lat="44.49089" lon="0.69913">
        <ele>92.2</ele>
        <time>2017-01-22T09:05:36.000Z</time>
      </trkpt>
      <trkpt lat="44.49085" lon="0.69914">
        <ele>92.1</ele>
        <time>2017-01-22T09:05:37.000Z</time>
      </trkpt>
      <trkpt lat="44.49082" lon="0.69915">
        <ele>92</ele>
        <time>2017-01-22T09:05:38.000Z</time>
      </trkpt>
      <trkpt lat="44.49078" lon="0.69917">
        <ele>92</ele>
        <time>2017-01-22T09:05:39.000Z</time>
      </trkpt>
      <trkpt lat="44.49074" lon="0.69918">
        <ele>92</ele>
        <time>2017-01-22T09:05:40.000Z</time>
      </trkpt>
      <trkpt lat="44.4907" lon="0.69919">
        <ele>92.1</ele>
        <time>2017-01-22T09:05:41.000Z</time>
      </trkpt>
      <trkpt lat="44.49066" lon="0.6992">
        <ele>92.1</ele>
        <time>2017-01-22T09:05:42.000Z</time>
      </trkpt>
      <trkpt lat="44.49061" lon="0.69921">
        <ele>92.2</ele>
        <time>2017-01-22T09:05:43.000Z</time>
      </trkpt>
      <trkpt lat="44.49057" lon="0.69922">
        <ele>92.2</ele>
        <time>2017-01-22T09:05:44.000Z</time>
      </trkpt>
      <trkpt lat="44.49052" lon="0.69923">
        <ele>92.2</ele>
        <time>2017-01-22T09:05:45.000Z</time>
      </trkpt>
      <trkpt lat="44.49048" lon="0.69924">
        <ele>92.3</ele>
        <time>2017-01-22T09:05:46.000Z</time>
      </trkpt>
      <trkpt lat="44.49043" lon="0.69925">
        <ele>92.3</ele>
        <time>2017-01-22T09:05:47.000Z</time>
      </trkpt>
      <trkpt lat="44.49038" lon="0.69927">
        <ele>92.4</ele>
        <time>2017-01-22T09:05:48.000Z</time>
      </trkpt>
      <trkpt lat="44.49033" lon="0.69928">
        <ele>92.4</ele>
        <time>2017-01-22T09:05:49.000Z</time>
      </trkpt>
      <trkpt lat="44.49028" lon="0.6993">
        <ele>92.4</ele>
        <time>2017-01-22T09:05:50.000Z</time>
      </trkpt>
      <trkpt lat="44.49023" lon="0.69932">
        <ele>92.5</ele>
        <time>2017-01-22T09:05:51.000Z</time>
      </trkpt>
      <trkpt lat="44.49018" lon="0.69934">
        <ele>92.5</ele>
        <time>2017-01-22T09:05:52.000Z</time>
      </trkpt>
      <trkpt lat="44.49013" lon="0.69935">
        <ele>92.5</ele>
        <time>2017-01-22T09:05:53.000Z</time>
      </trkpt>
      <trkpt lat="44.49008" lon="0.69937">
        <ele>92.5</ele>
        <time>2017-01-22T09:05:54.000Z</time>
      </trkpt>
      <trkpt lat="44.49004" lon="0.69939">
        <ele>92.5</ele>
        <time>2017-01-22T09:05:55.000Z</time>
      </trkpt>
      <trkpt lat="44.48999" lon="0.6994">
        <ele>92.5</ele>
        <time>2017-01-22T09:05:56.000Z</time>
      </trkpt>
      <trkpt lat="44.48994" lon="0.69942">
        <ele>92.4</ele>
        <time>2017-01-22T09:05:57.000Z</time>
      </trkpt>
      <trkpt lat="44.4899" lon="0.69943">
        <ele>92.3</ele>
        <time>2017-01-22T09:05:58.000Z</time>
      </trkpt>
      <trkpt lat="44.48985" lon="0.69945">
        <ele>92.2</ele>
        <time>2017-01-22T09:05:59.000Z</time>
      </trkpt>
      <trkpt lat="44.48981" lon="0.69946">
        <ele>92.1</ele>
        <time>2017-01-22T09:06:00.000Z</time>
      </trkpt>
      <trkpt lat="44.48976" lon="0.69948">
        <ele>92</ele>
        <time>2017-01-22T09:06:01.000Z</time>
      </trkpt>
      <trkpt lat="44.48972" lon="0.69949">
        <ele>91.9</ele>
        <time>2017-01-22T09:06:02.000Z</time>
      </trkpt>
      <trkpt lat="44.48968" lon="0.6995">
        <ele>91.8</ele>
        <time>2017-01-22T09:06:03.000Z</time>
      </trkpt>
      <trkpt lat="44.48963" lon="0.69952">
        <ele>91.7</ele>
        <time>2017-01-22T09:06:04.000Z</time>
      </trkpt>
      <trkpt lat="44.48959" lon="0.69953">
        <ele>91.6</ele>
        <time>2017-01-22T09:06:05.000Z</time>
      </trkpt>
      <trkpt lat="44.48954" lon="0.69954">
        <ele>91.5</ele>
        <time>2017-01-22T09:06:06.000Z</time>
      </trkpt>
      <trkpt lat="44.4895" lon="0.69955">
        <ele>91.4</ele>
        <time>2017-01-22T09:06:07.000Z</time>
      </trkpt>
      <trkpt lat="44.48946" lon="0.69956">
        <ele>91.3</ele>
        <time>2017-01-22T09:06:08.000Z</time>
      </trkpt>
      <trkpt lat="44.48942" lon="0.69957">
        <ele>91.2</ele>
        <time>2017-01-22T09:06:09.000Z</time>
      </trkpt>
      <trkpt lat="44.48937" lon="0.69958">
        <ele>91.1</ele>
        <time>2017-01-22T09:06:10.000Z</time>
      </trkpt>
      <trkpt lat="44.48933" lon="0.69959">
        <ele>91</ele>
        <time>2017-01-22T09:06:11.000Z</time>
      </trkpt>
      <trkpt lat="44.48929" lon="0.6996">
        <ele>90.9</ele>
        <time>2017-01-22T09:06:12.000Z</time>
      </trkpt>
      <trkpt lat="44.48925" lon="0.69961">
        <ele>90.8</ele>
        <time>2017-01-22T09:06:13.000Z</time>
      </trkpt>
      <trkpt lat="44.4892" lon="0.69961">
        <ele>90.7</ele>
        <time>2017-01-22T09:06:14.000Z</time>
      </trkpt>
      <trkpt lat="44.48916" lon="0.69962">
        <ele>90.6</ele>
        <time>2017-01-22T09:06:15.000Z</time>
      </trkpt>
      <trkpt lat="44.48911" lon="0.69963">
        <ele>90.6</ele>
        <time>2017-01-22T09:06:16.000Z</time>
      </trkpt>
      <trkpt lat="44.48906" lon="0.69964">
        <ele>90.5</ele>
        <time>2017-01-22T09:06:17.000Z</time>
      </trkpt>
      <trkpt lat="44.48902" lon="0.69965">
        <ele>90.5</ele>
        <time>2017-01-22T09:06:18.000Z</time>
      </trkpt>
      <trkpt lat="44.48897" lon="0.69966">
        <ele>90.4</ele>
        <time>2017-01-22T09:06:19.000Z</time>
      </trkpt>
      <trkpt lat="44.48893" lon="0.69967">
        <ele>90.4</ele>
        <time>2017-01-22T09:06:20.000Z</time>
      </trkpt>
      <trkpt lat="44.48889" lon="0.69968">
        <ele>90.3</ele>
        <time>2017-01-22T09:06:21.000Z</time>
      </trkpt>
      <trkpt lat="44.48885" lon="0.69969">
        <ele>90.2</ele>
        <time>2017-01-22T09:06:22.000Z</time>
      </trkpt>
      <trkpt lat="44.4888" lon="0.6997">
        <ele>90.2</ele>
        <time>2017-01-22T09:06:23.000Z</time>
      </trkpt>
      <trkpt lat="44.48876" lon="0.6997">
        <ele>90.1</ele>
        <time>2017-01-22T09:06:24.000Z</time>
      </trkpt>
      <trkpt lat="44.48871" lon="0.69971">
        <ele>90.1</ele>
        <time>2017-01-22T09:06:25.000Z</time>
      </trkpt>
      <trkpt lat="44.48867" lon="0.69972">
        <ele>90</ele>
        <time>2017-01-22T09:06:26.000Z</time>
      </trkpt>
      <trkpt lat="44.48862" lon="0.69974">
        <ele>89.9</ele>
        <time>2017-01-22T09:06:27.000Z</time>
      </trkpt>
      <trkpt lat="44.48857" lon="0.69975">
        <ele>89.9</ele>
        <time>2017-01-22T09:06:28.000Z</time>
      </trkpt>
      <trkpt lat="44.48853" lon="0.69976">
        <ele>89.8</ele>
        <time>2017-01-22T09:06:29.000Z</time>
      </trkpt>
      <trkpt lat="44.48848" lon="0.69978">
        <ele>89.8</ele>
        <time>2017-01-22T09:06:30.000Z</time>
      </trkpt>
      <trkpt lat="44.48843" lon="0.69979">
        <ele>89.7</ele>
        <time>2017-01-22T09:06:31.000Z</time>
      </trkpt>
      <trkpt lat="44.48838" lon="0.69981">
        <ele>89.6</ele>
        <time>2017-01-22T09:06:32.000Z</time>
      </trkpt>
      <trkpt lat="44.48834" lon="0.69983">
        <ele>89.6</ele>
        <time>2017-01-22T09:06:33.000Z</time>
      </trkpt>
      <trkpt lat="44.48829" lon="0.69984">
        <ele>89.6</ele>
        <time>2017-01-22T09:06:34.000Z</time>
      </trkpt>
      <trkpt lat="44.48824" lon="0.69986">
        <ele>89.7</ele>
        <time>2017-01-22T09:06:35.000Z</time>
      </trkpt>
      <trkpt lat="44.4882" lon="0.69988">
        <ele>89.7</ele>
        <time>2017-01-22T09:06:36.000Z</time>
      </trkpt>
      <trkpt lat="44.48815" lon="0.6999">
        <ele>89.8</ele>
        <time>2017-01-22T09:06:37.000Z</time>
      </trkpt>
      <trkpt lat="44.48811" lon="0.69992">
        <ele>89.8</ele>
        <time>2017-01-22T09:06:38.000Z</time>
      </trkpt>
      <trkpt lat="44.48807" lon="0.69994">
        <ele>89.9</ele>
        <time>2017-01-22T09:06:39.000Z</time>
      </trkpt>
      <trkpt lat="44.48803" lon="0.69996">
        <ele>89.9</ele>
        <time>2017-01-22T09:06:40.000Z</time>
      </trkpt>
      <trkpt lat="44.48799" lon="0.69998">
        <ele>89.9</ele>
        <time>2017-01-22T09:06:41.000Z</time>
      </trkpt>
      <trkpt lat="44.48795" lon="0.7">
        <ele>90</ele>
        <time>2017-01-22T09:06:42.000Z</time>
      </trkpt>
      <trkpt lat="44.48791" lon="0.70002">
        <ele>90.1</ele>
        <time>2017-01-22T09:06:43.000Z</time>
      </trkpt>
      <trkpt lat="44.48787" lon="0.70004">
        <ele>90.1</ele>
        <time>2017-01-22T09:06:44.000Z</time>
      </trkpt>
      <trkpt lat="44.48784" lon="0.70006">
        <ele>90.2</ele>
        <time>2017-01-22T09:06:45.000Z</time>
      </trkpt>
      <trkpt lat="44.4878" lon="0.70007">
        <ele>90.3</ele>
        <time>2017-01-22T09:06:46.000Z</time>
      </trkpt>
      <trkpt lat="44.48777" lon="0.70009">
        <ele>90.3</ele>
        <time>2017-01-22T09:06:47.000Z</time>
      </trkpt>
      <trkpt lat="44.48773" lon="0.70011">
        <ele>90.4</ele>
        <time>2017-01-22T09:06:48.000Z</time>
      </trkpt>
      <trkpt lat="44.4877" lon="0.70014">
        <ele>90.4</ele>
        <time>2017-01-22T09:06:49.000Z</time>
      </trkpt>
      <trkpt lat="44.48766" lon="0.70016">
        <ele>90.5</ele>
        <time>2017-01-22T09:06:50.000Z</time>
      </trkpt>
      <trkpt lat="44.48763" lon="0.70019">
        <ele>90.5</ele>
        <time>2017-01-22T09:06:51.000Z</time>
      </trkpt>
      <trkpt lat="44.48759" lon="0.70021">
        <ele>90.6</ele>
        <time>2017-01-22T09:06:52.000Z</time>
      </trkpt>
      <trkpt lat="44.48755" lon="0.70024">
        <ele>90.6</ele>
        <time>2017-01-22T09:06:53.000Z</time>
      </trkpt>
      <trkpt lat="44.48752" lon="0.70026">
        <ele>90.6</ele>
        <time>2017-01-22T09:06:54.000Z</time>
      </trkpt>
      <trkpt lat="44.48749" lon="0.70027">
        <ele>90.6</ele>
        <time>2017-01-22T09:06:55.000Z</time>
      </trkpt>
      <trkpt lat="44.48745" lon="0.70027">
        <ele>90.5</ele>
        <time>2017-01-22T09:06:56.000Z</time>
      </trkpt>
      <trkpt lat="44.48742" lon="0.70025">
        <ele>90.4</ele>
        <time>2017-01-22T09:06:57.000Z</time>
      </trkpt>
      <trkpt lat="44.4874" lon="0.7002">
        <ele>90.2</ele>
        <time>2017-01-22T09:06:58.000Z</time>
      </trkpt>
      <trkpt lat="44.4874" lon="0.70014">
        <ele>90.1</ele>
        <time>2017-01-22T09:06:59.000Z</time>
      </trkpt>
      <trkpt lat="44.48742" lon="0.70008">
        <ele>90</ele>
        <time>2017-01-22T09:07:00.000Z</time>
      </trkpt>
      <trkpt lat="44.48744" lon="0.70001">
        <ele>89.9</ele>
        <time>2017-01-22T09:07:01.000Z</time>
      </trkpt>
      <trkpt lat="44.48746" lon="0.69994">
        <ele>89.8</ele>
        <time>2017-01-22T09:07:02.000Z</time>
      </trkpt>
      <trkpt lat="44.48747" lon="0.69988">
        <ele>89.7</ele>
        <time>2017-01-22T09:07:03.000Z</time>
      </trkpt>
      <trkpt lat="44.48749" lon="0.69981">
        <ele>89.5</ele>
        <time>2017-01-22T09:07:04.000Z</time>
      </trkpt>
      <trkpt lat="44.48751" lon="0.69975">
        <ele>89.4</ele>
        <time>2017-01-22T09:07:05.000Z</time>
      </trkpt>
      <trkpt lat="44.48753" lon="0.69968">
        <ele>89.2</ele>
        <time>2017-01-22T09:07:06.000Z</time>
      </trkpt>
      <trkpt lat="44.48755" lon="0.69962">
        <ele>89.1</ele>
        <time>2017-01-22T09:07:07.000Z</time>
      </trkpt>
      <trkpt lat="44.48757" lon="0.69956">
        <ele>88.9</ele>
        <time>2017-01-22T09:07:08.000Z</time>
      </trkpt>
      <trkpt lat="44.48759" lon="0.69949">
        <ele>88.8</ele>
        <time>2017-01-22T09:07:09.000Z</time>
      </trkpt>
      <trkpt lat="44.48761" lon="0.69943">
        <ele>88.6</ele>
        <time>2017-01-22T09:07:10.000Z</time>
      </trkpt>
      <trkpt lat="44.48763" lon="0.69937">
        <ele>88.5</ele>
        <time>2017-01-22T09:07:11.000Z</time>
      </trkpt>
      <trkpt lat="44.48765" lon="0.69931">
        <ele>88.4</ele>
        <time>2017-01-22T09:07:12.000Z</time>
      </trkpt>
      <trkpt lat="44.48767" lon="0.69925">
        <ele>88.2</ele>
        <time>2017-01-22T09:07:13.000Z</time>
      </trkpt>
      <trkpt lat="44.48769" lon="0.6992">
        <ele>88.1</ele>
        <time>2017-01-22T09:07:14.000Z</time>
      </trkpt>
      <trkpt lat="44.4877" lon="0.69914">
        <ele>88.1</ele>
        <time>2017-01-22T09:07:15.000Z</time>
      </trkpt>
      <trkpt lat="44.48772" lon="0.69908">
        <ele>88.3</ele>
        <time>2017-01-22T09:07:16.000Z</time>
      </trkpt>
      <trkpt lat="44.48774" lon="0.69902">
        <ele>88.5</ele>
        <time>2017-01-22T09:07:17.000Z</time>
      </trkpt>
      <trkpt lat="44.48775" lon="0.69897">
        <ele>88.7</ele>
        <time>2017-01-22T09:07:18.000Z</time>
      </trkpt>
      <trkpt lat="44.48777" lon="0.69891">
        <ele>88.9</ele>
        <time>2017-01-22T09:07:19.000Z</time>
      </trkpt>
      <trkpt lat="44.48779" lon="0.69886">
        <ele>89.1</ele>
        <time>2017-01-22T09:07:20.000Z</time>
      </trkpt>
      <trkpt lat="44.4878" lon="0.6988">
        <ele>89.3</ele>
        <time>2017-01-22T09:07:21.000Z</time>
      </trkpt>
      <trkpt lat="44.48782" lon="0.69875">
        <ele>89.6</ele>
        <time>2017-01-22T09:07:22.000Z</time>
      </trkpt>
      <trkpt lat="44.48784" lon="0.6987">
        <ele>89.8</ele>
        <time>2017-01-22T09:07:23.000Z</time>
      </trkpt>
      <trkpt lat="44.48785" lon="0.69865">
        <ele>90</ele>
        <time>2017-01-22T09:07:24.000Z</time>
      </trkpt>
      <trkpt lat="44.48787" lon="0.6986">
        <ele>90.3</ele>
        <time>2017-01-22T09:07:25.000Z</time>
      </trkpt>
      <trkpt lat="44.48788" lon="0.69855">
        <ele>90.5</ele>
        <time>2017-01-22T09:07:26.000Z</time>
      </trkpt>
      <trkpt lat="44.4879" lon="0.6985">
        <ele>90.7</ele>
        <time>2017-01-22T09:07:27.000Z</time>
      </trkpt>
      <trkpt lat="44.48791" lon="0.69845">
        <ele>91</ele>
        <time>2017-01-22T09:07:28.000Z</time>
      </trkpt>
      <trkpt lat="44.48792" lon="0.6984">
        <ele>91.2</ele>
        <time>2017-01-22T09:07:29.000Z</time>
      </trkpt>
      <trkpt lat="44.48794" lon="0.69836">
        <ele>91.5</ele>
        <time>2017-01-22T09:07:30.000Z</time>
      </trkpt>
      <trkpt lat="44.48795" lon="0.69831">
        <ele>91.7</ele>
        <time>2017-01-22T09:07:31.000Z</time>
      </trkpt>
      <trkpt lat="44.48796" lon="0.69827">
        <ele>91.9</ele>
        <time>2017-01-22T09:07:32.000Z</time>
      </trkpt>
      <trkpt lat="44.48797" lon="0.69822">
        <ele>92</ele>
        <time>2017-01-22T09:07:33.000Z</time>
      </trkpt>
      <trkpt lat="44.48798" lon="0.69818">
        <ele>92.2</ele>
        <time>2017-01-22T09:07:34.000Z</time>
      </trkpt>
      <trkpt lat="44.48799" lon="0.69814">
        <ele>92.4</ele>
        <time>2017-01-22T09:07:35.000Z</time>
      </trkpt>
      <trkpt lat="44.488" lon="0.69809">
        <ele>92.6</ele>
        <time>2017-01-22T09:07:36.000Z</time>
      </trkpt>
      <trkpt lat="44.48801" lon="0.69805">
        <ele>92.8</ele>
        <time>2017-01-22T09:07:37.000Z</time>
      </trkpt>
      <trkpt lat="44.48803" lon="0.69801">
        <ele>93</ele>
        <time>2017-01-22T09:07:38.000Z</time>
      </trkpt>
      <trkpt lat="44.48804" lon="0.69796">
        <ele>93.2</ele>
        <time>2017-01-22T09:07:39.000Z</time>
      </trkpt>
      <trkpt lat="44.48805" lon="0.69792">
        <ele>93.4</ele>
        <time>2017-01-22T09:07:40.000Z</time>
      </trkpt>
      <trkpt lat="44.48806" lon="0.69787">
        <ele>93.7</ele>
        <time>2017-01-22T09:07:41.000Z</time>
      </trkpt>
      <trkpt lat="44.48807" lon="0.69783">
        <ele>93.9</ele>
        <time>2017-01-22T09:07:42.000Z</time>
      </trkpt>
      <trkpt lat="44.48808" lon="0.69778">
        <ele>94.1</ele>
        <time>2017-01-22T09:07:43.000Z</time>
      </trkpt>
      <trkpt lat="44.48809" lon="0.69774">
        <ele>94.4</ele>
        <time>2017-01-22T09:07:44.000Z</time>
      </trkpt>
      <trkpt lat="44.4881" lon="0.69769">
        <ele>94.6</ele>
        <time>2017-01-22T09:07:45.000Z</time>
      </trkpt>
      <trkpt lat="44.48811" lon="0.69765">
        <ele>94.8</ele>
        <time>2017-01-22T09:07:46.000Z</time>
      </trkpt>
      <trkpt lat="44.48812" lon="0.6976">
        <ele>95.1</ele>
        <time>2017-01-22T09:07:47.000Z</time>
      </trkpt>
      <trkpt lat="44.48814" lon="0.69756">
        <ele>95.4</ele>
        <time>2017-01-22T09:07:48.000Z</time>
      </trkpt>
      <trkpt lat="44.48815" lon="0.69751">
        <ele>95.6</ele>
        <time>2017-01-22T09:07:49.000Z</time>
      </trkpt>
      <trkpt lat="44.48816" lon="0.69747">
        <ele>95.8</ele>
        <time>2017-01-22T09:07:50.000Z</time>
      </trkpt>
      <trkpt lat="44.48817" lon="0.69743">
        <ele>95.9</ele>
        <time>2017-01-22T09:07:51.000Z</time>
      </trkpt>
      <trkpt lat="44.48818" lon="0.69738">
        <ele>96</ele>
        <time>2017-01-22T09:07:52.000Z</time>
      </trkpt>
      <trkpt lat="44.48819" lon="0.69734">
        <ele>96.2</ele>
        <time>2017-01-22T09:07:53.000Z</time>
      </trkpt>
      <trkpt lat="44.4882" lon="0.6973">
        <ele>96.3</ele>
        <time>2017-01-22T09:07:54.000Z</time>
      </trkpt>
      <trkpt lat="44.48821" lon="0.69726">
        <ele>96.4</ele>
        <time>2017-01-22T09:07:55.000Z</time>
      </trkpt>
      <trkpt lat="44.48822" lon="0.69722">
        <ele>96.5</ele>
        <time>2017-01-22T09:07:56.000Z</time>
      </trkpt>
      <trkpt lat="44.48823" lon="0.69718">
        <ele>96.6</ele>
        <time>2017-01-22T09:07:57.000Z</time>
      </trkpt>
      <trkpt lat="44.48824" lon="0.69714">
        <ele>96.7</ele>
        <time>2017-01-22T09:07:58.000Z</time>
      </trkpt>
      <trkpt lat="44.48825" lon="0.6971">
        <ele>96.9</ele>
        <time>2017-01-22T09:07:59.000Z</time>
      </trkpt>
      <trkpt lat="44.48826" lon="0.69706">
        <ele>97</ele>
        <time>2017-01-22T09:08:00.000Z</time>
      </trkpt>
      <trkpt lat="44.48827" lon="0.69702">
        <ele>97.1</ele>
        <time>2017-01-22T09:08:01.000Z</time>
      </trkpt>
      <trkpt lat="44.48828" lon="0.69698">
        <ele>97.2</ele>
        <time>2017-01-22T09:08:02.000Z</time>
      </trkpt>
      <trkpt lat="44.48829" lon="0.69694">
        <ele>97.4</ele>
        <time>2017-01-22T09:08:03.000Z</time>
      </trkpt>
      <trkpt lat="44.4883" lon="0.6969">
        <ele>97.5</ele>
        <time>2017-01-22T09:08:04.000Z</time>
      </trkpt>
      <trkpt lat="44.48831" lon="0.69686">
        <ele>97.6</ele>
        <time>2017-01-22T09:08:05.000Z</time>
      </trkpt>
      <trkpt lat="44.48832" lon="0.69682">
        <ele>97.7</ele>
        <time>2017-01-22T09:08:06.000Z</time>
      </trkpt>
      <trkpt lat="44.48834" lon="0.69679">
        <ele>97.9</ele>
        <time>2017-01-22T09:08:07.000Z</time>
      </trkpt>
      <trkpt lat="44.48834" lon="0.69675">
        <ele>97.9</ele>
        <time>2017-01-22T09:08:08.000Z</time>
      </trkpt>
      <trkpt lat="44.48835" lon="0.69672">
        <ele>98</ele>
        <time>2017-01-22T09:08:09.000Z</time>
      </trkpt>
      <trkpt lat="44.48836" lon="0.69669">
        <ele>98.1</ele>
        <time>2017-01-22T09:08:10.000Z</time>
      </trkpt>
      <trkpt lat="44.48837" lon="0.69666">
        <ele>98.2</ele>
        <time>2017-01-22T09:08:11.000Z</time>
      </trkpt>
      <trkpt lat="44.48838" lon="0.69662">
        <ele>98.3</ele>
        <time>2017-01-22T09:08:12.000Z</time>
      </trkpt>
      <trkpt lat="44.48839" lon="0.69659">
        <ele>98.5</ele>
        <time>2017-01-22T09:08:13.000Z</time>
      </trkpt>
      <trkpt lat="44.4884" lon="0.69655">
        <ele>98.7</ele>
        <time>2017-01-22T09:08:14.000Z</time>
      </trkpt>
      <trkpt lat="44.48841" lon="0.69652">
        <ele>98.8</ele>
        <time>2017-01-22T09:08:15.000Z</time>
      </trkpt>
      <trkpt lat="44.48842" lon="0.69648">
        <ele>99</ele>
        <time>2017-01-22T09:08:16.000Z</time>
      </trkpt>
      <trkpt lat="44.48844" lon="0.69644">
        <ele>99.2</ele>
        <time>2017-01-22T09:08:17.000Z</time>
      </trkpt>
      <trkpt lat="44.48845" lon="0.6964">
        <ele>99.4</ele>
        <time>2017-01-22T09:08:18.000Z</time>
      </trkpt>
      <trkpt lat="44.48846" lon="0.69636">
        <ele>99.6</ele>
        <time>2017-01-22T09:08:19.000Z</time>
      </trkpt>
      <trkpt lat="44.48847" lon="0.69632">
        <ele>99.8</ele>
        <time>2017-01-22T09:08:20.000Z</time>
      </trkpt>
      <trkpt lat="44.48848" lon="0.69628">
        <ele>100</ele>
        <time>2017-01-22T09:08:21.000Z</time>
      </trkpt>
      <trkpt lat="44.48849" lon="0.69624">
        <ele>100.2</ele>
        <time>2017-01-22T09:08:22.000Z</time>
      </trkpt>
      <trkpt lat="44.4885" lon="0.6962">
        <ele>100.4</ele>
        <time>2017-01-22T09:08:23.000Z</time>
      </trkpt>
      <trkpt lat="44.48851" lon="0.69617">
        <ele>100.6</ele>
        <time>2017-01-22T09:08:24.000Z</time>
      </trkpt>
      <trkpt lat="44.48853" lon="0.69613">
        <ele>100.8</ele>
        <time>2017-01-22T09:08:25.000Z</time>
      </trkpt>
      <trkpt lat="44.48854" lon="0.6961">
        <ele>100.9</ele>
        <time>2017-01-22T09:08:26.000Z</time>
      </trkpt>
      <trkpt lat="44.48855" lon="0.69606">
        <ele>101.1</ele>
        <time>2017-01-22T09:08:27.000Z</time>
      </trkpt>
      <trkpt lat="44.48856" lon="0.69603">
        <ele>101.3</ele>
        <time>2017-01-22T09:08:28.000Z</time>
      </trkpt>
      <trkpt lat="44.48857" lon="0.696">
        <ele>101.5</ele>
        <time>2017-01-22T09:08:29.000Z</time>
      </trkpt>
      <trkpt lat="44.48858" lon="0.69597">
        <ele>101.7</ele>
        <time>2017-01-22T09:08:30.000Z</time>
      </trkpt>
      <trkpt lat="44.48859" lon="0.69594">
        <ele>101.8</ele>
        <time>2017-01-22T09:08:31.000Z</time>
      </trkpt>
      <trkpt lat="44.48861" lon="0.6959">
        <ele>102</ele>
        <time>2017-01-22T09:08:32.000Z</time>
      </trkpt>
      <trkpt lat="44.48862" lon="0.69587">
        <ele>102.2</ele>
        <time>2017-01-22T09:08:33.000Z</time>
      </trkpt>
      <trkpt lat="44.48863" lon="0.69584">
        <ele>102.4</ele>
        <time>2017-01-22T09:08:34.000Z</time>
      </trkpt>
      <trkpt lat="44.48864" lon="0.69581">
        <ele>102.5</ele>
        <time>2017-01-22T09:08:35.000Z</time>
      </trkpt>
      <trkpt lat="44.48865" lon="0.69578">
        <ele>102.6</ele>
        <time>2017-01-22T09:08:36.000Z</time>
      </trkpt>
      <trkpt lat="44.48866" lon="0.69575">
        <ele>102.7</ele>
        <time>2017-01-22T09:08:37.000Z</time>
      </trkpt>
      <trkpt lat="44.48867" lon="0.69572">
        <ele>102.8</ele>
        <time>2017-01-22T09:08:38.000Z</time>
      </trkpt>
      <trkpt lat="44.48868" lon="0.69569">
        <ele>102.9</ele>
        <time>2017-01-22T09:08:39.000Z</time>
      </trkpt>
      <trkpt lat="44.48869" lon="0.69567">
        <ele>103</ele>
        <time>2017-01-22T09:08:40.000Z</time>
      </trkpt>
      <trkpt lat="44.48871" lon="0.69564">
        <ele>103.1</ele>
        <time>2017-01-22T09:08:41.000Z</time>
      </trkpt>
      <trkpt lat="44.48872" lon="0.69561">
        <ele>103.2</ele>
        <time>2017-01-22T09:08:42.000Z</time>
      </trkpt>
      <trkpt lat="44.48873" lon="0.69559">
        <ele>103.3</ele>
        <time>2017-01-22T09:08:43.000Z</time>
      </trkpt>
      <trkpt lat="44.48874" lon="0.69556">
        <ele>103.4</ele>
        <time>2017-01-22T09:08:44.000Z</time>
      </trkpt>
      <trkpt lat="44.48876" lon="0.69554">
        <ele>103.6</ele>
        <time>2017-01-22T09:08:45.000Z</time>
      </trkpt>
      <trkpt lat="44.48877" lon="0.69552">
        <ele>103.7</ele>
        <time>2017-01-22T09:08:46.000Z</time>
      </trkpt>
      <trkpt lat="44.48879" lon="0.69549">
        <ele>103.9</ele>
        <time>2017-01-22T09:08:47.000Z</time>
      </trkpt>
      <trkpt lat="44.4888" lon="0.69547">
        <ele>104</ele>
        <time>2017-01-22T09:08:48.000Z</time>
      </trkpt>
      <trkpt lat="44.48881" lon="0.69545">
        <ele>104.2</ele>
        <time>2017-01-22T09:08:49.000Z</time>
      </trkpt>
      <trkpt lat="44.48883" lon="0.69543">
        <ele>104.3</ele>
        <time>2017-01-22T09:08:50.000Z</time>
      </trkpt>
      <trkpt lat="44.48885" lon="0.69541">
        <ele>104.5</ele>
        <time>2017-01-22T09:08:51.000Z</time>
      </trkpt>
      <trkpt lat="44.48886" lon="0.69539">
        <ele>104.7</ele>
        <time>2017-01-22T09:08:52.000Z</time>
      </trkpt>
      <trkpt lat="44.48888" lon="0.69538">
        <ele>104.9</ele>
        <time>2017-01-22T09:08:53.000Z</time>
      </trkpt>
      <trkpt lat="44.4889" lon="0.69536">
        <ele>105.1</ele>
        <time>2017-01-22T09:08:54.000Z</time>
      </trkpt>
      <trkpt lat="44.48891" lon="0.69534">
        <ele>105.2</ele>
        <time>2017-01-22T09:08:55.000Z</time>
      </trkpt>
      <trkpt lat="44.48893" lon="0.69532">
        <ele>105.4</ele>
        <time>2017-01-22T09:08:56.000Z</time>
      </trkpt>
      <trkpt lat="44.48895" lon="0.6953">
        <ele>105.6</ele>
        <time>2017-01-22T09:08:57.000Z</time>
      </trkpt>
      <trkpt lat="44.48896" lon="0.69528">
        <ele>105.9</ele>
        <time>2017-01-22T09:08:58.000Z</time>
      </trkpt>
      <trkpt lat="44.48898" lon="0.69526">
        <ele>106.1</ele>
        <time>2017-01-22T09:08:59.000Z</time>
      </trkpt>
      <trkpt lat="44.489" lon="0.69524">
        <ele>106.3</ele>
        <time>2017-01-22T09:09:00.000Z</time>
      </trkpt>
      <trkpt lat="44.48901" lon="0.69522">
        <ele>106.5</ele>
        <time>2017-01-22T09:09:01.000Z</time>
      </trkpt>
      <trkpt lat="44.48903" lon="0.6952">
        <ele>106.7</ele>
        <time>2017-01-22T09:09:02.000Z</time>
      </trkpt>
      <trkpt lat="44.48904" lon="0.69518">
        <ele>107</ele>
        <time>2017-01-22T09:09:03.000Z</time>
      </trkpt>
      <trkpt lat="44.48906" lon="0.69516">
        <ele>107.2</ele>
        <time>2017-01-22T09:09:04.000Z</time>
      </trkpt>
      <trkpt lat="44.48907" lon="0.69513">
        <ele>107.4</ele>
        <time>2017-01-22T09:09:05.000Z</time>
      </trkpt>
      <trkpt lat="44.48909" lon="0.69511">
        <ele>107.7</ele>
        <time>2017-01-22T09:09:06.000Z</time>
      </trkpt>
      <trkpt lat="44.4891" lon="0.69509">
        <ele>107.9</ele>
        <time>2017-01-22T09:09:07.000Z</time>
      </trkpt>
      <trkpt lat="44.48912" lon="0.69506">
        <ele>108.2</ele>
        <time>2017-01-22T09:09:08.000Z</time>
      </trkpt>
      <trkpt lat="44.48913" lon="0.69504">
        <ele>108.4</ele>
        <time>2017-01-22T09:09:09.000Z</time>
      </trkpt>
      <trkpt lat="44.48914" lon="0.69501">
        <ele>108.7</ele>
        <time>2017-01-22T09:09:10.000Z</time>
      </trkpt>
      <trkpt lat="44.48916" lon="0.69499">
        <ele>108.8</ele>
        <time>2017-01-22T09:09:11.000Z</time>
      </trkpt>
      <trkpt lat="44.48917" lon="0.69496">
        <ele>108.9</ele>
        <time>2017-01-22T09:09:12.000Z</time>
      </trkpt>
      <trkpt lat="44.48918" lon="0.69493">
        <ele>108.9</ele>
        <time>2017-01-22T09:09:13.000Z</time>
      </trkpt>
      <trkpt lat="44.48919" lon="0.6949">
        <ele>108.8</ele>
        <time>2017-01-22T09:09:14.000Z</time>
      </trkpt>
      <trkpt lat="44.4892" lon="0.69488">
        <ele>108.8</ele>
        <time>2017-01-22T09:09:15.000Z</time>
      </trkpt>
      <trkpt lat="44.48921" lon="0.69485">
        <ele>108.8</ele>
        <time>2017-01-22T09:09:16.000Z</time>
      </trkpt>
      <trkpt lat="44.48922" lon="0.69482">
        <ele>108.8</ele>
        <time>2017-01-22T09:09:17.000Z</time>
      </trkpt>
      <trkpt lat="44.48923" lon="0.6948">
        <ele>108.8</ele>
        <time>2017-01-22T09:09:18.000Z</time>
      </trkpt>
      <trkpt lat="44.48924" lon="0.69477">
        <ele>108.7</ele>
        <time>2017-01-22T09:09:19.000Z</time>
      </trkpt>
      <trkpt lat="44.48925" lon="0.69474">
        <ele>108.7</ele>
        <time>2017-01-22T09:09:20.000Z</time>
      </trkpt>
      <trkpt lat="44.48926" lon="0.69471">
        <ele>108.7</ele>
        <time>2017-01-22T09:09:21.000Z</time>
      </trkpt>
      <trkpt lat="44.48928" lon="0.69469">
        <ele>108.8</ele>
        <time>2017-01-22T09:09:22.000Z</time>
      </trkpt>
      <trkpt lat="44.48929" lon="0.69466">
        <ele>108.8</ele>
        <time>2017-01-22T09:09:23.000Z</time>
      </trkpt>
      <trkpt lat="44.4893" lon="0.69463">
        <ele>108.8</ele>
        <time>2017-01-22T09:09:24.000Z</time>
      </trkpt>
      <trkpt lat="44.48931" lon="0.6946">
        <ele>108.8</ele>
        <time>2017-01-22T09:09:25.000Z</time>
      </trkpt>
      <trkpt lat="44.48932" lon="0.69457">
        <ele>108.8</ele>
        <time>2017-01-22T09:09:26.000Z</time>
      </trkpt>
      <trkpt lat="44.48933" lon="0.69454">
        <ele>108.8</ele>
        <time>2017-01-22T09:09:27.000Z</time>
      </trkpt>
      <trkpt lat="44.48935" lon="0.69451">
        <ele>108.9</ele>
        <time>2017-01-22T09:09:28.000Z</time>
      </trkpt>
      <trkpt lat="44.48936" lon="0.69448">
        <ele>108.9</ele>
        <time>2017-01-22T09:09:29.000Z</time>
      </trkpt>
      <trkpt lat="44.48937" lon="0.69445">
        <ele>109</ele>
        <time>2017-01-22T09:09:30.000Z</time>
      </trkpt>
      <trkpt lat="44.48939" lon="0.69441">
        <ele>109</ele>
        <time>2017-01-22T09:09:31.000Z</time>
      </trkpt>
      <trkpt lat="44.4894" lon="0.69438">
        <ele>109.1</ele>
        <time>2017-01-22T09:09:32.000Z</time>
      </trkpt>
      <trkpt lat="44.48941" lon="0.69434">
        <ele>109.2</ele>
        <time>2017-01-22T09:09:33.000Z</time>
      </trkpt>
      <trkpt lat="44.48943" lon="0.6943">
        <ele>109.3</ele>
        <time>2017-01-22T09:09:34.000Z</time>
      </trkpt>
      <trkpt lat="44.48944" lon="0.69427">
        <ele>109.3</ele>
        <time>2017-01-22T09:09:35.000Z</time>
      </trkpt>
      <trkpt lat="44.48945" lon="0.69424">
        <ele>109.4</ele>
        <time>2017-01-22T09:09:36.000Z</time>
      </trkpt>
      <trkpt lat="44.48947" lon="0.6942">
        <ele>109.5</ele>
        <time>2017-01-22T09:09:37.000Z</time>
      </trkpt>
      <trkpt lat="44.48948" lon="0.69417">
        <ele>109.6</ele>
        <time>2017-01-22T09:09:38.000Z</time>
      </trkpt>
      <trkpt lat="44.48949" lon="0.69414">
        <ele>109.7</ele>
        <time>2017-01-22T09:09:39.000Z</time>
      </trkpt>
      <trkpt lat="44.4895" lon="0.69411">
        <ele>109.7</ele>
        <time>2017-01-22T09:09:40.000Z</time>
      </trkpt>
      <trkpt lat="44.48951" lon="0.69408">
        <ele>109.8</ele>
        <time>2017-01-22T09:09:41.000Z</time>
      </trkpt>
      <trkpt lat="44.48952" lon="0.69405">
        <ele>109.9</ele>
        <time>2017-01-22T09:09:42.000Z</time>
      </trkpt>
      <trkpt lat="44.48954" lon="0.69403">
        <ele>110</ele>
        <time>2017-01-22T09:09:43.000Z</time>
      </trkpt>
      <trkpt lat="44.48955" lon="0.694">
        <ele>110</ele>
        <time>2017-01-22T09:09:44.000Z</time>
      </trkpt>
      <trkpt lat="44.48956" lon="0.69397">
        <ele>110.1</ele>
        <time>2017-01-22T09:09:45.000Z</time>
      </trkpt>
      <trkpt lat="44.48957" lon="0.69394">
        <ele>110.2</ele>
        <time>2017-01-22T09:09:46.000Z</time>
      </trkpt>
      <trkpt lat="44.48958" lon="0.69391">
        <ele>110.3</ele>
        <time>2017-01-22T09:09:47.000Z</time>
      </trkpt>
      <trkpt lat="44.48959" lon="0.69388">
        <ele>110.4</ele>
        <time>2017-01-22T09:09:48.000Z</time>
      </trkpt>
      <trkpt lat="44.4896" lon="0.69385">
        <ele>110.5</ele>
        <time>2017-01-22T09:09:49.000Z</time>
      </trkpt>
      <trkpt lat="44.48962" lon="0.69382">
        <ele>110.6</ele>
        <time>2017-01-22T09:09:50.000Z</time>
      </trkpt>
      <trkpt lat="44.48963" lon="0.69379">
        <ele>110.8</ele>
        <time>2017-01-22T09:09:51.000Z</time>
      </trkpt>
      <trkpt lat="44.48964" lon="0.69376">
        <ele>110.9</ele>
        <time>2017-01-22T09:09:52.000Z</time>
      </trkpt>
      <trkpt lat="44.48965" lon="0.69373">
        <ele>111</ele>
        <time>2017-01-22T09:09:53.000Z</time>
      </trkpt>
      <trkpt lat="44.48966" lon="0.6937">
        <ele>111.2</ele>
        <time>2017-01-22T09:09:54.000Z</time>
      </trkpt>
      <trkpt lat="44.48968" lon="0.69367">
        <ele>111.3</ele>
        <time>2017-01-22T09:09:55.000Z</time>
      </trkpt>
      <trkpt lat="44.48969" lon="0.69364">
        <ele>111.4</ele>
        <time>2017-01-22T09:09:56.000Z</time>
      </trkpt>
      <trkpt lat="44.4897" lon="0.69361">
        <ele>111.6</ele>
        <time>2017-01-22T09:09:57.000Z</time>
      </trkpt>
      <trkpt lat="44.48971" lon="0.69358">
        <ele>111.8</ele>
        <time>2017-01-22T09:09:58.000Z</time>
      </trkpt>
      <trkpt lat="44.48972" lon="0.69355">
        <ele>111.9</ele>
        <time>2017-01-22T09:09:59.000Z</time>
      </trkpt>
      <trkpt lat="44.48974" lon="0.69352">
        <ele>112.1</ele>
        <time>2017-01-22T09:10:00.000Z</time>
      </trkpt>
      <trkpt lat="44.48975" lon="0.69349">
        <ele>112.3</ele>
        <time>2017-01-22T09:10:01.000Z</time>
      </trkpt>
      <trkpt lat="44.48976" lon="0.69346">
        <ele>112.5</ele>
        <time>2017-01-22T09:10:02.000Z</time>
      </trkpt>
      <trkpt lat="44.48978" lon="0.69343">
        <ele>112.7</ele>
        <time>2017-01-22T09:10:03.000Z</time>
      </trkpt>
      <trkpt lat="44.48979" lon="0.6934">
        <ele>112.9</ele>
        <time>2017-01-22T09:10:04.000Z</time>
      </trkpt>
      <trkpt lat="44.4898" lon="0.69337">
        <ele>113.1</ele>
        <time>2017-01-22T09:10:05.000Z</time>
      </trkpt>
      <trkpt lat="44.48982" lon="0.69334">
        <ele>113.3</ele>
        <time>2017-01-22T09:10:06.000Z</time>
      </trkpt>
      <trkpt lat="44.48983" lon="0.69331">
        <ele>113.5</ele>
        <time>2017-01-22T09:10:07.000Z</time>
      </trkpt>
      <trkpt lat="44.48984" lon="0.69328">
        <ele>113.7</ele>
        <time>2017-01-22T09:10:08.000Z</time>
      </trkpt>
      <trkpt lat="44.48986" lon="0.69325">
        <ele>113.9</ele>
        <time>2017-01-22T09:10:09.000Z</time>
      </trkpt>
      <trkpt lat="44.48987" lon="0.69322">
        <ele>114</ele>
        <time>2017-01-22T09:10:10.000Z</time>
      </trkpt>
      <trkpt lat="44.48989" lon="0.69319">
        <ele>114.2</ele>
        <time>2017-01-22T09:10:11.000Z</time>
      </trkpt>
      <trkpt lat="44.4899" lon="0.69316">
        <ele>114.4</ele>
        <time>2017-01-22T09:10:12.000Z</time>
      </trkpt>
      <trkpt lat="44.48992" lon="0.69313">
        <ele>114.6</ele>
        <time>2017-01-22T09:10:13.000Z</time>
      </trkpt>
      <trkpt lat="44.48993" lon="0.6931">
        <ele>114.8</ele>
        <time>2017-01-22T09:10:14.000Z</time>
      </trkpt>
      <trkpt lat="44.48995" lon="0.69307">
        <ele>114.9</ele>
        <time>2017-01-22T09:10:15.000Z</time>
      </trkpt>
      <trkpt lat="44.48996" lon="0.69304">
        <ele>115.1</ele>
        <time>2017-01-22T09:10:16.000Z</time>
      </trkpt>
      <trkpt lat="44.48998" lon="0.69301">
        <ele>115.3</ele>
        <time>2017-01-22T09:10:17.000Z</time>
      </trkpt>
      <trkpt lat="44.48999" lon="0.69298">
        <ele>115.5</ele>
        <time>2017-01-22T09:10:18.000Z</time>
      </trkpt>
      <trkpt lat="44.49001" lon="0.69295">
        <ele>115.6</ele>
        <time>2017-01-22T09:10:19.000Z</time>
      </trkpt>
      <trkpt lat="44.49002" lon="0.69292">
        <ele>115.8</ele>
        <time>2017-01-22T09:10:20.000Z</time>
      </trkpt>
      <trkpt lat="44.49004" lon="0.69289">
        <ele>115.9</ele>
        <time>2017-01-22T09:10:21.000Z</time>
      </trkpt>
      <trkpt lat="44.49005" lon="0.69286">
        <ele>116.1</ele>
        <time>2017-01-22T09:10:22.000Z</time>
      </trkpt>
      <trkpt lat="44.49007" lon="0.69283">
        <ele>116.2</ele>
        <time>2017-01-22T09:10:23.000Z</time>
      </trkpt>
      <trkpt lat="44.49009" lon="0.6928">
        <ele>116.4</ele>
        <time>2017-01-22T09:10:24.000Z</time>
      </trkpt>
      <trkpt lat="44.4901" lon="0.69277">
        <ele>116.6</ele>
        <time>2017-01-22T09:10:25.000Z</time>
      </trkpt>
      <trkpt lat="44.49012" lon="0.69274">
        <ele>116.8</ele>
        <time>2017-01-22T09:10:26.000Z</time>
      </trkpt>
      <trkpt lat="44.49013" lon="0.69271">
        <ele>117</ele>
        <time>2017-01-22T09:10:27.000Z</time>
      </trkpt>
      <trkpt lat="44.49015" lon="0.69268">
        <ele>117.2</ele>
        <time>2017-01-22T09:10:28.000Z</time>
      </trkpt>
      <trkpt lat="44.49016" lon="0.69266">
        <ele>117.4</ele>
        <time>2017-01-22T09:10:29.000Z</time>
      </trkpt>
      <trkpt lat="44.49018" lon="0.69263">
        <ele>117.7</ele>
        <time>2017-01-22T09:10:30.000Z</time>
      </trkpt>
      <trkpt lat="44.49019" lon="0.6926">
        <ele>117.9</ele>
        <time>2017-01-22T09:10:31.000Z</time>
      </trkpt>
      <trkpt lat="44.49021" lon="0.69257">
        <ele>118.1</ele>
        <time>2017-01-22T09:10:32.000Z</time>
      </trkpt>
      <trkpt lat="44.49022" lon="0.69254">
        <ele>118.4</ele>
        <time>2017-01-22T09:10:33.000Z</time>
      </trkpt>
      <trkpt lat="44.49023" lon="0.69251">
        <ele>118.6</ele>
        <time>2017-01-22T09:10:34.000Z</time>
      </trkpt>
      <trkpt lat="44.49024" lon="0.69248">
        <ele>118.9</ele>
        <time>2017-01-22T09:10:35.000Z</time>
      </trkpt>
      <trkpt lat="44.49026" lon="0.69245">
        <ele>119.2</ele>
        <time>2017-01-22T09:10:36.000Z</time>
      </trkpt>
      <trkpt lat="44.49027" lon="0.69241">
        <ele>119.4</ele>
        <time>2017-01-22T09:10:37.000Z</time>
      </trkpt>
      <trkpt lat="44.49028" lon="0.69238">
        <ele>119.7</ele>
        <time>2017-01-22T09:10:38.000Z</time>
      </trkpt>
      <trkpt lat="44.49029" lon="0.69235">
        <ele>119.9</ele>
        <time>2017-01-22T09:10:39.000Z</time>
      </trkpt>
      <trkpt lat="44.4903" lon="0.69232">
        <ele>120.2</ele>
        <time>2017-01-22T09:10:40.000Z</time>
      </trkpt>
      <trkpt lat="44.4903" lon="0.69229">
        <ele>120.4</ele>
        <time>2017-01-22T09:10:41.000Z</time>
      </trkpt>
      <trkpt lat="44.49031" lon="0.69226">
        <ele>120.6</ele>
        <time>2017-01-22T09:10:42.000Z</time>
      </trkpt>
      <trkpt lat="44.49032" lon="0.69223">
        <ele>120.8</ele>
        <time>2017-01-22T09:10:43.000Z</time>
      </trkpt>
      <trkpt lat="44.49032" lon="0.6922">
        <ele>121</ele>
        <time>2017-01-22T09:10:44.000Z</time>
      </trkpt>
      <trkpt lat="44.49033" lon="0.69217">
        <ele>121.3</ele>
        <time>2017-01-22T09:10:45.000Z</time>
      </trkpt>
      <trkpt lat="44.49034" lon="0.69214">
        <ele>121.5</ele>
        <time>2017-01-22T09:10:46.000Z</time>
      </trkpt>
      <trkpt lat="44.49034" lon="0.6921">
        <ele>121.6</ele>
        <time>2017-01-22T09:10:47.000Z</time>
      </trkpt>
      <trkpt lat="44.49035" lon="0.69207">
        <ele>121.8</ele>
        <time>2017-01-22T09:10:48.000Z</time>
      </trkpt>
      <trkpt lat="44.49035" lon="0.69204">
        <ele>122</ele>
        <time>2017-01-22T09:10:49.000Z</time>
      </trkpt>
      <trkpt lat="44.49035" lon="0.69201">
        <ele>122.2</ele>
        <time>2017-01-22T09:10:50.000Z</time>
      </trkpt>
      <trkpt lat="44.49036" lon="0.69199">
        <ele>122.4</ele>
        <time>2017-01-22T09:10:51.000Z</time>
      </trkpt>
      <trkpt lat="44.49036" lon="0.69196">
        <ele>122.5</ele>
        <time>2017-01-22T09:10:52.000Z</time>
      </trkpt>
      <trkpt lat="44.49037" lon="0.69193">
        <ele>122.7</ele>
        <time>2017-01-22T09:10:53.000Z</time>
      </trkpt>
      <trkpt lat="44.49038" lon="0.69191">
        <ele>122.9</ele>
        <time>2017-01-22T09:10:54.000Z</time>
      </trkpt>
      <trkpt lat="44.49038" lon="0.69189">
        <ele>123.1</ele>
        <time>2017-01-22T09:10:55.000Z</time>
      </trkpt>
      <trkpt lat="44.49039" lon="0.69187">
        <ele>123.4</ele>
        <time>2017-01-22T09:10:56.000Z</time>
      </trkpt>
      <trkpt lat="44.49041" lon="0.69186">
        <ele>123.7</ele>
        <time>2017-01-22T09:10:57.000Z</time>
      </trkpt>
      <trkpt lat="44.49042" lon="0.69184">
        <ele>124</ele>
        <time>2017-01-22T09:10:58.000Z</time>
      </trkpt>
      <trkpt lat="44.49044" lon="0.69183">
        <ele>124.3</ele>
        <time>2017-01-22T09:10:59.000Z</time>
      </trkpt>
      <trkpt lat="44.49045" lon="0.69182">
        <ele>124.6</ele>
        <time>2017-01-22T09:11:00.000Z</time>
      </trkpt>
      <trkpt lat="44.49047" lon="0.6918">
        <ele>124.9</ele>
        <time>2017-01-22T09:11:01.000Z</time>
      </trkpt>
      <trkpt lat="44.49048" lon="0.69179">
        <ele>125.1</ele>
        <time>2017-01-22T09:11:02.000Z</time>
      </trkpt>
      <trkpt lat="44.49048" lon="0.69178">
        <ele>125.3</ele>
        <time>2017-01-22T09:11:03.000Z</time>
      </trkpt>
      <trkpt lat="44.49049" lon="0.69177">
        <ele>125.4</ele>
        <time>2017-01-22T09:11:04.000Z</time>
      </trkpt>
      <trkpt lat="44.4905" lon="0.69175">
        <ele>125.6</ele>
        <time>2017-01-22T09:11:05.000Z</time>
      </trkpt>
      <trkpt lat="44.4905" lon="0.69174">
        <ele>125.8</ele>
        <time>2017-01-22T09:11:06.000Z</time>
      </trkpt>
      <trkpt lat="44.49051" lon="0.69173">
        <ele>125.9</ele>
        <time>2017-01-22T09:11:07.000Z</time>
      </trkpt>
      <trkpt lat="44.49052" lon="0.69172">
        <ele>126.1</ele>
        <time>2017-01-22T09:11:08.000Z</time>
      </trkpt>
      <trkpt lat="44.49052" lon="0.69171">
        <ele>126.3</ele>
        <time>2017-01-22T09:11:09.000Z</time>
      </trkpt>
      <trkpt lat="44.49053" lon="0.6917">
        <ele>126.4</ele>
        <time>2017-01-22T09:11:10.000Z</time>
      </trkpt>
      <trkpt lat="44.49054" lon="0.69168">
        <ele>126.6</ele>
        <time>2017-01-22T09:11:11.000Z</time>
      </trkpt>
      <trkpt lat="44.49054" lon="0.69167">
        <ele>126.8</ele>
        <time>2017-01-22T09:11:12.000Z</time>
      </trkpt>
      <trkpt lat="44.49055" lon="0.69166">
        <ele>126.9</ele>
        <time>2017-01-22T09:11:13.000Z</time>
      </trkpt>
      <trkpt lat="44.49056" lon="0.69165">
        <ele>127.1</ele>
        <time>2017-01-22T09:11:14.000Z</time>
      </trkpt>
      <trkpt lat="44.49056" lon="0.69164">
        <ele>127.3</ele>
        <time>2017-01-22T09:11:15.000Z</time>
      </trkpt>
      <trkpt lat="44.49057" lon="0.69162">
        <ele>127.5</ele>
        <time>2017-01-22T09:11:16.000Z</time>
      </trkpt>
      <trkpt lat="44.49057" lon="0.69161">
        <ele>127.7</ele>
        <time>2017-01-22T09:11:17.000Z</time>
      </trkpt>
      <trkpt lat="44.49058" lon="0.69159">
        <ele>127.9</ele>
        <time>2017-01-22T09:11:18.000Z</time>
      </trkpt>
      <trkpt lat="44.49058" lon="0.69158">
        <ele>128.1</ele>
        <time>2017-01-22T09:11:19.000Z</time>
      </trkpt>
      <trkpt lat="44.49059" lon="0.69157">
        <ele>128.3</ele>
        <time>2017-01-22T09:11:20.000Z</time>
      </trkpt>
      <trkpt lat="44.4906" lon="0.69155">
        <ele>128.5</ele>
        <time>2017-01-22T09:11:21.000Z</time>
      </trkpt>
      <trkpt lat="44.4906" lon="0.69154">
        <ele>128.7</ele>
        <time>2017-01-22T09:11:22.000Z</time>
      </trkpt>
      <trkpt lat="44.49061" lon="0.69153">
        <ele>128.9</ele>
        <time>2017-01-22T09:11:23.000Z</time>
      </trkpt>
      <trkpt lat="44.49062" lon="0.69151">
        <ele>129.1</ele>
        <time>2017-01-22T09:11:24.000Z</time>
      </trkpt>
      <trkpt lat="44.49062" lon="0.6915">
        <ele>129.3</ele>
        <time>2017-01-22T09:11:25.000Z</time>
      </trkpt>
      <trkpt lat="44.49063" lon="0.69149">
        <ele>129.5</ele>
        <time>2017-01-22T09:11:26.000Z</time>
      </trkpt>
      <trkpt lat="44.49064" lon="0.69148">
        <ele>129.7</ele>
        <time>2017-01-22T09:11:27.000Z</time>
      </trkpt>
      <trkpt lat="44.49065" lon="0.69147">
        <ele>129.9</ele>
        <time>2017-01-22T09:11:28.000Z</time>
      </trkpt>
      <trkpt lat="44.49065" lon="0.69146">
        <ele>130.1</ele>
        <time>2017-01-22T09:11:29.000Z</time>
      </trkpt>
      <trkpt lat="44.49066" lon="0.69145">
        <ele>130.4</ele>
        <time>2017-01-22T09:11:30.000Z</time>
      </trkpt>
      <trkpt lat="44.49067" lon="0.69145">
        <ele>130.6</ele>
        <time>2017-01-22T09:11:31.000Z</time>
      </trkpt>
      <trkpt lat="44.49069" lon="0.69144">
        <ele>130.9</ele>
        <time>2017-01-22T09:11:32.000Z</time>
      </trkpt>
      <trkpt lat="44.4907" lon="0.69144">
        <ele>131.1</ele>
        <time>2017-01-22T09:11:33.000Z</time>
      </trkpt>
      <trkpt lat="44.49071" lon="0.69143">
        <ele>131.4</ele>
        <time>2017-01-22T09:11:34.000Z</time>
      </trkpt>
      <trkpt lat="44.49072" lon="0.69143">
        <ele>131.6</ele>
        <time>2017-01-22T09:11:35.000Z</time>
      </trkpt>
      <trkpt lat="44.49073" lon="0.69142">
        <ele>131.9</ele>
        <time>2017-01-22T09:11:36.000Z</time>
      </trkpt>
      <trkpt lat="44.49074" lon="0.69142">
        <ele>132.1</ele>
        <time>2017-01-22T09:11:37.000Z</time>
      </trkpt>
      <trkpt lat="44.49076" lon="0.69141">
        <ele>132.4</ele>
        <time>2017-01-22T09:11:38.000Z</time>
      </trkpt>
      <trkpt lat="44.49077" lon="0.69141">
        <ele>132.7</ele>
        <time>2017-01-22T09:11:39.000Z</time>
      </trkpt>
      <trkpt lat="44.49078" lon="0.6914">
        <ele>132.9</ele>
        <time>2017-01-22T09:11:40.000Z</time>
      </trkpt>
      <trkpt lat="44.49079" lon="0.69139">
        <ele>133.2</ele>
        <time>2017-01-22T09:11:41.000Z</time>
      </trkpt>
      <trkpt lat="44.49081" lon="0.69139">
        <ele>133.5</ele>
        <time>2017-01-22T09:11:42.000Z</time>
      </trkpt>
      <trkpt lat="44.49082" lon="0.69138">
        <ele>133.9</ele>
        <time>2017-01-22T09:11:43.000Z</time>
      </trkpt>
      <trkpt lat="44.49084" lon="0.69138">
        <ele>134.2</ele>
        <time>2017-01-22T09:11:44.000Z</time>
      </trkpt>
      <trkpt lat="44.49086" lon="0.69137">
        <ele>134.4</ele>
        <time>2017-01-22T09:11:45.000Z</time>
      </trkpt>
      <trkpt lat="44.49087" lon="0.69137">
        <ele>134.7</ele>
        <time>2017-01-22T09:11:46.000Z</time>
      </trkpt>
      <trkpt lat="44.49089" lon="0.69136">
        <ele>135</ele>
        <time>2017-01-22T09:11:47.000Z</time>
      </trkpt>
      <trkpt lat="44.4909" lon="0.69135">
        <ele>135.3</ele>
        <time>2017-01-22T09:11:48.000Z</time>
      </trkpt>
      <trkpt lat="44.49092" lon="0.69134">
        <ele>135.5</ele>
        <time>2017-01-22T09:11:49.000Z</time>
      </trkpt>
      <trkpt lat="44.49093" lon="0.69134">
        <ele>135.8</ele>
        <time>2017-01-22T09:11:50.000Z</time>
      </trkpt>
      <trkpt lat="44.49094" lon="0.69132">
        <ele>136</ele>
        <time>2017-01-22T09:11:51.000Z</time>
      </trkpt>
      <trkpt lat="44.49096" lon="0.69131">
        <ele>136.3</ele>
        <time>2017-01-22T09:11:52.000Z</time>
      </trkpt>
      <trkpt lat="44.49097" lon="0.6913">
        <ele>136.6</ele>
        <time>2017-01-22T09:11:53.000Z</time>
      </trkpt>
      <trkpt lat="44.49098" lon="0.69128">
        <ele>136.8</ele>
        <time>2017-01-22T09:11:54.000Z</time>
      </trkpt>
      <trkpt lat="44.49099" lon="0.69127">
        <ele>137.1</ele>
        <time>2017-01-22T09:11:55.000Z</time>
      </trkpt>
      <trkpt lat="44.491" lon="0.69125">
        <ele>137.3</ele>
        <time>2017-01-22T09:11:56.000Z</time>
      </trkpt>
      <trkpt lat="44.491" lon="0.69123">
        <ele>137.6</ele>
        <time>2017-01-22T09:11:57.000Z</time>
      </trkpt>
      <trkpt lat="44.49101" lon="0.69122">
        <ele>137.7</ele>
        <time>2017-01-22T09:11:58.000Z</time>
      </trkpt>
      <trkpt lat="44.49101" lon="0.69121">
        <ele>137.8</ele>
        <time>2017-01-22T09:11:59.000Z</time>
      </trkpt>
      <trkpt lat="44.49101" lon="0.69121">
        <ele>137.9</ele>
        <time>2017-01-22T09:12:00.000Z</time>
      </trkpt>
      <trkpt lat="44.49101" lon="0.6912">
        <ele>138</ele>
        <time>2017-01-22T09:12:01.000Z</time>
      </trkpt>
      <trkpt lat="44.49102" lon="0.6912">
        <ele>138</ele>
        <time>2017-01-22T09:12:02.000Z</time>
      </trkpt>
      <trkpt lat="44.49102" lon="0.69119">
        <ele>138.2</ele>
        <time>2017-01-22T09:12:03.000Z</time>
      </trkpt>
      <trkpt lat="44.49103" lon="0.69118">
        <ele>138.4</ele>
        <time>2017-01-22T09:12:04.000Z</time>
      </trkpt>
      <trkpt lat="44.49104" lon="0.69116">
        <ele>138.6</ele>
        <time>2017-01-22T09:12:05.000Z</time>
      </trkpt>
      <trkpt lat="44.49105" lon="0.69116">
        <ele>138.7</ele>
        <time>2017-01-22T09:12:06.000Z</time>
      </trkpt>
      <trkpt lat="44.49106" lon="0.69113">
        <ele>139.1</ele>
        <time>2017-01-22T09:12:07.000Z</time>
      </trkpt>
      <trkpt lat="44.49107" lon="0.69111">
        <ele>139.4</ele>
        <time>2017-01-22T09:12:08.000Z</time>
      </trkpt>
      <trkpt lat="44.49108" lon="0.6911">
        <ele>139.6</ele>
        <time>2017-01-22T09:12:09.000Z</time>
      </trkpt>
      <trkpt lat="44.49108" lon="0.69108">
        <ele>139.8</ele>
        <time>2017-01-22T09:12:10.000Z</time>
      </trkpt>
      <trkpt lat="44.49109" lon="0.69107">
        <ele>139.9</ele>
        <time>2017-01-22T09:12:11.000Z</time>
      </trkpt>
      <trkpt lat="44.49109" lon="0.69107">
        <ele>140</ele>
        <time>2017-01-22T09:12:12.000Z</time>
      </trkpt>
      <trkpt lat="44.49109" lon="0.69106">
        <ele>140.1</ele>
        <time>2017-01-22T09:12:13.000Z</time>
      </trkpt>
      <trkpt lat="44.49109" lon="0.69106">
        <ele>140.2</ele>
        <time>2017-01-22T09:12:14.000Z</time>
      </trkpt>
      <trkpt lat="44.4911" lon="0.69105">
        <ele>140.3</ele>
        <time>2017-01-22T09:12:15.000Z</time>
      </trkpt>
      <trkpt lat="44.49111" lon="0.69103">
        <ele>140.5</ele>
        <time>2017-01-22T09:12:16.000Z</time>
      </trkpt>
      <trkpt lat="44.49112" lon="0.69101">
        <ele>140.8</ele>
        <time>2017-01-22T09:12:17.000Z</time>
      </trkpt>
      <trkpt lat="44.49113" lon="0.69098">
        <ele>141.3</ele>
        <time>2017-01-22T09:12:18.000Z</time>
      </trkpt>
      <trkpt lat="44.49114" lon="0.69096">
        <ele>141.5</ele>
        <time>2017-01-22T09:12:19.000Z</time>
      </trkpt>
      <trkpt lat="44.49114" lon="0.69095">
        <ele>141.6</ele>
        <time>2017-01-22T09:12:20.000Z</time>
      </trkpt>
      <trkpt lat="44.49115" lon="0.69094">
        <ele>141.7</ele>
        <time>2017-01-22T09:12:21.000Z</time>
      </trkpt>
      <trkpt lat="44.49115" lon="0.69094">
        <ele>141.8</ele>
        <time>2017-01-22T09:12:22.000Z</time>
      </trkpt>
      <trkpt lat="44.49115" lon="0.69093">
        <ele>141.9</ele>
        <time>2017-01-22T09:12:23.000Z</time>
      </trkpt>
      <trkpt lat="44.49115" lon="0.69092">
        <ele>141.9</ele>
        <time>2017-01-22T09:12:24.000Z</time>
      </trkpt>
      <trkpt lat="44.49115" lon="0.69092">
        <ele>142</ele>
        <time>2017-01-22T09:12:25.000Z</time>
      </trkpt>
      <trkpt lat="44.49116" lon="0.69091">
        <ele>142.2</ele>
        <time>2017-01-22T09:12:26.000Z</time>
      </trkpt>
      <trkpt lat="44.49117" lon="0.69088">
        <ele>142.5</ele>
        <time>2017-01-22T09:12:27.000Z</time>
      </trkpt>
      <trkpt lat="44.49118" lon="0.69084">
        <ele>143</ele>
        <time>2017-01-22T09:12:28.000Z</time>
      </trkpt>
      <trkpt lat="44.49119" lon="0.69082">
        <ele>143.2</ele>
        <time>2017-01-22T09:12:29.000Z</time>
      </trkpt>
      <trkpt lat="44.4912" lon="0.6908">
        <ele>143.3</ele>
        <time>2017-01-22T09:12:30.000Z</time>
      </trkpt>
      <trkpt lat="44.49121" lon="0.69079">
        <ele>143.5</ele>
        <time>2017-01-22T09:12:31.000Z</time>
      </trkpt>
      <trkpt lat="44.49122" lon="0.69078">
        <ele>143.6</ele>
        <time>2017-01-22T09:12:32.000Z</time>
      </trkpt>
      <trkpt lat="44.49123" lon="0.69076">
        <ele>143.7</ele>
        <time>2017-01-22T09:12:33.000Z</time>
      </trkpt>
      <trkpt lat="44.49123" lon="0.69075">
        <ele>143.8</ele>
        <time>2017-01-22T09:12:34.000Z</time>
      </trkpt>
      <trkpt lat="44.49124" lon="0.69074">
        <ele>143.9</ele>
        <time>2017-01-22T09:12:35.000Z</time>
      </trkpt>
      <trkpt lat="44.49124" lon="0.69072">
        <ele>143.9</ele>
        <time>2017-01-22T09:12:36.000Z</time>
      </trkpt>
      <trkpt lat="44.49125" lon="0.69071">
        <ele>144</ele>
        <time>2017-01-22T09:12:37.000Z</time>
      </trkpt>
      <trkpt lat="44.49125" lon="0.69069">
        <ele>144.1</ele>
        <time>2017-01-22T09:12:38.000Z</time>
      </trkpt>
      <trkpt lat="44.49126" lon="0.69068">
        <ele>144.2</ele>
        <time>2017-01-22T09:12:39.000Z</time>
      </trkpt>
      <trkpt lat="44.49126" lon="0.69066">
        <ele>144.3</ele>
        <time>2017-01-22T09:12:40.000Z</time>
      </trkpt>
      <trkpt lat="44.49127" lon="0.69065">
        <ele>144.4</ele>
        <time>2017-01-22T09:12:41.000Z</time>
      </trkpt>
      <trkpt lat="44.49127" lon="0.69063">
        <ele>144.5</ele>
        <time>2017-01-22T09:12:42.000Z</time>
      </trkpt>
      <trkpt lat="44.49128" lon="0.69062">
        <ele>144.6</ele>
        <time>2017-01-22T09:12:43.000Z</time>
      </trkpt>
      <trkpt lat="44.49128" lon="0.69061">
        <ele>144.7</ele>
        <time>2017-01-22T09:12:44.000Z</time>
      </trkpt>
      <trkpt lat="44.49129" lon="0.69059">
        <ele>144.8</ele>
        <time>2017-01-22T09:12:45.000Z</time>
      </trkpt>
      <trkpt lat="44.4913" lon="0.69058">
        <ele>144.9</ele>
        <time>2017-01-22T09:12:46.000Z</time>
      </trkpt>
      <trkpt lat="44.4913" lon="0.69056">
        <ele>145</ele>
        <time>2017-01-22T09:12:47.000Z</time>
      </trkpt>
      <trkpt lat="44.49131" lon="0.69055">
        <ele>145</ele>
        <time>2017-01-22T09:12:48.000Z</time>
      </trkpt>
      <trkpt lat="44.49131" lon="0.69053">
        <ele>145.2</ele>
        <time>2017-01-22T09:12:49.000Z</time>
      </trkpt>
      <trkpt lat="44.49132" lon="0.69052">
        <ele>145.2</ele>
        <time>2017-01-22T09:12:50.000Z</time>
      </trkpt>
      <trkpt lat="44.49132" lon="0.69051">
        <ele>145.4</ele>
        <time>2017-01-22T09:12:51.000Z</time>
      </trkpt>
      <trkpt lat="44.49133" lon="0.69049">
        <ele>145.5</ele>
        <time>2017-01-22T09:12:52.000Z</time>
      </trkpt>
      <trkpt lat="44.49134" lon="0.69048">
        <ele>145.6</ele>
        <time>2017-01-22T09:12:53.000Z</time>
      </trkpt>
      <trkpt lat="44.49134" lon="0.69046">
        <ele>145.7</ele>
        <time>2017-01-22T09:12:54.000Z</time>
      </trkpt>
      <trkpt lat="44.49135" lon="0.69045">
        <ele>145.8</ele>
        <time>2017-01-22T09:12:55.000Z</time>
      </trkpt>
      <trkpt lat="44.49135" lon="0.69044">
        <ele>145.9</ele>
        <time>2017-01-22T09:12:56.000Z</time>
      </trkpt>
      <trkpt lat="44.49136" lon="0.69042">
        <ele>146</ele>
        <time>2017-01-22T09:12:57.000Z</time>
      </trkpt>
      <trkpt lat="44.49136" lon="0.69041">
        <ele>146.1</ele>
        <time>2017-01-22T09:12:58.000Z</time>
      </trkpt>
      <trkpt lat="44.49137" lon="0.69039">
        <ele>146.2</ele>
        <time>2017-01-22T09:12:59.000Z</time>
      </trkpt>
      <trkpt lat="44.49138" lon="0.69038">
        <ele>146.3</ele>
        <time>2017-01-22T09:13:00.000Z</time>
      </trkpt>
      <trkpt lat="44.49138" lon="0.69037">
        <ele>146.5</ele>
        <time>2017-01-22T09:13:01.000Z</time>
      </trkpt>
      <trkpt lat="44.49139" lon="0.69035">
        <ele>146.6</ele>
        <time>2017-01-22T09:13:02.000Z</time>
      </trkpt>
      <trkpt lat="44.4914" lon="0.69034">
        <ele>146.7</ele>
        <time>2017-01-22T09:13:03.000Z</time>
      </trkpt>
      <trkpt lat="44.4914" lon="0.69032">
        <ele>146.8</ele>
        <time>2017-01-22T09:13:04.000Z</time>
      </trkpt>
      <trkpt lat="44.49141" lon="0.69031">
        <ele>146.9</ele>
        <time>2017-01-22T09:13:05.000Z</time>
      </trkpt>
      <trkpt lat="44.49141" lon="0.69029">
        <ele>147.1</ele>
        <time>2017-01-22T09:13:06.000Z</time>
      </trkpt>
      <trkpt lat="44.49142" lon="0.69028">
        <ele>147.2</ele>
        <time>2017-01-22T09:13:07.000Z</time>
      </trkpt>
      <trkpt lat="44.49143" lon="0.69027">
        <ele>147.3</ele>
        <time>2017-01-22T09:13:08.000Z</time>
      </trkpt>
      <trkpt lat="44.49143" lon="0.69025">
        <ele>147.4</ele>
        <time>2017-01-22T09:13:09.000Z</time>
      </trkpt>
      <trkpt lat="44.49144" lon="0.69024">
        <ele>147.5</ele>
        <time>2017-01-22T09:13:10.000Z</time>
      </trkpt>
      <trkpt lat="44.49144" lon="0.69022">
        <ele>147.7</ele>
        <time>2017-01-22T09:13:11.000Z</time>
      </trkpt>
      <trkpt lat="44.49145" lon="0.69021">
        <ele>147.8</ele>
        <time>2017-01-22T09:13:12.000Z</time>
      </trkpt>
      <trkpt lat="44.49145" lon="0.6902">
        <ele>147.9</ele>
        <time>2017-01-22T09:13:13.000Z</time>
      </trkpt>
      <trkpt lat="44.49146" lon="0.69018">
        <ele>148</ele>
        <time>2017-01-22T09:13:14.000Z</time>
      </trkpt>
      <trkpt lat="44.49147" lon="0.69017">
        <ele>148.1</ele>
        <time>2017-01-22T09:13:15.000Z</time>
      </trkpt>
      <trkpt lat="44.49147" lon="0.69016">
        <ele>148.3</ele>
        <time>2017-01-22T09:13:16.000Z</time>
      </trkpt>
      <trkpt lat="44.49148" lon="0.69014">
        <ele>148.4</ele>
        <time>2017-01-22T09:13:17.000Z</time>
      </trkpt>
      <trkpt lat="44.49148" lon="0.69013">
        <ele>148.5</ele>
        <time>2017-01-22T09:13:18.000Z</time>
      </trkpt>
      <trkpt lat="44.49149" lon="0.69011">
        <ele>148.6</ele>
        <time>2017-01-22T09:13:19.000Z</time>
      </trkpt>
      <trkpt lat="44.4915" lon="0.6901">
        <ele>148.8</ele>
        <time>2017-01-22T09:13:20.000Z</time>
      </trkpt>
      <trkpt lat="44.4915" lon="0.69008">
        <ele>148.9</ele>
        <time>2017-01-22T09:13:21.000Z</time>
      </trkpt>
      <trkpt lat="44.49151" lon="0.69006">
        <ele>149.1</ele>
        <time>2017-01-22T09:13:22.000Z</time>
      </trkpt>
      <trkpt lat="44.49152" lon="0.69005">
        <ele>149.2</ele>
        <time>2017-01-22T09:13:23.000Z</time>
      </trkpt>
      <trkpt lat="44.49152" lon="0.69003">
        <ele>149.4</ele>
        <time>2017-01-22T09:13:24.000Z</time>
      </trkpt>
      <trkpt lat="44.49153" lon="0.69001">
        <ele>149.5</ele>
        <time>2017-01-22T09:13:25.000Z</time>
      </trkpt>
      <trkpt lat="44.49154" lon="0.69">
        <ele>149.6</ele>
        <time>2017-01-22T09:13:26.000Z</time>
      </trkpt>
      <trkpt lat="44.49154" lon="0.68999">
        <ele>149.7</ele>
        <time>2017-01-22T09:13:27.000Z</time>
      </trkpt>
      <trkpt lat="44.49155" lon="0.68998">
        <ele>149.8</ele>
        <time>2017-01-22T09:13:28.000Z</time>
      </trkpt>
      <trkpt lat="44.49155" lon="0.68998">
        <ele>149.8</ele>
        <time>2017-01-22T09:13:29.000Z</time>
      </trkpt>
      <trkpt lat="44.49155" lon="0.68997">
        <ele>149.8</ele>
        <time>2017-01-22T09:13:30.000Z</time>
      </trkpt>
      <trkpt lat="44.49155" lon="0.68997">
        <ele>149.8</ele>
        <time>2017-01-22T09:13:31.000Z</time>
      </trkpt>
      <trkpt lat="44.49155" lon="0.68997">
        <ele>149.8</ele>
        <time>2017-01-22T09:13:32.000Z</time>
      </trkpt>
      <trkpt lat="44.49155" lon="0.68997">
        <ele>149.8</ele>
        <time>2017-01-22T09:13:33.000Z</time>
      </trkpt>
      <trkpt lat="44.49155" lon="0.68997">
        <ele>149.8</ele>
        <time>2017-01-22T09:13:34.000Z</time>
      </trkpt>
      <trkpt lat="44.49155" lon="0.68997">
        <ele>149.8</ele>
        <time>2017-01-22T09:13:35.000Z</time>
      </trkpt>
      <trkpt lat="44.49155" lon="0.68997">
        <ele>149.8</ele>
        <time>2017-01-22T09:13:36.000Z</time>
      </trkpt>
      <trkpt lat="44.49155" lon="0.68997">
        <ele>149.8</ele>
        <time>2017-01-22T09:13:37.000Z</time>
      </trkpt>
      <trkpt lat="44.49155" lon="0.68997">
        <ele>149.8</ele>
        <time>2017-01-22T09:13:38.000Z</time>
      </trkpt>
      <trkpt lat="44.49155" lon="0.68997">
        <ele>149.8</ele>
        <time>2017-01-22T09:13:39.000Z</time>
      </trkpt>
      <trkpt lat="44.49155" lon="0.68997">
        <ele>149.8</ele>
        <time>2017-01-22T09:13:40.000Z</time>
      </trkpt>
      <trkpt lat="44.49155" lon="0.68997">
        <ele>149.8</ele>
        <time>2017-01-22T09:13:41.000Z</time>
      </trkpt>
      <trkpt lat="44.49155" lon="0.68997">
        <ele>149.8</ele>
        <time>2017-01-22T09:13:42.000Z</time>
      </trkpt>
      <trkpt lat="44.49155" lon="0.68996">
        <ele>149.8</ele>
        <time>2017-01-22T09:13:43.000Z</time>
      </trkpt>
      <trkpt lat="44.49155" lon="0.68996">
        <ele>149.8</ele>
        <time>2017-01-22T09:13:44.000Z</time>
      </trkpt>
      <trkpt lat="44.49155" lon="0.68996">
        <ele>149.8</ele>
        <time>2017-01-22T09:13:45.000Z</time>
      </trkpt>
      <trkpt lat="44.49155" lon="0.68995">
        <ele>149.8</ele>
        <time>2017-01-22T09:13:46.000Z</time>
      </trkpt>
      <trkpt lat="44.49155" lon="0.68993">
        <ele>149.8</ele>
        <time>2017-01-22T09:13:47.000Z</time>
      </trkpt>
      <trkpt lat="44.49156" lon="0.68992">
        <ele>149.8</ele>
        <time>2017-01-22T09:13:48.000Z</time>
      </trkpt>
      <trkpt lat="44.49156" lon="0.68992">
        <ele>149.8</ele>
        <time>2017-01-22T09:13:49.000Z</time>
      </trkpt>
      <trkpt lat="44.49156" lon="0.6899">
        <ele>149.8</ele>
        <time>2017-01-22T09:13:50.000Z</time>
      </trkpt>
      <trkpt lat="44.49156" lon="0.68988">
        <ele>149.8</ele>
        <time>2017-01-22T09:13:51.000Z</time>
      </trkpt>
      <trkpt lat="44.49157" lon="0.68987">
        <ele>149.8</ele>
        <time>2017-01-22T09:13:52.000Z</time>
      </trkpt>
      <trkpt lat="44.49157" lon="0.68986">
        <ele>149.9</ele>
        <time>2017-01-22T09:13:53.000Z</time>
      </trkpt>
      <trkpt lat="44.49157" lon="0.68985">
        <ele>149.9</ele>
        <time>2017-01-22T09:13:54.000Z</time>
      </trkpt>
      <trkpt lat="44.49157" lon="0.68985">
        <ele>149.9</ele>
        <time>2017-01-22T09:13:55.000Z</time>
      </trkpt>
      <trkpt lat="44.49157" lon="0.68985">
        <ele>149.9</ele>
        <time>2017-01-22T09:13:56.000Z</time>
      </trkpt>
      <trkpt lat="44.49157" lon="0.68985">
        <ele>149.9</ele>
        <time>2017-01-22T09:13:57.000Z</time>
      </trkpt>
      <trkpt lat="44.49157" lon="0.68984">
        <ele>149.9</ele>
        <time>2017-01-22T09:13:58.000Z</time>
      </trkpt>
      <trkpt lat="44.49157" lon="0.68984">
        <ele>149.9</ele>
        <time>2017-01-22T09:13:59.000Z</time>
      </trkpt>
      <trkpt lat="44.49157" lon="0.68984">
        <ele>149.9</ele>
        <time>2017-01-22T09:14:00.000Z</time>
      </trkpt>
      <trkpt lat="44.49157" lon="0.68984">
        <ele>149.9</ele>
        <time>2017-01-22T09:14:01.000Z</time>
      </trkpt>
      <trkpt lat="44.49157" lon="0.68984">
        <ele>149.9</ele>
        <time>2017-01-22T09:14:02.000Z</time>
      </trkpt>
      <trkpt lat="44.49157" lon="0.68984">
        <ele>149.9</ele>
        <time>2017-01-22T09:14:03.000Z</time>
      </trkpt>
      <trkpt lat="44.49157" lon="0.68984">
        <ele>149.9</ele>
        <time>2017-01-22T09:14:04.000Z</time>
      </trkpt>
      <trkpt lat="44.49157" lon="0.68984">
        <ele>149.9</ele>
        <time>2017-01-22T09:14:05.000Z</time>
      </trkpt>
      <trkpt lat="44.49157" lon="0.68984">
        <ele>149.9</ele>
        <time>2017-01-22T09:14:06.000Z</time>
      </trkpt>
      <trkpt lat="44.49157" lon="0.68984">
        <ele>149.9</ele>
        <time>2017-01-22T09:14:07.000Z</time>
      </trkpt>
      <trkpt lat="44.49157" lon="0.68984">
        <ele>149.9</ele>
        <time>2017-01-22T09:14:08.000Z</time>
      </trkpt>
      <trkpt lat="44.49157" lon="0.68984">
        <ele>149.9</ele>
        <time>2017-01-22T09:14:09.000Z</time>
      </trkpt>
      <trkpt lat="44.49157" lon="0.68984">
        <ele>149.9</ele>
        <time>2017-01-22T09:14:10.000Z</time>
      </trkpt>
      <trkpt lat="44.49157" lon="0.68984">
        <ele>149.9</ele>
        <time>2017-01-22T09:14:11.000Z</time>
      </trkpt>
      <trkpt lat="44.49157" lon="0.68984">
        <ele>149.9</ele>
        <time>2017-01-22T09:14:12.000Z</time>
      </trkpt>
      <trkpt lat="44.49157" lon="0.68984">
        <ele>149.9</ele>
        <time>2017-01-22T09:14:13.000Z</time>
      </trkpt>
      <trkpt lat="44.49157" lon="0.68984">
        <ele>149.9</ele>
        <time>2017-01-22T09:14:14.000Z</time>
      </trkpt>
      <trkpt lat="44.49157" lon="0.68984">
        <ele>149.9</ele>
        <time>2017-01-22T09:14:15.000Z</time>
      </trkpt>
      <trkpt lat="44.49157" lon="0.68984">
        <ele>149.9</ele>
        <time>2017-01-22T09:14:16.000Z</time>
      </trkpt>
      <trkpt lat="44.49157" lon="0.68984">
        <ele>149.9</ele>
        <time>2017-01-22T09:14:17.000Z</time>
      </trkpt>
      <trkpt lat="44.49157" lon="0.68984">
        <ele>149.9</ele>
        <time>2017-01-22T09:14:18.000Z</time>
      </trkpt>
      <trkpt lat="44.49157" lon="0.68984">
        <ele>149.9</ele>
        <time>2017-01-22T09:14:19.000Z</time>
      </trkpt>
      <trkpt lat="44.49157" lon="0.68984">
        <ele>149.9</ele>
        <time>2017-01-22T09:14:20.000Z</time>
      </trkpt>
      <trkpt lat="44.49157" lon="0.68984">
        <ele>149.9</ele>
        <time>2017-01-22T09:14:21.000Z</time>
      </trkpt>
      <trkpt lat="44.49157" lon="0.68984">
        <ele>149.9</ele>
        <time>2017-01-22T09:14:22.000Z</time>
      </trkpt>
      <trkpt lat="44.49157" lon="0.68984">
        <ele>149.9</ele>
        <time>2017-01-22T09:14:23.000Z</time>
      </trkpt>
      <trkpt lat="44.49157" lon="0.68984">
        <ele>149.9</ele>
        <time>2017-01-22T09:14:24.000Z</time>
      </trkpt>
      <trkpt lat="44.49157" lon="0.68984">
        <ele>149.9</ele>
        <time>2017-01-22T09:14:25.000Z</time>
      </trkpt>
      <trkpt lat="44.49157" lon="0.68984">
        <ele>149.9</ele>
        <time>2017-01-22T09:14:26.000Z</time>
      </trkpt>
      <trkpt lat="44.49157" lon="0.68984">
        <ele>149.9</ele>
        <time>2017-01-22T09:14:27.000Z</time>
      </trkpt>
      <trkpt lat="44.49157" lon="0.68984">
        <ele>149.9</ele>
        <time>2017-01-22T09:14:28.000Z</time>
      </trkpt>
      <trkpt lat="44.49157" lon="0.68984">
        <ele>149.9</ele>
        <time>2017-01-22T09:14:29.000Z</time>
      </trkpt>
      <trkpt lat="44.49157" lon="0.68984">
        <ele>149.9</ele>
        <time>2017-01-22T09:14:30.000Z</time>
      </trkpt>
      <trkpt lat="44.49157" lon="0.68984">
        <ele>149.9</ele>
        <time>2017-01-22T09:14:31.000Z</time>
      </trkpt>
      <trkpt lat="44.49157" lon="0.68984">
        <ele>149.9</ele>
        <time>2017-01-22T09:14:32.000Z</time>
      </trkpt>
      <trkpt lat="44.49157" lon="0.68984">
        <ele>149.9</ele>
        <time>2017-01-22T09:14:33.000Z</time>
      </trkpt>
      <trkpt lat="44.49157" lon="0.68984">
        <ele>149.9</ele>
        <time>2017-01-22T09:14:34.000Z</time>
      </trkpt>
      <trkpt lat="44.49157" lon="0.68984">
        <ele>149.9</ele>
        <time>2017-01-22T09:14:35.000Z</time>
      </trkpt>
      <trkpt lat="44.49157" lon="0.68984">
        <ele>149.9</ele>
        <time>2017-01-22T09:14:36.000Z</time>
      </trkpt>
      <trkpt lat="44.49157" lon="0.68984">
        <ele>149.9</ele>
        <time>2017-01-22T09:14:37.000Z</time>
      </trkpt>
      <trkpt lat="44.49157" lon="0.68984">
        <ele>149.9</ele>
        <time>2017-01-22T09:14:38.000Z</time>
      </trkpt>
      <trkpt lat="44.49157" lon="0.68984">
        <ele>149.9</ele>
        <time>2017-01-22T09:14:39.000Z</time>
      </trkpt>
      <trkpt lat="44.49157" lon="0.68984">
        <ele>149.9</ele>
        <time>2017-01-22T09:14:40.000Z</time>
      </trkpt>
      <trkpt lat="44.49157" lon="0.68984">
        <ele>149.9</ele>
        <time>2017-01-22T09:14:41.000Z</time>
      </trkpt>
      <trkpt lat="44.49157" lon="0.68984">
        <ele>149.9</ele>
        <time>2017-01-22T09:14:42.000Z</time>
      </trkpt>
      <trkpt lat="44.49157" lon="0.68984">
        <ele>149.9</ele>
        <time>2017-01-22T09:14:43.000Z</time>
      </trkpt>
      <trkpt lat="44.49157" lon="0.68984">
        <ele>149.9</ele>
        <time>2017-01-22T09:14:44.000Z</time>
      </trkpt>
      <trkpt lat="44.49157" lon="0.68984">
        <ele>149.9</ele>
        <time>2017-01-22T09:14:45.000Z</time>
      </trkpt>
      <trkpt lat="44.49157" lon="0.68984">
        <ele>149.9</ele>
        <time>2017-01-22T09:14:46.000Z</time>
      </trkpt>
      <trkpt lat="44.49157" lon="0.68984">
        <ele>149.9</ele>
        <time>2017-01-22T09:14:47.000Z</time>
      </trkpt>
      <trkpt lat="44.49157" lon="0.68984">
        <ele>149.9</ele>
        <time>2017-01-22T09:14:48.000Z</time>
      </trkpt>
      <trkpt lat="44.49157" lon="0.68984">
        <ele>149.9</ele>
        <time>2017-01-22T09:14:49.000Z</time>
      </trkpt>
      <trkpt lat="44.49157" lon="0.68984">
        <ele>149.9</ele>
        <time>2017-01-22T09:14:50.000Z</time>
      </trkpt>
      <trkpt lat="44.49157" lon="0.68984">
        <ele>149.9</ele>
        <time>2017-01-22T09:14:51.000Z</time>
      </trkpt>
      <trkpt lat="44.49158" lon="0.68984">
        <ele>150</ele>
        <time>2017-01-22T09:14:52.000Z</time>
      </trkpt>
      <trkpt lat="44.49158" lon="0.68983">
        <ele>150</ele>
        <time>2017-01-22T09:14:53.000Z</time>
      </trkpt>
      <trkpt lat="44.49159" lon="0.68982">
        <ele>150.1</ele>
        <time>2017-01-22T09:14:54.000Z</time>
      </trkpt>
      <trkpt lat="44.4916" lon="0.6898">
        <ele>150.2</ele>
        <time>2017-01-22T09:14:55.000Z</time>
      </trkpt>
      <trkpt lat="44.49161" lon="0.68978">
        <ele>150.4</ele>
        <time>2017-01-22T09:14:56.000Z</time>
      </trkpt>
      <trkpt lat="44.49162" lon="0.68975">
        <ele>150.6</ele>
        <time>2017-01-22T09:14:57.000Z</time>
      </trkpt>
      <trkpt lat="44.49163" lon="0.68973">
        <ele>150.8</ele>
        <time>2017-01-22T09:14:58.000Z</time>
      </trkpt>
      <trkpt lat="44.49165" lon="0.68971">
        <ele>150.9</ele>
        <time>2017-01-22T09:14:59.000Z</time>
      </trkpt>
      <trkpt lat="44.49166" lon="0.68968">
        <ele>151.1</ele>
        <time>2017-01-22T09:15:00.000Z</time>
      </trkpt>
      <trkpt lat="44.49167" lon="0.68966">
        <ele>151.2</ele>
        <time>2017-01-22T09:15:01.000Z</time>
      </trkpt>
      <trkpt lat="44.49168" lon="0.68964">
        <ele>151.2</ele>
        <time>2017-01-22T09:15:02.000Z</time>
      </trkpt>
      <trkpt lat="44.49169" lon="0.68962">
        <ele>151.2</ele>
        <time>2017-01-22T09:15:03.000Z</time>
      </trkpt>
      <trkpt lat="44.4917" lon="0.68959">
        <ele>151.2</ele>
        <time>2017-01-22T09:15:04.000Z</time>
      </trkpt>
      <trkpt lat="44.4917" lon="0.68957">
        <ele>151.2</ele>
        <time>2017-01-22T09:15:05.000Z</time>
      </trkpt>
      <trkpt lat="44.49171" lon="0.68954">
        <ele>151.2</ele>
        <time>2017-01-22T09:15:06.000Z</time>
      </trkpt>
      <trkpt lat="44.49172" lon="0.68952">
        <ele>151.2</ele>
        <time>2017-01-22T09:15:07.000Z</time>
      </trkpt>
      <trkpt lat="44.49173" lon="0.68949">
        <ele>151.2</ele>
        <time>2017-01-22T09:15:08.000Z</time>
      </trkpt>
      <trkpt lat="44.49174" lon="0.68948">
        <ele>151.2</ele>
        <time>2017-01-22T09:15:09.000Z</time>
      </trkpt>
      <trkpt lat="44.49175" lon="0.68946">
        <ele>151.2</ele>
        <time>2017-01-22T09:15:10.000Z</time>
      </trkpt>
      <trkpt lat="44.49176" lon="0.68944">
        <ele>151.3</ele>
        <time>2017-01-22T09:15:11.000Z</time>
      </trkpt>
      <trkpt lat="44.49177" lon="0.68943">
        <ele>151.3</ele>
        <time>2017-01-22T09:15:12.000Z</time>
      </trkpt>
      <trkpt lat="44.49178" lon="0.68941">
        <ele>151.3</ele>
        <time>2017-01-22T09:15:13.000Z</time>
      </trkpt>
      <trkpt lat="44.49179" lon="0.68939">
        <ele>151.4</ele>
        <time>2017-01-22T09:15:14.000Z</time>
      </trkpt>
      <trkpt lat="44.4918" lon="0.68937">
        <ele>151.4</ele>
        <time>2017-01-22T09:15:15.000Z</time>
      </trkpt>
      <trkpt lat="44.49181" lon="0.68936">
        <ele>151.4</ele>
        <time>2017-01-22T09:15:16.000Z</time>
      </trkpt>
      <trkpt lat="44.49182" lon="0.68933">
        <ele>151.4</ele>
        <time>2017-01-22T09:15:17.000Z</time>
      </trkpt>
      <trkpt lat="44.49182" lon="0.68931">
        <ele>151.4</ele>
        <time>2017-01-22T09:15:18.000Z</time>
      </trkpt>
      <trkpt lat="44.49183" lon="0.68929">
        <ele>151.4</ele>
        <time>2017-01-22T09:15:19.000Z</time>
      </trkpt>
      <trkpt lat="44.49183" lon="0.68927">
        <ele>151.4</ele>
        <time>2017-01-22T09:15:20.000Z</time>
      </trkpt>
      <trkpt lat="44.49184" lon="0.68924">
        <ele>151.4</ele>
        <time>2017-01-22T09:15:21.000Z</time>
      </trkpt>
      <trkpt lat="44.49184" lon="0.68922">
        <ele>151.4</ele>
        <time>2017-01-22T09:15:22.000Z</time>
      </trkpt>
      <trkpt lat="44.49185" lon="0.6892">
        <ele>151.4</ele>
        <time>2017-01-22T09:15:23.000Z</time>
      </trkpt>
      <trkpt lat="44.49186" lon="0.68918">
        <ele>151.4</ele>
        <time>2017-01-22T09:15:24.000Z</time>
      </trkpt>
      <trkpt lat="44.49187" lon="0.68916">
        <ele>151.4</ele>
        <time>2017-01-22T09:15:25.000Z</time>
      </trkpt>
      <trkpt lat="44.49188" lon="0.68914">
        <ele>151.4</ele>
        <time>2017-01-22T09:15:26.000Z</time>
      </trkpt>
      <trkpt lat="44.49189" lon="0.68912">
        <ele>151.4</ele>
        <time>2017-01-22T09:15:27.000Z</time>
      </trkpt>
      <trkpt lat="44.4919" lon="0.6891">
        <ele>151.4</ele>
        <time>2017-01-22T09:15:28.000Z</time>
      </trkpt>
      <trkpt lat="44.49191" lon="0.68909">
        <ele>151.5</ele>
        <time>2017-01-22T09:15:29.000Z</time>
      </trkpt>
      <trkpt lat="44.49192" lon="0.68908">
        <ele>151.5</ele>
        <time>2017-01-22T09:15:30.000Z</time>
      </trkpt>
      <trkpt lat="44.49193" lon="0.68907">
        <ele>151.6</ele>
        <time>2017-01-22T09:15:31.000Z</time>
      </trkpt>
      <trkpt lat="44.49194" lon="0.68907">
        <ele>151.6</ele>
        <time>2017-01-22T09:15:32.000Z</time>
      </trkpt>
      <trkpt lat="44.49195" lon="0.68906">
        <ele>151.6</ele>
        <time>2017-01-22T09:15:33.000Z</time>
      </trkpt>
      <trkpt lat="44.49195" lon="0.68904">
        <ele>151.6</ele>
        <time>2017-01-22T09:15:34.000Z</time>
      </trkpt>
      <trkpt lat="44.49196" lon="0.68901">
        <ele>151.6</ele>
        <time>2017-01-22T09:15:35.000Z</time>
      </trkpt>
      <trkpt lat="44.49197" lon="0.68899">
        <ele>151.6</ele>
        <time>2017-01-22T09:15:36.000Z</time>
      </trkpt>
      <trkpt lat="44.49198" lon="0.68896">
        <ele>151.6</ele>
        <time>2017-01-22T09:15:37.000Z</time>
      </trkpt>
      <trkpt lat="44.49199" lon="0.68893">
        <ele>151.5</ele>
        <time>2017-01-22T09:15:38.000Z</time>
      </trkpt>
      <trkpt lat="44.492" lon="0.68891">
        <ele>151.5</ele>
        <time>2017-01-22T09:15:39.000Z</time>
      </trkpt>
      <trkpt lat="44.49201" lon="0.68888">
        <ele>151.6</ele>
        <time>2017-01-22T09:15:40.000Z</time>
      </trkpt>
      <trkpt lat="44.49203" lon="0.68886">
        <ele>151.6</ele>
        <time>2017-01-22T09:15:41.000Z</time>
      </trkpt>
      <trkpt lat="44.49204" lon="0.68883">
        <ele>151.6</ele>
        <time>2017-01-22T09:15:42.000Z</time>
      </trkpt>
      <trkpt lat="44.49205" lon="0.68881">
        <ele>151.6</ele>
        <time>2017-01-22T09:15:43.000Z</time>
      </trkpt>
      <trkpt lat="44.49205" lon="0.68878">
        <ele>151.6</ele>
        <time>2017-01-22T09:15:44.000Z</time>
      </trkpt>
      <trkpt lat="44.49206" lon="0.68875">
        <ele>151.5</ele>
        <time>2017-01-22T09:15:45.000Z</time>
      </trkpt>
      <trkpt lat="44.49207" lon="0.68872">
        <ele>151.5</ele>
        <time>2017-01-22T09:15:46.000Z</time>
      </trkpt>
      <trkpt lat="44.49207" lon="0.68869">
        <ele>151.5</ele>
        <time>2017-01-22T09:15:47.000Z</time>
      </trkpt>
      <trkpt lat="44.49208" lon="0.68865">
        <ele>151.4</ele>
        <time>2017-01-22T09:15:48.000Z</time>
      </trkpt>
      <trkpt lat="44.49209" lon="0.68862">
        <ele>151.4</ele>
        <time>2017-01-22T09:15:49.000Z</time>
      </trkpt>
      <trkpt lat="44.49209" lon="0.68859">
        <ele>151.3</ele>
        <time>2017-01-22T09:15:50.000Z</time>
      </trkpt>
      <trkpt lat="44.4921" lon="0.68855">
        <ele>151.3</ele>
        <time>2017-01-22T09:15:51.000Z</time>
      </trkpt>
      <trkpt lat="44.49211" lon="0.68852">
        <ele>151.3</ele>
        <time>2017-01-22T09:15:52.000Z</time>
      </trkpt>
      <trkpt lat="44.49211" lon="0.68849">
        <ele>151.3</ele>
        <time>2017-01-22T09:15:53.000Z</time>
      </trkpt>
      <trkpt lat="44.49212" lon="0.68846">
        <ele>151.3</ele>
        <time>2017-01-22T09:15:54.000Z</time>
      </trkpt>
      <trkpt lat="44.49213" lon="0.68843">
        <ele>151.3</ele>
        <time>2017-01-22T09:15:55.000Z</time>
      </trkpt>
      <trkpt lat="44.49214" lon="0.6884">
        <ele>151.3</ele>
        <time>2017-01-22T09:15:56.000Z</time>
      </trkpt>
      <trkpt lat="44.49215" lon="0.68837">
        <ele>151.3</ele>
        <time>2017-01-22T09:15:57.000Z</time>
      </trkpt>
      <trkpt lat="44.49216" lon="0.68835">
        <ele>151.3</ele>
        <time>2017-01-22T09:15:58.000Z</time>
      </trkpt>
      <trkpt lat="44.49216" lon="0.68832">
        <ele>151.3</ele>
        <time>2017-01-22T09:15:59.000Z</time>
      </trkpt>
      <trkpt lat="44.49217" lon="0.68829">
        <ele>151.4</ele>
        <time>2017-01-22T09:16:00.000Z</time>
      </trkpt>
      <trkpt lat="44.49218" lon="0.68826">
        <ele>151.4</ele>
        <time>2017-01-22T09:16:01.000Z</time>
      </trkpt>
      <trkpt lat="44.49219" lon="0.68823">
        <ele>151.4</ele>
        <time>2017-01-22T09:16:02.000Z</time>
      </trkpt>
      <trkpt lat="44.49219" lon="0.6882">
        <ele>151.4</ele>
        <time>2017-01-22T09:16:03.000Z</time>
      </trkpt>
      <trkpt lat="44.4922" lon="0.68817">
        <ele>151.4</ele>
        <time>2017-01-22T09:16:04.000Z</time>
      </trkpt>
      <trkpt lat="44.49221" lon="0.68814">
        <ele>151.4</ele>
        <time>2017-01-22T09:16:05.000Z</time>
      </trkpt>
      <trkpt lat="44.49222" lon="0.68811">
        <ele>151.5</ele>
        <time>2017-01-22T09:16:06.000Z</time>
      </trkpt>
      <trkpt lat="44.49223" lon="0.68808">
        <ele>151.5</ele>
        <time>2017-01-22T09:16:07.000Z</time>
      </trkpt>
      <trkpt lat="44.49224" lon="0.68805">
        <ele>151.5</ele>
        <time>2017-01-22T09:16:08.000Z</time>
      </trkpt>
      <trkpt lat="44.49225" lon="0.68802">
        <ele>151.5</ele>
        <time>2017-01-22T09:16:09.000Z</time>
      </trkpt>
      <trkpt lat="44.49225" lon="0.688">
        <ele>151.5</ele>
        <time>2017-01-22T09:16:10.000Z</time>
      </trkpt>
      <trkpt lat="44.49226" lon="0.68797">
        <ele>151.5</ele>
        <time>2017-01-22T09:16:11.000Z</time>
      </trkpt>
      <trkpt lat="44.49226" lon="0.68794">
        <ele>151.4</ele>
        <time>2017-01-22T09:16:12.000Z</time>
      </trkpt>
      <trkpt lat="44.49227" lon="0.68792">
        <ele>151.4</ele>
        <time>2017-01-22T09:16:13.000Z</time>
      </trkpt>
      <trkpt lat="44.49228" lon="0.68789">
        <ele>151.4</ele>
        <time>2017-01-22T09:16:14.000Z</time>
      </trkpt>
      <trkpt lat="44.49228" lon="0.68787">
        <ele>151.4</ele>
        <time>2017-01-22T09:16:15.000Z</time>
      </trkpt>
      <trkpt lat="44.49229" lon="0.68784">
        <ele>151.4</ele>
        <time>2017-01-22T09:16:16.000Z</time>
      </trkpt>
      <trkpt lat="44.49229" lon="0.68781">
        <ele>151.4</ele>
        <time>2017-01-22T09:16:17.000Z</time>
      </trkpt>
      <trkpt lat="44.4923" lon="0.68778">
        <ele>151.4</ele>
        <time>2017-01-22T09:16:18.000Z</time>
      </trkpt>
      <trkpt lat="44.49231" lon="0.68775">
        <ele>151.3</ele>
        <time>2017-01-22T09:16:19.000Z</time>
      </trkpt>
      <trkpt lat="44.49232" lon="0.68772">
        <ele>151.3</ele>
        <time>2017-01-22T09:16:20.000Z</time>
      </trkpt>
      <trkpt lat="44.49233" lon="0.68769">
        <ele>151.3</ele>
        <time>2017-01-22T09:16:21.000Z</time>
      </trkpt>
      <trkpt lat="44.49234" lon="0.68765">
        <ele>151.3</ele>
        <time>2017-01-22T09:16:22.000Z</time>
      </trkpt>
      <trkpt lat="44.49235" lon="0.68762">
        <ele>151.3</ele>
        <time>2017-01-22T09:16:23.000Z</time>
      </trkpt>
      <trkpt lat="44.49236" lon="0.68759">
        <ele>151.3</ele>
        <time>2017-01-22T09:16:24.000Z</time>
      </trkpt>
      <trkpt lat="44.49237" lon="0.68756">
        <ele>151.3</ele>
        <time>2017-01-22T09:16:25.000Z</time>
      </trkpt>
      <trkpt lat="44.49238" lon="0.68753">
        <ele>151.2</ele>
        <time>2017-01-22T09:16:26.000Z</time>
      </trkpt>
      <trkpt lat="44.49239" lon="0.68751">
        <ele>151.2</ele>
        <time>2017-01-22T09:16:27.000Z</time>
      </trkpt>
      <trkpt lat="44.49239" lon="0.68748">
        <ele>151.2</ele>
        <time>2017-01-22T09:16:28.000Z</time>
      </trkpt>
      <trkpt lat="44.4924" lon="0.68745">
        <ele>151.2</ele>
        <time>2017-01-22T09:16:29.000Z</time>
      </trkpt>
      <trkpt lat="44.49241" lon="0.68742">
        <ele>151.2</ele>
        <time>2017-01-22T09:16:30.000Z</time>
      </trkpt>
      <trkpt lat="44.49242" lon="0.68739">
        <ele>151.2</ele>
        <time>2017-01-22T09:16:31.000Z</time>
      </trkpt>
      <trkpt lat="44.49243" lon="0.68736">
        <ele>151.3</ele>
        <time>2017-01-22T09:16:32.000Z</time>
      </trkpt>
      <trkpt lat="44.49244" lon="0.68733">
        <ele>151.3</ele>
        <time>2017-01-22T09:16:33.000Z</time>
      </trkpt>
      <trkpt lat="44.49246" lon="0.6873">
        <ele>151.4</ele>
        <time>2017-01-22T09:16:34.000Z</time>
      </trkpt>
      <trkpt lat="44.49247" lon="0.68727">
        <ele>151.4</ele>
        <time>2017-01-22T09:16:35.000Z</time>
      </trkpt>
      <trkpt lat="44.49248" lon="0.68723">
        <ele>151.5</ele>
        <time>2017-01-22T09:16:36.000Z</time>
      </trkpt>
      <trkpt lat="44.49249" lon="0.6872">
        <ele>151.6</ele>
        <time>2017-01-22T09:16:37.000Z</time>
      </trkpt>
      <trkpt lat="44.49251" lon="0.68717">
        <ele>151.6</ele>
        <time>2017-01-22T09:16:38.000Z</time>
      </trkpt>
      <trkpt lat="44.49252" lon="0.68714">
        <ele>151.6</ele>
        <time>2017-01-22T09:16:39.000Z</time>
      </trkpt>
      <trkpt lat="44.49253" lon="0.68711">
        <ele>151.5</ele>
        <time>2017-01-22T09:16:40.000Z</time>
      </trkpt>
      <trkpt lat="44.49254" lon="0.68707">
        <ele>151.5</ele>
        <time>2017-01-22T09:16:41.000Z</time>
      </trkpt>
      <trkpt lat="44.49256" lon="0.68704">
        <ele>151.5</ele>
        <time>2017-01-22T09:16:42.000Z</time>
      </trkpt>
      <trkpt lat="44.49257" lon="0.68701">
        <ele>151.5</ele>
        <time>2017-01-22T09:16:43.000Z</time>
      </trkpt>
      <trkpt lat="44.49258" lon="0.68698">
        <ele>151.5</ele>
        <time>2017-01-22T09:16:44.000Z</time>
      </trkpt>
      <trkpt lat="44.4926" lon="0.68695">
        <ele>151.5</ele>
        <time>2017-01-22T09:16:45.000Z</time>
      </trkpt>
      <trkpt lat="44.49261" lon="0.68691">
        <ele>151.5</ele>
        <time>2017-01-22T09:16:46.000Z</time>
      </trkpt>
      <trkpt lat="44.49263" lon="0.68688">
        <ele>151.5</ele>
        <time>2017-01-22T09:16:47.000Z</time>
      </trkpt>
      <trkpt lat="44.49264" lon="0.68685">
        <ele>151.5</ele>
        <time>2017-01-22T09:16:48.000Z</time>
      </trkpt>
      <trkpt lat="44.49266" lon="0.68682">
        <ele>151.6</ele>
        <time>2017-01-22T09:16:49.000Z</time>
      </trkpt>
      <trkpt lat="44.49267" lon="0.68678">
        <ele>151.6</ele>
        <time>2017-01-22T09:16:50.000Z</time>
      </trkpt>
      <trkpt lat="44.49268" lon="0.68675">
        <ele>151.6</ele>
        <time>2017-01-22T09:16:51.000Z</time>
      </trkpt>
      <trkpt lat="44.49269" lon="0.68672">
        <ele>151.7</ele>
        <time>2017-01-22T09:16:52.000Z</time>
      </trkpt>
      <trkpt lat="44.49271" lon="0.6867">
        <ele>151.7</ele>
        <time>2017-01-22T09:16:53.000Z</time>
      </trkpt>
      <trkpt lat="44.49272" lon="0.68667">
        <ele>151.8</ele>
        <time>2017-01-22T09:16:54.000Z</time>
      </trkpt>
      <trkpt lat="44.49273" lon="0.68664">
        <ele>151.8</ele>
        <time>2017-01-22T09:16:55.000Z</time>
      </trkpt>
      <trkpt lat="44.49275" lon="0.68661">
        <ele>151.8</ele>
        <time>2017-01-22T09:16:56.000Z</time>
      </trkpt>
      <trkpt lat="44.49276" lon="0.68658">
        <ele>151.8</ele>
        <time>2017-01-22T09:16:57.000Z</time>
      </trkpt>
      <trkpt lat="44.49278" lon="0.68655">
        <ele>151.9</ele>
        <time>2017-01-22T09:16:58.000Z</time>
      </trkpt>
      <trkpt lat="44.4928" lon="0.68652">
        <ele>151.9</ele>
        <time>2017-01-22T09:16:59.000Z</time>
      </trkpt>
      <trkpt lat="44.49282" lon="0.68649">
        <ele>152</ele>
        <time>2017-01-22T09:17:00.000Z</time>
      </trkpt>
      <trkpt lat="44.49284" lon="0.68646">
        <ele>152.1</ele>
        <time>2017-01-22T09:17:01.000Z</time>
      </trkpt>
      <trkpt lat="44.49286" lon="0.68643">
        <ele>152.2</ele>
        <time>2017-01-22T09:17:02.000Z</time>
      </trkpt>
      <trkpt lat="44.49288" lon="0.6864">
        <ele>152.4</ele>
        <time>2017-01-22T09:17:03.000Z</time>
      </trkpt>
      <trkpt lat="44.4929" lon="0.68637">
        <ele>152.5</ele>
        <time>2017-01-22T09:17:04.000Z</time>
      </trkpt>
      <trkpt lat="44.49291" lon="0.68634">
        <ele>152.7</ele>
        <time>2017-01-22T09:17:05.000Z</time>
      </trkpt>
      <trkpt lat="44.49293" lon="0.68631">
        <ele>152.9</ele>
        <time>2017-01-22T09:17:06.000Z</time>
      </trkpt>
      <trkpt lat="44.49295" lon="0.68629">
        <ele>153</ele>
        <time>2017-01-22T09:17:07.000Z</time>
      </trkpt>
      <trkpt lat="44.49297" lon="0.68626">
        <ele>153.2</ele>
        <time>2017-01-22T09:17:08.000Z</time>
      </trkpt>
      <trkpt lat="44.49299" lon="0.68623">
        <ele>153.4</ele>
        <time>2017-01-22T09:17:09.000Z</time>
      </trkpt>
      <trkpt lat="44.49301" lon="0.68621">
        <ele>153.7</ele>
        <time>2017-01-22T09:17:10.000Z</time>
      </trkpt>
      <trkpt lat="44.49303" lon="0.68618">
        <ele>153.9</ele>
        <time>2017-01-22T09:17:11.000Z</time>
      </trkpt>
      <trkpt lat="44.49304" lon="0.68615">
        <ele>154.1</ele>
        <time>2017-01-22T09:17:12.000Z</time>
      </trkpt>
      <trkpt lat="44.49306" lon="0.68612">
        <ele>154.3</ele>
        <time>2017-01-22T09:17:13.000Z</time>
      </trkpt>
      <trkpt lat="44.49307" lon="0.68608">
        <ele>154.6</ele>
        <time>2017-01-22T09:17:14.000Z</time>
      </trkpt>
      <trkpt lat="44.49309" lon="0.68605">
        <ele>154.9</ele>
        <time>2017-01-22T09:17:15.000Z</time>
      </trkpt>
      <trkpt lat="44.4931" lon="0.68602">
        <ele>155.1</ele>
        <time>2017-01-22T09:17:16.000Z</time>
      </trkpt>
      <trkpt lat="44.49312" lon="0.68598">
        <ele>155.5</ele>
        <time>2017-01-22T09:17:17.000Z</time>
      </trkpt>
      <trkpt lat="44.49314" lon="0.68595">
        <ele>155.8</ele>
        <time>2017-01-22T09:17:18.000Z</time>
      </trkpt>
      <trkpt lat="44.49316" lon="0.68592">
        <ele>156.2</ele>
        <time>2017-01-22T09:17:19.000Z</time>
      </trkpt>
      <trkpt lat="44.49319" lon="0.68589">
        <ele>156.6</ele>
        <time>2017-01-22T09:17:20.000Z</time>
      </trkpt>
      <trkpt lat="44.49321" lon="0.68586">
        <ele>157.1</ele>
        <time>2017-01-22T09:17:21.000Z</time>
      </trkpt>
      <trkpt lat="44.49323" lon="0.68583">
        <ele>157.5</ele>
        <time>2017-01-22T09:17:22.000Z</time>
      </trkpt>
      <trkpt lat="44.49326" lon="0.6858">
        <ele>157.7</ele>
        <time>2017-01-22T09:17:23.000Z</time>
      </trkpt>
      <trkpt lat="44.49328" lon="0.68577">
        <ele>157.9</ele>
        <time>2017-01-22T09:17:24.000Z</time>
      </trkpt>
      <trkpt lat="44.4933" lon="0.68573">
        <ele>158.1</ele>
        <time>2017-01-22T09:17:25.000Z</time>
      </trkpt>
      <trkpt lat="44.49332" lon="0.6857">
        <ele>158.3</ele>
        <time>2017-01-22T09:17:26.000Z</time>
      </trkpt>
      <trkpt lat="44.49334" lon="0.68567">
        <ele>158.4</ele>
        <time>2017-01-22T09:17:27.000Z</time>
      </trkpt>
      <trkpt lat="44.49336" lon="0.68563">
        <ele>158.2</ele>
        <time>2017-01-22T09:17:28.000Z</time>
      </trkpt>
      <trkpt lat="44.49338" lon="0.6856">
        <ele>158.1</ele>
        <time>2017-01-22T09:17:29.000Z</time>
      </trkpt>
      <trkpt lat="44.49339" lon="0.68557">
        <ele>157.9</ele>
        <time>2017-01-22T09:17:30.000Z</time>
      </trkpt>
      <trkpt lat="44.49341" lon="0.68553">
        <ele>157.7</ele>
        <time>2017-01-22T09:17:31.000Z</time>
      </trkpt>
      <trkpt lat="44.49343" lon="0.6855">
        <ele>157.6</ele>
        <time>2017-01-22T09:17:32.000Z</time>
      </trkpt>
      <trkpt lat="44.49345" lon="0.68547">
        <ele>157.5</ele>
        <time>2017-01-22T09:17:33.000Z</time>
      </trkpt>
      <trkpt lat="44.49347" lon="0.68544">
        <ele>157.3</ele>
        <time>2017-01-22T09:17:34.000Z</time>
      </trkpt>
      <trkpt lat="44.49348" lon="0.6854">
        <ele>157.2</ele>
        <time>2017-01-22T09:17:35.000Z</time>
      </trkpt>
      <trkpt lat="44.4935" lon="0.68537">
        <ele>157.1</ele>
        <time>2017-01-22T09:17:36.000Z</time>
      </trkpt>
      <trkpt lat="44.49353" lon="0.68533">
        <ele>156.9</ele>
        <time>2017-01-22T09:17:37.000Z</time>
      </trkpt>
      <trkpt lat="44.49355" lon="0.68529">
        <ele>156.8</ele>
        <time>2017-01-22T09:17:38.000Z</time>
      </trkpt>
      <trkpt lat="44.49357" lon="0.68526">
        <ele>156.7</ele>
        <time>2017-01-22T09:17:39.000Z</time>
      </trkpt>
      <trkpt lat="44.4936" lon="0.68522">
        <ele>156.5</ele>
        <time>2017-01-22T09:17:40.000Z</time>
      </trkpt>
      <trkpt lat="44.49363" lon="0.68518">
        <ele>156.4</ele>
        <time>2017-01-22T09:17:41.000Z</time>
      </trkpt>
      <trkpt lat="44.49365" lon="0.68513">
        <ele>156.3</ele>
        <time>2017-01-22T09:17:42.000Z</time>
      </trkpt>
      <trkpt lat="44.49369" lon="0.68509">
        <ele>156.2</ele>
        <time>2017-01-22T09:17:43.000Z</time>
      </trkpt>
      <trkpt lat="44.49372" lon="0.68504">
        <ele>156.1</ele>
        <time>2017-01-22T09:17:44.000Z</time>
      </trkpt>
      <trkpt lat="44.49374" lon="0.68499">
        <ele>155.9</ele>
        <time>2017-01-22T09:17:45.000Z</time>
      </trkpt>
      <trkpt lat="44.49377" lon="0.68494">
        <ele>155.6</ele>
        <time>2017-01-22T09:17:46.000Z</time>
      </trkpt>
      <trkpt lat="44.4938" lon="0.68488">
        <ele>155.2</ele>
        <time>2017-01-22T09:17:47.000Z</time>
      </trkpt>
      <trkpt lat="44.49382" lon="0.68483">
        <ele>154.8</ele>
        <time>2017-01-22T09:17:48.000Z</time>
      </trkpt>
      <trkpt lat="44.49385" lon="0.68477">
        <ele>154.4</ele>
        <time>2017-01-22T09:17:49.000Z</time>
      </trkpt>
      <trkpt lat="44.49388" lon="0.68472">
        <ele>154.1</ele>
        <time>2017-01-22T09:17:50.000Z</time>
      </trkpt>
      <trkpt lat="44.4939" lon="0.68466">
        <ele>153.7</ele>
        <time>2017-01-22T09:17:51.000Z</time>
      </trkpt>
      <trkpt lat="44.49392" lon="0.6846">
        <ele>153.3</ele>
        <time>2017-01-22T09:17:52.000Z</time>
      </trkpt>
      <trkpt lat="44.49395" lon="0.68454">
        <ele>153</ele>
        <time>2017-01-22T09:17:53.000Z</time>
      </trkpt>
      <trkpt lat="44.49397" lon="0.68449">
        <ele>152.6</ele>
        <time>2017-01-22T09:17:54.000Z</time>
      </trkpt>
      <trkpt lat="44.49399" lon="0.68443">
        <ele>152.3</ele>
        <time>2017-01-22T09:17:55.000Z</time>
      </trkpt>
      <trkpt lat="44.49401" lon="0.68437">
        <ele>151.9</ele>
        <time>2017-01-22T09:17:56.000Z</time>
      </trkpt>
      <trkpt lat="44.49403" lon="0.68431">
        <ele>151.6</ele>
        <time>2017-01-22T09:17:57.000Z</time>
      </trkpt>
      <trkpt lat="44.49404" lon="0.68425">
        <ele>151.3</ele>
        <time>2017-01-22T09:17:58.000Z</time>
      </trkpt>
      <trkpt lat="44.49405" lon="0.6842">
        <ele>150.9</ele>
        <time>2017-01-22T09:17:59.000Z</time>
      </trkpt>
      <trkpt lat="44.49406" lon="0.68414">
        <ele>150.8</ele>
        <time>2017-01-22T09:18:00.000Z</time>
      </trkpt>
      <trkpt lat="44.49407" lon="0.68408">
        <ele>151</ele>
        <time>2017-01-22T09:18:01.000Z</time>
      </trkpt>
      <trkpt lat="44.49408" lon="0.68403">
        <ele>151.2</ele>
        <time>2017-01-22T09:18:02.000Z</time>
      </trkpt>
      <trkpt lat="44.49409" lon="0.68397">
        <ele>151.4</ele>
        <time>2017-01-22T09:18:03.000Z</time>
      </trkpt>
      <trkpt lat="44.49409" lon="0.68392">
        <ele>151.6</ele>
        <time>2017-01-22T09:18:04.000Z</time>
      </trkpt>
      <trkpt lat="44.4941" lon="0.68387">
        <ele>151.8</ele>
        <time>2017-01-22T09:18:05.000Z</time>
      </trkpt>
      <trkpt lat="44.49411" lon="0.68382">
        <ele>152</ele>
        <time>2017-01-22T09:18:06.000Z</time>
      </trkpt>
      <trkpt lat="44.49412" lon="0.68377">
        <ele>152.2</ele>
        <time>2017-01-22T09:18:07.000Z</time>
      </trkpt>
      <trkpt lat="44.49414" lon="0.68372">
        <ele>152.4</ele>
        <time>2017-01-22T09:18:08.000Z</time>
      </trkpt>
      <trkpt lat="44.49415" lon="0.68368">
        <ele>152.7</ele>
        <time>2017-01-22T09:18:09.000Z</time>
      </trkpt>
      <trkpt lat="44.49417" lon="0.68363">
        <ele>152.9</ele>
        <time>2017-01-22T09:18:10.000Z</time>
      </trkpt>
      <trkpt lat="44.49418" lon="0.68359">
        <ele>153.1</ele>
        <time>2017-01-22T09:18:11.000Z</time>
      </trkpt>
      <trkpt lat="44.4942" lon="0.68354">
        <ele>153.2</ele>
        <time>2017-01-22T09:18:12.000Z</time>
      </trkpt>
      <trkpt lat="44.49421" lon="0.6835">
        <ele>153.4</ele>
        <time>2017-01-22T09:18:13.000Z</time>
      </trkpt>
      <trkpt lat="44.49422" lon="0.68345">
        <ele>153.6</ele>
        <time>2017-01-22T09:18:14.000Z</time>
      </trkpt>
      <trkpt lat="44.49423" lon="0.68341">
        <ele>153.8</ele>
        <time>2017-01-22T09:18:15.000Z</time>
      </trkpt>
      <trkpt lat="44.49423" lon="0.68336">
        <ele>154</ele>
        <time>2017-01-22T09:18:16.000Z</time>
      </trkpt>
      <trkpt lat="44.49424" lon="0.68332">
        <ele>154.2</ele>
        <time>2017-01-22T09:18:17.000Z</time>
      </trkpt>
      <trkpt lat="44.49425" lon="0.68328">
        <ele>154.4</ele>
        <time>2017-01-22T09:18:18.000Z</time>
      </trkpt>
      <trkpt lat="44.49426" lon="0.68324">
        <ele>154.7</ele>
        <time>2017-01-22T09:18:19.000Z</time>
      </trkpt>
      <trkpt lat="44.49427" lon="0.6832">
        <ele>154.9</ele>
        <time>2017-01-22T09:18:20.000Z</time>
      </trkpt>
      <trkpt lat="44.49428" lon="0.68316">
        <ele>155.1</ele>
        <time>2017-01-22T09:18:21.000Z</time>
      </trkpt>
      <trkpt lat="44.49429" lon="0.68313">
        <ele>155.3</ele>
        <time>2017-01-22T09:18:22.000Z</time>
      </trkpt>
      <trkpt lat="44.49429" lon="0.6831">
        <ele>155.5</ele>
        <time>2017-01-22T09:18:23.000Z</time>
      </trkpt>
      <trkpt lat="44.4943" lon="0.68307">
        <ele>155.6</ele>
        <time>2017-01-22T09:18:24.000Z</time>
      </trkpt>
      <trkpt lat="44.49431" lon="0.68304">
        <ele>155.8</ele>
        <time>2017-01-22T09:18:25.000Z</time>
      </trkpt>
      <trkpt lat="44.49431" lon="0.68301">
        <ele>156</ele>
        <time>2017-01-22T09:18:26.000Z</time>
      </trkpt>
      <trkpt lat="44.49432" lon="0.68299">
        <ele>156.1</ele>
        <time>2017-01-22T09:18:27.000Z</time>
      </trkpt>
      <trkpt lat="44.49432" lon="0.68296">
        <ele>156.3</ele>
        <time>2017-01-22T09:18:28.000Z</time>
      </trkpt>
      <trkpt lat="44.49433" lon="0.68293">
        <ele>156.4</ele>
        <time>2017-01-22T09:18:29.000Z</time>
      </trkpt>
      <trkpt lat="44.49434" lon="0.6829">
        <ele>156.6</ele>
        <time>2017-01-22T09:18:30.000Z</time>
      </trkpt>
      <trkpt lat="44.49434" lon="0.68288">
        <ele>156.7</ele>
        <time>2017-01-22T09:18:31.000Z</time>
      </trkpt>
      <trkpt lat="44.49434" lon="0.68285">
        <ele>156.9</ele>
        <time>2017-01-22T09:18:32.000Z</time>
      </trkpt>
      <trkpt lat="44.49435" lon="0.68282">
        <ele>157</ele>
        <time>2017-01-22T09:18:33.000Z</time>
      </trkpt>
      <trkpt lat="44.49435" lon="0.6828">
        <ele>157.2</ele>
        <time>2017-01-22T09:18:34.000Z</time>
      </trkpt>
      <trkpt lat="44.49435" lon="0.68277">
        <ele>157.3</ele>
        <time>2017-01-22T09:18:35.000Z</time>
      </trkpt>
      <trkpt lat="44.49435" lon="0.68275">
        <ele>157.4</ele>
        <time>2017-01-22T09:18:36.000Z</time>
      </trkpt>
      <trkpt lat="44.49435" lon="0.68273">
        <ele>157.5</ele>
        <time>2017-01-22T09:18:37.000Z</time>
      </trkpt>
      <trkpt lat="44.49435" lon="0.68271">
        <ele>157.6</ele>
        <time>2017-01-22T09:18:38.000Z</time>
      </trkpt>
      <trkpt lat="44.49436" lon="0.68269">
        <ele>157.7</ele>
        <time>2017-01-22T09:18:39.000Z</time>
      </trkpt>
      <trkpt lat="44.49436" lon="0.68267">
        <ele>157.8</ele>
        <time>2017-01-22T09:18:40.000Z</time>
      </trkpt>
      <trkpt lat="44.49437" lon="0.68265">
        <ele>157.9</ele>
        <time>2017-01-22T09:18:41.000Z</time>
      </trkpt>
      <trkpt lat="44.49438" lon="0.68264">
        <ele>158</ele>
        <time>2017-01-22T09:18:42.000Z</time>
      </trkpt>
      <trkpt lat="44.49439" lon="0.68262">
        <ele>158.1</ele>
        <time>2017-01-22T09:18:43.000Z</time>
      </trkpt>
      <trkpt lat="44.4944" lon="0.68261">
        <ele>158.2</ele>
        <time>2017-01-22T09:18:44.000Z</time>
      </trkpt>
      <trkpt lat="44.49441" lon="0.68259">
        <ele>158.2</ele>
        <time>2017-01-22T09:18:45.000Z</time>
      </trkpt>
      <trkpt lat="44.49442" lon="0.68257">
        <ele>158.3</ele>
        <time>2017-01-22T09:18:46.000Z</time>
      </trkpt>
      <trkpt lat="44.49443" lon="0.68255">
        <ele>158.4</ele>
        <time>2017-01-22T09:18:47.000Z</time>
      </trkpt>
      <trkpt lat="44.49443" lon="0.68253">
        <ele>158.5</ele>
        <time>2017-01-22T09:18:48.000Z</time>
      </trkpt>
      <trkpt lat="44.49444" lon="0.68251">
        <ele>158.6</ele>
        <time>2017-01-22T09:18:49.000Z</time>
      </trkpt>
      <trkpt lat="44.49445" lon="0.68249">
        <ele>158.7</ele>
        <time>2017-01-22T09:18:50.000Z</time>
      </trkpt>
      <trkpt lat="44.49446" lon="0.68247">
        <ele>158.7</ele>
        <time>2017-01-22T09:18:51.000Z</time>
      </trkpt>
      <trkpt lat="44.49447" lon="0.68245">
        <ele>158.7</ele>
        <time>2017-01-22T09:18:52.000Z</time>
      </trkpt>
      <trkpt lat="44.49448" lon="0.68243">
        <ele>158.7</ele>
        <time>2017-01-22T09:18:53.000Z</time>
      </trkpt>
      <trkpt lat="44.49449" lon="0.68241">
        <ele>158.8</ele>
        <time>2017-01-22T09:18:54.000Z</time>
      </trkpt>
      <trkpt lat="44.4945" lon="0.68239">
        <ele>158.8</ele>
        <time>2017-01-22T09:18:55.000Z</time>
      </trkpt>
      <trkpt lat="44.49452" lon="0.68237">
        <ele>158.8</ele>
        <time>2017-01-22T09:18:56.000Z</time>
      </trkpt>
      <trkpt lat="44.49453" lon="0.68236">
        <ele>158.8</ele>
        <time>2017-01-22T09:18:57.000Z</time>
      </trkpt>
      <trkpt lat="44.49454" lon="0.68234">
        <ele>158.9</ele>
        <time>2017-01-22T09:18:58.000Z</time>
      </trkpt>
      <trkpt lat="44.49455" lon="0.68232">
        <ele>158.9</ele>
        <time>2017-01-22T09:18:59.000Z</time>
      </trkpt>
      <trkpt lat="44.49457" lon="0.6823">
        <ele>159</ele>
        <time>2017-01-22T09:19:00.000Z</time>
      </trkpt>
      <trkpt lat="44.49458" lon="0.68229">
        <ele>159</ele>
        <time>2017-01-22T09:19:01.000Z</time>
      </trkpt>
      <trkpt lat="44.49459" lon="0.68227">
        <ele>159.1</ele>
        <time>2017-01-22T09:19:02.000Z</time>
      </trkpt>
      <trkpt lat="44.4946" lon="0.68225">
        <ele>159.1</ele>
        <time>2017-01-22T09:19:03.000Z</time>
      </trkpt>
      <trkpt lat="44.49461" lon="0.68224">
        <ele>159.2</ele>
        <time>2017-01-22T09:19:04.000Z</time>
      </trkpt>
      <trkpt lat="44.49462" lon="0.68222">
        <ele>159.2</ele>
        <time>2017-01-22T09:19:05.000Z</time>
      </trkpt>
      <trkpt lat="44.49463" lon="0.68221">
        <ele>159.3</ele>
        <time>2017-01-22T09:19:06.000Z</time>
      </trkpt>
      <trkpt lat="44.49465" lon="0.68219">
        <ele>159.3</ele>
        <time>2017-01-22T09:19:07.000Z</time>
      </trkpt>
      <trkpt lat="44.49466" lon="0.68217">
        <ele>159.4</ele>
        <time>2017-01-22T09:19:08.000Z</time>
      </trkpt>
      <trkpt lat="44.49467" lon="0.68216">
        <ele>159.5</ele>
        <time>2017-01-22T09:19:09.000Z</time>
      </trkpt>
      <trkpt lat="44.49468" lon="0.68214">
        <ele>159.6</ele>
        <time>2017-01-22T09:19:10.000Z</time>
      </trkpt>
      <trkpt lat="44.49469" lon="0.68212">
        <ele>159.6</ele>
        <time>2017-01-22T09:19:11.000Z</time>
      </trkpt>
      <trkpt lat="44.49471" lon="0.6821">
        <ele>159.7</ele>
        <time>2017-01-22T09:19:12.000Z</time>
      </trkpt>
      <trkpt lat="44.49472" lon="0.68208">
        <ele>159.8</ele>
        <time>2017-01-22T09:19:13.000Z</time>
      </trkpt>
      <trkpt lat="44.49473" lon="0.68206">
        <ele>159.9</ele>
        <time>2017-01-22T09:19:14.000Z</time>
      </trkpt>
      <trkpt lat="44.49475" lon="0.68204">
        <ele>160</ele>
        <time>2017-01-22T09:19:15.000Z</time>
      </trkpt>
      <trkpt lat="44.49476" lon="0.68202">
        <ele>160.2</ele>
        <time>2017-01-22T09:19:16.000Z</time>
      </trkpt>
      <trkpt lat="44.49477" lon="0.682">
        <ele>160.3</ele>
        <time>2017-01-22T09:19:17.000Z</time>
      </trkpt>
      <trkpt lat="44.49479" lon="0.68198">
        <ele>160.4</ele>
        <time>2017-01-22T09:19:18.000Z</time>
      </trkpt>
      <trkpt lat="44.4948" lon="0.68196">
        <ele>160.6</ele>
        <time>2017-01-22T09:19:19.000Z</time>
      </trkpt>
      <trkpt lat="44.49481" lon="0.68194">
        <ele>160.7</ele>
        <time>2017-01-22T09:19:20.000Z</time>
      </trkpt>
      <trkpt lat="44.49483" lon="0.68191">
        <ele>160.8</ele>
        <time>2017-01-22T09:19:21.000Z</time>
      </trkpt>
      <trkpt lat="44.49484" lon="0.68189">
        <ele>161</ele>
        <time>2017-01-22T09:19:22.000Z</time>
      </trkpt>
      <trkpt lat="44.49485" lon="0.68187">
        <ele>161.2</ele>
        <time>2017-01-22T09:19:23.000Z</time>
      </trkpt>
      <trkpt lat="44.49487" lon="0.68185">
        <ele>161.3</ele>
        <time>2017-01-22T09:19:24.000Z</time>
      </trkpt>
      <trkpt lat="44.49488" lon="0.68183">
        <ele>161.5</ele>
        <time>2017-01-22T09:19:25.000Z</time>
      </trkpt>
      <trkpt lat="44.4949" lon="0.68181">
        <ele>161.6</ele>
        <time>2017-01-22T09:19:26.000Z</time>
      </trkpt>
      <trkpt lat="44.49491" lon="0.68179">
        <ele>161.8</ele>
        <time>2017-01-22T09:19:27.000Z</time>
      </trkpt>
      <trkpt lat="44.49492" lon="0.68178">
        <ele>161.9</ele>
        <time>2017-01-22T09:19:28.000Z</time>
      </trkpt>
      <trkpt lat="44.49493" lon="0.68177">
        <ele>162</ele>
        <time>2017-01-22T09:19:29.000Z</time>
      </trkpt>
      <trkpt lat="44.49493" lon="0.68176">
        <ele>162.1</ele>
        <time>2017-01-22T09:19:30.000Z</time>
      </trkpt>
      <trkpt lat="44.49493" lon="0.68176">
        <ele>162.1</ele>
        <time>2017-01-22T09:19:31.000Z</time>
      </trkpt>
      <trkpt lat="44.49494" lon="0.68176">
        <ele>162.1</ele>
        <time>2017-01-22T09:19:32.000Z</time>
      </trkpt>
      <trkpt lat="44.49494" lon="0.68175">
        <ele>162.2</ele>
        <time>2017-01-22T09:19:33.000Z</time>
      </trkpt>
      <trkpt lat="44.49494" lon="0.68175">
        <ele>162.2</ele>
        <time>2017-01-22T09:19:34.000Z</time>
      </trkpt>
      <trkpt lat="44.49494" lon="0.68175">
        <ele>162.2</ele>
        <time>2017-01-22T09:19:35.000Z</time>
      </trkpt>
      <trkpt lat="44.49494" lon="0.68175">
        <ele>162.2</ele>
        <time>2017-01-22T09:19:36.000Z</time>
      </trkpt>
      <trkpt lat="44.49494" lon="0.68175">
        <ele>162.2</ele>
        <time>2017-01-22T09:19:37.000Z</time>
      </trkpt>
      <trkpt lat="44.49494" lon="0.68174">
        <ele>162.2</ele>
        <time>2017-01-22T09:19:38.000Z</time>
      </trkpt>
      <trkpt lat="44.49494" lon="0.68174">
        <ele>162.2</ele>
        <time>2017-01-22T09:19:39.000Z</time>
      </trkpt>
      <trkpt lat="44.49494" lon="0.68174">
        <ele>162.2</ele>
        <time>2017-01-22T09:19:40.000Z</time>
      </trkpt>
      <trkpt lat="44.49494" lon="0.68174">
        <ele>162.2</ele>
        <time>2017-01-22T09:19:41.000Z</time>
      </trkpt>
      <trkpt lat="44.49494" lon="0.68174">
        <ele>162.2</ele>
        <time>2017-01-22T09:19:42.000Z</time>
      </trkpt>
      <trkpt lat="44.49494" lon="0.68174">
        <ele>162.2</ele>
        <time>2017-01-22T09:19:43.000Z</time>
      </trkpt>
      <trkpt lat="44.49494" lon="0.68174">
        <ele>162.2</ele>
        <time>2017-01-22T09:19:44.000Z</time>
      </trkpt>
      <trkpt lat="44.49494" lon="0.68174">
        <ele>162.2</ele>
        <time>2017-01-22T09:19:45.000Z</time>
      </trkpt>
      <trkpt lat="44.49494" lon="0.68174">
        <ele>162.2</ele>
        <time>2017-01-22T09:19:46.000Z</time>
      </trkpt>
      <trkpt lat="44.49494" lon="0.68174">
        <ele>162.2</ele>
        <time>2017-01-22T09:19:47.000Z</time>
      </trkpt>
      <trkpt lat="44.49494" lon="0.68173">
        <ele>162.3</ele>
        <time>2017-01-22T09:19:48.000Z</time>
      </trkpt>
      <trkpt lat="44.49495" lon="0.68171">
        <ele>162.4</ele>
        <time>2017-01-22T09:19:49.000Z</time>
      </trkpt>
      <trkpt lat="44.49496" lon="0.68169">
        <ele>162.6</ele>
        <time>2017-01-22T09:19:50.000Z</time>
      </trkpt>
      <trkpt lat="44.49497" lon="0.68167">
        <ele>162.8</ele>
        <time>2017-01-22T09:19:51.000Z</time>
      </trkpt>
      <trkpt lat="44.49499" lon="0.68165">
        <ele>162.9</ele>
        <time>2017-01-22T09:19:52.000Z</time>
      </trkpt>
      <trkpt lat="44.495" lon="0.68163">
        <ele>162.9</ele>
        <time>2017-01-22T09:19:53.000Z</time>
      </trkpt>
      <trkpt lat="44.49502" lon="0.68162">
        <ele>162.6</ele>
        <time>2017-01-22T09:19:54.000Z</time>
      </trkpt>
      <trkpt lat="44.49503" lon="0.6816">
        <ele>162.4</ele>
        <time>2017-01-22T09:19:55.000Z</time>
      </trkpt>
      <trkpt lat="44.49504" lon="0.68158">
        <ele>162.2</ele>
        <time>2017-01-22T09:19:56.000Z</time>
      </trkpt>
      <trkpt lat="44.49506" lon="0.68157">
        <ele>162.1</ele>
        <time>2017-01-22T09:19:57.000Z</time>
      </trkpt>
      <trkpt lat="44.49507" lon="0.68155">
        <ele>161.9</ele>
        <time>2017-01-22T09:19:58.000Z</time>
      </trkpt>
      <trkpt lat="44.49508" lon="0.68154">
        <ele>161.7</ele>
        <time>2017-01-22T09:19:59.000Z</time>
      </trkpt>
      <trkpt lat="44.49509" lon="0.68153">
        <ele>161.6</ele>
        <time>2017-01-22T09:20:00.000Z</time>
      </trkpt>
      <trkpt lat="44.4951" lon="0.68151">
        <ele>161.5</ele>
        <time>2017-01-22T09:20:01.000Z</time>
      </trkpt>
      <trkpt lat="44.49511" lon="0.6815">
        <ele>161.3</ele>
        <time>2017-01-22T09:20:02.000Z</time>
      </trkpt>
      <trkpt lat="44.49512" lon="0.68149">
        <ele>161.2</ele>
        <time>2017-01-22T09:20:03.000Z</time>
      </trkpt>
      <trkpt lat="44.49513" lon="0.68147">
        <ele>161.1</ele>
        <time>2017-01-22T09:20:04.000Z</time>
      </trkpt>
      <trkpt lat="44.49515" lon="0.68146">
        <ele>161</ele>
        <time>2017-01-22T09:20:05.000Z</time>
      </trkpt>
      <trkpt lat="44.49516" lon="0.68144">
        <ele>160.9</ele>
        <time>2017-01-22T09:20:06.000Z</time>
      </trkpt>
      <trkpt lat="44.49517" lon="0.68142">
        <ele>160.7</ele>
        <time>2017-01-22T09:20:07.000Z</time>
      </trkpt>
      <trkpt lat="44.49518" lon="0.68141">
        <ele>160.6</ele>
        <time>2017-01-22T09:20:08.000Z</time>
      </trkpt>
      <trkpt lat="44.4952" lon="0.68139">
        <ele>160.5</ele>
        <time>2017-01-22T09:20:09.000Z</time>
      </trkpt>
      <trkpt lat="44.49521" lon="0.68137">
        <ele>160.4</ele>
        <time>2017-01-22T09:20:10.000Z</time>
      </trkpt>
      <trkpt lat="44.49522" lon="0.68135">
        <ele>160.3</ele>
        <time>2017-01-22T09:20:11.000Z</time>
      </trkpt>
      <trkpt lat="44.49524" lon="0.68134">
        <ele>160.2</ele>
        <time>2017-01-22T09:20:12.000Z</time>
      </trkpt>
      <trkpt lat="44.49525" lon="0.68132">
        <ele>160.1</ele>
        <time>2017-01-22T09:20:13.000Z</time>
      </trkpt>
      <trkpt lat="44.49526" lon="0.6813">
        <ele>160</ele>
        <time>2017-01-22T09:20:14.000Z</time>
      </trkpt>
      <trkpt lat="44.49528" lon="0.68128">
        <ele>160</ele>
        <time>2017-01-22T09:20:15.000Z</time>
      </trkpt>
      <trkpt lat="44.49529" lon="0.68126">
        <ele>159.9</ele>
        <time>2017-01-22T09:20:16.000Z</time>
      </trkpt>
      <trkpt lat="44.49531" lon="0.68125">
        <ele>159.8</ele>
        <time>2017-01-22T09:20:17.000Z</time>
      </trkpt>
      <trkpt lat="44.49532" lon="0.68123">
        <ele>159.8</ele>
        <time>2017-01-22T09:20:18.000Z</time>
      </trkpt>
      <trkpt lat="44.49534" lon="0.68121">
        <ele>159.8</ele>
        <time>2017-01-22T09:20:19.000Z</time>
      </trkpt>
      <trkpt lat="44.49535" lon="0.68119">
        <ele>159.7</ele>
        <time>2017-01-22T09:20:20.000Z</time>
      </trkpt>
      <trkpt lat="44.49537" lon="0.68117">
        <ele>159.7</ele>
        <time>2017-01-22T09:20:21.000Z</time>
      </trkpt>
      <trkpt lat="44.49538" lon="0.68115">
        <ele>159.7</ele>
        <time>2017-01-22T09:20:22.000Z</time>
      </trkpt>
      <trkpt lat="44.4954" lon="0.68113">
        <ele>159.7</ele>
        <time>2017-01-22T09:20:23.000Z</time>
      </trkpt>
      <trkpt lat="44.49541" lon="0.68111">
        <ele>159.7</ele>
        <time>2017-01-22T09:20:24.000Z</time>
      </trkpt>
      <trkpt lat="44.49543" lon="0.68108">
        <ele>159.7</ele>
        <time>2017-01-22T09:20:25.000Z</time>
      </trkpt>
      <trkpt lat="44.49544" lon="0.68106">
        <ele>159.8</ele>
        <time>2017-01-22T09:20:26.000Z</time>
      </trkpt>
      <trkpt lat="44.49545" lon="0.68104">
        <ele>159.8</ele>
        <time>2017-01-22T09:20:27.000Z</time>
      </trkpt>
      <trkpt lat="44.49547" lon="0.68101">
        <ele>159.9</ele>
        <time>2017-01-22T09:20:28.000Z</time>
      </trkpt>
      <trkpt lat="44.49548" lon="0.68099">
        <ele>160</ele>
        <time>2017-01-22T09:20:29.000Z</time>
      </trkpt>
      <trkpt lat="44.49549" lon="0.68096">
        <ele>160</ele>
        <time>2017-01-22T09:20:30.000Z</time>
      </trkpt>
      <trkpt lat="44.49551" lon="0.68094">
        <ele>160.1</ele>
        <time>2017-01-22T09:20:31.000Z</time>
      </trkpt>
      <trkpt lat="44.49552" lon="0.68091">
        <ele>160.3</ele>
        <time>2017-01-22T09:20:32.000Z</time>
      </trkpt>
      <trkpt lat="44.49553" lon="0.68089">
        <ele>160.4</ele>
        <time>2017-01-22T09:20:33.000Z</time>
      </trkpt>
      <trkpt lat="44.49555" lon="0.68086">
        <ele>160.5</ele>
        <time>2017-01-22T09:20:34.000Z</time>
      </trkpt>
      <trkpt lat="44.49556" lon="0.68083">
        <ele>160.7</ele>
        <time>2017-01-22T09:20:35.000Z</time>
      </trkpt>
      <trkpt lat="44.49557" lon="0.68081">
        <ele>160.7</ele>
        <time>2017-01-22T09:20:36.000Z</time>
      </trkpt>
      <trkpt lat="44.49558" lon="0.68077">
        <ele>160.8</ele>
        <time>2017-01-22T09:20:37.000Z</time>
      </trkpt>
      <trkpt lat="44.49559" lon="0.68074">
        <ele>160.9</ele>
        <time>2017-01-22T09:20:38.000Z</time>
      </trkpt>
      <trkpt lat="44.4956" lon="0.68071">
        <ele>161</ele>
        <time>2017-01-22T09:20:39.000Z</time>
      </trkpt>
      <trkpt lat="44.49561" lon="0.68068">
        <ele>161.2</ele>
        <time>2017-01-22T09:20:40.000Z</time>
      </trkpt>
      <trkpt lat="44.49561" lon="0.68065">
        <ele>161.3</ele>
        <time>2017-01-22T09:20:41.000Z</time>
      </trkpt>
      <trkpt lat="44.49562" lon="0.68062">
        <ele>161.4</ele>
        <time>2017-01-22T09:20:42.000Z</time>
      </trkpt>
      <trkpt lat="44.49563" lon="0.68059">
        <ele>161.5</ele>
        <time>2017-01-22T09:20:43.000Z</time>
      </trkpt>
      <trkpt lat="44.49564" lon="0.68056">
        <ele>161.7</ele>
        <time>2017-01-22T09:20:44.000Z</time>
      </trkpt>
      <trkpt lat="44.49565" lon="0.68053">
        <ele>161.8</ele>
        <time>2017-01-22T09:20:45.000Z</time>
      </trkpt>
      <trkpt lat="44.49566" lon="0.6805">
        <ele>161.9</ele>
        <time>2017-01-22T09:20:46.000Z</time>
      </trkpt>
      <trkpt lat="44.49567" lon="0.68048">
        <ele>162.1</ele>
        <time>2017-01-22T09:20:47.000Z</time>
      </trkpt>
      <trkpt lat="44.49568" lon="0.68045">
        <ele>162.3</ele>
        <time>2017-01-22T09:20:48.000Z</time>
      </trkpt>
      <trkpt lat="44.49569" lon="0.68042">
        <ele>162.4</ele>
        <time>2017-01-22T09:20:49.000Z</time>
      </trkpt>
      <trkpt lat="44.49569" lon="0.68039">
        <ele>162.6</ele>
        <time>2017-01-22T09:20:50.000Z</time>
      </trkpt>
      <trkpt lat="44.4957" lon="0.68037">
        <ele>162.8</ele>
        <time>2017-01-22T09:20:51.000Z</time>
      </trkpt>
      <trkpt lat="44.49571" lon="0.68034">
        <ele>162.9</ele>
        <time>2017-01-22T09:20:52.000Z</time>
      </trkpt>
      <trkpt lat="44.49571" lon="0.68031">
        <ele>163.1</ele>
        <time>2017-01-22T09:20:53.000Z</time>
      </trkpt>
      <trkpt lat="44.49572" lon="0.68028">
        <ele>163.3</ele>
        <time>2017-01-22T09:20:54.000Z</time>
      </trkpt>
      <trkpt lat="44.49573" lon="0.68025">
        <ele>163.5</ele>
        <time>2017-01-22T09:20:55.000Z</time>
      </trkpt>
      <trkpt lat="44.49573" lon="0.68022">
        <ele>163.6</ele>
        <time>2017-01-22T09:20:56.000Z</time>
      </trkpt>
      <trkpt lat="44.49574" lon="0.68019">
        <ele>163.8</ele>
        <time>2017-01-22T09:20:57.000Z</time>
      </trkpt>
      <trkpt lat="44.49574" lon="0.68016">
        <ele>164</ele>
        <time>2017-01-22T09:20:58.000Z</time>
      </trkpt>
      <trkpt lat="44.49575" lon="0.68014">
        <ele>164.2</ele>
        <time>2017-01-22T09:20:59.000Z</time>
      </trkpt>
      <trkpt lat="44.49575" lon="0.68011">
        <ele>164.4</ele>
        <time>2017-01-22T09:21:00.000Z</time>
      </trkpt>
      <trkpt lat="44.49576" lon="0.68008">
        <ele>164.6</ele>
        <time>2017-01-22T09:21:01.000Z</time>
      </trkpt>
      <trkpt lat="44.49577" lon="0.68006">
        <ele>164.8</ele>
        <time>2017-01-22T09:21:02.000Z</time>
      </trkpt>
      <trkpt lat="44.49577" lon="0.68003">
        <ele>165</ele>
        <time>2017-01-22T09:21:03.000Z</time>
      </trkpt>
      <trkpt lat="44.49578" lon="0.68001">
        <ele>165.3</ele>
        <time>2017-01-22T09:21:04.000Z</time>
      </trkpt>
      <trkpt lat="44.49579" lon="0.67999">
        <ele>165.6</ele>
        <time>2017-01-22T09:21:05.000Z</time>
      </trkpt>
      <trkpt lat="44.4958" lon="0.67997">
        <ele>166</ele>
        <time>2017-01-22T09:21:06.000Z</time>
      </trkpt>
      <trkpt lat="44.49581" lon="0.67995">
        <ele>166.4</ele>
        <time>2017-01-22T09:21:07.000Z</time>
      </trkpt>
      <trkpt lat="44.49582" lon="0.67993">
        <ele>166.7</ele>
        <time>2017-01-22T09:21:08.000Z</time>
      </trkpt>
      <trkpt lat="44.49583" lon="0.67991">
        <ele>167.1</ele>
        <time>2017-01-22T09:21:09.000Z</time>
      </trkpt>
      <trkpt lat="44.49583" lon="0.67989">
        <ele>167.4</ele>
        <time>2017-01-22T09:21:10.000Z</time>
      </trkpt>
      <trkpt lat="44.49584" lon="0.67988">
        <ele>167.6</ele>
        <time>2017-01-22T09:21:11.000Z</time>
      </trkpt>
      <trkpt lat="44.49584" lon="0.67986">
        <ele>167.8</ele>
        <time>2017-01-22T09:21:12.000Z</time>
      </trkpt>
      <trkpt lat="44.49584" lon="0.67984">
        <ele>168.1</ele>
        <time>2017-01-22T09:21:13.000Z</time>
      </trkpt>
      <trkpt lat="44.49584" lon="0.67982">
        <ele>168.4</ele>
        <time>2017-01-22T09:21:14.000Z</time>
      </trkpt>
      <trkpt lat="44.49583" lon="0.6798">
        <ele>168.6</ele>
        <time>2017-01-22T09:21:15.000Z</time>
      </trkpt>
      <trkpt lat="44.49583" lon="0.67978">
        <ele>168.8</ele>
        <time>2017-01-22T09:21:16.000Z</time>
      </trkpt>
      <trkpt lat="44.49583" lon="0.67977">
        <ele>169.1</ele>
        <time>2017-01-22T09:21:17.000Z</time>
      </trkpt>
      <trkpt lat="44.49583" lon="0.67975">
        <ele>169.3</ele>
        <time>2017-01-22T09:21:18.000Z</time>
      </trkpt>
      <trkpt lat="44.49584" lon="0.67973">
        <ele>169.5</ele>
        <time>2017-01-22T09:21:19.000Z</time>
      </trkpt>
      <trkpt lat="44.49584" lon="0.67971">
        <ele>169.8</ele>
        <time>2017-01-22T09:21:20.000Z</time>
      </trkpt>
      <trkpt lat="44.49584" lon="0.67969">
        <ele>170</ele>
        <time>2017-01-22T09:21:21.000Z</time>
      </trkpt>
      <trkpt lat="44.49584" lon="0.67968">
        <ele>170.2</ele>
        <time>2017-01-22T09:21:22.000Z</time>
      </trkpt>
      <trkpt lat="44.49585" lon="0.67966">
        <ele>170.4</ele>
        <time>2017-01-22T09:21:23.000Z</time>
      </trkpt>
      <trkpt lat="44.49585" lon="0.67964">
        <ele>170.6</ele>
        <time>2017-01-22T09:21:24.000Z</time>
      </trkpt>
      <trkpt lat="44.49585" lon="0.67962">
        <ele>170.9</ele>
        <time>2017-01-22T09:21:25.000Z</time>
      </trkpt>
      <trkpt lat="44.49585" lon="0.6796">
        <ele>171.1</ele>
        <time>2017-01-22T09:21:26.000Z</time>
      </trkpt>
      <trkpt lat="44.49586" lon="0.67958">
        <ele>171.3</ele>
        <time>2017-01-22T09:21:27.000Z</time>
      </trkpt>
      <trkpt lat="44.49586" lon="0.67957">
        <ele>171.6</ele>
        <time>2017-01-22T09:21:28.000Z</time>
      </trkpt>
      <trkpt lat="44.49586" lon="0.67955">
        <ele>171.8</ele>
        <time>2017-01-22T09:21:29.000Z</time>
      </trkpt>
      <trkpt lat="44.49586" lon="0.67953">
        <ele>172.1</ele>
        <time>2017-01-22T09:21:30.000Z</time>
      </trkpt>
      <trkpt lat="44.49586" lon="0.67951">
        <ele>172.3</ele>
        <time>2017-01-22T09:21:31.000Z</time>
      </trkpt>
      <trkpt lat="44.49586" lon="0.67949">
        <ele>172.5</ele>
        <time>2017-01-22T09:21:32.000Z</time>
      </trkpt>
      <trkpt lat="44.49586" lon="0.67947">
        <ele>172.7</ele>
        <time>2017-01-22T09:21:33.000Z</time>
      </trkpt>
      <trkpt lat="44.49587" lon="0.67946">
        <ele>173</ele>
        <time>2017-01-22T09:21:34.000Z</time>
      </trkpt>
      <trkpt lat="44.49587" lon="0.67944">
        <ele>173.2</ele>
        <time>2017-01-22T09:21:35.000Z</time>
      </trkpt>
      <trkpt lat="44.49587" lon="0.67942">
        <ele>173.4</ele>
        <time>2017-01-22T09:21:36.000Z</time>
      </trkpt>
      <trkpt lat="44.49587" lon="0.67941">
        <ele>173.6</ele>
        <time>2017-01-22T09:21:37.000Z</time>
      </trkpt>
      <trkpt lat="44.49587" lon="0.67939">
        <ele>173.8</ele>
        <time>2017-01-22T09:21:38.000Z</time>
      </trkpt>
      <trkpt lat="44.49587" lon="0.67938">
        <ele>174</ele>
        <time>2017-01-22T09:21:39.000Z</time>
      </trkpt>
      <trkpt lat="44.49587" lon="0.67937">
        <ele>174.1</ele>
        <time>2017-01-22T09:21:40.000Z</time>
      </trkpt>
      <trkpt lat="44.49587" lon="0.67936">
        <ele>174.2</ele>
        <time>2017-01-22T09:21:41.000Z</time>
      </trkpt>
      <trkpt lat="44.49587" lon="0.67935">
        <ele>174.3</ele>
        <time>2017-01-22T09:21:42.000Z</time>
      </trkpt>
      <trkpt lat="44.49587" lon="0.67934">
        <ele>174.4</ele>
        <time>2017-01-22T09:21:43.000Z</time>
      </trkpt>
      <trkpt lat="44.49587" lon="0.67934">
        <ele>174.5</ele>
        <time>2017-01-22T09:21:44.000Z</time>
      </trkpt>
      <trkpt lat="44.49587" lon="0.67933">
        <ele>174.7</ele>
        <time>2017-01-22T09:21:45.000Z</time>
      </trkpt>
      <trkpt lat="44.49587" lon="0.67932">
        <ele>174.8</ele>
        <time>2017-01-22T09:21:46.000Z</time>
      </trkpt>
      <trkpt lat="44.49587" lon="0.6793">
        <ele>175</ele>
        <time>2017-01-22T09:21:47.000Z</time>
      </trkpt>
      <trkpt lat="44.49586" lon="0.67928">
        <ele>175.3</ele>
        <time>2017-01-22T09:21:48.000Z</time>
      </trkpt>
      <trkpt lat="44.49586" lon="0.67927">
        <ele>175.5</ele>
        <time>2017-01-22T09:21:49.000Z</time>
      </trkpt>
      <trkpt lat="44.49586" lon="0.67925">
        <ele>175.7</ele>
        <time>2017-01-22T09:21:50.000Z</time>
      </trkpt>
      <trkpt lat="44.49586" lon="0.67924">
        <ele>175.9</ele>
        <time>2017-01-22T09:21:51.000Z</time>
      </trkpt>
      <trkpt lat="44.49586" lon="0.67923">
        <ele>176</ele>
        <time>2017-01-22T09:21:52.000Z</time>
      </trkpt>
      <trkpt lat="44.49586" lon="0.67922">
        <ele>176.1</ele>
        <time>2017-01-22T09:21:53.000Z</time>
      </trkpt>
      <trkpt lat="44.49586" lon="0.67921">
        <ele>176.2</ele>
        <time>2017-01-22T09:21:54.000Z</time>
      </trkpt>
      <trkpt lat="44.49586" lon="0.67921">
        <ele>176.3</ele>
        <time>2017-01-22T09:21:55.000Z</time>
      </trkpt>
      <trkpt lat="44.49586" lon="0.67921">
        <ele>176.3</ele>
        <time>2017-01-22T09:21:56.000Z</time>
      </trkpt>
      <trkpt lat="44.49586" lon="0.6792">
        <ele>176.4</ele>
        <time>2017-01-22T09:21:57.000Z</time>
      </trkpt>
      <trkpt lat="44.49586" lon="0.6792">
        <ele>176.4</ele>
        <time>2017-01-22T09:21:58.000Z</time>
      </trkpt>
      <trkpt lat="44.49586" lon="0.6792">
        <ele>176.4</ele>
        <time>2017-01-22T09:21:59.000Z</time>
      </trkpt>
      <trkpt lat="44.49586" lon="0.6792">
        <ele>176.5</ele>
        <time>2017-01-22T09:22:00.000Z</time>
      </trkpt>
      <trkpt lat="44.49586" lon="0.67919">
        <ele>176.5</ele>
        <time>2017-01-22T09:22:01.000Z</time>
      </trkpt>
      <trkpt lat="44.49586" lon="0.67918">
        <ele>176.6</ele>
        <time>2017-01-22T09:22:02.000Z</time>
      </trkpt>
      <trkpt lat="44.49586" lon="0.67918">
        <ele>176.7</ele>
        <time>2017-01-22T09:22:03.000Z</time>
      </trkpt>
      <trkpt lat="44.49585" lon="0.67916">
        <ele>177</ele>
        <time>2017-01-22T09:22:04.000Z</time>
      </trkpt>
      <trkpt lat="44.49585" lon="0.67914">
        <ele>177.3</ele>
        <time>2017-01-22T09:22:05.000Z</time>
      </trkpt>
      <trkpt lat="44.49585" lon="0.67913">
        <ele>177.4</ele>
        <time>2017-01-22T09:22:06.000Z</time>
      </trkpt>
      <trkpt lat="44.49585" lon="0.67912">
        <ele>177.5</ele>
        <time>2017-01-22T09:22:07.000Z</time>
      </trkpt>
      <trkpt lat="44.49585" lon="0.67912">
        <ele>177.6</ele>
        <time>2017-01-22T09:22:08.000Z</time>
      </trkpt>
      <trkpt lat="44.49585" lon="0.67911">
        <ele>177.7</ele>
        <time>2017-01-22T09:22:09.000Z</time>
      </trkpt>
      <trkpt lat="44.49585" lon="0.6791">
        <ele>177.8</ele>
        <time>2017-01-22T09:22:10.000Z</time>
      </trkpt>
      <trkpt lat="44.49585" lon="0.6791">
        <ele>177.8</ele>
        <time>2017-01-22T09:22:11.000Z</time>
      </trkpt>
      <trkpt lat="44.49585" lon="0.67909">
        <ele>177.9</ele>
        <time>2017-01-22T09:22:12.000Z</time>
      </trkpt>
      <trkpt lat="44.49585" lon="0.67909">
        <ele>178</ele>
        <time>2017-01-22T09:22:13.000Z</time>
      </trkpt>
      <trkpt lat="44.49585" lon="0.67908">
        <ele>178</ele>
        <time>2017-01-22T09:22:14.000Z</time>
      </trkpt>
      <trkpt lat="44.49585" lon="0.67908">
        <ele>178.1</ele>
        <time>2017-01-22T09:22:15.000Z</time>
      </trkpt>
      <trkpt lat="44.49585" lon="0.67907">
        <ele>178.2</ele>
        <time>2017-01-22T09:22:16.000Z</time>
      </trkpt>
      <trkpt lat="44.49585" lon="0.67907">
        <ele>178.2</ele>
        <time>2017-01-22T09:22:17.000Z</time>
      </trkpt>
      <trkpt lat="44.49585" lon="0.67906">
        <ele>178.3</ele>
        <time>2017-01-22T09:22:18.000Z</time>
      </trkpt>
      <trkpt lat="44.49585" lon="0.67906">
        <ele>178.4</ele>
        <time>2017-01-22T09:22:19.000Z</time>
      </trkpt>
      <trkpt lat="44.49585" lon="0.67905">
        <ele>178.4</ele>
        <time>2017-01-22T09:22:20.000Z</time>
      </trkpt>
      <trkpt lat="44.49585" lon="0.67905">
        <ele>178.5</ele>
        <time>2017-01-22T09:22:21.000Z</time>
      </trkpt>
      <trkpt lat="44.49585" lon="0.67904">
        <ele>178.6</ele>
        <time>2017-01-22T09:22:22.000Z</time>
      </trkpt>
      <trkpt lat="44.49585" lon="0.67904">
        <ele>178.6</ele>
        <time>2017-01-22T09:22:23.000Z</time>
      </trkpt>
      <trkpt lat="44.49585" lon="0.67903">
        <ele>178.7</ele>
        <time>2017-01-22T09:22:24.000Z</time>
      </trkpt>
      <trkpt lat="44.49585" lon="0.67903">
        <ele>178.7</ele>
        <time>2017-01-22T09:22:25.000Z</time>
      </trkpt>
      <trkpt lat="44.49585" lon="0.67903">
        <ele>178.8</ele>
        <time>2017-01-22T09:22:26.000Z</time>
      </trkpt>
      <trkpt lat="44.49585" lon="0.67903">
        <ele>178.8</ele>
        <time>2017-01-22T09:22:27.000Z</time>
      </trkpt>
      <trkpt lat="44.49585" lon="0.67903">
        <ele>178.8</ele>
        <time>2017-01-22T09:22:28.000Z</time>
      </trkpt>
      <trkpt lat="44.49585" lon="0.67902">
        <ele>178.8</ele>
        <time>2017-01-22T09:22:29.000Z</time>
      </trkpt>
      <trkpt lat="44.49585" lon="0.67902">
        <ele>178.9</ele>
        <time>2017-01-22T09:22:30.000Z</time>
      </trkpt>
      <trkpt lat="44.49585" lon="0.67901">
        <ele>179</ele>
        <time>2017-01-22T09:22:31.000Z</time>
      </trkpt>
      <trkpt lat="44.49584" lon="0.67901">
        <ele>179.1</ele>
        <time>2017-01-22T09:22:32.000Z</time>
      </trkpt>
      <trkpt lat="44.49584" lon="0.679">
        <ele>179.2</ele>
        <time>2017-01-22T09:22:33.000Z</time>
      </trkpt>
      <trkpt lat="44.49584" lon="0.67899">
        <ele>179.3</ele>
        <time>2017-01-22T09:22:34.000Z</time>
      </trkpt>
      <trkpt lat="44.49584" lon="0.67897">
        <ele>179.5</ele>
        <time>2017-01-22T09:22:35.000Z</time>
      </trkpt>
      <trkpt lat="44.49584" lon="0.67896">
        <ele>179.8</ele>
        <time>2017-01-22T09:22:36.000Z</time>
      </trkpt>
      <trkpt lat="44.49584" lon="0.67894">
        <ele>180</ele>
        <time>2017-01-22T09:22:37.000Z</time>
      </trkpt>
      <trkpt lat="44.49584" lon="0.67892">
        <ele>180.2</ele>
        <time>2017-01-22T09:22:38.000Z</time>
      </trkpt>
      <trkpt lat="44.49584" lon="0.67891">
        <ele>180.4</ele>
        <time>2017-01-22T09:22:39.000Z</time>
      </trkpt>
      <trkpt lat="44.49584" lon="0.67889">
        <ele>180.6</ele>
        <time>2017-01-22T09:22:40.000Z</time>
      </trkpt>
      <trkpt lat="44.49584" lon="0.67888">
        <ele>180.8</ele>
        <time>2017-01-22T09:22:41.000Z</time>
      </trkpt>
      <trkpt lat="44.49585" lon="0.67886">
        <ele>181</ele>
        <time>2017-01-22T09:22:42.000Z</time>
      </trkpt>
      <trkpt lat="44.49585" lon="0.67885">
        <ele>181.1</ele>
        <time>2017-01-22T09:22:43.000Z</time>
      </trkpt>
      <trkpt lat="44.49585" lon="0.67884">
        <ele>181.2</ele>
        <time>2017-01-22T09:22:44.000Z</time>
      </trkpt>
      <trkpt lat="44.49585" lon="0.67883">
        <ele>181.3</ele>
        <time>2017-01-22T09:22:45.000Z</time>
      </trkpt>
      <trkpt lat="44.49585" lon="0.67883">
        <ele>181.4</ele>
        <time>2017-01-22T09:22:46.000Z</time>
      </trkpt>
      <trkpt lat="44.49585" lon="0.67882">
        <ele>181.5</ele>
        <time>2017-01-22T09:22:47.000Z</time>
      </trkpt>
      <trkpt lat="44.49585" lon="0.67882">
        <ele>181.6</ele>
        <time>2017-01-22T09:22:48.000Z</time>
      </trkpt>
      <trkpt lat="44.49585" lon="0.67881">
        <ele>181.7</ele>
        <time>2017-01-22T09:22:49.000Z</time>
      </trkpt>
      <trkpt lat="44.49585" lon="0.6788">
        <ele>181.8</ele>
        <time>2017-01-22T09:22:50.000Z</time>
      </trkpt>
      <trkpt lat="44.49585" lon="0.67878">
        <ele>182</ele>
        <time>2017-01-22T09:22:51.000Z</time>
      </trkpt>
      <trkpt lat="44.49585" lon="0.67876">
        <ele>182.3</ele>
        <time>2017-01-22T09:22:52.000Z</time>
      </trkpt>
      <trkpt lat="44.49586" lon="0.67873">
        <ele>182.7</ele>
        <time>2017-01-22T09:22:53.000Z</time>
      </trkpt>
      <trkpt lat="44.49586" lon="0.67871">
        <ele>182.9</ele>
        <time>2017-01-22T09:22:54.000Z</time>
      </trkpt>
      <trkpt lat="44.49587" lon="0.6787">
        <ele>183.1</ele>
        <time>2017-01-22T09:22:55.000Z</time>
      </trkpt>
      <trkpt lat="44.49587" lon="0.67869">
        <ele>183.2</ele>
        <time>2017-01-22T09:22:56.000Z</time>
      </trkpt>
      <trkpt lat="44.49587" lon="0.67868">
        <ele>183.3</ele>
        <time>2017-01-22T09:22:57.000Z</time>
      </trkpt>
      <trkpt lat="44.49588" lon="0.67867">
        <ele>183.4</ele>
        <time>2017-01-22T09:22:58.000Z</time>
      </trkpt>
      <trkpt lat="44.49588" lon="0.67867">
        <ele>183.5</ele>
        <time>2017-01-22T09:22:59.000Z</time>
      </trkpt>
      <trkpt lat="44.49588" lon="0.67866">
        <ele>183.5</ele>
        <time>2017-01-22T09:23:00.000Z</time>
      </trkpt>
      <trkpt lat="44.49589" lon="0.67865">
        <ele>183.6</ele>
        <time>2017-01-22T09:23:01.000Z</time>
      </trkpt>
      <trkpt lat="44.49589" lon="0.67864">
        <ele>183.7</ele>
        <time>2017-01-22T09:23:02.000Z</time>
      </trkpt>
      <trkpt lat="44.4959" lon="0.67863">
        <ele>183.9</ele>
        <time>2017-01-22T09:23:03.000Z</time>
      </trkpt>
      <trkpt lat="44.4959" lon="0.67861">
        <ele>184.1</ele>
        <time>2017-01-22T09:23:04.000Z</time>
      </trkpt>
      <trkpt lat="44.49591" lon="0.6786">
        <ele>184.3</ele>
        <time>2017-01-22T09:23:05.000Z</time>
      </trkpt>
      <trkpt lat="44.49592" lon="0.67859">
        <ele>184.4</ele>
        <time>2017-01-22T09:23:06.000Z</time>
      </trkpt>
      <trkpt lat="44.49592" lon="0.67858">
        <ele>184.6</ele>
        <time>2017-01-22T09:23:07.000Z</time>
      </trkpt>
      <trkpt lat="44.49593" lon="0.67857">
        <ele>184.7</ele>
        <time>2017-01-22T09:23:08.000Z</time>
      </trkpt>
      <trkpt lat="44.49593" lon="0.67855">
        <ele>184.9</ele>
        <time>2017-01-22T09:23:09.000Z</time>
      </trkpt>
      <trkpt lat="44.49593" lon="0.67854">
        <ele>185</ele>
        <time>2017-01-22T09:23:10.000Z</time>
      </trkpt>
      <trkpt lat="44.49594" lon="0.67853">
        <ele>185.2</ele>
        <time>2017-01-22T09:23:11.000Z</time>
      </trkpt>
      <trkpt lat="44.49594" lon="0.67851">
        <ele>185.4</ele>
        <time>2017-01-22T09:23:12.000Z</time>
      </trkpt>
      <trkpt lat="44.49594" lon="0.6785">
        <ele>185.6</ele>
        <time>2017-01-22T09:23:13.000Z</time>
      </trkpt>
      <trkpt lat="44.49595" lon="0.67848">
        <ele>185.8</ele>
        <time>2017-01-22T09:23:14.000Z</time>
      </trkpt>
      <trkpt lat="44.49595" lon="0.67847">
        <ele>186</ele>
        <time>2017-01-22T09:23:15.000Z</time>
      </trkpt>
      <trkpt lat="44.49595" lon="0.67846">
        <ele>186.1</ele>
        <time>2017-01-22T09:23:16.000Z</time>
      </trkpt>
      <trkpt lat="44.49596" lon="0.67845">
        <ele>186.3</ele>
        <time>2017-01-22T09:23:17.000Z</time>
      </trkpt>
      <trkpt lat="44.49596" lon="0.67843">
        <ele>186.5</ele>
        <time>2017-01-22T09:23:18.000Z</time>
      </trkpt>
      <trkpt lat="44.49596" lon="0.67842">
        <ele>186.6</ele>
        <time>2017-01-22T09:23:19.000Z</time>
      </trkpt>
      <trkpt lat="44.49597" lon="0.67841">
        <ele>186.8</ele>
        <time>2017-01-22T09:23:20.000Z</time>
      </trkpt>
      <trkpt lat="44.49597" lon="0.6784">
        <ele>186.9</ele>
        <time>2017-01-22T09:23:21.000Z</time>
      </trkpt>
      <trkpt lat="44.49597" lon="0.67839">
        <ele>187.1</ele>
        <time>2017-01-22T09:23:22.000Z</time>
      </trkpt>
      <trkpt lat="44.49597" lon="0.67838">
        <ele>187.2</ele>
        <time>2017-01-22T09:23:23.000Z</time>
      </trkpt>
      <trkpt lat="44.49598" lon="0.67837">
        <ele>187.4</ele>
        <time>2017-01-22T09:23:24.000Z</time>
      </trkpt>
      <trkpt lat="44.49598" lon="0.67836">
        <ele>187.5</ele>
        <time>2017-01-22T09:23:25.000Z</time>
      </trkpt>
      <trkpt lat="44.49598" lon="0.67835">
        <ele>187.6</ele>
        <time>2017-01-22T09:23:26.000Z</time>
      </trkpt>
      <trkpt lat="44.49598" lon="0.67834">
        <ele>187.8</ele>
        <time>2017-01-22T09:23:27.000Z</time>
      </trkpt>
      <trkpt lat="44.49598" lon="0.67833">
        <ele>187.9</ele>
        <time>2017-01-22T09:23:28.000Z</time>
      </trkpt>
      <trkpt lat="44.49599" lon="0.67831">
        <ele>188</ele>
        <time>2017-01-22T09:23:29.000Z</time>
      </trkpt>
      <trkpt lat="44.49599" lon="0.6783">
        <ele>188</ele>
        <time>2017-01-22T09:23:30.000Z</time>
      </trkpt>
      <trkpt lat="44.49599" lon="0.67829">
        <ele>188.1</ele>
        <time>2017-01-22T09:23:31.000Z</time>
      </trkpt>
      <trkpt lat="44.49599" lon="0.67828">
        <ele>188.2</ele>
        <time>2017-01-22T09:23:32.000Z</time>
      </trkpt>
      <trkpt lat="44.49599" lon="0.67827">
        <ele>188.3</ele>
        <time>2017-01-22T09:23:33.000Z</time>
      </trkpt>
      <trkpt lat="44.496" lon="0.67826">
        <ele>188.4</ele>
        <time>2017-01-22T09:23:34.000Z</time>
      </trkpt>
      <trkpt lat="44.496" lon="0.67824">
        <ele>188.5</ele>
        <time>2017-01-22T09:23:35.000Z</time>
      </trkpt>
      <trkpt lat="44.496" lon="0.67823">
        <ele>188.6</ele>
        <time>2017-01-22T09:23:36.000Z</time>
      </trkpt>
      <trkpt lat="44.496" lon="0.67822">
        <ele>188.7</ele>
        <time>2017-01-22T09:23:37.000Z</time>
      </trkpt>
      <trkpt lat="44.496" lon="0.67821">
        <ele>188.8</ele>
        <time>2017-01-22T09:23:38.000Z</time>
      </trkpt>
      <trkpt lat="44.49601" lon="0.67819">
        <ele>188.9</ele>
        <time>2017-01-22T09:23:39.000Z</time>
      </trkpt>
      <trkpt lat="44.49601" lon="0.67818">
        <ele>189</ele>
        <time>2017-01-22T09:23:40.000Z</time>
      </trkpt>
      <trkpt lat="44.49601" lon="0.67817">
        <ele>189.1</ele>
        <time>2017-01-22T09:23:41.000Z</time>
      </trkpt>
      <trkpt lat="44.49601" lon="0.67815">
        <ele>189.2</ele>
        <time>2017-01-22T09:23:42.000Z</time>
      </trkpt>
      <trkpt lat="44.49602" lon="0.67814">
        <ele>189.3</ele>
        <time>2017-01-22T09:23:43.000Z</time>
      </trkpt>
      <trkpt lat="44.49602" lon="0.67813">
        <ele>189.4</ele>
        <time>2017-01-22T09:23:44.000Z</time>
      </trkpt>
      <trkpt lat="44.49602" lon="0.67811">
        <ele>189.5</ele>
        <time>2017-01-22T09:23:45.000Z</time>
      </trkpt>
      <trkpt lat="44.49603" lon="0.6781">
        <ele>189.6</ele>
        <time>2017-01-22T09:23:46.000Z</time>
      </trkpt>
      <trkpt lat="44.49603" lon="0.67809">
        <ele>189.7</ele>
        <time>2017-01-22T09:23:47.000Z</time>
      </trkpt>
      <trkpt lat="44.49603" lon="0.67807">
        <ele>189.8</ele>
        <time>2017-01-22T09:23:48.000Z</time>
      </trkpt>
      <trkpt lat="44.49604" lon="0.67806">
        <ele>189.9</ele>
        <time>2017-01-22T09:23:49.000Z</time>
      </trkpt>
      <trkpt lat="44.49604" lon="0.67805">
        <ele>190</ele>
        <time>2017-01-22T09:23:50.000Z</time>
      </trkpt>
      <trkpt lat="44.49605" lon="0.67803">
        <ele>190.1</ele>
        <time>2017-01-22T09:23:51.000Z</time>
      </trkpt>
      <trkpt lat="44.49605" lon="0.67802">
        <ele>190.2</ele>
        <time>2017-01-22T09:23:52.000Z</time>
      </trkpt>
      <trkpt lat="44.49606" lon="0.67801">
        <ele>190.3</ele>
        <time>2017-01-22T09:23:53.000Z</time>
      </trkpt>
      <trkpt lat="44.49606" lon="0.678">
        <ele>190.4</ele>
        <time>2017-01-22T09:23:54.000Z</time>
      </trkpt>
      <trkpt lat="44.49606" lon="0.67799">
        <ele>190.4</ele>
        <time>2017-01-22T09:23:55.000Z</time>
      </trkpt>
      <trkpt lat="44.49607" lon="0.67798">
        <ele>190.5</ele>
        <time>2017-01-22T09:23:56.000Z</time>
      </trkpt>
      <trkpt lat="44.49607" lon="0.67798">
        <ele>190.5</ele>
        <time>2017-01-22T09:23:57.000Z</time>
      </trkpt>
      <trkpt lat="44.49607" lon="0.67797">
        <ele>190.6</ele>
        <time>2017-01-22T09:23:58.000Z</time>
      </trkpt>
      <trkpt lat="44.49607" lon="0.67797">
        <ele>190.6</ele>
        <time>2017-01-22T09:23:59.000Z</time>
      </trkpt>
      <trkpt lat="44.49607" lon="0.67797">
        <ele>190.6</ele>
        <time>2017-01-22T09:24:00.000Z</time>
      </trkpt>
      <trkpt lat="44.49607" lon="0.67797">
        <ele>190.6</ele>
        <time>2017-01-22T09:24:01.000Z</time>
      </trkpt>
      <trkpt lat="44.49607" lon="0.67797">
        <ele>190.6</ele>
        <time>2017-01-22T09:24:02.000Z</time>
      </trkpt>
      <trkpt lat="44.49607" lon="0.67797">
        <ele>190.6</ele>
        <time>2017-01-22T09:24:03.000Z</time>
      </trkpt>
      <trkpt lat="44.49607" lon="0.67797">
        <ele>190.6</ele>
        <time>2017-01-22T09:24:04.000Z</time>
      </trkpt>
      <trkpt lat="44.49607" lon="0.67796">
        <ele>190.6</ele>
        <time>2017-01-22T09:24:05.000Z</time>
      </trkpt>
      <trkpt lat="44.49607" lon="0.67796">
        <ele>190.7</ele>
        <time>2017-01-22T09:24:06.000Z</time>
      </trkpt>
      <trkpt lat="44.49608" lon="0.67795">
        <ele>190.8</ele>
        <time>2017-01-22T09:24:07.000Z</time>
      </trkpt>
      <trkpt lat="44.49608" lon="0.67794">
        <ele>190.8</ele>
        <time>2017-01-22T09:24:08.000Z</time>
      </trkpt>
      <trkpt lat="44.49609" lon="0.67792">
        <ele>190.9</ele>
        <time>2017-01-22T09:24:09.000Z</time>
      </trkpt>
      <trkpt lat="44.49609" lon="0.67791">
        <ele>191.1</ele>
        <time>2017-01-22T09:24:10.000Z</time>
      </trkpt>
      <trkpt lat="44.4961" lon="0.67789">
        <ele>191.2</ele>
        <time>2017-01-22T09:24:11.000Z</time>
      </trkpt>
      <trkpt lat="44.4961" lon="0.67787">
        <ele>191.3</ele>
        <time>2017-01-22T09:24:12.000Z</time>
      </trkpt>
      <trkpt lat="44.49611" lon="0.67786">
        <ele>191.5</ele>
        <time>2017-01-22T09:24:13.000Z</time>
      </trkpt>
      <trkpt lat="44.49612" lon="0.67784">
        <ele>191.6</ele>
        <time>2017-01-22T09:24:14.000Z</time>
      </trkpt>
      <trkpt lat="44.49612" lon="0.67782">
        <ele>191.8</ele>
        <time>2017-01-22T09:24:15.000Z</time>
      </trkpt>
      <trkpt lat="44.49613" lon="0.6778">
        <ele>192</ele>
        <time>2017-01-22T09:24:16.000Z</time>
      </trkpt>
      <trkpt lat="44.49614" lon="0.67777">
        <ele>192.2</ele>
        <time>2017-01-22T09:24:17.000Z</time>
      </trkpt>
      <trkpt lat="44.49614" lon="0.67775">
        <ele>192.3</ele>
        <time>2017-01-22T09:24:18.000Z</time>
      </trkpt>
      <trkpt lat="44.49615" lon="0.67773">
        <ele>192.5</ele>
        <time>2017-01-22T09:24:19.000Z</time>
      </trkpt>
      <trkpt lat="44.49616" lon="0.67771">
        <ele>192.7</ele>
        <time>2017-01-22T09:24:20.000Z</time>
      </trkpt>
      <trkpt lat="44.49616" lon="0.67769">
        <ele>192.9</ele>
        <time>2017-01-22T09:24:21.000Z</time>
      </trkpt>
      <trkpt lat="44.49617" lon="0.67767">
        <ele>193.1</ele>
        <time>2017-01-22T09:24:22.000Z</time>
      </trkpt>
      <trkpt lat="44.49618" lon="0.67764">
        <ele>193.2</ele>
        <time>2017-01-22T09:24:23.000Z</time>
      </trkpt>
      <trkpt lat="44.49619" lon="0.67762">
        <ele>193.4</ele>
        <time>2017-01-22T09:24:24.000Z</time>
      </trkpt>
      <trkpt lat="44.49619" lon="0.6776">
        <ele>193.6</ele>
        <time>2017-01-22T09:24:25.000Z</time>
      </trkpt>
      <trkpt lat="44.4962" lon="0.67758">
        <ele>193.8</ele>
        <time>2017-01-22T09:24:26.000Z</time>
      </trkpt>
      <trkpt lat="44.49621" lon="0.67756">
        <ele>194</ele>
        <time>2017-01-22T09:24:27.000Z</time>
      </trkpt>
      <trkpt lat="44.49622" lon="0.67753">
        <ele>194.2</ele>
        <time>2017-01-22T09:24:28.000Z</time>
      </trkpt>
      <trkpt lat="44.49623" lon="0.67751">
        <ele>194.4</ele>
        <time>2017-01-22T09:24:29.000Z</time>
      </trkpt>
      <trkpt lat="44.49623" lon="0.67749">
        <ele>194.5</ele>
        <time>2017-01-22T09:24:30.000Z</time>
      </trkpt>
      <trkpt lat="44.49624" lon="0.67747">
        <ele>194.4</ele>
        <time>2017-01-22T09:24:31.000Z</time>
      </trkpt>
      <trkpt lat="44.49625" lon="0.67744">
        <ele>194.4</ele>
        <time>2017-01-22T09:24:32.000Z</time>
      </trkpt>
      <trkpt lat="44.49626" lon="0.67742">
        <ele>194.3</ele>
        <time>2017-01-22T09:24:33.000Z</time>
      </trkpt>
      <trkpt lat="44.49627" lon="0.6774">
        <ele>194.3</ele>
        <time>2017-01-22T09:24:34.000Z</time>
      </trkpt>
      <trkpt lat="44.49628" lon="0.67738">
        <ele>194.3</ele>
        <time>2017-01-22T09:24:35.000Z</time>
      </trkpt>
      <trkpt lat="44.49629" lon="0.67736">
        <ele>194.3</ele>
        <time>2017-01-22T09:24:36.000Z</time>
      </trkpt>
      <trkpt lat="44.4963" lon="0.67733">
        <ele>194.3</ele>
        <time>2017-01-22T09:24:37.000Z</time>
      </trkpt>
      <trkpt lat="44.49631" lon="0.67731">
        <ele>194.3</ele>
        <time>2017-01-22T09:24:38.000Z</time>
      </trkpt>
      <trkpt lat="44.49631" lon="0.67729">
        <ele>194.3</ele>
        <time>2017-01-22T09:24:39.000Z</time>
      </trkpt>
      <trkpt lat="44.49632" lon="0.67727">
        <ele>194.3</ele>
        <time>2017-01-22T09:24:40.000Z</time>
      </trkpt>
      <trkpt lat="44.49633" lon="0.67725">
        <ele>194.4</ele>
        <time>2017-01-22T09:24:41.000Z</time>
      </trkpt>
      <trkpt lat="44.49634" lon="0.67723">
        <ele>194.4</ele>
        <time>2017-01-22T09:24:42.000Z</time>
      </trkpt>
      <trkpt lat="44.49635" lon="0.67721">
        <ele>194.4</ele>
        <time>2017-01-22T09:24:43.000Z</time>
      </trkpt>
      <trkpt lat="44.49636" lon="0.67719">
        <ele>194.5</ele>
        <time>2017-01-22T09:24:44.000Z</time>
      </trkpt>
      <trkpt lat="44.49637" lon="0.67716">
        <ele>194.6</ele>
        <time>2017-01-22T09:24:45.000Z</time>
      </trkpt>
      <trkpt lat="44.49639" lon="0.67713">
        <ele>194.6</ele>
        <time>2017-01-22T09:24:46.000Z</time>
      </trkpt>
      <trkpt lat="44.4964" lon="0.67711">
        <ele>194.7</ele>
        <time>2017-01-22T09:24:47.000Z</time>
      </trkpt>
      <trkpt lat="44.49641" lon="0.67708">
        <ele>194.9</ele>
        <time>2017-01-22T09:24:48.000Z</time>
      </trkpt>
      <trkpt lat="44.49643" lon="0.67705">
        <ele>195</ele>
        <time>2017-01-22T09:24:49.000Z</time>
      </trkpt>
      <trkpt lat="44.49644" lon="0.67701">
        <ele>195.2</ele>
        <time>2017-01-22T09:24:50.000Z</time>
      </trkpt>
      <trkpt lat="44.49646" lon="0.67698">
        <ele>195.3</ele>
        <time>2017-01-22T09:24:51.000Z</time>
      </trkpt>
      <trkpt lat="44.49647" lon="0.67695">
        <ele>195.6</ele>
        <time>2017-01-22T09:24:52.000Z</time>
      </trkpt>
      <trkpt lat="44.49649" lon="0.67691">
        <ele>195.8</ele>
        <time>2017-01-22T09:24:53.000Z</time>
      </trkpt>
      <trkpt lat="44.4965" lon="0.67688">
        <ele>196</ele>
        <time>2017-01-22T09:24:54.000Z</time>
      </trkpt>
      <trkpt lat="44.49652" lon="0.67684">
        <ele>196.3</ele>
        <time>2017-01-22T09:24:55.000Z</time>
      </trkpt>
      <trkpt lat="44.49654" lon="0.67681">
        <ele>196.6</ele>
        <time>2017-01-22T09:24:56.000Z</time>
      </trkpt>
      <trkpt lat="44.49655" lon="0.67677">
        <ele>196.9</ele>
        <time>2017-01-22T09:24:57.000Z</time>
      </trkpt>
      <trkpt lat="44.49657" lon="0.67674">
        <ele>197.2</ele>
        <time>2017-01-22T09:24:58.000Z</time>
      </trkpt>
      <trkpt lat="44.49659" lon="0.6767">
        <ele>197.6</ele>
        <time>2017-01-22T09:24:59.000Z</time>
      </trkpt>
      <trkpt lat="44.4966" lon="0.67667">
        <ele>198</ele>
        <time>2017-01-22T09:25:00.000Z</time>
      </trkpt>
      <trkpt lat="44.49662" lon="0.67664">
        <ele>197.9</ele>
        <time>2017-01-22T09:25:01.000Z</time>
      </trkpt>
      <trkpt lat="44.49664" lon="0.6766">
        <ele>197.8</ele>
        <time>2017-01-22T09:25:02.000Z</time>
      </trkpt>
      <trkpt lat="44.49666" lon="0.67657">
        <ele>197.8</ele>
        <time>2017-01-22T09:25:03.000Z</time>
      </trkpt>
      <trkpt lat="44.49667" lon="0.67654">
        <ele>197.5</ele>
        <time>2017-01-22T09:25:04.000Z</time>
      </trkpt>
      <trkpt lat="44.49669" lon="0.6765">
        <ele>197</ele>
        <time>2017-01-22T09:25:05.000Z</time>
      </trkpt>
      <trkpt lat="44.49671" lon="0.67647">
        <ele>196.6</ele>
        <time>2017-01-22T09:25:06.000Z</time>
      </trkpt>
      <trkpt lat="44.49673" lon="0.67644">
        <ele>196.2</ele>
        <time>2017-01-22T09:25:07.000Z</time>
      </trkpt>
      <trkpt lat="44.49675" lon="0.6764">
        <ele>195.8</ele>
        <time>2017-01-22T09:25:08.000Z</time>
      </trkpt>
      <trkpt lat="44.49677" lon="0.67637">
        <ele>195.4</ele>
        <time>2017-01-22T09:25:09.000Z</time>
      </trkpt>
      <trkpt lat="44.49679" lon="0.67634">
        <ele>195</ele>
        <time>2017-01-22T09:25:10.000Z</time>
      </trkpt>
      <trkpt lat="44.49681" lon="0.6763">
        <ele>194.7</ele>
        <time>2017-01-22T09:25:11.000Z</time>
      </trkpt>
      <trkpt lat="44.49683" lon="0.67627">
        <ele>194.4</ele>
        <time>2017-01-22T09:25:12.000Z</time>
      </trkpt>
      <trkpt lat="44.49685" lon="0.67623">
        <ele>194.2</ele>
        <time>2017-01-22T09:25:13.000Z</time>
      </trkpt>
      <trkpt lat="44.49687" lon="0.6762">
        <ele>193.9</ele>
        <time>2017-01-22T09:25:14.000Z</time>
      </trkpt>
      <trkpt lat="44.49689" lon="0.67616">
        <ele>193.7</ele>
        <time>2017-01-22T09:25:15.000Z</time>
      </trkpt>
      <trkpt lat="44.49691" lon="0.67613">
        <ele>193.6</ele>
        <time>2017-01-22T09:25:16.000Z</time>
      </trkpt>
      <trkpt lat="44.49693" lon="0.67609">
        <ele>193.4</ele>
        <time>2017-01-22T09:25:17.000Z</time>
      </trkpt>
      <trkpt lat="44.49696" lon="0.67605">
        <ele>193.3</ele>
        <time>2017-01-22T09:25:18.000Z</time>
      </trkpt>
      <trkpt lat="44.49698" lon="0.67601">
        <ele>193.3</ele>
        <time>2017-01-22T09:25:19.000Z</time>
      </trkpt>
      <trkpt lat="44.49701" lon="0.67597">
        <ele>193.3</ele>
        <time>2017-01-22T09:25:20.000Z</time>
      </trkpt>
      <trkpt lat="44.49703" lon="0.67594">
        <ele>193.3</ele>
        <time>2017-01-22T09:25:21.000Z</time>
      </trkpt>
      <trkpt lat="44.49704" lon="0.6759">
        <ele>193.3</ele>
        <time>2017-01-22T09:25:22.000Z</time>
      </trkpt>
      <trkpt lat="44.49706" lon="0.67587">
        <ele>193.3</ele>
        <time>2017-01-22T09:25:23.000Z</time>
      </trkpt>
      <trkpt lat="44.49707" lon="0.67583">
        <ele>193.4</ele>
        <time>2017-01-22T09:25:24.000Z</time>
      </trkpt>
      <trkpt lat="44.49709" lon="0.6758">
        <ele>193.4</ele>
        <time>2017-01-22T09:25:25.000Z</time>
      </trkpt>
      <trkpt lat="44.4971" lon="0.67576">
        <ele>193.4</ele>
        <time>2017-01-22T09:25:26.000Z</time>
      </trkpt>
      <trkpt lat="44.49712" lon="0.67572">
        <ele>193.4</ele>
        <time>2017-01-22T09:25:27.000Z</time>
      </trkpt>
      <trkpt lat="44.49714" lon="0.67568">
        <ele>193.5</ele>
        <time>2017-01-22T09:25:28.000Z</time>
      </trkpt>
      <trkpt lat="44.49715" lon="0.67564">
        <ele>193.5</ele>
        <time>2017-01-22T09:25:29.000Z</time>
      </trkpt>
      <trkpt lat="44.49717" lon="0.67559">
        <ele>193.6</ele>
        <time>2017-01-22T09:25:30.000Z</time>
      </trkpt>
      <trkpt lat="44.49719" lon="0.67554">
        <ele>193.7</ele>
        <time>2017-01-22T09:25:31.000Z</time>
      </trkpt>
      <trkpt lat="44.49721" lon="0.67549">
        <ele>193.8</ele>
        <time>2017-01-22T09:25:32.000Z</time>
      </trkpt>
      <trkpt lat="44.49723" lon="0.67544">
        <ele>194</ele>
        <time>2017-01-22T09:25:33.000Z</time>
      </trkpt>
      <trkpt lat="44.49725" lon="0.67539">
        <ele>194.1</ele>
        <time>2017-01-22T09:25:34.000Z</time>
      </trkpt>
      <trkpt lat="44.49727" lon="0.67534">
        <ele>194.3</ele>
        <time>2017-01-22T09:25:35.000Z</time>
      </trkpt>
      <trkpt lat="44.49729" lon="0.67529">
        <ele>194.5</ele>
        <time>2017-01-22T09:25:36.000Z</time>
      </trkpt>
      <trkpt lat="44.49731" lon="0.67524">
        <ele>194.8</ele>
        <time>2017-01-22T09:25:37.000Z</time>
      </trkpt>
      <trkpt lat="44.49732" lon="0.67519">
        <ele>195</ele>
        <time>2017-01-22T09:25:38.000Z</time>
      </trkpt>
      <trkpt lat="44.49734" lon="0.67514">
        <ele>195.2</ele>
        <time>2017-01-22T09:25:39.000Z</time>
      </trkpt>
      <trkpt lat="44.49736" lon="0.67509">
        <ele>195.5</ele>
        <time>2017-01-22T09:25:40.000Z</time>
      </trkpt>
      <trkpt lat="44.49738" lon="0.67505">
        <ele>195.8</ele>
        <time>2017-01-22T09:25:41.000Z</time>
      </trkpt>
      <trkpt lat="44.49739" lon="0.67501">
        <ele>196.1</ele>
        <time>2017-01-22T09:25:42.000Z</time>
      </trkpt>
      <trkpt lat="44.49741" lon="0.67497">
        <ele>196.2</ele>
        <time>2017-01-22T09:25:43.000Z</time>
      </trkpt>
      <trkpt lat="44.49742" lon="0.67493">
        <ele>196.2</ele>
        <time>2017-01-22T09:25:44.000Z</time>
      </trkpt>
      <trkpt lat="44.49744" lon="0.67489">
        <ele>196.3</ele>
        <time>2017-01-22T09:25:45.000Z</time>
      </trkpt>
      <trkpt lat="44.49745" lon="0.67484">
        <ele>196.3</ele>
        <time>2017-01-22T09:25:46.000Z</time>
      </trkpt>
      <trkpt lat="44.49746" lon="0.6748">
        <ele>196.3</ele>
        <time>2017-01-22T09:25:47.000Z</time>
      </trkpt>
      <trkpt lat="44.49747" lon="0.67477">
        <ele>196.3</ele>
        <time>2017-01-22T09:25:48.000Z</time>
      </trkpt>
      <trkpt lat="44.49748" lon="0.67475">
        <ele>196.3</ele>
        <time>2017-01-22T09:25:49.000Z</time>
      </trkpt>
      <trkpt lat="44.49748" lon="0.67475">
        <ele>196.4</ele>
        <time>2017-01-22T09:25:50.000Z</time>
      </trkpt>
      <trkpt lat="44.49748" lon="0.67474">
        <ele>196.4</ele>
        <time>2017-01-22T09:25:51.000Z</time>
      </trkpt>
      <trkpt lat="44.49748" lon="0.67474">
        <ele>196.4</ele>
        <time>2017-01-22T09:25:52.000Z</time>
      </trkpt>
      <trkpt lat="44.49748" lon="0.67474">
        <ele>196.4</ele>
        <time>2017-01-22T09:25:53.000Z</time>
      </trkpt>
      <trkpt lat="44.49748" lon="0.67474">
        <ele>196.4</ele>
        <time>2017-01-22T09:25:54.000Z</time>
      </trkpt>
      <trkpt lat="44.49748" lon="0.67474">
        <ele>196.4</ele>
        <time>2017-01-22T09:25:55.000Z</time>
      </trkpt>
      <trkpt lat="44.49748" lon="0.67474">
        <ele>196.4</ele>
        <time>2017-01-22T09:25:56.000Z</time>
      </trkpt>
      <trkpt lat="44.49748" lon="0.67474">
        <ele>196.4</ele>
        <time>2017-01-22T09:25:57.000Z</time>
      </trkpt>
      <trkpt lat="44.49748" lon="0.67474">
        <ele>196.4</ele>
        <time>2017-01-22T09:25:58.000Z</time>
      </trkpt>
      <trkpt lat="44.49748" lon="0.67474">
        <ele>196.5</ele>
        <time>2017-01-22T09:25:59.000Z</time>
      </trkpt>
      <trkpt lat="44.49749" lon="0.67474">
        <ele>196.5</ele>
        <time>2017-01-22T09:26:00.000Z</time>
      </trkpt>
      <trkpt lat="44.49749" lon="0.67474">
        <ele>196.5</ele>
        <time>2017-01-22T09:26:01.000Z</time>
      </trkpt>
      <trkpt lat="44.49749" lon="0.67474">
        <ele>196.5</ele>
        <time>2017-01-22T09:26:02.000Z</time>
      </trkpt>
      <trkpt lat="44.49749" lon="0.67474">
        <ele>196.5</ele>
        <time>2017-01-22T09:26:03.000Z</time>
      </trkpt>
      <trkpt lat="44.49749" lon="0.67474">
        <ele>196.5</ele>
        <time>2017-01-22T09:26:04.000Z</time>
      </trkpt>
      <trkpt lat="44.49749" lon="0.67474">
        <ele>196.5</ele>
        <time>2017-01-22T09:26:05.000Z</time>
      </trkpt>
      <trkpt lat="44.49749" lon="0.67474">
        <ele>196.5</ele>
        <time>2017-01-22T09:26:06.000Z</time>
      </trkpt>
      <trkpt lat="44.49749" lon="0.67474">
        <ele>196.5</ele>
        <time>2017-01-22T09:26:07.000Z</time>
      </trkpt>
      <trkpt lat="44.49749" lon="0.67474">
        <ele>196.5</ele>
        <time>2017-01-22T09:26:08.000Z</time>
      </trkpt>
      <trkpt lat="44.49749" lon="0.67474">
        <ele>196.5</ele>
        <time>2017-01-22T09:26:09.000Z</time>
      </trkpt>
      <trkpt lat="44.49749" lon="0.67474">
        <ele>196.5</ele>
        <time>2017-01-22T09:26:10.000Z</time>
      </trkpt>
      <trkpt lat="44.49749" lon="0.67474">
        <ele>196.5</ele>
        <time>2017-01-22T09:26:11.000Z</time>
      </trkpt>
      <trkpt lat="44.49749" lon="0.67474">
        <ele>196.5</ele>
        <time>2017-01-22T09:26:12.000Z</time>
      </trkpt>
      <trkpt lat="44.49749" lon="0.67474">
        <ele>196.5</ele>
        <time>2017-01-22T09:26:13.000Z</time>
      </trkpt>
      <trkpt lat="44.49749" lon="0.67474">
        <ele>196.5</ele>
        <time>2017-01-22T09:26:14.000Z</time>
      </trkpt>
      <trkpt lat="44.49749" lon="0.67474">
        <ele>196.5</ele>
        <time>2017-01-22T09:26:15.000Z</time>
      </trkpt>
      <trkpt lat="44.49749" lon="0.67474">
        <ele>196.5</ele>
        <time>2017-01-22T09:26:16.000Z</time>
      </trkpt>
      <trkpt lat="44.49749" lon="0.67474">
        <ele>196.5</ele>
        <time>2017-01-22T09:26:17.000Z</time>
      </trkpt>
      <trkpt lat="44.49749" lon="0.67474">
        <ele>196.5</ele>
        <time>2017-01-22T09:26:18.000Z</time>
      </trkpt>
      <trkpt lat="44.49749" lon="0.67474">
        <ele>196.5</ele>
        <time>2017-01-22T09:26:19.000Z</time>
      </trkpt>
      <trkpt lat="44.49749" lon="0.67474">
        <ele>196.5</ele>
        <time>2017-01-22T09:26:20.000Z</time>
      </trkpt>
      <trkpt lat="44.49749" lon="0.67474">
        <ele>196.5</ele>
        <time>2017-01-22T09:26:21.000Z</time>
      </trkpt>
      <trkpt lat="44.49749" lon="0.67474">
        <ele>196.5</ele>
        <time>2017-01-22T09:26:22.000Z</time>
      </trkpt>
      <trkpt lat="44.49749" lon="0.67474">
        <ele>196.5</ele>
        <time>2017-01-22T09:26:23.000Z</time>
      </trkpt>
      <trkpt lat="44.49749" lon="0.67474">
        <ele>196.5</ele>
        <time>2017-01-22T09:26:24.000Z</time>
      </trkpt>
      <trkpt lat="44.49749" lon="0.67474">
        <ele>196.5</ele>
        <time>2017-01-22T09:26:25.000Z</time>
      </trkpt>
      <trkpt lat="44.49749" lon="0.67474">
        <ele>196.5</ele>
        <time>2017-01-22T09:26:26.000Z</time>
      </trkpt>
      <trkpt lat="44.49749" lon="0.67474">
        <ele>196.5</ele>
        <time>2017-01-22T09:26:27.000Z</time>
      </trkpt>
      <trkpt lat="44.49749" lon="0.67474">
        <ele>196.5</ele>
        <time>2017-01-22T09:26:28.000Z</time>
      </trkpt>
      <trkpt lat="44.49749" lon="0.67474">
        <ele>196.5</ele>
        <time>2017-01-22T09:26:29.000Z</time>
      </trkpt>
      <trkpt lat="44.49749" lon="0.67474">
        <ele>196.5</ele>
        <time>2017-01-22T09:26:30.000Z</time>
      </trkpt>
      <trkpt lat="44.49749" lon="0.67474">
        <ele>196.5</ele>
        <time>2017-01-22T09:26:31.000Z</time>
      </trkpt>
      <trkpt lat="44.49749" lon="0.67474">
        <ele>196.5</ele>
        <time>2017-01-22T09:26:32.000Z</time>
      </trkpt>
      <trkpt lat="44.49749" lon="0.67474">
        <ele>196.5</ele>
        <time>2017-01-22T09:26:33.000Z</time>
      </trkpt>
      <trkpt lat="44.49749" lon="0.67474">
        <ele>196.5</ele>
        <time>2017-01-22T09:26:34.000Z</time>
      </trkpt>
      <trkpt lat="44.49749" lon="0.67474">
        <ele>196.5</ele>
        <time>2017-01-22T09:26:35.000Z</time>
      </trkpt>
      <trkpt lat="44.49749" lon="0.67474">
        <ele>196.5</ele>
        <time>2017-01-22T09:26:36.000Z</time>
      </trkpt>
      <trkpt lat="44.49749" lon="0.67474">
        <ele>196.5</ele>
        <time>2017-01-22T09:26:37.000Z</time>
      </trkpt>
      <trkpt lat="44.49749" lon="0.67474">
        <ele>196.5</ele>
        <time>2017-01-22T09:26:38.000Z</time>
      </trkpt>
      <trkpt lat="44.49749" lon="0.67474">
        <ele>196.5</ele>
        <time>2017-01-22T09:26:39.000Z</time>
      </trkpt>
      <trkpt lat="44.49749" lon="0.67474">
        <ele>196.5</ele>
        <time>2017-01-22T09:26:40.000Z</time>
      </trkpt>
      <trkpt lat="44.49749" lon="0.67474">
        <ele>196.5</ele>
        <time>2017-01-22T09:26:41.000Z</time>
      </trkpt>
      <trkpt lat="44.49749" lon="0.67474">
        <ele>196.5</ele>
        <time>2017-01-22T09:26:42.000Z</time>
      </trkpt>
      <trkpt lat="44.49749" lon="0.67474">
        <ele>196.5</ele>
        <time>2017-01-22T09:26:43.000Z</time>
      </trkpt>
      <trkpt lat="44.49749" lon="0.67474">
        <ele>196.5</ele>
        <time>2017-01-22T09:26:44.000Z</time>
      </trkpt>
      <trkpt lat="44.49749" lon="0.67474">
        <ele>196.5</ele>
        <time>2017-01-22T09:26:45.000Z</time>
      </trkpt>
      <trkpt lat="44.49749" lon="0.67474">
        <ele>196.5</ele>
        <time>2017-01-22T09:26:46.000Z</time>
      </trkpt>
      <trkpt lat="44.49749" lon="0.67474">
        <ele>196.5</ele>
        <time>2017-01-22T09:26:47.000Z</time>
      </trkpt>
      <trkpt lat="44.49749" lon="0.67474">
        <ele>196.5</ele>
        <time>2017-01-22T09:26:48.000Z</time>
      </trkpt>
      <trkpt lat="44.49749" lon="0.67474">
        <ele>196.5</ele>
        <time>2017-01-22T09:26:49.000Z</time>
      </trkpt>
      <trkpt lat="44.49749" lon="0.67474">
        <ele>196.5</ele>
        <time>2017-01-22T09:26:50.000Z</time>
      </trkpt>
      <trkpt lat="44.49749" lon="0.67474">
        <ele>196.5</ele>
        <time>2017-01-22T09:26:51.000Z</time>
      </trkpt>
      <trkpt lat="44.49749" lon="0.67474">
        <ele>196.5</ele>
        <time>2017-01-22T09:26:52.000Z</time>
      </trkpt>
      <trkpt lat="44.49749" lon="0.67474">
        <ele>196.5</ele>
        <time>2017-01-22T09:26:53.000Z</time>
      </trkpt>
      <trkpt lat="44.49749" lon="0.67474">
        <ele>196.5</ele>
        <time>2017-01-22T09:26:54.000Z</time>
      </trkpt>
      <trkpt lat="44.49749" lon="0.67474">
        <ele>196.5</ele>
        <time>2017-01-22T09:26:55.000Z</time>
      </trkpt>
      <trkpt lat="44.49749" lon="0.67474">
        <ele>196.5</ele>
        <time>2017-01-22T09:26:56.000Z</time>
      </trkpt>
      <trkpt lat="44.49749" lon="0.67474">
        <ele>196.5</ele>
        <time>2017-01-22T09:26:57.000Z</time>
      </trkpt>
      <trkpt lat="44.49749" lon="0.67474">
        <ele>196.6</ele>
        <time>2017-01-22T09:26:58.000Z</time>
      </trkpt>
      <trkpt lat="44.49749" lon="0.67474">
        <ele>196.6</ele>
        <time>2017-01-22T09:26:59.000Z</time>
      </trkpt>
      <trkpt lat="44.49749" lon="0.67474">
        <ele>196.6</ele>
        <time>2017-01-22T09:27:00.000Z</time>
      </trkpt>
      <trkpt lat="44.49749" lon="0.67474">
        <ele>196.6</ele>
        <time>2017-01-22T09:27:01.000Z</time>
      </trkpt>
      <trkpt lat="44.49749" lon="0.67474">
        <ele>196.6</ele>
        <time>2017-01-22T09:27:02.000Z</time>
      </trkpt>
      <trkpt lat="44.49749" lon="0.67474">
        <ele>196.6</ele>
        <time>2017-01-22T09:27:03.000Z</time>
      </trkpt>
      <trkpt lat="44.49749" lon="0.67474">
        <ele>196.6</ele>
        <time>2017-01-22T09:27:04.000Z</time>
      </trkpt>
      <trkpt lat="44.49749" lon="0.67474">
        <ele>196.6</ele>
        <time>2017-01-22T09:27:05.000Z</time>
      </trkpt>
      <trkpt lat="44.49749" lon="0.67474">
        <ele>196.6</ele>
        <time>2017-01-22T09:27:06.000Z</time>
      </trkpt>
      <trkpt lat="44.49749" lon="0.67474">
        <ele>196.6</ele>
        <time>2017-01-22T09:27:07.000Z</time>
      </trkpt>
      <trkpt lat="44.4975" lon="0.67474">
        <ele>196.7</ele>
        <time>2017-01-22T09:27:08.000Z</time>
      </trkpt>
      <trkpt lat="44.49751" lon="0.67473">
        <ele>196.6</ele>
        <time>2017-01-22T09:27:09.000Z</time>
      </trkpt>
      <trkpt lat="44.49752" lon="0.67472">
        <ele>196.4</ele>
        <time>2017-01-22T09:27:10.000Z</time>
      </trkpt>
      <trkpt lat="44.49753" lon="0.67472">
        <ele>196.3</ele>
        <time>2017-01-22T09:27:11.000Z</time>
      </trkpt>
      <trkpt lat="44.49754" lon="0.67472">
        <ele>196.2</ele>
        <time>2017-01-22T09:27:12.000Z</time>
      </trkpt>
      <trkpt lat="44.49755" lon="0.67472">
        <ele>196.1</ele>
        <time>2017-01-22T09:27:13.000Z</time>
      </trkpt>
      <trkpt lat="44.49755" lon="0.67472">
        <ele>196</ele>
        <time>2017-01-22T09:27:14.000Z</time>
      </trkpt>
      <trkpt lat="44.49755" lon="0.67473">
        <ele>196</ele>
        <time>2017-01-22T09:27:15.000Z</time>
      </trkpt>
      <trkpt lat="44.49755" lon="0.67473">
        <ele>196</ele>
        <time>2017-01-22T09:27:16.000Z</time>
      </trkpt>
      <trkpt lat="44.49755" lon="0.67473">
        <ele>196</ele>
        <time>2017-01-22T09:27:17.000Z</time>
      </trkpt>
      <trkpt lat="44.49755" lon="0.67473">
        <ele>196</ele>
        <time>2017-01-22T09:27:18.000Z</time>
      </trkpt>
      <trkpt lat="44.49755" lon="0.67473">
        <ele>196</ele>
        <time>2017-01-22T09:27:19.000Z</time>
      </trkpt>
      <trkpt lat="44.49755" lon="0.67473">
        <ele>196</ele>
        <time>2017-01-22T09:27:20.000Z</time>
      </trkpt>
      <trkpt lat="44.49755" lon="0.67473">
        <ele>196</ele>
        <time>2017-01-22T09:27:21.000Z</time>
      </trkpt>
      <trkpt lat="44.49755" lon="0.67473">
        <ele>196</ele>
        <time>2017-01-22T09:27:22.000Z</time>
      </trkpt>
      <trkpt lat="44.49755" lon="0.67473">
        <ele>196</ele>
        <time>2017-01-22T09:27:23.000Z</time>
      </trkpt>
      <trkpt lat="44.49755" lon="0.67473">
        <ele>196</ele>
        <time>2017-01-22T09:27:24.000Z</time>
      </trkpt>
      <trkpt lat="44.49755" lon="0.67473">
        <ele>196</ele>
        <time>2017-01-22T09:27:25.000Z</time>
      </trkpt>
      <trkpt lat="44.49755" lon="0.67473">
        <ele>196</ele>
        <time>2017-01-22T09:27:26.000Z</time>
      </trkpt>
      <trkpt lat="44.49755" lon="0.67473">
        <ele>196</ele>
        <time>2017-01-22T09:27:27.000Z</time>
      </trkpt>
      <trkpt lat="44.49755" lon="0.67473">
        <ele>196</ele>
        <time>2017-01-22T09:27:28.000Z</time>
      </trkpt>
      <trkpt lat="44.49755" lon="0.67473">
        <ele>196</ele>
        <time>2017-01-22T09:27:29.000Z</time>
      </trkpt>
      <trkpt lat="44.49755" lon="0.67473">
        <ele>196</ele>
        <time>2017-01-22T09:27:30.000Z</time>
      </trkpt>
      <trkpt lat="44.49755" lon="0.67473">
        <ele>196</ele>
        <time>2017-01-22T09:27:31.000Z</time>
      </trkpt>
      <trkpt lat="44.49755" lon="0.67473">
        <ele>196</ele>
        <time>2017-01-22T09:27:32.000Z</time>
      </trkpt>
      <trkpt lat="44.49755" lon="0.67473">
        <ele>196</ele>
        <time>2017-01-22T09:27:33.000Z</time>
      </trkpt>
      <trkpt lat="44.49755" lon="0.67473">
        <ele>196</ele>
        <time>2017-01-22T09:27:34.000Z</time>
      </trkpt>
      <trkpt lat="44.49755" lon="0.67473">
        <ele>196</ele>
        <time>2017-01-22T09:27:35.000Z</time>
      </trkpt>
      <trkpt lat="44.49755" lon="0.67473">
        <ele>196</ele>
        <time>2017-01-22T09:27:36.000Z</time>
      </trkpt>
      <trkpt lat="44.49755" lon="0.67473">
        <ele>196</ele>
        <time>2017-01-22T09:27:37.000Z</time>
      </trkpt>
      <trkpt lat="44.49755" lon="0.67473">
        <ele>196</ele>
        <time>2017-01-22T09:27:38.000Z</time>
      </trkpt>
      <trkpt lat="44.49755" lon="0.67473">
        <ele>196</ele>
        <time>2017-01-22T09:27:39.000Z</time>
      </trkpt>
      <trkpt lat="44.49755" lon="0.67473">
        <ele>196</ele>
        <time>2017-01-22T09:27:40.000Z</time>
      </trkpt>
      <trkpt lat="44.49755" lon="0.67473">
        <ele>196</ele>
        <time>2017-01-22T09:27:41.000Z</time>
      </trkpt>
      <trkpt lat="44.49755" lon="0.67473">
        <ele>196</ele>
        <time>2017-01-22T09:27:42.000Z</time>
      </trkpt>
      <trkpt lat="44.49755" lon="0.67473">
        <ele>196</ele>
        <time>2017-01-22T09:27:43.000Z</time>
      </trkpt>
      <trkpt lat="44.49755" lon="0.67473">
        <ele>196</ele>
        <time>2017-01-22T09:27:44.000Z</time>
      </trkpt>
      <trkpt lat="44.49755" lon="0.67473">
        <ele>196</ele>
        <time>2017-01-22T09:27:45.000Z</time>
      </trkpt>
      <trkpt lat="44.49755" lon="0.67473">
        <ele>196</ele>
        <time>2017-01-22T09:27:46.000Z</time>
      </trkpt>
      <trkpt lat="44.49755" lon="0.67473">
        <ele>196</ele>
        <time>2017-01-22T09:27:47.000Z</time>
      </trkpt>
      <trkpt lat="44.49755" lon="0.67473">
        <ele>196</ele>
        <time>2017-01-22T09:27:48.000Z</time>
      </trkpt>
      <trkpt lat="44.49755" lon="0.67473">
        <ele>196</ele>
        <time>2017-01-22T09:27:49.000Z</time>
      </trkpt>
      <trkpt lat="44.49755" lon="0.67473">
        <ele>196</ele>
        <time>2017-01-22T09:27:50.000Z</time>
      </trkpt>
      <trkpt lat="44.49755" lon="0.67473">
        <ele>196</ele>
        <time>2017-01-22T09:27:51.000Z</time>
      </trkpt>
      <trkpt lat="44.49755" lon="0.67473">
        <ele>196</ele>
        <time>2017-01-22T09:27:52.000Z</time>
      </trkpt>
      <trkpt lat="44.49755" lon="0.67473">
        <ele>196</ele>
        <time>2017-01-22T09:27:53.000Z</time>
      </trkpt>
      <trkpt lat="44.49755" lon="0.67473">
        <ele>196</ele>
        <time>2017-01-22T09:27:54.000Z</time>
      </trkpt>
      <trkpt lat="44.49755" lon="0.67473">
        <ele>196</ele>
        <time>2017-01-22T09:27:55.000Z</time>
      </trkpt>
      <trkpt lat="44.49755" lon="0.67473">
        <ele>196</ele>
        <time>2017-01-22T09:27:56.000Z</time>
      </trkpt>
      <trkpt lat="44.49755" lon="0.67473">
        <ele>196</ele>
        <time>2017-01-22T09:27:57.000Z</time>
      </trkpt>
      <trkpt lat="44.49755" lon="0.67473">
        <ele>196</ele>
        <time>2017-01-22T09:27:58.000Z</time>
      </trkpt>
      <trkpt lat="44.49755" lon="0.67473">
        <ele>196</ele>
        <time>2017-01-22T09:27:59.000Z</time>
      </trkpt>
      <trkpt lat="44.49755" lon="0.67473">
        <ele>196</ele>
        <time>2017-01-22T09:28:00.000Z</time>
      </trkpt>
      <trkpt lat="44.49755" lon="0.67473">
        <ele>196</ele>
        <time>2017-01-22T09:28:01.000Z</time>
      </trkpt>
      <trkpt lat="44.49755" lon="0.67473">
        <ele>196</ele>
        <time>2017-01-22T09:28:02.000Z</time>
      </trkpt>
      <trkpt lat="44.49755" lon="0.67473">
        <ele>196</ele>
        <time>2017-01-22T09:28:03.000Z</time>
      </trkpt>
      <trkpt lat="44.49755" lon="0.67473">
        <ele>196</ele>
        <time>2017-01-22T09:28:04.000Z</time>
      </trkpt>
      <trkpt lat="44.49755" lon="0.67473">
        <ele>196</ele>
        <time>2017-01-22T09:28:05.000Z</time>
      </trkpt>
      <trkpt lat="44.49755" lon="0.67473">
        <ele>196</ele>
        <time>2017-01-22T09:28:06.000Z</time>
      </trkpt>
      <trkpt lat="44.49755" lon="0.67473">
        <ele>196</ele>
        <time>2017-01-22T09:28:07.000Z</time>
      </trkpt>
      <trkpt lat="44.49755" lon="0.67473">
        <ele>196</ele>
        <time>2017-01-22T09:28:08.000Z</time>
      </trkpt>
      <trkpt lat="44.49755" lon="0.67473">
        <ele>196</ele>
        <time>2017-01-22T09:28:09.000Z</time>
      </trkpt>
      <trkpt lat="44.49755" lon="0.67473">
        <ele>196</ele>
        <time>2017-01-22T09:28:10.000Z</time>
      </trkpt>
      <trkpt lat="44.49755" lon="0.67473">
        <ele>196</ele>
        <time>2017-01-22T09:28:11.000Z</time>
      </trkpt>
      <trkpt lat="44.49755" lon="0.67473">
        <ele>196</ele>
        <time>2017-01-22T09:28:12.000Z</time>
      </trkpt>
      <trkpt lat="44.49755" lon="0.67473">
        <ele>196</ele>
        <time>2017-01-22T09:28:13.000Z</time>
      </trkpt>
      <trkpt lat="44.49755" lon="0.67473">
        <ele>196</ele>
        <time>2017-01-22T09:28:14.000Z</time>
      </trkpt>
      <trkpt lat="44.49755" lon="0.67473">
        <ele>196</ele>
        <time>2017-01-22T09:28:15.000Z</time>
      </trkpt>
      <trkpt lat="44.49755" lon="0.67473">
        <ele>196</ele>
        <time>2017-01-22T09:28:16.000Z</time>
      </trkpt>
      <trkpt lat="44.49755" lon="0.67473">
        <ele>196</ele>
        <time>2017-01-22T09:28:17.000Z</time>
      </trkpt>
      <trkpt lat="44.49755" lon="0.67473">
        <ele>196</ele>
        <time>2017-01-22T09:28:18.000Z</time>
      </trkpt>
      <trkpt lat="44.49755" lon="0.67473">
        <ele>196</ele>
        <time>2017-01-22T09:28:19.000Z</time>
      </trkpt>
      <trkpt lat="44.49755" lon="0.67473">
        <ele>196</ele>
        <time>2017-01-22T09:28:20.000Z</time>
      </trkpt>
      <trkpt lat="44.49755" lon="0.67473">
        <ele>196</ele>
        <time>2017-01-22T09:28:21.000Z</time>
      </trkpt>
      <trkpt lat="44.49755" lon="0.67473">
        <ele>196</ele>
        <time>2017-01-22T09:28:22.000Z</time>
      </trkpt>
      <trkpt lat="44.49755" lon="0.67473">
        <ele>196</ele>
        <time>2017-01-22T09:28:23.000Z</time>
      </trkpt>
      <trkpt lat="44.49755" lon="0.67473">
        <ele>196</ele>
        <time>2017-01-22T09:28:24.000Z</time>
      </trkpt>
      <trkpt lat="44.49755" lon="0.67473">
        <ele>196</ele>
        <time>2017-01-22T09:28:25.000Z</time>
      </trkpt>
      <trkpt lat="44.49755" lon="0.67473">
        <ele>196</ele>
        <time>2017-01-22T09:28:26.000Z</time>
      </trkpt>
      <trkpt lat="44.49755" lon="0.67473">
        <ele>196</ele>
        <time>2017-01-22T09:28:27.000Z</time>
      </trkpt>
      <trkpt lat="44.49755" lon="0.67473">
        <ele>196</ele>
        <time>2017-01-22T09:28:28.000Z</time>
      </trkpt>
      <trkpt lat="44.49755" lon="0.67473">
        <ele>196</ele>
        <time>2017-01-22T09:28:29.000Z</time>
      </trkpt>
      <trkpt lat="44.49755" lon="0.67473">
        <ele>196</ele>
        <time>2017-01-22T09:28:30.000Z</time>
      </trkpt>
      <trkpt lat="44.49755" lon="0.67473">
        <ele>196</ele>
        <time>2017-01-22T09:28:31.000Z</time>
      </trkpt>
      <trkpt lat="44.49755" lon="0.67473">
        <ele>196</ele>
        <time>2017-01-22T09:28:32.000Z</time>
      </trkpt>
      <trkpt lat="44.49755" lon="0.67473">
        <ele>196</ele>
        <time>2017-01-22T09:28:33.000Z</time>
      </trkpt>
      <trkpt lat="44.49755" lon="0.67473">
        <ele>196</ele>
        <time>2017-01-22T09:28:34.000Z</time>
      </trkpt>
      <trkpt lat="44.49755" lon="0.67473">
        <ele>196</ele>
        <time>2017-01-22T09:28:35.000Z</time>
      </trkpt>
      <trkpt lat="44.49755" lon="0.67473">
        <ele>196</ele>
        <time>2017-01-22T09:28:36.000Z</time>
      </trkpt>
      <trkpt lat="44.49755" lon="0.67473">
        <ele>196</ele>
        <time>2017-01-22T09:28:37.000Z</time>
      </trkpt>
      <trkpt lat="44.49755" lon="0.67473">
        <ele>196</ele>
        <time>2017-01-22T09:28:38.000Z</time>
      </trkpt>
      <trkpt lat="44.49755" lon="0.67473">
        <ele>196</ele>
        <time>2017-01-22T09:28:39.000Z</time>
      </trkpt>
      <trkpt lat="44.49755" lon="0.67473">
        <ele>196</ele>
        <time>2017-01-22T09:28:40.000Z</time>
      </trkpt>
      <trkpt lat="44.49755" lon="0.67473">
        <ele>196</ele>
        <time>2017-01-22T09:28:41.000Z</time>
      </trkpt>
      <trkpt lat="44.49755" lon="0.67473">
        <ele>196</ele>
        <time>2017-01-22T09:28:42.000Z</time>
      </trkpt>
      <trkpt lat="44.49755" lon="0.67473">
        <ele>196</ele>
        <time>2017-01-22T09:28:43.000Z</time>
      </trkpt>
      <trkpt lat="44.49755" lon="0.67473">
        <ele>196</ele>
        <time>2017-01-22T09:28:44.000Z</time>
      </trkpt>
      <trkpt lat="44.49755" lon="0.67473">
        <ele>196</ele>
        <time>2017-01-22T09:28:45.000Z</time>
      </trkpt>
      <trkpt lat="44.49755" lon="0.67473">
        <ele>196</ele>
        <time>2017-01-22T09:28:46.000Z</time>
      </trkpt>
      <trkpt lat="44.49755" lon="0.67473">
        <ele>196</ele>
        <time>2017-01-22T09:28:47.000Z</time>
      </trkpt>
      <trkpt lat="44.49755" lon="0.67473">
        <ele>196</ele>
        <time>2017-01-22T09:28:48.000Z</time>
      </trkpt>
      <trkpt lat="44.49755" lon="0.67473">
        <ele>196</ele>
        <time>2017-01-22T09:28:49.000Z</time>
      </trkpt>
      <trkpt lat="44.49755" lon="0.67473">
        <ele>196</ele>
        <time>2017-01-22T09:28:50.000Z</time>
      </trkpt>
      <trkpt lat="44.49755" lon="0.67473">
        <ele>196</ele>
        <time>2017-01-22T09:28:51.000Z</time>
      </trkpt>
      <trkpt lat="44.49755" lon="0.67473">
        <ele>196</ele>
        <time>2017-01-22T09:28:52.000Z</time>
      </trkpt>
      <trkpt lat="44.49755" lon="0.67473">
        <ele>196</ele>
        <time>2017-01-22T09:28:53.000Z</time>
      </trkpt>
      <trkpt lat="44.49755" lon="0.67473">
        <ele>196</ele>
        <time>2017-01-22T09:28:54.000Z</time>
      </trkpt>
      <trkpt lat="44.49755" lon="0.67473">
        <ele>196</ele>
        <time>2017-01-22T09:28:55.000Z</time>
      </trkpt>
      <trkpt lat="44.49755" lon="0.67473">
        <ele>196</ele>
        <time>2017-01-22T09:28:56.000Z</time>
      </trkpt>
      <trkpt lat="44.49755" lon="0.67473">
        <ele>196</ele>
        <time>2017-01-22T09:28:57.000Z</time>
      </trkpt>
      <trkpt lat="44.49755" lon="0.67473">
        <ele>196</ele>
        <time>2017-01-22T09:28:58.000Z</time>
      </trkpt>
      <trkpt lat="44.49755" lon="0.67473">
        <ele>196</ele>
        <time>2017-01-22T09:28:59.000Z</time>
      </trkpt>
      <trkpt lat="44.49755" lon="0.67473">
        <ele>196</ele>
        <time>2017-01-22T09:29:00.000Z</time>
      </trkpt>
      <trkpt lat="44.49755" lon="0.67473">
        <ele>196</ele>
        <time>2017-01-22T09:29:01.000Z</time>
      </trkpt>
      <trkpt lat="44.49755" lon="0.67473">
        <ele>196</ele>
        <time>2017-01-22T09:29:02.000Z</time>
      </trkpt>
      <trkpt lat="44.49755" lon="0.67473">
        <ele>196</ele>
        <time>2017-01-22T09:29:03.000Z</time>
      </trkpt>
      <trkpt lat="44.49755" lon="0.67473">
        <ele>196</ele>
        <time>2017-01-22T09:29:04.000Z</time>
      </trkpt>
      <trkpt lat="44.49755" lon="0.67473">
        <ele>196</ele>
        <time>2017-01-22T09:29:05.000Z</time>
      </trkpt>
      <trkpt lat="44.49755" lon="0.67473">
        <ele>196</ele>
        <time>2017-01-22T09:29:06.000Z</time>
      </trkpt>
      <trkpt lat="44.49755" lon="0.67473">
        <ele>196</ele>
        <time>2017-01-22T09:29:07.000Z</time>
      </trkpt>
      <trkpt lat="44.49755" lon="0.67473">
        <ele>196</ele>
        <time>2017-01-22T09:29:08.000Z</time>
      </trkpt>
      <trkpt lat="44.49755" lon="0.67473">
        <ele>196</ele>
        <time>2017-01-22T09:29:09.000Z</time>
      </trkpt>
      <trkpt lat="44.49755" lon="0.67473">
        <ele>196</ele>
        <time>2017-01-22T09:29:10.000Z</time>
      </trkpt>
      <trkpt lat="44.49755" lon="0.67473">
        <ele>196</ele>
        <time>2017-01-22T09:29:11.000Z</time>
      </trkpt>
      <trkpt lat="44.49755" lon="0.67473">
        <ele>196</ele>
        <time>2017-01-22T09:29:12.000Z</time>
      </trkpt>
      <trkpt lat="44.49755" lon="0.67473">
        <ele>196</ele>
        <time>2017-01-22T09:29:13.000Z</time>
      </trkpt>
      <trkpt lat="44.49755" lon="0.67473">
        <ele>196</ele>
        <time>2017-01-22T09:29:14.000Z</time>
      </trkpt>
      <trkpt lat="44.49755" lon="0.67473">
        <ele>196</ele>
        <time>2017-01-22T09:29:15.000Z</time>
      </trkpt>
      <trkpt lat="44.49755" lon="0.67473">
        <ele>196</ele>
        <time>2017-01-22T09:29:16.000Z</time>
      </trkpt>
      <trkpt lat="44.49755" lon="0.67473">
        <ele>196</ele>
        <time>2017-01-22T09:29:17.000Z</time>
      </trkpt>
      <trkpt lat="44.49755" lon="0.67473">
        <ele>196</ele>
        <time>2017-01-22T09:29:18.000Z</time>
      </trkpt>
      <trkpt lat="44.49755" lon="0.67473">
        <ele>196</ele>
        <time>2017-01-22T09:29:19.000Z</time>
      </trkpt>
      <trkpt lat="44.49755" lon="0.67473">
        <ele>196</ele>
        <time>2017-01-22T09:29:20.000Z</time>
      </trkpt>
      <trkpt lat="44.49755" lon="0.67473">
        <ele>196</ele>
        <time>2017-01-22T09:29:21.000Z</time>
      </trkpt>
      <trkpt lat="44.49755" lon="0.67473">
        <ele>196</ele>
        <time>2017-01-22T09:29:22.000Z</time>
      </trkpt>
      <trkpt lat="44.49755" lon="0.67473">
        <ele>196</ele>
        <time>2017-01-22T09:29:23.000Z</time>
      </trkpt>
      <trkpt lat="44.49755" lon="0.67473">
        <ele>196</ele>
        <time>2017-01-22T09:29:24.000Z</time>
      </trkpt>
      <trkpt lat="44.49755" lon="0.67473">
        <ele>196</ele>
        <time>2017-01-22T09:29:25.000Z</time>
      </trkpt>
      <trkpt lat="44.49755" lon="0.67473">
        <ele>196</ele>
        <time>2017-01-22T09:29:26.000Z</time>
      </trkpt>
      <trkpt lat="44.49755" lon="0.67473">
        <ele>196</ele>
        <time>2017-01-22T09:29:27.000Z</time>
      </trkpt>
      <trkpt lat="44.49755" lon="0.67474">
        <ele>196.1</ele>
        <time>2017-01-22T09:29:28.000Z</time>
      </trkpt>
      <trkpt lat="44.49755" lon="0.67474">
        <ele>196.1</ele>
        <time>2017-01-22T09:29:29.000Z</time>
      </trkpt>
      <trkpt lat="44.49756" lon="0.67472">
        <ele>195.9</ele>
        <time>2017-01-22T09:29:30.000Z</time>
      </trkpt>
      <trkpt lat="44.49756" lon="0.6747">
        <ele>195.8</ele>
        <time>2017-01-22T09:29:31.000Z</time>
      </trkpt>
      <trkpt lat="44.49756" lon="0.67468">
        <ele>195.8</ele>
        <time>2017-01-22T09:29:32.000Z</time>
      </trkpt>
      <trkpt lat="44.49756" lon="0.67467">
        <ele>195.6</ele>
        <time>2017-01-22T09:29:33.000Z</time>
      </trkpt>
      <trkpt lat="44.49756" lon="0.67465">
        <ele>195.5</ele>
        <time>2017-01-22T09:29:34.000Z</time>
      </trkpt>
      <trkpt lat="44.49757" lon="0.67462">
        <ele>195.4</ele>
        <time>2017-01-22T09:29:35.000Z</time>
      </trkpt>
      <trkpt lat="44.49757" lon="0.67459">
        <ele>195.2</ele>
        <time>2017-01-22T09:29:36.000Z</time>
      </trkpt>
      <trkpt lat="44.49758" lon="0.67456">
        <ele>195</ele>
        <time>2017-01-22T09:29:37.000Z</time>
      </trkpt>
      <trkpt lat="44.49759" lon="0.67453">
        <ele>194.8</ele>
        <time>2017-01-22T09:29:38.000Z</time>
      </trkpt>
      <trkpt lat="44.4976" lon="0.6745">
        <ele>194.6</ele>
        <time>2017-01-22T09:29:39.000Z</time>
      </trkpt>
      <trkpt lat="44.49761" lon="0.67447">
        <ele>194.4</ele>
        <time>2017-01-22T09:29:40.000Z</time>
      </trkpt>
      <trkpt lat="44.49762" lon="0.67444">
        <ele>194.2</ele>
        <time>2017-01-22T09:29:41.000Z</time>
      </trkpt>
      <trkpt lat="44.49763" lon="0.6744">
        <ele>193.9</ele>
        <time>2017-01-22T09:29:42.000Z</time>
      </trkpt>
      <trkpt lat="44.49764" lon="0.67437">
        <ele>193.7</ele>
        <time>2017-01-22T09:29:43.000Z</time>
      </trkpt>
      <trkpt lat="44.49765" lon="0.67433">
        <ele>193.5</ele>
        <time>2017-01-22T09:29:44.000Z</time>
      </trkpt>
      <trkpt lat="44.49767" lon="0.67429">
        <ele>193.3</ele>
        <time>2017-01-22T09:29:45.000Z</time>
      </trkpt>
      <trkpt lat="44.49768" lon="0.67424">
        <ele>193.1</ele>
        <time>2017-01-22T09:29:46.000Z</time>
      </trkpt>
      <trkpt lat="44.49769" lon="0.67419">
        <ele>192.9</ele>
        <time>2017-01-22T09:29:47.000Z</time>
      </trkpt>
      <trkpt lat="44.49771" lon="0.67413">
        <ele>192.6</ele>
        <time>2017-01-22T09:29:48.000Z</time>
      </trkpt>
      <trkpt lat="44.49772" lon="0.67407">
        <ele>192.1</ele>
        <time>2017-01-22T09:29:49.000Z</time>
      </trkpt>
      <trkpt lat="44.49774" lon="0.674">
        <ele>191.6</ele>
        <time>2017-01-22T09:29:50.000Z</time>
      </trkpt>
      <trkpt lat="44.49776" lon="0.67392">
        <ele>191.1</ele>
        <time>2017-01-22T09:29:51.000Z</time>
      </trkpt>
      <trkpt lat="44.49778" lon="0.67383">
        <ele>190.6</ele>
        <time>2017-01-22T09:29:52.000Z</time>
      </trkpt>
      <trkpt lat="44.49779" lon="0.67374">
        <ele>190</ele>
        <time>2017-01-22T09:29:53.000Z</time>
      </trkpt>
      <trkpt lat="44.49781" lon="0.67362">
        <ele>189.4</ele>
        <time>2017-01-22T09:29:54.000Z</time>
      </trkpt>
      <trkpt lat="44.49782" lon="0.6735">
        <ele>188.8</ele>
        <time>2017-01-22T09:29:55.000Z</time>
      </trkpt>
      <trkpt lat="44.49783" lon="0.67338">
        <ele>188.2</ele>
        <time>2017-01-22T09:29:56.000Z</time>
      </trkpt>
      <trkpt lat="44.49784" lon="0.67326">
        <ele>188.4</ele>
        <time>2017-01-22T09:29:57.000Z</time>
      </trkpt>
      <trkpt lat="44.49784" lon="0.67314">
        <ele>188.9</ele>
        <time>2017-01-22T09:29:58.000Z</time>
      </trkpt>
      <trkpt lat="44.49784" lon="0.67303">
        <ele>189.5</ele>
        <time>2017-01-22T09:29:59.000Z</time>
      </trkpt>
      <trkpt lat="44.49784" lon="0.67293">
        <ele>189.9</ele>
        <time>2017-01-22T09:30:00.000Z</time>
      </trkpt>
      <trkpt lat="44.49784" lon="0.67286">
        <ele>190.3</ele>
        <time>2017-01-22T09:30:01.000Z</time>
      </trkpt>
      <trkpt lat="44.49784" lon="0.67279">
        <ele>190.6</ele>
        <time>2017-01-22T09:30:02.000Z</time>
      </trkpt>
      <trkpt lat="44.49784" lon="0.67274">
        <ele>190.9</ele>
        <time>2017-01-22T09:30:03.000Z</time>
      </trkpt>
      <trkpt lat="44.49783" lon="0.67269">
        <ele>191.1</ele>
        <time>2017-01-22T09:30:04.000Z</time>
      </trkpt>
      <trkpt lat="44.49783" lon="0.67264">
        <ele>191.3</ele>
        <time>2017-01-22T09:30:05.000Z</time>
      </trkpt>
      <trkpt lat="44.49783" lon="0.6726">
        <ele>191.5</ele>
        <time>2017-01-22T09:30:06.000Z</time>
      </trkpt>
      <trkpt lat="44.49782" lon="0.67256">
        <ele>191.7</ele>
        <time>2017-01-22T09:30:07.000Z</time>
      </trkpt>
      <trkpt lat="44.49782" lon="0.67251">
        <ele>192</ele>
        <time>2017-01-22T09:30:08.000Z</time>
      </trkpt>
      <trkpt lat="44.49781" lon="0.67247">
        <ele>192.2</ele>
        <time>2017-01-22T09:30:09.000Z</time>
      </trkpt>
      <trkpt lat="44.49781" lon="0.67242">
        <ele>192.4</ele>
        <time>2017-01-22T09:30:10.000Z</time>
      </trkpt>
      <trkpt lat="44.49781" lon="0.67237">
        <ele>192.6</ele>
        <time>2017-01-22T09:30:11.000Z</time>
      </trkpt>
      <trkpt lat="44.4978" lon="0.67233">
        <ele>192.8</ele>
        <time>2017-01-22T09:30:12.000Z</time>
      </trkpt>
      <trkpt lat="44.4978" lon="0.67228">
        <ele>193</ele>
        <time>2017-01-22T09:30:13.000Z</time>
      </trkpt>
      <trkpt lat="44.4978" lon="0.67223">
        <ele>193.3</ele>
        <time>2017-01-22T09:30:14.000Z</time>
      </trkpt>
      <trkpt lat="44.4978" lon="0.67219">
        <ele>193.5</ele>
        <time>2017-01-22T09:30:15.000Z</time>
      </trkpt>
      <trkpt lat="44.4978" lon="0.67214">
        <ele>193.7</ele>
        <time>2017-01-22T09:30:16.000Z</time>
      </trkpt>
      <trkpt lat="44.4978" lon="0.6721">
        <ele>193.9</ele>
        <time>2017-01-22T09:30:17.000Z</time>
      </trkpt>
      <trkpt lat="44.4978" lon="0.67205">
        <ele>194.1</ele>
        <time>2017-01-22T09:30:18.000Z</time>
      </trkpt>
      <trkpt lat="44.49781" lon="0.67201">
        <ele>194.3</ele>
        <time>2017-01-22T09:30:19.000Z</time>
      </trkpt>
      <trkpt lat="44.49781" lon="0.67196">
        <ele>194.5</ele>
        <time>2017-01-22T09:30:20.000Z</time>
      </trkpt>
      <trkpt lat="44.49782" lon="0.67192">
        <ele>194.7</ele>
        <time>2017-01-22T09:30:21.000Z</time>
      </trkpt>
      <trkpt lat="44.49782" lon="0.67188">
        <ele>194.9</ele>
        <time>2017-01-22T09:30:22.000Z</time>
      </trkpt>
      <trkpt lat="44.49783" lon="0.67183">
        <ele>195.1</ele>
        <time>2017-01-22T09:30:23.000Z</time>
      </trkpt>
      <trkpt lat="44.49784" lon="0.67179">
        <ele>195.2</ele>
        <time>2017-01-22T09:30:24.000Z</time>
      </trkpt>
      <trkpt lat="44.49785" lon="0.67175">
        <ele>195.4</ele>
        <time>2017-01-22T09:30:25.000Z</time>
      </trkpt>
      <trkpt lat="44.49786" lon="0.6717">
        <ele>195.6</ele>
        <time>2017-01-22T09:30:26.000Z</time>
      </trkpt>
      <trkpt lat="44.49787" lon="0.67166">
        <ele>195.7</ele>
        <time>2017-01-22T09:30:27.000Z</time>
      </trkpt>
      <trkpt lat="44.49787" lon="0.67161">
        <ele>195.7</ele>
        <time>2017-01-22T09:30:28.000Z</time>
      </trkpt>
      <trkpt lat="44.49787" lon="0.67157">
        <ele>195.6</ele>
        <time>2017-01-22T09:30:29.000Z</time>
      </trkpt>
      <trkpt lat="44.49787" lon="0.67152">
        <ele>195.6</ele>
        <time>2017-01-22T09:30:30.000Z</time>
      </trkpt>
      <trkpt lat="44.49787" lon="0.67148">
        <ele>195.6</ele>
        <time>2017-01-22T09:30:31.000Z</time>
      </trkpt>
      <trkpt lat="44.49787" lon="0.67143">
        <ele>195.6</ele>
        <time>2017-01-22T09:30:32.000Z</time>
      </trkpt>
      <trkpt lat="44.49786" lon="0.67139">
        <ele>195.6</ele>
        <time>2017-01-22T09:30:33.000Z</time>
      </trkpt>
      <trkpt lat="44.49786" lon="0.67134">
        <ele>195.6</ele>
        <time>2017-01-22T09:30:34.000Z</time>
      </trkpt>
      <trkpt lat="44.49786" lon="0.67129">
        <ele>195.6</ele>
        <time>2017-01-22T09:30:35.000Z</time>
      </trkpt>
      <trkpt lat="44.49786" lon="0.67124">
        <ele>195.6</ele>
        <time>2017-01-22T09:30:36.000Z</time>
      </trkpt>
      <trkpt lat="44.49785" lon="0.67119">
        <ele>195.6</ele>
        <time>2017-01-22T09:30:37.000Z</time>
      </trkpt>
      <trkpt lat="44.49785" lon="0.67113">
        <ele>195.6</ele>
        <time>2017-01-22T09:30:38.000Z</time>
      </trkpt>
      <trkpt lat="44.49785" lon="0.67108">
        <ele>195.6</ele>
        <time>2017-01-22T09:30:39.000Z</time>
      </trkpt>
      <trkpt lat="44.49784" lon="0.67103">
        <ele>195.6</ele>
        <time>2017-01-22T09:30:40.000Z</time>
      </trkpt>
      <trkpt lat="44.49784" lon="0.67098">
        <ele>195.6</ele>
        <time>2017-01-22T09:30:41.000Z</time>
      </trkpt>
      <trkpt lat="44.49784" lon="0.67092">
        <ele>195.6</ele>
        <time>2017-01-22T09:30:42.000Z</time>
      </trkpt>
      <trkpt lat="44.49783" lon="0.67087">
        <ele>195.6</ele>
        <time>2017-01-22T09:30:43.000Z</time>
      </trkpt>
      <trkpt lat="44.49783" lon="0.67081">
        <ele>195.7</ele>
        <time>2017-01-22T09:30:44.000Z</time>
      </trkpt>
      <trkpt lat="44.49783" lon="0.67076">
        <ele>196</ele>
        <time>2017-01-22T09:30:45.000Z</time>
      </trkpt>
      <trkpt lat="44.49783" lon="0.6707">
        <ele>196.3</ele>
        <time>2017-01-22T09:30:46.000Z</time>
      </trkpt>
      <trkpt lat="44.49782" lon="0.67065">
        <ele>196.6</ele>
        <time>2017-01-22T09:30:47.000Z</time>
      </trkpt>
      <trkpt lat="44.49782" lon="0.67059">
        <ele>196.8</ele>
        <time>2017-01-22T09:30:48.000Z</time>
      </trkpt>
      <trkpt lat="44.49782" lon="0.67054">
        <ele>197.1</ele>
        <time>2017-01-22T09:30:49.000Z</time>
      </trkpt>
      <trkpt lat="44.49781" lon="0.67049">
        <ele>197.4</ele>
        <time>2017-01-22T09:30:50.000Z</time>
      </trkpt>
      <trkpt lat="44.49781" lon="0.67043">
        <ele>197.7</ele>
        <time>2017-01-22T09:30:51.000Z</time>
      </trkpt>
      <trkpt lat="44.49781" lon="0.67038">
        <ele>198</ele>
        <time>2017-01-22T09:30:52.000Z</time>
      </trkpt>
      <trkpt lat="44.49781" lon="0.67033">
        <ele>198.2</ele>
        <time>2017-01-22T09:30:53.000Z</time>
      </trkpt>
      <trkpt lat="44.49781" lon="0.67027">
        <ele>198.5</ele>
        <time>2017-01-22T09:30:54.000Z</time>
      </trkpt>
      <trkpt lat="44.4978" lon="0.67022">
        <ele>198.8</ele>
        <time>2017-01-22T09:30:55.000Z</time>
      </trkpt>
      <trkpt lat="44.4978" lon="0.67017">
        <ele>199</ele>
        <time>2017-01-22T09:30:56.000Z</time>
      </trkpt>
      <trkpt lat="44.4978" lon="0.67012">
        <ele>199.3</ele>
        <time>2017-01-22T09:30:57.000Z</time>
      </trkpt>
      <trkpt lat="44.4978" lon="0.67007">
        <ele>199.6</ele>
        <time>2017-01-22T09:30:58.000Z</time>
      </trkpt>
      <trkpt lat="44.49781" lon="0.67002">
        <ele>199.8</ele>
        <time>2017-01-22T09:30:59.000Z</time>
      </trkpt>
      <trkpt lat="44.49781" lon="0.66996">
        <ele>200.2</ele>
        <time>2017-01-22T09:31:00.000Z</time>
      </trkpt>
      <trkpt lat="44.49781" lon="0.66991">
        <ele>200.5</ele>
        <time>2017-01-22T09:31:01.000Z</time>
      </trkpt>
      <trkpt lat="44.49782" lon="0.66986">
        <ele>200.9</ele>
        <time>2017-01-22T09:31:02.000Z</time>
      </trkpt>
      <trkpt lat="44.49782" lon="0.66981">
        <ele>201.2</ele>
        <time>2017-01-22T09:31:03.000Z</time>
      </trkpt>
      <trkpt lat="44.49783" lon="0.66976">
        <ele>201.6</ele>
        <time>2017-01-22T09:31:04.000Z</time>
      </trkpt>
      <trkpt lat="44.49783" lon="0.66971">
        <ele>201.9</ele>
        <time>2017-01-22T09:31:05.000Z</time>
      </trkpt>
      <trkpt lat="44.49784" lon="0.66966">
        <ele>202.3</ele>
        <time>2017-01-22T09:31:06.000Z</time>
      </trkpt>
      <trkpt lat="44.49784" lon="0.66961">
        <ele>202.6</ele>
        <time>2017-01-22T09:31:07.000Z</time>
      </trkpt>
      <trkpt lat="44.49785" lon="0.66956">
        <ele>202.9</ele>
        <time>2017-01-22T09:31:08.000Z</time>
      </trkpt>
      <trkpt lat="44.49785" lon="0.66952">
        <ele>203.2</ele>
        <time>2017-01-22T09:31:09.000Z</time>
      </trkpt>
      <trkpt lat="44.49786" lon="0.66947">
        <ele>203.5</ele>
        <time>2017-01-22T09:31:10.000Z</time>
      </trkpt>
      <trkpt lat="44.49786" lon="0.66943">
        <ele>203.8</ele>
        <time>2017-01-22T09:31:11.000Z</time>
      </trkpt>
      <trkpt lat="44.49787" lon="0.66939">
        <ele>204.1</ele>
        <time>2017-01-22T09:31:12.000Z</time>
      </trkpt>
      <trkpt lat="44.49788" lon="0.66934">
        <ele>204.4</ele>
        <time>2017-01-22T09:31:13.000Z</time>
      </trkpt>
      <trkpt lat="44.49788" lon="0.6693">
        <ele>204.6</ele>
        <time>2017-01-22T09:31:14.000Z</time>
      </trkpt>
      <trkpt lat="44.49789" lon="0.66926">
        <ele>204.9</ele>
        <time>2017-01-22T09:31:15.000Z</time>
      </trkpt>
      <trkpt lat="44.4979" lon="0.66922">
        <ele>205.2</ele>
        <time>2017-01-22T09:31:16.000Z</time>
      </trkpt>
      <trkpt lat="44.4979" lon="0.66918">
        <ele>205.4</ele>
        <time>2017-01-22T09:31:17.000Z</time>
      </trkpt>
      <trkpt lat="44.49791" lon="0.66914">
        <ele>205.7</ele>
        <time>2017-01-22T09:31:18.000Z</time>
      </trkpt>
      <trkpt lat="44.49792" lon="0.66911">
        <ele>205.9</ele>
        <time>2017-01-22T09:31:19.000Z</time>
      </trkpt>
      <trkpt lat="44.49792" lon="0.66907">
        <ele>206.2</ele>
        <time>2017-01-22T09:31:20.000Z</time>
      </trkpt>
      <trkpt lat="44.49793" lon="0.66903">
        <ele>206.5</ele>
        <time>2017-01-22T09:31:21.000Z</time>
      </trkpt>
      <trkpt lat="44.49793" lon="0.66899">
        <ele>206.7</ele>
        <time>2017-01-22T09:31:22.000Z</time>
      </trkpt>
      <trkpt lat="44.49794" lon="0.66896">
        <ele>206.9</ele>
        <time>2017-01-22T09:31:23.000Z</time>
      </trkpt>
      <trkpt lat="44.49794" lon="0.66892">
        <ele>207.2</ele>
        <time>2017-01-22T09:31:24.000Z</time>
      </trkpt>
      <trkpt lat="44.49795" lon="0.66889">
        <ele>207.4</ele>
        <time>2017-01-22T09:31:25.000Z</time>
      </trkpt>
      <trkpt lat="44.49795" lon="0.66885">
        <ele>207.7</ele>
        <time>2017-01-22T09:31:26.000Z</time>
      </trkpt>
      <trkpt lat="44.49796" lon="0.66882">
        <ele>207.9</ele>
        <time>2017-01-22T09:31:27.000Z</time>
      </trkpt>
      <trkpt lat="44.49796" lon="0.66878">
        <ele>208.2</ele>
        <time>2017-01-22T09:31:28.000Z</time>
      </trkpt>
      <trkpt lat="44.49796" lon="0.66875">
        <ele>208.4</ele>
        <time>2017-01-22T09:31:29.000Z</time>
      </trkpt>
      <trkpt lat="44.49797" lon="0.66871">
        <ele>208.6</ele>
        <time>2017-01-22T09:31:30.000Z</time>
      </trkpt>
      <trkpt lat="44.49797" lon="0.66868">
        <ele>208.9</ele>
        <time>2017-01-22T09:31:31.000Z</time>
      </trkpt>
      <trkpt lat="44.49798" lon="0.66865">
        <ele>209.1</ele>
        <time>2017-01-22T09:31:32.000Z</time>
      </trkpt>
      <trkpt lat="44.49799" lon="0.66861">
        <ele>209.4</ele>
        <time>2017-01-22T09:31:33.000Z</time>
      </trkpt>
      <trkpt lat="44.49799" lon="0.66858">
        <ele>209.6</ele>
        <time>2017-01-22T09:31:34.000Z</time>
      </trkpt>
      <trkpt lat="44.498" lon="0.66855">
        <ele>209.8</ele>
        <time>2017-01-22T09:31:35.000Z</time>
      </trkpt>
      <trkpt lat="44.498" lon="0.66853">
        <ele>209.9</ele>
        <time>2017-01-22T09:31:36.000Z</time>
      </trkpt>
      <trkpt lat="44.49801" lon="0.66851">
        <ele>210.1</ele>
        <time>2017-01-22T09:31:37.000Z</time>
      </trkpt>
      <trkpt lat="44.49801" lon="0.6685">
        <ele>210.2</ele>
        <time>2017-01-22T09:31:38.000Z</time>
      </trkpt>
      <trkpt lat="44.49801" lon="0.66848">
        <ele>210.3</ele>
        <time>2017-01-22T09:31:39.000Z</time>
      </trkpt>
      <trkpt lat="44.49802" lon="0.66848">
        <ele>210.3</ele>
        <time>2017-01-22T09:31:40.000Z</time>
      </trkpt>
      <trkpt lat="44.49802" lon="0.66847">
        <ele>210.4</ele>
        <time>2017-01-22T09:31:41.000Z</time>
      </trkpt>
      <trkpt lat="44.49802" lon="0.66847">
        <ele>210.4</ele>
        <time>2017-01-22T09:31:42.000Z</time>
      </trkpt>
      <trkpt lat="44.49802" lon="0.66847">
        <ele>210.4</ele>
        <time>2017-01-22T09:31:43.000Z</time>
      </trkpt>
      <trkpt lat="44.49802" lon="0.66847">
        <ele>210.4</ele>
        <time>2017-01-22T09:31:44.000Z</time>
      </trkpt>
      <trkpt lat="44.49802" lon="0.66847">
        <ele>210.4</ele>
        <time>2017-01-22T09:31:45.000Z</time>
      </trkpt>
      <trkpt lat="44.49802" lon="0.66847">
        <ele>210.4</ele>
        <time>2017-01-22T09:31:46.000Z</time>
      </trkpt>
      <trkpt lat="44.49802" lon="0.66847">
        <ele>210.4</ele>
        <time>2017-01-22T09:31:47.000Z</time>
      </trkpt>
      <trkpt lat="44.49802" lon="0.66847">
        <ele>210.4</ele>
        <time>2017-01-22T09:31:48.000Z</time>
      </trkpt>
      <trkpt lat="44.49802" lon="0.66847">
        <ele>210.4</ele>
        <time>2017-01-22T09:31:49.000Z</time>
      </trkpt>
      <trkpt lat="44.49802" lon="0.66847">
        <ele>210.4</ele>
        <time>2017-01-22T09:31:50.000Z</time>
      </trkpt>
      <trkpt lat="44.49802" lon="0.66847">
        <ele>210.4</ele>
        <time>2017-01-22T09:31:51.000Z</time>
      </trkpt>
      <trkpt lat="44.49802" lon="0.66847">
        <ele>210.4</ele>
        <time>2017-01-22T09:31:52.000Z</time>
      </trkpt>
      <trkpt lat="44.49802" lon="0.66847">
        <ele>210.4</ele>
        <time>2017-01-22T09:31:53.000Z</time>
      </trkpt>
      <trkpt lat="44.49802" lon="0.66847">
        <ele>210.4</ele>
        <time>2017-01-22T09:31:54.000Z</time>
      </trkpt>
      <trkpt lat="44.49802" lon="0.66847">
        <ele>210.4</ele>
        <time>2017-01-22T09:31:55.000Z</time>
      </trkpt>
      <trkpt lat="44.49802" lon="0.66847">
        <ele>210.4</ele>
        <time>2017-01-22T09:31:56.000Z</time>
      </trkpt>
      <trkpt lat="44.49802" lon="0.66846">
        <ele>210.4</ele>
        <time>2017-01-22T09:31:57.000Z</time>
      </trkpt>
      <trkpt lat="44.49802" lon="0.66846">
        <ele>210.4</ele>
        <time>2017-01-22T09:31:58.000Z</time>
      </trkpt>
      <trkpt lat="44.49802" lon="0.66846">
        <ele>210.4</ele>
        <time>2017-01-22T09:31:59.000Z</time>
      </trkpt>
      <trkpt lat="44.49802" lon="0.66846">
        <ele>210.4</ele>
        <time>2017-01-22T09:32:00.000Z</time>
      </trkpt>
      <trkpt lat="44.49802" lon="0.66846">
        <ele>210.4</ele>
        <time>2017-01-22T09:32:01.000Z</time>
      </trkpt>
      <trkpt lat="44.49802" lon="0.66846">
        <ele>210.4</ele>
        <time>2017-01-22T09:32:02.000Z</time>
      </trkpt>
      <trkpt lat="44.49802" lon="0.66846">
        <ele>210.4</ele>
        <time>2017-01-22T09:32:03.000Z</time>
      </trkpt>
      <trkpt lat="44.49802" lon="0.66846">
        <ele>210.4</ele>
        <time>2017-01-22T09:32:04.000Z</time>
      </trkpt>
      <trkpt lat="44.49802" lon="0.66846">
        <ele>210.4</ele>
        <time>2017-01-22T09:32:05.000Z</time>
      </trkpt>
      <trkpt lat="44.49802" lon="0.66846">
        <ele>210.4</ele>
        <time>2017-01-22T09:32:06.000Z</time>
      </trkpt>
      <trkpt lat="44.49802" lon="0.66846">
        <ele>210.4</ele>
        <time>2017-01-22T09:32:07.000Z</time>
      </trkpt>
      <trkpt lat="44.49802" lon="0.66846">
        <ele>210.4</ele>
        <time>2017-01-22T09:32:08.000Z</time>
      </trkpt>
      <trkpt lat="44.49802" lon="0.66846">
        <ele>210.4</ele>
        <time>2017-01-22T09:32:09.000Z</time>
      </trkpt>
      <trkpt lat="44.49802" lon="0.66846">
        <ele>210.4</ele>
        <time>2017-01-22T09:32:10.000Z</time>
      </trkpt>
      <trkpt lat="44.49802" lon="0.66846">
        <ele>210.4</ele>
        <time>2017-01-22T09:32:11.000Z</time>
      </trkpt>
      <trkpt lat="44.49802" lon="0.66847">
        <ele>210.4</ele>
        <time>2017-01-22T09:32:12.000Z</time>
      </trkpt>
      <trkpt lat="44.49802" lon="0.66847">
        <ele>210.4</ele>
        <time>2017-01-22T09:32:13.000Z</time>
      </trkpt>
      <trkpt lat="44.49802" lon="0.66846">
        <ele>210.4</ele>
        <time>2017-01-22T09:32:14.000Z</time>
      </trkpt>
      <trkpt lat="44.49802" lon="0.66846">
        <ele>210.4</ele>
        <time>2017-01-22T09:32:15.000Z</time>
      </trkpt>
      <trkpt lat="44.49802" lon="0.66845">
        <ele>210.5</ele>
        <time>2017-01-22T09:32:16.000Z</time>
      </trkpt>
      <trkpt lat="44.49802" lon="0.66844">
        <ele>210.5</ele>
        <time>2017-01-22T09:32:17.000Z</time>
      </trkpt>
      <trkpt lat="44.49803" lon="0.66843">
        <ele>210.6</ele>
        <time>2017-01-22T09:32:18.000Z</time>
      </trkpt>
      <trkpt lat="44.49804" lon="0.66842">
        <ele>210.7</ele>
        <time>2017-01-22T09:32:19.000Z</time>
      </trkpt>
      <trkpt lat="44.49805" lon="0.66841">
        <ele>210.8</ele>
        <time>2017-01-22T09:32:20.000Z</time>
      </trkpt>
      <trkpt lat="44.49807" lon="0.6684">
        <ele>210.8</ele>
        <time>2017-01-22T09:32:21.000Z</time>
      </trkpt>
      <trkpt lat="44.49809" lon="0.66839">
        <ele>210.9</ele>
        <time>2017-01-22T09:32:22.000Z</time>
      </trkpt>
      <trkpt lat="44.4981" lon="0.66838">
        <ele>210.9</ele>
        <time>2017-01-22T09:32:23.000Z</time>
      </trkpt>
      <trkpt lat="44.49812" lon="0.66836">
        <ele>211</ele>
        <time>2017-01-22T09:32:24.000Z</time>
      </trkpt>
      <trkpt lat="44.49813" lon="0.66834">
        <ele>211.2</ele>
        <time>2017-01-22T09:32:25.000Z</time>
      </trkpt>
      <trkpt lat="44.49815" lon="0.66832">
        <ele>211.3</ele>
        <time>2017-01-22T09:32:26.000Z</time>
      </trkpt>
      <trkpt lat="44.49817" lon="0.6683">
        <ele>211.4</ele>
        <time>2017-01-22T09:32:27.000Z</time>
      </trkpt>
      <trkpt lat="44.49818" lon="0.66828">
        <ele>211.4</ele>
        <time>2017-01-22T09:32:28.000Z</time>
      </trkpt>
      <trkpt lat="44.4982" lon="0.66826">
        <ele>211.5</ele>
        <time>2017-01-22T09:32:29.000Z</time>
      </trkpt>
      <trkpt lat="44.49821" lon="0.66825">
        <ele>211.5</ele>
        <time>2017-01-22T09:32:30.000Z</time>
      </trkpt>
      <trkpt lat="44.49822" lon="0.66823">
        <ele>211.6</ele>
        <time>2017-01-22T09:32:31.000Z</time>
      </trkpt>
      <trkpt lat="44.49823" lon="0.6682">
        <ele>211.7</ele>
        <time>2017-01-22T09:32:32.000Z</time>
      </trkpt>
      <trkpt lat="44.49823" lon="0.66818">
        <ele>211.8</ele>
        <time>2017-01-22T09:32:33.000Z</time>
      </trkpt>
      <trkpt lat="44.49824" lon="0.66815">
        <ele>211.9</ele>
        <time>2017-01-22T09:32:34.000Z</time>
      </trkpt>
      <trkpt lat="44.49824" lon="0.66812">
        <ele>212.1</ele>
        <time>2017-01-22T09:32:35.000Z</time>
      </trkpt>
      <trkpt lat="44.49825" lon="0.66809">
        <ele>212.2</ele>
        <time>2017-01-22T09:32:36.000Z</time>
      </trkpt>
      <trkpt lat="44.49825" lon="0.66806">
        <ele>212.4</ele>
        <time>2017-01-22T09:32:37.000Z</time>
      </trkpt>
      <trkpt lat="44.49826" lon="0.66803">
        <ele>212.5</ele>
        <time>2017-01-22T09:32:38.000Z</time>
      </trkpt>
      <trkpt lat="44.49828" lon="0.668">
        <ele>212.6</ele>
        <time>2017-01-22T09:32:39.000Z</time>
      </trkpt>
      <trkpt lat="44.4983" lon="0.66797">
        <ele>212.8</ele>
        <time>2017-01-22T09:32:40.000Z</time>
      </trkpt>
      <trkpt lat="44.49831" lon="0.66794">
        <ele>212.9</ele>
        <time>2017-01-22T09:32:41.000Z</time>
      </trkpt>
      <trkpt lat="44.49831" lon="0.6679">
        <ele>213.1</ele>
        <time>2017-01-22T09:32:42.000Z</time>
      </trkpt>
      <trkpt lat="44.49831" lon="0.66787">
        <ele>213.2</ele>
        <time>2017-01-22T09:32:43.000Z</time>
      </trkpt>
      <trkpt lat="44.4983" lon="0.66785">
        <ele>213.3</ele>
        <time>2017-01-22T09:32:44.000Z</time>
      </trkpt>
      <trkpt lat="44.49828" lon="0.66784">
        <ele>213.3</ele>
        <time>2017-01-22T09:32:45.000Z</time>
      </trkpt>
      <trkpt lat="44.49825" lon="0.66784">
        <ele>213.3</ele>
        <time>2017-01-22T09:32:46.000Z</time>
      </trkpt>
      <trkpt lat="44.49823" lon="0.66784">
        <ele>213.3</ele>
        <time>2017-01-22T09:32:47.000Z</time>
      </trkpt>
      <trkpt lat="44.49821" lon="0.66784">
        <ele>213.4</ele>
        <time>2017-01-22T09:32:48.000Z</time>
      </trkpt>
      <trkpt lat="44.49819" lon="0.66783">
        <ele>213.4</ele>
        <time>2017-01-22T09:32:49.000Z</time>
      </trkpt>
      <trkpt lat="44.49818" lon="0.66782">
        <ele>213.4</ele>
        <time>2017-01-22T09:32:50.000Z</time>
      </trkpt>
      <trkpt lat="44.49817" lon="0.66782">
        <ele>213.4</ele>
        <time>2017-01-22T09:32:51.000Z</time>
      </trkpt>
      <trkpt lat="44.49816" lon="0.66781">
        <ele>213.5</ele>
        <time>2017-01-22T09:32:52.000Z</time>
      </trkpt>
      <trkpt lat="44.49816" lon="0.66781">
        <ele>213.5</ele>
        <time>2017-01-22T09:32:53.000Z</time>
      </trkpt>
      <trkpt lat="44.49816" lon="0.66781">
        <ele>213.5</ele>
        <time>2017-01-22T09:32:54.000Z</time>
      </trkpt>
      <trkpt lat="44.49816" lon="0.66781">
        <ele>213.5</ele>
        <time>2017-01-22T09:32:55.000Z</time>
      </trkpt>
      <trkpt lat="44.49816" lon="0.66781">
        <ele>213.5</ele>
        <time>2017-01-22T09:32:56.000Z</time>
      </trkpt>
      <trkpt lat="44.49816" lon="0.66781">
        <ele>213.5</ele>
        <time>2017-01-22T09:32:57.000Z</time>
      </trkpt>
      <trkpt lat="44.49816" lon="0.66781">
        <ele>213.5</ele>
        <time>2017-01-22T09:32:58.000Z</time>
      </trkpt>
      <trkpt lat="44.49816" lon="0.66781">
        <ele>213.5</ele>
        <time>2017-01-22T09:32:59.000Z</time>
      </trkpt>
      <trkpt lat="44.49816" lon="0.66781">
        <ele>213.5</ele>
        <time>2017-01-22T09:33:00.000Z</time>
      </trkpt>
      <trkpt lat="44.49816" lon="0.66781">
        <ele>213.5</ele>
        <time>2017-01-22T09:33:01.000Z</time>
      </trkpt>
      <trkpt lat="44.49816" lon="0.66781">
        <ele>213.5</ele>
        <time>2017-01-22T09:33:02.000Z</time>
      </trkpt>
      <trkpt lat="44.49816" lon="0.66781">
        <ele>213.5</ele>
        <time>2017-01-22T09:33:03.000Z</time>
      </trkpt>
      <trkpt lat="44.49816" lon="0.66781">
        <ele>213.5</ele>
        <time>2017-01-22T09:33:04.000Z</time>
      </trkpt>
      <trkpt lat="44.49816" lon="0.66781">
        <ele>213.5</ele>
        <time>2017-01-22T09:33:05.000Z</time>
      </trkpt>
      <trkpt lat="44.49816" lon="0.66781">
        <ele>213.5</ele>
        <time>2017-01-22T09:33:06.000Z</time>
      </trkpt>
      <trkpt lat="44.49816" lon="0.66781">
        <ele>213.5</ele>
        <time>2017-01-22T09:33:07.000Z</time>
      </trkpt>
      <trkpt lat="44.49816" lon="0.66781">
        <ele>213.5</ele>
        <time>2017-01-22T09:33:08.000Z</time>
      </trkpt>
      <trkpt lat="44.49816" lon="0.66781">
        <ele>213.5</ele>
        <time>2017-01-22T09:33:09.000Z</time>
      </trkpt>
      <trkpt lat="44.49816" lon="0.66781">
        <ele>213.5</ele>
        <time>2017-01-22T09:33:10.000Z</time>
      </trkpt>
      <trkpt lat="44.49816" lon="0.66781">
        <ele>213.5</ele>
        <time>2017-01-22T09:33:11.000Z</time>
      </trkpt>
      <trkpt lat="44.49816" lon="0.66781">
        <ele>213.5</ele>
        <time>2017-01-22T09:33:12.000Z</time>
      </trkpt>
      <trkpt lat="44.49816" lon="0.66781">
        <ele>213.5</ele>
        <time>2017-01-22T09:33:13.000Z</time>
      </trkpt>
      <trkpt lat="44.49815" lon="0.66781">
        <ele>213.5</ele>
        <time>2017-01-22T09:33:14.000Z</time>
      </trkpt>
      <trkpt lat="44.49813" lon="0.66781">
        <ele>213.5</ele>
        <time>2017-01-22T09:33:15.000Z</time>
      </trkpt>
      <trkpt lat="44.49811" lon="0.66781">
        <ele>213.4</ele>
        <time>2017-01-22T09:33:16.000Z</time>
      </trkpt>
      <trkpt lat="44.49809" lon="0.66781">
        <ele>213.4</ele>
        <time>2017-01-22T09:33:17.000Z</time>
      </trkpt>
      <trkpt lat="44.49806" lon="0.66781">
        <ele>213.4</ele>
        <time>2017-01-22T09:33:18.000Z</time>
      </trkpt>
      <trkpt lat="44.49803" lon="0.6678">
        <ele>213.5</ele>
        <time>2017-01-22T09:33:19.000Z</time>
      </trkpt>
      <trkpt lat="44.498" lon="0.66779">
        <ele>213.5</ele>
        <time>2017-01-22T09:33:20.000Z</time>
      </trkpt>
      <trkpt lat="44.49797" lon="0.66778">
        <ele>213.5</ele>
        <time>2017-01-22T09:33:21.000Z</time>
      </trkpt>
      <trkpt lat="44.49793" lon="0.66777">
        <ele>213.5</ele>
        <time>2017-01-22T09:33:22.000Z</time>
      </trkpt>
      <trkpt lat="44.4979" lon="0.66776">
        <ele>213.6</ele>
        <time>2017-01-22T09:33:23.000Z</time>
      </trkpt>
      <trkpt lat="44.49786" lon="0.66774">
        <ele>213.6</ele>
        <time>2017-01-22T09:33:24.000Z</time>
      </trkpt>
      <trkpt lat="44.49782" lon="0.66773">
        <ele>213.6</ele>
        <time>2017-01-22T09:33:25.000Z</time>
      </trkpt>
      <trkpt lat="44.49778" lon="0.66772">
        <ele>213.6</ele>
        <time>2017-01-22T09:33:26.000Z</time>
      </trkpt>
      <trkpt lat="44.49773" lon="0.6677">
        <ele>213.7</ele>
        <time>2017-01-22T09:33:27.000Z</time>
      </trkpt>
      <trkpt lat="44.49768" lon="0.66769">
        <ele>213.7</ele>
        <time>2017-01-22T09:33:28.000Z</time>
      </trkpt>
      <trkpt lat="44.49763" lon="0.66767">
        <ele>213.7</ele>
        <time>2017-01-22T09:33:29.000Z</time>
      </trkpt>
      <trkpt lat="44.49759" lon="0.66766">
        <ele>213.7</ele>
        <time>2017-01-22T09:33:30.000Z</time>
      </trkpt>
      <trkpt lat="44.49754" lon="0.66765">
        <ele>213.7</ele>
        <time>2017-01-22T09:33:31.000Z</time>
      </trkpt>
      <trkpt lat="44.49749" lon="0.66764">
        <ele>213.7</ele>
        <time>2017-01-22T09:33:32.000Z</time>
      </trkpt>
      <trkpt lat="44.49745" lon="0.66762">
        <ele>213.7</ele>
        <time>2017-01-22T09:33:33.000Z</time>
      </trkpt>
      <trkpt lat="44.4974" lon="0.66761">
        <ele>213.7</ele>
        <time>2017-01-22T09:33:34.000Z</time>
      </trkpt>
      <trkpt lat="44.49736" lon="0.6676">
        <ele>213.7</ele>
        <time>2017-01-22T09:33:35.000Z</time>
      </trkpt>
      <trkpt lat="44.49731" lon="0.66759">
        <ele>213.7</ele>
        <time>2017-01-22T09:33:36.000Z</time>
      </trkpt>
      <trkpt lat="44.49726" lon="0.66758">
        <ele>213.7</ele>
        <time>2017-01-22T09:33:37.000Z</time>
      </trkpt>
      <trkpt lat="44.49721" lon="0.66757">
        <ele>213.7</ele>
        <time>2017-01-22T09:33:38.000Z</time>
      </trkpt>
      <trkpt lat="44.49716" lon="0.66756">
        <ele>213.8</ele>
        <time>2017-01-22T09:33:39.000Z</time>
      </trkpt>
      <trkpt lat="44.49711" lon="0.66754">
        <ele>213.8</ele>
        <time>2017-01-22T09:33:40.000Z</time>
      </trkpt>
      <trkpt lat="44.49705" lon="0.66753">
        <ele>213.9</ele>
        <time>2017-01-22T09:33:41.000Z</time>
      </trkpt>
      <trkpt lat="44.497" lon="0.66751">
        <ele>214</ele>
        <time>2017-01-22T09:33:42.000Z</time>
      </trkpt>
      <trkpt lat="44.49695" lon="0.66749">
        <ele>214</ele>
        <time>2017-01-22T09:33:43.000Z</time>
      </trkpt>
      <trkpt lat="44.49689" lon="0.66748">
        <ele>213.9</ele>
        <time>2017-01-22T09:33:44.000Z</time>
      </trkpt>
      <trkpt lat="44.49684" lon="0.66746">
        <ele>213.9</ele>
        <time>2017-01-22T09:33:45.000Z</time>
      </trkpt>
      <trkpt lat="44.49679" lon="0.66745">
        <ele>213.8</ele>
        <time>2017-01-22T09:33:46.000Z</time>
      </trkpt>
      <trkpt lat="44.49675" lon="0.66744">
        <ele>213.8</ele>
        <time>2017-01-22T09:33:47.000Z</time>
      </trkpt>
      <trkpt lat="44.49671" lon="0.66743">
        <ele>213.7</ele>
        <time>2017-01-22T09:33:48.000Z</time>
      </trkpt>
      <trkpt lat="44.49667" lon="0.66742">
        <ele>213.7</ele>
        <time>2017-01-22T09:33:49.000Z</time>
      </trkpt>
      <trkpt lat="44.49663" lon="0.66741">
        <ele>213.6</ele>
        <time>2017-01-22T09:33:50.000Z</time>
      </trkpt>
      <trkpt lat="44.49659" lon="0.6674">
        <ele>213.4</ele>
        <time>2017-01-22T09:33:51.000Z</time>
      </trkpt>
      <trkpt lat="44.49655" lon="0.66739">
        <ele>213.2</ele>
        <time>2017-01-22T09:33:52.000Z</time>
      </trkpt>
      <trkpt lat="44.49651" lon="0.66738">
        <ele>213.1</ele>
        <time>2017-01-22T09:33:53.000Z</time>
      </trkpt>
      <trkpt lat="44.49647" lon="0.66737">
        <ele>212.9</ele>
        <time>2017-01-22T09:33:54.000Z</time>
      </trkpt>
      <trkpt lat="44.49643" lon="0.66736">
        <ele>212.8</ele>
        <time>2017-01-22T09:33:55.000Z</time>
      </trkpt>
      <trkpt lat="44.49639" lon="0.66735">
        <ele>212.7</ele>
        <time>2017-01-22T09:33:56.000Z</time>
      </trkpt>
      <trkpt lat="44.49635" lon="0.66734">
        <ele>212.5</ele>
        <time>2017-01-22T09:33:57.000Z</time>
      </trkpt>
      <trkpt lat="44.49631" lon="0.66733">
        <ele>212.4</ele>
        <time>2017-01-22T09:33:58.000Z</time>
      </trkpt>
      <trkpt lat="44.49627" lon="0.66732">
        <ele>212.2</ele>
        <time>2017-01-22T09:33:59.000Z</time>
      </trkpt>
      <trkpt lat="44.49623" lon="0.66731">
        <ele>212.1</ele>
        <time>2017-01-22T09:34:00.000Z</time>
      </trkpt>
      <trkpt lat="44.4962" lon="0.6673">
        <ele>212</ele>
        <time>2017-01-22T09:34:01.000Z</time>
      </trkpt>
      <trkpt lat="44.49616" lon="0.66729">
        <ele>211.9</ele>
        <time>2017-01-22T09:34:02.000Z</time>
      </trkpt>
      <trkpt lat="44.49612" lon="0.66728">
        <ele>211.8</ele>
        <time>2017-01-22T09:34:03.000Z</time>
      </trkpt>
      <trkpt lat="44.49608" lon="0.66727">
        <ele>211.6</ele>
        <time>2017-01-22T09:34:04.000Z</time>
      </trkpt>
      <trkpt lat="44.49605" lon="0.66725">
        <ele>211.5</ele>
        <time>2017-01-22T09:34:05.000Z</time>
      </trkpt>
      <trkpt lat="44.49601" lon="0.66724">
        <ele>211.4</ele>
        <time>2017-01-22T09:34:06.000Z</time>
      </trkpt>
      <trkpt lat="44.49598" lon="0.66723">
        <ele>211.4</ele>
        <time>2017-01-22T09:34:07.000Z</time>
      </trkpt>
      <trkpt lat="44.49595" lon="0.66723">
        <ele>211.3</ele>
        <time>2017-01-22T09:34:08.000Z</time>
      </trkpt>
      <trkpt lat="44.49591" lon="0.66722">
        <ele>211.2</ele>
        <time>2017-01-22T09:34:09.000Z</time>
      </trkpt>
      <trkpt lat="44.49588" lon="0.6672">
        <ele>211.1</ele>
        <time>2017-01-22T09:34:10.000Z</time>
      </trkpt>
      <trkpt lat="44.49585" lon="0.66719">
        <ele>211</ele>
        <time>2017-01-22T09:34:11.000Z</time>
      </trkpt>
      <trkpt lat="44.49582" lon="0.66716">
        <ele>211</ele>
        <time>2017-01-22T09:34:12.000Z</time>
      </trkpt>
      <trkpt lat="44.49579" lon="0.66713">
        <ele>211.1</ele>
        <time>2017-01-22T09:34:13.000Z</time>
      </trkpt>
      <trkpt lat="44.49578" lon="0.66708">
        <ele>211.1</ele>
        <time>2017-01-22T09:34:14.000Z</time>
      </trkpt>
      <trkpt lat="44.49577" lon="0.66704">
        <ele>211.1</ele>
        <time>2017-01-22T09:34:15.000Z</time>
      </trkpt>
      <trkpt lat="44.49577" lon="0.667">
        <ele>211.1</ele>
        <time>2017-01-22T09:34:16.000Z</time>
      </trkpt>
      <trkpt lat="44.49578" lon="0.66695">
        <ele>211</ele>
        <time>2017-01-22T09:34:17.000Z</time>
      </trkpt>
      <trkpt lat="44.49579" lon="0.66691">
        <ele>211</ele>
        <time>2017-01-22T09:34:18.000Z</time>
      </trkpt>
      <trkpt lat="44.4958" lon="0.66687">
        <ele>211</ele>
        <time>2017-01-22T09:34:19.000Z</time>
      </trkpt>
      <trkpt lat="44.49581" lon="0.66682">
        <ele>211</ele>
        <time>2017-01-22T09:34:20.000Z</time>
      </trkpt>
      <trkpt lat="44.49582" lon="0.66677">
        <ele>211</ele>
        <time>2017-01-22T09:34:21.000Z</time>
      </trkpt>
      <trkpt lat="44.49584" lon="0.66672">
        <ele>211</ele>
        <time>2017-01-22T09:34:22.000Z</time>
      </trkpt>
      <trkpt lat="44.49586" lon="0.66667">
        <ele>211</ele>
        <time>2017-01-22T09:34:23.000Z</time>
      </trkpt>
      <trkpt lat="44.49588" lon="0.66662">
        <ele>210.5</ele>
        <time>2017-01-22T09:34:24.000Z</time>
      </trkpt>
      <trkpt lat="44.4959" lon="0.66657">
        <ele>209.9</ele>
        <time>2017-01-22T09:34:25.000Z</time>
      </trkpt>
      <trkpt lat="44.49593" lon="0.66652">
        <ele>209.4</ele>
        <time>2017-01-22T09:34:26.000Z</time>
      </trkpt>
      <trkpt lat="44.49597" lon="0.66648">
        <ele>209</ele>
        <time>2017-01-22T09:34:27.000Z</time>
      </trkpt>
      <trkpt lat="44.496" lon="0.66645">
        <ele>208.6</ele>
        <time>2017-01-22T09:34:28.000Z</time>
      </trkpt>
      <trkpt lat="44.49605" lon="0.66642">
        <ele>208.3</ele>
        <time>2017-01-22T09:34:29.000Z</time>
      </trkpt>
      <trkpt lat="44.49609" lon="0.66639">
        <ele>208</ele>
        <time>2017-01-22T09:34:30.000Z</time>
      </trkpt>
      <trkpt lat="44.49612" lon="0.66636">
        <ele>207.7</ele>
        <time>2017-01-22T09:34:31.000Z</time>
      </trkpt>
      <trkpt lat="44.49615" lon="0.66633">
        <ele>207.3</ele>
        <time>2017-01-22T09:34:32.000Z</time>
      </trkpt>
      <trkpt lat="44.49618" lon="0.66629">
        <ele>206.9</ele>
        <time>2017-01-22T09:34:33.000Z</time>
      </trkpt>
      <trkpt lat="44.49619" lon="0.66623">
        <ele>206.3</ele>
        <time>2017-01-22T09:34:34.000Z</time>
      </trkpt>
      <trkpt lat="44.49619" lon="0.66616">
        <ele>205.5</ele>
        <time>2017-01-22T09:34:35.000Z</time>
      </trkpt>
      <trkpt lat="44.49618" lon="0.66607">
        <ele>204.5</ele>
        <time>2017-01-22T09:34:36.000Z</time>
      </trkpt>
      <trkpt lat="44.49617" lon="0.66598">
        <ele>203.6</ele>
        <time>2017-01-22T09:34:37.000Z</time>
      </trkpt>
      <trkpt lat="44.49616" lon="0.66592">
        <ele>202.9</ele>
        <time>2017-01-22T09:34:38.000Z</time>
      </trkpt>
      <trkpt lat="44.49616" lon="0.66586">
        <ele>202.2</ele>
        <time>2017-01-22T09:34:39.000Z</time>
      </trkpt>
      <trkpt lat="44.49615" lon="0.66581">
        <ele>201.4</ele>
        <time>2017-01-22T09:34:40.000Z</time>
      </trkpt>
      <trkpt lat="44.49614" lon="0.66578">
        <ele>200.7</ele>
        <time>2017-01-22T09:34:41.000Z</time>
      </trkpt>
      <trkpt lat="44.49612" lon="0.66577">
        <ele>200.5</ele>
        <time>2017-01-22T09:34:42.000Z</time>
      </trkpt>
      <trkpt lat="44.4961" lon="0.66577">
        <ele>200.6</ele>
        <time>2017-01-22T09:34:43.000Z</time>
      </trkpt>
      <trkpt lat="44.49608" lon="0.66578">
        <ele>200.8</ele>
        <time>2017-01-22T09:34:44.000Z</time>
      </trkpt>
      <trkpt lat="44.49605" lon="0.66579">
        <ele>201.1</ele>
        <time>2017-01-22T09:34:45.000Z</time>
      </trkpt>
      <trkpt lat="44.49601" lon="0.66581">
        <ele>201.4</ele>
        <time>2017-01-22T09:34:46.000Z</time>
      </trkpt>
      <trkpt lat="44.49597" lon="0.66582">
        <ele>201.8</ele>
        <time>2017-01-22T09:34:47.000Z</time>
      </trkpt>
      <trkpt lat="44.49592" lon="0.66584">
        <ele>202.1</ele>
        <time>2017-01-22T09:34:48.000Z</time>
      </trkpt>
      <trkpt lat="44.49586" lon="0.66586">
        <ele>202.3</ele>
        <time>2017-01-22T09:34:49.000Z</time>
      </trkpt>
      <trkpt lat="44.49579" lon="0.66588">
        <ele>202.1</ele>
        <time>2017-01-22T09:34:50.000Z</time>
      </trkpt>
      <trkpt lat="44.49573" lon="0.66589">
        <ele>201.6</ele>
        <time>2017-01-22T09:34:51.000Z</time>
      </trkpt>
      <trkpt lat="44.49567" lon="0.6659">
        <ele>201</ele>
        <time>2017-01-22T09:34:52.000Z</time>
      </trkpt>
      <trkpt lat="44.49562" lon="0.66589">
        <ele>200.4</ele>
        <time>2017-01-22T09:34:53.000Z</time>
      </trkpt>
      <trkpt lat="44.49558" lon="0.66587">
        <ele>199.7</ele>
        <time>2017-01-22T09:34:54.000Z</time>
      </trkpt>
      <trkpt lat="44.49556" lon="0.66583">
        <ele>199</ele>
        <time>2017-01-22T09:34:55.000Z</time>
      </trkpt>
      <trkpt lat="44.49556" lon="0.66579">
        <ele>198.2</ele>
        <time>2017-01-22T09:34:56.000Z</time>
      </trkpt>
      <trkpt lat="44.49558" lon="0.66577">
        <ele>197.9</ele>
        <time>2017-01-22T09:34:57.000Z</time>
      </trkpt>
      <trkpt lat="44.49561" lon="0.66575">
        <ele>197.9</ele>
        <time>2017-01-22T09:34:58.000Z</time>
      </trkpt>
      <trkpt lat="44.49564" lon="0.66573">
        <ele>197.8</ele>
        <time>2017-01-22T09:34:59.000Z</time>
      </trkpt>
      <trkpt lat="44.49568" lon="0.6657">
        <ele>197.6</ele>
        <time>2017-01-22T09:35:00.000Z</time>
      </trkpt>
      <trkpt lat="44.49572" lon="0.66568">
        <ele>197.5</ele>
        <time>2017-01-22T09:35:01.000Z</time>
      </trkpt>
      <trkpt lat="44.49575" lon="0.66566">
        <ele>197.4</ele>
        <time>2017-01-22T09:35:02.000Z</time>
      </trkpt>
      <trkpt lat="44.49579" lon="0.66564">
        <ele>197.5</ele>
        <time>2017-01-22T09:35:03.000Z</time>
      </trkpt>
      <trkpt lat="44.49583" lon="0.66563">
        <ele>197.6</ele>
        <time>2017-01-22T09:35:04.000Z</time>
      </trkpt>
      <trkpt lat="44.49587" lon="0.66562">
        <ele>197.4</ele>
        <time>2017-01-22T09:35:05.000Z</time>
      </trkpt>
      <trkpt lat="44.49591" lon="0.66561">
        <ele>197.2</ele>
        <time>2017-01-22T09:35:06.000Z</time>
      </trkpt>
      <trkpt lat="44.49596" lon="0.6656">
        <ele>196.9</ele>
        <time>2017-01-22T09:35:07.000Z</time>
      </trkpt>
      <trkpt lat="44.496" lon="0.66558">
        <ele>196.5</ele>
        <time>2017-01-22T09:35:08.000Z</time>
      </trkpt>
      <trkpt lat="44.49603" lon="0.66556">
        <ele>196</ele>
        <time>2017-01-22T09:35:09.000Z</time>
      </trkpt>
      <trkpt lat="44.49607" lon="0.66554">
        <ele>195.5</ele>
        <time>2017-01-22T09:35:10.000Z</time>
      </trkpt>
      <trkpt lat="44.49611" lon="0.66552">
        <ele>195.1</ele>
        <time>2017-01-22T09:35:11.000Z</time>
      </trkpt>
      <trkpt lat="44.49616" lon="0.66551">
        <ele>195</ele>
        <time>2017-01-22T09:35:12.000Z</time>
      </trkpt>
      <trkpt lat="44.49622" lon="0.66551">
        <ele>194.9</ele>
        <time>2017-01-22T09:35:13.000Z</time>
      </trkpt>
      <trkpt lat="44.49628" lon="0.66551">
        <ele>194.8</ele>
        <time>2017-01-22T09:35:14.000Z</time>
      </trkpt>
      <trkpt lat="44.49635" lon="0.66549">
        <ele>194.4</ele>
        <time>2017-01-22T09:35:15.000Z</time>
      </trkpt>
      <trkpt lat="44.49642" lon="0.66548">
        <ele>194.1</ele>
        <time>2017-01-22T09:35:16.000Z</time>
      </trkpt>
      <trkpt lat="44.49648" lon="0.66548">
        <ele>194</ele>
        <time>2017-01-22T09:35:17.000Z</time>
      </trkpt>
      <trkpt lat="44.49654" lon="0.66549">
        <ele>194.2</ele>
        <time>2017-01-22T09:35:18.000Z</time>
      </trkpt>
      <trkpt lat="44.4966" lon="0.6655">
        <ele>194.5</ele>
        <time>2017-01-22T09:35:19.000Z</time>
      </trkpt>
      <trkpt lat="44.49666" lon="0.66552">
        <ele>194.7</ele>
        <time>2017-01-22T09:35:20.000Z</time>
      </trkpt>
      <trkpt lat="44.49672" lon="0.66552">
        <ele>195.2</ele>
        <time>2017-01-22T09:35:21.000Z</time>
      </trkpt>
      <trkpt lat="44.49678" lon="0.66552">
        <ele>195.6</ele>
        <time>2017-01-22T09:35:22.000Z</time>
      </trkpt>
      <trkpt lat="44.49683" lon="0.66552">
        <ele>195.9</ele>
        <time>2017-01-22T09:35:23.000Z</time>
      </trkpt>
      <trkpt lat="44.49689" lon="0.66551">
        <ele>196</ele>
        <time>2017-01-22T09:35:24.000Z</time>
      </trkpt>
      <trkpt lat="44.49694" lon="0.66549">
        <ele>196.1</ele>
        <time>2017-01-22T09:35:25.000Z</time>
      </trkpt>
      <trkpt lat="44.49699" lon="0.66547">
        <ele>196</ele>
        <time>2017-01-22T09:35:26.000Z</time>
      </trkpt>
      <trkpt lat="44.49704" lon="0.66545">
        <ele>196</ele>
        <time>2017-01-22T09:35:27.000Z</time>
      </trkpt>
      <trkpt lat="44.49709" lon="0.66542">
        <ele>195.8</ele>
        <time>2017-01-22T09:35:28.000Z</time>
      </trkpt>
      <trkpt lat="44.49713" lon="0.6654">
        <ele>195.7</ele>
        <time>2017-01-22T09:35:29.000Z</time>
      </trkpt>
      <trkpt lat="44.49717" lon="0.66537">
        <ele>195.6</ele>
        <time>2017-01-22T09:35:30.000Z</time>
      </trkpt>
      <trkpt lat="44.49721" lon="0.66534">
        <ele>195.5</ele>
        <time>2017-01-22T09:35:31.000Z</time>
      </trkpt>
      <trkpt lat="44.49725" lon="0.66532">
        <ele>195.4</ele>
        <time>2017-01-22T09:35:32.000Z</time>
      </trkpt>
      <trkpt lat="44.49729" lon="0.66529">
        <ele>195.3</ele>
        <time>2017-01-22T09:35:33.000Z</time>
      </trkpt>
      <trkpt lat="44.49733" lon="0.66526">
        <ele>195.1</ele>
        <time>2017-01-22T09:35:34.000Z</time>
      </trkpt>
      <trkpt lat="44.49738" lon="0.66522">
        <ele>195</ele>
        <time>2017-01-22T09:35:35.000Z</time>
      </trkpt>
      <trkpt lat="44.49742" lon="0.66519">
        <ele>194.9</ele>
        <time>2017-01-22T09:35:36.000Z</time>
      </trkpt>
      <trkpt lat="44.49747" lon="0.66515">
        <ele>194.8</ele>
        <time>2017-01-22T09:35:37.000Z</time>
      </trkpt>
      <trkpt lat="44.49751" lon="0.66512">
        <ele>194.9</ele>
        <time>2017-01-22T09:35:38.000Z</time>
      </trkpt>
      <trkpt lat="44.49755" lon="0.66509">
        <ele>195.1</ele>
        <time>2017-01-22T09:35:39.000Z</time>
      </trkpt>
      <trkpt lat="44.49758" lon="0.66507">
        <ele>195.3</ele>
        <time>2017-01-22T09:35:40.000Z</time>
      </trkpt>
      <trkpt lat="44.49762" lon="0.66505">
        <ele>195.6</ele>
        <time>2017-01-22T09:35:41.000Z</time>
      </trkpt>
      <trkpt lat="44.49765" lon="0.66503">
        <ele>195.9</ele>
        <time>2017-01-22T09:35:42.000Z</time>
      </trkpt>
      <trkpt lat="44.49767" lon="0.66502">
        <ele>196.1</ele>
        <time>2017-01-22T09:35:43.000Z</time>
      </trkpt>
      <trkpt lat="44.4977" lon="0.66501">
        <ele>196.4</ele>
        <time>2017-01-22T09:35:44.000Z</time>
      </trkpt>
      <trkpt lat="44.49772" lon="0.665">
        <ele>196.7</ele>
        <time>2017-01-22T09:35:45.000Z</time>
      </trkpt>
      <trkpt lat="44.49775" lon="0.66499">
        <ele>196.9</ele>
        <time>2017-01-22T09:35:46.000Z</time>
      </trkpt>
      <trkpt lat="44.49777" lon="0.66498">
        <ele>197.1</ele>
        <time>2017-01-22T09:35:47.000Z</time>
      </trkpt>
      <trkpt lat="44.49779" lon="0.66497">
        <ele>197.3</ele>
        <time>2017-01-22T09:35:48.000Z</time>
      </trkpt>
      <trkpt lat="44.49781" lon="0.66496">
        <ele>197.5</ele>
        <time>2017-01-22T09:35:49.000Z</time>
      </trkpt>
      <trkpt lat="44.49782" lon="0.66495">
        <ele>197.7</ele>
        <time>2017-01-22T09:35:50.000Z</time>
      </trkpt>
      <trkpt lat="44.49784" lon="0.66495">
        <ele>197.9</ele>
        <time>2017-01-22T09:35:51.000Z</time>
      </trkpt>
      <trkpt lat="44.49786" lon="0.66494">
        <ele>198.1</ele>
        <time>2017-01-22T09:35:52.000Z</time>
      </trkpt>
      <trkpt lat="44.49787" lon="0.66493">
        <ele>198.3</ele>
        <time>2017-01-22T09:35:53.000Z</time>
      </trkpt>
      <trkpt lat="44.49789" lon="0.66493">
        <ele>198.5</ele>
        <time>2017-01-22T09:35:54.000Z</time>
      </trkpt>
      <trkpt lat="44.4979" lon="0.66493">
        <ele>198.7</ele>
        <time>2017-01-22T09:35:55.000Z</time>
      </trkpt>
      <trkpt lat="44.49792" lon="0.66492">
        <ele>198.9</ele>
        <time>2017-01-22T09:35:56.000Z</time>
      </trkpt>
      <trkpt lat="44.49793" lon="0.66492">
        <ele>199.1</ele>
        <time>2017-01-22T09:35:57.000Z</time>
      </trkpt>
      <trkpt lat="44.49795" lon="0.66492">
        <ele>199.3</ele>
        <time>2017-01-22T09:35:58.000Z</time>
      </trkpt>
      <trkpt lat="44.49796" lon="0.66492">
        <ele>199.5</ele>
        <time>2017-01-22T09:35:59.000Z</time>
      </trkpt>
      <trkpt lat="44.49797" lon="0.66492">
        <ele>199.7</ele>
        <time>2017-01-22T09:36:00.000Z</time>
      </trkpt>
      <trkpt lat="44.49799" lon="0.66492">
        <ele>199.9</ele>
        <time>2017-01-22T09:36:01.000Z</time>
      </trkpt>
      <trkpt lat="44.498" lon="0.66491">
        <ele>200.1</ele>
        <time>2017-01-22T09:36:02.000Z</time>
      </trkpt>
      <trkpt lat="44.49802" lon="0.6649">
        <ele>200.2</ele>
        <time>2017-01-22T09:36:03.000Z</time>
      </trkpt>
      <trkpt lat="44.49803" lon="0.66489">
        <ele>200.3</ele>
        <time>2017-01-22T09:36:04.000Z</time>
      </trkpt>
      <trkpt lat="44.49805" lon="0.66487">
        <ele>200.3</ele>
        <time>2017-01-22T09:36:05.000Z</time>
      </trkpt>
      <trkpt lat="44.49806" lon="0.66485">
        <ele>200.2</ele>
        <time>2017-01-22T09:36:06.000Z</time>
      </trkpt>
      <trkpt lat="44.49808" lon="0.66482">
        <ele>200.2</ele>
        <time>2017-01-22T09:36:07.000Z</time>
      </trkpt>
      <trkpt lat="44.4981" lon="0.66479">
        <ele>200</ele>
        <time>2017-01-22T09:36:08.000Z</time>
      </trkpt>
      <trkpt lat="44.49812" lon="0.66475">
        <ele>199.8</ele>
        <time>2017-01-22T09:36:09.000Z</time>
      </trkpt>
      <trkpt lat="44.49814" lon="0.66471">
        <ele>199.6</ele>
        <time>2017-01-22T09:36:10.000Z</time>
      </trkpt>
      <trkpt lat="44.49816" lon="0.66466">
        <ele>199.4</ele>
        <time>2017-01-22T09:36:11.000Z</time>
      </trkpt>
      <trkpt lat="44.49819" lon="0.66461">
        <ele>199.1</ele>
        <time>2017-01-22T09:36:12.000Z</time>
      </trkpt>
      <trkpt lat="44.49821" lon="0.66456">
        <ele>198.9</ele>
        <time>2017-01-22T09:36:13.000Z</time>
      </trkpt>
      <trkpt lat="44.49824" lon="0.6645">
        <ele>198.6</ele>
        <time>2017-01-22T09:36:14.000Z</time>
      </trkpt>
      <trkpt lat="44.49827" lon="0.66444">
        <ele>198.3</ele>
        <time>2017-01-22T09:36:15.000Z</time>
      </trkpt>
      <trkpt lat="44.4983" lon="0.66438">
        <ele>198</ele>
        <time>2017-01-22T09:36:16.000Z</time>
      </trkpt>
      <trkpt lat="44.49833" lon="0.66431">
        <ele>197.8</ele>
        <time>2017-01-22T09:36:17.000Z</time>
      </trkpt>
      <trkpt lat="44.49836" lon="0.66424">
        <ele>197.3</ele>
        <time>2017-01-22T09:36:18.000Z</time>
      </trkpt>
      <trkpt lat="44.49839" lon="0.66416">
        <ele>196.8</ele>
        <time>2017-01-22T09:36:19.000Z</time>
      </trkpt>
      <trkpt lat="44.49843" lon="0.66408">
        <ele>196</ele>
        <time>2017-01-22T09:36:20.000Z</time>
      </trkpt>
      <trkpt lat="44.49847" lon="0.66399">
        <ele>195.2</ele>
        <time>2017-01-22T09:36:21.000Z</time>
      </trkpt>
      <trkpt lat="44.4985" lon="0.66391">
        <ele>194.3</ele>
        <time>2017-01-22T09:36:22.000Z</time>
      </trkpt>
      <trkpt lat="44.49854" lon="0.66382">
        <ele>193.5</ele>
        <time>2017-01-22T09:36:23.000Z</time>
      </trkpt>
      <trkpt lat="44.49857" lon="0.66375">
        <ele>192.7</ele>
        <time>2017-01-22T09:36:24.000Z</time>
      </trkpt>
      <trkpt lat="44.4986" lon="0.66368">
        <ele>192</ele>
        <time>2017-01-22T09:36:25.000Z</time>
      </trkpt>
      <trkpt lat="44.49863" lon="0.66361">
        <ele>191.4</ele>
        <time>2017-01-22T09:36:26.000Z</time>
      </trkpt>
      <trkpt lat="44.49866" lon="0.66354">
        <ele>190.8</ele>
        <time>2017-01-22T09:36:27.000Z</time>
      </trkpt>
      <trkpt lat="44.49869" lon="0.66348">
        <ele>190.2</ele>
        <time>2017-01-22T09:36:28.000Z</time>
      </trkpt>
      <trkpt lat="44.49872" lon="0.66341">
        <ele>189.7</ele>
        <time>2017-01-22T09:36:29.000Z</time>
      </trkpt>
      <trkpt lat="44.49875" lon="0.66335">
        <ele>189.2</ele>
        <time>2017-01-22T09:36:30.000Z</time>
      </trkpt>
      <trkpt lat="44.49878" lon="0.66328">
        <ele>188.4</ele>
        <time>2017-01-22T09:36:31.000Z</time>
      </trkpt>
      <trkpt lat="44.4988" lon="0.6632">
        <ele>187.5</ele>
        <time>2017-01-22T09:36:32.000Z</time>
      </trkpt>
      <trkpt lat="44.49883" lon="0.66312">
        <ele>186.4</ele>
        <time>2017-01-22T09:36:33.000Z</time>
      </trkpt>
      <trkpt lat="44.49886" lon="0.66303">
        <ele>185.1</ele>
        <time>2017-01-22T09:36:34.000Z</time>
      </trkpt>
      <trkpt lat="44.49889" lon="0.66295">
        <ele>183.8</ele>
        <time>2017-01-22T09:36:35.000Z</time>
      </trkpt>
      <trkpt lat="44.49892" lon="0.66286">
        <ele>182.6</ele>
        <time>2017-01-22T09:36:36.000Z</time>
      </trkpt>
      <trkpt lat="44.49896" lon="0.66279">
        <ele>181.5</ele>
        <time>2017-01-22T09:36:37.000Z</time>
      </trkpt>
      <trkpt lat="44.49901" lon="0.66272">
        <ele>180.6</ele>
        <time>2017-01-22T09:36:38.000Z</time>
      </trkpt>
      <trkpt lat="44.49906" lon="0.66267">
        <ele>180</ele>
        <time>2017-01-22T09:36:39.000Z</time>
      </trkpt>
      <trkpt lat="44.49912" lon="0.66263">
        <ele>179.6</ele>
        <time>2017-01-22T09:36:40.000Z</time>
      </trkpt>
      <trkpt lat="44.49916" lon="0.66261">
        <ele>179.5</ele>
        <time>2017-01-22T09:36:41.000Z</time>
      </trkpt>
      <trkpt lat="44.4992" lon="0.66261">
        <ele>179.8</ele>
        <time>2017-01-22T09:36:42.000Z</time>
      </trkpt>
      <trkpt lat="44.49923" lon="0.66262">
        <ele>180.3</ele>
        <time>2017-01-22T09:36:43.000Z</time>
      </trkpt>
      <trkpt lat="44.49924" lon="0.66264">
        <ele>180.9</ele>
        <time>2017-01-22T09:36:44.000Z</time>
      </trkpt>
      <trkpt lat="44.49925" lon="0.66266">
        <ele>181.5</ele>
        <time>2017-01-22T09:36:45.000Z</time>
      </trkpt>
      <trkpt lat="44.49926" lon="0.66268">
        <ele>182</ele>
        <time>2017-01-22T09:36:46.000Z</time>
      </trkpt>
      <trkpt lat="44.49926" lon="0.6627">
        <ele>182.4</ele>
        <time>2017-01-22T09:36:47.000Z</time>
      </trkpt>
      <trkpt lat="44.49925" lon="0.66271">
        <ele>182.6</ele>
        <time>2017-01-22T09:36:48.000Z</time>
      </trkpt>
      <trkpt lat="44.49925" lon="0.66271">
        <ele>182.7</ele>
        <time>2017-01-22T09:36:49.000Z</time>
      </trkpt>
      <trkpt lat="44.49925" lon="0.66272">
        <ele>182.8</ele>
        <time>2017-01-22T09:36:50.000Z</time>
      </trkpt>
      <trkpt lat="44.49924" lon="0.66272">
        <ele>182.8</ele>
        <time>2017-01-22T09:36:51.000Z</time>
      </trkpt>
      <trkpt lat="44.49924" lon="0.66272">
        <ele>182.8</ele>
        <time>2017-01-22T09:36:52.000Z</time>
      </trkpt>
      <trkpt lat="44.49924" lon="0.66272">
        <ele>182.8</ele>
        <time>2017-01-22T09:36:53.000Z</time>
      </trkpt>
      <trkpt lat="44.49924" lon="0.66272">
        <ele>182.8</ele>
        <time>2017-01-22T09:36:54.000Z</time>
      </trkpt>
      <trkpt lat="44.49923" lon="0.66273">
        <ele>182.8</ele>
        <time>2017-01-22T09:36:55.000Z</time>
      </trkpt>
      <trkpt lat="44.49923" lon="0.66273">
        <ele>182.9</ele>
        <time>2017-01-22T09:36:56.000Z</time>
      </trkpt>
      <trkpt lat="44.49922" lon="0.66274">
        <ele>183</ele>
        <time>2017-01-22T09:36:57.000Z</time>
      </trkpt>
      <trkpt lat="44.49922" lon="0.66276">
        <ele>183.5</ele>
        <time>2017-01-22T09:36:58.000Z</time>
      </trkpt>
      <trkpt lat="44.49922" lon="0.66279">
        <ele>184.1</ele>
        <time>2017-01-22T09:36:59.000Z</time>
      </trkpt>
      <trkpt lat="44.49923" lon="0.66281">
        <ele>184.6</ele>
        <time>2017-01-22T09:37:00.000Z</time>
      </trkpt>
      <trkpt lat="44.49924" lon="0.66282">
        <ele>185.1</ele>
        <time>2017-01-22T09:37:01.000Z</time>
      </trkpt>
      <trkpt lat="44.49925" lon="0.66284">
        <ele>185.5</ele>
        <time>2017-01-22T09:37:02.000Z</time>
      </trkpt>
      <trkpt lat="44.49927" lon="0.66284">
        <ele>185.8</ele>
        <time>2017-01-22T09:37:03.000Z</time>
      </trkpt>
      <trkpt lat="44.49928" lon="0.66285">
        <ele>186.1</ele>
        <time>2017-01-22T09:37:04.000Z</time>
      </trkpt>
      <trkpt lat="44.4993" lon="0.66285">
        <ele>186.3</ele>
        <time>2017-01-22T09:37:05.000Z</time>
      </trkpt>
      <trkpt lat="44.49932" lon="0.66286">
        <ele>186.6</ele>
        <time>2017-01-22T09:37:06.000Z</time>
      </trkpt>
      <trkpt lat="44.49933" lon="0.66286">
        <ele>186.7</ele>
        <time>2017-01-22T09:37:07.000Z</time>
      </trkpt>
      <trkpt lat="44.49934" lon="0.66286">
        <ele>186.9</ele>
        <time>2017-01-22T09:37:08.000Z</time>
      </trkpt>
      <trkpt lat="44.49935" lon="0.66286">
        <ele>186.9</ele>
        <time>2017-01-22T09:37:09.000Z</time>
      </trkpt>
      <trkpt lat="44.49935" lon="0.66286">
        <ele>187</ele>
        <time>2017-01-22T09:37:10.000Z</time>
      </trkpt>
      <trkpt lat="44.49935" lon="0.66286">
        <ele>187.1</ele>
        <time>2017-01-22T09:37:11.000Z</time>
      </trkpt>
      <trkpt lat="44.49936" lon="0.66286">
        <ele>187.1</ele>
        <time>2017-01-22T09:37:12.000Z</time>
      </trkpt>
      <trkpt lat="44.49936" lon="0.66286">
        <ele>187.1</ele>
        <time>2017-01-22T09:37:13.000Z</time>
      </trkpt>
      <trkpt lat="44.49936" lon="0.66286">
        <ele>187.1</ele>
        <time>2017-01-22T09:37:14.000Z</time>
      </trkpt>
      <trkpt lat="44.49936" lon="0.66286">
        <ele>187.1</ele>
        <time>2017-01-22T09:37:15.000Z</time>
      </trkpt>
      <trkpt lat="44.49936" lon="0.66286">
        <ele>187.1</ele>
        <time>2017-01-22T09:37:16.000Z</time>
      </trkpt>
      <trkpt lat="44.49936" lon="0.66286">
        <ele>187.1</ele>
        <time>2017-01-22T09:37:17.000Z</time>
      </trkpt>
      <trkpt lat="44.49936" lon="0.66286">
        <ele>187.1</ele>
        <time>2017-01-22T09:37:18.000Z</time>
      </trkpt>
      <trkpt lat="44.49936" lon="0.66286">
        <ele>187.1</ele>
        <time>2017-01-22T09:37:19.000Z</time>
      </trkpt>
      <trkpt lat="44.49936" lon="0.66286">
        <ele>187.1</ele>
        <time>2017-01-22T09:37:20.000Z</time>
      </trkpt>
      <trkpt lat="44.49936" lon="0.66286">
        <ele>187.1</ele>
        <time>2017-01-22T09:37:21.000Z</time>
      </trkpt>
      <trkpt lat="44.49936" lon="0.66286">
        <ele>187.1</ele>
        <time>2017-01-22T09:37:22.000Z</time>
      </trkpt>
      <trkpt lat="44.49936" lon="0.66286">
        <ele>187.1</ele>
        <time>2017-01-22T09:37:23.000Z</time>
      </trkpt>
      <trkpt lat="44.49936" lon="0.66286">
        <ele>187.1</ele>
        <time>2017-01-22T09:37:24.000Z</time>
      </trkpt>
      <trkpt lat="44.49936" lon="0.66286">
        <ele>187.1</ele>
        <time>2017-01-22T09:37:25.000Z</time>
      </trkpt>
      <trkpt lat="44.49936" lon="0.66286">
        <ele>187.1</ele>
        <time>2017-01-22T09:37:26.000Z</time>
      </trkpt>
      <trkpt lat="44.49936" lon="0.66286">
        <ele>187.1</ele>
        <time>2017-01-22T09:37:27.000Z</time>
      </trkpt>
      <trkpt lat="44.49936" lon="0.66286">
        <ele>187.1</ele>
        <time>2017-01-22T09:37:28.000Z</time>
      </trkpt>
      <trkpt lat="44.49936" lon="0.66286">
        <ele>187.1</ele>
        <time>2017-01-22T09:37:29.000Z</time>
      </trkpt>
      <trkpt lat="44.49936" lon="0.66286">
        <ele>187.1</ele>
        <time>2017-01-22T09:37:30.000Z</time>
      </trkpt>
      <trkpt lat="44.49936" lon="0.66286">
        <ele>187.1</ele>
        <time>2017-01-22T09:37:31.000Z</time>
      </trkpt>
      <trkpt lat="44.49936" lon="0.66286">
        <ele>187.1</ele>
        <time>2017-01-22T09:37:32.000Z</time>
      </trkpt>
      <trkpt lat="44.49936" lon="0.66286">
        <ele>187.1</ele>
        <time>2017-01-22T09:37:33.000Z</time>
      </trkpt>
      <trkpt lat="44.49936" lon="0.66286">
        <ele>187.1</ele>
        <time>2017-01-22T09:37:34.000Z</time>
      </trkpt>
      <trkpt lat="44.49936" lon="0.66286">
        <ele>187.2</ele>
        <time>2017-01-22T09:37:35.000Z</time>
      </trkpt>
      <trkpt lat="44.49936" lon="0.66286">
        <ele>187.2</ele>
        <time>2017-01-22T09:37:36.000Z</time>
      </trkpt>
      <trkpt lat="44.49936" lon="0.66286">
        <ele>187.1</ele>
        <time>2017-01-22T09:37:37.000Z</time>
      </trkpt>
      <trkpt lat="44.49936" lon="0.66286">
        <ele>187.1</ele>
        <time>2017-01-22T09:37:38.000Z</time>
      </trkpt>
      <trkpt lat="44.49936" lon="0.66286">
        <ele>187.1</ele>
        <time>2017-01-22T09:37:39.000Z</time>
      </trkpt>
      <trkpt lat="44.49937" lon="0.66286">
        <ele>187.2</ele>
        <time>2017-01-22T09:37:40.000Z</time>
      </trkpt>
      <trkpt lat="44.49938" lon="0.66286">
        <ele>187.2</ele>
        <time>2017-01-22T09:37:41.000Z</time>
      </trkpt>
      <trkpt lat="44.4994" lon="0.66285">
        <ele>187.2</ele>
        <time>2017-01-22T09:37:42.000Z</time>
      </trkpt>
      <trkpt lat="44.4994" lon="0.66285">
        <ele>187.3</ele>
        <time>2017-01-22T09:37:43.000Z</time>
      </trkpt>
      <trkpt lat="44.4994" lon="0.66285">
        <ele>187.3</ele>
        <time>2017-01-22T09:37:44.000Z</time>
      </trkpt>
      <trkpt lat="44.49941" lon="0.66285">
        <ele>187.3</ele>
        <time>2017-01-22T09:37:45.000Z</time>
      </trkpt>
      <trkpt lat="44.49941" lon="0.66285">
        <ele>187.3</ele>
        <time>2017-01-22T09:37:46.000Z</time>
      </trkpt>
      <trkpt lat="44.49941" lon="0.66285">
        <ele>187.3</ele>
        <time>2017-01-22T09:37:47.000Z</time>
      </trkpt>
      <trkpt lat="44.49941" lon="0.66285">
        <ele>187.3</ele>
        <time>2017-01-22T09:37:48.000Z</time>
      </trkpt>
      <trkpt lat="44.49941" lon="0.66285">
        <ele>187.3</ele>
        <time>2017-01-22T09:37:49.000Z</time>
      </trkpt>
      <trkpt lat="44.49941" lon="0.66284">
        <ele>187.2</ele>
        <time>2017-01-22T09:37:50.000Z</time>
      </trkpt>
      <trkpt lat="44.49941" lon="0.66284">
        <ele>187.2</ele>
        <time>2017-01-22T09:37:51.000Z</time>
      </trkpt>
      <trkpt lat="44.49942" lon="0.66284">
        <ele>187.2</ele>
        <time>2017-01-22T09:37:52.000Z</time>
      </trkpt>
      <trkpt lat="44.49942" lon="0.66284">
        <ele>187.2</ele>
        <time>2017-01-22T09:37:53.000Z</time>
      </trkpt>
      <trkpt lat="44.49943" lon="0.66284">
        <ele>187.2</ele>
        <time>2017-01-22T09:37:54.000Z</time>
      </trkpt>
      <trkpt lat="44.49943" lon="0.66283">
        <ele>187.2</ele>
        <time>2017-01-22T09:37:55.000Z</time>
      </trkpt>
      <trkpt lat="44.49944" lon="0.66283">
        <ele>187.2</ele>
        <time>2017-01-22T09:37:56.000Z</time>
      </trkpt>
      <trkpt lat="44.49944" lon="0.66283">
        <ele>187.3</ele>
        <time>2017-01-22T09:37:57.000Z</time>
      </trkpt>
      <trkpt lat="44.49945" lon="0.66282">
        <ele>187.1</ele>
        <time>2017-01-22T09:37:58.000Z</time>
      </trkpt>
      <trkpt lat="44.49946" lon="0.6628">
        <ele>186.7</ele>
        <time>2017-01-22T09:37:59.000Z</time>
      </trkpt>
      <trkpt lat="44.49944" lon="0.66278">
        <ele>186.2</ele>
        <time>2017-01-22T09:38:00.000Z</time>
      </trkpt>
      <trkpt lat="44.49943" lon="0.66278">
        <ele>186</ele>
        <time>2017-01-22T09:38:01.000Z</time>
      </trkpt>
      <trkpt lat="44.49941" lon="0.66279">
        <ele>186.1</ele>
        <time>2017-01-22T09:38:02.000Z</time>
      </trkpt>
      <trkpt lat="44.49941" lon="0.6628">
        <ele>186.3</ele>
        <time>2017-01-22T09:38:03.000Z</time>
      </trkpt>
      <trkpt lat="44.49941" lon="0.66282">
        <ele>186.6</ele>
        <time>2017-01-22T09:38:04.000Z</time>
      </trkpt>
      <trkpt lat="44.49941" lon="0.66283">
        <ele>186.9</ele>
        <time>2017-01-22T09:38:05.000Z</time>
      </trkpt>
      <trkpt lat="44.49942" lon="0.66284">
        <ele>187.2</ele>
        <time>2017-01-22T09:38:06.000Z</time>
      </trkpt>
      <trkpt lat="44.49943" lon="0.66285">
        <ele>187.5</ele>
        <time>2017-01-22T09:38:07.000Z</time>
      </trkpt>
      <trkpt lat="44.49943" lon="0.66285">
        <ele>187.6</ele>
        <time>2017-01-22T09:38:08.000Z</time>
      </trkpt>
      <trkpt lat="44.49943" lon="0.66285">
        <ele>187.7</ele>
        <time>2017-01-22T09:38:09.000Z</time>
      </trkpt>
      <trkpt lat="44.49944" lon="0.66285">
        <ele>187.7</ele>
        <time>2017-01-22T09:38:10.000Z</time>
      </trkpt>
      <trkpt lat="44.49944" lon="0.66285">
        <ele>187.7</ele>
        <time>2017-01-22T09:38:11.000Z</time>
      </trkpt>
      <trkpt lat="44.49944" lon="0.66285">
        <ele>187.7</ele>
        <time>2017-01-22T09:38:12.000Z</time>
      </trkpt>
      <trkpt lat="44.49944" lon="0.66285">
        <ele>187.7</ele>
        <time>2017-01-22T09:38:13.000Z</time>
      </trkpt>
      <trkpt lat="44.49944" lon="0.66285">
        <ele>187.7</ele>
        <time>2017-01-22T09:38:14.000Z</time>
      </trkpt>
      <trkpt lat="44.49944" lon="0.66285">
        <ele>187.7</ele>
        <time>2017-01-22T09:38:15.000Z</time>
      </trkpt>
      <trkpt lat="44.49944" lon="0.66285">
        <ele>187.7</ele>
        <time>2017-01-22T09:38:16.000Z</time>
      </trkpt>
      <trkpt lat="44.49944" lon="0.66286">
        <ele>187.8</ele>
        <time>2017-01-22T09:38:17.000Z</time>
      </trkpt>
      <trkpt lat="44.49945" lon="0.66286">
        <ele>187.9</ele>
        <time>2017-01-22T09:38:18.000Z</time>
      </trkpt>
      <trkpt lat="44.49946" lon="0.66287">
        <ele>188.2</ele>
        <time>2017-01-22T09:38:19.000Z</time>
      </trkpt>
      <trkpt lat="44.49947" lon="0.66287">
        <ele>188.4</ele>
        <time>2017-01-22T09:38:20.000Z</time>
      </trkpt>
      <trkpt lat="44.49948" lon="0.66287">
        <ele>188.6</ele>
        <time>2017-01-22T09:38:21.000Z</time>
      </trkpt>
      <trkpt lat="44.49949" lon="0.66288">
        <ele>188.8</ele>
        <time>2017-01-22T09:38:22.000Z</time>
      </trkpt>
      <trkpt lat="44.4995" lon="0.66288">
        <ele>188.9</ele>
        <time>2017-01-22T09:38:23.000Z</time>
      </trkpt>
      <trkpt lat="44.49952" lon="0.66288">
        <ele>189</ele>
        <time>2017-01-22T09:38:24.000Z</time>
      </trkpt>
      <trkpt lat="44.49953" lon="0.66288">
        <ele>189.1</ele>
        <time>2017-01-22T09:38:25.000Z</time>
      </trkpt>
      <trkpt lat="44.49954" lon="0.66287">
        <ele>189.1</ele>
        <time>2017-01-22T09:38:26.000Z</time>
      </trkpt>
      <trkpt lat="44.49956" lon="0.66286">
        <ele>189</ele>
        <time>2017-01-22T09:38:27.000Z</time>
      </trkpt>
      <trkpt lat="44.49957" lon="0.66284">
        <ele>188.8</ele>
        <time>2017-01-22T09:38:28.000Z</time>
      </trkpt>
      <trkpt lat="44.49959" lon="0.66283">
        <ele>188.6</ele>
        <time>2017-01-22T09:38:29.000Z</time>
      </trkpt>
      <trkpt lat="44.4996" lon="0.66281">
        <ele>188.5</ele>
        <time>2017-01-22T09:38:30.000Z</time>
      </trkpt>
      <trkpt lat="44.49962" lon="0.6628">
        <ele>188.3</ele>
        <time>2017-01-22T09:38:31.000Z</time>
      </trkpt>
      <trkpt lat="44.49964" lon="0.66279">
        <ele>188.2</ele>
        <time>2017-01-22T09:38:32.000Z</time>
      </trkpt>
      <trkpt lat="44.49966" lon="0.66277">
        <ele>188.2</ele>
        <time>2017-01-22T09:38:33.000Z</time>
      </trkpt>
      <trkpt lat="44.49968" lon="0.66276">
        <ele>188.1</ele>
        <time>2017-01-22T09:38:34.000Z</time>
      </trkpt>
      <trkpt lat="44.49969" lon="0.66276">
        <ele>188.1</ele>
        <time>2017-01-22T09:38:35.000Z</time>
      </trkpt>
      <trkpt lat="44.49971" lon="0.66275">
        <ele>188.1</ele>
        <time>2017-01-22T09:38:36.000Z</time>
      </trkpt>
      <trkpt lat="44.49972" lon="0.66274">
        <ele>188.1</ele>
        <time>2017-01-22T09:38:37.000Z</time>
      </trkpt>
      <trkpt lat="44.49974" lon="0.66273">
        <ele>188.1</ele>
        <time>2017-01-22T09:38:38.000Z</time>
      </trkpt>
      <trkpt lat="44.49976" lon="0.66272">
        <ele>188.1</ele>
        <time>2017-01-22T09:38:39.000Z</time>
      </trkpt>
      <trkpt lat="44.49977" lon="0.66271">
        <ele>188</ele>
        <time>2017-01-22T09:38:40.000Z</time>
      </trkpt>
      <trkpt lat="44.49979" lon="0.6627">
        <ele>187.9</ele>
        <time>2017-01-22T09:38:41.000Z</time>
      </trkpt>
      <trkpt lat="44.49981" lon="0.66269">
        <ele>187.9</ele>
        <time>2017-01-22T09:38:42.000Z</time>
      </trkpt>
      <trkpt lat="44.49982" lon="0.66268">
        <ele>187.9</ele>
        <time>2017-01-22T09:38:43.000Z</time>
      </trkpt>
      <trkpt lat="44.49984" lon="0.66268">
        <ele>188</ele>
        <time>2017-01-22T09:38:44.000Z</time>
      </trkpt>
      <trkpt lat="44.49986" lon="0.66268">
        <ele>188.2</ele>
        <time>2017-01-22T09:38:45.000Z</time>
      </trkpt>
      <trkpt lat="44.49987" lon="0.66268">
        <ele>188.3</ele>
        <time>2017-01-22T09:38:46.000Z</time>
      </trkpt>
      <trkpt lat="44.49989" lon="0.66268">
        <ele>188.5</ele>
        <time>2017-01-22T09:38:47.000Z</time>
      </trkpt>
      <trkpt lat="44.49991" lon="0.66267">
        <ele>188.6</ele>
        <time>2017-01-22T09:38:48.000Z</time>
      </trkpt>
      <trkpt lat="44.49992" lon="0.66267">
        <ele>188.6</ele>
        <time>2017-01-22T09:38:49.000Z</time>
      </trkpt>
      <trkpt lat="44.49994" lon="0.66266">
        <ele>188.7</ele>
        <time>2017-01-22T09:38:50.000Z</time>
      </trkpt>
      <trkpt lat="44.49996" lon="0.66265">
        <ele>188.7</ele>
        <time>2017-01-22T09:38:51.000Z</time>
      </trkpt>
      <trkpt lat="44.49998" lon="0.66265">
        <ele>188.7</ele>
        <time>2017-01-22T09:38:52.000Z</time>
      </trkpt>
      <trkpt lat="44.49999" lon="0.66264">
        <ele>188.7</ele>
        <time>2017-01-22T09:38:53.000Z</time>
      </trkpt>
      <trkpt lat="44.5" lon="0.66263">
        <ele>188.7</ele>
        <time>2017-01-22T09:38:54.000Z</time>
      </trkpt>
      <trkpt lat="44.50002" lon="0.66263">
        <ele>188.6</ele>
        <time>2017-01-22T09:38:55.000Z</time>
      </trkpt>
      <trkpt lat="44.50003" lon="0.66263">
        <ele>188.4</ele>
        <time>2017-01-22T09:38:56.000Z</time>
      </trkpt>
      <trkpt lat="44.50005" lon="0.66263">
        <ele>188.4</ele>
        <time>2017-01-22T09:38:57.000Z</time>
      </trkpt>
      <trkpt lat="44.50007" lon="0.66263">
        <ele>188.3</ele>
        <time>2017-01-22T09:38:58.000Z</time>
      </trkpt>
      <trkpt lat="44.50008" lon="0.66263">
        <ele>188.2</ele>
        <time>2017-01-22T09:38:59.000Z</time>
      </trkpt>
      <trkpt lat="44.5001" lon="0.66263">
        <ele>188.2</ele>
        <time>2017-01-22T09:39:00.000Z</time>
      </trkpt>
      <trkpt lat="44.50012" lon="0.66263">
        <ele>188.2</ele>
        <time>2017-01-22T09:39:01.000Z</time>
      </trkpt>
      <trkpt lat="44.50014" lon="0.66264">
        <ele>188.2</ele>
        <time>2017-01-22T09:39:02.000Z</time>
      </trkpt>
      <trkpt lat="44.50016" lon="0.66264">
        <ele>188.2</ele>
        <time>2017-01-22T09:39:03.000Z</time>
      </trkpt>
      <trkpt lat="44.50018" lon="0.66264">
        <ele>188.2</ele>
        <time>2017-01-22T09:39:04.000Z</time>
      </trkpt>
      <trkpt lat="44.5002" lon="0.66265">
        <ele>188.2</ele>
        <time>2017-01-22T09:39:05.000Z</time>
      </trkpt>
      <trkpt lat="44.50022" lon="0.66265">
        <ele>188.1</ele>
        <time>2017-01-22T09:39:06.000Z</time>
      </trkpt>
      <trkpt lat="44.50025" lon="0.66266">
        <ele>188.1</ele>
        <time>2017-01-22T09:39:07.000Z</time>
      </trkpt>
      <trkpt lat="44.50027" lon="0.66266">
        <ele>188.1</ele>
        <time>2017-01-22T09:39:08.000Z</time>
      </trkpt>
      <trkpt lat="44.50029" lon="0.66266">
        <ele>188.1</ele>
        <time>2017-01-22T09:39:09.000Z</time>
      </trkpt>
      <trkpt lat="44.50031" lon="0.66267">
        <ele>188.1</ele>
        <time>2017-01-22T09:39:10.000Z</time>
      </trkpt>
      <trkpt lat="44.50033" lon="0.66267">
        <ele>188.1</ele>
        <time>2017-01-22T09:39:11.000Z</time>
      </trkpt>
      <trkpt lat="44.50035" lon="0.66268">
        <ele>188.1</ele>
        <time>2017-01-22T09:39:12.000Z</time>
      </trkpt>
      <trkpt lat="44.50037" lon="0.66269">
        <ele>188.2</ele>
        <time>2017-01-22T09:39:13.000Z</time>
      </trkpt>
      <trkpt lat="44.50039" lon="0.6627">
        <ele>188.3</ele>
        <time>2017-01-22T09:39:14.000Z</time>
      </trkpt>
      <trkpt lat="44.50041" lon="0.66271">
        <ele>188.5</ele>
        <time>2017-01-22T09:39:15.000Z</time>
      </trkpt>
      <trkpt lat="44.50042" lon="0.66272">
        <ele>188.6</ele>
        <time>2017-01-22T09:39:16.000Z</time>
      </trkpt>
      <trkpt lat="44.50044" lon="0.66274">
        <ele>188.8</ele>
        <time>2017-01-22T09:39:17.000Z</time>
      </trkpt>
      <trkpt lat="44.50046" lon="0.66275">
        <ele>189</ele>
        <time>2017-01-22T09:39:18.000Z</time>
      </trkpt>
      <trkpt lat="44.50048" lon="0.66277">
        <ele>189.2</ele>
        <time>2017-01-22T09:39:19.000Z</time>
      </trkpt>
      <trkpt lat="44.5005" lon="0.66279">
        <ele>189.4</ele>
        <time>2017-01-22T09:39:20.000Z</time>
      </trkpt>
      <trkpt lat="44.50053" lon="0.6628">
        <ele>189.6</ele>
        <time>2017-01-22T09:39:21.000Z</time>
      </trkpt>
      <trkpt lat="44.50055" lon="0.66282">
        <ele>189.7</ele>
        <time>2017-01-22T09:39:22.000Z</time>
      </trkpt>
      <trkpt lat="44.50057" lon="0.66283">
        <ele>189.9</ele>
        <time>2017-01-22T09:39:23.000Z</time>
      </trkpt>
      <trkpt lat="44.50059" lon="0.66285">
        <ele>190</ele>
        <time>2017-01-22T09:39:24.000Z</time>
      </trkpt>
      <trkpt lat="44.50061" lon="0.66286">
        <ele>190.2</ele>
        <time>2017-01-22T09:39:25.000Z</time>
      </trkpt>
      <trkpt lat="44.50062" lon="0.66287">
        <ele>190.4</ele>
        <time>2017-01-22T09:39:26.000Z</time>
      </trkpt>
      <trkpt lat="44.50063" lon="0.66289">
        <ele>190.5</ele>
        <time>2017-01-22T09:39:27.000Z</time>
      </trkpt>
      <trkpt lat="44.50064" lon="0.6629">
        <ele>190.7</ele>
        <time>2017-01-22T09:39:28.000Z</time>
      </trkpt>
      <trkpt lat="44.50065" lon="0.66291">
        <ele>190.8</ele>
        <time>2017-01-22T09:39:29.000Z</time>
      </trkpt>
      <trkpt lat="44.50065" lon="0.66292">
        <ele>191</ele>
        <time>2017-01-22T09:39:30.000Z</time>
      </trkpt>
      <trkpt lat="44.50066" lon="0.66292">
        <ele>191.1</ele>
        <time>2017-01-22T09:39:31.000Z</time>
      </trkpt>
      <trkpt lat="44.50066" lon="0.66293">
        <ele>191.2</ele>
        <time>2017-01-22T09:39:32.000Z</time>
      </trkpt>
      <trkpt lat="44.50066" lon="0.66294">
        <ele>191.3</ele>
        <time>2017-01-22T09:39:33.000Z</time>
      </trkpt>
      <trkpt lat="44.50067" lon="0.66294">
        <ele>191.3</ele>
        <time>2017-01-22T09:39:34.000Z</time>
      </trkpt>
      <trkpt lat="44.50067" lon="0.66294">
        <ele>191.4</ele>
        <time>2017-01-22T09:39:35.000Z</time>
      </trkpt>
      <trkpt lat="44.50067" lon="0.66295">
        <ele>191.4</ele>
        <time>2017-01-22T09:39:36.000Z</time>
      </trkpt>
      <trkpt lat="44.50067" lon="0.66295">
        <ele>191.4</ele>
        <time>2017-01-22T09:39:37.000Z</time>
      </trkpt>
      <trkpt lat="44.50067" lon="0.66295">
        <ele>191.4</ele>
        <time>2017-01-22T09:39:38.000Z</time>
      </trkpt>
      <trkpt lat="44.50067" lon="0.66295">
        <ele>191.4</ele>
        <time>2017-01-22T09:39:39.000Z</time>
      </trkpt>
      <trkpt lat="44.50067" lon="0.66295">
        <ele>191.4</ele>
        <time>2017-01-22T09:39:40.000Z</time>
      </trkpt>
      <trkpt lat="44.50067" lon="0.66295">
        <ele>191.4</ele>
        <time>2017-01-22T09:39:41.000Z</time>
      </trkpt>
      <trkpt lat="44.50067" lon="0.66295">
        <ele>191.4</ele>
        <time>2017-01-22T09:39:42.000Z</time>
      </trkpt>
      <trkpt lat="44.50067" lon="0.66295">
        <ele>191.4</ele>
        <time>2017-01-22T09:39:43.000Z</time>
      </trkpt>
      <trkpt lat="44.50067" lon="0.66295">
        <ele>191.4</ele>
        <time>2017-01-22T09:39:44.000Z</time>
      </trkpt>
      <trkpt lat="44.50067" lon="0.66295">
        <ele>191.4</ele>
        <time>2017-01-22T09:39:45.000Z</time>
      </trkpt>
      <trkpt lat="44.50067" lon="0.66295">
        <ele>191.4</ele>
        <time>2017-01-22T09:39:46.000Z</time>
      </trkpt>
      <trkpt lat="44.50067" lon="0.66295">
        <ele>191.4</ele>
        <time>2017-01-22T09:39:47.000Z</time>
      </trkpt>
      <trkpt lat="44.50067" lon="0.66295">
        <ele>191.4</ele>
        <time>2017-01-22T09:39:48.000Z</time>
      </trkpt>
      <trkpt lat="44.50067" lon="0.66295">
        <ele>191.4</ele>
        <time>2017-01-22T09:39:49.000Z</time>
      </trkpt>
      <trkpt lat="44.50068" lon="0.66295">
        <ele>191.4</ele>
        <time>2017-01-22T09:39:50.000Z</time>
      </trkpt>
      <trkpt lat="44.50068" lon="0.66294">
        <ele>191.3</ele>
        <time>2017-01-22T09:39:51.000Z</time>
      </trkpt>
      <trkpt lat="44.50068" lon="0.66294">
        <ele>191.3</ele>
        <time>2017-01-22T09:39:52.000Z</time>
      </trkpt>
      <trkpt lat="44.50068" lon="0.66294">
        <ele>191.1</ele>
        <time>2017-01-22T09:39:53.000Z</time>
      </trkpt>
      <trkpt lat="44.50069" lon="0.66293">
        <ele>191.1</ele>
        <time>2017-01-22T09:39:54.000Z</time>
      </trkpt>
      <trkpt lat="44.5007" lon="0.66294">
        <ele>191</ele>
        <time>2017-01-22T09:39:55.000Z</time>
      </trkpt>
      <trkpt lat="44.50072" lon="0.66294">
        <ele>191.1</ele>
        <time>2017-01-22T09:39:56.000Z</time>
      </trkpt>
      <trkpt lat="44.50073" lon="0.66296">
        <ele>191.3</ele>
        <time>2017-01-22T09:39:57.000Z</time>
      </trkpt>
      <trkpt lat="44.50075" lon="0.66298">
        <ele>191.6</ele>
        <time>2017-01-22T09:39:58.000Z</time>
      </trkpt>
      <trkpt lat="44.50076" lon="0.66301">
        <ele>191.9</ele>
        <time>2017-01-22T09:39:59.000Z</time>
      </trkpt>
      <trkpt lat="44.50078" lon="0.66303">
        <ele>192.2</ele>
        <time>2017-01-22T09:40:00.000Z</time>
      </trkpt>
      <trkpt lat="44.5008" lon="0.66305">
        <ele>192.4</ele>
        <time>2017-01-22T09:40:01.000Z</time>
      </trkpt>
      <trkpt lat="44.50082" lon="0.66307">
        <ele>192.7</ele>
        <time>2017-01-22T09:40:02.000Z</time>
      </trkpt>
      <trkpt lat="44.50083" lon="0.66309">
        <ele>192.9</ele>
        <time>2017-01-22T09:40:03.000Z</time>
      </trkpt>
      <trkpt lat="44.50085" lon="0.66311">
        <ele>193</ele>
        <time>2017-01-22T09:40:04.000Z</time>
      </trkpt>
      <trkpt lat="44.50087" lon="0.66313">
        <ele>193.1</ele>
        <time>2017-01-22T09:40:05.000Z</time>
      </trkpt>
      <trkpt lat="44.50089" lon="0.66315">
        <ele>193.2</ele>
        <time>2017-01-22T09:40:06.000Z</time>
      </trkpt>
      <trkpt lat="44.50091" lon="0.66317">
        <ele>193.2</ele>
        <time>2017-01-22T09:40:07.000Z</time>
      </trkpt>
      <trkpt lat="44.50092" lon="0.66319">
        <ele>193.3</ele>
        <time>2017-01-22T09:40:08.000Z</time>
      </trkpt>
      <trkpt lat="44.50094" lon="0.66321">
        <ele>193.4</ele>
        <time>2017-01-22T09:40:09.000Z</time>
      </trkpt>
      <trkpt lat="44.50096" lon="0.66323">
        <ele>193.5</ele>
        <time>2017-01-22T09:40:10.000Z</time>
      </trkpt>
      <trkpt lat="44.50097" lon="0.66325">
        <ele>193.6</ele>
        <time>2017-01-22T09:40:11.000Z</time>
      </trkpt>
      <trkpt lat="44.50099" lon="0.66327">
        <ele>193.7</ele>
        <time>2017-01-22T09:40:12.000Z</time>
      </trkpt>
      <trkpt lat="44.501" lon="0.66329">
        <ele>193.7</ele>
        <time>2017-01-22T09:40:13.000Z</time>
      </trkpt>
      <trkpt lat="44.50101" lon="0.66331">
        <ele>193.8</ele>
        <time>2017-01-22T09:40:14.000Z</time>
      </trkpt>
      <trkpt lat="44.50103" lon="0.66333">
        <ele>193.9</ele>
        <time>2017-01-22T09:40:15.000Z</time>
      </trkpt>
      <trkpt lat="44.50104" lon="0.66334">
        <ele>193.9</ele>
        <time>2017-01-22T09:40:16.000Z</time>
      </trkpt>
      <trkpt lat="44.50106" lon="0.66336">
        <ele>193.9</ele>
        <time>2017-01-22T09:40:17.000Z</time>
      </trkpt>
      <trkpt lat="44.50107" lon="0.66338">
        <ele>194</ele>
        <time>2017-01-22T09:40:18.000Z</time>
      </trkpt>
      <trkpt lat="44.50108" lon="0.6634">
        <ele>194.2</ele>
        <time>2017-01-22T09:40:19.000Z</time>
      </trkpt>
      <trkpt lat="44.50109" lon="0.66343">
        <ele>194.4</ele>
        <time>2017-01-22T09:40:20.000Z</time>
      </trkpt>
      <trkpt lat="44.5011" lon="0.66346">
        <ele>194.7</ele>
        <time>2017-01-22T09:40:21.000Z</time>
      </trkpt>
      <trkpt lat="44.50111" lon="0.66348">
        <ele>194.9</ele>
        <time>2017-01-22T09:40:22.000Z</time>
      </trkpt>
      <trkpt lat="44.50112" lon="0.6635">
        <ele>195</ele>
        <time>2017-01-22T09:40:23.000Z</time>
      </trkpt>
      <trkpt lat="44.50113" lon="0.66351">
        <ele>195.1</ele>
        <time>2017-01-22T09:40:24.000Z</time>
      </trkpt>
      <trkpt lat="44.50114" lon="0.66353">
        <ele>195.1</ele>
        <time>2017-01-22T09:40:25.000Z</time>
      </trkpt>
      <trkpt lat="44.50116" lon="0.66354">
        <ele>195.2</ele>
        <time>2017-01-22T09:40:26.000Z</time>
      </trkpt>
      <trkpt lat="44.50117" lon="0.66356">
        <ele>195.2</ele>
        <time>2017-01-22T09:40:27.000Z</time>
      </trkpt>
      <trkpt lat="44.50118" lon="0.66357">
        <ele>195.3</ele>
        <time>2017-01-22T09:40:28.000Z</time>
      </trkpt>
      <trkpt lat="44.5012" lon="0.66359">
        <ele>195.3</ele>
        <time>2017-01-22T09:40:29.000Z</time>
      </trkpt>
      <trkpt lat="44.50121" lon="0.6636">
        <ele>195.4</ele>
        <time>2017-01-22T09:40:30.000Z</time>
      </trkpt>
      <trkpt lat="44.50123" lon="0.66362">
        <ele>195.4</ele>
        <time>2017-01-22T09:40:31.000Z</time>
      </trkpt>
      <trkpt lat="44.50124" lon="0.66363">
        <ele>195.4</ele>
        <time>2017-01-22T09:40:32.000Z</time>
      </trkpt>
      <trkpt lat="44.50126" lon="0.66365">
        <ele>195.5</ele>
        <time>2017-01-22T09:40:33.000Z</time>
      </trkpt>
      <trkpt lat="44.50127" lon="0.66366">
        <ele>195.5</ele>
        <time>2017-01-22T09:40:34.000Z</time>
      </trkpt>
      <trkpt lat="44.50128" lon="0.66367">
        <ele>195.6</ele>
        <time>2017-01-22T09:40:35.000Z</time>
      </trkpt>
      <trkpt lat="44.5013" lon="0.66369">
        <ele>195.6</ele>
        <time>2017-01-22T09:40:36.000Z</time>
      </trkpt>
      <trkpt lat="44.50131" lon="0.6637">
        <ele>195.6</ele>
        <time>2017-01-22T09:40:37.000Z</time>
      </trkpt>
      <trkpt lat="44.50132" lon="0.66371">
        <ele>195.7</ele>
        <time>2017-01-22T09:40:38.000Z</time>
      </trkpt>
      <trkpt lat="44.50133" lon="0.66372">
        <ele>195.7</ele>
        <time>2017-01-22T09:40:39.000Z</time>
      </trkpt>
      <trkpt lat="44.50134" lon="0.66373">
        <ele>195.7</ele>
        <time>2017-01-22T09:40:40.000Z</time>
      </trkpt>
      <trkpt lat="44.50136" lon="0.66374">
        <ele>195.8</ele>
        <time>2017-01-22T09:40:41.000Z</time>
      </trkpt>
      <trkpt lat="44.50137" lon="0.66375">
        <ele>195.8</ele>
        <time>2017-01-22T09:40:42.000Z</time>
      </trkpt>
      <trkpt lat="44.50138" lon="0.66376">
        <ele>195.8</ele>
        <time>2017-01-22T09:40:43.000Z</time>
      </trkpt>
      <trkpt lat="44.50139" lon="0.66377">
        <ele>195.8</ele>
        <time>2017-01-22T09:40:44.000Z</time>
      </trkpt>
      <trkpt lat="44.50141" lon="0.66378">
        <ele>195.9</ele>
        <time>2017-01-22T09:40:45.000Z</time>
      </trkpt>
      <trkpt lat="44.50142" lon="0.66379">
        <ele>195.9</ele>
        <time>2017-01-22T09:40:46.000Z</time>
      </trkpt>
      <trkpt lat="44.50143" lon="0.6638">
        <ele>195.9</ele>
        <time>2017-01-22T09:40:47.000Z</time>
      </trkpt>
      <trkpt lat="44.50144" lon="0.66381">
        <ele>195.9</ele>
        <time>2017-01-22T09:40:48.000Z</time>
      </trkpt>
      <trkpt lat="44.50145" lon="0.66381">
        <ele>195.8</ele>
        <time>2017-01-22T09:40:49.000Z</time>
      </trkpt>
      <trkpt lat="44.50145" lon="0.66381">
        <ele>195.8</ele>
        <time>2017-01-22T09:40:50.000Z</time>
      </trkpt>
      <trkpt lat="44.50145" lon="0.66381">
        <ele>195.8</ele>
        <time>2017-01-22T09:40:51.000Z</time>
      </trkpt>
      <trkpt lat="44.50146" lon="0.66381">
        <ele>195.7</ele>
        <time>2017-01-22T09:40:52.000Z</time>
      </trkpt>
      <trkpt lat="44.50146" lon="0.66381">
        <ele>195.7</ele>
        <time>2017-01-22T09:40:53.000Z</time>
      </trkpt>
      <trkpt lat="44.50146" lon="0.66381">
        <ele>195.7</ele>
        <time>2017-01-22T09:40:54.000Z</time>
      </trkpt>
      <trkpt lat="44.50146" lon="0.66381">
        <ele>195.7</ele>
        <time>2017-01-22T09:40:55.000Z</time>
      </trkpt>
      <trkpt lat="44.50146" lon="0.66381">
        <ele>195.7</ele>
        <time>2017-01-22T09:40:56.000Z</time>
      </trkpt>
      <trkpt lat="44.50147" lon="0.66381">
        <ele>195.7</ele>
        <time>2017-01-22T09:40:57.000Z</time>
      </trkpt>
      <trkpt lat="44.50148" lon="0.66382">
        <ele>195.6</ele>
        <time>2017-01-22T09:40:58.000Z</time>
      </trkpt>
      <trkpt lat="44.5015" lon="0.66383">
        <ele>195.6</ele>
        <time>2017-01-22T09:40:59.000Z</time>
      </trkpt>
      <trkpt lat="44.50152" lon="0.66384">
        <ele>195.5</ele>
        <time>2017-01-22T09:41:00.000Z</time>
      </trkpt>
      <trkpt lat="44.50154" lon="0.66385">
        <ele>195.4</ele>
        <time>2017-01-22T09:41:01.000Z</time>
      </trkpt>
      <trkpt lat="44.50156" lon="0.66385">
        <ele>195.2</ele>
        <time>2017-01-22T09:41:02.000Z</time>
      </trkpt>
      <trkpt lat="44.50158" lon="0.66386">
        <ele>195.1</ele>
        <time>2017-01-22T09:41:03.000Z</time>
      </trkpt>
      <trkpt lat="44.50161" lon="0.66386">
        <ele>194.9</ele>
        <time>2017-01-22T09:41:04.000Z</time>
      </trkpt>
      <trkpt lat="44.50163" lon="0.66387">
        <ele>194.7</ele>
        <time>2017-01-22T09:41:05.000Z</time>
      </trkpt>
      <trkpt lat="44.50166" lon="0.66387">
        <ele>194.5</ele>
        <time>2017-01-22T09:41:06.000Z</time>
      </trkpt>
      <trkpt lat="44.50169" lon="0.66388">
        <ele>194.4</ele>
        <time>2017-01-22T09:41:07.000Z</time>
      </trkpt>
      <trkpt lat="44.50171" lon="0.66388">
        <ele>194.4</ele>
        <time>2017-01-22T09:41:08.000Z</time>
      </trkpt>
      <trkpt lat="44.50174" lon="0.66389">
        <ele>194.4</ele>
        <time>2017-01-22T09:41:09.000Z</time>
      </trkpt>
      <trkpt lat="44.50177" lon="0.6639">
        <ele>194.5</ele>
        <time>2017-01-22T09:41:10.000Z</time>
      </trkpt>
      <trkpt lat="44.5018" lon="0.6639">
        <ele>194.5</ele>
        <time>2017-01-22T09:41:11.000Z</time>
      </trkpt>
      <trkpt lat="44.50183" lon="0.66391">
        <ele>194.4</ele>
        <time>2017-01-22T09:41:12.000Z</time>
      </trkpt>
      <trkpt lat="44.50186" lon="0.66391">
        <ele>194.4</ele>
        <time>2017-01-22T09:41:13.000Z</time>
      </trkpt>
      <trkpt lat="44.5019" lon="0.66391">
        <ele>194.4</ele>
        <time>2017-01-22T09:41:14.000Z</time>
      </trkpt>
      <trkpt lat="44.50194" lon="0.66392">
        <ele>194.3</ele>
        <time>2017-01-22T09:41:15.000Z</time>
      </trkpt>
      <trkpt lat="44.50198" lon="0.66392">
        <ele>194.2</ele>
        <time>2017-01-22T09:41:16.000Z</time>
      </trkpt>
      <trkpt lat="44.50202" lon="0.66392">
        <ele>194</ele>
        <time>2017-01-22T09:41:17.000Z</time>
      </trkpt>
      <trkpt lat="44.50207" lon="0.66392">
        <ele>193.9</ele>
        <time>2017-01-22T09:41:18.000Z</time>
      </trkpt>
      <trkpt lat="44.50211" lon="0.66391">
        <ele>193.7</ele>
        <time>2017-01-22T09:41:19.000Z</time>
      </trkpt>
      <trkpt lat="44.50216" lon="0.66391">
        <ele>193.5</ele>
        <time>2017-01-22T09:41:20.000Z</time>
      </trkpt>
      <trkpt lat="44.50219" lon="0.66391">
        <ele>193.3</ele>
        <time>2017-01-22T09:41:21.000Z</time>
      </trkpt>
      <trkpt lat="44.50223" lon="0.6639">
        <ele>193.2</ele>
        <time>2017-01-22T09:41:22.000Z</time>
      </trkpt>
      <trkpt lat="44.50226" lon="0.66391">
        <ele>193.1</ele>
        <time>2017-01-22T09:41:23.000Z</time>
      </trkpt>
      <trkpt lat="44.50229" lon="0.66391">
        <ele>193</ele>
        <time>2017-01-22T09:41:24.000Z</time>
      </trkpt>
      <trkpt lat="44.50232" lon="0.66392">
        <ele>193.1</ele>
        <time>2017-01-22T09:41:25.000Z</time>
      </trkpt>
      <trkpt lat="44.50235" lon="0.66393">
        <ele>193.2</ele>
        <time>2017-01-22T09:41:26.000Z</time>
      </trkpt>
      <trkpt lat="44.50237" lon="0.66394">
        <ele>193.4</ele>
        <time>2017-01-22T09:41:27.000Z</time>
      </trkpt>
      <trkpt lat="44.5024" lon="0.66396">
        <ele>193.5</ele>
        <time>2017-01-22T09:41:28.000Z</time>
      </trkpt>
      <trkpt lat="44.50242" lon="0.66397">
        <ele>193.7</ele>
        <time>2017-01-22T09:41:29.000Z</time>
      </trkpt>
      <trkpt lat="44.50244" lon="0.66398">
        <ele>193.8</ele>
        <time>2017-01-22T09:41:30.000Z</time>
      </trkpt>
      <trkpt lat="44.50246" lon="0.66399">
        <ele>193.9</ele>
        <time>2017-01-22T09:41:31.000Z</time>
      </trkpt>
      <trkpt lat="44.50248" lon="0.66399">
        <ele>193.9</ele>
        <time>2017-01-22T09:41:32.000Z</time>
      </trkpt>
      <trkpt lat="44.5025" lon="0.664">
        <ele>194</ele>
        <time>2017-01-22T09:41:33.000Z</time>
      </trkpt>
      <trkpt lat="44.50252" lon="0.66401">
        <ele>194.1</ele>
        <time>2017-01-22T09:41:34.000Z</time>
      </trkpt>
      <trkpt lat="44.50254" lon="0.66401">
        <ele>194.3</ele>
        <time>2017-01-22T09:41:35.000Z</time>
      </trkpt>
      <trkpt lat="44.50256" lon="0.66402">
        <ele>194.4</ele>
        <time>2017-01-22T09:41:36.000Z</time>
      </trkpt>
      <trkpt lat="44.50258" lon="0.66402">
        <ele>194.5</ele>
        <time>2017-01-22T09:41:37.000Z</time>
      </trkpt>
      <trkpt lat="44.50259" lon="0.66403">
        <ele>194.6</ele>
        <time>2017-01-22T09:41:38.000Z</time>
      </trkpt>
      <trkpt lat="44.50261" lon="0.66403">
        <ele>194.7</ele>
        <time>2017-01-22T09:41:39.000Z</time>
      </trkpt>
      <trkpt lat="44.50263" lon="0.66404">
        <ele>194.9</ele>
        <time>2017-01-22T09:41:40.000Z</time>
      </trkpt>
      <trkpt lat="44.50265" lon="0.66404">
        <ele>195</ele>
        <time>2017-01-22T09:41:41.000Z</time>
      </trkpt>
      <trkpt lat="44.50267" lon="0.66405">
        <ele>195.1</ele>
        <time>2017-01-22T09:41:42.000Z</time>
      </trkpt>
      <trkpt lat="44.50269" lon="0.66405">
        <ele>195.2</ele>
        <time>2017-01-22T09:41:43.000Z</time>
      </trkpt>
      <trkpt lat="44.50271" lon="0.66405">
        <ele>195.3</ele>
        <time>2017-01-22T09:41:44.000Z</time>
      </trkpt>
      <trkpt lat="44.50272" lon="0.66406">
        <ele>195.4</ele>
        <time>2017-01-22T09:41:45.000Z</time>
      </trkpt>
      <trkpt lat="44.50274" lon="0.66406">
        <ele>195.5</ele>
        <time>2017-01-22T09:41:46.000Z</time>
      </trkpt>
      <trkpt lat="44.50276" lon="0.66407">
        <ele>195.6</ele>
        <time>2017-01-22T09:41:47.000Z</time>
      </trkpt>
      <trkpt lat="44.50277" lon="0.66407">
        <ele>195.7</ele>
        <time>2017-01-22T09:41:48.000Z</time>
      </trkpt>
      <trkpt lat="44.50279" lon="0.66408">
        <ele>195.8</ele>
        <time>2017-01-22T09:41:49.000Z</time>
      </trkpt>
      <trkpt lat="44.50281" lon="0.66408">
        <ele>196</ele>
        <time>2017-01-22T09:41:50.000Z</time>
      </trkpt>
      <trkpt lat="44.50282" lon="0.66409">
        <ele>196.1</ele>
        <time>2017-01-22T09:41:51.000Z</time>
      </trkpt>
      <trkpt lat="44.50284" lon="0.66409">
        <ele>196.2</ele>
        <time>2017-01-22T09:41:52.000Z</time>
      </trkpt>
      <trkpt lat="44.50286" lon="0.6641">
        <ele>196.3</ele>
        <time>2017-01-22T09:41:53.000Z</time>
      </trkpt>
      <trkpt lat="44.50287" lon="0.6641">
        <ele>196.4</ele>
        <time>2017-01-22T09:41:54.000Z</time>
      </trkpt>
      <trkpt lat="44.50289" lon="0.66411">
        <ele>196.5</ele>
        <time>2017-01-22T09:41:55.000Z</time>
      </trkpt>
      <trkpt lat="44.50291" lon="0.66411">
        <ele>196.6</ele>
        <time>2017-01-22T09:41:56.000Z</time>
      </trkpt>
      <trkpt lat="44.50293" lon="0.66412">
        <ele>196.7</ele>
        <time>2017-01-22T09:41:57.000Z</time>
      </trkpt>
      <trkpt lat="44.50295" lon="0.66412">
        <ele>196.8</ele>
        <time>2017-01-22T09:41:58.000Z</time>
      </trkpt>
      <trkpt lat="44.50297" lon="0.66413">
        <ele>196.9</ele>
        <time>2017-01-22T09:41:59.000Z</time>
      </trkpt>
      <trkpt lat="44.50299" lon="0.66413">
        <ele>197</ele>
        <time>2017-01-22T09:42:00.000Z</time>
      </trkpt>
      <trkpt lat="44.50301" lon="0.66414">
        <ele>197.1</ele>
        <time>2017-01-22T09:42:01.000Z</time>
      </trkpt>
      <trkpt lat="44.50303" lon="0.66414">
        <ele>197.2</ele>
        <time>2017-01-22T09:42:02.000Z</time>
      </trkpt>
      <trkpt lat="44.50305" lon="0.66414">
        <ele>197.3</ele>
        <time>2017-01-22T09:42:03.000Z</time>
      </trkpt>
      <trkpt lat="44.50307" lon="0.66415">
        <ele>197.3</ele>
        <time>2017-01-22T09:42:04.000Z</time>
      </trkpt>
      <trkpt lat="44.50309" lon="0.66415">
        <ele>197.4</ele>
        <time>2017-01-22T09:42:05.000Z</time>
      </trkpt>
      <trkpt lat="44.50311" lon="0.66415">
        <ele>197.4</ele>
        <time>2017-01-22T09:42:06.000Z</time>
      </trkpt>
      <trkpt lat="44.50314" lon="0.66415">
        <ele>197.5</ele>
        <time>2017-01-22T09:42:07.000Z</time>
      </trkpt>
      <trkpt lat="44.50316" lon="0.66415">
        <ele>197.5</ele>
        <time>2017-01-22T09:42:08.000Z</time>
      </trkpt>
      <trkpt lat="44.50318" lon="0.66415">
        <ele>197.5</ele>
        <time>2017-01-22T09:42:09.000Z</time>
      </trkpt>
      <trkpt lat="44.5032" lon="0.66415">
        <ele>197.6</ele>
        <time>2017-01-22T09:42:10.000Z</time>
      </trkpt>
      <trkpt lat="44.50321" lon="0.66415">
        <ele>197.6</ele>
        <time>2017-01-22T09:42:11.000Z</time>
      </trkpt>
      <trkpt lat="44.50323" lon="0.66415">
        <ele>197.6</ele>
        <time>2017-01-22T09:42:12.000Z</time>
      </trkpt>
      <trkpt lat="44.50325" lon="0.66415">
        <ele>197.6</ele>
        <time>2017-01-22T09:42:13.000Z</time>
      </trkpt>
      <trkpt lat="44.50326" lon="0.66415">
        <ele>197.6</ele>
        <time>2017-01-22T09:42:14.000Z</time>
      </trkpt>
      <trkpt lat="44.50328" lon="0.66415">
        <ele>197.6</ele>
        <time>2017-01-22T09:42:15.000Z</time>
      </trkpt>
      <trkpt lat="44.50329" lon="0.66415">
        <ele>197.7</ele>
        <time>2017-01-22T09:42:16.000Z</time>
      </trkpt>
      <trkpt lat="44.50331" lon="0.66415">
        <ele>197.7</ele>
        <time>2017-01-22T09:42:17.000Z</time>
      </trkpt>
      <trkpt lat="44.50332" lon="0.66415">
        <ele>197.6</ele>
        <time>2017-01-22T09:42:18.000Z</time>
      </trkpt>
      <trkpt lat="44.50334" lon="0.66414">
        <ele>197.7</ele>
        <time>2017-01-22T09:42:19.000Z</time>
      </trkpt>
      <trkpt lat="44.50335" lon="0.66414">
        <ele>197.8</ele>
        <time>2017-01-22T09:42:20.000Z</time>
      </trkpt>
      <trkpt lat="44.50337" lon="0.66413">
        <ele>197.9</ele>
        <time>2017-01-22T09:42:21.000Z</time>
      </trkpt>
      <trkpt lat="44.50339" lon="0.66413">
        <ele>197.9</ele>
        <time>2017-01-22T09:42:22.000Z</time>
      </trkpt>
      <trkpt lat="44.5034" lon="0.66413">
        <ele>198.1</ele>
        <time>2017-01-22T09:42:23.000Z</time>
      </trkpt>
      <trkpt lat="44.50342" lon="0.66413">
        <ele>198.2</ele>
        <time>2017-01-22T09:42:24.000Z</time>
      </trkpt>
      <trkpt lat="44.50343" lon="0.66412">
        <ele>198.3</ele>
        <time>2017-01-22T09:42:25.000Z</time>
      </trkpt>
      <trkpt lat="44.50345" lon="0.66412">
        <ele>198.5</ele>
        <time>2017-01-22T09:42:26.000Z</time>
      </trkpt>
      <trkpt lat="44.50347" lon="0.66412">
        <ele>198.6</ele>
        <time>2017-01-22T09:42:27.000Z</time>
      </trkpt>
      <trkpt lat="44.50348" lon="0.66412">
        <ele>198.7</ele>
        <time>2017-01-22T09:42:28.000Z</time>
      </trkpt>
      <trkpt lat="44.5035" lon="0.66412">
        <ele>198.8</ele>
        <time>2017-01-22T09:42:29.000Z</time>
      </trkpt>
      <trkpt lat="44.50351" lon="0.66411">
        <ele>198.9</ele>
        <time>2017-01-22T09:42:30.000Z</time>
      </trkpt>
      <trkpt lat="44.50353" lon="0.66411">
        <ele>199</ele>
        <time>2017-01-22T09:42:31.000Z</time>
      </trkpt>
      <trkpt lat="44.50354" lon="0.6641">
        <ele>199.1</ele>
        <time>2017-01-22T09:42:32.000Z</time>
      </trkpt>
      <trkpt lat="44.50356" lon="0.66409">
        <ele>199.1</ele>
        <time>2017-01-22T09:42:33.000Z</time>
      </trkpt>
      <trkpt lat="44.50358" lon="0.66408">
        <ele>199.1</ele>
        <time>2017-01-22T09:42:34.000Z</time>
      </trkpt>
      <trkpt lat="44.50359" lon="0.66407">
        <ele>199.1</ele>
        <time>2017-01-22T09:42:35.000Z</time>
      </trkpt>
      <trkpt lat="44.50361" lon="0.66405">
        <ele>199.1</ele>
        <time>2017-01-22T09:42:36.000Z</time>
      </trkpt>
      <trkpt lat="44.50363" lon="0.66403">
        <ele>199</ele>
        <time>2017-01-22T09:42:37.000Z</time>
      </trkpt>
      <trkpt lat="44.50365" lon="0.66401">
        <ele>198.9</ele>
        <time>2017-01-22T09:42:38.000Z</time>
      </trkpt>
      <trkpt lat="44.50367" lon="0.66399">
        <ele>198.8</ele>
        <time>2017-01-22T09:42:39.000Z</time>
      </trkpt>
      <trkpt lat="44.50369" lon="0.66396">
        <ele>198.7</ele>
        <time>2017-01-22T09:42:40.000Z</time>
      </trkpt>
      <trkpt lat="44.50371" lon="0.66393">
        <ele>198.6</ele>
        <time>2017-01-22T09:42:41.000Z</time>
      </trkpt>
      <trkpt lat="44.50374" lon="0.66389">
        <ele>198.4</ele>
        <time>2017-01-22T09:42:42.000Z</time>
      </trkpt>
      <trkpt lat="44.50377" lon="0.66385">
        <ele>198.2</ele>
        <time>2017-01-22T09:42:43.000Z</time>
      </trkpt>
      <trkpt lat="44.50379" lon="0.66381">
        <ele>198</ele>
        <time>2017-01-22T09:42:44.000Z</time>
      </trkpt>
      <trkpt lat="44.50382" lon="0.66376">
        <ele>197.8</ele>
        <time>2017-01-22T09:42:45.000Z</time>
      </trkpt>
      <trkpt lat="44.50385" lon="0.66371">
        <ele>197.6</ele>
        <time>2017-01-22T09:42:46.000Z</time>
      </trkpt>
      <trkpt lat="44.50388" lon="0.66365">
        <ele>197.3</ele>
        <time>2017-01-22T09:42:47.000Z</time>
      </trkpt>
      <trkpt lat="44.50392" lon="0.66359">
        <ele>197.1</ele>
        <time>2017-01-22T09:42:48.000Z</time>
      </trkpt>
      <trkpt lat="44.50395" lon="0.66353">
        <ele>196.8</ele>
        <time>2017-01-22T09:42:49.000Z</time>
      </trkpt>
      <trkpt lat="44.50399" lon="0.66345">
        <ele>196.5</ele>
        <time>2017-01-22T09:42:50.000Z</time>
      </trkpt>
      <trkpt lat="44.50402" lon="0.66338">
        <ele>196.2</ele>
        <time>2017-01-22T09:42:51.000Z</time>
      </trkpt>
      <trkpt lat="44.50406" lon="0.66329">
        <ele>195.8</ele>
        <time>2017-01-22T09:42:52.000Z</time>
      </trkpt>
      <trkpt lat="44.5041" lon="0.66321">
        <ele>195.4</ele>
        <time>2017-01-22T09:42:53.000Z</time>
      </trkpt>
      <trkpt lat="44.50413" lon="0.66312">
        <ele>194.9</ele>
        <time>2017-01-22T09:42:54.000Z</time>
      </trkpt>
      <trkpt lat="44.50417" lon="0.66303">
        <ele>194.4</ele>
        <time>2017-01-22T09:42:55.000Z</time>
      </trkpt>
      <trkpt lat="44.5042" lon="0.66294">
        <ele>194</ele>
        <time>2017-01-22T09:42:56.000Z</time>
      </trkpt>
      <trkpt lat="44.50424" lon="0.66285">
        <ele>193.6</ele>
        <time>2017-01-22T09:42:57.000Z</time>
      </trkpt>
      <trkpt lat="44.50427" lon="0.66276">
        <ele>193.3</ele>
        <time>2017-01-22T09:42:58.000Z</time>
      </trkpt>
      <trkpt lat="44.50431" lon="0.66268">
        <ele>193</ele>
        <time>2017-01-22T09:42:59.000Z</time>
      </trkpt>
      <trkpt lat="44.50433" lon="0.66259">
        <ele>192.8</ele>
        <time>2017-01-22T09:43:00.000Z</time>
      </trkpt>
      <trkpt lat="44.50436" lon="0.66251">
        <ele>192.5</ele>
        <time>2017-01-22T09:43:01.000Z</time>
      </trkpt>
      <trkpt lat="44.50438" lon="0.66244">
        <ele>192.4</ele>
        <time>2017-01-22T09:43:02.000Z</time>
      </trkpt>
      <trkpt lat="44.5044" lon="0.66238">
        <ele>192.4</ele>
        <time>2017-01-22T09:43:03.000Z</time>
      </trkpt>
      <trkpt lat="44.50443" lon="0.66232">
        <ele>192.5</ele>
        <time>2017-01-22T09:43:04.000Z</time>
      </trkpt>
      <trkpt lat="44.50445" lon="0.66227">
        <ele>192.7</ele>
        <time>2017-01-22T09:43:05.000Z</time>
      </trkpt>
      <trkpt lat="44.50448" lon="0.66222">
        <ele>192.9</ele>
        <time>2017-01-22T09:43:06.000Z</time>
      </trkpt>
      <trkpt lat="44.5045" lon="0.66218">
        <ele>193.2</ele>
        <time>2017-01-22T09:43:07.000Z</time>
      </trkpt>
      <trkpt lat="44.50453" lon="0.66213">
        <ele>193.4</ele>
        <time>2017-01-22T09:43:08.000Z</time>
      </trkpt>
      <trkpt lat="44.50456" lon="0.66209">
        <ele>193.7</ele>
        <time>2017-01-22T09:43:09.000Z</time>
      </trkpt>
      <trkpt lat="44.50458" lon="0.66205">
        <ele>193.9</ele>
        <time>2017-01-22T09:43:10.000Z</time>
      </trkpt>
      <trkpt lat="44.5046" lon="0.66201">
        <ele>194.1</ele>
        <time>2017-01-22T09:43:11.000Z</time>
      </trkpt>
      <trkpt lat="44.50462" lon="0.66198">
        <ele>194.3</ele>
        <time>2017-01-22T09:43:12.000Z</time>
      </trkpt>
      <trkpt lat="44.50464" lon="0.66194">
        <ele>194.4</ele>
        <time>2017-01-22T09:43:13.000Z</time>
      </trkpt>
      <trkpt lat="44.50466" lon="0.66191">
        <ele>194.6</ele>
        <time>2017-01-22T09:43:14.000Z</time>
      </trkpt>
      <trkpt lat="44.50468" lon="0.66188">
        <ele>194.7</ele>
        <time>2017-01-22T09:43:15.000Z</time>
      </trkpt>
      <trkpt lat="44.50469" lon="0.66186">
        <ele>194.8</ele>
        <time>2017-01-22T09:43:16.000Z</time>
      </trkpt>
      <trkpt lat="44.5047" lon="0.66183">
        <ele>194.9</ele>
        <time>2017-01-22T09:43:17.000Z</time>
      </trkpt>
      <trkpt lat="44.50472" lon="0.66181">
        <ele>195</ele>
        <time>2017-01-22T09:43:18.000Z</time>
      </trkpt>
      <trkpt lat="44.50473" lon="0.66179">
        <ele>195.1</ele>
        <time>2017-01-22T09:43:19.000Z</time>
      </trkpt>
      <trkpt lat="44.50474" lon="0.66177">
        <ele>195.2</ele>
        <time>2017-01-22T09:43:20.000Z</time>
      </trkpt>
      <trkpt lat="44.50475" lon="0.66175">
        <ele>195.3</ele>
        <time>2017-01-22T09:43:21.000Z</time>
      </trkpt>
      <trkpt lat="44.50477" lon="0.66173">
        <ele>195.5</ele>
        <time>2017-01-22T09:43:22.000Z</time>
      </trkpt>
      <trkpt lat="44.50478" lon="0.66172">
        <ele>195.6</ele>
        <time>2017-01-22T09:43:23.000Z</time>
      </trkpt>
      <trkpt lat="44.50479" lon="0.6617">
        <ele>195.8</ele>
        <time>2017-01-22T09:43:24.000Z</time>
      </trkpt>
      <trkpt lat="44.5048" lon="0.66169">
        <ele>195.9</ele>
        <time>2017-01-22T09:43:25.000Z</time>
      </trkpt>
      <trkpt lat="44.50481" lon="0.66168">
        <ele>196</ele>
        <time>2017-01-22T09:43:26.000Z</time>
      </trkpt>
      <trkpt lat="44.50482" lon="0.66167">
        <ele>196.1</ele>
        <time>2017-01-22T09:43:27.000Z</time>
      </trkpt>
      <trkpt lat="44.50482" lon="0.66166">
        <ele>196.1</ele>
        <time>2017-01-22T09:43:28.000Z</time>
      </trkpt>
      <trkpt lat="44.50483" lon="0.66166">
        <ele>196.2</ele>
        <time>2017-01-22T09:43:29.000Z</time>
      </trkpt>
      <trkpt lat="44.50483" lon="0.66165">
        <ele>196.2</ele>
        <time>2017-01-22T09:43:30.000Z</time>
      </trkpt>
      <trkpt lat="44.50483" lon="0.66165">
        <ele>196.2</ele>
        <time>2017-01-22T09:43:31.000Z</time>
      </trkpt>
      <trkpt lat="44.50483" lon="0.66165">
        <ele>196.2</ele>
        <time>2017-01-22T09:43:32.000Z</time>
      </trkpt>
      <trkpt lat="44.50483" lon="0.66165">
        <ele>196.2</ele>
        <time>2017-01-22T09:43:33.000Z</time>
      </trkpt>
      <trkpt lat="44.50483" lon="0.66165">
        <ele>196.2</ele>
        <time>2017-01-22T09:43:34.000Z</time>
      </trkpt>
      <trkpt lat="44.50483" lon="0.66165">
        <ele>196.2</ele>
        <time>2017-01-22T09:43:35.000Z</time>
      </trkpt>
      <trkpt lat="44.50483" lon="0.66165">
        <ele>196.2</ele>
        <time>2017-01-22T09:43:36.000Z</time>
      </trkpt>
      <trkpt lat="44.50483" lon="0.66165">
        <ele>196.2</ele>
        <time>2017-01-22T09:43:37.000Z</time>
      </trkpt>
      <trkpt lat="44.50483" lon="0.66165">
        <ele>196.2</ele>
        <time>2017-01-22T09:43:38.000Z</time>
      </trkpt>
      <trkpt lat="44.50483" lon="0.66165">
        <ele>196.2</ele>
        <time>2017-01-22T09:43:39.000Z</time>
      </trkpt>
      <trkpt lat="44.50483" lon="0.66165">
        <ele>196.2</ele>
        <time>2017-01-22T09:43:40.000Z</time>
      </trkpt>
      <trkpt lat="44.50483" lon="0.66165">
        <ele>196.2</ele>
        <time>2017-01-22T09:43:41.000Z</time>
      </trkpt>
      <trkpt lat="44.50483" lon="0.66165">
        <ele>196.2</ele>
        <time>2017-01-22T09:43:42.000Z</time>
      </trkpt>
      <trkpt lat="44.50483" lon="0.66165">
        <ele>196.2</ele>
        <time>2017-01-22T09:43:43.000Z</time>
      </trkpt>
      <trkpt lat="44.50483" lon="0.66165">
        <ele>196.2</ele>
        <time>2017-01-22T09:43:44.000Z</time>
      </trkpt>
      <trkpt lat="44.50483" lon="0.66165">
        <ele>196.2</ele>
        <time>2017-01-22T09:43:45.000Z</time>
      </trkpt>
      <trkpt lat="44.50483" lon="0.66165">
        <ele>196.2</ele>
        <time>2017-01-22T09:43:46.000Z</time>
      </trkpt>
      <trkpt lat="44.50483" lon="0.66165">
        <ele>196.2</ele>
        <time>2017-01-22T09:43:47.000Z</time>
      </trkpt>
      <trkpt lat="44.50483" lon="0.66165">
        <ele>196.2</ele>
        <time>2017-01-22T09:43:48.000Z</time>
      </trkpt>
      <trkpt lat="44.50483" lon="0.66165">
        <ele>196.2</ele>
        <time>2017-01-22T09:43:49.000Z</time>
      </trkpt>
      <trkpt lat="44.50483" lon="0.66165">
        <ele>196.2</ele>
        <time>2017-01-22T09:43:50.000Z</time>
      </trkpt>
      <trkpt lat="44.50483" lon="0.66165">
        <ele>196.2</ele>
        <time>2017-01-22T09:43:51.000Z</time>
      </trkpt>
      <trkpt lat="44.50483" lon="0.66165">
        <ele>196.2</ele>
        <time>2017-01-22T09:43:52.000Z</time>
      </trkpt>
      <trkpt lat="44.50483" lon="0.66165">
        <ele>196.2</ele>
        <time>2017-01-22T09:43:53.000Z</time>
      </trkpt>
      <trkpt lat="44.50483" lon="0.66165">
        <ele>196.2</ele>
        <time>2017-01-22T09:43:54.000Z</time>
      </trkpt>
      <trkpt lat="44.50483" lon="0.66165">
        <ele>196.2</ele>
        <time>2017-01-22T09:43:55.000Z</time>
      </trkpt>
      <trkpt lat="44.50483" lon="0.66165">
        <ele>196.2</ele>
        <time>2017-01-22T09:43:56.000Z</time>
      </trkpt>
      <trkpt lat="44.50483" lon="0.66165">
        <ele>196.2</ele>
        <time>2017-01-22T09:43:57.000Z</time>
      </trkpt>
      <trkpt lat="44.50483" lon="0.66165">
        <ele>196.2</ele>
        <time>2017-01-22T09:43:58.000Z</time>
      </trkpt>
      <trkpt lat="44.50483" lon="0.66165">
        <ele>196.2</ele>
        <time>2017-01-22T09:43:59.000Z</time>
      </trkpt>
      <trkpt lat="44.50483" lon="0.66165">
        <ele>196.2</ele>
        <time>2017-01-22T09:44:00.000Z</time>
      </trkpt>
      <trkpt lat="44.50483" lon="0.66165">
        <ele>196.2</ele>
        <time>2017-01-22T09:44:01.000Z</time>
      </trkpt>
      <trkpt lat="44.50483" lon="0.66165">
        <ele>196.2</ele>
        <time>2017-01-22T09:44:02.000Z</time>
      </trkpt>
      <trkpt lat="44.50483" lon="0.66165">
        <ele>196.2</ele>
        <time>2017-01-22T09:44:03.000Z</time>
      </trkpt>
      <trkpt lat="44.50483" lon="0.66165">
        <ele>196.2</ele>
        <time>2017-01-22T09:44:04.000Z</time>
      </trkpt>
      <trkpt lat="44.50483" lon="0.66165">
        <ele>196.2</ele>
        <time>2017-01-22T09:44:05.000Z</time>
      </trkpt>
      <trkpt lat="44.50483" lon="0.66165">
        <ele>196.2</ele>
        <time>2017-01-22T09:44:06.000Z</time>
      </trkpt>
      <trkpt lat="44.50483" lon="0.66165">
        <ele>196.2</ele>
        <time>2017-01-22T09:44:07.000Z</time>
      </trkpt>
      <trkpt lat="44.50483" lon="0.66165">
        <ele>196.2</ele>
        <time>2017-01-22T09:44:08.000Z</time>
      </trkpt>
      <trkpt lat="44.50483" lon="0.66165">
        <ele>196.2</ele>
        <time>2017-01-22T09:44:09.000Z</time>
      </trkpt>
      <trkpt lat="44.50483" lon="0.66165">
        <ele>196.2</ele>
        <time>2017-01-22T09:44:10.000Z</time>
      </trkpt>
      <trkpt lat="44.50483" lon="0.66165">
        <ele>196.2</ele>
        <time>2017-01-22T09:44:11.000Z</time>
      </trkpt>
      <trkpt lat="44.50483" lon="0.66165">
        <ele>196.2</ele>
        <time>2017-01-22T09:44:12.000Z</time>
      </trkpt>
      <trkpt lat="44.50483" lon="0.66165">
        <ele>196.2</ele>
        <time>2017-01-22T09:44:13.000Z</time>
      </trkpt>
      <trkpt lat="44.50483" lon="0.66165">
        <ele>196.2</ele>
        <time>2017-01-22T09:44:14.000Z</time>
      </trkpt>
      <trkpt lat="44.50483" lon="0.66165">
        <ele>196.2</ele>
        <time>2017-01-22T09:44:15.000Z</time>
      </trkpt>
      <trkpt lat="44.50483" lon="0.66165">
        <ele>196.2</ele>
        <time>2017-01-22T09:44:16.000Z</time>
      </trkpt>
      <trkpt lat="44.50483" lon="0.66165">
        <ele>196.2</ele>
        <time>2017-01-22T09:44:17.000Z</time>
      </trkpt>
      <trkpt lat="44.50483" lon="0.66165">
        <ele>196.2</ele>
        <time>2017-01-22T09:44:18.000Z</time>
      </trkpt>
      <trkpt lat="44.50483" lon="0.66165">
        <ele>196.2</ele>
        <time>2017-01-22T09:44:19.000Z</time>
      </trkpt>
      <trkpt lat="44.50483" lon="0.66165">
        <ele>196.2</ele>
        <time>2017-01-22T09:44:20.000Z</time>
      </trkpt>
      <trkpt lat="44.50483" lon="0.66165">
        <ele>196.2</ele>
        <time>2017-01-22T09:44:21.000Z</time>
      </trkpt>
      <trkpt lat="44.50483" lon="0.66165">
        <ele>196.2</ele>
        <time>2017-01-22T09:44:22.000Z</time>
      </trkpt>
      <trkpt lat="44.50483" lon="0.66165">
        <ele>196.2</ele>
        <time>2017-01-22T09:44:23.000Z</time>
      </trkpt>
      <trkpt lat="44.50483" lon="0.66165">
        <ele>196.2</ele>
        <time>2017-01-22T09:44:24.000Z</time>
      </trkpt>
      <trkpt lat="44.50483" lon="0.66165">
        <ele>196.2</ele>
        <time>2017-01-22T09:44:25.000Z</time>
      </trkpt>
      <trkpt lat="44.50483" lon="0.66165">
        <ele>196.2</ele>
        <time>2017-01-22T09:44:26.000Z</time>
      </trkpt>
      <trkpt lat="44.50483" lon="0.66165">
        <ele>196.2</ele>
        <time>2017-01-22T09:44:27.000Z</time>
      </trkpt>
      <trkpt lat="44.50483" lon="0.66165">
        <ele>196.2</ele>
        <time>2017-01-22T09:44:28.000Z</time>
      </trkpt>
      <trkpt lat="44.50483" lon="0.66165">
        <ele>196.2</ele>
        <time>2017-01-22T09:44:29.000Z</time>
      </trkpt>
      <trkpt lat="44.50483" lon="0.66165">
        <ele>196.2</ele>
        <time>2017-01-22T09:44:30.000Z</time>
      </trkpt>
      <trkpt lat="44.50483" lon="0.66165">
        <ele>196.2</ele>
        <time>2017-01-22T09:44:31.000Z</time>
      </trkpt>
      <trkpt lat="44.50483" lon="0.66165">
        <ele>196.2</ele>
        <time>2017-01-22T09:44:32.000Z</time>
      </trkpt>
      <trkpt lat="44.50483" lon="0.66165">
        <ele>196.2</ele>
        <time>2017-01-22T09:44:33.000Z</time>
      </trkpt>
      <trkpt lat="44.50483" lon="0.66165">
        <ele>196.2</ele>
        <time>2017-01-22T09:44:34.000Z</time>
      </trkpt>
      <trkpt lat="44.50483" lon="0.66165">
        <ele>196.2</ele>
        <time>2017-01-22T09:44:35.000Z</time>
      </trkpt>
      <trkpt lat="44.50483" lon="0.66165">
        <ele>196.2</ele>
        <time>2017-01-22T09:44:36.000Z</time>
      </trkpt>
      <trkpt lat="44.50483" lon="0.66165">
        <ele>196.2</ele>
        <time>2017-01-22T09:44:37.000Z</time>
      </trkpt>
      <trkpt lat="44.50483" lon="0.66165">
        <ele>196.2</ele>
        <time>2017-01-22T09:44:38.000Z</time>
      </trkpt>
      <trkpt lat="44.50483" lon="0.66165">
        <ele>196.2</ele>
        <time>2017-01-22T09:44:39.000Z</time>
      </trkpt>
      <trkpt lat="44.50483" lon="0.66165">
        <ele>196.2</ele>
        <time>2017-01-22T09:44:40.000Z</time>
      </trkpt>
      <trkpt lat="44.50483" lon="0.66165">
        <ele>196.2</ele>
        <time>2017-01-22T09:44:41.000Z</time>
      </trkpt>
      <trkpt lat="44.50483" lon="0.66165">
        <ele>196.2</ele>
        <time>2017-01-22T09:44:42.000Z</time>
      </trkpt>
      <trkpt lat="44.50483" lon="0.66165">
        <ele>196.2</ele>
        <time>2017-01-22T09:44:43.000Z</time>
      </trkpt>
      <trkpt lat="44.50483" lon="0.66165">
        <ele>196.2</ele>
        <time>2017-01-22T09:44:44.000Z</time>
      </trkpt>
      <trkpt lat="44.50483" lon="0.66165">
        <ele>196.2</ele>
        <time>2017-01-22T09:44:45.000Z</time>
      </trkpt>
      <trkpt lat="44.50483" lon="0.66165">
        <ele>196.2</ele>
        <time>2017-01-22T09:44:46.000Z</time>
      </trkpt>
      <trkpt lat="44.50483" lon="0.66165">
        <ele>196.2</ele>
        <time>2017-01-22T09:44:47.000Z</time>
      </trkpt>
      <trkpt lat="44.50483" lon="0.66165">
        <ele>196.2</ele>
        <time>2017-01-22T09:44:48.000Z</time>
      </trkpt>
      <trkpt lat="44.50483" lon="0.66165">
        <ele>196.2</ele>
        <time>2017-01-22T09:44:49.000Z</time>
      </trkpt>
      <trkpt lat="44.50483" lon="0.66165">
        <ele>196.2</ele>
        <time>2017-01-22T09:44:50.000Z</time>
      </trkpt>
      <trkpt lat="44.50483" lon="0.66165">
        <ele>196.2</ele>
        <time>2017-01-22T09:44:51.000Z</time>
      </trkpt>
      <trkpt lat="44.50483" lon="0.66165">
        <ele>196.2</ele>
        <time>2017-01-22T09:44:52.000Z</time>
      </trkpt>
      <trkpt lat="44.50483" lon="0.66165">
        <ele>196.2</ele>
        <time>2017-01-22T09:44:53.000Z</time>
      </trkpt>
      <trkpt lat="44.50483" lon="0.66165">
        <ele>196.2</ele>
        <time>2017-01-22T09:44:54.000Z</time>
      </trkpt>
      <trkpt lat="44.50483" lon="0.66165">
        <ele>196.2</ele>
        <time>2017-01-22T09:44:55.000Z</time>
      </trkpt>
      <trkpt lat="44.50483" lon="0.66165">
        <ele>196.2</ele>
        <time>2017-01-22T09:44:56.000Z</time>
      </trkpt>
      <trkpt lat="44.50483" lon="0.66165">
        <ele>196.2</ele>
        <time>2017-01-22T09:44:57.000Z</time>
      </trkpt>
      <trkpt lat="44.50483" lon="0.66165">
        <ele>196.2</ele>
        <time>2017-01-22T09:44:58.000Z</time>
      </trkpt>
      <trkpt lat="44.50483" lon="0.66165">
        <ele>196.2</ele>
        <time>2017-01-22T09:44:59.000Z</time>
      </trkpt>
      <trkpt lat="44.50483" lon="0.66165">
        <ele>196.2</ele>
        <time>2017-01-22T09:45:00.000Z</time>
      </trkpt>
      <trkpt lat="44.50483" lon="0.66165">
        <ele>196.2</ele>
        <time>2017-01-22T09:45:01.000Z</time>
      </trkpt>
      <trkpt lat="44.50483" lon="0.66165">
        <ele>196.2</ele>
        <time>2017-01-22T09:45:02.000Z</time>
      </trkpt>
      <trkpt lat="44.50483" lon="0.66165">
        <ele>196.2</ele>
        <time>2017-01-22T09:45:03.000Z</time>
      </trkpt>
      <trkpt lat="44.50483" lon="0.66165">
        <ele>196.2</ele>
        <time>2017-01-22T09:45:04.000Z</time>
      </trkpt>
      <trkpt lat="44.50483" lon="0.66165">
        <ele>196.2</ele>
        <time>2017-01-22T09:45:05.000Z</time>
      </trkpt>
      <trkpt lat="44.50483" lon="0.66165">
        <ele>196.2</ele>
        <time>2017-01-22T09:45:06.000Z</time>
      </trkpt>
      <trkpt lat="44.50483" lon="0.66165">
        <ele>196.2</ele>
        <time>2017-01-22T09:45:07.000Z</time>
      </trkpt>
      <trkpt lat="44.50483" lon="0.66165">
        <ele>196.2</ele>
        <time>2017-01-22T09:45:08.000Z</time>
      </trkpt>
      <trkpt lat="44.50483" lon="0.66165">
        <ele>196.2</ele>
        <time>2017-01-22T09:45:09.000Z</time>
      </trkpt>
      <trkpt lat="44.50483" lon="0.66165">
        <ele>196.2</ele>
        <time>2017-01-22T09:45:10.000Z</time>
      </trkpt>
      <trkpt lat="44.50483" lon="0.66165">
        <ele>196.2</ele>
        <time>2017-01-22T09:45:11.000Z</time>
      </trkpt>
      <trkpt lat="44.50483" lon="0.66165">
        <ele>196.2</ele>
        <time>2017-01-22T09:45:12.000Z</time>
      </trkpt>
      <trkpt lat="44.50483" lon="0.66165">
        <ele>196.2</ele>
        <time>2017-01-22T09:45:13.000Z</time>
      </trkpt>
      <trkpt lat="44.50483" lon="0.66165">
        <ele>196.2</ele>
        <time>2017-01-22T09:45:14.000Z</time>
      </trkpt>
      <trkpt lat="44.50483" lon="0.66165">
        <ele>196.2</ele>
        <time>2017-01-22T09:45:15.000Z</time>
      </trkpt>
      <trkpt lat="44.50483" lon="0.66165">
        <ele>196.2</ele>
        <time>2017-01-22T09:45:16.000Z</time>
      </trkpt>
      <trkpt lat="44.50483" lon="0.66165">
        <ele>196.2</ele>
        <time>2017-01-22T09:45:17.000Z</time>
      </trkpt>
      <trkpt lat="44.50483" lon="0.66165">
        <ele>196.2</ele>
        <time>2017-01-22T09:45:18.000Z</time>
      </trkpt>
      <trkpt lat="44.50483" lon="0.66165">
        <ele>196.2</ele>
        <time>2017-01-22T09:45:19.000Z</time>
      </trkpt>
      <trkpt lat="44.50483" lon="0.66165">
        <ele>196.2</ele>
        <time>2017-01-22T09:45:20.000Z</time>
      </trkpt>
      <trkpt lat="44.50483" lon="0.66165">
        <ele>196.2</ele>
        <time>2017-01-22T09:45:21.000Z</time>
      </trkpt>
      <trkpt lat="44.50483" lon="0.66165">
        <ele>196.2</ele>
        <time>2017-01-22T09:45:22.000Z</time>
      </trkpt>
      <trkpt lat="44.50483" lon="0.66165">
        <ele>196.2</ele>
        <time>2017-01-22T09:45:23.000Z</time>
      </trkpt>
      <trkpt lat="44.50483" lon="0.66165">
        <ele>196.2</ele>
        <time>2017-01-22T09:45:24.000Z</time>
      </trkpt>
      <trkpt lat="44.50483" lon="0.66165">
        <ele>196.2</ele>
        <time>2017-01-22T09:45:25.000Z</time>
      </trkpt>
      <trkpt lat="44.50483" lon="0.66165">
        <ele>196.2</ele>
        <time>2017-01-22T09:45:26.000Z</time>
      </trkpt>
      <trkpt lat="44.50483" lon="0.66165">
        <ele>196.2</ele>
        <time>2017-01-22T09:45:27.000Z</time>
      </trkpt>
      <trkpt lat="44.50483" lon="0.66165">
        <ele>196.2</ele>
        <time>2017-01-22T09:45:28.000Z</time>
      </trkpt>
      <trkpt lat="44.50483" lon="0.66165">
        <ele>196.2</ele>
        <time>2017-01-22T09:45:29.000Z</time>
      </trkpt>
      <trkpt lat="44.50483" lon="0.66165">
        <ele>196.2</ele>
        <time>2017-01-22T09:45:30.000Z</time>
      </trkpt>
      <trkpt lat="44.50483" lon="0.66165">
        <ele>196.2</ele>
        <time>2017-01-22T09:45:31.000Z</time>
      </trkpt>
      <trkpt lat="44.50483" lon="0.66165">
        <ele>196.2</ele>
        <time>2017-01-22T09:45:32.000Z</time>
      </trkpt>
      <trkpt lat="44.50483" lon="0.66165">
        <ele>196.2</ele>
        <time>2017-01-22T09:45:33.000Z</time>
      </trkpt>
      <trkpt lat="44.50483" lon="0.66165">
        <ele>196.2</ele>
        <time>2017-01-22T09:45:34.000Z</time>
      </trkpt>
      <trkpt lat="44.50483" lon="0.66165">
        <ele>196.2</ele>
        <time>2017-01-22T09:45:35.000Z</time>
      </trkpt>
      <trkpt lat="44.50483" lon="0.66165">
        <ele>196.2</ele>
        <time>2017-01-22T09:45:36.000Z</time>
      </trkpt>
      <trkpt lat="44.50483" lon="0.66165">
        <ele>196.2</ele>
        <time>2017-01-22T09:45:37.000Z</time>
      </trkpt>
      <trkpt lat="44.50483" lon="0.66165">
        <ele>196.2</ele>
        <time>2017-01-22T09:45:38.000Z</time>
      </trkpt>
      <trkpt lat="44.50483" lon="0.66165">
        <ele>196.2</ele>
        <time>2017-01-22T09:45:39.000Z</time>
      </trkpt>
      <trkpt lat="44.50483" lon="0.66165">
        <ele>196.2</ele>
        <time>2017-01-22T09:45:40.000Z</time>
      </trkpt>
      <trkpt lat="44.50483" lon="0.66165">
        <ele>196.2</ele>
        <time>2017-01-22T09:45:41.000Z</time>
      </trkpt>
      <trkpt lat="44.50483" lon="0.66165">
        <ele>196.2</ele>
        <time>2017-01-22T09:45:42.000Z</time>
      </trkpt>
      <trkpt lat="44.50483" lon="0.66165">
        <ele>196.2</ele>
        <time>2017-01-22T09:45:43.000Z</time>
      </trkpt>
      <trkpt lat="44.50483" lon="0.66165">
        <ele>196.2</ele>
        <time>2017-01-22T09:45:44.000Z</time>
      </trkpt>
      <trkpt lat="44.50483" lon="0.66165">
        <ele>196.2</ele>
        <time>2017-01-22T09:45:45.000Z</time>
      </trkpt>
      <trkpt lat="44.50483" lon="0.66165">
        <ele>196.2</ele>
        <time>2017-01-22T09:45:46.000Z</time>
      </trkpt>
      <trkpt lat="44.50483" lon="0.66165">
        <ele>196.2</ele>
        <time>2017-01-22T09:45:47.000Z</time>
      </trkpt>
      <trkpt lat="44.50483" lon="0.66165">
        <ele>196.2</ele>
        <time>2017-01-22T09:45:48.000Z</time>
      </trkpt>
      <trkpt lat="44.50483" lon="0.66165">
        <ele>196.2</ele>
        <time>2017-01-22T09:45:49.000Z</time>
      </trkpt>
      <trkpt lat="44.50483" lon="0.66165">
        <ele>196.2</ele>
        <time>2017-01-22T09:45:50.000Z</time>
      </trkpt>
      <trkpt lat="44.50483" lon="0.66165">
        <ele>196.2</ele>
        <time>2017-01-22T09:45:51.000Z</time>
      </trkpt>
      <trkpt lat="44.50483" lon="0.66165">
        <ele>196.2</ele>
        <time>2017-01-22T09:45:52.000Z</time>
      </trkpt>
      <trkpt lat="44.50483" lon="0.66165">
        <ele>196.2</ele>
        <time>2017-01-22T09:45:53.000Z</time>
      </trkpt>
      <trkpt lat="44.50483" lon="0.66165">
        <ele>196.2</ele>
        <time>2017-01-22T09:45:54.000Z</time>
      </trkpt>
      <trkpt lat="44.50483" lon="0.66165">
        <ele>196.2</ele>
        <time>2017-01-22T09:45:55.000Z</time>
      </trkpt>
      <trkpt lat="44.50483" lon="0.66165">
        <ele>196.2</ele>
        <time>2017-01-22T09:45:56.000Z</time>
      </trkpt>
      <trkpt lat="44.50483" lon="0.66165">
        <ele>196.2</ele>
        <time>2017-01-22T09:45:57.000Z</time>
      </trkpt>
      <trkpt lat="44.50483" lon="0.66165">
        <ele>196.2</ele>
        <time>2017-01-22T09:45:58.000Z</time>
      </trkpt>
      <trkpt lat="44.50483" lon="0.66165">
        <ele>196.2</ele>
        <time>2017-01-22T09:45:59.000Z</time>
      </trkpt>
      <trkpt lat="44.50483" lon="0.66165">
        <ele>196.2</ele>
        <time>2017-01-22T09:46:00.000Z</time>
      </trkpt>
      <trkpt lat="44.50483" lon="0.66165">
        <ele>196.2</ele>
        <time>2017-01-22T09:46:01.000Z</time>
      </trkpt>
      <trkpt lat="44.50483" lon="0.66165">
        <ele>196.2</ele>
        <time>2017-01-22T09:46:02.000Z</time>
      </trkpt>
      <trkpt lat="44.50483" lon="0.66165">
        <ele>196.2</ele>
        <time>2017-01-22T09:46:03.000Z</time>
      </trkpt>
      <trkpt lat="44.50483" lon="0.66165">
        <ele>196.2</ele>
        <time>2017-01-22T09:46:04.000Z</time>
      </trkpt>
      <trkpt lat="44.50483" lon="0.66165">
        <ele>196.2</ele>
        <time>2017-01-22T09:46:05.000Z</time>
      </trkpt>
      <trkpt lat="44.50483" lon="0.66165">
        <ele>196.2</ele>
        <time>2017-01-22T09:46:06.000Z</time>
      </trkpt>
      <trkpt lat="44.50483" lon="0.66165">
        <ele>196.2</ele>
        <time>2017-01-22T09:46:07.000Z</time>
      </trkpt>
      <trkpt lat="44.50483" lon="0.66165">
        <ele>196.2</ele>
        <time>2017-01-22T09:46:08.000Z</time>
      </trkpt>
      <trkpt lat="44.50483" lon="0.66165">
        <ele>196.2</ele>
        <time>2017-01-22T09:46:09.000Z</time>
      </trkpt>
      <trkpt lat="44.50483" lon="0.66165">
        <ele>196.2</ele>
        <time>2017-01-22T09:46:10.000Z</time>
      </trkpt>
      <trkpt lat="44.50483" lon="0.66165">
        <ele>196.2</ele>
        <time>2017-01-22T09:46:11.000Z</time>
      </trkpt>
      <trkpt lat="44.50483" lon="0.66165">
        <ele>196.2</ele>
        <time>2017-01-22T09:46:12.000Z</time>
      </trkpt>
      <trkpt lat="44.50483" lon="0.66165">
        <ele>196.2</ele>
        <time>2017-01-22T09:46:13.000Z</time>
      </trkpt>
      <trkpt lat="44.50483" lon="0.66165">
        <ele>196.2</ele>
        <time>2017-01-22T09:46:14.000Z</time>
      </trkpt>
      <trkpt lat="44.50483" lon="0.66165">
        <ele>196.2</ele>
        <time>2017-01-22T09:46:15.000Z</time>
      </trkpt>
      <trkpt lat="44.50483" lon="0.66165">
        <ele>196.2</ele>
        <time>2017-01-22T09:46:16.000Z</time>
      </trkpt>
      <trkpt lat="44.50483" lon="0.66165">
        <ele>196.2</ele>
        <time>2017-01-22T09:46:17.000Z</time>
      </trkpt>
      <trkpt lat="44.50483" lon="0.66165">
        <ele>196.2</ele>
        <time>2017-01-22T09:46:18.000Z</time>
      </trkpt>
      <trkpt lat="44.50483" lon="0.66165">
        <ele>196.2</ele>
        <time>2017-01-22T09:46:19.000Z</time>
      </trkpt>
      <trkpt lat="44.50483" lon="0.66165">
        <ele>196.2</ele>
        <time>2017-01-22T09:46:20.000Z</time>
      </trkpt>
      <trkpt lat="44.50483" lon="0.66165">
        <ele>196.2</ele>
        <time>2017-01-22T09:46:21.000Z</time>
      </trkpt>
      <trkpt lat="44.50483" lon="0.66165">
        <ele>196.2</ele>
        <time>2017-01-22T09:46:22.000Z</time>
      </trkpt>
      <trkpt lat="44.50483" lon="0.66165">
        <ele>196.2</ele>
        <time>2017-01-22T09:46:23.000Z</time>
      </trkpt>
      <trkpt lat="44.50483" lon="0.66165">
        <ele>196.2</ele>
        <time>2017-01-22T09:46:24.000Z</time>
      </trkpt>
      <trkpt lat="44.50483" lon="0.66165">
        <ele>196.2</ele>
        <time>2017-01-22T09:46:25.000Z</time>
      </trkpt>
      <trkpt lat="44.50483" lon="0.66165">
        <ele>196.2</ele>
        <time>2017-01-22T09:46:26.000Z</time>
      </trkpt>
      <trkpt lat="44.50483" lon="0.66165">
        <ele>196.2</ele>
        <time>2017-01-22T09:46:27.000Z</time>
      </trkpt>
      <trkpt lat="44.50483" lon="0.66165">
        <ele>196.2</ele>
        <time>2017-01-22T09:46:28.000Z</time>
      </trkpt>
      <trkpt lat="44.50483" lon="0.66165">
        <ele>196.2</ele>
        <time>2017-01-22T09:46:29.000Z</time>
      </trkpt>
      <trkpt lat="44.50483" lon="0.66165">
        <ele>196.2</ele>
        <time>2017-01-22T09:46:30.000Z</time>
      </trkpt>
      <trkpt lat="44.50483" lon="0.66165">
        <ele>196.2</ele>
        <time>2017-01-22T09:46:31.000Z</time>
      </trkpt>
      <trkpt lat="44.50483" lon="0.66165">
        <ele>196.2</ele>
        <time>2017-01-22T09:46:32.000Z</time>
      </trkpt>
      <trkpt lat="44.50483" lon="0.66165">
        <ele>196.2</ele>
        <time>2017-01-22T09:46:33.000Z</time>
      </trkpt>
      <trkpt lat="44.50483" lon="0.66165">
        <ele>196.2</ele>
        <time>2017-01-22T09:46:34.000Z</time>
      </trkpt>
      <trkpt lat="44.50483" lon="0.66165">
        <ele>196.2</ele>
        <time>2017-01-22T09:46:35.000Z</time>
      </trkpt>
      <trkpt lat="44.50483" lon="0.66165">
        <ele>196.2</ele>
        <time>2017-01-22T09:46:36.000Z</time>
      </trkpt>
      <trkpt lat="44.50483" lon="0.66165">
        <ele>196.2</ele>
        <time>2017-01-22T09:46:37.000Z</time>
      </trkpt>
      <trkpt lat="44.50483" lon="0.66165">
        <ele>196.2</ele>
        <time>2017-01-22T09:46:38.000Z</time>
      </trkpt>
      <trkpt lat="44.50483" lon="0.66165">
        <ele>196.2</ele>
        <time>2017-01-22T09:46:39.000Z</time>
      </trkpt>
      <trkpt lat="44.50483" lon="0.66165">
        <ele>196.2</ele>
        <time>2017-01-22T09:46:40.000Z</time>
      </trkpt>
      <trkpt lat="44.50483" lon="0.66165">
        <ele>196.2</ele>
        <time>2017-01-22T09:46:41.000Z</time>
      </trkpt>
      <trkpt lat="44.50483" lon="0.66165">
        <ele>196.2</ele>
        <time>2017-01-22T09:46:42.000Z</time>
      </trkpt>
      <trkpt lat="44.50483" lon="0.66165">
        <ele>196.2</ele>
        <time>2017-01-22T09:46:43.000Z</time>
      </trkpt>
      <trkpt lat="44.50483" lon="0.66165">
        <ele>196.2</ele>
        <time>2017-01-22T09:46:44.000Z</time>
      </trkpt>
      <trkpt lat="44.50483" lon="0.66165">
        <ele>196.2</ele>
        <time>2017-01-22T09:46:45.000Z</time>
      </trkpt>
      <trkpt lat="44.50483" lon="0.66165">
        <ele>196.2</ele>
        <time>2017-01-22T09:46:46.000Z</time>
      </trkpt>
      <trkpt lat="44.50483" lon="0.66165">
        <ele>196.2</ele>
        <time>2017-01-22T09:46:47.000Z</time>
      </trkpt>
      <trkpt lat="44.50483" lon="0.66165">
        <ele>196.2</ele>
        <time>2017-01-22T09:46:48.000Z</time>
      </trkpt>
      <trkpt lat="44.50483" lon="0.66165">
        <ele>196.2</ele>
        <time>2017-01-22T09:46:49.000Z</time>
      </trkpt>
      <trkpt lat="44.50483" lon="0.66165">
        <ele>196.2</ele>
        <time>2017-01-22T09:46:50.000Z</time>
      </trkpt>
      <trkpt lat="44.50483" lon="0.66165">
        <ele>196.2</ele>
        <time>2017-01-22T09:46:51.000Z</time>
      </trkpt>
      <trkpt lat="44.50483" lon="0.66165">
        <ele>196.2</ele>
        <time>2017-01-22T09:46:52.000Z</time>
      </trkpt>
      <trkpt lat="44.50483" lon="0.66165">
        <ele>196.2</ele>
        <time>2017-01-22T09:46:53.000Z</time>
      </trkpt>
      <trkpt lat="44.50483" lon="0.66165">
        <ele>196.2</ele>
        <time>2017-01-22T09:46:54.000Z</time>
      </trkpt>
      <trkpt lat="44.50483" lon="0.66165">
        <ele>196.2</ele>
        <time>2017-01-22T09:46:55.000Z</time>
      </trkpt>
      <trkpt lat="44.50483" lon="0.66165">
        <ele>196.2</ele>
        <time>2017-01-22T09:46:56.000Z</time>
      </trkpt>
      <trkpt lat="44.50483" lon="0.66165">
        <ele>196.2</ele>
        <time>2017-01-22T09:46:57.000Z</time>
      </trkpt>
      <trkpt lat="44.50483" lon="0.66165">
        <ele>196.2</ele>
        <time>2017-01-22T09:46:58.000Z</time>
      </trkpt>
      <trkpt lat="44.50483" lon="0.66165">
        <ele>196.2</ele>
        <time>2017-01-22T09:46:59.000Z</time>
      </trkpt>
      <trkpt lat="44.50483" lon="0.66165">
        <ele>196.2</ele>
        <time>2017-01-22T09:47:00.000Z</time>
      </trkpt>
      <trkpt lat="44.50483" lon="0.66165">
        <ele>196.2</ele>
        <time>2017-01-22T09:47:01.000Z</time>
      </trkpt>
      <trkpt lat="44.50483" lon="0.66165">
        <ele>196.2</ele>
        <time>2017-01-22T09:47:02.000Z</time>
      </trkpt>
      <trkpt lat="44.50483" lon="0.66165">
        <ele>196.2</ele>
        <time>2017-01-22T09:47:03.000Z</time>
      </trkpt>
      <trkpt lat="44.50483" lon="0.66165">
        <ele>196.2</ele>
        <time>2017-01-22T09:47:04.000Z</time>
      </trkpt>
      <trkpt lat="44.50483" lon="0.66165">
        <ele>196.2</ele>
        <time>2017-01-22T09:47:05.000Z</time>
      </trkpt>
      <trkpt lat="44.50483" lon="0.66165">
        <ele>196.2</ele>
        <time>2017-01-22T09:47:06.000Z</time>
      </trkpt>
      <trkpt lat="44.50483" lon="0.66165">
        <ele>196.2</ele>
        <time>2017-01-22T09:47:07.000Z</time>
      </trkpt>
      <trkpt lat="44.50483" lon="0.66165">
        <ele>196.2</ele>
        <time>2017-01-22T09:47:08.000Z</time>
      </trkpt>
      <trkpt lat="44.50483" lon="0.66165">
        <ele>196.2</ele>
        <time>2017-01-22T09:47:09.000Z</time>
      </trkpt>
      <trkpt lat="44.50483" lon="0.66165">
        <ele>196.2</ele>
        <time>2017-01-22T09:47:10.000Z</time>
      </trkpt>
      <trkpt lat="44.50483" lon="0.66165">
        <ele>196.2</ele>
        <time>2017-01-22T09:47:11.000Z</time>
      </trkpt>
      <trkpt lat="44.50483" lon="0.66165">
        <ele>196.2</ele>
        <time>2017-01-22T09:47:12.000Z</time>
      </trkpt>
      <trkpt lat="44.50483" lon="0.66165">
        <ele>196.2</ele>
        <time>2017-01-22T09:47:13.000Z</time>
      </trkpt>
      <trkpt lat="44.50483" lon="0.66165">
        <ele>196.2</ele>
        <time>2017-01-22T09:47:14.000Z</time>
      </trkpt>
      <trkpt lat="44.50483" lon="0.66165">
        <ele>196.2</ele>
        <time>2017-01-22T09:47:15.000Z</time>
      </trkpt>
      <trkpt lat="44.50483" lon="0.66165">
        <ele>196.2</ele>
        <time>2017-01-22T09:47:16.000Z</time>
      </trkpt>
      <trkpt lat="44.50483" lon="0.66165">
        <ele>196.2</ele>
        <time>2017-01-22T09:47:17.000Z</time>
      </trkpt>
      <trkpt lat="44.50483" lon="0.66165">
        <ele>196.2</ele>
        <time>2017-01-22T09:47:18.000Z</time>
      </trkpt>
      <trkpt lat="44.50483" lon="0.66165">
        <ele>196.2</ele>
        <time>2017-01-22T09:47:19.000Z</time>
      </trkpt>
      <trkpt lat="44.50483" lon="0.66165">
        <ele>196.2</ele>
        <time>2017-01-22T09:47:20.000Z</time>
      </trkpt>
      <trkpt lat="44.50483" lon="0.66165">
        <ele>196.2</ele>
        <time>2017-01-22T09:47:21.000Z</time>
      </trkpt>
      <trkpt lat="44.50483" lon="0.66165">
        <ele>196.2</ele>
        <time>2017-01-22T09:47:22.000Z</time>
      </trkpt>
      <trkpt lat="44.50483" lon="0.66165">
        <ele>196.2</ele>
        <time>2017-01-22T09:47:23.000Z</time>
      </trkpt>
      <trkpt lat="44.50483" lon="0.66165">
        <ele>196.2</ele>
        <time>2017-01-22T09:47:24.000Z</time>
      </trkpt>
      <trkpt lat="44.50483" lon="0.66165">
        <ele>196.2</ele>
        <time>2017-01-22T09:47:25.000Z</time>
      </trkpt>
      <trkpt lat="44.50483" lon="0.66165">
        <ele>196.2</ele>
        <time>2017-01-22T09:47:26.000Z</time>
      </trkpt>
      <trkpt lat="44.50483" lon="0.66165">
        <ele>196.2</ele>
        <time>2017-01-22T09:47:27.000Z</time>
      </trkpt>
      <trkpt lat="44.50483" lon="0.66165">
        <ele>196.2</ele>
        <time>2017-01-22T09:47:28.000Z</time>
      </trkpt>
      <trkpt lat="44.50483" lon="0.66165">
        <ele>196.2</ele>
        <time>2017-01-22T09:47:29.000Z</time>
      </trkpt>
      <trkpt lat="44.50483" lon="0.66165">
        <ele>196.2</ele>
        <time>2017-01-22T09:47:30.000Z</time>
      </trkpt>
      <trkpt lat="44.50483" lon="0.66165">
        <ele>196.2</ele>
        <time>2017-01-22T09:47:31.000Z</time>
      </trkpt>
      <trkpt lat="44.50483" lon="0.66165">
        <ele>196.2</ele>
        <time>2017-01-22T09:47:32.000Z</time>
      </trkpt>
      <trkpt lat="44.50483" lon="0.66165">
        <ele>196.2</ele>
        <time>2017-01-22T09:47:33.000Z</time>
      </trkpt>
      <trkpt lat="44.50483" lon="0.66165">
        <ele>196.2</ele>
        <time>2017-01-22T09:47:34.000Z</time>
      </trkpt>
      <trkpt lat="44.50483" lon="0.66165">
        <ele>196.2</ele>
        <time>2017-01-22T09:47:35.000Z</time>
      </trkpt>
      <trkpt lat="44.50483" lon="0.66165">
        <ele>196.2</ele>
        <time>2017-01-22T09:47:36.000Z</time>
      </trkpt>
      <trkpt lat="44.50483" lon="0.66165">
        <ele>196.2</ele>
        <time>2017-01-22T09:47:37.000Z</time>
      </trkpt>
      <trkpt lat="44.50483" lon="0.66165">
        <ele>196.2</ele>
        <time>2017-01-22T09:47:38.000Z</time>
      </trkpt>
      <trkpt lat="44.50483" lon="0.66165">
        <ele>196.2</ele>
        <time>2017-01-22T09:47:39.000Z</time>
      </trkpt>
      <trkpt lat="44.50483" lon="0.66165">
        <ele>196.2</ele>
        <time>2017-01-22T09:47:40.000Z</time>
      </trkpt>
      <trkpt lat="44.50483" lon="0.66165">
        <ele>196.2</ele>
        <time>2017-01-22T09:47:41.000Z</time>
      </trkpt>
      <trkpt lat="44.50483" lon="0.66165">
        <ele>196.2</ele>
        <time>2017-01-22T09:47:42.000Z</time>
      </trkpt>
      <trkpt lat="44.50483" lon="0.66165">
        <ele>196.2</ele>
        <time>2017-01-22T09:47:43.000Z</time>
      </trkpt>
      <trkpt lat="44.50483" lon="0.66165">
        <ele>196.2</ele>
        <time>2017-01-22T09:47:44.000Z</time>
      </trkpt>
      <trkpt lat="44.50483" lon="0.66165">
        <ele>196.2</ele>
        <time>2017-01-22T09:47:45.000Z</time>
      </trkpt>
      <trkpt lat="44.50483" lon="0.66165">
        <ele>196.2</ele>
        <time>2017-01-22T09:47:46.000Z</time>
      </trkpt>
      <trkpt lat="44.50483" lon="0.66165">
        <ele>196.2</ele>
        <time>2017-01-22T09:47:47.000Z</time>
      </trkpt>
      <trkpt lat="44.50483" lon="0.66165">
        <ele>196.2</ele>
        <time>2017-01-22T09:47:48.000Z</time>
      </trkpt>
      <trkpt lat="44.50483" lon="0.66165">
        <ele>196.2</ele>
        <time>2017-01-22T09:47:49.000Z</time>
      </trkpt>
      <trkpt lat="44.50483" lon="0.66165">
        <ele>196.2</ele>
        <time>2017-01-22T09:47:50.000Z</time>
      </trkpt>
      <trkpt lat="44.50483" lon="0.66165">
        <ele>196.2</ele>
        <time>2017-01-22T09:47:51.000Z</time>
      </trkpt>
      <trkpt lat="44.50483" lon="0.66165">
        <ele>196.2</ele>
        <time>2017-01-22T09:47:52.000Z</time>
      </trkpt>
      <trkpt lat="44.50483" lon="0.66165">
        <ele>196.2</ele>
        <time>2017-01-22T09:47:53.000Z</time>
      </trkpt>
      <trkpt lat="44.50483" lon="0.66165">
        <ele>196.2</ele>
        <time>2017-01-22T09:47:54.000Z</time>
      </trkpt>
      <trkpt lat="44.50483" lon="0.66165">
        <ele>196.2</ele>
        <time>2017-01-22T09:47:55.000Z</time>
      </trkpt>
      <trkpt lat="44.50483" lon="0.66165">
        <ele>196.2</ele>
        <time>2017-01-22T09:47:56.000Z</time>
      </trkpt>
      <trkpt lat="44.50483" lon="0.66165">
        <ele>196.2</ele>
        <time>2017-01-22T09:47:57.000Z</time>
      </trkpt>
      <trkpt lat="44.50483" lon="0.66165">
        <ele>196.2</ele>
        <time>2017-01-22T09:47:58.000Z</time>
      </trkpt>
      <trkpt lat="44.50483" lon="0.66165">
        <ele>196.2</ele>
        <time>2017-01-22T09:47:59.000Z</time>
      </trkpt>
      <trkpt lat="44.50483" lon="0.66165">
        <ele>196.2</ele>
        <time>2017-01-22T09:48:00.000Z</time>
      </trkpt>
      <trkpt lat="44.50483" lon="0.66165">
        <ele>196.2</ele>
        <time>2017-01-22T09:48:01.000Z</time>
      </trkpt>
      <trkpt lat="44.50483" lon="0.66165">
        <ele>196.2</ele>
        <time>2017-01-22T09:48:02.000Z</time>
      </trkpt>
      <trkpt lat="44.50483" lon="0.66165">
        <ele>196.2</ele>
        <time>2017-01-22T09:48:03.000Z</time>
      </trkpt>
      <trkpt lat="44.50483" lon="0.66165">
        <ele>196.2</ele>
        <time>2017-01-22T09:48:04.000Z</time>
      </trkpt>
      <trkpt lat="44.50483" lon="0.66165">
        <ele>196.2</ele>
        <time>2017-01-22T09:48:05.000Z</time>
      </trkpt>
      <trkpt lat="44.50483" lon="0.66165">
        <ele>196.2</ele>
        <time>2017-01-22T09:48:06.000Z</time>
      </trkpt>
      <trkpt lat="44.50483" lon="0.66165">
        <ele>196.2</ele>
        <time>2017-01-22T09:48:07.000Z</time>
      </trkpt>
      <trkpt lat="44.50483" lon="0.66165">
        <ele>196.2</ele>
        <time>2017-01-22T09:48:08.000Z</time>
      </trkpt>
      <trkpt lat="44.50483" lon="0.66165">
        <ele>196.2</ele>
        <time>2017-01-22T09:48:09.000Z</time>
      </trkpt>
      <trkpt lat="44.50483" lon="0.66165">
        <ele>196.2</ele>
        <time>2017-01-22T09:48:10.000Z</time>
      </trkpt>
      <trkpt lat="44.50483" lon="0.66165">
        <ele>196.2</ele>
        <time>2017-01-22T09:48:11.000Z</time>
      </trkpt>
      <trkpt lat="44.50483" lon="0.66165">
        <ele>196.2</ele>
        <time>2017-01-22T09:48:12.000Z</time>
      </trkpt>
      <trkpt lat="44.50483" lon="0.66165">
        <ele>196.2</ele>
        <time>2017-01-22T09:48:13.000Z</time>
      </trkpt>
      <trkpt lat="44.50483" lon="0.66165">
        <ele>196.2</ele>
        <time>2017-01-22T09:48:14.000Z</time>
      </trkpt>
      <trkpt lat="44.50483" lon="0.66165">
        <ele>196.2</ele>
        <time>2017-01-22T09:48:15.000Z</time>
      </trkpt>
      <trkpt lat="44.50483" lon="0.66165">
        <ele>196.2</ele>
        <time>2017-01-22T09:48:16.000Z</time>
      </trkpt>
      <trkpt lat="44.50483" lon="0.66165">
        <ele>196.2</ele>
        <time>2017-01-22T09:48:17.000Z</time>
      </trkpt>
      <trkpt lat="44.50483" lon="0.66165">
        <ele>196.2</ele>
        <time>2017-01-22T09:48:18.000Z</time>
      </trkpt>
      <trkpt lat="44.50483" lon="0.66165">
        <ele>196.2</ele>
        <time>2017-01-22T09:48:19.000Z</time>
      </trkpt>
      <trkpt lat="44.50483" lon="0.66165">
        <ele>196.2</ele>
        <time>2017-01-22T09:48:20.000Z</time>
      </trkpt>
      <trkpt lat="44.50483" lon="0.66165">
        <ele>196.2</ele>
        <time>2017-01-22T09:48:21.000Z</time>
      </trkpt>
      <trkpt lat="44.50483" lon="0.66165">
        <ele>196.2</ele>
        <time>2017-01-22T09:48:22.000Z</time>
      </trkpt>
      <trkpt lat="44.50483" lon="0.66165">
        <ele>196.2</ele>
        <time>2017-01-22T09:48:23.000Z</time>
      </trkpt>
      <trkpt lat="44.50483" lon="0.66165">
        <ele>196.2</ele>
        <time>2017-01-22T09:48:24.000Z</time>
      </trkpt>
      <trkpt lat="44.50483" lon="0.66165">
        <ele>196.2</ele>
        <time>2017-01-22T09:48:25.000Z</time>
      </trkpt>
      <trkpt lat="44.50483" lon="0.66165">
        <ele>196.2</ele>
        <time>2017-01-22T09:48:26.000Z</time>
      </trkpt>
      <trkpt lat="44.50483" lon="0.66165">
        <ele>196.2</ele>
        <time>2017-01-22T09:48:27.000Z</time>
      </trkpt>
      <trkpt lat="44.50483" lon="0.66165">
        <ele>196.2</ele>
        <time>2017-01-22T09:48:28.000Z</time>
      </trkpt>
      <trkpt lat="44.50483" lon="0.66165">
        <ele>196.2</ele>
        <time>2017-01-22T09:48:29.000Z</time>
      </trkpt>
      <trkpt lat="44.50483" lon="0.66165">
        <ele>196.2</ele>
        <time>2017-01-22T09:48:30.000Z</time>
      </trkpt>
      <trkpt lat="44.50483" lon="0.66165">
        <ele>196.2</ele>
        <time>2017-01-22T09:48:31.000Z</time>
      </trkpt>
      <trkpt lat="44.50483" lon="0.66165">
        <ele>196.2</ele>
        <time>2017-01-22T09:48:32.000Z</time>
      </trkpt>
      <trkpt lat="44.50483" lon="0.66165">
        <ele>196.2</ele>
        <time>2017-01-22T09:48:33.000Z</time>
      </trkpt>
      <trkpt lat="44.50483" lon="0.66165">
        <ele>196.2</ele>
        <time>2017-01-22T09:48:34.000Z</time>
      </trkpt>
      <trkpt lat="44.50483" lon="0.66165">
        <ele>196.2</ele>
        <time>2017-01-22T09:48:35.000Z</time>
      </trkpt>
      <trkpt lat="44.50483" lon="0.66165">
        <ele>196.2</ele>
        <time>2017-01-22T09:48:36.000Z</time>
      </trkpt>
      <trkpt lat="44.50483" lon="0.66165">
        <ele>196.2</ele>
        <time>2017-01-22T09:48:37.000Z</time>
      </trkpt>
      <trkpt lat="44.50483" lon="0.66165">
        <ele>196.2</ele>
        <time>2017-01-22T09:48:38.000Z</time>
      </trkpt>
      <trkpt lat="44.50483" lon="0.66165">
        <ele>196.2</ele>
        <time>2017-01-22T09:48:39.000Z</time>
      </trkpt>
      <trkpt lat="44.50483" lon="0.66165">
        <ele>196.2</ele>
        <time>2017-01-22T09:48:40.000Z</time>
      </trkpt>
      <trkpt lat="44.50483" lon="0.66165">
        <ele>196.2</ele>
        <time>2017-01-22T09:48:41.000Z</time>
      </trkpt>
      <trkpt lat="44.50483" lon="0.66165">
        <ele>196.3</ele>
        <time>2017-01-22T09:48:42.000Z</time>
      </trkpt>
      <trkpt lat="44.50484" lon="0.66165">
        <ele>196.3</ele>
        <time>2017-01-22T09:48:43.000Z</time>
      </trkpt>
      <trkpt lat="44.50484" lon="0.66165">
        <ele>196.4</ele>
        <time>2017-01-22T09:48:44.000Z</time>
      </trkpt>
      <trkpt lat="44.50485" lon="0.66164">
        <ele>196.4</ele>
        <time>2017-01-22T09:48:45.000Z</time>
      </trkpt>
      <trkpt lat="44.50485" lon="0.66164">
        <ele>196.5</ele>
        <time>2017-01-22T09:48:46.000Z</time>
      </trkpt>
      <trkpt lat="44.50486" lon="0.66162">
        <ele>196.5</ele>
        <time>2017-01-22T09:48:47.000Z</time>
      </trkpt>
      <trkpt lat="44.50486" lon="0.66159">
        <ele>196.4</ele>
        <time>2017-01-22T09:48:48.000Z</time>
      </trkpt>
      <trkpt lat="44.50487" lon="0.66156">
        <ele>196.2</ele>
        <time>2017-01-22T09:48:49.000Z</time>
      </trkpt>
      <trkpt lat="44.50488" lon="0.66153">
        <ele>196.1</ele>
        <time>2017-01-22T09:48:50.000Z</time>
      </trkpt>
      <trkpt lat="44.50489" lon="0.66148">
        <ele>195.9</ele>
        <time>2017-01-22T09:48:51.000Z</time>
      </trkpt>
      <trkpt lat="44.5049" lon="0.66144">
        <ele>195.7</ele>
        <time>2017-01-22T09:48:52.000Z</time>
      </trkpt>
      <trkpt lat="44.50491" lon="0.66138">
        <ele>195.5</ele>
        <time>2017-01-22T09:48:53.000Z</time>
      </trkpt>
      <trkpt lat="44.50492" lon="0.66133">
        <ele>195.2</ele>
        <time>2017-01-22T09:48:54.000Z</time>
      </trkpt>
      <trkpt lat="44.50493" lon="0.66127">
        <ele>194.8</ele>
        <time>2017-01-22T09:48:55.000Z</time>
      </trkpt>
      <trkpt lat="44.50494" lon="0.6612">
        <ele>194.4</ele>
        <time>2017-01-22T09:48:56.000Z</time>
      </trkpt>
      <trkpt lat="44.50495" lon="0.66113">
        <ele>193.9</ele>
        <time>2017-01-22T09:48:57.000Z</time>
      </trkpt>
      <trkpt lat="44.50496" lon="0.66106">
        <ele>193.4</ele>
        <time>2017-01-22T09:48:58.000Z</time>
      </trkpt>
      <trkpt lat="44.50497" lon="0.66098">
        <ele>192.8</ele>
        <time>2017-01-22T09:48:59.000Z</time>
      </trkpt>
      <trkpt lat="44.50498" lon="0.6609">
        <ele>192.2</ele>
        <time>2017-01-22T09:49:00.000Z</time>
      </trkpt>
      <trkpt lat="44.50499" lon="0.66082">
        <ele>191.6</ele>
        <time>2017-01-22T09:49:01.000Z</time>
      </trkpt>
      <trkpt lat="44.505" lon="0.66075">
        <ele>190.9</ele>
        <time>2017-01-22T09:49:02.000Z</time>
      </trkpt>
      <trkpt lat="44.50501" lon="0.66068">
        <ele>190.3</ele>
        <time>2017-01-22T09:49:03.000Z</time>
      </trkpt>
      <trkpt lat="44.50502" lon="0.66061">
        <ele>189.6</ele>
        <time>2017-01-22T09:49:04.000Z</time>
      </trkpt>
      <trkpt lat="44.50503" lon="0.66053">
        <ele>189</ele>
        <time>2017-01-22T09:49:05.000Z</time>
      </trkpt>
      <trkpt lat="44.50503" lon="0.66047">
        <ele>188.4</ele>
        <time>2017-01-22T09:49:06.000Z</time>
      </trkpt>
      <trkpt lat="44.50504" lon="0.66042">
        <ele>187.9</ele>
        <time>2017-01-22T09:49:07.000Z</time>
      </trkpt>
      <trkpt lat="44.50505" lon="0.66039">
        <ele>187.7</ele>
        <time>2017-01-22T09:49:08.000Z</time>
      </trkpt>
      <trkpt lat="44.50506" lon="0.66037">
        <ele>187.7</ele>
        <time>2017-01-22T09:49:09.000Z</time>
      </trkpt>
      <trkpt lat="44.50507" lon="0.66036">
        <ele>187.9</ele>
        <time>2017-01-22T09:49:10.000Z</time>
      </trkpt>
      <trkpt lat="44.50508" lon="0.66037">
        <ele>188.3</ele>
        <time>2017-01-22T09:49:11.000Z</time>
      </trkpt>
      <trkpt lat="44.5051" lon="0.66037">
        <ele>188.6</ele>
        <time>2017-01-22T09:49:12.000Z</time>
      </trkpt>
      <trkpt lat="44.50511" lon="0.66038">
        <ele>189.1</ele>
        <time>2017-01-22T09:49:13.000Z</time>
      </trkpt>
      <trkpt lat="44.50513" lon="0.66038">
        <ele>189.5</ele>
        <time>2017-01-22T09:49:14.000Z</time>
      </trkpt>
      <trkpt lat="44.50515" lon="0.66039">
        <ele>190</ele>
        <time>2017-01-22T09:49:15.000Z</time>
      </trkpt>
      <trkpt lat="44.50518" lon="0.66038">
        <ele>190.6</ele>
        <time>2017-01-22T09:49:16.000Z</time>
      </trkpt>
      <trkpt lat="44.50521" lon="0.66037">
        <ele>191.1</ele>
        <time>2017-01-22T09:49:17.000Z</time>
      </trkpt>
      <trkpt lat="44.50524" lon="0.66035">
        <ele>191.7</ele>
        <time>2017-01-22T09:49:18.000Z</time>
      </trkpt>
      <trkpt lat="44.50527" lon="0.66033">
        <ele>192.1</ele>
        <time>2017-01-22T09:49:19.000Z</time>
      </trkpt>
      <trkpt lat="44.5053" lon="0.6603">
        <ele>192.5</ele>
        <time>2017-01-22T09:49:20.000Z</time>
      </trkpt>
      <trkpt lat="44.50533" lon="0.66027">
        <ele>192.7</ele>
        <time>2017-01-22T09:49:21.000Z</time>
      </trkpt>
      <trkpt lat="44.50536" lon="0.66023">
        <ele>192.8</ele>
        <time>2017-01-22T09:49:22.000Z</time>
      </trkpt>
      <trkpt lat="44.50538" lon="0.66019">
        <ele>192.9</ele>
        <time>2017-01-22T09:49:23.000Z</time>
      </trkpt>
      <trkpt lat="44.50541" lon="0.66015">
        <ele>193</ele>
        <time>2017-01-22T09:49:24.000Z</time>
      </trkpt>
      <trkpt lat="44.50543" lon="0.66011">
        <ele>193.2</ele>
        <time>2017-01-22T09:49:25.000Z</time>
      </trkpt>
      <trkpt lat="44.50546" lon="0.66007">
        <ele>193.4</ele>
        <time>2017-01-22T09:49:26.000Z</time>
      </trkpt>
      <trkpt lat="44.50549" lon="0.66004">
        <ele>193.6</ele>
        <time>2017-01-22T09:49:27.000Z</time>
      </trkpt>
      <trkpt lat="44.50552" lon="0.66">
        <ele>193.9</ele>
        <time>2017-01-22T09:49:28.000Z</time>
      </trkpt>
      <trkpt lat="44.50555" lon="0.65997">
        <ele>194.1</ele>
        <time>2017-01-22T09:49:29.000Z</time>
      </trkpt>
      <trkpt lat="44.50558" lon="0.65993">
        <ele>194.3</ele>
        <time>2017-01-22T09:49:30.000Z</time>
      </trkpt>
      <trkpt lat="44.50561" lon="0.65989">
        <ele>194.5</ele>
        <time>2017-01-22T09:49:31.000Z</time>
      </trkpt>
      <trkpt lat="44.50564" lon="0.65985">
        <ele>194.6</ele>
        <time>2017-01-22T09:49:32.000Z</time>
      </trkpt>
      <trkpt lat="44.50567" lon="0.65981">
        <ele>194.7</ele>
        <time>2017-01-22T09:49:33.000Z</time>
      </trkpt>
      <trkpt lat="44.50569" lon="0.65976">
        <ele>194.8</ele>
        <time>2017-01-22T09:49:34.000Z</time>
      </trkpt>
      <trkpt lat="44.50572" lon="0.65972">
        <ele>194.7</ele>
        <time>2017-01-22T09:49:35.000Z</time>
      </trkpt>
      <trkpt lat="44.50575" lon="0.65967">
        <ele>194.7</ele>
        <time>2017-01-22T09:49:36.000Z</time>
      </trkpt>
      <trkpt lat="44.50577" lon="0.65962">
        <ele>194.6</ele>
        <time>2017-01-22T09:49:37.000Z</time>
      </trkpt>
      <trkpt lat="44.5058" lon="0.65957">
        <ele>194.5</ele>
        <time>2017-01-22T09:49:38.000Z</time>
      </trkpt>
      <trkpt lat="44.50582" lon="0.65952">
        <ele>194.4</ele>
        <time>2017-01-22T09:49:39.000Z</time>
      </trkpt>
      <trkpt lat="44.50584" lon="0.65947">
        <ele>194.2</ele>
        <time>2017-01-22T09:49:40.000Z</time>
      </trkpt>
      <trkpt lat="44.50586" lon="0.65942">
        <ele>193.9</ele>
        <time>2017-01-22T09:49:41.000Z</time>
      </trkpt>
      <trkpt lat="44.50588" lon="0.65938">
        <ele>193.6</ele>
        <time>2017-01-22T09:49:42.000Z</time>
      </trkpt>
      <trkpt lat="44.5059" lon="0.65933">
        <ele>193.5</ele>
        <time>2017-01-22T09:49:43.000Z</time>
      </trkpt>
      <trkpt lat="44.50592" lon="0.65929">
        <ele>193.3</ele>
        <time>2017-01-22T09:49:44.000Z</time>
      </trkpt>
      <trkpt lat="44.50594" lon="0.65926">
        <ele>193.2</ele>
        <time>2017-01-22T09:49:45.000Z</time>
      </trkpt>
      <trkpt lat="44.50596" lon="0.65923">
        <ele>193.2</ele>
        <time>2017-01-22T09:49:46.000Z</time>
      </trkpt>
      <trkpt lat="44.50598" lon="0.65921">
        <ele>193.4</ele>
        <time>2017-01-22T09:49:47.000Z</time>
      </trkpt>
      <trkpt lat="44.506" lon="0.65919">
        <ele>193.5</ele>
        <time>2017-01-22T09:49:48.000Z</time>
      </trkpt>
      <trkpt lat="44.50602" lon="0.65917">
        <ele>193.7</ele>
        <time>2017-01-22T09:49:49.000Z</time>
      </trkpt>
      <trkpt lat="44.50604" lon="0.65915">
        <ele>193.8</ele>
        <time>2017-01-22T09:49:50.000Z</time>
      </trkpt>
      <trkpt lat="44.50606" lon="0.65912">
        <ele>193.7</ele>
        <time>2017-01-22T09:49:51.000Z</time>
      </trkpt>
      <trkpt lat="44.50607" lon="0.65909">
        <ele>193.5</ele>
        <time>2017-01-22T09:49:52.000Z</time>
      </trkpt>
      <trkpt lat="44.50608" lon="0.65905">
        <ele>193.3</ele>
        <time>2017-01-22T09:49:53.000Z</time>
      </trkpt>
      <trkpt lat="44.50609" lon="0.65901">
        <ele>193</ele>
        <time>2017-01-22T09:49:54.000Z</time>
      </trkpt>
      <trkpt lat="44.5061" lon="0.65896">
        <ele>192.7</ele>
        <time>2017-01-22T09:49:55.000Z</time>
      </trkpt>
      <trkpt lat="44.50612" lon="0.65892">
        <ele>192.4</ele>
        <time>2017-01-22T09:49:56.000Z</time>
      </trkpt>
      <trkpt lat="44.50613" lon="0.65888">
        <ele>192.1</ele>
        <time>2017-01-22T09:49:57.000Z</time>
      </trkpt>
      <trkpt lat="44.50614" lon="0.65884">
        <ele>191.9</ele>
        <time>2017-01-22T09:49:58.000Z</time>
      </trkpt>
      <trkpt lat="44.50616" lon="0.6588">
        <ele>191.7</ele>
        <time>2017-01-22T09:49:59.000Z</time>
      </trkpt>
      <trkpt lat="44.50617" lon="0.65876">
        <ele>191.5</ele>
        <time>2017-01-22T09:50:00.000Z</time>
      </trkpt>
      <trkpt lat="44.50619" lon="0.65872">
        <ele>191.4</ele>
        <time>2017-01-22T09:50:01.000Z</time>
      </trkpt>
      <trkpt lat="44.5062" lon="0.65868">
        <ele>191.1</ele>
        <time>2017-01-22T09:50:02.000Z</time>
      </trkpt>
      <trkpt lat="44.50621" lon="0.65864">
        <ele>190.8</ele>
        <time>2017-01-22T09:50:03.000Z</time>
      </trkpt>
      <trkpt lat="44.50621" lon="0.65859">
        <ele>190.3</ele>
        <time>2017-01-22T09:50:04.000Z</time>
      </trkpt>
      <trkpt lat="44.50622" lon="0.65853">
        <ele>189.6</ele>
        <time>2017-01-22T09:50:05.000Z</time>
      </trkpt>
      <trkpt lat="44.50622" lon="0.65847">
        <ele>189</ele>
        <time>2017-01-22T09:50:06.000Z</time>
      </trkpt>
      <trkpt lat="44.50624" lon="0.65841">
        <ele>188.7</ele>
        <time>2017-01-22T09:50:07.000Z</time>
      </trkpt>
      <trkpt lat="44.50626" lon="0.65837">
        <ele>188.6</ele>
        <time>2017-01-22T09:50:08.000Z</time>
      </trkpt>
      <trkpt lat="44.50628" lon="0.65833">
        <ele>188.6</ele>
        <time>2017-01-22T09:50:09.000Z</time>
      </trkpt>
      <trkpt lat="44.5063" lon="0.6583">
        <ele>188.5</ele>
        <time>2017-01-22T09:50:10.000Z</time>
      </trkpt>
      <trkpt lat="44.50632" lon="0.65827">
        <ele>188.5</ele>
        <time>2017-01-22T09:50:11.000Z</time>
      </trkpt>
      <trkpt lat="44.50634" lon="0.65825">
        <ele>188.5</ele>
        <time>2017-01-22T09:50:12.000Z</time>
      </trkpt>
      <trkpt lat="44.50636" lon="0.65823">
        <ele>188.6</ele>
        <time>2017-01-22T09:50:13.000Z</time>
      </trkpt>
      <trkpt lat="44.50638" lon="0.6582">
        <ele>188.6</ele>
        <time>2017-01-22T09:50:14.000Z</time>
      </trkpt>
      <trkpt lat="44.5064" lon="0.65818">
        <ele>188.7</ele>
        <time>2017-01-22T09:50:15.000Z</time>
      </trkpt>
      <trkpt lat="44.50642" lon="0.65816">
        <ele>188.8</ele>
        <time>2017-01-22T09:50:16.000Z</time>
      </trkpt>
      <trkpt lat="44.50644" lon="0.65814">
        <ele>188.9</ele>
        <time>2017-01-22T09:50:17.000Z</time>
      </trkpt>
      <trkpt lat="44.50647" lon="0.65812">
        <ele>189</ele>
        <time>2017-01-22T09:50:18.000Z</time>
      </trkpt>
      <trkpt lat="44.50649" lon="0.65811">
        <ele>189.2</ele>
        <time>2017-01-22T09:50:19.000Z</time>
      </trkpt>
      <trkpt lat="44.50651" lon="0.65809">
        <ele>189.3</ele>
        <time>2017-01-22T09:50:20.000Z</time>
      </trkpt>
      <trkpt lat="44.50653" lon="0.65808">
        <ele>189.5</ele>
        <time>2017-01-22T09:50:21.000Z</time>
      </trkpt>
      <trkpt lat="44.50655" lon="0.65807">
        <ele>189.7</ele>
        <time>2017-01-22T09:50:22.000Z</time>
      </trkpt>
      <trkpt lat="44.50656" lon="0.65807">
        <ele>190</ele>
        <time>2017-01-22T09:50:23.000Z</time>
      </trkpt>
      <trkpt lat="44.50658" lon="0.65807">
        <ele>190.3</ele>
        <time>2017-01-22T09:50:24.000Z</time>
      </trkpt>
      <trkpt lat="44.50659" lon="0.65807">
        <ele>190.6</ele>
        <time>2017-01-22T09:50:25.000Z</time>
      </trkpt>
      <trkpt lat="44.50661" lon="0.65808">
        <ele>190.9</ele>
        <time>2017-01-22T09:50:26.000Z</time>
      </trkpt>
      <trkpt lat="44.50662" lon="0.65808">
        <ele>191.2</ele>
        <time>2017-01-22T09:50:27.000Z</time>
      </trkpt>
      <trkpt lat="44.50664" lon="0.65808">
        <ele>191.6</ele>
        <time>2017-01-22T09:50:28.000Z</time>
      </trkpt>
      <trkpt lat="44.50665" lon="0.65808">
        <ele>191.9</ele>
        <time>2017-01-22T09:50:29.000Z</time>
      </trkpt>
      <trkpt lat="44.50666" lon="0.65808">
        <ele>192.1</ele>
        <time>2017-01-22T09:50:30.000Z</time>
      </trkpt>
      <trkpt lat="44.50668" lon="0.65809">
        <ele>192.3</ele>
        <time>2017-01-22T09:50:31.000Z</time>
      </trkpt>
      <trkpt lat="44.50669" lon="0.65809">
        <ele>192.5</ele>
        <time>2017-01-22T09:50:32.000Z</time>
      </trkpt>
      <trkpt lat="44.5067" lon="0.65809">
        <ele>192.7</ele>
        <time>2017-01-22T09:50:33.000Z</time>
      </trkpt>
      <trkpt lat="44.50672" lon="0.65809">
        <ele>192.8</ele>
        <time>2017-01-22T09:50:34.000Z</time>
      </trkpt>
      <trkpt lat="44.50673" lon="0.65809">
        <ele>193</ele>
        <time>2017-01-22T09:50:35.000Z</time>
      </trkpt>
      <trkpt lat="44.50674" lon="0.65809">
        <ele>193.1</ele>
        <time>2017-01-22T09:50:36.000Z</time>
      </trkpt>
      <trkpt lat="44.50676" lon="0.65809">
        <ele>193.3</ele>
        <time>2017-01-22T09:50:37.000Z</time>
      </trkpt>
      <trkpt lat="44.50677" lon="0.65809">
        <ele>193.4</ele>
        <time>2017-01-22T09:50:38.000Z</time>
      </trkpt>
      <trkpt lat="44.50678" lon="0.65809">
        <ele>193.6</ele>
        <time>2017-01-22T09:50:39.000Z</time>
      </trkpt>
      <trkpt lat="44.5068" lon="0.65809">
        <ele>193.8</ele>
        <time>2017-01-22T09:50:40.000Z</time>
      </trkpt>
      <trkpt lat="44.50681" lon="0.65809">
        <ele>193.9</ele>
        <time>2017-01-22T09:50:41.000Z</time>
      </trkpt>
      <trkpt lat="44.50682" lon="0.65809">
        <ele>194.1</ele>
        <time>2017-01-22T09:50:42.000Z</time>
      </trkpt>
      <trkpt lat="44.50684" lon="0.6581">
        <ele>194.2</ele>
        <time>2017-01-22T09:50:43.000Z</time>
      </trkpt>
      <trkpt lat="44.50685" lon="0.6581">
        <ele>194.4</ele>
        <time>2017-01-22T09:50:44.000Z</time>
      </trkpt>
      <trkpt lat="44.50687" lon="0.6581">
        <ele>194.6</ele>
        <time>2017-01-22T09:50:45.000Z</time>
      </trkpt>
      <trkpt lat="44.50688" lon="0.6581">
        <ele>194.7</ele>
        <time>2017-01-22T09:50:46.000Z</time>
      </trkpt>
      <trkpt lat="44.50689" lon="0.6581">
        <ele>194.9</ele>
        <time>2017-01-22T09:50:47.000Z</time>
      </trkpt>
      <trkpt lat="44.50691" lon="0.6581">
        <ele>195</ele>
        <time>2017-01-22T09:50:48.000Z</time>
      </trkpt>
      <trkpt lat="44.50692" lon="0.6581">
        <ele>195.2</ele>
        <time>2017-01-22T09:50:49.000Z</time>
      </trkpt>
      <trkpt lat="44.50693" lon="0.6581">
        <ele>195.4</ele>
        <time>2017-01-22T09:50:50.000Z</time>
      </trkpt>
      <trkpt lat="44.50695" lon="0.6581">
        <ele>195.5</ele>
        <time>2017-01-22T09:50:51.000Z</time>
      </trkpt>
      <trkpt lat="44.50696" lon="0.6581">
        <ele>195.7</ele>
        <time>2017-01-22T09:50:52.000Z</time>
      </trkpt>
      <trkpt lat="44.50697" lon="0.6581">
        <ele>195.8</ele>
        <time>2017-01-22T09:50:53.000Z</time>
      </trkpt>
      <trkpt lat="44.50699" lon="0.6581">
        <ele>196</ele>
        <time>2017-01-22T09:50:54.000Z</time>
      </trkpt>
      <trkpt lat="44.507" lon="0.6581">
        <ele>196.1</ele>
        <time>2017-01-22T09:50:55.000Z</time>
      </trkpt>
      <trkpt lat="44.50702" lon="0.6581">
        <ele>196.3</ele>
        <time>2017-01-22T09:50:56.000Z</time>
      </trkpt>
      <trkpt lat="44.50703" lon="0.65811">
        <ele>196.5</ele>
        <time>2017-01-22T09:50:57.000Z</time>
      </trkpt>
      <trkpt lat="44.50704" lon="0.65811">
        <ele>196.6</ele>
        <time>2017-01-22T09:50:58.000Z</time>
      </trkpt>
      <trkpt lat="44.50706" lon="0.65811">
        <ele>196.7</ele>
        <time>2017-01-22T09:50:59.000Z</time>
      </trkpt>
      <trkpt lat="44.50707" lon="0.65811">
        <ele>196.9</ele>
        <time>2017-01-22T09:51:00.000Z</time>
      </trkpt>
      <trkpt lat="44.50708" lon="0.6581">
        <ele>197</ele>
        <time>2017-01-22T09:51:01.000Z</time>
      </trkpt>
      <trkpt lat="44.5071" lon="0.6581">
        <ele>197.1</ele>
        <time>2017-01-22T09:51:02.000Z</time>
      </trkpt>
      <trkpt lat="44.50711" lon="0.6581">
        <ele>197.3</ele>
        <time>2017-01-22T09:51:03.000Z</time>
      </trkpt>
      <trkpt lat="44.50712" lon="0.6581">
        <ele>197.4</ele>
        <time>2017-01-22T09:51:04.000Z</time>
      </trkpt>
      <trkpt lat="44.50714" lon="0.6581">
        <ele>197.5</ele>
        <time>2017-01-22T09:51:05.000Z</time>
      </trkpt>
      <trkpt lat="44.50715" lon="0.6581">
        <ele>197.6</ele>
        <time>2017-01-22T09:51:06.000Z</time>
      </trkpt>
      <trkpt lat="44.50716" lon="0.6581">
        <ele>197.7</ele>
        <time>2017-01-22T09:51:07.000Z</time>
      </trkpt>
      <trkpt lat="44.50717" lon="0.6581">
        <ele>197.8</ele>
        <time>2017-01-22T09:51:08.000Z</time>
      </trkpt>
      <trkpt lat="44.50719" lon="0.65809">
        <ele>197.9</ele>
        <time>2017-01-22T09:51:09.000Z</time>
      </trkpt>
      <trkpt lat="44.5072" lon="0.65809">
        <ele>198</ele>
        <time>2017-01-22T09:51:10.000Z</time>
      </trkpt>
      <trkpt lat="44.50721" lon="0.65809">
        <ele>198.1</ele>
        <time>2017-01-22T09:51:11.000Z</time>
      </trkpt>
      <trkpt lat="44.50722" lon="0.65809">
        <ele>198.2</ele>
        <time>2017-01-22T09:51:12.000Z</time>
      </trkpt>
      <trkpt lat="44.50724" lon="0.65808">
        <ele>198.3</ele>
        <time>2017-01-22T09:51:13.000Z</time>
      </trkpt>
      <trkpt lat="44.50725" lon="0.65808">
        <ele>198.4</ele>
        <time>2017-01-22T09:51:14.000Z</time>
      </trkpt>
      <trkpt lat="44.50726" lon="0.65808">
        <ele>198.5</ele>
        <time>2017-01-22T09:51:15.000Z</time>
      </trkpt>
      <trkpt lat="44.50727" lon="0.65808">
        <ele>198.5</ele>
        <time>2017-01-22T09:51:16.000Z</time>
      </trkpt>
      <trkpt lat="44.50729" lon="0.65807">
        <ele>198.6</ele>
        <time>2017-01-22T09:51:17.000Z</time>
      </trkpt>
      <trkpt lat="44.5073" lon="0.65807">
        <ele>198.7</ele>
        <time>2017-01-22T09:51:18.000Z</time>
      </trkpt>
      <trkpt lat="44.50731" lon="0.65807">
        <ele>198.8</ele>
        <time>2017-01-22T09:51:19.000Z</time>
      </trkpt>
      <trkpt lat="44.50733" lon="0.65807">
        <ele>198.9</ele>
        <time>2017-01-22T09:51:20.000Z</time>
      </trkpt>
      <trkpt lat="44.50734" lon="0.65806">
        <ele>199</ele>
        <time>2017-01-22T09:51:21.000Z</time>
      </trkpt>
      <trkpt lat="44.50735" lon="0.65806">
        <ele>199.2</ele>
        <time>2017-01-22T09:51:22.000Z</time>
      </trkpt>
      <trkpt lat="44.50737" lon="0.65806">
        <ele>199.3</ele>
        <time>2017-01-22T09:51:23.000Z</time>
      </trkpt>
      <trkpt lat="44.50738" lon="0.65806">
        <ele>199.4</ele>
        <time>2017-01-22T09:51:24.000Z</time>
      </trkpt>
      <trkpt lat="44.50739" lon="0.65806">
        <ele>199.5</ele>
        <time>2017-01-22T09:51:25.000Z</time>
      </trkpt>
      <trkpt lat="44.50741" lon="0.65805">
        <ele>199.6</ele>
        <time>2017-01-22T09:51:26.000Z</time>
      </trkpt>
      <trkpt lat="44.50742" lon="0.65805">
        <ele>199.7</ele>
        <time>2017-01-22T09:51:27.000Z</time>
      </trkpt>
      <trkpt lat="44.50743" lon="0.65805">
        <ele>199.8</ele>
        <time>2017-01-22T09:51:28.000Z</time>
      </trkpt>
      <trkpt lat="44.50745" lon="0.65805">
        <ele>199.9</ele>
        <time>2017-01-22T09:51:29.000Z</time>
      </trkpt>
      <trkpt lat="44.50746" lon="0.65804">
        <ele>200</ele>
        <time>2017-01-22T09:51:30.000Z</time>
      </trkpt>
      <trkpt lat="44.50747" lon="0.65804">
        <ele>200.1</ele>
        <time>2017-01-22T09:51:31.000Z</time>
      </trkpt>
      <trkpt lat="44.50749" lon="0.65804">
        <ele>200.2</ele>
        <time>2017-01-22T09:51:32.000Z</time>
      </trkpt>
      <trkpt lat="44.5075" lon="0.65803">
        <ele>200.3</ele>
        <time>2017-01-22T09:51:33.000Z</time>
      </trkpt>
      <trkpt lat="44.50751" lon="0.65803">
        <ele>200.4</ele>
        <time>2017-01-22T09:51:34.000Z</time>
      </trkpt>
      <trkpt lat="44.50752" lon="0.65803">
        <ele>200.5</ele>
        <time>2017-01-22T09:51:35.000Z</time>
      </trkpt>
      <trkpt lat="44.50754" lon="0.65802">
        <ele>200.7</ele>
        <time>2017-01-22T09:51:36.000Z</time>
      </trkpt>
      <trkpt lat="44.50755" lon="0.65802">
        <ele>200.8</ele>
        <time>2017-01-22T09:51:37.000Z</time>
      </trkpt>
      <trkpt lat="44.50756" lon="0.65802">
        <ele>200.9</ele>
        <time>2017-01-22T09:51:38.000Z</time>
      </trkpt>
      <trkpt lat="44.50757" lon="0.65802">
        <ele>201</ele>
        <time>2017-01-22T09:51:39.000Z</time>
      </trkpt>
      <trkpt lat="44.50758" lon="0.65802">
        <ele>201.1</ele>
        <time>2017-01-22T09:51:40.000Z</time>
      </trkpt>
      <trkpt lat="44.50758" lon="0.65801">
        <ele>201.1</ele>
        <time>2017-01-22T09:51:41.000Z</time>
      </trkpt>
      <trkpt lat="44.50759" lon="0.65801">
        <ele>201.2</ele>
        <time>2017-01-22T09:51:42.000Z</time>
      </trkpt>
      <trkpt lat="44.5076" lon="0.65801">
        <ele>201.3</ele>
        <time>2017-01-22T09:51:43.000Z</time>
      </trkpt>
      <trkpt lat="44.50761" lon="0.658">
        <ele>201.3</ele>
        <time>2017-01-22T09:51:44.000Z</time>
      </trkpt>
      <trkpt lat="44.50762" lon="0.65799">
        <ele>201.4</ele>
        <time>2017-01-22T09:51:45.000Z</time>
      </trkpt>
      <trkpt lat="44.50763" lon="0.65798">
        <ele>201.4</ele>
        <time>2017-01-22T09:51:46.000Z</time>
      </trkpt>
      <trkpt lat="44.50765" lon="0.65797">
        <ele>201.4</ele>
        <time>2017-01-22T09:51:47.000Z</time>
      </trkpt>
      <trkpt lat="44.50767" lon="0.65795">
        <ele>201.4</ele>
        <time>2017-01-22T09:51:48.000Z</time>
      </trkpt>
      <trkpt lat="44.50768" lon="0.65794">
        <ele>201.4</ele>
        <time>2017-01-22T09:51:49.000Z</time>
      </trkpt>
      <trkpt lat="44.5077" lon="0.65792">
        <ele>201.4</ele>
        <time>2017-01-22T09:51:50.000Z</time>
      </trkpt>
      <trkpt lat="44.50771" lon="0.6579">
        <ele>201.3</ele>
        <time>2017-01-22T09:51:51.000Z</time>
      </trkpt>
      <trkpt lat="44.50773" lon="0.65789">
        <ele>201.3</ele>
        <time>2017-01-22T09:51:52.000Z</time>
      </trkpt>
      <trkpt lat="44.50774" lon="0.65787">
        <ele>201.4</ele>
        <time>2017-01-22T09:51:53.000Z</time>
      </trkpt>
      <trkpt lat="44.50775" lon="0.65786">
        <ele>201.4</ele>
        <time>2017-01-22T09:51:54.000Z</time>
      </trkpt>
      <trkpt lat="44.50776" lon="0.65785">
        <ele>201.5</ele>
        <time>2017-01-22T09:51:55.000Z</time>
      </trkpt>
      <trkpt lat="44.50778" lon="0.65785">
        <ele>201.5</ele>
        <time>2017-01-22T09:51:56.000Z</time>
      </trkpt>
      <trkpt lat="44.50779" lon="0.65784">
        <ele>201.6</ele>
        <time>2017-01-22T09:51:57.000Z</time>
      </trkpt>
      <trkpt lat="44.5078" lon="0.65782">
        <ele>201.6</ele>
        <time>2017-01-22T09:51:58.000Z</time>
      </trkpt>
      <trkpt lat="44.50781" lon="0.65781">
        <ele>201.7</ele>
        <time>2017-01-22T09:51:59.000Z</time>
      </trkpt>
      <trkpt lat="44.50783" lon="0.6578">
        <ele>201.7</ele>
        <time>2017-01-22T09:52:00.000Z</time>
      </trkpt>
      <trkpt lat="44.50784" lon="0.65779">
        <ele>201.8</ele>
        <time>2017-01-22T09:52:01.000Z</time>
      </trkpt>
      <trkpt lat="44.50786" lon="0.65777">
        <ele>201.9</ele>
        <time>2017-01-22T09:52:02.000Z</time>
      </trkpt>
      <trkpt lat="44.50787" lon="0.65776">
        <ele>201.9</ele>
        <time>2017-01-22T09:52:03.000Z</time>
      </trkpt>
      <trkpt lat="44.50789" lon="0.65775">
        <ele>202</ele>
        <time>2017-01-22T09:52:04.000Z</time>
      </trkpt>
      <trkpt lat="44.5079" lon="0.65774">
        <ele>202.1</ele>
        <time>2017-01-22T09:52:05.000Z</time>
      </trkpt>
      <trkpt lat="44.50792" lon="0.65773">
        <ele>202.2</ele>
        <time>2017-01-22T09:52:06.000Z</time>
      </trkpt>
      <trkpt lat="44.50793" lon="0.65772">
        <ele>202.3</ele>
        <time>2017-01-22T09:52:07.000Z</time>
      </trkpt>
      <trkpt lat="44.50794" lon="0.65771">
        <ele>202.4</ele>
        <time>2017-01-22T09:52:08.000Z</time>
      </trkpt>
      <trkpt lat="44.50795" lon="0.6577">
        <ele>202.5</ele>
        <time>2017-01-22T09:52:09.000Z</time>
      </trkpt>
      <trkpt lat="44.50797" lon="0.65769">
        <ele>202.6</ele>
        <time>2017-01-22T09:52:10.000Z</time>
      </trkpt>
      <trkpt lat="44.50798" lon="0.65768">
        <ele>202.7</ele>
        <time>2017-01-22T09:52:11.000Z</time>
      </trkpt>
      <trkpt lat="44.50799" lon="0.65767">
        <ele>202.7</ele>
        <time>2017-01-22T09:52:12.000Z</time>
      </trkpt>
      <trkpt lat="44.50801" lon="0.65765">
        <ele>202.8</ele>
        <time>2017-01-22T09:52:13.000Z</time>
      </trkpt>
      <trkpt lat="44.50802" lon="0.65764">
        <ele>202.9</ele>
        <time>2017-01-22T09:52:14.000Z</time>
      </trkpt>
      <trkpt lat="44.50803" lon="0.65762">
        <ele>202.9</ele>
        <time>2017-01-22T09:52:15.000Z</time>
      </trkpt>
      <trkpt lat="44.50804" lon="0.6576">
        <ele>202.9</ele>
        <time>2017-01-22T09:52:16.000Z</time>
      </trkpt>
      <trkpt lat="44.50806" lon="0.65758">
        <ele>202.9</ele>
        <time>2017-01-22T09:52:17.000Z</time>
      </trkpt>
      <trkpt lat="44.50807" lon="0.65756">
        <ele>202.9</ele>
        <time>2017-01-22T09:52:18.000Z</time>
      </trkpt>
      <trkpt lat="44.50809" lon="0.65754">
        <ele>202.9</ele>
        <time>2017-01-22T09:52:19.000Z</time>
      </trkpt>
      <trkpt lat="44.5081" lon="0.65751">
        <ele>202.9</ele>
        <time>2017-01-22T09:52:20.000Z</time>
      </trkpt>
      <trkpt lat="44.50811" lon="0.65749">
        <ele>202.9</ele>
        <time>2017-01-22T09:52:21.000Z</time>
      </trkpt>
      <trkpt lat="44.50813" lon="0.65746">
        <ele>202.8</ele>
        <time>2017-01-22T09:52:22.000Z</time>
      </trkpt>
      <trkpt lat="44.50815" lon="0.65744">
        <ele>202.7</ele>
        <time>2017-01-22T09:52:23.000Z</time>
      </trkpt>
      <trkpt lat="44.50816" lon="0.65741">
        <ele>202.6</ele>
        <time>2017-01-22T09:52:24.000Z</time>
      </trkpt>
      <trkpt lat="44.50818" lon="0.65739">
        <ele>202.6</ele>
        <time>2017-01-22T09:52:25.000Z</time>
      </trkpt>
      <trkpt lat="44.5082" lon="0.65738">
        <ele>202.8</ele>
        <time>2017-01-22T09:52:26.000Z</time>
      </trkpt>
      <trkpt lat="44.50822" lon="0.65738">
        <ele>203.2</ele>
        <time>2017-01-22T09:52:27.000Z</time>
      </trkpt>
      <trkpt lat="44.50824" lon="0.65739">
        <ele>203.7</ele>
        <time>2017-01-22T09:52:28.000Z</time>
      </trkpt>
      <trkpt lat="44.50826" lon="0.6574">
        <ele>204.2</ele>
        <time>2017-01-22T09:52:29.000Z</time>
      </trkpt>
      <trkpt lat="44.50827" lon="0.6574">
        <ele>204.5</ele>
        <time>2017-01-22T09:52:30.000Z</time>
      </trkpt>
      <trkpt lat="44.50829" lon="0.65741">
        <ele>204.8</ele>
        <time>2017-01-22T09:52:31.000Z</time>
      </trkpt>
      <trkpt lat="44.50831" lon="0.65741">
        <ele>205.1</ele>
        <time>2017-01-22T09:52:32.000Z</time>
      </trkpt>
      <trkpt lat="44.50832" lon="0.6574">
        <ele>205.4</ele>
        <time>2017-01-22T09:52:33.000Z</time>
      </trkpt>
      <trkpt lat="44.50834" lon="0.6574">
        <ele>205.6</ele>
        <time>2017-01-22T09:52:34.000Z</time>
      </trkpt>
      <trkpt lat="44.50835" lon="0.6574">
        <ele>205.8</ele>
        <time>2017-01-22T09:52:35.000Z</time>
      </trkpt>
      <trkpt lat="44.50837" lon="0.6574">
        <ele>205.9</ele>
        <time>2017-01-22T09:52:36.000Z</time>
      </trkpt>
      <trkpt lat="44.50839" lon="0.6574">
        <ele>206</ele>
        <time>2017-01-22T09:52:37.000Z</time>
      </trkpt>
      <trkpt lat="44.5084" lon="0.65739">
        <ele>206.2</ele>
        <time>2017-01-22T09:52:38.000Z</time>
      </trkpt>
      <trkpt lat="44.50842" lon="0.65739">
        <ele>206.3</ele>
        <time>2017-01-22T09:52:39.000Z</time>
      </trkpt>
      <trkpt lat="44.50844" lon="0.65739">
        <ele>206.4</ele>
        <time>2017-01-22T09:52:40.000Z</time>
      </trkpt>
      <trkpt lat="44.50845" lon="0.65738">
        <ele>206.6</ele>
        <time>2017-01-22T09:52:41.000Z</time>
      </trkpt>
      <trkpt lat="44.50847" lon="0.65738">
        <ele>206.7</ele>
        <time>2017-01-22T09:52:42.000Z</time>
      </trkpt>
      <trkpt lat="44.50848" lon="0.65737">
        <ele>206.8</ele>
        <time>2017-01-22T09:52:43.000Z</time>
      </trkpt>
      <trkpt lat="44.5085" lon="0.65737">
        <ele>206.9</ele>
        <time>2017-01-22T09:52:44.000Z</time>
      </trkpt>
      <trkpt lat="44.50851" lon="0.65737">
        <ele>207</ele>
        <time>2017-01-22T09:52:45.000Z</time>
      </trkpt>
      <trkpt lat="44.50853" lon="0.65736">
        <ele>207.1</ele>
        <time>2017-01-22T09:52:46.000Z</time>
      </trkpt>
      <trkpt lat="44.50854" lon="0.65736">
        <ele>207.2</ele>
        <time>2017-01-22T09:52:47.000Z</time>
      </trkpt>
      <trkpt lat="44.50856" lon="0.65735">
        <ele>207.3</ele>
        <time>2017-01-22T09:52:48.000Z</time>
      </trkpt>
      <trkpt lat="44.50857" lon="0.65735">
        <ele>207.4</ele>
        <time>2017-01-22T09:52:49.000Z</time>
      </trkpt>
      <trkpt lat="44.50858" lon="0.65734">
        <ele>207.5</ele>
        <time>2017-01-22T09:52:50.000Z</time>
      </trkpt>
      <trkpt lat="44.50859" lon="0.65734">
        <ele>207.6</ele>
        <time>2017-01-22T09:52:51.000Z</time>
      </trkpt>
      <trkpt lat="44.50861" lon="0.65733">
        <ele>207.7</ele>
        <time>2017-01-22T09:52:52.000Z</time>
      </trkpt>
      <trkpt lat="44.50862" lon="0.65733">
        <ele>207.7</ele>
        <time>2017-01-22T09:52:53.000Z</time>
      </trkpt>
      <trkpt lat="44.50863" lon="0.65732">
        <ele>207.8</ele>
        <time>2017-01-22T09:52:54.000Z</time>
      </trkpt>
      <trkpt lat="44.50864" lon="0.65732">
        <ele>207.9</ele>
        <time>2017-01-22T09:52:55.000Z</time>
      </trkpt>
      <trkpt lat="44.50865" lon="0.65732">
        <ele>208</ele>
        <time>2017-01-22T09:52:56.000Z</time>
      </trkpt>
      <trkpt lat="44.50866" lon="0.65731">
        <ele>208.1</ele>
        <time>2017-01-22T09:52:57.000Z</time>
      </trkpt>
      <trkpt lat="44.50867" lon="0.65731">
        <ele>208.2</ele>
        <time>2017-01-22T09:52:58.000Z</time>
      </trkpt>
      <trkpt lat="44.50869" lon="0.65731">
        <ele>208.3</ele>
        <time>2017-01-22T09:52:59.000Z</time>
      </trkpt>
      <trkpt lat="44.5087" lon="0.6573">
        <ele>208.4</ele>
        <time>2017-01-22T09:53:00.000Z</time>
      </trkpt>
      <trkpt lat="44.50871" lon="0.6573">
        <ele>208.5</ele>
        <time>2017-01-22T09:53:01.000Z</time>
      </trkpt>
      <trkpt lat="44.50872" lon="0.6573">
        <ele>208.6</ele>
        <time>2017-01-22T09:53:02.000Z</time>
      </trkpt>
      <trkpt lat="44.50874" lon="0.6573">
        <ele>208.7</ele>
        <time>2017-01-22T09:53:03.000Z</time>
      </trkpt>
      <trkpt lat="44.50875" lon="0.65729">
        <ele>208.8</ele>
        <time>2017-01-22T09:53:04.000Z</time>
      </trkpt>
      <trkpt lat="44.50876" lon="0.65729">
        <ele>209</ele>
        <time>2017-01-22T09:53:05.000Z</time>
      </trkpt>
      <trkpt lat="44.50877" lon="0.65729">
        <ele>209</ele>
        <time>2017-01-22T09:53:06.000Z</time>
      </trkpt>
      <trkpt lat="44.50878" lon="0.65728">
        <ele>209.1</ele>
        <time>2017-01-22T09:53:07.000Z</time>
      </trkpt>
      <trkpt lat="44.50879" lon="0.65728">
        <ele>209.2</ele>
        <time>2017-01-22T09:53:08.000Z</time>
      </trkpt>
      <trkpt lat="44.50879" lon="0.65727">
        <ele>209.2</ele>
        <time>2017-01-22T09:53:09.000Z</time>
      </trkpt>
      <trkpt lat="44.5088" lon="0.65727">
        <ele>209.2</ele>
        <time>2017-01-22T09:53:10.000Z</time>
      </trkpt>
      <trkpt lat="44.5088" lon="0.65726">
        <ele>209.2</ele>
        <time>2017-01-22T09:53:11.000Z</time>
      </trkpt>
      <trkpt lat="44.50881" lon="0.65726">
        <ele>209.2</ele>
        <time>2017-01-22T09:53:12.000Z</time>
      </trkpt>
      <trkpt lat="44.50881" lon="0.65725">
        <ele>209.2</ele>
        <time>2017-01-22T09:53:13.000Z</time>
      </trkpt>
      <trkpt lat="44.50882" lon="0.65725">
        <ele>209.3</ele>
        <time>2017-01-22T09:53:14.000Z</time>
      </trkpt>
      <trkpt lat="44.50882" lon="0.65725">
        <ele>209.3</ele>
        <time>2017-01-22T09:53:15.000Z</time>
      </trkpt>
      <trkpt lat="44.50883" lon="0.65724">
        <ele>209.4</ele>
        <time>2017-01-22T09:53:16.000Z</time>
      </trkpt>
      <trkpt lat="44.50885" lon="0.65724">
        <ele>209.5</ele>
        <time>2017-01-22T09:53:17.000Z</time>
      </trkpt>
      <trkpt lat="44.50886" lon="0.65723">
        <ele>209.6</ele>
        <time>2017-01-22T09:53:18.000Z</time>
      </trkpt>
      <trkpt lat="44.50887" lon="0.65723">
        <ele>209.7</ele>
        <time>2017-01-22T09:53:19.000Z</time>
      </trkpt>
      <trkpt lat="44.50888" lon="0.65722">
        <ele>209.8</ele>
        <time>2017-01-22T09:53:20.000Z</time>
      </trkpt>
      <trkpt lat="44.50889" lon="0.65722">
        <ele>209.9</ele>
        <time>2017-01-22T09:53:21.000Z</time>
      </trkpt>
      <trkpt lat="44.5089" lon="0.65721">
        <ele>210</ele>
        <time>2017-01-22T09:53:22.000Z</time>
      </trkpt>
      <trkpt lat="44.50891" lon="0.65721">
        <ele>210</ele>
        <time>2017-01-22T09:53:23.000Z</time>
      </trkpt>
      <trkpt lat="44.50892" lon="0.6572">
        <ele>210.1</ele>
        <time>2017-01-22T09:53:24.000Z</time>
      </trkpt>
      <trkpt lat="44.50893" lon="0.65719">
        <ele>210.2</ele>
        <time>2017-01-22T09:53:25.000Z</time>
      </trkpt>
      <trkpt lat="44.50895" lon="0.65718">
        <ele>210.3</ele>
        <time>2017-01-22T09:53:26.000Z</time>
      </trkpt>
      <trkpt lat="44.50896" lon="0.65717">
        <ele>210.4</ele>
        <time>2017-01-22T09:53:27.000Z</time>
      </trkpt>
      <trkpt lat="44.50897" lon="0.65717">
        <ele>210.5</ele>
        <time>2017-01-22T09:53:28.000Z</time>
      </trkpt>
      <trkpt lat="44.50899" lon="0.65716">
        <ele>210.6</ele>
        <time>2017-01-22T09:53:29.000Z</time>
      </trkpt>
      <trkpt lat="44.509" lon="0.65715">
        <ele>210.7</ele>
        <time>2017-01-22T09:53:30.000Z</time>
      </trkpt>
      <trkpt lat="44.50901" lon="0.65714">
        <ele>210.8</ele>
        <time>2017-01-22T09:53:31.000Z</time>
      </trkpt>
      <trkpt lat="44.50902" lon="0.65714">
        <ele>210.9</ele>
        <time>2017-01-22T09:53:32.000Z</time>
      </trkpt>
      <trkpt lat="44.50903" lon="0.65713">
        <ele>211</ele>
        <time>2017-01-22T09:53:33.000Z</time>
      </trkpt>
      <trkpt lat="44.50904" lon="0.65713">
        <ele>211.1</ele>
        <time>2017-01-22T09:53:34.000Z</time>
      </trkpt>
      <trkpt lat="44.50905" lon="0.65713">
        <ele>211.1</ele>
        <time>2017-01-22T09:53:35.000Z</time>
      </trkpt>
      <trkpt lat="44.50905" lon="0.65712">
        <ele>211.2</ele>
        <time>2017-01-22T09:53:36.000Z</time>
      </trkpt>
      <trkpt lat="44.50905" lon="0.65712">
        <ele>211.2</ele>
        <time>2017-01-22T09:53:37.000Z</time>
      </trkpt>
      <trkpt lat="44.50905" lon="0.65712">
        <ele>211.2</ele>
        <time>2017-01-22T09:53:38.000Z</time>
      </trkpt>
      <trkpt lat="44.50905" lon="0.65712">
        <ele>211.2</ele>
        <time>2017-01-22T09:53:39.000Z</time>
      </trkpt>
      <trkpt lat="44.50905" lon="0.65712">
        <ele>211.2</ele>
        <time>2017-01-22T09:53:40.000Z</time>
      </trkpt>
      <trkpt lat="44.50905" lon="0.65712">
        <ele>211.2</ele>
        <time>2017-01-22T09:53:41.000Z</time>
      </trkpt>
      <trkpt lat="44.50905" lon="0.65712">
        <ele>211.2</ele>
        <time>2017-01-22T09:53:42.000Z</time>
      </trkpt>
      <trkpt lat="44.50906" lon="0.65712">
        <ele>211.3</ele>
        <time>2017-01-22T09:53:43.000Z</time>
      </trkpt>
      <trkpt lat="44.50906" lon="0.65712">
        <ele>211.3</ele>
        <time>2017-01-22T09:53:44.000Z</time>
      </trkpt>
      <trkpt lat="44.50907" lon="0.65711">
        <ele>211.3</ele>
        <time>2017-01-22T09:53:45.000Z</time>
      </trkpt>
      <trkpt lat="44.50908" lon="0.65711">
        <ele>211.5</ele>
        <time>2017-01-22T09:53:46.000Z</time>
      </trkpt>
      <trkpt lat="44.50909" lon="0.6571">
        <ele>211.6</ele>
        <time>2017-01-22T09:53:47.000Z</time>
      </trkpt>
      <trkpt lat="44.50911" lon="0.6571">
        <ele>211.8</ele>
        <time>2017-01-22T09:53:48.000Z</time>
      </trkpt>
      <trkpt lat="44.50912" lon="0.6571">
        <ele>212</ele>
        <time>2017-01-22T09:53:49.000Z</time>
      </trkpt>
      <trkpt lat="44.50914" lon="0.6571">
        <ele>212.2</ele>
        <time>2017-01-22T09:53:50.000Z</time>
      </trkpt>
      <trkpt lat="44.50916" lon="0.65711">
        <ele>212.5</ele>
        <time>2017-01-22T09:53:51.000Z</time>
      </trkpt>
      <trkpt lat="44.50917" lon="0.65712">
        <ele>212.7</ele>
        <time>2017-01-22T09:53:52.000Z</time>
      </trkpt>
      <trkpt lat="44.50919" lon="0.65713">
        <ele>212.9</ele>
        <time>2017-01-22T09:53:53.000Z</time>
      </trkpt>
      <trkpt lat="44.50921" lon="0.65714">
        <ele>213</ele>
        <time>2017-01-22T09:53:54.000Z</time>
      </trkpt>
      <trkpt lat="44.50923" lon="0.65714">
        <ele>213.2</ele>
        <time>2017-01-22T09:53:55.000Z</time>
      </trkpt>
      <trkpt lat="44.50925" lon="0.65715">
        <ele>213.3</ele>
        <time>2017-01-22T09:53:56.000Z</time>
      </trkpt>
      <trkpt lat="44.50927" lon="0.65716">
        <ele>213.4</ele>
        <time>2017-01-22T09:53:57.000Z</time>
      </trkpt>
      <trkpt lat="44.50928" lon="0.65716">
        <ele>213.5</ele>
        <time>2017-01-22T09:53:58.000Z</time>
      </trkpt>
      <trkpt lat="44.5093" lon="0.65716">
        <ele>213.6</ele>
        <time>2017-01-22T09:53:59.000Z</time>
      </trkpt>
      <trkpt lat="44.50931" lon="0.65716">
        <ele>213.6</ele>
        <time>2017-01-22T09:54:00.000Z</time>
      </trkpt>
      <trkpt lat="44.50932" lon="0.65715">
        <ele>213.7</ele>
        <time>2017-01-22T09:54:01.000Z</time>
      </trkpt>
      <trkpt lat="44.50933" lon="0.65714">
        <ele>213.7</ele>
        <time>2017-01-22T09:54:02.000Z</time>
      </trkpt>
      <trkpt lat="44.50933" lon="0.65713">
        <ele>213.6</ele>
        <time>2017-01-22T09:54:03.000Z</time>
      </trkpt>
      <trkpt lat="44.50934" lon="0.65712">
        <ele>213.6</ele>
        <time>2017-01-22T09:54:04.000Z</time>
      </trkpt>
      <trkpt lat="44.50934" lon="0.65711">
        <ele>213.6</ele>
        <time>2017-01-22T09:54:05.000Z</time>
      </trkpt>
      <trkpt lat="44.50934" lon="0.6571">
        <ele>213.6</ele>
        <time>2017-01-22T09:54:06.000Z</time>
      </trkpt>
      <trkpt lat="44.50935" lon="0.65711">
        <ele>213.6</ele>
        <time>2017-01-22T09:54:07.000Z</time>
      </trkpt>
      <trkpt lat="44.50937" lon="0.65711">
        <ele>213.7</ele>
        <time>2017-01-22T09:54:08.000Z</time>
      </trkpt>
      <trkpt lat="44.50938" lon="0.65713">
        <ele>213.8</ele>
        <time>2017-01-22T09:54:09.000Z</time>
      </trkpt>
      <trkpt lat="44.50937" lon="0.65716">
        <ele>213.9</ele>
        <time>2017-01-22T09:54:10.000Z</time>
      </trkpt>
      <trkpt lat="44.50937" lon="0.65719">
        <ele>214</ele>
        <time>2017-01-22T09:54:11.000Z</time>
      </trkpt>
      <trkpt lat="44.50936" lon="0.65722">
        <ele>214.2</ele>
        <time>2017-01-22T09:54:12.000Z</time>
      </trkpt>
      <trkpt lat="44.50937" lon="0.65725">
        <ele>214.3</ele>
        <time>2017-01-22T09:54:13.000Z</time>
      </trkpt>
      <trkpt lat="44.50937" lon="0.65728">
        <ele>214.5</ele>
        <time>2017-01-22T09:54:14.000Z</time>
      </trkpt>
      <trkpt lat="44.50938" lon="0.65731">
        <ele>214.7</ele>
        <time>2017-01-22T09:54:15.000Z</time>
      </trkpt>
      <trkpt lat="44.5094" lon="0.65735">
        <ele>214.9</ele>
        <time>2017-01-22T09:54:16.000Z</time>
      </trkpt>
      <trkpt lat="44.50941" lon="0.65739">
        <ele>215.1</ele>
        <time>2017-01-22T09:54:17.000Z</time>
      </trkpt>
      <trkpt lat="44.50941" lon="0.65744">
        <ele>215.3</ele>
        <time>2017-01-22T09:54:18.000Z</time>
      </trkpt>
      <trkpt lat="44.50942" lon="0.65748">
        <ele>215.5</ele>
        <time>2017-01-22T09:54:19.000Z</time>
      </trkpt>
      <trkpt lat="44.50942" lon="0.65753">
        <ele>215.5</ele>
        <time>2017-01-22T09:54:20.000Z</time>
      </trkpt>
      <trkpt lat="44.50943" lon="0.65759">
        <ele>215.3</ele>
        <time>2017-01-22T09:54:21.000Z</time>
      </trkpt>
      <trkpt lat="44.50943" lon="0.65764">
        <ele>215.1</ele>
        <time>2017-01-22T09:54:22.000Z</time>
      </trkpt>
      <trkpt lat="44.50944" lon="0.65769">
        <ele>214.9</ele>
        <time>2017-01-22T09:54:23.000Z</time>
      </trkpt>
      <trkpt lat="44.50944" lon="0.65775">
        <ele>214.7</ele>
        <time>2017-01-22T09:54:24.000Z</time>
      </trkpt>
      <trkpt lat="44.50945" lon="0.65781">
        <ele>214.4</ele>
        <time>2017-01-22T09:54:25.000Z</time>
      </trkpt>
      <trkpt lat="44.50946" lon="0.65786">
        <ele>214.2</ele>
        <time>2017-01-22T09:54:26.000Z</time>
      </trkpt>
      <trkpt lat="44.50946" lon="0.65792">
        <ele>214</ele>
        <time>2017-01-22T09:54:27.000Z</time>
      </trkpt>
      <trkpt lat="44.50947" lon="0.65798">
        <ele>213.7</ele>
        <time>2017-01-22T09:54:28.000Z</time>
      </trkpt>
      <trkpt lat="44.50948" lon="0.65804">
        <ele>213.5</ele>
        <time>2017-01-22T09:54:29.000Z</time>
      </trkpt>
      <trkpt lat="44.50949" lon="0.65809">
        <ele>213.3</ele>
        <time>2017-01-22T09:54:30.000Z</time>
      </trkpt>
      <trkpt lat="44.50949" lon="0.65815">
        <ele>213</ele>
        <time>2017-01-22T09:54:31.000Z</time>
      </trkpt>
      <trkpt lat="44.5095" lon="0.65821">
        <ele>212.7</ele>
        <time>2017-01-22T09:54:32.000Z</time>
      </trkpt>
      <trkpt lat="44.50951" lon="0.65826">
        <ele>212.5</ele>
        <time>2017-01-22T09:54:33.000Z</time>
      </trkpt>
      <trkpt lat="44.50952" lon="0.65831">
        <ele>212.2</ele>
        <time>2017-01-22T09:54:34.000Z</time>
      </trkpt>
      <trkpt lat="44.50953" lon="0.65837">
        <ele>212</ele>
        <time>2017-01-22T09:54:35.000Z</time>
      </trkpt>
      <trkpt lat="44.50954" lon="0.65842">
        <ele>211.8</ele>
        <time>2017-01-22T09:54:36.000Z</time>
      </trkpt>
      <trkpt lat="44.50955" lon="0.65847">
        <ele>211.7</ele>
        <time>2017-01-22T09:54:37.000Z</time>
      </trkpt>
      <trkpt lat="44.50956" lon="0.65852">
        <ele>211.5</ele>
        <time>2017-01-22T09:54:38.000Z</time>
      </trkpt>
      <trkpt lat="44.50957" lon="0.65857">
        <ele>211.3</ele>
        <time>2017-01-22T09:54:39.000Z</time>
      </trkpt>
      <trkpt lat="44.50958" lon="0.65863">
        <ele>211.1</ele>
        <time>2017-01-22T09:54:40.000Z</time>
      </trkpt>
      <trkpt lat="44.50959" lon="0.65867">
        <ele>211</ele>
        <time>2017-01-22T09:54:41.000Z</time>
      </trkpt>
      <trkpt lat="44.5096" lon="0.65872">
        <ele>210.8</ele>
        <time>2017-01-22T09:54:42.000Z</time>
      </trkpt>
      <trkpt lat="44.5096" lon="0.65877">
        <ele>210.6</ele>
        <time>2017-01-22T09:54:43.000Z</time>
      </trkpt>
      <trkpt lat="44.50961" lon="0.65882">
        <ele>210.5</ele>
        <time>2017-01-22T09:54:44.000Z</time>
      </trkpt>
      <trkpt lat="44.50962" lon="0.65887">
        <ele>210.3</ele>
        <time>2017-01-22T09:54:45.000Z</time>
      </trkpt>
      <trkpt lat="44.50962" lon="0.65892">
        <ele>210.1</ele>
        <time>2017-01-22T09:54:46.000Z</time>
      </trkpt>
      <trkpt lat="44.50963" lon="0.65897">
        <ele>209.9</ele>
        <time>2017-01-22T09:54:47.000Z</time>
      </trkpt>
      <trkpt lat="44.50964" lon="0.65902">
        <ele>209.8</ele>
        <time>2017-01-22T09:54:48.000Z</time>
      </trkpt>
      <trkpt lat="44.50964" lon="0.65907">
        <ele>209.6</ele>
        <time>2017-01-22T09:54:49.000Z</time>
      </trkpt>
      <trkpt lat="44.50965" lon="0.65912">
        <ele>209.4</ele>
        <time>2017-01-22T09:54:50.000Z</time>
      </trkpt>
      <trkpt lat="44.50966" lon="0.65917">
        <ele>209.2</ele>
        <time>2017-01-22T09:54:51.000Z</time>
      </trkpt>
      <trkpt lat="44.50966" lon="0.65922">
        <ele>209.3</ele>
        <time>2017-01-22T09:54:52.000Z</time>
      </trkpt>
      <trkpt lat="44.50967" lon="0.65927">
        <ele>209.4</ele>
        <time>2017-01-22T09:54:53.000Z</time>
      </trkpt>
      <trkpt lat="44.50968" lon="0.65932">
        <ele>209.5</ele>
        <time>2017-01-22T09:54:54.000Z</time>
      </trkpt>
      <trkpt lat="44.50968" lon="0.65937">
        <ele>209.6</ele>
        <time>2017-01-22T09:54:55.000Z</time>
      </trkpt>
      <trkpt lat="44.50969" lon="0.65942">
        <ele>209.7</ele>
        <time>2017-01-22T09:54:56.000Z</time>
      </trkpt>
      <trkpt lat="44.5097" lon="0.65947">
        <ele>209.8</ele>
        <time>2017-01-22T09:54:57.000Z</time>
      </trkpt>
      <trkpt lat="44.5097" lon="0.65952">
        <ele>209.9</ele>
        <time>2017-01-22T09:54:58.000Z</time>
      </trkpt>
      <trkpt lat="44.50971" lon="0.65957">
        <ele>210</ele>
        <time>2017-01-22T09:54:59.000Z</time>
      </trkpt>
      <trkpt lat="44.50972" lon="0.65962">
        <ele>210.1</ele>
        <time>2017-01-22T09:55:00.000Z</time>
      </trkpt>
      <trkpt lat="44.50972" lon="0.65967">
        <ele>210.2</ele>
        <time>2017-01-22T09:55:01.000Z</time>
      </trkpt>
      <trkpt lat="44.50973" lon="0.65973">
        <ele>210.3</ele>
        <time>2017-01-22T09:55:02.000Z</time>
      </trkpt>
      <trkpt lat="44.50974" lon="0.65978">
        <ele>210.4</ele>
        <time>2017-01-22T09:55:03.000Z</time>
      </trkpt>
      <trkpt lat="44.50974" lon="0.65984">
        <ele>210.5</ele>
        <time>2017-01-22T09:55:04.000Z</time>
      </trkpt>
      <trkpt lat="44.50975" lon="0.65989">
        <ele>210.6</ele>
        <time>2017-01-22T09:55:05.000Z</time>
      </trkpt>
      <trkpt lat="44.50976" lon="0.65995">
        <ele>210.7</ele>
        <time>2017-01-22T09:55:06.000Z</time>
      </trkpt>
      <trkpt lat="44.50977" lon="0.66001">
        <ele>210.8</ele>
        <time>2017-01-22T09:55:07.000Z</time>
      </trkpt>
      <trkpt lat="44.50978" lon="0.66007">
        <ele>210.8</ele>
        <time>2017-01-22T09:55:08.000Z</time>
      </trkpt>
      <trkpt lat="44.50979" lon="0.66013">
        <ele>210.7</ele>
        <time>2017-01-22T09:55:09.000Z</time>
      </trkpt>
      <trkpt lat="44.5098" lon="0.66019">
        <ele>210.7</ele>
        <time>2017-01-22T09:55:10.000Z</time>
      </trkpt>
      <trkpt lat="44.50981" lon="0.66025">
        <ele>210.6</ele>
        <time>2017-01-22T09:55:11.000Z</time>
      </trkpt>
      <trkpt lat="44.50982" lon="0.66031">
        <ele>210.6</ele>
        <time>2017-01-22T09:55:12.000Z</time>
      </trkpt>
      <trkpt lat="44.50984" lon="0.66037">
        <ele>210.5</ele>
        <time>2017-01-22T09:55:13.000Z</time>
      </trkpt>
      <trkpt lat="44.50985" lon="0.66043">
        <ele>210.4</ele>
        <time>2017-01-22T09:55:14.000Z</time>
      </trkpt>
      <trkpt lat="44.50987" lon="0.66049">
        <ele>210.4</ele>
        <time>2017-01-22T09:55:15.000Z</time>
      </trkpt>
      <trkpt lat="44.50989" lon="0.66055">
        <ele>210.3</ele>
        <time>2017-01-22T09:55:16.000Z</time>
      </trkpt>
      <trkpt lat="44.50991" lon="0.6606">
        <ele>210.2</ele>
        <time>2017-01-22T09:55:17.000Z</time>
      </trkpt>
      <trkpt lat="44.50993" lon="0.66066">
        <ele>210.2</ele>
        <time>2017-01-22T09:55:18.000Z</time>
      </trkpt>
      <trkpt lat="44.50995" lon="0.66071">
        <ele>210.1</ele>
        <time>2017-01-22T09:55:19.000Z</time>
      </trkpt>
      <trkpt lat="44.50997" lon="0.66077">
        <ele>210.1</ele>
        <time>2017-01-22T09:55:20.000Z</time>
      </trkpt>
      <trkpt lat="44.50999" lon="0.66082">
        <ele>210</ele>
        <time>2017-01-22T09:55:21.000Z</time>
      </trkpt>
      <trkpt lat="44.51" lon="0.66087">
        <ele>209.9</ele>
        <time>2017-01-22T09:55:22.000Z</time>
      </trkpt>
      <trkpt lat="44.51002" lon="0.66092">
        <ele>209.8</ele>
        <time>2017-01-22T09:55:23.000Z</time>
      </trkpt>
      <trkpt lat="44.51003" lon="0.66098">
        <ele>209.6</ele>
        <time>2017-01-22T09:55:24.000Z</time>
      </trkpt>
      <trkpt lat="44.51005" lon="0.66104">
        <ele>209.4</ele>
        <time>2017-01-22T09:55:25.000Z</time>
      </trkpt>
      <trkpt lat="44.51007" lon="0.66109">
        <ele>209.2</ele>
        <time>2017-01-22T09:55:26.000Z</time>
      </trkpt>
      <trkpt lat="44.51008" lon="0.66115">
        <ele>209.1</ele>
        <time>2017-01-22T09:55:27.000Z</time>
      </trkpt>
      <trkpt lat="44.5101" lon="0.66121">
        <ele>208.9</ele>
        <time>2017-01-22T09:55:28.000Z</time>
      </trkpt>
      <trkpt lat="44.51012" lon="0.66128">
        <ele>208.7</ele>
        <time>2017-01-22T09:55:29.000Z</time>
      </trkpt>
      <trkpt lat="44.51014" lon="0.66134">
        <ele>208.5</ele>
        <time>2017-01-22T09:55:30.000Z</time>
      </trkpt>
      <trkpt lat="44.51016" lon="0.6614">
        <ele>208.3</ele>
        <time>2017-01-22T09:55:31.000Z</time>
      </trkpt>
      <trkpt lat="44.51018" lon="0.66146">
        <ele>208.1</ele>
        <time>2017-01-22T09:55:32.000Z</time>
      </trkpt>
      <trkpt lat="44.5102" lon="0.66152">
        <ele>207.9</ele>
        <time>2017-01-22T09:55:33.000Z</time>
      </trkpt>
      <trkpt lat="44.51022" lon="0.66158">
        <ele>207.8</ele>
        <time>2017-01-22T09:55:34.000Z</time>
      </trkpt>
      <trkpt lat="44.51024" lon="0.66164">
        <ele>207.6</ele>
        <time>2017-01-22T09:55:35.000Z</time>
      </trkpt>
      <trkpt lat="44.51026" lon="0.6617">
        <ele>207.5</ele>
        <time>2017-01-22T09:55:36.000Z</time>
      </trkpt>
      <trkpt lat="44.51028" lon="0.66176">
        <ele>207.4</ele>
        <time>2017-01-22T09:55:37.000Z</time>
      </trkpt>
      <trkpt lat="44.5103" lon="0.66181">
        <ele>207.4</ele>
        <time>2017-01-22T09:55:38.000Z</time>
      </trkpt>
      <trkpt lat="44.51033" lon="0.66186">
        <ele>207.3</ele>
        <time>2017-01-22T09:55:39.000Z</time>
      </trkpt>
      <trkpt lat="44.51035" lon="0.66192">
        <ele>207.3</ele>
        <time>2017-01-22T09:55:40.000Z</time>
      </trkpt>
      <trkpt lat="44.51038" lon="0.66198">
        <ele>207.2</ele>
        <time>2017-01-22T09:55:41.000Z</time>
      </trkpt>
      <trkpt lat="44.51041" lon="0.66204">
        <ele>207.2</ele>
        <time>2017-01-22T09:55:42.000Z</time>
      </trkpt>
      <trkpt lat="44.51044" lon="0.6621">
        <ele>207.2</ele>
        <time>2017-01-22T09:55:43.000Z</time>
      </trkpt>
      <trkpt lat="44.51047" lon="0.66216">
        <ele>207.2</ele>
        <time>2017-01-22T09:55:44.000Z</time>
      </trkpt>
      <trkpt lat="44.51051" lon="0.66222">
        <ele>207.2</ele>
        <time>2017-01-22T09:55:45.000Z</time>
      </trkpt>
      <trkpt lat="44.51055" lon="0.66226">
        <ele>207.1</ele>
        <time>2017-01-22T09:55:46.000Z</time>
      </trkpt>
      <trkpt lat="44.51059" lon="0.66226">
        <ele>207</ele>
        <time>2017-01-22T09:55:47.000Z</time>
      </trkpt>
      <trkpt lat="44.51063" lon="0.66223">
        <ele>206.8</ele>
        <time>2017-01-22T09:55:48.000Z</time>
      </trkpt>
      <trkpt lat="44.51067" lon="0.66219">
        <ele>206.5</ele>
        <time>2017-01-22T09:55:49.000Z</time>
      </trkpt>
      <trkpt lat="44.51071" lon="0.66214">
        <ele>206.2</ele>
        <time>2017-01-22T09:55:50.000Z</time>
      </trkpt>
      <trkpt lat="44.51075" lon="0.66209">
        <ele>205.9</ele>
        <time>2017-01-22T09:55:51.000Z</time>
      </trkpt>
      <trkpt lat="44.5108" lon="0.66205">
        <ele>205.5</ele>
        <time>2017-01-22T09:55:52.000Z</time>
      </trkpt>
      <trkpt lat="44.51085" lon="0.66201">
        <ele>205.2</ele>
        <time>2017-01-22T09:55:53.000Z</time>
      </trkpt>
      <trkpt lat="44.51089" lon="0.66196">
        <ele>204.8</ele>
        <time>2017-01-22T09:55:54.000Z</time>
      </trkpt>
      <trkpt lat="44.51094" lon="0.6619">
        <ele>204.5</ele>
        <time>2017-01-22T09:55:55.000Z</time>
      </trkpt>
      <trkpt lat="44.51099" lon="0.66184">
        <ele>204</ele>
        <time>2017-01-22T09:55:56.000Z</time>
      </trkpt>
      <trkpt lat="44.51103" lon="0.66177">
        <ele>203.5</ele>
        <time>2017-01-22T09:55:57.000Z</time>
      </trkpt>
      <trkpt lat="44.51107" lon="0.6617">
        <ele>203</ele>
        <time>2017-01-22T09:55:58.000Z</time>
      </trkpt>
      <trkpt lat="44.5111" lon="0.66163">
        <ele>202.5</ele>
        <time>2017-01-22T09:55:59.000Z</time>
      </trkpt>
      <trkpt lat="44.51113" lon="0.66156">
        <ele>202</ele>
        <time>2017-01-22T09:56:00.000Z</time>
      </trkpt>
      <trkpt lat="44.51116" lon="0.66151">
        <ele>201.5</ele>
        <time>2017-01-22T09:56:01.000Z</time>
      </trkpt>
      <trkpt lat="44.51118" lon="0.66146">
        <ele>201.1</ele>
        <time>2017-01-22T09:56:02.000Z</time>
      </trkpt>
      <trkpt lat="44.5112" lon="0.66142">
        <ele>200.7</ele>
        <time>2017-01-22T09:56:03.000Z</time>
      </trkpt>
      <trkpt lat="44.51122" lon="0.66139">
        <ele>200.3</ele>
        <time>2017-01-22T09:56:04.000Z</time>
      </trkpt>
      <trkpt lat="44.51124" lon="0.66136">
        <ele>199.9</ele>
        <time>2017-01-22T09:56:05.000Z</time>
      </trkpt>
      <trkpt lat="44.51125" lon="0.66133">
        <ele>199.6</ele>
        <time>2017-01-22T09:56:06.000Z</time>
      </trkpt>
      <trkpt lat="44.51126" lon="0.66131">
        <ele>199.3</ele>
        <time>2017-01-22T09:56:07.000Z</time>
      </trkpt>
      <trkpt lat="44.51126" lon="0.66129">
        <ele>199.2</ele>
        <time>2017-01-22T09:56:08.000Z</time>
      </trkpt>
      <trkpt lat="44.51126" lon="0.66128">
        <ele>199.1</ele>
        <time>2017-01-22T09:56:09.000Z</time>
      </trkpt>
      <trkpt lat="44.51126" lon="0.66127">
        <ele>199.1</ele>
        <time>2017-01-22T09:56:10.000Z</time>
      </trkpt>
      <trkpt lat="44.51126" lon="0.66127">
        <ele>199.1</ele>
        <time>2017-01-22T09:56:11.000Z</time>
      </trkpt>
      <trkpt lat="44.51126" lon="0.66127">
        <ele>199.1</ele>
        <time>2017-01-22T09:56:12.000Z</time>
      </trkpt>
      <trkpt lat="44.51126" lon="0.66128">
        <ele>199.1</ele>
        <time>2017-01-22T09:56:13.000Z</time>
      </trkpt>
      <trkpt lat="44.51126" lon="0.66128">
        <ele>199.1</ele>
        <time>2017-01-22T09:56:14.000Z</time>
      </trkpt>
      <trkpt lat="44.51126" lon="0.66127">
        <ele>199.1</ele>
        <time>2017-01-22T09:56:15.000Z</time>
      </trkpt>
      <trkpt lat="44.51126" lon="0.66127">
        <ele>199.1</ele>
        <time>2017-01-22T09:56:16.000Z</time>
      </trkpt>
      <trkpt lat="44.51126" lon="0.66127">
        <ele>199.1</ele>
        <time>2017-01-22T09:56:17.000Z</time>
      </trkpt>
      <trkpt lat="44.51126" lon="0.66127">
        <ele>199.1</ele>
        <time>2017-01-22T09:56:18.000Z</time>
      </trkpt>
      <trkpt lat="44.51126" lon="0.66127">
        <ele>199</ele>
        <time>2017-01-22T09:56:19.000Z</time>
      </trkpt>
      <trkpt lat="44.51125" lon="0.66126">
        <ele>199.1</ele>
        <time>2017-01-22T09:56:20.000Z</time>
      </trkpt>
      <trkpt lat="44.51125" lon="0.66126">
        <ele>199.1</ele>
        <time>2017-01-22T09:56:21.000Z</time>
      </trkpt>
      <trkpt lat="44.51125" lon="0.66126">
        <ele>199</ele>
        <time>2017-01-22T09:56:22.000Z</time>
      </trkpt>
      <trkpt lat="44.51125" lon="0.66126">
        <ele>199</ele>
        <time>2017-01-22T09:56:23.000Z</time>
      </trkpt>
      <trkpt lat="44.51125" lon="0.66126">
        <ele>199</ele>
        <time>2017-01-22T09:56:24.000Z</time>
      </trkpt>
      <trkpt lat="44.51125" lon="0.66125">
        <ele>199</ele>
        <time>2017-01-22T09:56:25.000Z</time>
      </trkpt>
      <trkpt lat="44.51125" lon="0.66125">
        <ele>199</ele>
        <time>2017-01-22T09:56:26.000Z</time>
      </trkpt>
      <trkpt lat="44.51125" lon="0.66124">
        <ele>199</ele>
        <time>2017-01-22T09:56:27.000Z</time>
      </trkpt>
      <trkpt lat="44.51125" lon="0.66124">
        <ele>198.9</ele>
        <time>2017-01-22T09:56:28.000Z</time>
      </trkpt>
      <trkpt lat="44.51125" lon="0.66123">
        <ele>198.9</ele>
        <time>2017-01-22T09:56:29.000Z</time>
      </trkpt>
      <trkpt lat="44.51125" lon="0.66121">
        <ele>198.7</ele>
        <time>2017-01-22T09:56:30.000Z</time>
      </trkpt>
      <trkpt lat="44.51126" lon="0.66118">
        <ele>198.4</ele>
        <time>2017-01-22T09:56:31.000Z</time>
      </trkpt>
      <trkpt lat="44.51127" lon="0.66114">
        <ele>198</ele>
        <time>2017-01-22T09:56:32.000Z</time>
      </trkpt>
      <trkpt lat="44.51128" lon="0.66109">
        <ele>197.4</ele>
        <time>2017-01-22T09:56:33.000Z</time>
      </trkpt>
      <trkpt lat="44.51129" lon="0.66104">
        <ele>196.9</ele>
        <time>2017-01-22T09:56:34.000Z</time>
      </trkpt>
      <trkpt lat="44.51129" lon="0.66097">
        <ele>196.4</ele>
        <time>2017-01-22T09:56:35.000Z</time>
      </trkpt>
      <trkpt lat="44.51129" lon="0.66092">
        <ele>195.9</ele>
        <time>2017-01-22T09:56:36.000Z</time>
      </trkpt>
      <trkpt lat="44.51128" lon="0.66086">
        <ele>195.6</ele>
        <time>2017-01-22T09:56:37.000Z</time>
      </trkpt>
      <trkpt lat="44.51127" lon="0.66081">
        <ele>195.4</ele>
        <time>2017-01-22T09:56:38.000Z</time>
      </trkpt>
      <trkpt lat="44.51126" lon="0.66077">
        <ele>195.3</ele>
        <time>2017-01-22T09:56:39.000Z</time>
      </trkpt>
      <trkpt lat="44.51125" lon="0.66074">
        <ele>195.3</ele>
        <time>2017-01-22T09:56:40.000Z</time>
      </trkpt>
      <trkpt lat="44.51125" lon="0.66072">
        <ele>195.3</ele>
        <time>2017-01-22T09:56:41.000Z</time>
      </trkpt>
      <trkpt lat="44.51124" lon="0.66071">
        <ele>195.3</ele>
        <time>2017-01-22T09:56:42.000Z</time>
      </trkpt>
      <trkpt lat="44.51123" lon="0.6607">
        <ele>195.4</ele>
        <time>2017-01-22T09:56:43.000Z</time>
      </trkpt>
      <trkpt lat="44.51123" lon="0.66068">
        <ele>195.3</ele>
        <time>2017-01-22T09:56:44.000Z</time>
      </trkpt>
      <trkpt lat="44.51123" lon="0.66063">
        <ele>195</ele>
        <time>2017-01-22T09:56:45.000Z</time>
      </trkpt>
      <trkpt lat="44.51123" lon="0.66057">
        <ele>194.5</ele>
        <time>2017-01-22T09:56:46.000Z</time>
      </trkpt>
      <trkpt lat="44.51123" lon="0.66049">
        <ele>193.9</ele>
        <time>2017-01-22T09:56:47.000Z</time>
      </trkpt>
      <trkpt lat="44.51124" lon="0.66041">
        <ele>193.3</ele>
        <time>2017-01-22T09:56:48.000Z</time>
      </trkpt>
      <trkpt lat="44.51123" lon="0.66033">
        <ele>192.8</ele>
        <time>2017-01-22T09:56:49.000Z</time>
      </trkpt>
      <trkpt lat="44.51123" lon="0.66026">
        <ele>192.4</ele>
        <time>2017-01-22T09:56:50.000Z</time>
      </trkpt>
      <trkpt lat="44.51122" lon="0.66021">
        <ele>192.3</ele>
        <time>2017-01-22T09:56:51.000Z</time>
      </trkpt>
      <trkpt lat="44.51121" lon="0.66016">
        <ele>192.2</ele>
        <time>2017-01-22T09:56:52.000Z</time>
      </trkpt>
      <trkpt lat="44.5112" lon="0.66012">
        <ele>192.2</ele>
        <time>2017-01-22T09:56:53.000Z</time>
      </trkpt>
      <trkpt lat="44.5112" lon="0.66007">
        <ele>192</ele>
        <time>2017-01-22T09:56:54.000Z</time>
      </trkpt>
      <trkpt lat="44.5112" lon="0.66003">
        <ele>191.7</ele>
        <time>2017-01-22T09:56:55.000Z</time>
      </trkpt>
      <trkpt lat="44.5112" lon="0.65999">
        <ele>191.4</ele>
        <time>2017-01-22T09:56:56.000Z</time>
      </trkpt>
      <trkpt lat="44.5112" lon="0.65994">
        <ele>191.1</ele>
        <time>2017-01-22T09:56:57.000Z</time>
      </trkpt>
      <trkpt lat="44.5112" lon="0.65989">
        <ele>190.9</ele>
        <time>2017-01-22T09:56:58.000Z</time>
      </trkpt>
      <trkpt lat="44.51119" lon="0.65984">
        <ele>190.8</ele>
        <time>2017-01-22T09:56:59.000Z</time>
      </trkpt>
      <trkpt lat="44.51119" lon="0.6598">
        <ele>190.7</ele>
        <time>2017-01-22T09:57:00.000Z</time>
      </trkpt>
      <trkpt lat="44.51118" lon="0.65976">
        <ele>190.7</ele>
        <time>2017-01-22T09:57:01.000Z</time>
      </trkpt>
      <trkpt lat="44.51118" lon="0.65974">
        <ele>190.7</ele>
        <time>2017-01-22T09:57:02.000Z</time>
      </trkpt>
      <trkpt lat="44.51118" lon="0.65971">
        <ele>190.4</ele>
        <time>2017-01-22T09:57:03.000Z</time>
      </trkpt>
      <trkpt lat="44.51119" lon="0.65968">
        <ele>189.9</ele>
        <time>2017-01-22T09:57:04.000Z</time>
      </trkpt>
      <trkpt lat="44.5112" lon="0.65965">
        <ele>189.3</ele>
        <time>2017-01-22T09:57:05.000Z</time>
      </trkpt>
      <trkpt lat="44.51122" lon="0.65962">
        <ele>188.7</ele>
        <time>2017-01-22T09:57:06.000Z</time>
      </trkpt>
      <trkpt lat="44.51123" lon="0.65957">
        <ele>188.2</ele>
        <time>2017-01-22T09:57:07.000Z</time>
      </trkpt>
      <trkpt lat="44.51123" lon="0.65952">
        <ele>187.7</ele>
        <time>2017-01-22T09:57:08.000Z</time>
      </trkpt>
      <trkpt lat="44.51123" lon="0.65945">
        <ele>187.4</ele>
        <time>2017-01-22T09:57:09.000Z</time>
      </trkpt>
      <trkpt lat="44.51122" lon="0.65938">
        <ele>187.2</ele>
        <time>2017-01-22T09:57:10.000Z</time>
      </trkpt>
      <trkpt lat="44.51122" lon="0.65931">
        <ele>187</ele>
        <time>2017-01-22T09:57:11.000Z</time>
      </trkpt>
      <trkpt lat="44.51121" lon="0.65923">
        <ele>186.9</ele>
        <time>2017-01-22T09:57:12.000Z</time>
      </trkpt>
      <trkpt lat="44.5112" lon="0.65916">
        <ele>186.7</ele>
        <time>2017-01-22T09:57:13.000Z</time>
      </trkpt>
      <trkpt lat="44.51119" lon="0.65908">
        <ele>186.4</ele>
        <time>2017-01-22T09:57:14.000Z</time>
      </trkpt>
      <trkpt lat="44.51118" lon="0.65901">
        <ele>186.2</ele>
        <time>2017-01-22T09:57:15.000Z</time>
      </trkpt>
      <trkpt lat="44.51117" lon="0.65894">
        <ele>185.9</ele>
        <time>2017-01-22T09:57:16.000Z</time>
      </trkpt>
      <trkpt lat="44.51117" lon="0.65888">
        <ele>185.6</ele>
        <time>2017-01-22T09:57:17.000Z</time>
      </trkpt>
      <trkpt lat="44.51116" lon="0.65882">
        <ele>185.4</ele>
        <time>2017-01-22T09:57:18.000Z</time>
      </trkpt>
      <trkpt lat="44.51115" lon="0.65876">
        <ele>185.2</ele>
        <time>2017-01-22T09:57:19.000Z</time>
      </trkpt>
      <trkpt lat="44.51115" lon="0.65871">
        <ele>185</ele>
        <time>2017-01-22T09:57:20.000Z</time>
      </trkpt>
      <trkpt lat="44.51114" lon="0.65866">
        <ele>184.9</ele>
        <time>2017-01-22T09:57:21.000Z</time>
      </trkpt>
      <trkpt lat="44.51113" lon="0.65861">
        <ele>184.9</ele>
        <time>2017-01-22T09:57:22.000Z</time>
      </trkpt>
      <trkpt lat="44.51112" lon="0.65857">
        <ele>185</ele>
        <time>2017-01-22T09:57:23.000Z</time>
      </trkpt>
      <trkpt lat="44.5111" lon="0.65852">
        <ele>185</ele>
        <time>2017-01-22T09:57:24.000Z</time>
      </trkpt>
      <trkpt lat="44.51109" lon="0.65848">
        <ele>185.1</ele>
        <time>2017-01-22T09:57:25.000Z</time>
      </trkpt>
      <trkpt lat="44.51108" lon="0.65844">
        <ele>185.2</ele>
        <time>2017-01-22T09:57:26.000Z</time>
      </trkpt>
      <trkpt lat="44.51107" lon="0.6584">
        <ele>185.3</ele>
        <time>2017-01-22T09:57:27.000Z</time>
      </trkpt>
      <trkpt lat="44.51106" lon="0.65836">
        <ele>185.3</ele>
        <time>2017-01-22T09:57:28.000Z</time>
      </trkpt>
      <trkpt lat="44.51105" lon="0.65833">
        <ele>185.4</ele>
        <time>2017-01-22T09:57:29.000Z</time>
      </trkpt>
      <trkpt lat="44.51105" lon="0.65829">
        <ele>185.6</ele>
        <time>2017-01-22T09:57:30.000Z</time>
      </trkpt>
      <trkpt lat="44.51104" lon="0.65825">
        <ele>185.7</ele>
        <time>2017-01-22T09:57:31.000Z</time>
      </trkpt>
      <trkpt lat="44.51104" lon="0.65821">
        <ele>185.8</ele>
        <time>2017-01-22T09:57:32.000Z</time>
      </trkpt>
      <trkpt lat="44.51104" lon="0.65818">
        <ele>185.9</ele>
        <time>2017-01-22T09:57:33.000Z</time>
      </trkpt>
      <trkpt lat="44.51104" lon="0.65816">
        <ele>186</ele>
        <time>2017-01-22T09:57:34.000Z</time>
      </trkpt>
      <trkpt lat="44.51103" lon="0.65814">
        <ele>186</ele>
        <time>2017-01-22T09:57:35.000Z</time>
      </trkpt>
      <trkpt lat="44.51103" lon="0.65813">
        <ele>186.1</ele>
        <time>2017-01-22T09:57:36.000Z</time>
      </trkpt>
      <trkpt lat="44.51103" lon="0.65813">
        <ele>186.1</ele>
        <time>2017-01-22T09:57:37.000Z</time>
      </trkpt>
      <trkpt lat="44.51103" lon="0.65813">
        <ele>186.1</ele>
        <time>2017-01-22T09:57:38.000Z</time>
      </trkpt>
      <trkpt lat="44.51103" lon="0.65813">
        <ele>186.2</ele>
        <time>2017-01-22T09:57:39.000Z</time>
      </trkpt>
      <trkpt lat="44.51103" lon="0.65813">
        <ele>186.2</ele>
        <time>2017-01-22T09:57:40.000Z</time>
      </trkpt>
      <trkpt lat="44.51103" lon="0.65813">
        <ele>186.2</ele>
        <time>2017-01-22T09:57:41.000Z</time>
      </trkpt>
      <trkpt lat="44.51103" lon="0.65812">
        <ele>186.2</ele>
        <time>2017-01-22T09:57:42.000Z</time>
      </trkpt>
      <trkpt lat="44.51103" lon="0.65812">
        <ele>186.2</ele>
        <time>2017-01-22T09:57:43.000Z</time>
      </trkpt>
      <trkpt lat="44.51103" lon="0.65812">
        <ele>186.2</ele>
        <time>2017-01-22T09:57:44.000Z</time>
      </trkpt>
      <trkpt lat="44.51103" lon="0.65813">
        <ele>186.2</ele>
        <time>2017-01-22T09:57:45.000Z</time>
      </trkpt>
      <trkpt lat="44.51103" lon="0.65812">
        <ele>186.2</ele>
        <time>2017-01-22T09:57:46.000Z</time>
      </trkpt>
      <trkpt lat="44.51103" lon="0.65812">
        <ele>186.2</ele>
        <time>2017-01-22T09:57:47.000Z</time>
      </trkpt>
      <trkpt lat="44.51103" lon="0.65812">
        <ele>186.2</ele>
        <time>2017-01-22T09:57:48.000Z</time>
      </trkpt>
      <trkpt lat="44.51103" lon="0.65812">
        <ele>186.2</ele>
        <time>2017-01-22T09:57:49.000Z</time>
      </trkpt>
      <trkpt lat="44.51103" lon="0.65812">
        <ele>186.2</ele>
        <time>2017-01-22T09:57:50.000Z</time>
      </trkpt>
      <trkpt lat="44.51103" lon="0.65812">
        <ele>186.2</ele>
        <time>2017-01-22T09:57:51.000Z</time>
      </trkpt>
      <trkpt lat="44.51103" lon="0.65812">
        <ele>186.3</ele>
        <time>2017-01-22T09:57:52.000Z</time>
      </trkpt>
      <trkpt lat="44.51103" lon="0.65811">
        <ele>186.3</ele>
        <time>2017-01-22T09:57:53.000Z</time>
      </trkpt>
      <trkpt lat="44.51103" lon="0.65811">
        <ele>186.3</ele>
        <time>2017-01-22T09:57:54.000Z</time>
      </trkpt>
      <trkpt lat="44.51103" lon="0.65811">
        <ele>186.4</ele>
        <time>2017-01-22T09:57:55.000Z</time>
      </trkpt>
      <trkpt lat="44.51103" lon="0.65811">
        <ele>186.4</ele>
        <time>2017-01-22T09:57:56.000Z</time>
      </trkpt>
      <trkpt lat="44.51102" lon="0.6581">
        <ele>186.4</ele>
        <time>2017-01-22T09:57:57.000Z</time>
      </trkpt>
      <trkpt lat="44.51102" lon="0.6581">
        <ele>186.4</ele>
        <time>2017-01-22T09:57:58.000Z</time>
      </trkpt>
      <trkpt lat="44.51102" lon="0.65809">
        <ele>186.5</ele>
        <time>2017-01-22T09:57:59.000Z</time>
      </trkpt>
      <trkpt lat="44.51102" lon="0.65809">
        <ele>186.6</ele>
        <time>2017-01-22T09:58:00.000Z</time>
      </trkpt>
      <trkpt lat="44.51101" lon="0.65808">
        <ele>186.8</ele>
        <time>2017-01-22T09:58:01.000Z</time>
      </trkpt>
      <trkpt lat="44.51101" lon="0.65806">
        <ele>187</ele>
        <time>2017-01-22T09:58:02.000Z</time>
      </trkpt>
      <trkpt lat="44.51099" lon="0.65803">
        <ele>187.5</ele>
        <time>2017-01-22T09:58:03.000Z</time>
      </trkpt>
      <trkpt lat="44.51099" lon="0.65799">
        <ele>187.8</ele>
        <time>2017-01-22T09:58:04.000Z</time>
      </trkpt>
      <trkpt lat="44.51098" lon="0.65795">
        <ele>188</ele>
        <time>2017-01-22T09:58:05.000Z</time>
      </trkpt>
      <trkpt lat="44.51097" lon="0.65791">
        <ele>188.3</ele>
        <time>2017-01-22T09:58:06.000Z</time>
      </trkpt>
      <trkpt lat="44.51096" lon="0.65787">
        <ele>188.7</ele>
        <time>2017-01-22T09:58:07.000Z</time>
      </trkpt>
      <trkpt lat="44.51095" lon="0.65783">
        <ele>189.2</ele>
        <time>2017-01-22T09:58:08.000Z</time>
      </trkpt>
      <trkpt lat="44.51094" lon="0.65778">
        <ele>189.6</ele>
        <time>2017-01-22T09:58:09.000Z</time>
      </trkpt>
      <trkpt lat="44.51093" lon="0.65773">
        <ele>190</ele>
        <time>2017-01-22T09:58:10.000Z</time>
      </trkpt>
      <trkpt lat="44.51092" lon="0.65768">
        <ele>190.3</ele>
        <time>2017-01-22T09:58:11.000Z</time>
      </trkpt>
      <trkpt lat="44.51092" lon="0.65763">
        <ele>190.6</ele>
        <time>2017-01-22T09:58:12.000Z</time>
      </trkpt>
      <trkpt lat="44.51091" lon="0.65757">
        <ele>190.8</ele>
        <time>2017-01-22T09:58:13.000Z</time>
      </trkpt>
      <trkpt lat="44.51091" lon="0.65752">
        <ele>191</ele>
        <time>2017-01-22T09:58:14.000Z</time>
      </trkpt>
      <trkpt lat="44.51091" lon="0.65747">
        <ele>191.2</ele>
        <time>2017-01-22T09:58:15.000Z</time>
      </trkpt>
      <trkpt lat="44.5109" lon="0.65742">
        <ele>191.4</ele>
        <time>2017-01-22T09:58:16.000Z</time>
      </trkpt>
      <trkpt lat="44.5109" lon="0.65737">
        <ele>191.6</ele>
        <time>2017-01-22T09:58:17.000Z</time>
      </trkpt>
      <trkpt lat="44.5109" lon="0.65734">
        <ele>191.8</ele>
        <time>2017-01-22T09:58:18.000Z</time>
      </trkpt>
      <trkpt lat="44.5109" lon="0.65731">
        <ele>191.9</ele>
        <time>2017-01-22T09:58:19.000Z</time>
      </trkpt>
      <trkpt lat="44.5109" lon="0.65729">
        <ele>192</ele>
        <time>2017-01-22T09:58:20.000Z</time>
      </trkpt>
      <trkpt lat="44.5109" lon="0.65728">
        <ele>192.1</ele>
        <time>2017-01-22T09:58:21.000Z</time>
      </trkpt>
      <trkpt lat="44.51089" lon="0.65728">
        <ele>192.2</ele>
        <time>2017-01-22T09:58:22.000Z</time>
      </trkpt>
      <trkpt lat="44.51089" lon="0.65728">
        <ele>192.2</ele>
        <time>2017-01-22T09:58:23.000Z</time>
      </trkpt>
      <trkpt lat="44.51089" lon="0.65728">
        <ele>192.2</ele>
        <time>2017-01-22T09:58:24.000Z</time>
      </trkpt>
      <trkpt lat="44.51089" lon="0.65728">
        <ele>192.3</ele>
        <time>2017-01-22T09:58:25.000Z</time>
      </trkpt>
      <trkpt lat="44.51089" lon="0.65728">
        <ele>192.3</ele>
        <time>2017-01-22T09:58:26.000Z</time>
      </trkpt>
      <trkpt lat="44.51089" lon="0.65727">
        <ele>192.3</ele>
        <time>2017-01-22T09:58:27.000Z</time>
      </trkpt>
      <trkpt lat="44.51089" lon="0.65727">
        <ele>192.3</ele>
        <time>2017-01-22T09:58:28.000Z</time>
      </trkpt>
      <trkpt lat="44.51089" lon="0.65727">
        <ele>192.3</ele>
        <time>2017-01-22T09:58:29.000Z</time>
      </trkpt>
      <trkpt lat="44.51089" lon="0.65727">
        <ele>192.4</ele>
        <time>2017-01-22T09:58:30.000Z</time>
      </trkpt>
      <trkpt lat="44.51089" lon="0.65727">
        <ele>192.4</ele>
        <time>2017-01-22T09:58:31.000Z</time>
      </trkpt>
      <trkpt lat="44.51089" lon="0.65726">
        <ele>192.4</ele>
        <time>2017-01-22T09:58:32.000Z</time>
      </trkpt>
      <trkpt lat="44.51089" lon="0.65726">
        <ele>192.4</ele>
        <time>2017-01-22T09:58:33.000Z</time>
      </trkpt>
      <trkpt lat="44.51089" lon="0.65726">
        <ele>192.4</ele>
        <time>2017-01-22T09:58:34.000Z</time>
      </trkpt>
      <trkpt lat="44.51089" lon="0.65726">
        <ele>192.4</ele>
        <time>2017-01-22T09:58:35.000Z</time>
      </trkpt>
      <trkpt lat="44.51089" lon="0.65726">
        <ele>192.4</ele>
        <time>2017-01-22T09:58:36.000Z</time>
      </trkpt>
      <trkpt lat="44.51089" lon="0.65726">
        <ele>192.4</ele>
        <time>2017-01-22T09:58:37.000Z</time>
      </trkpt>
      <trkpt lat="44.51089" lon="0.65726">
        <ele>192.4</ele>
        <time>2017-01-22T09:58:38.000Z</time>
      </trkpt>
      <trkpt lat="44.51089" lon="0.65725">
        <ele>192.4</ele>
        <time>2017-01-22T09:58:39.000Z</time>
      </trkpt>
      <trkpt lat="44.51089" lon="0.65725">
        <ele>192.4</ele>
        <time>2017-01-22T09:58:40.000Z</time>
      </trkpt>
      <trkpt lat="44.51089" lon="0.65725">
        <ele>192.4</ele>
        <time>2017-01-22T09:58:41.000Z</time>
      </trkpt>
      <trkpt lat="44.51089" lon="0.65725">
        <ele>192.4</ele>
        <time>2017-01-22T09:58:42.000Z</time>
      </trkpt>
      <trkpt lat="44.51089" lon="0.65725">
        <ele>192.4</ele>
        <time>2017-01-22T09:58:43.000Z</time>
      </trkpt>
      <trkpt lat="44.51089" lon="0.65725">
        <ele>192.4</ele>
        <time>2017-01-22T09:58:44.000Z</time>
      </trkpt>
      <trkpt lat="44.51089" lon="0.65725">
        <ele>192.4</ele>
        <time>2017-01-22T09:58:45.000Z</time>
      </trkpt>
      <trkpt lat="44.51089" lon="0.65725">
        <ele>192.4</ele>
        <time>2017-01-22T09:58:46.000Z</time>
      </trkpt>
      <trkpt lat="44.51089" lon="0.65725">
        <ele>192.4</ele>
        <time>2017-01-22T09:58:47.000Z</time>
      </trkpt>
      <trkpt lat="44.51089" lon="0.65725">
        <ele>192.5</ele>
        <time>2017-01-22T09:58:48.000Z</time>
      </trkpt>
      <trkpt lat="44.51089" lon="0.65725">
        <ele>192.5</ele>
        <time>2017-01-22T09:58:49.000Z</time>
      </trkpt>
      <trkpt lat="44.51089" lon="0.65725">
        <ele>192.5</ele>
        <time>2017-01-22T09:58:50.000Z</time>
      </trkpt>
      <trkpt lat="44.51089" lon="0.65725">
        <ele>192.5</ele>
        <time>2017-01-22T09:58:51.000Z</time>
      </trkpt>
      <trkpt lat="44.51089" lon="0.65725">
        <ele>192.5</ele>
        <time>2017-01-22T09:58:52.000Z</time>
      </trkpt>
      <trkpt lat="44.51089" lon="0.65725">
        <ele>192.5</ele>
        <time>2017-01-22T09:58:53.000Z</time>
      </trkpt>
      <trkpt lat="44.51089" lon="0.65725">
        <ele>192.5</ele>
        <time>2017-01-22T09:58:54.000Z</time>
      </trkpt>
      <trkpt lat="44.51089" lon="0.65725">
        <ele>192.5</ele>
        <time>2017-01-22T09:58:55.000Z</time>
      </trkpt>
      <trkpt lat="44.51089" lon="0.65725">
        <ele>192.5</ele>
        <time>2017-01-22T09:58:56.000Z</time>
      </trkpt>
      <trkpt lat="44.51089" lon="0.65724">
        <ele>192.5</ele>
        <time>2017-01-22T09:58:57.000Z</time>
      </trkpt>
      <trkpt lat="44.51089" lon="0.65724">
        <ele>192.5</ele>
        <time>2017-01-22T09:58:58.000Z</time>
      </trkpt>
      <trkpt lat="44.51089" lon="0.65724">
        <ele>192.5</ele>
        <time>2017-01-22T09:58:59.000Z</time>
      </trkpt>
      <trkpt lat="44.51089" lon="0.65723">
        <ele>192.6</ele>
        <time>2017-01-22T09:59:00.000Z</time>
      </trkpt>
      <trkpt lat="44.51089" lon="0.65722">
        <ele>192.7</ele>
        <time>2017-01-22T09:59:01.000Z</time>
      </trkpt>
      <trkpt lat="44.51088" lon="0.6572">
        <ele>192.8</ele>
        <time>2017-01-22T09:59:02.000Z</time>
      </trkpt>
      <trkpt lat="44.51088" lon="0.65715">
        <ele>193</ele>
        <time>2017-01-22T09:59:03.000Z</time>
      </trkpt>
      <trkpt lat="44.51088" lon="0.65709">
        <ele>193.1</ele>
        <time>2017-01-22T09:59:04.000Z</time>
      </trkpt>
      <trkpt lat="44.51089" lon="0.65704">
        <ele>193</ele>
        <time>2017-01-22T09:59:05.000Z</time>
      </trkpt>
      <trkpt lat="44.5109" lon="0.65699">
        <ele>192.8</ele>
        <time>2017-01-22T09:59:06.000Z</time>
      </trkpt>
      <trkpt lat="44.51091" lon="0.65695">
        <ele>192.6</ele>
        <time>2017-01-22T09:59:07.000Z</time>
      </trkpt>
      <trkpt lat="44.51091" lon="0.65692">
        <ele>192.4</ele>
        <time>2017-01-22T09:59:08.000Z</time>
      </trkpt>
      <trkpt lat="44.51092" lon="0.6569">
        <ele>192.3</ele>
        <time>2017-01-22T09:59:09.000Z</time>
      </trkpt>
      <trkpt lat="44.51092" lon="0.65689">
        <ele>192.1</ele>
        <time>2017-01-22T09:59:10.000Z</time>
      </trkpt>
      <trkpt lat="44.51092" lon="0.65688">
        <ele>192.1</ele>
        <time>2017-01-22T09:59:11.000Z</time>
      </trkpt>
      <trkpt lat="44.51092" lon="0.65688">
        <ele>192.1</ele>
        <time>2017-01-22T09:59:12.000Z</time>
      </trkpt>
      <trkpt lat="44.51092" lon="0.65687">
        <ele>192.1</ele>
        <time>2017-01-22T09:59:13.000Z</time>
      </trkpt>
      <trkpt lat="44.51092" lon="0.65687">
        <ele>192.1</ele>
        <time>2017-01-22T09:59:14.000Z</time>
      </trkpt>
      <trkpt lat="44.51092" lon="0.65687">
        <ele>192.1</ele>
        <time>2017-01-22T09:59:15.000Z</time>
      </trkpt>
      <trkpt lat="44.51093" lon="0.65686">
        <ele>192.1</ele>
        <time>2017-01-22T09:59:16.000Z</time>
      </trkpt>
      <trkpt lat="44.51093" lon="0.65686">
        <ele>192</ele>
        <time>2017-01-22T09:59:17.000Z</time>
      </trkpt>
      <trkpt lat="44.51093" lon="0.65684">
        <ele>192</ele>
        <time>2017-01-22T09:59:18.000Z</time>
      </trkpt>
      <trkpt lat="44.51093" lon="0.65683">
        <ele>191.9</ele>
        <time>2017-01-22T09:59:19.000Z</time>
      </trkpt>
      <trkpt lat="44.51093" lon="0.65682">
        <ele>191.9</ele>
        <time>2017-01-22T09:59:20.000Z</time>
      </trkpt>
      <trkpt lat="44.51093" lon="0.65681">
        <ele>191.9</ele>
        <time>2017-01-22T09:59:21.000Z</time>
      </trkpt>
      <trkpt lat="44.51093" lon="0.65681">
        <ele>191.9</ele>
        <time>2017-01-22T09:59:22.000Z</time>
      </trkpt>
      <trkpt lat="44.51094" lon="0.65679">
        <ele>191.8</ele>
        <time>2017-01-22T09:59:23.000Z</time>
      </trkpt>
      <trkpt lat="44.51094" lon="0.65677">
        <ele>191.7</ele>
        <time>2017-01-22T09:59:24.000Z</time>
      </trkpt>
      <trkpt lat="44.51095" lon="0.65675">
        <ele>191.5</ele>
        <time>2017-01-22T09:59:25.000Z</time>
      </trkpt>
      <trkpt lat="44.51096" lon="0.65673">
        <ele>191.2</ele>
        <time>2017-01-22T09:59:26.000Z</time>
      </trkpt>
      <trkpt lat="44.51097" lon="0.6567">
        <ele>190.7</ele>
        <time>2017-01-22T09:59:27.000Z</time>
      </trkpt>
      <trkpt lat="44.51099" lon="0.65667">
        <ele>190.2</ele>
        <time>2017-01-22T09:59:28.000Z</time>
      </trkpt>
      <trkpt lat="44.51101" lon="0.65663">
        <ele>189.4</ele>
        <time>2017-01-22T09:59:29.000Z</time>
      </trkpt>
      <trkpt lat="44.51102" lon="0.6566">
        <ele>188.9</ele>
        <time>2017-01-22T09:59:30.000Z</time>
      </trkpt>
      <trkpt lat="44.51103" lon="0.65657">
        <ele>188.4</ele>
        <time>2017-01-22T09:59:31.000Z</time>
      </trkpt>
      <trkpt lat="44.51103" lon="0.65655">
        <ele>188.2</ele>
        <time>2017-01-22T09:59:32.000Z</time>
      </trkpt>
      <trkpt lat="44.51103" lon="0.65652">
        <ele>187.9</ele>
        <time>2017-01-22T09:59:33.000Z</time>
      </trkpt>
      <trkpt lat="44.51104" lon="0.6565">
        <ele>187.6</ele>
        <time>2017-01-22T09:59:34.000Z</time>
      </trkpt>
      <trkpt lat="44.51105" lon="0.65647">
        <ele>187.2</ele>
        <time>2017-01-22T09:59:35.000Z</time>
      </trkpt>
      <trkpt lat="44.51106" lon="0.65645">
        <ele>186.7</ele>
        <time>2017-01-22T09:59:36.000Z</time>
      </trkpt>
      <trkpt lat="44.51107" lon="0.65642">
        <ele>186.2</ele>
        <time>2017-01-22T09:59:37.000Z</time>
      </trkpt>
      <trkpt lat="44.51108" lon="0.6564">
        <ele>185.7</ele>
        <time>2017-01-22T09:59:38.000Z</time>
      </trkpt>
      <trkpt lat="44.51109" lon="0.65638">
        <ele>185.3</ele>
        <time>2017-01-22T09:59:39.000Z</time>
      </trkpt>
      <trkpt lat="44.5111" lon="0.65637">
        <ele>185</ele>
        <time>2017-01-22T09:59:40.000Z</time>
      </trkpt>
      <trkpt lat="44.5111" lon="0.65636">
        <ele>184.8</ele>
        <time>2017-01-22T09:59:41.000Z</time>
      </trkpt>
      <trkpt lat="44.5111" lon="0.65635">
        <ele>184.8</ele>
        <time>2017-01-22T09:59:42.000Z</time>
      </trkpt>
      <trkpt lat="44.5111" lon="0.65635">
        <ele>184.7</ele>
        <time>2017-01-22T09:59:43.000Z</time>
      </trkpt>
      <trkpt lat="44.5111" lon="0.65635">
        <ele>184.7</ele>
        <time>2017-01-22T09:59:44.000Z</time>
      </trkpt>
      <trkpt lat="44.5111" lon="0.65634">
        <ele>184.7</ele>
        <time>2017-01-22T09:59:45.000Z</time>
      </trkpt>
      <trkpt lat="44.5111" lon="0.65634">
        <ele>184.7</ele>
        <time>2017-01-22T09:59:46.000Z</time>
      </trkpt>
      <trkpt lat="44.5111" lon="0.65634">
        <ele>184.7</ele>
        <time>2017-01-22T09:59:47.000Z</time>
      </trkpt>
      <trkpt lat="44.5111" lon="0.65634">
        <ele>184.7</ele>
        <time>2017-01-22T09:59:48.000Z</time>
      </trkpt>
      <trkpt lat="44.5111" lon="0.65634">
        <ele>184.6</ele>
        <time>2017-01-22T09:59:49.000Z</time>
      </trkpt>
      <trkpt lat="44.51111" lon="0.65634">
        <ele>184.6</ele>
        <time>2017-01-22T09:59:50.000Z</time>
      </trkpt>
      <trkpt lat="44.51111" lon="0.65634">
        <ele>184.5</ele>
        <time>2017-01-22T09:59:51.000Z</time>
      </trkpt>
      <trkpt lat="44.51111" lon="0.65633">
        <ele>184.4</ele>
        <time>2017-01-22T09:59:52.000Z</time>
      </trkpt>
      <trkpt lat="44.51111" lon="0.65632">
        <ele>184.2</ele>
        <time>2017-01-22T09:59:53.000Z</time>
      </trkpt>
      <trkpt lat="44.51112" lon="0.65631">
        <ele>183.8</ele>
        <time>2017-01-22T09:59:54.000Z</time>
      </trkpt>
      <trkpt lat="44.51114" lon="0.6563">
        <ele>183.3</ele>
        <time>2017-01-22T09:59:55.000Z</time>
      </trkpt>
      <trkpt lat="44.51115" lon="0.65628">
        <ele>182.7</ele>
        <time>2017-01-22T09:59:56.000Z</time>
      </trkpt>
      <trkpt lat="44.51117" lon="0.65625">
        <ele>182.2</ele>
        <time>2017-01-22T09:59:57.000Z</time>
      </trkpt>
      <trkpt lat="44.51118" lon="0.65621">
        <ele>181.5</ele>
        <time>2017-01-22T09:59:58.000Z</time>
      </trkpt>
      <trkpt lat="44.5112" lon="0.65617">
        <ele>180.9</ele>
        <time>2017-01-22T09:59:59.000Z</time>
      </trkpt>
      <trkpt lat="44.51121" lon="0.65612">
        <ele>180.2</ele>
        <time>2017-01-22T10:00:00.000Z</time>
      </trkpt>
      <trkpt lat="44.51123" lon="0.65606">
        <ele>179.4</ele>
        <time>2017-01-22T10:00:01.000Z</time>
      </trkpt>
      <trkpt lat="44.51124" lon="0.656">
        <ele>178.7</ele>
        <time>2017-01-22T10:00:02.000Z</time>
      </trkpt>
      <trkpt lat="44.51125" lon="0.65594">
        <ele>178.2</ele>
        <time>2017-01-22T10:00:03.000Z</time>
      </trkpt>
      <trkpt lat="44.51125" lon="0.65588">
        <ele>178.1</ele>
        <time>2017-01-22T10:00:04.000Z</time>
      </trkpt>
      <trkpt lat="44.51123" lon="0.65582">
        <ele>178.5</ele>
        <time>2017-01-22T10:00:05.000Z</time>
      </trkpt>
      <trkpt lat="44.5112" lon="0.65578">
        <ele>179</ele>
        <time>2017-01-22T10:00:06.000Z</time>
      </trkpt>
      <trkpt lat="44.51117" lon="0.65573">
        <ele>179.6</ele>
        <time>2017-01-22T10:00:07.000Z</time>
      </trkpt>
      <trkpt lat="44.51114" lon="0.65569">
        <ele>180.3</ele>
        <time>2017-01-22T10:00:08.000Z</time>
      </trkpt>
      <trkpt lat="44.5111" lon="0.65566">
        <ele>180.8</ele>
        <time>2017-01-22T10:00:09.000Z</time>
      </trkpt>
      <trkpt lat="44.51107" lon="0.65562">
        <ele>181.4</ele>
        <time>2017-01-22T10:00:10.000Z</time>
      </trkpt>
      <trkpt lat="44.51105" lon="0.65559">
        <ele>181.9</ele>
        <time>2017-01-22T10:00:11.000Z</time>
      </trkpt>
      <trkpt lat="44.51102" lon="0.65557">
        <ele>182.4</ele>
        <time>2017-01-22T10:00:12.000Z</time>
      </trkpt>
      <trkpt lat="44.511" lon="0.65555">
        <ele>182.9</ele>
        <time>2017-01-22T10:00:13.000Z</time>
      </trkpt>
      <trkpt lat="44.51098" lon="0.65553">
        <ele>183.3</ele>
        <time>2017-01-22T10:00:14.000Z</time>
      </trkpt>
      <trkpt lat="44.51097" lon="0.65552">
        <ele>183.6</ele>
        <time>2017-01-22T10:00:15.000Z</time>
      </trkpt>
      <trkpt lat="44.51095" lon="0.6555">
        <ele>184</ele>
        <time>2017-01-22T10:00:16.000Z</time>
      </trkpt>
      <trkpt lat="44.51094" lon="0.65549">
        <ele>184.3</ele>
        <time>2017-01-22T10:00:17.000Z</time>
      </trkpt>
      <trkpt lat="44.51092" lon="0.65548">
        <ele>184.6</ele>
        <time>2017-01-22T10:00:18.000Z</time>
      </trkpt>
      <trkpt lat="44.51091" lon="0.65547">
        <ele>184.9</ele>
        <time>2017-01-22T10:00:19.000Z</time>
      </trkpt>
      <trkpt lat="44.5109" lon="0.65547">
        <ele>185.2</ele>
        <time>2017-01-22T10:00:20.000Z</time>
      </trkpt>
      <trkpt lat="44.51088" lon="0.65546">
        <ele>185.5</ele>
        <time>2017-01-22T10:00:21.000Z</time>
      </trkpt>
      <trkpt lat="44.51087" lon="0.65545">
        <ele>185.7</ele>
        <time>2017-01-22T10:00:22.000Z</time>
      </trkpt>
      <trkpt lat="44.51086" lon="0.65544">
        <ele>186</ele>
        <time>2017-01-22T10:00:23.000Z</time>
      </trkpt>
      <trkpt lat="44.51085" lon="0.65543">
        <ele>186.2</ele>
        <time>2017-01-22T10:00:24.000Z</time>
      </trkpt>
      <trkpt lat="44.51084" lon="0.65542">
        <ele>186.4</ele>
        <time>2017-01-22T10:00:25.000Z</time>
      </trkpt>
      <trkpt lat="44.51083" lon="0.65542">
        <ele>186.7</ele>
        <time>2017-01-22T10:00:26.000Z</time>
      </trkpt>
      <trkpt lat="44.51082" lon="0.65541">
        <ele>186.9</ele>
        <time>2017-01-22T10:00:27.000Z</time>
      </trkpt>
      <trkpt lat="44.51081" lon="0.6554">
        <ele>187.1</ele>
        <time>2017-01-22T10:00:28.000Z</time>
      </trkpt>
      <trkpt lat="44.5108" lon="0.6554">
        <ele>187.3</ele>
        <time>2017-01-22T10:00:29.000Z</time>
      </trkpt>
      <trkpt lat="44.51079" lon="0.65539">
        <ele>187.5</ele>
        <time>2017-01-22T10:00:30.000Z</time>
      </trkpt>
      <trkpt lat="44.51078" lon="0.65538">
        <ele>187.8</ele>
        <time>2017-01-22T10:00:31.000Z</time>
      </trkpt>
      <trkpt lat="44.51077" lon="0.65538">
        <ele>187.9</ele>
        <time>2017-01-22T10:00:32.000Z</time>
      </trkpt>
      <trkpt lat="44.51076" lon="0.65538">
        <ele>188.1</ele>
        <time>2017-01-22T10:00:33.000Z</time>
      </trkpt>
      <trkpt lat="44.51076" lon="0.65537">
        <ele>188.3</ele>
        <time>2017-01-22T10:00:34.000Z</time>
      </trkpt>
      <trkpt lat="44.51075" lon="0.65537">
        <ele>188.4</ele>
        <time>2017-01-22T10:00:35.000Z</time>
      </trkpt>
      <trkpt lat="44.51075" lon="0.65537">
        <ele>188.5</ele>
        <time>2017-01-22T10:00:36.000Z</time>
      </trkpt>
      <trkpt lat="44.51074" lon="0.65536">
        <ele>188.6</ele>
        <time>2017-01-22T10:00:37.000Z</time>
      </trkpt>
      <trkpt lat="44.51074" lon="0.65536">
        <ele>188.7</ele>
        <time>2017-01-22T10:00:38.000Z</time>
      </trkpt>
      <trkpt lat="44.51073" lon="0.65536">
        <ele>188.9</ele>
        <time>2017-01-22T10:00:39.000Z</time>
      </trkpt>
      <trkpt lat="44.51072" lon="0.65535">
        <ele>189</ele>
        <time>2017-01-22T10:00:40.000Z</time>
      </trkpt>
      <trkpt lat="44.51071" lon="0.65534">
        <ele>189.3</ele>
        <time>2017-01-22T10:00:41.000Z</time>
      </trkpt>
      <trkpt lat="44.5107" lon="0.65533">
        <ele>189.5</ele>
        <time>2017-01-22T10:00:42.000Z</time>
      </trkpt>
      <trkpt lat="44.51069" lon="0.65532">
        <ele>189.8</ele>
        <time>2017-01-22T10:00:43.000Z</time>
      </trkpt>
      <trkpt lat="44.51068" lon="0.65531">
        <ele>190</ele>
        <time>2017-01-22T10:00:44.000Z</time>
      </trkpt>
      <trkpt lat="44.51067" lon="0.65529">
        <ele>190.1</ele>
        <time>2017-01-22T10:00:45.000Z</time>
      </trkpt>
      <trkpt lat="44.51066" lon="0.65528">
        <ele>190.2</ele>
        <time>2017-01-22T10:00:46.000Z</time>
      </trkpt>
      <trkpt lat="44.51065" lon="0.65527">
        <ele>190.3</ele>
        <time>2017-01-22T10:00:47.000Z</time>
      </trkpt>
      <trkpt lat="44.51065" lon="0.65526">
        <ele>190.4</ele>
        <time>2017-01-22T10:00:48.000Z</time>
      </trkpt>
      <trkpt lat="44.51064" lon="0.65524">
        <ele>190.5</ele>
        <time>2017-01-22T10:00:49.000Z</time>
      </trkpt>
      <trkpt lat="44.51063" lon="0.65523">
        <ele>190.6</ele>
        <time>2017-01-22T10:00:50.000Z</time>
      </trkpt>
      <trkpt lat="44.51062" lon="0.65522">
        <ele>190.7</ele>
        <time>2017-01-22T10:00:51.000Z</time>
      </trkpt>
      <trkpt lat="44.51061" lon="0.6552">
        <ele>190.9</ele>
        <time>2017-01-22T10:00:52.000Z</time>
      </trkpt>
      <trkpt lat="44.5106" lon="0.65518">
        <ele>191</ele>
        <time>2017-01-22T10:00:53.000Z</time>
      </trkpt>
      <trkpt lat="44.51059" lon="0.65516">
        <ele>191</ele>
        <time>2017-01-22T10:00:54.000Z</time>
      </trkpt>
      <trkpt lat="44.51058" lon="0.65514">
        <ele>191.1</ele>
        <time>2017-01-22T10:00:55.000Z</time>
      </trkpt>
      <trkpt lat="44.51058" lon="0.65511">
        <ele>191.2</ele>
        <time>2017-01-22T10:00:56.000Z</time>
      </trkpt>
      <trkpt lat="44.51057" lon="0.65509">
        <ele>191.2</ele>
        <time>2017-01-22T10:00:57.000Z</time>
      </trkpt>
      <trkpt lat="44.51056" lon="0.65506">
        <ele>191.2</ele>
        <time>2017-01-22T10:00:58.000Z</time>
      </trkpt>
      <trkpt lat="44.51055" lon="0.65503">
        <ele>191.2</ele>
        <time>2017-01-22T10:00:59.000Z</time>
      </trkpt>
      <trkpt lat="44.51054" lon="0.65501">
        <ele>191.3</ele>
        <time>2017-01-22T10:01:00.000Z</time>
      </trkpt>
      <trkpt lat="44.51053" lon="0.65498">
        <ele>191.3</ele>
        <time>2017-01-22T10:01:01.000Z</time>
      </trkpt>
      <trkpt lat="44.51052" lon="0.65495">
        <ele>191.5</ele>
        <time>2017-01-22T10:01:02.000Z</time>
      </trkpt>
      <trkpt lat="44.51051" lon="0.65492">
        <ele>191.6</ele>
        <time>2017-01-22T10:01:03.000Z</time>
      </trkpt>
      <trkpt lat="44.51049" lon="0.6549">
        <ele>191.7</ele>
        <time>2017-01-22T10:01:04.000Z</time>
      </trkpt>
      <trkpt lat="44.51048" lon="0.65487">
        <ele>191.9</ele>
        <time>2017-01-22T10:01:05.000Z</time>
      </trkpt>
      <trkpt lat="44.51047" lon="0.65485">
        <ele>192.1</ele>
        <time>2017-01-22T10:01:06.000Z</time>
      </trkpt>
      <trkpt lat="44.51045" lon="0.65482">
        <ele>192.3</ele>
        <time>2017-01-22T10:01:07.000Z</time>
      </trkpt>
      <trkpt lat="44.51044" lon="0.65478">
        <ele>192.4</ele>
        <time>2017-01-22T10:01:08.000Z</time>
      </trkpt>
      <trkpt lat="44.51043" lon="0.65473">
        <ele>192.5</ele>
        <time>2017-01-22T10:01:09.000Z</time>
      </trkpt>
      <trkpt lat="44.51041" lon="0.65467">
        <ele>192.5</ele>
        <time>2017-01-22T10:01:10.000Z</time>
      </trkpt>
      <trkpt lat="44.51039" lon="0.65461">
        <ele>192.4</ele>
        <time>2017-01-22T10:01:11.000Z</time>
      </trkpt>
      <trkpt lat="44.51038" lon="0.65454">
        <ele>192.4</ele>
        <time>2017-01-22T10:01:12.000Z</time>
      </trkpt>
      <trkpt lat="44.51036" lon="0.65447">
        <ele>192.6</ele>
        <time>2017-01-22T10:01:13.000Z</time>
      </trkpt>
      <trkpt lat="44.51033" lon="0.65442">
        <ele>192.9</ele>
        <time>2017-01-22T10:01:14.000Z</time>
      </trkpt>
      <trkpt lat="44.51031" lon="0.65437">
        <ele>193.4</ele>
        <time>2017-01-22T10:01:15.000Z</time>
      </trkpt>
      <trkpt lat="44.51028" lon="0.65433">
        <ele>193.8</ele>
        <time>2017-01-22T10:01:16.000Z</time>
      </trkpt>
      <trkpt lat="44.51026" lon="0.65428">
        <ele>194.2</ele>
        <time>2017-01-22T10:01:17.000Z</time>
      </trkpt>
      <trkpt lat="44.51024" lon="0.65424">
        <ele>194.4</ele>
        <time>2017-01-22T10:01:18.000Z</time>
      </trkpt>
      <trkpt lat="44.51023" lon="0.65419">
        <ele>194.3</ele>
        <time>2017-01-22T10:01:19.000Z</time>
      </trkpt>
      <trkpt lat="44.51023" lon="0.65413">
        <ele>194.3</ele>
        <time>2017-01-22T10:01:20.000Z</time>
      </trkpt>
      <trkpt lat="44.51023" lon="0.65407">
        <ele>194.2</ele>
        <time>2017-01-22T10:01:21.000Z</time>
      </trkpt>
      <trkpt lat="44.51023" lon="0.65401">
        <ele>193.9</ele>
        <time>2017-01-22T10:01:22.000Z</time>
      </trkpt>
      <trkpt lat="44.51024" lon="0.65395">
        <ele>193.6</ele>
        <time>2017-01-22T10:01:23.000Z</time>
      </trkpt>
      <trkpt lat="44.51024" lon="0.65388">
        <ele>193.2</ele>
        <time>2017-01-22T10:01:24.000Z</time>
      </trkpt>
      <trkpt lat="44.51025" lon="0.65382">
        <ele>192.9</ele>
        <time>2017-01-22T10:01:25.000Z</time>
      </trkpt>
      <trkpt lat="44.51026" lon="0.65376">
        <ele>192.5</ele>
        <time>2017-01-22T10:01:26.000Z</time>
      </trkpt>
      <trkpt lat="44.51026" lon="0.65369">
        <ele>192.3</ele>
        <time>2017-01-22T10:01:27.000Z</time>
      </trkpt>
      <trkpt lat="44.51026" lon="0.65362">
        <ele>192.1</ele>
        <time>2017-01-22T10:01:28.000Z</time>
      </trkpt>
      <trkpt lat="44.51026" lon="0.65356">
        <ele>192</ele>
        <time>2017-01-22T10:01:29.000Z</time>
      </trkpt>
      <trkpt lat="44.51026" lon="0.65349">
        <ele>191.9</ele>
        <time>2017-01-22T10:01:30.000Z</time>
      </trkpt>
      <trkpt lat="44.51025" lon="0.65341">
        <ele>191.9</ele>
        <time>2017-01-22T10:01:31.000Z</time>
      </trkpt>
      <trkpt lat="44.51025" lon="0.65334">
        <ele>191.7</ele>
        <time>2017-01-22T10:01:32.000Z</time>
      </trkpt>
      <trkpt lat="44.51025" lon="0.65327">
        <ele>191.7</ele>
        <time>2017-01-22T10:01:33.000Z</time>
      </trkpt>
      <trkpt lat="44.51025" lon="0.6532">
        <ele>191.7</ele>
        <time>2017-01-22T10:01:34.000Z</time>
      </trkpt>
      <trkpt lat="44.51026" lon="0.65313">
        <ele>191.5</ele>
        <time>2017-01-22T10:01:35.000Z</time>
      </trkpt>
      <trkpt lat="44.51027" lon="0.65307">
        <ele>191.2</ele>
        <time>2017-01-22T10:01:36.000Z</time>
      </trkpt>
      <trkpt lat="44.51028" lon="0.65302">
        <ele>190.8</ele>
        <time>2017-01-22T10:01:37.000Z</time>
      </trkpt>
      <trkpt lat="44.51029" lon="0.65297">
        <ele>190.4</ele>
        <time>2017-01-22T10:01:38.000Z</time>
      </trkpt>
      <trkpt lat="44.5103" lon="0.65294">
        <ele>190.1</ele>
        <time>2017-01-22T10:01:39.000Z</time>
      </trkpt>
      <trkpt lat="44.5103" lon="0.65292">
        <ele>189.8</ele>
        <time>2017-01-22T10:01:40.000Z</time>
      </trkpt>
      <trkpt lat="44.51031" lon="0.65291">
        <ele>189.7</ele>
        <time>2017-01-22T10:01:41.000Z</time>
      </trkpt>
      <trkpt lat="44.51031" lon="0.65291">
        <ele>189.7</ele>
        <time>2017-01-22T10:01:42.000Z</time>
      </trkpt>
      <trkpt lat="44.5103" lon="0.65291">
        <ele>189.7</ele>
        <time>2017-01-22T10:01:43.000Z</time>
      </trkpt>
      <trkpt lat="44.5103" lon="0.65292">
        <ele>189.8</ele>
        <time>2017-01-22T10:01:44.000Z</time>
      </trkpt>
      <trkpt lat="44.5103" lon="0.65292">
        <ele>189.8</ele>
        <time>2017-01-22T10:01:45.000Z</time>
      </trkpt>
      <trkpt lat="44.51031" lon="0.65291">
        <ele>189.7</ele>
        <time>2017-01-22T10:01:46.000Z</time>
      </trkpt>
      <trkpt lat="44.51031" lon="0.6529">
        <ele>189.6</ele>
        <time>2017-01-22T10:01:47.000Z</time>
      </trkpt>
      <trkpt lat="44.51031" lon="0.65288">
        <ele>189.4</ele>
        <time>2017-01-22T10:01:48.000Z</time>
      </trkpt>
      <trkpt lat="44.51031" lon="0.65286">
        <ele>189.4</ele>
        <time>2017-01-22T10:01:49.000Z</time>
      </trkpt>
      <trkpt lat="44.51031" lon="0.65284">
        <ele>189.4</ele>
        <time>2017-01-22T10:01:50.000Z</time>
      </trkpt>
      <trkpt lat="44.51031" lon="0.65281">
        <ele>189.5</ele>
        <time>2017-01-22T10:01:51.000Z</time>
      </trkpt>
      <trkpt lat="44.51031" lon="0.65278">
        <ele>189.7</ele>
        <time>2017-01-22T10:01:52.000Z</time>
      </trkpt>
      <trkpt lat="44.5103" lon="0.65276">
        <ele>189.9</ele>
        <time>2017-01-22T10:01:53.000Z</time>
      </trkpt>
      <trkpt lat="44.5103" lon="0.65273">
        <ele>190.1</ele>
        <time>2017-01-22T10:01:54.000Z</time>
      </trkpt>
      <trkpt lat="44.51029" lon="0.6527">
        <ele>190.3</ele>
        <time>2017-01-22T10:01:55.000Z</time>
      </trkpt>
      <trkpt lat="44.51029" lon="0.65267">
        <ele>190.5</ele>
        <time>2017-01-22T10:01:56.000Z</time>
      </trkpt>
      <trkpt lat="44.51029" lon="0.65264">
        <ele>190.6</ele>
        <time>2017-01-22T10:01:57.000Z</time>
      </trkpt>
      <trkpt lat="44.51028" lon="0.65261">
        <ele>190.7</ele>
        <time>2017-01-22T10:01:58.000Z</time>
      </trkpt>
      <trkpt lat="44.51028" lon="0.65258">
        <ele>190.8</ele>
        <time>2017-01-22T10:01:59.000Z</time>
      </trkpt>
      <trkpt lat="44.51028" lon="0.65255">
        <ele>190.9</ele>
        <time>2017-01-22T10:02:00.000Z</time>
      </trkpt>
      <trkpt lat="44.51028" lon="0.65252">
        <ele>191</ele>
        <time>2017-01-22T10:02:01.000Z</time>
      </trkpt>
      <trkpt lat="44.51028" lon="0.65249">
        <ele>191.1</ele>
        <time>2017-01-22T10:02:02.000Z</time>
      </trkpt>
      <trkpt lat="44.51028" lon="0.65246">
        <ele>191.1</ele>
        <time>2017-01-22T10:02:03.000Z</time>
      </trkpt>
      <trkpt lat="44.51028" lon="0.65243">
        <ele>191.1</ele>
        <time>2017-01-22T10:02:04.000Z</time>
      </trkpt>
      <trkpt lat="44.51028" lon="0.65241">
        <ele>191</ele>
        <time>2017-01-22T10:02:05.000Z</time>
      </trkpt>
      <trkpt lat="44.51028" lon="0.65238">
        <ele>190.8</ele>
        <time>2017-01-22T10:02:06.000Z</time>
      </trkpt>
      <trkpt lat="44.51029" lon="0.65236">
        <ele>190.5</ele>
        <time>2017-01-22T10:02:07.000Z</time>
      </trkpt>
      <trkpt lat="44.51029" lon="0.65233">
        <ele>190.3</ele>
        <time>2017-01-22T10:02:08.000Z</time>
      </trkpt>
      <trkpt lat="44.5103" lon="0.65231">
        <ele>189.9</ele>
        <time>2017-01-22T10:02:09.000Z</time>
      </trkpt>
      <trkpt lat="44.51031" lon="0.65228">
        <ele>189.5</ele>
        <time>2017-01-22T10:02:10.000Z</time>
      </trkpt>
      <trkpt lat="44.51032" lon="0.65225">
        <ele>189.1</ele>
        <time>2017-01-22T10:02:11.000Z</time>
      </trkpt>
      <trkpt lat="44.51033" lon="0.65222">
        <ele>188.7</ele>
        <time>2017-01-22T10:02:12.000Z</time>
      </trkpt>
      <trkpt lat="44.51034" lon="0.65218">
        <ele>188.3</ele>
        <time>2017-01-22T10:02:13.000Z</time>
      </trkpt>
      <trkpt lat="44.51034" lon="0.65214">
        <ele>188.1</ele>
        <time>2017-01-22T10:02:14.000Z</time>
      </trkpt>
      <trkpt lat="44.51034" lon="0.65211">
        <ele>188</ele>
        <time>2017-01-22T10:02:15.000Z</time>
      </trkpt>
      <trkpt lat="44.51034" lon="0.65208">
        <ele>188</ele>
        <time>2017-01-22T10:02:16.000Z</time>
      </trkpt>
      <trkpt lat="44.51034" lon="0.65205">
        <ele>188</ele>
        <time>2017-01-22T10:02:17.000Z</time>
      </trkpt>
      <trkpt lat="44.51034" lon="0.65202">
        <ele>188</ele>
        <time>2017-01-22T10:02:18.000Z</time>
      </trkpt>
      <trkpt lat="44.51034" lon="0.652">
        <ele>188.1</ele>
        <time>2017-01-22T10:02:19.000Z</time>
      </trkpt>
      <trkpt lat="44.51034" lon="0.65197">
        <ele>188.1</ele>
        <time>2017-01-22T10:02:20.000Z</time>
      </trkpt>
      <trkpt lat="44.51034" lon="0.65194">
        <ele>188.2</ele>
        <time>2017-01-22T10:02:21.000Z</time>
      </trkpt>
      <trkpt lat="44.51034" lon="0.65192">
        <ele>188.2</ele>
        <time>2017-01-22T10:02:22.000Z</time>
      </trkpt>
      <trkpt lat="44.51033" lon="0.65189">
        <ele>188.3</ele>
        <time>2017-01-22T10:02:23.000Z</time>
      </trkpt>
      <trkpt lat="44.51033" lon="0.65187">
        <ele>188.3</ele>
        <time>2017-01-22T10:02:24.000Z</time>
      </trkpt>
      <trkpt lat="44.51033" lon="0.65185">
        <ele>188.3</ele>
        <time>2017-01-22T10:02:25.000Z</time>
      </trkpt>
      <trkpt lat="44.51033" lon="0.65182">
        <ele>188.3</ele>
        <time>2017-01-22T10:02:26.000Z</time>
      </trkpt>
      <trkpt lat="44.51033" lon="0.6518">
        <ele>188.3</ele>
        <time>2017-01-22T10:02:27.000Z</time>
      </trkpt>
      <trkpt lat="44.51033" lon="0.65177">
        <ele>188.3</ele>
        <time>2017-01-22T10:02:28.000Z</time>
      </trkpt>
      <trkpt lat="44.51033" lon="0.65175">
        <ele>188.3</ele>
        <time>2017-01-22T10:02:29.000Z</time>
      </trkpt>
      <trkpt lat="44.51033" lon="0.65173">
        <ele>188.2</ele>
        <time>2017-01-22T10:02:30.000Z</time>
      </trkpt>
      <trkpt lat="44.51033" lon="0.6517">
        <ele>188.2</ele>
        <time>2017-01-22T10:02:31.000Z</time>
      </trkpt>
      <trkpt lat="44.51033" lon="0.65168">
        <ele>188.2</ele>
        <time>2017-01-22T10:02:32.000Z</time>
      </trkpt>
      <trkpt lat="44.51033" lon="0.65165">
        <ele>188.3</ele>
        <time>2017-01-22T10:02:33.000Z</time>
      </trkpt>
      <trkpt lat="44.51033" lon="0.65163">
        <ele>188.4</ele>
        <time>2017-01-22T10:02:34.000Z</time>
      </trkpt>
      <trkpt lat="44.51033" lon="0.65161">
        <ele>188.6</ele>
        <time>2017-01-22T10:02:35.000Z</time>
      </trkpt>
      <trkpt lat="44.51033" lon="0.65158">
        <ele>188.8</ele>
        <time>2017-01-22T10:02:36.000Z</time>
      </trkpt>
      <trkpt lat="44.51032" lon="0.65156">
        <ele>189</ele>
        <time>2017-01-22T10:02:37.000Z</time>
      </trkpt>
      <trkpt lat="44.51032" lon="0.65154">
        <ele>189.3</ele>
        <time>2017-01-22T10:02:38.000Z</time>
      </trkpt>
      <trkpt lat="44.51032" lon="0.65151">
        <ele>189.5</ele>
        <time>2017-01-22T10:02:39.000Z</time>
      </trkpt>
      <trkpt lat="44.51031" lon="0.65149">
        <ele>189.7</ele>
        <time>2017-01-22T10:02:40.000Z</time>
      </trkpt>
      <trkpt lat="44.51031" lon="0.65146">
        <ele>189.9</ele>
        <time>2017-01-22T10:02:41.000Z</time>
      </trkpt>
      <trkpt lat="44.51031" lon="0.65144">
        <ele>190</ele>
        <time>2017-01-22T10:02:42.000Z</time>
      </trkpt>
      <trkpt lat="44.51031" lon="0.65141">
        <ele>190.1</ele>
        <time>2017-01-22T10:02:43.000Z</time>
      </trkpt>
      <trkpt lat="44.51031" lon="0.65138">
        <ele>190.2</ele>
        <time>2017-01-22T10:02:44.000Z</time>
      </trkpt>
      <trkpt lat="44.51031" lon="0.65136">
        <ele>190.2</ele>
        <time>2017-01-22T10:02:45.000Z</time>
      </trkpt>
      <trkpt lat="44.51032" lon="0.65133">
        <ele>190.1</ele>
        <time>2017-01-22T10:02:46.000Z</time>
      </trkpt>
      <trkpt lat="44.51032" lon="0.6513">
        <ele>190.1</ele>
        <time>2017-01-22T10:02:47.000Z</time>
      </trkpt>
      <trkpt lat="44.51032" lon="0.65127">
        <ele>190.1</ele>
        <time>2017-01-22T10:02:48.000Z</time>
      </trkpt>
      <trkpt lat="44.51033" lon="0.65124">
        <ele>190</ele>
        <time>2017-01-22T10:02:49.000Z</time>
      </trkpt>
      <trkpt lat="44.51033" lon="0.65121">
        <ele>190</ele>
        <time>2017-01-22T10:02:50.000Z</time>
      </trkpt>
      <trkpt lat="44.51033" lon="0.65118">
        <ele>190</ele>
        <time>2017-01-22T10:02:51.000Z</time>
      </trkpt>
      <trkpt lat="44.51034" lon="0.65115">
        <ele>190</ele>
        <time>2017-01-22T10:02:52.000Z</time>
      </trkpt>
      <trkpt lat="44.51034" lon="0.65112">
        <ele>190</ele>
        <time>2017-01-22T10:02:53.000Z</time>
      </trkpt>
      <trkpt lat="44.51034" lon="0.65109">
        <ele>190.1</ele>
        <time>2017-01-22T10:02:54.000Z</time>
      </trkpt>
      <trkpt lat="44.51034" lon="0.65106">
        <ele>190.2</ele>
        <time>2017-01-22T10:02:55.000Z</time>
      </trkpt>
      <trkpt lat="44.51034" lon="0.65103">
        <ele>190.4</ele>
        <time>2017-01-22T10:02:56.000Z</time>
      </trkpt>
      <trkpt lat="44.51034" lon="0.651">
        <ele>190.5</ele>
        <time>2017-01-22T10:02:57.000Z</time>
      </trkpt>
      <trkpt lat="44.51034" lon="0.65097">
        <ele>190.6</ele>
        <time>2017-01-22T10:02:58.000Z</time>
      </trkpt>
      <trkpt lat="44.51033" lon="0.65095">
        <ele>190.8</ele>
        <time>2017-01-22T10:02:59.000Z</time>
      </trkpt>
      <trkpt lat="44.51033" lon="0.65092">
        <ele>190.9</ele>
        <time>2017-01-22T10:03:00.000Z</time>
      </trkpt>
      <trkpt lat="44.51033" lon="0.65089">
        <ele>191</ele>
        <time>2017-01-22T10:03:01.000Z</time>
      </trkpt>
      <trkpt lat="44.51033" lon="0.65086">
        <ele>191.1</ele>
        <time>2017-01-22T10:03:02.000Z</time>
      </trkpt>
      <trkpt lat="44.51033" lon="0.65084">
        <ele>191.2</ele>
        <time>2017-01-22T10:03:03.000Z</time>
      </trkpt>
      <trkpt lat="44.51033" lon="0.65081">
        <ele>191.4</ele>
        <time>2017-01-22T10:03:04.000Z</time>
      </trkpt>
      <trkpt lat="44.51033" lon="0.65079">
        <ele>191.7</ele>
        <time>2017-01-22T10:03:05.000Z</time>
      </trkpt>
      <trkpt lat="44.51033" lon="0.65077">
        <ele>191.9</ele>
        <time>2017-01-22T10:03:06.000Z</time>
      </trkpt>
      <trkpt lat="44.51033" lon="0.65074">
        <ele>192.2</ele>
        <time>2017-01-22T10:03:07.000Z</time>
      </trkpt>
      <trkpt lat="44.51033" lon="0.65072">
        <ele>192.4</ele>
        <time>2017-01-22T10:03:08.000Z</time>
      </trkpt>
      <trkpt lat="44.51033" lon="0.6507">
        <ele>192.6</ele>
        <time>2017-01-22T10:03:09.000Z</time>
      </trkpt>
      <trkpt lat="44.51033" lon="0.65068">
        <ele>192.8</ele>
        <time>2017-01-22T10:03:10.000Z</time>
      </trkpt>
      <trkpt lat="44.51033" lon="0.65066">
        <ele>193</ele>
        <time>2017-01-22T10:03:11.000Z</time>
      </trkpt>
      <trkpt lat="44.51033" lon="0.65063">
        <ele>193.2</ele>
        <time>2017-01-22T10:03:12.000Z</time>
      </trkpt>
      <trkpt lat="44.51034" lon="0.65061">
        <ele>193.4</ele>
        <time>2017-01-22T10:03:13.000Z</time>
      </trkpt>
      <trkpt lat="44.51034" lon="0.65058">
        <ele>193.6</ele>
        <time>2017-01-22T10:03:14.000Z</time>
      </trkpt>
      <trkpt lat="44.51034" lon="0.65056">
        <ele>193.8</ele>
        <time>2017-01-22T10:03:15.000Z</time>
      </trkpt>
      <trkpt lat="44.51034" lon="0.65053">
        <ele>194</ele>
        <time>2017-01-22T10:03:16.000Z</time>
      </trkpt>
      <trkpt lat="44.51034" lon="0.65051">
        <ele>194.2</ele>
        <time>2017-01-22T10:03:17.000Z</time>
      </trkpt>
      <trkpt lat="44.51034" lon="0.65048">
        <ele>194.5</ele>
        <time>2017-01-22T10:03:18.000Z</time>
      </trkpt>
      <trkpt lat="44.51034" lon="0.65045">
        <ele>194.7</ele>
        <time>2017-01-22T10:03:19.000Z</time>
      </trkpt>
      <trkpt lat="44.51034" lon="0.65042">
        <ele>195</ele>
        <time>2017-01-22T10:03:20.000Z</time>
      </trkpt>
      <trkpt lat="44.51035" lon="0.65039">
        <ele>195.2</ele>
        <time>2017-01-22T10:03:21.000Z</time>
      </trkpt>
      <trkpt lat="44.51035" lon="0.65037">
        <ele>195.5</ele>
        <time>2017-01-22T10:03:22.000Z</time>
      </trkpt>
      <trkpt lat="44.51035" lon="0.65034">
        <ele>195.8</ele>
        <time>2017-01-22T10:03:23.000Z</time>
      </trkpt>
      <trkpt lat="44.51035" lon="0.65031">
        <ele>196</ele>
        <time>2017-01-22T10:03:24.000Z</time>
      </trkpt>
      <trkpt lat="44.51035" lon="0.65028">
        <ele>196.3</ele>
        <time>2017-01-22T10:03:25.000Z</time>
      </trkpt>
      <trkpt lat="44.51035" lon="0.65026">
        <ele>196.6</ele>
        <time>2017-01-22T10:03:26.000Z</time>
      </trkpt>
      <trkpt lat="44.51035" lon="0.65023">
        <ele>196.8</ele>
        <time>2017-01-22T10:03:27.000Z</time>
      </trkpt>
      <trkpt lat="44.51035" lon="0.65021">
        <ele>197.1</ele>
        <time>2017-01-22T10:03:28.000Z</time>
      </trkpt>
      <trkpt lat="44.51035" lon="0.65018">
        <ele>197.3</ele>
        <time>2017-01-22T10:03:29.000Z</time>
      </trkpt>
      <trkpt lat="44.51035" lon="0.65016">
        <ele>197.5</ele>
        <time>2017-01-22T10:03:30.000Z</time>
      </trkpt>
      <trkpt lat="44.51035" lon="0.65013">
        <ele>197.8</ele>
        <time>2017-01-22T10:03:31.000Z</time>
      </trkpt>
      <trkpt lat="44.51035" lon="0.65011">
        <ele>198</ele>
        <time>2017-01-22T10:03:32.000Z</time>
      </trkpt>
      <trkpt lat="44.51035" lon="0.65008">
        <ele>198.2</ele>
        <time>2017-01-22T10:03:33.000Z</time>
      </trkpt>
      <trkpt lat="44.51035" lon="0.65006">
        <ele>198.4</ele>
        <time>2017-01-22T10:03:34.000Z</time>
      </trkpt>
      <trkpt lat="44.51035" lon="0.65004">
        <ele>198.6</ele>
        <time>2017-01-22T10:03:35.000Z</time>
      </trkpt>
      <trkpt lat="44.51035" lon="0.65001">
        <ele>198.8</ele>
        <time>2017-01-22T10:03:36.000Z</time>
      </trkpt>
      <trkpt lat="44.51036" lon="0.64999">
        <ele>199</ele>
        <time>2017-01-22T10:03:37.000Z</time>
      </trkpt>
      <trkpt lat="44.51036" lon="0.64997">
        <ele>199.1</ele>
        <time>2017-01-22T10:03:38.000Z</time>
      </trkpt>
      <trkpt lat="44.51036" lon="0.64995">
        <ele>199.2</ele>
        <time>2017-01-22T10:03:39.000Z</time>
      </trkpt>
      <trkpt lat="44.51036" lon="0.64993">
        <ele>199.2</ele>
        <time>2017-01-22T10:03:40.000Z</time>
      </trkpt>
      <trkpt lat="44.51036" lon="0.64991">
        <ele>199.3</ele>
        <time>2017-01-22T10:03:41.000Z</time>
      </trkpt>
      <trkpt lat="44.51036" lon="0.64989">
        <ele>199.4</ele>
        <time>2017-01-22T10:03:42.000Z</time>
      </trkpt>
      <trkpt lat="44.51036" lon="0.64987">
        <ele>199.5</ele>
        <time>2017-01-22T10:03:43.000Z</time>
      </trkpt>
      <trkpt lat="44.51037" lon="0.64985">
        <ele>199.6</ele>
        <time>2017-01-22T10:03:44.000Z</time>
      </trkpt>
      <trkpt lat="44.51037" lon="0.64983">
        <ele>199.6</ele>
        <time>2017-01-22T10:03:45.000Z</time>
      </trkpt>
      <trkpt lat="44.51037" lon="0.64981">
        <ele>199.7</ele>
        <time>2017-01-22T10:03:46.000Z</time>
      </trkpt>
      <trkpt lat="44.51037" lon="0.64979">
        <ele>199.7</ele>
        <time>2017-01-22T10:03:47.000Z</time>
      </trkpt>
      <trkpt lat="44.51037" lon="0.64977">
        <ele>199.8</ele>
        <time>2017-01-22T10:03:48.000Z</time>
      </trkpt>
      <trkpt lat="44.51038" lon="0.64975">
        <ele>199.8</ele>
        <time>2017-01-22T10:03:49.000Z</time>
      </trkpt>
      <trkpt lat="44.51038" lon="0.64973">
        <ele>199.8</ele>
        <time>2017-01-22T10:03:50.000Z</time>
      </trkpt>
      <trkpt lat="44.51038" lon="0.64971">
        <ele>199.9</ele>
        <time>2017-01-22T10:03:51.000Z</time>
      </trkpt>
      <trkpt lat="44.51039" lon="0.64969">
        <ele>199.9</ele>
        <time>2017-01-22T10:03:52.000Z</time>
      </trkpt>
      <trkpt lat="44.51039" lon="0.64967">
        <ele>199.9</ele>
        <time>2017-01-22T10:03:53.000Z</time>
      </trkpt>
      <trkpt lat="44.5104" lon="0.64965">
        <ele>199.9</ele>
        <time>2017-01-22T10:03:54.000Z</time>
      </trkpt>
      <trkpt lat="44.5104" lon="0.64963">
        <ele>199.9</ele>
        <time>2017-01-22T10:03:55.000Z</time>
      </trkpt>
      <trkpt lat="44.51041" lon="0.64961">
        <ele>199.9</ele>
        <time>2017-01-22T10:03:56.000Z</time>
      </trkpt>
      <trkpt lat="44.51041" lon="0.64959">
        <ele>199.9</ele>
        <time>2017-01-22T10:03:57.000Z</time>
      </trkpt>
      <trkpt lat="44.51042" lon="0.64957">
        <ele>199.9</ele>
        <time>2017-01-22T10:03:58.000Z</time>
      </trkpt>
      <trkpt lat="44.51042" lon="0.64955">
        <ele>199.8</ele>
        <time>2017-01-22T10:03:59.000Z</time>
      </trkpt>
      <trkpt lat="44.51043" lon="0.64953">
        <ele>199.7</ele>
        <time>2017-01-22T10:04:00.000Z</time>
      </trkpt>
      <trkpt lat="44.51044" lon="0.64951">
        <ele>199.6</ele>
        <time>2017-01-22T10:04:01.000Z</time>
      </trkpt>
      <trkpt lat="44.51045" lon="0.64949">
        <ele>199.5</ele>
        <time>2017-01-22T10:04:02.000Z</time>
      </trkpt>
      <trkpt lat="44.51046" lon="0.64947">
        <ele>199.4</ele>
        <time>2017-01-22T10:04:03.000Z</time>
      </trkpt>
      <trkpt lat="44.51047" lon="0.64945">
        <ele>199.2</ele>
        <time>2017-01-22T10:04:04.000Z</time>
      </trkpt>
      <trkpt lat="44.51048" lon="0.64942">
        <ele>199.1</ele>
        <time>2017-01-22T10:04:05.000Z</time>
      </trkpt>
      <trkpt lat="44.51049" lon="0.6494">
        <ele>198.9</ele>
        <time>2017-01-22T10:04:06.000Z</time>
      </trkpt>
      <trkpt lat="44.51051" lon="0.64938">
        <ele>198.7</ele>
        <time>2017-01-22T10:04:07.000Z</time>
      </trkpt>
      <trkpt lat="44.51052" lon="0.64936">
        <ele>198.6</ele>
        <time>2017-01-22T10:04:08.000Z</time>
      </trkpt>
      <trkpt lat="44.51052" lon="0.64934">
        <ele>198.5</ele>
        <time>2017-01-22T10:04:09.000Z</time>
      </trkpt>
      <trkpt lat="44.51053" lon="0.64932">
        <ele>198.4</ele>
        <time>2017-01-22T10:04:10.000Z</time>
      </trkpt>
      <trkpt lat="44.51054" lon="0.6493">
        <ele>198.4</ele>
        <time>2017-01-22T10:04:11.000Z</time>
      </trkpt>
      <trkpt lat="44.51055" lon="0.64928">
        <ele>198.4</ele>
        <time>2017-01-22T10:04:12.000Z</time>
      </trkpt>
      <trkpt lat="44.51055" lon="0.64926">
        <ele>198.3</ele>
        <time>2017-01-22T10:04:13.000Z</time>
      </trkpt>
      <trkpt lat="44.51056" lon="0.64924">
        <ele>198.3</ele>
        <time>2017-01-22T10:04:14.000Z</time>
      </trkpt>
      <trkpt lat="44.51057" lon="0.64922">
        <ele>198.3</ele>
        <time>2017-01-22T10:04:15.000Z</time>
      </trkpt>
      <trkpt lat="44.51057" lon="0.6492">
        <ele>198.3</ele>
        <time>2017-01-22T10:04:16.000Z</time>
      </trkpt>
      <trkpt lat="44.51058" lon="0.64917">
        <ele>198.3</ele>
        <time>2017-01-22T10:04:17.000Z</time>
      </trkpt>
      <trkpt lat="44.51059" lon="0.64915">
        <ele>198.3</ele>
        <time>2017-01-22T10:04:18.000Z</time>
      </trkpt>
      <trkpt lat="44.5106" lon="0.64913">
        <ele>198.3</ele>
        <time>2017-01-22T10:04:19.000Z</time>
      </trkpt>
      <trkpt lat="44.51061" lon="0.6491">
        <ele>198.3</ele>
        <time>2017-01-22T10:04:20.000Z</time>
      </trkpt>
      <trkpt lat="44.51061" lon="0.64908">
        <ele>198.3</ele>
        <time>2017-01-22T10:04:21.000Z</time>
      </trkpt>
      <trkpt lat="44.51062" lon="0.64906">
        <ele>198.2</ele>
        <time>2017-01-22T10:04:22.000Z</time>
      </trkpt>
      <trkpt lat="44.51063" lon="0.64904">
        <ele>198.2</ele>
        <time>2017-01-22T10:04:23.000Z</time>
      </trkpt>
      <trkpt lat="44.51064" lon="0.64901">
        <ele>198.2</ele>
        <time>2017-01-22T10:04:24.000Z</time>
      </trkpt>
      <trkpt lat="44.51065" lon="0.64899">
        <ele>198.1</ele>
        <time>2017-01-22T10:04:25.000Z</time>
      </trkpt>
      <trkpt lat="44.51066" lon="0.64897">
        <ele>198.1</ele>
        <time>2017-01-22T10:04:26.000Z</time>
      </trkpt>
      <trkpt lat="44.51067" lon="0.64895">
        <ele>198.1</ele>
        <time>2017-01-22T10:04:27.000Z</time>
      </trkpt>
      <trkpt lat="44.51068" lon="0.64892">
        <ele>198</ele>
        <time>2017-01-22T10:04:28.000Z</time>
      </trkpt>
      <trkpt lat="44.51069" lon="0.6489">
        <ele>198</ele>
        <time>2017-01-22T10:04:29.000Z</time>
      </trkpt>
      <trkpt lat="44.5107" lon="0.64888">
        <ele>198</ele>
        <time>2017-01-22T10:04:30.000Z</time>
      </trkpt>
      <trkpt lat="44.51071" lon="0.64885">
        <ele>198</ele>
        <time>2017-01-22T10:04:31.000Z</time>
      </trkpt>
      <trkpt lat="44.51072" lon="0.64883">
        <ele>198</ele>
        <time>2017-01-22T10:04:32.000Z</time>
      </trkpt>
      <trkpt lat="44.51073" lon="0.64881">
        <ele>198</ele>
        <time>2017-01-22T10:04:33.000Z</time>
      </trkpt>
      <trkpt lat="44.51075" lon="0.64878">
        <ele>198</ele>
        <time>2017-01-22T10:04:34.000Z</time>
      </trkpt>
      <trkpt lat="44.51076" lon="0.64876">
        <ele>198</ele>
        <time>2017-01-22T10:04:35.000Z</time>
      </trkpt>
      <trkpt lat="44.51077" lon="0.64874">
        <ele>198.1</ele>
        <time>2017-01-22T10:04:36.000Z</time>
      </trkpt>
      <trkpt lat="44.51078" lon="0.64871">
        <ele>198.1</ele>
        <time>2017-01-22T10:04:37.000Z</time>
      </trkpt>
      <trkpt lat="44.51079" lon="0.64869">
        <ele>198.1</ele>
        <time>2017-01-22T10:04:38.000Z</time>
      </trkpt>
      <trkpt lat="44.5108" lon="0.64867">
        <ele>198.2</ele>
        <time>2017-01-22T10:04:39.000Z</time>
      </trkpt>
      <trkpt lat="44.51081" lon="0.64865">
        <ele>198.2</ele>
        <time>2017-01-22T10:04:40.000Z</time>
      </trkpt>
      <trkpt lat="44.51082" lon="0.64862">
        <ele>198.2</ele>
        <time>2017-01-22T10:04:41.000Z</time>
      </trkpt>
      <trkpt lat="44.51082" lon="0.6486">
        <ele>198.3</ele>
        <time>2017-01-22T10:04:42.000Z</time>
      </trkpt>
      <trkpt lat="44.51083" lon="0.64858">
        <ele>198.3</ele>
        <time>2017-01-22T10:04:43.000Z</time>
      </trkpt>
      <trkpt lat="44.51084" lon="0.64856">
        <ele>198.4</ele>
        <time>2017-01-22T10:04:44.000Z</time>
      </trkpt>
      <trkpt lat="44.51085" lon="0.64853">
        <ele>198.4</ele>
        <time>2017-01-22T10:04:45.000Z</time>
      </trkpt>
      <trkpt lat="44.51086" lon="0.64851">
        <ele>198.5</ele>
        <time>2017-01-22T10:04:46.000Z</time>
      </trkpt>
      <trkpt lat="44.51087" lon="0.64849">
        <ele>198.5</ele>
        <time>2017-01-22T10:04:47.000Z</time>
      </trkpt>
      <trkpt lat="44.51088" lon="0.64847">
        <ele>198.5</ele>
        <time>2017-01-22T10:04:48.000Z</time>
      </trkpt>
      <trkpt lat="44.51088" lon="0.64845">
        <ele>198.5</ele>
        <time>2017-01-22T10:04:49.000Z</time>
      </trkpt>
      <trkpt lat="44.51089" lon="0.64844">
        <ele>198.5</ele>
        <time>2017-01-22T10:04:50.000Z</time>
      </trkpt>
      <trkpt lat="44.51089" lon="0.64842">
        <ele>198.5</ele>
        <time>2017-01-22T10:04:51.000Z</time>
      </trkpt>
      <trkpt lat="44.5109" lon="0.64842">
        <ele>198.5</ele>
        <time>2017-01-22T10:04:52.000Z</time>
      </trkpt>
      <trkpt lat="44.5109" lon="0.64841">
        <ele>198.5</ele>
        <time>2017-01-22T10:04:53.000Z</time>
      </trkpt>
      <trkpt lat="44.5109" lon="0.64841">
        <ele>198.4</ele>
        <time>2017-01-22T10:04:54.000Z</time>
      </trkpt>
      <trkpt lat="44.5109" lon="0.64841">
        <ele>198.4</ele>
        <time>2017-01-22T10:04:55.000Z</time>
      </trkpt>
      <trkpt lat="44.51091" lon="0.64841">
        <ele>198.4</ele>
        <time>2017-01-22T10:04:56.000Z</time>
      </trkpt>
      <trkpt lat="44.51091" lon="0.64841">
        <ele>198.4</ele>
        <time>2017-01-22T10:04:57.000Z</time>
      </trkpt>
      <trkpt lat="44.51091" lon="0.64841">
        <ele>198.3</ele>
        <time>2017-01-22T10:04:58.000Z</time>
      </trkpt>
      <trkpt lat="44.51091" lon="0.64841">
        <ele>198.3</ele>
        <time>2017-01-22T10:04:59.000Z</time>
      </trkpt>
      <trkpt lat="44.51091" lon="0.64841">
        <ele>198.3</ele>
        <time>2017-01-22T10:05:00.000Z</time>
      </trkpt>
      <trkpt lat="44.51091" lon="0.64841">
        <ele>198.3</ele>
        <time>2017-01-22T10:05:01.000Z</time>
      </trkpt>
      <trkpt lat="44.51091" lon="0.64841">
        <ele>198.3</ele>
        <time>2017-01-22T10:05:02.000Z</time>
      </trkpt>
      <trkpt lat="44.51091" lon="0.64841">
        <ele>198.3</ele>
        <time>2017-01-22T10:05:03.000Z</time>
      </trkpt>
      <trkpt lat="44.51091" lon="0.6484">
        <ele>198.3</ele>
        <time>2017-01-22T10:05:04.000Z</time>
      </trkpt>
      <trkpt lat="44.51091" lon="0.6484">
        <ele>198.3</ele>
        <time>2017-01-22T10:05:05.000Z</time>
      </trkpt>
      <trkpt lat="44.51091" lon="0.6484">
        <ele>198.3</ele>
        <time>2017-01-22T10:05:06.000Z</time>
      </trkpt>
      <trkpt lat="44.51091" lon="0.6484">
        <ele>198.3</ele>
        <time>2017-01-22T10:05:07.000Z</time>
      </trkpt>
      <trkpt lat="44.51091" lon="0.6484">
        <ele>198.3</ele>
        <time>2017-01-22T10:05:08.000Z</time>
      </trkpt>
      <trkpt lat="44.51091" lon="0.6484">
        <ele>198.3</ele>
        <time>2017-01-22T10:05:09.000Z</time>
      </trkpt>
      <trkpt lat="44.51091" lon="0.6484">
        <ele>198.3</ele>
        <time>2017-01-22T10:05:10.000Z</time>
      </trkpt>
      <trkpt lat="44.51091" lon="0.6484">
        <ele>198.3</ele>
        <time>2017-01-22T10:05:11.000Z</time>
      </trkpt>
      <trkpt lat="44.51091" lon="0.6484">
        <ele>198.3</ele>
        <time>2017-01-22T10:05:12.000Z</time>
      </trkpt>
      <trkpt lat="44.51091" lon="0.6484">
        <ele>198.3</ele>
        <time>2017-01-22T10:05:13.000Z</time>
      </trkpt>
      <trkpt lat="44.51091" lon="0.6484">
        <ele>198.3</ele>
        <time>2017-01-22T10:05:14.000Z</time>
      </trkpt>
      <trkpt lat="44.51091" lon="0.6484">
        <ele>198.3</ele>
        <time>2017-01-22T10:05:15.000Z</time>
      </trkpt>
      <trkpt lat="44.51091" lon="0.6484">
        <ele>198.3</ele>
        <time>2017-01-22T10:05:16.000Z</time>
      </trkpt>
      <trkpt lat="44.51091" lon="0.6484">
        <ele>198.3</ele>
        <time>2017-01-22T10:05:17.000Z</time>
      </trkpt>
      <trkpt lat="44.51092" lon="0.64839">
        <ele>198.2</ele>
        <time>2017-01-22T10:05:18.000Z</time>
      </trkpt>
      <trkpt lat="44.51093" lon="0.64839">
        <ele>198</ele>
        <time>2017-01-22T10:05:19.000Z</time>
      </trkpt>
      <trkpt lat="44.51094" lon="0.64838">
        <ele>197.9</ele>
        <time>2017-01-22T10:05:20.000Z</time>
      </trkpt>
      <trkpt lat="44.51094" lon="0.64837">
        <ele>197.8</ele>
        <time>2017-01-22T10:05:21.000Z</time>
      </trkpt>
      <trkpt lat="44.51095" lon="0.64836">
        <ele>197.7</ele>
        <time>2017-01-22T10:05:22.000Z</time>
      </trkpt>
      <trkpt lat="44.51096" lon="0.64835">
        <ele>197.6</ele>
        <time>2017-01-22T10:05:23.000Z</time>
      </trkpt>
      <trkpt lat="44.51097" lon="0.64833">
        <ele>197.3</ele>
        <time>2017-01-22T10:05:24.000Z</time>
      </trkpt>
      <trkpt lat="44.51099" lon="0.64831">
        <ele>197.1</ele>
        <time>2017-01-22T10:05:25.000Z</time>
      </trkpt>
      <trkpt lat="44.511" lon="0.64829">
        <ele>196.9</ele>
        <time>2017-01-22T10:05:26.000Z</time>
      </trkpt>
      <trkpt lat="44.51102" lon="0.64826">
        <ele>196.7</ele>
        <time>2017-01-22T10:05:27.000Z</time>
      </trkpt>
      <trkpt lat="44.51104" lon="0.64823">
        <ele>196.4</ele>
        <time>2017-01-22T10:05:28.000Z</time>
      </trkpt>
      <trkpt lat="44.51107" lon="0.6482">
        <ele>196.2</ele>
        <time>2017-01-22T10:05:29.000Z</time>
      </trkpt>
      <trkpt lat="44.51109" lon="0.64817">
        <ele>195.9</ele>
        <time>2017-01-22T10:05:30.000Z</time>
      </trkpt>
      <trkpt lat="44.51111" lon="0.64814">
        <ele>195.6</ele>
        <time>2017-01-22T10:05:31.000Z</time>
      </trkpt>
      <trkpt lat="44.51113" lon="0.64811">
        <ele>195.3</ele>
        <time>2017-01-22T10:05:32.000Z</time>
      </trkpt>
      <trkpt lat="44.51115" lon="0.64808">
        <ele>195.1</ele>
        <time>2017-01-22T10:05:33.000Z</time>
      </trkpt>
      <trkpt lat="44.51117" lon="0.64805">
        <ele>194.9</ele>
        <time>2017-01-22T10:05:34.000Z</time>
      </trkpt>
      <trkpt lat="44.51118" lon="0.64802">
        <ele>194.8</ele>
        <time>2017-01-22T10:05:35.000Z</time>
      </trkpt>
      <trkpt lat="44.5112" lon="0.64799">
        <ele>194.8</ele>
        <time>2017-01-22T10:05:36.000Z</time>
      </trkpt>
      <trkpt lat="44.51121" lon="0.64795">
        <ele>194.8</ele>
        <time>2017-01-22T10:05:37.000Z</time>
      </trkpt>
      <trkpt lat="44.51122" lon="0.64792">
        <ele>194.8</ele>
        <time>2017-01-22T10:05:38.000Z</time>
      </trkpt>
      <trkpt lat="44.51123" lon="0.64789">
        <ele>194.8</ele>
        <time>2017-01-22T10:05:39.000Z</time>
      </trkpt>
      <trkpt lat="44.51124" lon="0.64785">
        <ele>194.9</ele>
        <time>2017-01-22T10:05:40.000Z</time>
      </trkpt>
      <trkpt lat="44.51125" lon="0.64782">
        <ele>194.9</ele>
        <time>2017-01-22T10:05:41.000Z</time>
      </trkpt>
      <trkpt lat="44.51126" lon="0.64779">
        <ele>195</ele>
        <time>2017-01-22T10:05:42.000Z</time>
      </trkpt>
      <trkpt lat="44.51127" lon="0.64776">
        <ele>195</ele>
        <time>2017-01-22T10:05:43.000Z</time>
      </trkpt>
      <trkpt lat="44.51128" lon="0.64773">
        <ele>195</ele>
        <time>2017-01-22T10:05:44.000Z</time>
      </trkpt>
      <trkpt lat="44.51129" lon="0.6477">
        <ele>194.9</ele>
        <time>2017-01-22T10:05:45.000Z</time>
      </trkpt>
      <trkpt lat="44.51131" lon="0.64767">
        <ele>194.9</ele>
        <time>2017-01-22T10:05:46.000Z</time>
      </trkpt>
      <trkpt lat="44.51132" lon="0.64765">
        <ele>194.9</ele>
        <time>2017-01-22T10:05:47.000Z</time>
      </trkpt>
      <trkpt lat="44.51133" lon="0.64762">
        <ele>194.8</ele>
        <time>2017-01-22T10:05:48.000Z</time>
      </trkpt>
      <trkpt lat="44.51134" lon="0.6476">
        <ele>194.8</ele>
        <time>2017-01-22T10:05:49.000Z</time>
      </trkpt>
      <trkpt lat="44.51135" lon="0.64758">
        <ele>194.7</ele>
        <time>2017-01-22T10:05:50.000Z</time>
      </trkpt>
      <trkpt lat="44.51135" lon="0.64757">
        <ele>194.7</ele>
        <time>2017-01-22T10:05:51.000Z</time>
      </trkpt>
      <trkpt lat="44.51136" lon="0.64755">
        <ele>194.6</ele>
        <time>2017-01-22T10:05:52.000Z</time>
      </trkpt>
      <trkpt lat="44.51136" lon="0.64755">
        <ele>194.6</ele>
        <time>2017-01-22T10:05:53.000Z</time>
      </trkpt>
      <trkpt lat="44.51137" lon="0.64754">
        <ele>194.6</ele>
        <time>2017-01-22T10:05:54.000Z</time>
      </trkpt>
      <trkpt lat="44.51137" lon="0.64753">
        <ele>194.6</ele>
        <time>2017-01-22T10:05:55.000Z</time>
      </trkpt>
      <trkpt lat="44.51137" lon="0.64753">
        <ele>194.6</ele>
        <time>2017-01-22T10:05:56.000Z</time>
      </trkpt>
      <trkpt lat="44.51137" lon="0.64753">
        <ele>194.6</ele>
        <time>2017-01-22T10:05:57.000Z</time>
      </trkpt>
      <trkpt lat="44.51137" lon="0.64753">
        <ele>194.6</ele>
        <time>2017-01-22T10:05:58.000Z</time>
      </trkpt>
      <trkpt lat="44.51137" lon="0.64753">
        <ele>194.6</ele>
        <time>2017-01-22T10:05:59.000Z</time>
      </trkpt>
      <trkpt lat="44.51137" lon="0.64753">
        <ele>194.6</ele>
        <time>2017-01-22T10:06:00.000Z</time>
      </trkpt>
      <trkpt lat="44.51137" lon="0.64753">
        <ele>194.6</ele>
        <time>2017-01-22T10:06:01.000Z</time>
      </trkpt>
      <trkpt lat="44.51137" lon="0.64753">
        <ele>194.6</ele>
        <time>2017-01-22T10:06:02.000Z</time>
      </trkpt>
      <trkpt lat="44.51137" lon="0.64753">
        <ele>194.6</ele>
        <time>2017-01-22T10:06:03.000Z</time>
      </trkpt>
      <trkpt lat="44.51137" lon="0.64753">
        <ele>194.6</ele>
        <time>2017-01-22T10:06:04.000Z</time>
      </trkpt>
      <trkpt lat="44.51137" lon="0.64753">
        <ele>194.6</ele>
        <time>2017-01-22T10:06:05.000Z</time>
      </trkpt>
      <trkpt lat="44.51137" lon="0.64753">
        <ele>194.6</ele>
        <time>2017-01-22T10:06:06.000Z</time>
      </trkpt>
      <trkpt lat="44.51137" lon="0.64753">
        <ele>194.6</ele>
        <time>2017-01-22T10:06:07.000Z</time>
      </trkpt>
      <trkpt lat="44.51137" lon="0.64753">
        <ele>194.6</ele>
        <time>2017-01-22T10:06:08.000Z</time>
      </trkpt>
      <trkpt lat="44.51137" lon="0.64753">
        <ele>194.6</ele>
        <time>2017-01-22T10:06:09.000Z</time>
      </trkpt>
      <trkpt lat="44.51137" lon="0.64753">
        <ele>194.6</ele>
        <time>2017-01-22T10:06:10.000Z</time>
      </trkpt>
      <trkpt lat="44.51137" lon="0.64753">
        <ele>194.6</ele>
        <time>2017-01-22T10:06:11.000Z</time>
      </trkpt>
      <trkpt lat="44.51137" lon="0.64753">
        <ele>194.6</ele>
        <time>2017-01-22T10:06:12.000Z</time>
      </trkpt>
      <trkpt lat="44.51137" lon="0.64753">
        <ele>194.6</ele>
        <time>2017-01-22T10:06:13.000Z</time>
      </trkpt>
      <trkpt lat="44.51137" lon="0.64753">
        <ele>194.6</ele>
        <time>2017-01-22T10:06:14.000Z</time>
      </trkpt>
      <trkpt lat="44.51137" lon="0.64753">
        <ele>194.6</ele>
        <time>2017-01-22T10:06:15.000Z</time>
      </trkpt>
      <trkpt lat="44.51137" lon="0.64753">
        <ele>194.6</ele>
        <time>2017-01-22T10:06:16.000Z</time>
      </trkpt>
      <trkpt lat="44.51137" lon="0.64753">
        <ele>194.6</ele>
        <time>2017-01-22T10:06:17.000Z</time>
      </trkpt>
      <trkpt lat="44.51137" lon="0.64753">
        <ele>194.6</ele>
        <time>2017-01-22T10:06:18.000Z</time>
      </trkpt>
      <trkpt lat="44.51137" lon="0.64753">
        <ele>194.6</ele>
        <time>2017-01-22T10:06:19.000Z</time>
      </trkpt>
      <trkpt lat="44.51137" lon="0.64753">
        <ele>194.6</ele>
        <time>2017-01-22T10:06:20.000Z</time>
      </trkpt>
      <trkpt lat="44.51137" lon="0.64753">
        <ele>194.6</ele>
        <time>2017-01-22T10:06:21.000Z</time>
      </trkpt>
      <trkpt lat="44.51137" lon="0.64752">
        <ele>194.6</ele>
        <time>2017-01-22T10:06:22.000Z</time>
      </trkpt>
      <trkpt lat="44.51138" lon="0.64751">
        <ele>194.6</ele>
        <time>2017-01-22T10:06:23.000Z</time>
      </trkpt>
      <trkpt lat="44.51138" lon="0.6475">
        <ele>194.5</ele>
        <time>2017-01-22T10:06:24.000Z</time>
      </trkpt>
      <trkpt lat="44.51139" lon="0.64749">
        <ele>194.4</ele>
        <time>2017-01-22T10:06:25.000Z</time>
      </trkpt>
      <trkpt lat="44.5114" lon="0.64748">
        <ele>194.1</ele>
        <time>2017-01-22T10:06:26.000Z</time>
      </trkpt>
      <trkpt lat="44.51142" lon="0.64746">
        <ele>193.8</ele>
        <time>2017-01-22T10:06:27.000Z</time>
      </trkpt>
      <trkpt lat="44.51144" lon="0.64745">
        <ele>193.4</ele>
        <time>2017-01-22T10:06:28.000Z</time>
      </trkpt>
      <trkpt lat="44.51146" lon="0.64744">
        <ele>193</ele>
        <time>2017-01-22T10:06:29.000Z</time>
      </trkpt>
      <trkpt lat="44.51148" lon="0.64742">
        <ele>192.5</ele>
        <time>2017-01-22T10:06:30.000Z</time>
      </trkpt>
      <trkpt lat="44.5115" lon="0.64741">
        <ele>192</ele>
        <time>2017-01-22T10:06:31.000Z</time>
      </trkpt>
      <trkpt lat="44.51152" lon="0.6474">
        <ele>191.5</ele>
        <time>2017-01-22T10:06:32.000Z</time>
      </trkpt>
      <trkpt lat="44.51155" lon="0.64739">
        <ele>190.8</ele>
        <time>2017-01-22T10:06:33.000Z</time>
      </trkpt>
      <trkpt lat="44.51157" lon="0.64739">
        <ele>190.1</ele>
        <time>2017-01-22T10:06:34.000Z</time>
      </trkpt>
      <trkpt lat="44.51161" lon="0.64738">
        <ele>189.3</ele>
        <time>2017-01-22T10:06:35.000Z</time>
      </trkpt>
      <trkpt lat="44.51164" lon="0.64737">
        <ele>188.4</ele>
        <time>2017-01-22T10:06:36.000Z</time>
      </trkpt>
      <trkpt lat="44.51168" lon="0.64736">
        <ele>187.5</ele>
        <time>2017-01-22T10:06:37.000Z</time>
      </trkpt>
      <trkpt lat="44.51173" lon="0.64736">
        <ele>186.6</ele>
        <time>2017-01-22T10:06:38.000Z</time>
      </trkpt>
      <trkpt lat="44.51178" lon="0.64736">
        <ele>185.5</ele>
        <time>2017-01-22T10:06:39.000Z</time>
      </trkpt>
      <trkpt lat="44.51183" lon="0.64737">
        <ele>184.4</ele>
        <time>2017-01-22T10:06:40.000Z</time>
      </trkpt>
      <trkpt lat="44.51188" lon="0.64738">
        <ele>183.3</ele>
        <time>2017-01-22T10:06:41.000Z</time>
      </trkpt>
      <trkpt lat="44.51193" lon="0.64739">
        <ele>182.3</ele>
        <time>2017-01-22T10:06:42.000Z</time>
      </trkpt>
      <trkpt lat="44.51197" lon="0.6474">
        <ele>181.3</ele>
        <time>2017-01-22T10:06:43.000Z</time>
      </trkpt>
      <trkpt lat="44.51201" lon="0.6474">
        <ele>180.4</ele>
        <time>2017-01-22T10:06:44.000Z</time>
      </trkpt>
      <trkpt lat="44.51206" lon="0.64741">
        <ele>179.3</ele>
        <time>2017-01-22T10:06:45.000Z</time>
      </trkpt>
      <trkpt lat="44.51212" lon="0.64741">
        <ele>178.2</ele>
        <time>2017-01-22T10:06:46.000Z</time>
      </trkpt>
      <trkpt lat="44.51218" lon="0.64741">
        <ele>176.9</ele>
        <time>2017-01-22T10:06:47.000Z</time>
      </trkpt>
      <trkpt lat="44.51224" lon="0.6474">
        <ele>175.6</ele>
        <time>2017-01-22T10:06:48.000Z</time>
      </trkpt>
      <trkpt lat="44.51231" lon="0.64738">
        <ele>174.3</ele>
        <time>2017-01-22T10:06:49.000Z</time>
      </trkpt>
      <trkpt lat="44.51237" lon="0.64736">
        <ele>173.2</ele>
        <time>2017-01-22T10:06:50.000Z</time>
      </trkpt>
      <trkpt lat="44.51241" lon="0.64733">
        <ele>172.3</ele>
        <time>2017-01-22T10:06:51.000Z</time>
      </trkpt>
      <trkpt lat="44.51244" lon="0.64731">
        <ele>171.7</ele>
        <time>2017-01-22T10:06:52.000Z</time>
      </trkpt>
      <trkpt lat="44.51247" lon="0.6473">
        <ele>171.1</ele>
        <time>2017-01-22T10:06:53.000Z</time>
      </trkpt>
      <trkpt lat="44.51249" lon="0.64731">
        <ele>170.6</ele>
        <time>2017-01-22T10:06:54.000Z</time>
      </trkpt>
      <trkpt lat="44.51252" lon="0.64732">
        <ele>170.2</ele>
        <time>2017-01-22T10:06:55.000Z</time>
      </trkpt>
      <trkpt lat="44.51256" lon="0.64733">
        <ele>169.7</ele>
        <time>2017-01-22T10:06:56.000Z</time>
      </trkpt>
      <trkpt lat="44.5126" lon="0.64735">
        <ele>169.2</ele>
        <time>2017-01-22T10:06:57.000Z</time>
      </trkpt>
      <trkpt lat="44.51264" lon="0.64737">
        <ele>168.6</ele>
        <time>2017-01-22T10:06:58.000Z</time>
      </trkpt>
      <trkpt lat="44.51269" lon="0.64738">
        <ele>167.9</ele>
        <time>2017-01-22T10:06:59.000Z</time>
      </trkpt>
      <trkpt lat="44.51275" lon="0.64739">
        <ele>167.2</ele>
        <time>2017-01-22T10:07:00.000Z</time>
      </trkpt>
      <trkpt lat="44.51281" lon="0.64739">
        <ele>166.5</ele>
        <time>2017-01-22T10:07:01.000Z</time>
      </trkpt>
      <trkpt lat="44.51288" lon="0.64739">
        <ele>165.6</ele>
        <time>2017-01-22T10:07:02.000Z</time>
      </trkpt>
      <trkpt lat="44.51295" lon="0.64739">
        <ele>164.8</ele>
        <time>2017-01-22T10:07:03.000Z</time>
      </trkpt>
      <trkpt lat="44.51302" lon="0.64738">
        <ele>163.9</ele>
        <time>2017-01-22T10:07:04.000Z</time>
      </trkpt>
      <trkpt lat="44.51309" lon="0.64738">
        <ele>163</ele>
        <time>2017-01-22T10:07:05.000Z</time>
      </trkpt>
      <trkpt lat="44.51317" lon="0.64738">
        <ele>162</ele>
        <time>2017-01-22T10:07:06.000Z</time>
      </trkpt>
      <trkpt lat="44.51325" lon="0.64737">
        <ele>161.1</ele>
        <time>2017-01-22T10:07:07.000Z</time>
      </trkpt>
      <trkpt lat="44.51332" lon="0.64737">
        <ele>160.1</ele>
        <time>2017-01-22T10:07:08.000Z</time>
      </trkpt>
      <trkpt lat="44.5134" lon="0.64737">
        <ele>159.4</ele>
        <time>2017-01-22T10:07:09.000Z</time>
      </trkpt>
      <trkpt lat="44.51347" lon="0.64738">
        <ele>158.8</ele>
        <time>2017-01-22T10:07:10.000Z</time>
      </trkpt>
      <trkpt lat="44.51355" lon="0.64738">
        <ele>158.1</ele>
        <time>2017-01-22T10:07:11.000Z</time>
      </trkpt>
      <trkpt lat="44.51362" lon="0.64738">
        <ele>157.5</ele>
        <time>2017-01-22T10:07:12.000Z</time>
      </trkpt>
      <trkpt lat="44.51369" lon="0.64737">
        <ele>156.9</ele>
        <time>2017-01-22T10:07:13.000Z</time>
      </trkpt>
      <trkpt lat="44.51375" lon="0.64736">
        <ele>156.3</ele>
        <time>2017-01-22T10:07:14.000Z</time>
      </trkpt>
      <trkpt lat="44.5138" lon="0.64733">
        <ele>155.8</ele>
        <time>2017-01-22T10:07:15.000Z</time>
      </trkpt>
      <trkpt lat="44.51384" lon="0.64728">
        <ele>155.4</ele>
        <time>2017-01-22T10:07:16.000Z</time>
      </trkpt>
      <trkpt lat="44.51386" lon="0.64722">
        <ele>155.1</ele>
        <time>2017-01-22T10:07:17.000Z</time>
      </trkpt>
      <trkpt lat="44.51386" lon="0.64715">
        <ele>155</ele>
        <time>2017-01-22T10:07:18.000Z</time>
      </trkpt>
      <trkpt lat="44.51384" lon="0.64708">
        <ele>155.1</ele>
        <time>2017-01-22T10:07:19.000Z</time>
      </trkpt>
      <trkpt lat="44.51381" lon="0.64701">
        <ele>155.4</ele>
        <time>2017-01-22T10:07:20.000Z</time>
      </trkpt>
      <trkpt lat="44.51379" lon="0.64694">
        <ele>155.5</ele>
        <time>2017-01-22T10:07:21.000Z</time>
      </trkpt>
      <trkpt lat="44.5138" lon="0.64686">
        <ele>155.3</ele>
        <time>2017-01-22T10:07:22.000Z</time>
      </trkpt>
      <trkpt lat="44.51383" lon="0.64678">
        <ele>154.8</ele>
        <time>2017-01-22T10:07:23.000Z</time>
      </trkpt>
      <trkpt lat="44.51389" lon="0.64673">
        <ele>154.1</ele>
        <time>2017-01-22T10:07:24.000Z</time>
      </trkpt>
      <trkpt lat="44.51395" lon="0.64672">
        <ele>153.4</ele>
        <time>2017-01-22T10:07:25.000Z</time>
      </trkpt>
      <trkpt lat="44.51402" lon="0.64673">
        <ele>152.7</ele>
        <time>2017-01-22T10:07:26.000Z</time>
      </trkpt>
      <trkpt lat="44.51409" lon="0.64676">
        <ele>152</ele>
        <time>2017-01-22T10:07:27.000Z</time>
      </trkpt>
      <trkpt lat="44.51415" lon="0.64679">
        <ele>151.5</ele>
        <time>2017-01-22T10:07:28.000Z</time>
      </trkpt>
      <trkpt lat="44.5142" lon="0.64684">
        <ele>151.1</ele>
        <time>2017-01-22T10:07:29.000Z</time>
      </trkpt>
      <trkpt lat="44.51425" lon="0.64688">
        <ele>150.8</ele>
        <time>2017-01-22T10:07:30.000Z</time>
      </trkpt>
      <trkpt lat="44.51429" lon="0.64693">
        <ele>150.5</ele>
        <time>2017-01-22T10:07:31.000Z</time>
      </trkpt>
      <trkpt lat="44.51432" lon="0.64698">
        <ele>150.3</ele>
        <time>2017-01-22T10:07:32.000Z</time>
      </trkpt>
      <trkpt lat="44.51435" lon="0.64703">
        <ele>150.2</ele>
        <time>2017-01-22T10:07:33.000Z</time>
      </trkpt>
      <trkpt lat="44.51437" lon="0.64709">
        <ele>150.2</ele>
        <time>2017-01-22T10:07:34.000Z</time>
      </trkpt>
      <trkpt lat="44.51439" lon="0.64715">
        <ele>150.2</ele>
        <time>2017-01-22T10:07:35.000Z</time>
      </trkpt>
      <trkpt lat="44.51441" lon="0.64722">
        <ele>150.2</ele>
        <time>2017-01-22T10:07:36.000Z</time>
      </trkpt>
      <trkpt lat="44.51443" lon="0.64728">
        <ele>150.2</ele>
        <time>2017-01-22T10:07:37.000Z</time>
      </trkpt>
      <trkpt lat="44.51445" lon="0.64733">
        <ele>150.2</ele>
        <time>2017-01-22T10:07:38.000Z</time>
      </trkpt>
      <trkpt lat="44.51448" lon="0.64738">
        <ele>150</ele>
        <time>2017-01-22T10:07:39.000Z</time>
      </trkpt>
      <trkpt lat="44.51453" lon="0.6474">
        <ele>149.7</ele>
        <time>2017-01-22T10:07:40.000Z</time>
      </trkpt>
      <trkpt lat="44.51458" lon="0.64742">
        <ele>149.3</ele>
        <time>2017-01-22T10:07:41.000Z</time>
      </trkpt>
      <trkpt lat="44.51465" lon="0.64742">
        <ele>148.7</ele>
        <time>2017-01-22T10:07:42.000Z</time>
      </trkpt>
      <trkpt lat="44.51471" lon="0.64741">
        <ele>148.1</ele>
        <time>2017-01-22T10:07:43.000Z</time>
      </trkpt>
      <trkpt lat="44.51479" lon="0.64741">
        <ele>147.5</ele>
        <time>2017-01-22T10:07:44.000Z</time>
      </trkpt>
      <trkpt lat="44.51486" lon="0.6474">
        <ele>146.9</ele>
        <time>2017-01-22T10:07:45.000Z</time>
      </trkpt>
      <trkpt lat="44.51493" lon="0.64739">
        <ele>146.2</ele>
        <time>2017-01-22T10:07:46.000Z</time>
      </trkpt>
      <trkpt lat="44.51501" lon="0.64738">
        <ele>145.5</ele>
        <time>2017-01-22T10:07:47.000Z</time>
      </trkpt>
      <trkpt lat="44.51508" lon="0.64738">
        <ele>144.8</ele>
        <time>2017-01-22T10:07:48.000Z</time>
      </trkpt>
      <trkpt lat="44.51516" lon="0.64737">
        <ele>144.1</ele>
        <time>2017-01-22T10:07:49.000Z</time>
      </trkpt>
      <trkpt lat="44.51525" lon="0.64736">
        <ele>143.3</ele>
        <time>2017-01-22T10:07:50.000Z</time>
      </trkpt>
      <trkpt lat="44.51533" lon="0.64736">
        <ele>142.5</ele>
        <time>2017-01-22T10:07:51.000Z</time>
      </trkpt>
      <trkpt lat="44.51542" lon="0.64737">
        <ele>141.8</ele>
        <time>2017-01-22T10:07:52.000Z</time>
      </trkpt>
      <trkpt lat="44.51551" lon="0.64738">
        <ele>141</ele>
        <time>2017-01-22T10:07:53.000Z</time>
      </trkpt>
      <trkpt lat="44.5156" lon="0.64739">
        <ele>140.2</ele>
        <time>2017-01-22T10:07:54.000Z</time>
      </trkpt>
      <trkpt lat="44.51569" lon="0.64741">
        <ele>139.3</ele>
        <time>2017-01-22T10:07:55.000Z</time>
      </trkpt>
      <trkpt lat="44.51578" lon="0.64744">
        <ele>138.5</ele>
        <time>2017-01-22T10:07:56.000Z</time>
      </trkpt>
      <trkpt lat="44.51588" lon="0.64747">
        <ele>137.6</ele>
        <time>2017-01-22T10:07:57.000Z</time>
      </trkpt>
      <trkpt lat="44.51597" lon="0.6475">
        <ele>136.8</ele>
        <time>2017-01-22T10:07:58.000Z</time>
      </trkpt>
      <trkpt lat="44.51607" lon="0.64753">
        <ele>135.9</ele>
        <time>2017-01-22T10:07:59.000Z</time>
      </trkpt>
      <trkpt lat="44.51617" lon="0.64756">
        <ele>135.1</ele>
        <time>2017-01-22T10:08:00.000Z</time>
      </trkpt>
      <trkpt lat="44.51627" lon="0.64759">
        <ele>134.2</ele>
        <time>2017-01-22T10:08:01.000Z</time>
      </trkpt>
      <trkpt lat="44.51637" lon="0.64762">
        <ele>133.3</ele>
        <time>2017-01-22T10:08:02.000Z</time>
      </trkpt>
      <trkpt lat="44.51647" lon="0.64765">
        <ele>132.5</ele>
        <time>2017-01-22T10:08:03.000Z</time>
      </trkpt>
      <trkpt lat="44.51657" lon="0.64768">
        <ele>131.6</ele>
        <time>2017-01-22T10:08:04.000Z</time>
      </trkpt>
      <trkpt lat="44.51667" lon="0.64771">
        <ele>130.7</ele>
        <time>2017-01-22T10:08:05.000Z</time>
      </trkpt>
      <trkpt lat="44.51677" lon="0.64774">
        <ele>130.8</ele>
        <time>2017-01-22T10:08:06.000Z</time>
      </trkpt>
      <trkpt lat="44.51687" lon="0.64777">
        <ele>130.8</ele>
        <time>2017-01-22T10:08:07.000Z</time>
      </trkpt>
      <trkpt lat="44.51697" lon="0.64778">
        <ele>130.9</ele>
        <time>2017-01-22T10:08:08.000Z</time>
      </trkpt>
      <trkpt lat="44.51707" lon="0.64779">
        <ele>131</ele>
        <time>2017-01-22T10:08:09.000Z</time>
      </trkpt>
      <trkpt lat="44.51717" lon="0.64777">
        <ele>131.1</ele>
        <time>2017-01-22T10:08:10.000Z</time>
      </trkpt>
      <trkpt lat="44.51727" lon="0.64773">
        <ele>131.2</ele>
        <time>2017-01-22T10:08:11.000Z</time>
      </trkpt>
      <trkpt lat="44.51736" lon="0.64769">
        <ele>131.4</ele>
        <time>2017-01-22T10:08:12.000Z</time>
      </trkpt>
      <trkpt lat="44.51745" lon="0.64766">
        <ele>131.6</ele>
        <time>2017-01-22T10:08:13.000Z</time>
      </trkpt>
      <trkpt lat="44.51753" lon="0.64765">
        <ele>131.6</ele>
        <time>2017-01-22T10:08:14.000Z</time>
      </trkpt>
      <trkpt lat="44.51762" lon="0.64764">
        <ele>131.5</ele>
        <time>2017-01-22T10:08:15.000Z</time>
      </trkpt>
      <trkpt lat="44.51769" lon="0.64762">
        <ele>131.4</ele>
        <time>2017-01-22T10:08:16.000Z</time>
      </trkpt>
      <trkpt lat="44.51776" lon="0.64759">
        <ele>131.3</ele>
        <time>2017-01-22T10:08:17.000Z</time>
      </trkpt>
      <trkpt lat="44.51782" lon="0.64755">
        <ele>131.2</ele>
        <time>2017-01-22T10:08:18.000Z</time>
      </trkpt>
      <trkpt lat="44.51788" lon="0.64751">
        <ele>131.1</ele>
        <time>2017-01-22T10:08:19.000Z</time>
      </trkpt>
      <trkpt lat="44.51794" lon="0.64747">
        <ele>131.1</ele>
        <time>2017-01-22T10:08:20.000Z</time>
      </trkpt>
      <trkpt lat="44.51798" lon="0.64743">
        <ele>131.1</ele>
        <time>2017-01-22T10:08:21.000Z</time>
      </trkpt>
      <trkpt lat="44.51803" lon="0.64739">
        <ele>131.1</ele>
        <time>2017-01-22T10:08:22.000Z</time>
      </trkpt>
      <trkpt lat="44.51808" lon="0.64735">
        <ele>131.1</ele>
        <time>2017-01-22T10:08:23.000Z</time>
      </trkpt>
      <trkpt lat="44.51812" lon="0.64731">
        <ele>131.1</ele>
        <time>2017-01-22T10:08:24.000Z</time>
      </trkpt>
      <trkpt lat="44.51817" lon="0.64728">
        <ele>131</ele>
        <time>2017-01-22T10:08:25.000Z</time>
      </trkpt>
      <trkpt lat="44.51821" lon="0.64724">
        <ele>131</ele>
        <time>2017-01-22T10:08:26.000Z</time>
      </trkpt>
      <trkpt lat="44.51825" lon="0.64721">
        <ele>131</ele>
        <time>2017-01-22T10:08:27.000Z</time>
      </trkpt>
      <trkpt lat="44.51828" lon="0.64717">
        <ele>131</ele>
        <time>2017-01-22T10:08:28.000Z</time>
      </trkpt>
      <trkpt lat="44.5183" lon="0.64712">
        <ele>131</ele>
        <time>2017-01-22T10:08:29.000Z</time>
      </trkpt>
      <trkpt lat="44.51832" lon="0.64707">
        <ele>131.1</ele>
        <time>2017-01-22T10:08:30.000Z</time>
      </trkpt>
      <trkpt lat="44.51832" lon="0.64701">
        <ele>131.2</ele>
        <time>2017-01-22T10:08:31.000Z</time>
      </trkpt>
      <trkpt lat="44.51832" lon="0.64697">
        <ele>131.3</ele>
        <time>2017-01-22T10:08:32.000Z</time>
      </trkpt>
      <trkpt lat="44.51833" lon="0.64693">
        <ele>131.4</ele>
        <time>2017-01-22T10:08:33.000Z</time>
      </trkpt>
      <trkpt lat="44.51833" lon="0.64689">
        <ele>131.5</ele>
        <time>2017-01-22T10:08:34.000Z</time>
      </trkpt>
      <trkpt lat="44.51834" lon="0.64684">
        <ele>131.6</ele>
        <time>2017-01-22T10:08:35.000Z</time>
      </trkpt>
      <trkpt lat="44.51834" lon="0.64679">
        <ele>131.8</ele>
        <time>2017-01-22T10:08:36.000Z</time>
      </trkpt>
      <trkpt lat="44.51834" lon="0.64673">
        <ele>131.9</ele>
        <time>2017-01-22T10:08:37.000Z</time>
      </trkpt>
      <trkpt lat="44.51835" lon="0.64668">
        <ele>132.1</ele>
        <time>2017-01-22T10:08:38.000Z</time>
      </trkpt>
      <trkpt lat="44.51835" lon="0.64662">
        <ele>132.3</ele>
        <time>2017-01-22T10:08:39.000Z</time>
      </trkpt>
      <trkpt lat="44.51834" lon="0.64657">
        <ele>132.5</ele>
        <time>2017-01-22T10:08:40.000Z</time>
      </trkpt>
      <trkpt lat="44.51834" lon="0.64651">
        <ele>132.6</ele>
        <time>2017-01-22T10:08:41.000Z</time>
      </trkpt>
      <trkpt lat="44.51834" lon="0.64645">
        <ele>132.9</ele>
        <time>2017-01-22T10:08:42.000Z</time>
      </trkpt>
      <trkpt lat="44.51834" lon="0.64639">
        <ele>133.1</ele>
        <time>2017-01-22T10:08:43.000Z</time>
      </trkpt>
      <trkpt lat="44.51835" lon="0.64633">
        <ele>133.3</ele>
        <time>2017-01-22T10:08:44.000Z</time>
      </trkpt>
      <trkpt lat="44.51835" lon="0.64627">
        <ele>133.5</ele>
        <time>2017-01-22T10:08:45.000Z</time>
      </trkpt>
      <trkpt lat="44.51835" lon="0.6462">
        <ele>133.8</ele>
        <time>2017-01-22T10:08:46.000Z</time>
      </trkpt>
      <trkpt lat="44.51834" lon="0.64612">
        <ele>134</ele>
        <time>2017-01-22T10:08:47.000Z</time>
      </trkpt>
      <trkpt lat="44.51834" lon="0.64604">
        <ele>134.3</ele>
        <time>2017-01-22T10:08:48.000Z</time>
      </trkpt>
      <trkpt lat="44.51834" lon="0.64596">
        <ele>134.6</ele>
        <time>2017-01-22T10:08:49.000Z</time>
      </trkpt>
      <trkpt lat="44.51834" lon="0.64588">
        <ele>134.9</ele>
        <time>2017-01-22T10:08:50.000Z</time>
      </trkpt>
      <trkpt lat="44.51834" lon="0.64581">
        <ele>135</ele>
        <time>2017-01-22T10:08:51.000Z</time>
      </trkpt>
      <trkpt lat="44.51834" lon="0.64574">
        <ele>135.1</ele>
        <time>2017-01-22T10:08:52.000Z</time>
      </trkpt>
      <trkpt lat="44.51835" lon="0.64568">
        <ele>135.1</ele>
        <time>2017-01-22T10:08:53.000Z</time>
      </trkpt>
      <trkpt lat="44.51835" lon="0.64562">
        <ele>135.1</ele>
        <time>2017-01-22T10:08:54.000Z</time>
      </trkpt>
      <trkpt lat="44.51835" lon="0.64556">
        <ele>135.1</ele>
        <time>2017-01-22T10:08:55.000Z</time>
      </trkpt>
      <trkpt lat="44.51835" lon="0.64549">
        <ele>135.1</ele>
        <time>2017-01-22T10:08:56.000Z</time>
      </trkpt>
      <trkpt lat="44.51836" lon="0.64543">
        <ele>135.2</ele>
        <time>2017-01-22T10:08:57.000Z</time>
      </trkpt>
      <trkpt lat="44.51835" lon="0.64537">
        <ele>135.1</ele>
        <time>2017-01-22T10:08:58.000Z</time>
      </trkpt>
      <trkpt lat="44.51835" lon="0.64531">
        <ele>135.1</ele>
        <time>2017-01-22T10:08:59.000Z</time>
      </trkpt>
      <trkpt lat="44.51835" lon="0.64525">
        <ele>135.1</ele>
        <time>2017-01-22T10:09:00.000Z</time>
      </trkpt>
      <trkpt lat="44.51835" lon="0.6452">
        <ele>135.1</ele>
        <time>2017-01-22T10:09:01.000Z</time>
      </trkpt>
      <trkpt lat="44.51835" lon="0.64514">
        <ele>135.1</ele>
        <time>2017-01-22T10:09:02.000Z</time>
      </trkpt>
      <trkpt lat="44.51835" lon="0.64508">
        <ele>135.1</ele>
        <time>2017-01-22T10:09:03.000Z</time>
      </trkpt>
      <trkpt lat="44.51835" lon="0.64503">
        <ele>135.1</ele>
        <time>2017-01-22T10:09:04.000Z</time>
      </trkpt>
      <trkpt lat="44.51835" lon="0.64498">
        <ele>135.1</ele>
        <time>2017-01-22T10:09:05.000Z</time>
      </trkpt>
      <trkpt lat="44.51835" lon="0.64492">
        <ele>135</ele>
        <time>2017-01-22T10:09:06.000Z</time>
      </trkpt>
      <trkpt lat="44.51835" lon="0.64487">
        <ele>135</ele>
        <time>2017-01-22T10:09:07.000Z</time>
      </trkpt>
      <trkpt lat="44.51835" lon="0.64481">
        <ele>134.9</ele>
        <time>2017-01-22T10:09:08.000Z</time>
      </trkpt>
      <trkpt lat="44.51835" lon="0.64476">
        <ele>134.8</ele>
        <time>2017-01-22T10:09:09.000Z</time>
      </trkpt>
      <trkpt lat="44.51835" lon="0.6447">
        <ele>134.7</ele>
        <time>2017-01-22T10:09:10.000Z</time>
      </trkpt>
      <trkpt lat="44.51835" lon="0.64465">
        <ele>134.7</ele>
        <time>2017-01-22T10:09:11.000Z</time>
      </trkpt>
      <trkpt lat="44.51835" lon="0.64459">
        <ele>134.6</ele>
        <time>2017-01-22T10:09:12.000Z</time>
      </trkpt>
      <trkpt lat="44.51835" lon="0.64453">
        <ele>134.5</ele>
        <time>2017-01-22T10:09:13.000Z</time>
      </trkpt>
      <trkpt lat="44.51835" lon="0.64448">
        <ele>134.5</ele>
        <time>2017-01-22T10:09:14.000Z</time>
      </trkpt>
      <trkpt lat="44.51835" lon="0.64442">
        <ele>134.4</ele>
        <time>2017-01-22T10:09:15.000Z</time>
      </trkpt>
      <trkpt lat="44.51835" lon="0.64437">
        <ele>134.3</ele>
        <time>2017-01-22T10:09:16.000Z</time>
      </trkpt>
      <trkpt lat="44.51836" lon="0.64431">
        <ele>134.3</ele>
        <time>2017-01-22T10:09:17.000Z</time>
      </trkpt>
      <trkpt lat="44.51836" lon="0.64426">
        <ele>134.3</ele>
        <time>2017-01-22T10:09:18.000Z</time>
      </trkpt>
      <trkpt lat="44.51837" lon="0.6442">
        <ele>134.2</ele>
        <time>2017-01-22T10:09:19.000Z</time>
      </trkpt>
      <trkpt lat="44.51838" lon="0.64415">
        <ele>134.3</ele>
        <time>2017-01-22T10:09:20.000Z</time>
      </trkpt>
      <trkpt lat="44.51839" lon="0.6441">
        <ele>134.5</ele>
        <time>2017-01-22T10:09:21.000Z</time>
      </trkpt>
      <trkpt lat="44.5184" lon="0.64405">
        <ele>134.7</ele>
        <time>2017-01-22T10:09:22.000Z</time>
      </trkpt>
      <trkpt lat="44.51841" lon="0.644">
        <ele>134.9</ele>
        <time>2017-01-22T10:09:23.000Z</time>
      </trkpt>
      <trkpt lat="44.51843" lon="0.64395">
        <ele>135.2</ele>
        <time>2017-01-22T10:09:24.000Z</time>
      </trkpt>
      <trkpt lat="44.51844" lon="0.6439">
        <ele>135.4</ele>
        <time>2017-01-22T10:09:25.000Z</time>
      </trkpt>
      <trkpt lat="44.51846" lon="0.64385">
        <ele>135.6</ele>
        <time>2017-01-22T10:09:26.000Z</time>
      </trkpt>
      <trkpt lat="44.51847" lon="0.64381">
        <ele>135.7</ele>
        <time>2017-01-22T10:09:27.000Z</time>
      </trkpt>
      <trkpt lat="44.51849" lon="0.64377">
        <ele>135.9</ele>
        <time>2017-01-22T10:09:28.000Z</time>
      </trkpt>
      <trkpt lat="44.51851" lon="0.64372">
        <ele>136.1</ele>
        <time>2017-01-22T10:09:29.000Z</time>
      </trkpt>
      <trkpt lat="44.51852" lon="0.64368">
        <ele>136.3</ele>
        <time>2017-01-22T10:09:30.000Z</time>
      </trkpt>
      <trkpt lat="44.51854" lon="0.64364">
        <ele>136.4</ele>
        <time>2017-01-22T10:09:31.000Z</time>
      </trkpt>
      <trkpt lat="44.51856" lon="0.6436">
        <ele>136.6</ele>
        <time>2017-01-22T10:09:32.000Z</time>
      </trkpt>
      <trkpt lat="44.51858" lon="0.64356">
        <ele>136.7</ele>
        <time>2017-01-22T10:09:33.000Z</time>
      </trkpt>
      <trkpt lat="44.5186" lon="0.64352">
        <ele>136.8</ele>
        <time>2017-01-22T10:09:34.000Z</time>
      </trkpt>
      <trkpt lat="44.51862" lon="0.64349">
        <ele>137</ele>
        <time>2017-01-22T10:09:35.000Z</time>
      </trkpt>
      <trkpt lat="44.51864" lon="0.64345">
        <ele>137.1</ele>
        <time>2017-01-22T10:09:36.000Z</time>
      </trkpt>
      <trkpt lat="44.51866" lon="0.64341">
        <ele>137.2</ele>
        <time>2017-01-22T10:09:37.000Z</time>
      </trkpt>
      <trkpt lat="44.51868" lon="0.64337">
        <ele>137.3</ele>
        <time>2017-01-22T10:09:38.000Z</time>
      </trkpt>
      <trkpt lat="44.5187" lon="0.64333">
        <ele>137.5</ele>
        <time>2017-01-22T10:09:39.000Z</time>
      </trkpt>
      <trkpt lat="44.51872" lon="0.64329">
        <ele>137.6</ele>
        <time>2017-01-22T10:09:40.000Z</time>
      </trkpt>
      <trkpt lat="44.51874" lon="0.64325">
        <ele>137.8</ele>
        <time>2017-01-22T10:09:41.000Z</time>
      </trkpt>
      <trkpt lat="44.51876" lon="0.64321">
        <ele>138</ele>
        <time>2017-01-22T10:09:42.000Z</time>
      </trkpt>
      <trkpt lat="44.51878" lon="0.64317">
        <ele>138.1</ele>
        <time>2017-01-22T10:09:43.000Z</time>
      </trkpt>
      <trkpt lat="44.51879" lon="0.64313">
        <ele>138.3</ele>
        <time>2017-01-22T10:09:44.000Z</time>
      </trkpt>
      <trkpt lat="44.51881" lon="0.64309">
        <ele>138.5</ele>
        <time>2017-01-22T10:09:45.000Z</time>
      </trkpt>
      <trkpt lat="44.51883" lon="0.64305">
        <ele>138.6</ele>
        <time>2017-01-22T10:09:46.000Z</time>
      </trkpt>
      <trkpt lat="44.51885" lon="0.64301">
        <ele>138.8</ele>
        <time>2017-01-22T10:09:47.000Z</time>
      </trkpt>
      <trkpt lat="44.51887" lon="0.64298">
        <ele>138.9</ele>
        <time>2017-01-22T10:09:48.000Z</time>
      </trkpt>
      <trkpt lat="44.51888" lon="0.64294">
        <ele>139.1</ele>
        <time>2017-01-22T10:09:49.000Z</time>
      </trkpt>
      <trkpt lat="44.5189" lon="0.6429">
        <ele>139.2</ele>
        <time>2017-01-22T10:09:50.000Z</time>
      </trkpt>
      <trkpt lat="44.51892" lon="0.64286">
        <ele>139.4</ele>
        <time>2017-01-22T10:09:51.000Z</time>
      </trkpt>
      <trkpt lat="44.51894" lon="0.64283">
        <ele>139.5</ele>
        <time>2017-01-22T10:09:52.000Z</time>
      </trkpt>
      <trkpt lat="44.51895" lon="0.64279">
        <ele>139.7</ele>
        <time>2017-01-22T10:09:53.000Z</time>
      </trkpt>
      <trkpt lat="44.51897" lon="0.64276">
        <ele>139.8</ele>
        <time>2017-01-22T10:09:54.000Z</time>
      </trkpt>
      <trkpt lat="44.51899" lon="0.64272">
        <ele>140</ele>
        <time>2017-01-22T10:09:55.000Z</time>
      </trkpt>
      <trkpt lat="44.51901" lon="0.64268">
        <ele>140.2</ele>
        <time>2017-01-22T10:09:56.000Z</time>
      </trkpt>
      <trkpt lat="44.51903" lon="0.64265">
        <ele>140.3</ele>
        <time>2017-01-22T10:09:57.000Z</time>
      </trkpt>
      <trkpt lat="44.51905" lon="0.64261">
        <ele>140.5</ele>
        <time>2017-01-22T10:09:58.000Z</time>
      </trkpt>
      <trkpt lat="44.51907" lon="0.64258">
        <ele>140.6</ele>
        <time>2017-01-22T10:09:59.000Z</time>
      </trkpt>
      <trkpt lat="44.51908" lon="0.64254">
        <ele>140.8</ele>
        <time>2017-01-22T10:10:00.000Z</time>
      </trkpt>
      <trkpt lat="44.5191" lon="0.6425">
        <ele>140.9</ele>
        <time>2017-01-22T10:10:01.000Z</time>
      </trkpt>
      <trkpt lat="44.51912" lon="0.64247">
        <ele>141.1</ele>
        <time>2017-01-22T10:10:02.000Z</time>
      </trkpt>
      <trkpt lat="44.51914" lon="0.64243">
        <ele>141.2</ele>
        <time>2017-01-22T10:10:03.000Z</time>
      </trkpt>
      <trkpt lat="44.51915" lon="0.6424">
        <ele>141.4</ele>
        <time>2017-01-22T10:10:04.000Z</time>
      </trkpt>
      <trkpt lat="44.51917" lon="0.64236">
        <ele>141.5</ele>
        <time>2017-01-22T10:10:05.000Z</time>
      </trkpt>
      <trkpt lat="44.51918" lon="0.64232">
        <ele>141.7</ele>
        <time>2017-01-22T10:10:06.000Z</time>
      </trkpt>
      <trkpt lat="44.5192" lon="0.64229">
        <ele>141.9</ele>
        <time>2017-01-22T10:10:07.000Z</time>
      </trkpt>
      <trkpt lat="44.51922" lon="0.64225">
        <ele>142.1</ele>
        <time>2017-01-22T10:10:08.000Z</time>
      </trkpt>
      <trkpt lat="44.51923" lon="0.64222">
        <ele>142.3</ele>
        <time>2017-01-22T10:10:09.000Z</time>
      </trkpt>
      <trkpt lat="44.51925" lon="0.64218">
        <ele>142.5</ele>
        <time>2017-01-22T10:10:10.000Z</time>
      </trkpt>
      <trkpt lat="44.51927" lon="0.64215">
        <ele>142.7</ele>
        <time>2017-01-22T10:10:11.000Z</time>
      </trkpt>
      <trkpt lat="44.51929" lon="0.64211">
        <ele>142.9</ele>
        <time>2017-01-22T10:10:12.000Z</time>
      </trkpt>
      <trkpt lat="44.51931" lon="0.64207">
        <ele>143.1</ele>
        <time>2017-01-22T10:10:13.000Z</time>
      </trkpt>
      <trkpt lat="44.51932" lon="0.64204">
        <ele>143.3</ele>
        <time>2017-01-22T10:10:14.000Z</time>
      </trkpt>
      <trkpt lat="44.51934" lon="0.64201">
        <ele>143.5</ele>
        <time>2017-01-22T10:10:15.000Z</time>
      </trkpt>
      <trkpt lat="44.51935" lon="0.64197">
        <ele>143.6</ele>
        <time>2017-01-22T10:10:16.000Z</time>
      </trkpt>
      <trkpt lat="44.51937" lon="0.64195">
        <ele>143.8</ele>
        <time>2017-01-22T10:10:17.000Z</time>
      </trkpt>
      <trkpt lat="44.51938" lon="0.64192">
        <ele>143.9</ele>
        <time>2017-01-22T10:10:18.000Z</time>
      </trkpt>
      <trkpt lat="44.51939" lon="0.64189">
        <ele>144.1</ele>
        <time>2017-01-22T10:10:19.000Z</time>
      </trkpt>
      <trkpt lat="44.51941" lon="0.64186">
        <ele>144.2</ele>
        <time>2017-01-22T10:10:20.000Z</time>
      </trkpt>
      <trkpt lat="44.51942" lon="0.64184">
        <ele>144.4</ele>
        <time>2017-01-22T10:10:21.000Z</time>
      </trkpt>
      <trkpt lat="44.51943" lon="0.64181">
        <ele>144.5</ele>
        <time>2017-01-22T10:10:22.000Z</time>
      </trkpt>
      <trkpt lat="44.51945" lon="0.64178">
        <ele>144.6</ele>
        <time>2017-01-22T10:10:23.000Z</time>
      </trkpt>
      <trkpt lat="44.51946" lon="0.64175">
        <ele>144.8</ele>
        <time>2017-01-22T10:10:24.000Z</time>
      </trkpt>
      <trkpt lat="44.51947" lon="0.64172">
        <ele>144.9</ele>
        <time>2017-01-22T10:10:25.000Z</time>
      </trkpt>
      <trkpt lat="44.51949" lon="0.64169">
        <ele>145.1</ele>
        <time>2017-01-22T10:10:26.000Z</time>
      </trkpt>
      <trkpt lat="44.5195" lon="0.64167">
        <ele>145.2</ele>
        <time>2017-01-22T10:10:27.000Z</time>
      </trkpt>
      <trkpt lat="44.51952" lon="0.64164">
        <ele>145.3</ele>
        <time>2017-01-22T10:10:28.000Z</time>
      </trkpt>
      <trkpt lat="44.51953" lon="0.64162">
        <ele>145.3</ele>
        <time>2017-01-22T10:10:29.000Z</time>
      </trkpt>
      <trkpt lat="44.51954" lon="0.64159">
        <ele>145.4</ele>
        <time>2017-01-22T10:10:30.000Z</time>
      </trkpt>
      <trkpt lat="44.51955" lon="0.64157">
        <ele>145.4</ele>
        <time>2017-01-22T10:10:31.000Z</time>
      </trkpt>
      <trkpt lat="44.51956" lon="0.64154">
        <ele>145.4</ele>
        <time>2017-01-22T10:10:32.000Z</time>
      </trkpt>
      <trkpt lat="44.51958" lon="0.64152">
        <ele>145.5</ele>
        <time>2017-01-22T10:10:33.000Z</time>
      </trkpt>
      <trkpt lat="44.51959" lon="0.64149">
        <ele>145.5</ele>
        <time>2017-01-22T10:10:34.000Z</time>
      </trkpt>
      <trkpt lat="44.5196" lon="0.64147">
        <ele>145.5</ele>
        <time>2017-01-22T10:10:35.000Z</time>
      </trkpt>
      <trkpt lat="44.51961" lon="0.64144">
        <ele>145.6</ele>
        <time>2017-01-22T10:10:36.000Z</time>
      </trkpt>
      <trkpt lat="44.51962" lon="0.64141">
        <ele>145.6</ele>
        <time>2017-01-22T10:10:37.000Z</time>
      </trkpt>
      <trkpt lat="44.51964" lon="0.64139">
        <ele>145.6</ele>
        <time>2017-01-22T10:10:38.000Z</time>
      </trkpt>
      <trkpt lat="44.51965" lon="0.64136">
        <ele>145.6</ele>
        <time>2017-01-22T10:10:39.000Z</time>
      </trkpt>
      <trkpt lat="44.51966" lon="0.64133">
        <ele>145.6</ele>
        <time>2017-01-22T10:10:40.000Z</time>
      </trkpt>
      <trkpt lat="44.51968" lon="0.64131">
        <ele>145.6</ele>
        <time>2017-01-22T10:10:41.000Z</time>
      </trkpt>
      <trkpt lat="44.51969" lon="0.64128">
        <ele>145.6</ele>
        <time>2017-01-22T10:10:42.000Z</time>
      </trkpt>
      <trkpt lat="44.5197" lon="0.64126">
        <ele>145.6</ele>
        <time>2017-01-22T10:10:43.000Z</time>
      </trkpt>
      <trkpt lat="44.51971" lon="0.64124">
        <ele>145.6</ele>
        <time>2017-01-22T10:10:44.000Z</time>
      </trkpt>
      <trkpt lat="44.51972" lon="0.64122">
        <ele>145.6</ele>
        <time>2017-01-22T10:10:45.000Z</time>
      </trkpt>
      <trkpt lat="44.51973" lon="0.6412">
        <ele>145.6</ele>
        <time>2017-01-22T10:10:46.000Z</time>
      </trkpt>
      <trkpt lat="44.51974" lon="0.64119">
        <ele>145.6</ele>
        <time>2017-01-22T10:10:47.000Z</time>
      </trkpt>
      <trkpt lat="44.51975" lon="0.64117">
        <ele>145.6</ele>
        <time>2017-01-22T10:10:48.000Z</time>
      </trkpt>
      <trkpt lat="44.51977" lon="0.64116">
        <ele>145.6</ele>
        <time>2017-01-22T10:10:49.000Z</time>
      </trkpt>
      <trkpt lat="44.51978" lon="0.64114">
        <ele>145.6</ele>
        <time>2017-01-22T10:10:50.000Z</time>
      </trkpt>
      <trkpt lat="44.51979" lon="0.64113">
        <ele>145.6</ele>
        <time>2017-01-22T10:10:51.000Z</time>
      </trkpt>
      <trkpt lat="44.51981" lon="0.64111">
        <ele>145.6</ele>
        <time>2017-01-22T10:10:52.000Z</time>
      </trkpt>
      <trkpt lat="44.51983" lon="0.64109">
        <ele>145.6</ele>
        <time>2017-01-22T10:10:53.000Z</time>
      </trkpt>
      <trkpt lat="44.51985" lon="0.64107">
        <ele>145.5</ele>
        <time>2017-01-22T10:10:54.000Z</time>
      </trkpt>
      <trkpt lat="44.51987" lon="0.64105">
        <ele>145.5</ele>
        <time>2017-01-22T10:10:55.000Z</time>
      </trkpt>
      <trkpt lat="44.51989" lon="0.64103">
        <ele>145.5</ele>
        <time>2017-01-22T10:10:56.000Z</time>
      </trkpt>
      <trkpt lat="44.51992" lon="0.641">
        <ele>145.4</ele>
        <time>2017-01-22T10:10:57.000Z</time>
      </trkpt>
      <trkpt lat="44.51994" lon="0.64098">
        <ele>145.4</ele>
        <time>2017-01-22T10:10:58.000Z</time>
      </trkpt>
      <trkpt lat="44.51997" lon="0.64095">
        <ele>145.3</ele>
        <time>2017-01-22T10:10:59.000Z</time>
      </trkpt>
      <trkpt lat="44.52" lon="0.64093">
        <ele>145.2</ele>
        <time>2017-01-22T10:11:00.000Z</time>
      </trkpt>
      <trkpt lat="44.52002" lon="0.6409">
        <ele>145</ele>
        <time>2017-01-22T10:11:01.000Z</time>
      </trkpt>
      <trkpt lat="44.52005" lon="0.64087">
        <ele>144.8</ele>
        <time>2017-01-22T10:11:02.000Z</time>
      </trkpt>
      <trkpt lat="44.52009" lon="0.64085">
        <ele>144.5</ele>
        <time>2017-01-22T10:11:03.000Z</time>
      </trkpt>
      <trkpt lat="44.52012" lon="0.64082">
        <ele>144.3</ele>
        <time>2017-01-22T10:11:04.000Z</time>
      </trkpt>
      <trkpt lat="44.52015" lon="0.64079">
        <ele>144.1</ele>
        <time>2017-01-22T10:11:05.000Z</time>
      </trkpt>
      <trkpt lat="44.52019" lon="0.64076">
        <ele>143.9</ele>
        <time>2017-01-22T10:11:06.000Z</time>
      </trkpt>
      <trkpt lat="44.52022" lon="0.64073">
        <ele>143.7</ele>
        <time>2017-01-22T10:11:07.000Z</time>
      </trkpt>
      <trkpt lat="44.52026" lon="0.6407">
        <ele>143.5</ele>
        <time>2017-01-22T10:11:08.000Z</time>
      </trkpt>
      <trkpt lat="44.52029" lon="0.64067">
        <ele>143.3</ele>
        <time>2017-01-22T10:11:09.000Z</time>
      </trkpt>
      <trkpt lat="44.52033" lon="0.64064">
        <ele>143.1</ele>
        <time>2017-01-22T10:11:10.000Z</time>
      </trkpt>
      <trkpt lat="44.52037" lon="0.64061">
        <ele>142.9</ele>
        <time>2017-01-22T10:11:11.000Z</time>
      </trkpt>
      <trkpt lat="44.5204" lon="0.64057">
        <ele>142.7</ele>
        <time>2017-01-22T10:11:12.000Z</time>
      </trkpt>
      <trkpt lat="44.52044" lon="0.64054">
        <ele>142.6</ele>
        <time>2017-01-22T10:11:13.000Z</time>
      </trkpt>
      <trkpt lat="44.52047" lon="0.6405">
        <ele>142.4</ele>
        <time>2017-01-22T10:11:14.000Z</time>
      </trkpt>
      <trkpt lat="44.52051" lon="0.64047">
        <ele>142.2</ele>
        <time>2017-01-22T10:11:15.000Z</time>
      </trkpt>
      <trkpt lat="44.52056" lon="0.64044">
        <ele>142</ele>
        <time>2017-01-22T10:11:16.000Z</time>
      </trkpt>
      <trkpt lat="44.5206" lon="0.64042">
        <ele>141.8</ele>
        <time>2017-01-22T10:11:17.000Z</time>
      </trkpt>
      <trkpt lat="44.52064" lon="0.64039">
        <ele>141.5</ele>
        <time>2017-01-22T10:11:18.000Z</time>
      </trkpt>
      <trkpt lat="44.52069" lon="0.64037">
        <ele>141.3</ele>
        <time>2017-01-22T10:11:19.000Z</time>
      </trkpt>
      <trkpt lat="44.52074" lon="0.64034">
        <ele>141.1</ele>
        <time>2017-01-22T10:11:20.000Z</time>
      </trkpt>
      <trkpt lat="44.5208" lon="0.64032">
        <ele>140.8</ele>
        <time>2017-01-22T10:11:21.000Z</time>
      </trkpt>
      <trkpt lat="44.52085" lon="0.64031">
        <ele>140.5</ele>
        <time>2017-01-22T10:11:22.000Z</time>
      </trkpt>
      <trkpt lat="44.52091" lon="0.64029">
        <ele>140.2</ele>
        <time>2017-01-22T10:11:23.000Z</time>
      </trkpt>
      <trkpt lat="44.52097" lon="0.64028">
        <ele>139.8</ele>
        <time>2017-01-22T10:11:24.000Z</time>
      </trkpt>
      <trkpt lat="44.52103" lon="0.64026">
        <ele>139.4</ele>
        <time>2017-01-22T10:11:25.000Z</time>
      </trkpt>
      <trkpt lat="44.5211" lon="0.64025">
        <ele>139</ele>
        <time>2017-01-22T10:11:26.000Z</time>
      </trkpt>
      <trkpt lat="44.52116" lon="0.64024">
        <ele>138.6</ele>
        <time>2017-01-22T10:11:27.000Z</time>
      </trkpt>
      <trkpt lat="44.52123" lon="0.64023">
        <ele>138.1</ele>
        <time>2017-01-22T10:11:28.000Z</time>
      </trkpt>
      <trkpt lat="44.52131" lon="0.64022">
        <ele>137.6</ele>
        <time>2017-01-22T10:11:29.000Z</time>
      </trkpt>
      <trkpt lat="44.52138" lon="0.64021">
        <ele>137.2</ele>
        <time>2017-01-22T10:11:30.000Z</time>
      </trkpt>
      <trkpt lat="44.52145" lon="0.6402">
        <ele>136.7</ele>
        <time>2017-01-22T10:11:31.000Z</time>
      </trkpt>
      <trkpt lat="44.52153" lon="0.64019">
        <ele>136.1</ele>
        <time>2017-01-22T10:11:32.000Z</time>
      </trkpt>
      <trkpt lat="44.52161" lon="0.64018">
        <ele>135.6</ele>
        <time>2017-01-22T10:11:33.000Z</time>
      </trkpt>
      <trkpt lat="44.52169" lon="0.64017">
        <ele>135.2</ele>
        <time>2017-01-22T10:11:34.000Z</time>
      </trkpt>
      <trkpt lat="44.52177" lon="0.64016">
        <ele>135</ele>
        <time>2017-01-22T10:11:35.000Z</time>
      </trkpt>
      <trkpt lat="44.52185" lon="0.64015">
        <ele>134.7</ele>
        <time>2017-01-22T10:11:36.000Z</time>
      </trkpt>
      <trkpt lat="44.52193" lon="0.64014">
        <ele>134.5</ele>
        <time>2017-01-22T10:11:37.000Z</time>
      </trkpt>
      <trkpt lat="44.522" lon="0.64013">
        <ele>134.3</ele>
        <time>2017-01-22T10:11:38.000Z</time>
      </trkpt>
      <trkpt lat="44.52208" lon="0.64012">
        <ele>134.1</ele>
        <time>2017-01-22T10:11:39.000Z</time>
      </trkpt>
      <trkpt lat="44.52216" lon="0.64011">
        <ele>133.9</ele>
        <time>2017-01-22T10:11:40.000Z</time>
      </trkpt>
      <trkpt lat="44.52224" lon="0.6401">
        <ele>133.8</ele>
        <time>2017-01-22T10:11:41.000Z</time>
      </trkpt>
      <trkpt lat="44.52231" lon="0.64008">
        <ele>133.5</ele>
        <time>2017-01-22T10:11:42.000Z</time>
      </trkpt>
      <trkpt lat="44.52239" lon="0.64007">
        <ele>133.3</ele>
        <time>2017-01-22T10:11:43.000Z</time>
      </trkpt>
      <trkpt lat="44.52248" lon="0.64006">
        <ele>133.1</ele>
        <time>2017-01-22T10:11:44.000Z</time>
      </trkpt>
      <trkpt lat="44.52256" lon="0.64005">
        <ele>133.1</ele>
        <time>2017-01-22T10:11:45.000Z</time>
      </trkpt>
      <trkpt lat="44.52264" lon="0.64004">
        <ele>133.1</ele>
        <time>2017-01-22T10:11:46.000Z</time>
      </trkpt>
      <trkpt lat="44.52272" lon="0.64002">
        <ele>133.1</ele>
        <time>2017-01-22T10:11:47.000Z</time>
      </trkpt>
      <trkpt lat="44.5228" lon="0.64001">
        <ele>133</ele>
        <time>2017-01-22T10:11:48.000Z</time>
      </trkpt>
      <trkpt lat="44.52288" lon="0.64">
        <ele>133</ele>
        <time>2017-01-22T10:11:49.000Z</time>
      </trkpt>
      <trkpt lat="44.52297" lon="0.63999">
        <ele>133</ele>
        <time>2017-01-22T10:11:50.000Z</time>
      </trkpt>
      <trkpt lat="44.52305" lon="0.63998">
        <ele>133</ele>
        <time>2017-01-22T10:11:51.000Z</time>
      </trkpt>
      <trkpt lat="44.52312" lon="0.63997">
        <ele>133</ele>
        <time>2017-01-22T10:11:52.000Z</time>
      </trkpt>
      <trkpt lat="44.5232" lon="0.63996">
        <ele>133.1</ele>
        <time>2017-01-22T10:11:53.000Z</time>
      </trkpt>
      <trkpt lat="44.52328" lon="0.63995">
        <ele>133.1</ele>
        <time>2017-01-22T10:11:54.000Z</time>
      </trkpt>
      <trkpt lat="44.52335" lon="0.63993">
        <ele>133.1</ele>
        <time>2017-01-22T10:11:55.000Z</time>
      </trkpt>
      <trkpt lat="44.52343" lon="0.63992">
        <ele>132.8</ele>
        <time>2017-01-22T10:11:56.000Z</time>
      </trkpt>
      <trkpt lat="44.5235" lon="0.6399">
        <ele>132.6</ele>
        <time>2017-01-22T10:11:57.000Z</time>
      </trkpt>
      <trkpt lat="44.52357" lon="0.63988">
        <ele>132.3</ele>
        <time>2017-01-22T10:11:58.000Z</time>
      </trkpt>
      <trkpt lat="44.52365" lon="0.63985">
        <ele>132</ele>
        <time>2017-01-22T10:11:59.000Z</time>
      </trkpt>
      <trkpt lat="44.52372" lon="0.63983">
        <ele>131.8</ele>
        <time>2017-01-22T10:12:00.000Z</time>
      </trkpt>
      <trkpt lat="44.52378" lon="0.63979">
        <ele>131.5</ele>
        <time>2017-01-22T10:12:01.000Z</time>
      </trkpt>
      <trkpt lat="44.52385" lon="0.63976">
        <ele>131.2</ele>
        <time>2017-01-22T10:12:02.000Z</time>
      </trkpt>
      <trkpt lat="44.52392" lon="0.63971">
        <ele>130.9</ele>
        <time>2017-01-22T10:12:03.000Z</time>
      </trkpt>
      <trkpt lat="44.52398" lon="0.63966">
        <ele>130.5</ele>
        <time>2017-01-22T10:12:04.000Z</time>
      </trkpt>
      <trkpt lat="44.52404" lon="0.6396">
        <ele>130.2</ele>
        <time>2017-01-22T10:12:05.000Z</time>
      </trkpt>
      <trkpt lat="44.5241" lon="0.63954">
        <ele>129.8</ele>
        <time>2017-01-22T10:12:06.000Z</time>
      </trkpt>
      <trkpt lat="44.52416" lon="0.63948">
        <ele>129.4</ele>
        <time>2017-01-22T10:12:07.000Z</time>
      </trkpt>
      <trkpt lat="44.52421" lon="0.63941">
        <ele>129.5</ele>
        <time>2017-01-22T10:12:08.000Z</time>
      </trkpt>
      <trkpt lat="44.52425" lon="0.63935">
        <ele>129.7</ele>
        <time>2017-01-22T10:12:09.000Z</time>
      </trkpt>
      <trkpt lat="44.5243" lon="0.63929">
        <ele>129.9</ele>
        <time>2017-01-22T10:12:10.000Z</time>
      </trkpt>
      <trkpt lat="44.52433" lon="0.63924">
        <ele>130.2</ele>
        <time>2017-01-22T10:12:11.000Z</time>
      </trkpt>
      <trkpt lat="44.52437" lon="0.6392">
        <ele>130.4</ele>
        <time>2017-01-22T10:12:12.000Z</time>
      </trkpt>
      <trkpt lat="44.52441" lon="0.63916">
        <ele>130.7</ele>
        <time>2017-01-22T10:12:13.000Z</time>
      </trkpt>
      <trkpt lat="44.52444" lon="0.63913">
        <ele>131.1</ele>
        <time>2017-01-22T10:12:14.000Z</time>
      </trkpt>
      <trkpt lat="44.52448" lon="0.63911">
        <ele>131.5</ele>
        <time>2017-01-22T10:12:15.000Z</time>
      </trkpt>
      <trkpt lat="44.52452" lon="0.63909">
        <ele>131.8</ele>
        <time>2017-01-22T10:12:16.000Z</time>
      </trkpt>
      <trkpt lat="44.52456" lon="0.63908">
        <ele>132.2</ele>
        <time>2017-01-22T10:12:17.000Z</time>
      </trkpt>
      <trkpt lat="44.52459" lon="0.63906">
        <ele>132.5</ele>
        <time>2017-01-22T10:12:18.000Z</time>
      </trkpt>
      <trkpt lat="44.52462" lon="0.63906">
        <ele>132.8</ele>
        <time>2017-01-22T10:12:19.000Z</time>
      </trkpt>
      <trkpt lat="44.52465" lon="0.63905">
        <ele>133</ele>
        <time>2017-01-22T10:12:20.000Z</time>
      </trkpt>
      <trkpt lat="44.52468" lon="0.63904">
        <ele>133.3</ele>
        <time>2017-01-22T10:12:21.000Z</time>
      </trkpt>
      <trkpt lat="44.5247" lon="0.63904">
        <ele>133.5</ele>
        <time>2017-01-22T10:12:22.000Z</time>
      </trkpt>
      <trkpt lat="44.52473" lon="0.63904">
        <ele>133.7</ele>
        <time>2017-01-22T10:12:23.000Z</time>
      </trkpt>
      <trkpt lat="44.52475" lon="0.63903">
        <ele>133.9</ele>
        <time>2017-01-22T10:12:24.000Z</time>
      </trkpt>
      <trkpt lat="44.52477" lon="0.63903">
        <ele>134.1</ele>
        <time>2017-01-22T10:12:25.000Z</time>
      </trkpt>
      <trkpt lat="44.52479" lon="0.63903">
        <ele>134.3</ele>
        <time>2017-01-22T10:12:26.000Z</time>
      </trkpt>
      <trkpt lat="44.52481" lon="0.63903">
        <ele>134.5</ele>
        <time>2017-01-22T10:12:27.000Z</time>
      </trkpt>
      <trkpt lat="44.52483" lon="0.63903">
        <ele>134.6</ele>
        <time>2017-01-22T10:12:28.000Z</time>
      </trkpt>
      <trkpt lat="44.52485" lon="0.63902">
        <ele>134.8</ele>
        <time>2017-01-22T10:12:29.000Z</time>
      </trkpt>
      <trkpt lat="44.52487" lon="0.63902">
        <ele>135</ele>
        <time>2017-01-22T10:12:30.000Z</time>
      </trkpt>
      <trkpt lat="44.52489" lon="0.63901">
        <ele>135.2</ele>
        <time>2017-01-22T10:12:31.000Z</time>
      </trkpt>
      <trkpt lat="44.52491" lon="0.63901">
        <ele>135.4</ele>
        <time>2017-01-22T10:12:32.000Z</time>
      </trkpt>
      <trkpt lat="44.52493" lon="0.639">
        <ele>135.6</ele>
        <time>2017-01-22T10:12:33.000Z</time>
      </trkpt>
      <trkpt lat="44.52495" lon="0.63899">
        <ele>135.8</ele>
        <time>2017-01-22T10:12:34.000Z</time>
      </trkpt>
      <trkpt lat="44.52497" lon="0.63898">
        <ele>136</ele>
        <time>2017-01-22T10:12:35.000Z</time>
      </trkpt>
      <trkpt lat="44.52499" lon="0.63897">
        <ele>136.3</ele>
        <time>2017-01-22T10:12:36.000Z</time>
      </trkpt>
      <trkpt lat="44.525" lon="0.63896">
        <ele>136.5</ele>
        <time>2017-01-22T10:12:37.000Z</time>
      </trkpt>
      <trkpt lat="44.52502" lon="0.63895">
        <ele>136.7</ele>
        <time>2017-01-22T10:12:38.000Z</time>
      </trkpt>
      <trkpt lat="44.52504" lon="0.63893">
        <ele>136.9</ele>
        <time>2017-01-22T10:12:39.000Z</time>
      </trkpt>
      <trkpt lat="44.52505" lon="0.63891">
        <ele>137.1</ele>
        <time>2017-01-22T10:12:40.000Z</time>
      </trkpt>
      <trkpt lat="44.52507" lon="0.63889">
        <ele>137.3</ele>
        <time>2017-01-22T10:12:41.000Z</time>
      </trkpt>
      <trkpt lat="44.52508" lon="0.63888">
        <ele>137.5</ele>
        <time>2017-01-22T10:12:42.000Z</time>
      </trkpt>
      <trkpt lat="44.52509" lon="0.63886">
        <ele>137.7</ele>
        <time>2017-01-22T10:12:43.000Z</time>
      </trkpt>
      <trkpt lat="44.52511" lon="0.63884">
        <ele>137.9</ele>
        <time>2017-01-22T10:12:44.000Z</time>
      </trkpt>
      <trkpt lat="44.52512" lon="0.63882">
        <ele>138.1</ele>
        <time>2017-01-22T10:12:45.000Z</time>
      </trkpt>
      <trkpt lat="44.52513" lon="0.63879">
        <ele>138.3</ele>
        <time>2017-01-22T10:12:46.000Z</time>
      </trkpt>
      <trkpt lat="44.52514" lon="0.63877">
        <ele>138.5</ele>
        <time>2017-01-22T10:12:47.000Z</time>
      </trkpt>
      <trkpt lat="44.52514" lon="0.63875">
        <ele>138.7</ele>
        <time>2017-01-22T10:12:48.000Z</time>
      </trkpt>
      <trkpt lat="44.52515" lon="0.63873">
        <ele>138.8</ele>
        <time>2017-01-22T10:12:49.000Z</time>
      </trkpt>
      <trkpt lat="44.52516" lon="0.63872">
        <ele>139</ele>
        <time>2017-01-22T10:12:50.000Z</time>
      </trkpt>
      <trkpt lat="44.52516" lon="0.6387">
        <ele>139.2</ele>
        <time>2017-01-22T10:12:51.000Z</time>
      </trkpt>
      <trkpt lat="44.52517" lon="0.63869">
        <ele>139.3</ele>
        <time>2017-01-22T10:12:52.000Z</time>
      </trkpt>
      <trkpt lat="44.52517" lon="0.63867">
        <ele>139.4</ele>
        <time>2017-01-22T10:12:53.000Z</time>
      </trkpt>
      <trkpt lat="44.52517" lon="0.63866">
        <ele>139.5</ele>
        <time>2017-01-22T10:12:54.000Z</time>
      </trkpt>
      <trkpt lat="44.52517" lon="0.63866">
        <ele>139.6</ele>
        <time>2017-01-22T10:12:55.000Z</time>
      </trkpt>
      <trkpt lat="44.52518" lon="0.63865">
        <ele>139.6</ele>
        <time>2017-01-22T10:12:56.000Z</time>
      </trkpt>
      <trkpt lat="44.52518" lon="0.63865">
        <ele>139.6</ele>
        <time>2017-01-22T10:12:57.000Z</time>
      </trkpt>
      <trkpt lat="44.52518" lon="0.63864">
        <ele>139.7</ele>
        <time>2017-01-22T10:12:58.000Z</time>
      </trkpt>
      <trkpt lat="44.52518" lon="0.63864">
        <ele>139.7</ele>
        <time>2017-01-22T10:12:59.000Z</time>
      </trkpt>
      <trkpt lat="44.52518" lon="0.63864">
        <ele>139.7</ele>
        <time>2017-01-22T10:13:00.000Z</time>
      </trkpt>
      <trkpt lat="44.52518" lon="0.63864">
        <ele>139.7</ele>
        <time>2017-01-22T10:13:01.000Z</time>
      </trkpt>
      <trkpt lat="44.52518" lon="0.63864">
        <ele>139.7</ele>
        <time>2017-01-22T10:13:02.000Z</time>
      </trkpt>
      <trkpt lat="44.52518" lon="0.63864">
        <ele>139.7</ele>
        <time>2017-01-22T10:13:03.000Z</time>
      </trkpt>
      <trkpt lat="44.52518" lon="0.63864">
        <ele>139.7</ele>
        <time>2017-01-22T10:13:04.000Z</time>
      </trkpt>
      <trkpt lat="44.52518" lon="0.63864">
        <ele>139.7</ele>
        <time>2017-01-22T10:13:05.000Z</time>
      </trkpt>
      <trkpt lat="44.52518" lon="0.63864">
        <ele>139.7</ele>
        <time>2017-01-22T10:13:06.000Z</time>
      </trkpt>
      <trkpt lat="44.52518" lon="0.63864">
        <ele>139.7</ele>
        <time>2017-01-22T10:13:07.000Z</time>
      </trkpt>
      <trkpt lat="44.52518" lon="0.63863">
        <ele>139.8</ele>
        <time>2017-01-22T10:13:08.000Z</time>
      </trkpt>
      <trkpt lat="44.52518" lon="0.63863">
        <ele>139.8</ele>
        <time>2017-01-22T10:13:09.000Z</time>
      </trkpt>
      <trkpt lat="44.52518" lon="0.63862">
        <ele>139.9</ele>
        <time>2017-01-22T10:13:10.000Z</time>
      </trkpt>
      <trkpt lat="44.52519" lon="0.63861">
        <ele>140</ele>
        <time>2017-01-22T10:13:11.000Z</time>
      </trkpt>
      <trkpt lat="44.52519" lon="0.6386">
        <ele>140.1</ele>
        <time>2017-01-22T10:13:12.000Z</time>
      </trkpt>
      <trkpt lat="44.52519" lon="0.63859">
        <ele>140.2</ele>
        <time>2017-01-22T10:13:13.000Z</time>
      </trkpt>
      <trkpt lat="44.52519" lon="0.63858">
        <ele>140.2</ele>
        <time>2017-01-22T10:13:14.000Z</time>
      </trkpt>
      <trkpt lat="44.52519" lon="0.63857">
        <ele>140.4</ele>
        <time>2017-01-22T10:13:15.000Z</time>
      </trkpt>
      <trkpt lat="44.5252" lon="0.63856">
        <ele>140.5</ele>
        <time>2017-01-22T10:13:16.000Z</time>
      </trkpt>
      <trkpt lat="44.5252" lon="0.63855">
        <ele>140.6</ele>
        <time>2017-01-22T10:13:17.000Z</time>
      </trkpt>
      <trkpt lat="44.52521" lon="0.63853">
        <ele>140.7</ele>
        <time>2017-01-22T10:13:18.000Z</time>
      </trkpt>
      <trkpt lat="44.52521" lon="0.63852">
        <ele>140.8</ele>
        <time>2017-01-22T10:13:19.000Z</time>
      </trkpt>
      <trkpt lat="44.52521" lon="0.6385">
        <ele>141</ele>
        <time>2017-01-22T10:13:20.000Z</time>
      </trkpt>
      <trkpt lat="44.52522" lon="0.63849">
        <ele>141.1</ele>
        <time>2017-01-22T10:13:21.000Z</time>
      </trkpt>
      <trkpt lat="44.52522" lon="0.63848">
        <ele>141.1</ele>
        <time>2017-01-22T10:13:22.000Z</time>
      </trkpt>
      <trkpt lat="44.52522" lon="0.63848">
        <ele>141.2</ele>
        <time>2017-01-22T10:13:23.000Z</time>
      </trkpt>
      <trkpt lat="44.52522" lon="0.63847">
        <ele>141.2</ele>
        <time>2017-01-22T10:13:24.000Z</time>
      </trkpt>
      <trkpt lat="44.52522" lon="0.63847">
        <ele>141.3</ele>
        <time>2017-01-22T10:13:25.000Z</time>
      </trkpt>
      <trkpt lat="44.52522" lon="0.63846">
        <ele>141.3</ele>
        <time>2017-01-22T10:13:26.000Z</time>
      </trkpt>
      <trkpt lat="44.52523" lon="0.63845">
        <ele>141.5</ele>
        <time>2017-01-22T10:13:27.000Z</time>
      </trkpt>
      <trkpt lat="44.52525" lon="0.63844">
        <ele>141.6</ele>
        <time>2017-01-22T10:13:28.000Z</time>
      </trkpt>
      <trkpt lat="44.52527" lon="0.63845">
        <ele>141.7</ele>
        <time>2017-01-22T10:13:29.000Z</time>
      </trkpt>
      <trkpt lat="44.52529" lon="0.63845">
        <ele>141.8</ele>
        <time>2017-01-22T10:13:30.000Z</time>
      </trkpt>
      <trkpt lat="44.52531" lon="0.63846">
        <ele>141.8</ele>
        <time>2017-01-22T10:13:31.000Z</time>
      </trkpt>
      <trkpt lat="44.52533" lon="0.63847">
        <ele>141.9</ele>
        <time>2017-01-22T10:13:32.000Z</time>
      </trkpt>
      <trkpt lat="44.52535" lon="0.63847">
        <ele>141.9</ele>
        <time>2017-01-22T10:13:33.000Z</time>
      </trkpt>
      <trkpt lat="44.52536" lon="0.63848">
        <ele>142</ele>
        <time>2017-01-22T10:13:34.000Z</time>
      </trkpt>
      <trkpt lat="44.52538" lon="0.63848">
        <ele>142.1</ele>
        <time>2017-01-22T10:13:35.000Z</time>
      </trkpt>
      <trkpt lat="44.52539" lon="0.63847">
        <ele>142.2</ele>
        <time>2017-01-22T10:13:36.000Z</time>
      </trkpt>
      <trkpt lat="44.52539" lon="0.63847">
        <ele>142.2</ele>
        <time>2017-01-22T10:13:37.000Z</time>
      </trkpt>
      <trkpt lat="44.5254" lon="0.63847">
        <ele>142.3</ele>
        <time>2017-01-22T10:13:38.000Z</time>
      </trkpt>
      <trkpt lat="44.5254" lon="0.63846">
        <ele>142.3</ele>
        <time>2017-01-22T10:13:39.000Z</time>
      </trkpt>
      <trkpt lat="44.52541" lon="0.63846">
        <ele>142.4</ele>
        <time>2017-01-22T10:13:40.000Z</time>
      </trkpt>
      <trkpt lat="44.52541" lon="0.63846">
        <ele>142.4</ele>
        <time>2017-01-22T10:13:41.000Z</time>
      </trkpt>
      <trkpt lat="44.52543" lon="0.63845">
        <ele>142.6</ele>
        <time>2017-01-22T10:13:42.000Z</time>
      </trkpt>
      <trkpt lat="44.52544" lon="0.63844">
        <ele>142.7</ele>
        <time>2017-01-22T10:13:43.000Z</time>
      </trkpt>
      <trkpt lat="44.52547" lon="0.63843">
        <ele>143</ele>
        <time>2017-01-22T10:13:44.000Z</time>
      </trkpt>
      <trkpt lat="44.52549" lon="0.63842">
        <ele>143.3</ele>
        <time>2017-01-22T10:13:45.000Z</time>
      </trkpt>
      <trkpt lat="44.52551" lon="0.63841">
        <ele>143.5</ele>
        <time>2017-01-22T10:13:46.000Z</time>
      </trkpt>
      <trkpt lat="44.52553" lon="0.63839">
        <ele>143.7</ele>
        <time>2017-01-22T10:13:47.000Z</time>
      </trkpt>
      <trkpt lat="44.52555" lon="0.63838">
        <ele>143.9</ele>
        <time>2017-01-22T10:13:48.000Z</time>
      </trkpt>
      <trkpt lat="44.52556" lon="0.63837">
        <ele>144.1</ele>
        <time>2017-01-22T10:13:49.000Z</time>
      </trkpt>
      <trkpt lat="44.52558" lon="0.63835">
        <ele>144.3</ele>
        <time>2017-01-22T10:13:50.000Z</time>
      </trkpt>
      <trkpt lat="44.52559" lon="0.63834">
        <ele>144.5</ele>
        <time>2017-01-22T10:13:51.000Z</time>
      </trkpt>
      <trkpt lat="44.52561" lon="0.63832">
        <ele>144.7</ele>
        <time>2017-01-22T10:13:52.000Z</time>
      </trkpt>
      <trkpt lat="44.52562" lon="0.63831">
        <ele>144.8</ele>
        <time>2017-01-22T10:13:53.000Z</time>
      </trkpt>
      <trkpt lat="44.52563" lon="0.6383">
        <ele>144.9</ele>
        <time>2017-01-22T10:13:54.000Z</time>
      </trkpt>
      <trkpt lat="44.52564" lon="0.63829">
        <ele>144.9</ele>
        <time>2017-01-22T10:13:55.000Z</time>
      </trkpt>
      <trkpt lat="44.52564" lon="0.63829">
        <ele>145</ele>
        <time>2017-01-22T10:13:56.000Z</time>
      </trkpt>
      <trkpt lat="44.52565" lon="0.63828">
        <ele>145</ele>
        <time>2017-01-22T10:13:57.000Z</time>
      </trkpt>
      <trkpt lat="44.52566" lon="0.63828">
        <ele>145.1</ele>
        <time>2017-01-22T10:13:58.000Z</time>
      </trkpt>
      <trkpt lat="44.52568" lon="0.63827">
        <ele>145.2</ele>
        <time>2017-01-22T10:13:59.000Z</time>
      </trkpt>
      <trkpt lat="44.5257" lon="0.63826">
        <ele>145.4</ele>
        <time>2017-01-22T10:14:00.000Z</time>
      </trkpt>
      <trkpt lat="44.52573" lon="0.63824">
        <ele>145.5</ele>
        <time>2017-01-22T10:14:01.000Z</time>
      </trkpt>
      <trkpt lat="44.52575" lon="0.63823">
        <ele>145.7</ele>
        <time>2017-01-22T10:14:02.000Z</time>
      </trkpt>
      <trkpt lat="44.52577" lon="0.63822">
        <ele>145.8</ele>
        <time>2017-01-22T10:14:03.000Z</time>
      </trkpt>
      <trkpt lat="44.52578" lon="0.63822">
        <ele>145.8</ele>
        <time>2017-01-22T10:14:04.000Z</time>
      </trkpt>
      <trkpt lat="44.52579" lon="0.63822">
        <ele>145.9</ele>
        <time>2017-01-22T10:14:05.000Z</time>
      </trkpt>
      <trkpt lat="44.52579" lon="0.63821">
        <ele>145.9</ele>
        <time>2017-01-22T10:14:06.000Z</time>
      </trkpt>
      <trkpt lat="44.5258" lon="0.63821">
        <ele>145.9</ele>
        <time>2017-01-22T10:14:07.000Z</time>
      </trkpt>
      <trkpt lat="44.5258" lon="0.63821">
        <ele>146</ele>
        <time>2017-01-22T10:14:08.000Z</time>
      </trkpt>
      <trkpt lat="44.52581" lon="0.63821">
        <ele>146</ele>
        <time>2017-01-22T10:14:09.000Z</time>
      </trkpt>
      <trkpt lat="44.52581" lon="0.63821">
        <ele>146.1</ele>
        <time>2017-01-22T10:14:10.000Z</time>
      </trkpt>
      <trkpt lat="44.52583" lon="0.6382">
        <ele>146.1</ele>
        <time>2017-01-22T10:14:11.000Z</time>
      </trkpt>
      <trkpt lat="44.52586" lon="0.63818">
        <ele>146.3</ele>
        <time>2017-01-22T10:14:12.000Z</time>
      </trkpt>
      <trkpt lat="44.52588" lon="0.63817">
        <ele>146.4</ele>
        <time>2017-01-22T10:14:13.000Z</time>
      </trkpt>
      <trkpt lat="44.52589" lon="0.63817">
        <ele>146.5</ele>
        <time>2017-01-22T10:14:14.000Z</time>
      </trkpt>
      <trkpt lat="44.52589" lon="0.63817">
        <ele>146.6</ele>
        <time>2017-01-22T10:14:15.000Z</time>
      </trkpt>
      <trkpt lat="44.5259" lon="0.63817">
        <ele>146.6</ele>
        <time>2017-01-22T10:14:16.000Z</time>
      </trkpt>
      <trkpt lat="44.5259" lon="0.63817">
        <ele>146.6</ele>
        <time>2017-01-22T10:14:17.000Z</time>
      </trkpt>
      <trkpt lat="44.52591" lon="0.63817">
        <ele>146.6</ele>
        <time>2017-01-22T10:14:18.000Z</time>
      </trkpt>
      <trkpt lat="44.52591" lon="0.63816">
        <ele>146.7</ele>
        <time>2017-01-22T10:14:19.000Z</time>
      </trkpt>
      <trkpt lat="44.52591" lon="0.63816">
        <ele>146.7</ele>
        <time>2017-01-22T10:14:20.000Z</time>
      </trkpt>
      <trkpt lat="44.52592" lon="0.63816">
        <ele>146.7</ele>
        <time>2017-01-22T10:14:21.000Z</time>
      </trkpt>
      <trkpt lat="44.52592" lon="0.63816">
        <ele>146.7</ele>
        <time>2017-01-22T10:14:22.000Z</time>
      </trkpt>
      <trkpt lat="44.52592" lon="0.63816">
        <ele>146.7</ele>
        <time>2017-01-22T10:14:23.000Z</time>
      </trkpt>
      <trkpt lat="44.52592" lon="0.63816">
        <ele>146.7</ele>
        <time>2017-01-22T10:14:24.000Z</time>
      </trkpt>
      <trkpt lat="44.52593" lon="0.63816">
        <ele>146.8</ele>
        <time>2017-01-22T10:14:25.000Z</time>
      </trkpt>
      <trkpt lat="44.52593" lon="0.63816">
        <ele>146.8</ele>
        <time>2017-01-22T10:14:26.000Z</time>
      </trkpt>
      <trkpt lat="44.52594" lon="0.63815">
        <ele>146.9</ele>
        <time>2017-01-22T10:14:27.000Z</time>
      </trkpt>
      <trkpt lat="44.52596" lon="0.63814">
        <ele>147</ele>
        <time>2017-01-22T10:14:28.000Z</time>
      </trkpt>
      <trkpt lat="44.52598" lon="0.63812">
        <ele>147.1</ele>
        <time>2017-01-22T10:14:29.000Z</time>
      </trkpt>
      <trkpt lat="44.526" lon="0.6381">
        <ele>147.2</ele>
        <time>2017-01-22T10:14:30.000Z</time>
      </trkpt>
      <trkpt lat="44.526" lon="0.63809">
        <ele>147.3</ele>
        <time>2017-01-22T10:14:31.000Z</time>
      </trkpt>
      <trkpt lat="44.52601" lon="0.63808">
        <ele>147.4</ele>
        <time>2017-01-22T10:14:32.000Z</time>
      </trkpt>
      <trkpt lat="44.52602" lon="0.63808">
        <ele>147.4</ele>
        <time>2017-01-22T10:14:33.000Z</time>
      </trkpt>
      <trkpt lat="44.52602" lon="0.63807">
        <ele>147.4</ele>
        <time>2017-01-22T10:14:34.000Z</time>
      </trkpt>
      <trkpt lat="44.52602" lon="0.63807">
        <ele>147.5</ele>
        <time>2017-01-22T10:14:35.000Z</time>
      </trkpt>
      <trkpt lat="44.52603" lon="0.63807">
        <ele>147.5</ele>
        <time>2017-01-22T10:14:36.000Z</time>
      </trkpt>
      <trkpt lat="44.52603" lon="0.63806">
        <ele>147.5</ele>
        <time>2017-01-22T10:14:37.000Z</time>
      </trkpt>
      <trkpt lat="44.52603" lon="0.63806">
        <ele>147.5</ele>
        <time>2017-01-22T10:14:38.000Z</time>
      </trkpt>
      <trkpt lat="44.52603" lon="0.63806">
        <ele>147.5</ele>
        <time>2017-01-22T10:14:39.000Z</time>
      </trkpt>
      <trkpt lat="44.52603" lon="0.63806">
        <ele>147.5</ele>
        <time>2017-01-22T10:14:40.000Z</time>
      </trkpt>
      <trkpt lat="44.52603" lon="0.63806">
        <ele>147.5</ele>
        <time>2017-01-22T10:14:41.000Z</time>
      </trkpt>
      <trkpt lat="44.52604" lon="0.63805">
        <ele>147.6</ele>
        <time>2017-01-22T10:14:42.000Z</time>
      </trkpt>
      <trkpt lat="44.52604" lon="0.63805">
        <ele>147.6</ele>
        <time>2017-01-22T10:14:43.000Z</time>
      </trkpt>
      <trkpt lat="44.52604" lon="0.63805">
        <ele>147.6</ele>
        <time>2017-01-22T10:14:44.000Z</time>
      </trkpt>
      <trkpt lat="44.52604" lon="0.63805">
        <ele>147.6</ele>
        <time>2017-01-22T10:14:45.000Z</time>
      </trkpt>
      <trkpt lat="44.52604" lon="0.63805">
        <ele>147.6</ele>
        <time>2017-01-22T10:14:46.000Z</time>
      </trkpt>
      <trkpt lat="44.52605" lon="0.63804">
        <ele>147.6</ele>
        <time>2017-01-22T10:14:47.000Z</time>
      </trkpt>
      <trkpt lat="44.52605" lon="0.63804">
        <ele>147.6</ele>
        <time>2017-01-22T10:14:48.000Z</time>
      </trkpt>
      <trkpt lat="44.52605" lon="0.63804">
        <ele>147.7</ele>
        <time>2017-01-22T10:14:49.000Z</time>
      </trkpt>
      <trkpt lat="44.52605" lon="0.63804">
        <ele>147.7</ele>
        <time>2017-01-22T10:14:50.000Z</time>
      </trkpt>
      <trkpt lat="44.52606" lon="0.63803">
        <ele>147.7</ele>
        <time>2017-01-22T10:14:51.000Z</time>
      </trkpt>
      <trkpt lat="44.52608" lon="0.63801">
        <ele>147.9</ele>
        <time>2017-01-22T10:14:52.000Z</time>
      </trkpt>
      <trkpt lat="44.5261" lon="0.638">
        <ele>148</ele>
        <time>2017-01-22T10:14:53.000Z</time>
      </trkpt>
      <trkpt lat="44.52612" lon="0.63798">
        <ele>148.1</ele>
        <time>2017-01-22T10:14:54.000Z</time>
      </trkpt>
      <trkpt lat="44.52613" lon="0.63797">
        <ele>148.2</ele>
        <time>2017-01-22T10:14:55.000Z</time>
      </trkpt>
      <trkpt lat="44.52615" lon="0.63796">
        <ele>148.3</ele>
        <time>2017-01-22T10:14:56.000Z</time>
      </trkpt>
      <trkpt lat="44.52615" lon="0.63795">
        <ele>148.4</ele>
        <time>2017-01-22T10:14:57.000Z</time>
      </trkpt>
      <trkpt lat="44.52616" lon="0.63795">
        <ele>148.4</ele>
        <time>2017-01-22T10:14:58.000Z</time>
      </trkpt>
      <trkpt lat="44.52618" lon="0.63794">
        <ele>148.5</ele>
        <time>2017-01-22T10:14:59.000Z</time>
      </trkpt>
      <trkpt lat="44.5262" lon="0.63792">
        <ele>148.7</ele>
        <time>2017-01-22T10:15:00.000Z</time>
      </trkpt>
      <trkpt lat="44.52621" lon="0.63791">
        <ele>148.8</ele>
        <time>2017-01-22T10:15:01.000Z</time>
      </trkpt>
      <trkpt lat="44.52622" lon="0.6379">
        <ele>148.9</ele>
        <time>2017-01-22T10:15:02.000Z</time>
      </trkpt>
      <trkpt lat="44.52624" lon="0.63789">
        <ele>149</ele>
        <time>2017-01-22T10:15:03.000Z</time>
      </trkpt>
      <trkpt lat="44.52626" lon="0.63788">
        <ele>149.1</ele>
        <time>2017-01-22T10:15:04.000Z</time>
      </trkpt>
      <trkpt lat="44.52627" lon="0.63787">
        <ele>149.2</ele>
        <time>2017-01-22T10:15:05.000Z</time>
      </trkpt>
      <trkpt lat="44.52628" lon="0.63786">
        <ele>149.3</ele>
        <time>2017-01-22T10:15:06.000Z</time>
      </trkpt>
      <trkpt lat="44.52629" lon="0.63785">
        <ele>149.3</ele>
        <time>2017-01-22T10:15:07.000Z</time>
      </trkpt>
      <trkpt lat="44.52629" lon="0.63785">
        <ele>149.3</ele>
        <time>2017-01-22T10:15:08.000Z</time>
      </trkpt>
      <trkpt lat="44.52629" lon="0.63784">
        <ele>149.4</ele>
        <time>2017-01-22T10:15:09.000Z</time>
      </trkpt>
      <trkpt lat="44.5263" lon="0.63784">
        <ele>149.4</ele>
        <time>2017-01-22T10:15:10.000Z</time>
      </trkpt>
      <trkpt lat="44.5263" lon="0.63784">
        <ele>149.4</ele>
        <time>2017-01-22T10:15:11.000Z</time>
      </trkpt>
      <trkpt lat="44.5263" lon="0.63784">
        <ele>149.4</ele>
        <time>2017-01-22T10:15:12.000Z</time>
      </trkpt>
      <trkpt lat="44.5263" lon="0.63784">
        <ele>149.4</ele>
        <time>2017-01-22T10:15:13.000Z</time>
      </trkpt>
      <trkpt lat="44.52632" lon="0.63783">
        <ele>149.5</ele>
        <time>2017-01-22T10:15:14.000Z</time>
      </trkpt>
      <trkpt lat="44.52635" lon="0.6378">
        <ele>149.7</ele>
        <time>2017-01-22T10:15:15.000Z</time>
      </trkpt>
      <trkpt lat="44.52637" lon="0.63778">
        <ele>149.9</ele>
        <time>2017-01-22T10:15:16.000Z</time>
      </trkpt>
      <trkpt lat="44.52638" lon="0.63777">
        <ele>150</ele>
        <time>2017-01-22T10:15:17.000Z</time>
      </trkpt>
      <trkpt lat="44.52639" lon="0.63776">
        <ele>150.1</ele>
        <time>2017-01-22T10:15:18.000Z</time>
      </trkpt>
      <trkpt lat="44.5264" lon="0.63775">
        <ele>150.1</ele>
        <time>2017-01-22T10:15:19.000Z</time>
      </trkpt>
      <trkpt lat="44.52641" lon="0.63775">
        <ele>150.1</ele>
        <time>2017-01-22T10:15:20.000Z</time>
      </trkpt>
      <trkpt lat="44.52641" lon="0.63774">
        <ele>150.2</ele>
        <time>2017-01-22T10:15:21.000Z</time>
      </trkpt>
      <trkpt lat="44.52641" lon="0.63774">
        <ele>150.2</ele>
        <time>2017-01-22T10:15:22.000Z</time>
      </trkpt>
      <trkpt lat="44.52642" lon="0.63774">
        <ele>150.2</ele>
        <time>2017-01-22T10:15:23.000Z</time>
      </trkpt>
      <trkpt lat="44.52642" lon="0.63774">
        <ele>150.2</ele>
        <time>2017-01-22T10:15:24.000Z</time>
      </trkpt>
      <trkpt lat="44.52642" lon="0.63773">
        <ele>150.2</ele>
        <time>2017-01-22T10:15:25.000Z</time>
      </trkpt>
      <trkpt lat="44.52643" lon="0.63773">
        <ele>150.3</ele>
        <time>2017-01-22T10:15:26.000Z</time>
      </trkpt>
      <trkpt lat="44.52644" lon="0.63772">
        <ele>150.3</ele>
        <time>2017-01-22T10:15:27.000Z</time>
      </trkpt>
      <trkpt lat="44.52645" lon="0.63771">
        <ele>150.4</ele>
        <time>2017-01-22T10:15:28.000Z</time>
      </trkpt>
      <trkpt lat="44.52647" lon="0.6377">
        <ele>150.6</ele>
        <time>2017-01-22T10:15:29.000Z</time>
      </trkpt>
      <trkpt lat="44.52649" lon="0.63768">
        <ele>150.7</ele>
        <time>2017-01-22T10:15:30.000Z</time>
      </trkpt>
      <trkpt lat="44.52649" lon="0.63768">
        <ele>150.8</ele>
        <time>2017-01-22T10:15:31.000Z</time>
      </trkpt>
      <trkpt lat="44.5265" lon="0.63767">
        <ele>150.8</ele>
        <time>2017-01-22T10:15:32.000Z</time>
      </trkpt>
      <trkpt lat="44.5265" lon="0.63767">
        <ele>150.8</ele>
        <time>2017-01-22T10:15:33.000Z</time>
      </trkpt>
      <trkpt lat="44.52651" lon="0.63767">
        <ele>150.8</ele>
        <time>2017-01-22T10:15:34.000Z</time>
      </trkpt>
      <trkpt lat="44.52651" lon="0.63766">
        <ele>150.9</ele>
        <time>2017-01-22T10:15:35.000Z</time>
      </trkpt>
      <trkpt lat="44.52651" lon="0.63766">
        <ele>150.9</ele>
        <time>2017-01-22T10:15:36.000Z</time>
      </trkpt>
      <trkpt lat="44.52652" lon="0.63766">
        <ele>150.9</ele>
        <time>2017-01-22T10:15:37.000Z</time>
      </trkpt>
      <trkpt lat="44.52653" lon="0.63765">
        <ele>151</ele>
        <time>2017-01-22T10:15:38.000Z</time>
      </trkpt>
      <trkpt lat="44.52655" lon="0.63763">
        <ele>151.1</ele>
        <time>2017-01-22T10:15:39.000Z</time>
      </trkpt>
      <trkpt lat="44.52658" lon="0.63761">
        <ele>151.3</ele>
        <time>2017-01-22T10:15:40.000Z</time>
      </trkpt>
      <trkpt lat="44.52659" lon="0.6376">
        <ele>151.4</ele>
        <time>2017-01-22T10:15:41.000Z</time>
      </trkpt>
      <trkpt lat="44.52661" lon="0.63759">
        <ele>151.5</ele>
        <time>2017-01-22T10:15:42.000Z</time>
      </trkpt>
      <trkpt lat="44.52662" lon="0.63758">
        <ele>151.6</ele>
        <time>2017-01-22T10:15:43.000Z</time>
      </trkpt>
      <trkpt lat="44.52662" lon="0.63758">
        <ele>151.6</ele>
        <time>2017-01-22T10:15:44.000Z</time>
      </trkpt>
      <trkpt lat="44.52662" lon="0.63758">
        <ele>151.6</ele>
        <time>2017-01-22T10:15:45.000Z</time>
      </trkpt>
      <trkpt lat="44.52662" lon="0.63758">
        <ele>151.6</ele>
        <time>2017-01-22T10:15:46.000Z</time>
      </trkpt>
      <trkpt lat="44.52662" lon="0.63758">
        <ele>151.6</ele>
        <time>2017-01-22T10:15:47.000Z</time>
      </trkpt>
      <trkpt lat="44.52662" lon="0.63757">
        <ele>151.7</ele>
        <time>2017-01-22T10:15:48.000Z</time>
      </trkpt>
      <trkpt lat="44.52663" lon="0.63757">
        <ele>151.7</ele>
        <time>2017-01-22T10:15:49.000Z</time>
      </trkpt>
      <trkpt lat="44.52664" lon="0.63756">
        <ele>151.8</ele>
        <time>2017-01-22T10:15:50.000Z</time>
      </trkpt>
      <trkpt lat="44.52666" lon="0.63755">
        <ele>151.9</ele>
        <time>2017-01-22T10:15:51.000Z</time>
      </trkpt>
      <trkpt lat="44.52668" lon="0.63753">
        <ele>152</ele>
        <time>2017-01-22T10:15:52.000Z</time>
      </trkpt>
      <trkpt lat="44.52669" lon="0.63752">
        <ele>152.1</ele>
        <time>2017-01-22T10:15:53.000Z</time>
      </trkpt>
      <trkpt lat="44.52671" lon="0.6375">
        <ele>152.2</ele>
        <time>2017-01-22T10:15:54.000Z</time>
      </trkpt>
      <trkpt lat="44.52673" lon="0.63749">
        <ele>152.2</ele>
        <time>2017-01-22T10:15:55.000Z</time>
      </trkpt>
      <trkpt lat="44.52675" lon="0.63747">
        <ele>152.2</ele>
        <time>2017-01-22T10:15:56.000Z</time>
      </trkpt>
      <trkpt lat="44.52676" lon="0.63746">
        <ele>152.2</ele>
        <time>2017-01-22T10:15:57.000Z</time>
      </trkpt>
      <trkpt lat="44.52678" lon="0.63745">
        <ele>152.2</ele>
        <time>2017-01-22T10:15:58.000Z</time>
      </trkpt>
      <trkpt lat="44.52679" lon="0.63744">
        <ele>152.2</ele>
        <time>2017-01-22T10:15:59.000Z</time>
      </trkpt>
      <trkpt lat="44.52681" lon="0.63743">
        <ele>152.2</ele>
        <time>2017-01-22T10:16:00.000Z</time>
      </trkpt>
      <trkpt lat="44.52683" lon="0.63742">
        <ele>152.3</ele>
        <time>2017-01-22T10:16:01.000Z</time>
      </trkpt>
      <trkpt lat="44.52684" lon="0.63742">
        <ele>152.3</ele>
        <time>2017-01-22T10:16:02.000Z</time>
      </trkpt>
      <trkpt lat="44.52685" lon="0.63741">
        <ele>152.3</ele>
        <time>2017-01-22T10:16:03.000Z</time>
      </trkpt>
      <trkpt lat="44.52687" lon="0.6374">
        <ele>152.3</ele>
        <time>2017-01-22T10:16:04.000Z</time>
      </trkpt>
      <trkpt lat="44.52688" lon="0.63739">
        <ele>152.4</ele>
        <time>2017-01-22T10:16:05.000Z</time>
      </trkpt>
      <trkpt lat="44.52689" lon="0.63739">
        <ele>152.4</ele>
        <time>2017-01-22T10:16:06.000Z</time>
      </trkpt>
      <trkpt lat="44.52691" lon="0.63738">
        <ele>152.4</ele>
        <time>2017-01-22T10:16:07.000Z</time>
      </trkpt>
      <trkpt lat="44.52692" lon="0.63737">
        <ele>152.4</ele>
        <time>2017-01-22T10:16:08.000Z</time>
      </trkpt>
      <trkpt lat="44.52694" lon="0.63736">
        <ele>152.4</ele>
        <time>2017-01-22T10:16:09.000Z</time>
      </trkpt>
      <trkpt lat="44.52695" lon="0.63735">
        <ele>152.4</ele>
        <time>2017-01-22T10:16:10.000Z</time>
      </trkpt>
      <trkpt lat="44.52697" lon="0.63734">
        <ele>152.5</ele>
        <time>2017-01-22T10:16:11.000Z</time>
      </trkpt>
      <trkpt lat="44.52699" lon="0.63734">
        <ele>152.5</ele>
        <time>2017-01-22T10:16:12.000Z</time>
      </trkpt>
      <trkpt lat="44.52701" lon="0.63733">
        <ele>152.5</ele>
        <time>2017-01-22T10:16:13.000Z</time>
      </trkpt>
      <trkpt lat="44.52702" lon="0.63732">
        <ele>152.6</ele>
        <time>2017-01-22T10:16:14.000Z</time>
      </trkpt>
      <trkpt lat="44.52704" lon="0.63732">
        <ele>152.6</ele>
        <time>2017-01-22T10:16:15.000Z</time>
      </trkpt>
      <trkpt lat="44.52705" lon="0.63732">
        <ele>152.6</ele>
        <time>2017-01-22T10:16:16.000Z</time>
      </trkpt>
      <trkpt lat="44.52706" lon="0.63731">
        <ele>152.6</ele>
        <time>2017-01-22T10:16:17.000Z</time>
      </trkpt>
      <trkpt lat="44.52706" lon="0.63731">
        <ele>152.6</ele>
        <time>2017-01-22T10:16:18.000Z</time>
      </trkpt>
      <trkpt lat="44.52706" lon="0.63731">
        <ele>152.6</ele>
        <time>2017-01-22T10:16:19.000Z</time>
      </trkpt>
      <trkpt lat="44.52706" lon="0.63731">
        <ele>152.6</ele>
        <time>2017-01-22T10:16:20.000Z</time>
      </trkpt>
      <trkpt lat="44.52706" lon="0.63731">
        <ele>152.6</ele>
        <time>2017-01-22T10:16:21.000Z</time>
      </trkpt>
      <trkpt lat="44.52706" lon="0.63731">
        <ele>152.6</ele>
        <time>2017-01-22T10:16:22.000Z</time>
      </trkpt>
      <trkpt lat="44.52706" lon="0.63731">
        <ele>152.6</ele>
        <time>2017-01-22T10:16:23.000Z</time>
      </trkpt>
      <trkpt lat="44.52706" lon="0.63731">
        <ele>152.6</ele>
        <time>2017-01-22T10:16:24.000Z</time>
      </trkpt>
      <trkpt lat="44.52706" lon="0.63731">
        <ele>152.6</ele>
        <time>2017-01-22T10:16:25.000Z</time>
      </trkpt>
      <trkpt lat="44.52706" lon="0.63731">
        <ele>152.6</ele>
        <time>2017-01-22T10:16:26.000Z</time>
      </trkpt>
      <trkpt lat="44.52706" lon="0.63731">
        <ele>152.6</ele>
        <time>2017-01-22T10:16:27.000Z</time>
      </trkpt>
      <trkpt lat="44.52706" lon="0.63731">
        <ele>152.6</ele>
        <time>2017-01-22T10:16:28.000Z</time>
      </trkpt>
      <trkpt lat="44.52706" lon="0.63731">
        <ele>152.6</ele>
        <time>2017-01-22T10:16:29.000Z</time>
      </trkpt>
      <trkpt lat="44.52706" lon="0.63731">
        <ele>152.6</ele>
        <time>2017-01-22T10:16:30.000Z</time>
      </trkpt>
      <trkpt lat="44.52706" lon="0.63731">
        <ele>152.6</ele>
        <time>2017-01-22T10:16:31.000Z</time>
      </trkpt>
      <trkpt lat="44.52706" lon="0.63731">
        <ele>152.6</ele>
        <time>2017-01-22T10:16:32.000Z</time>
      </trkpt>
      <trkpt lat="44.52706" lon="0.63731">
        <ele>152.6</ele>
        <time>2017-01-22T10:16:33.000Z</time>
      </trkpt>
      <trkpt lat="44.52706" lon="0.63731">
        <ele>152.6</ele>
        <time>2017-01-22T10:16:34.000Z</time>
      </trkpt>
      <trkpt lat="44.52706" lon="0.63731">
        <ele>152.6</ele>
        <time>2017-01-22T10:16:35.000Z</time>
      </trkpt>
      <trkpt lat="44.52706" lon="0.63731">
        <ele>152.6</ele>
        <time>2017-01-22T10:16:36.000Z</time>
      </trkpt>
      <trkpt lat="44.52706" lon="0.63731">
        <ele>152.6</ele>
        <time>2017-01-22T10:16:37.000Z</time>
      </trkpt>
      <trkpt lat="44.52706" lon="0.63731">
        <ele>152.6</ele>
        <time>2017-01-22T10:16:38.000Z</time>
      </trkpt>
      <trkpt lat="44.52706" lon="0.63731">
        <ele>152.6</ele>
        <time>2017-01-22T10:16:39.000Z</time>
      </trkpt>
      <trkpt lat="44.52706" lon="0.63731">
        <ele>152.6</ele>
        <time>2017-01-22T10:16:40.000Z</time>
      </trkpt>
      <trkpt lat="44.52706" lon="0.63731">
        <ele>152.6</ele>
        <time>2017-01-22T10:16:41.000Z</time>
      </trkpt>
      <trkpt lat="44.52706" lon="0.63731">
        <ele>152.6</ele>
        <time>2017-01-22T10:16:42.000Z</time>
      </trkpt>
      <trkpt lat="44.52706" lon="0.63731">
        <ele>152.6</ele>
        <time>2017-01-22T10:16:43.000Z</time>
      </trkpt>
      <trkpt lat="44.52706" lon="0.63731">
        <ele>152.6</ele>
        <time>2017-01-22T10:16:44.000Z</time>
      </trkpt>
      <trkpt lat="44.52706" lon="0.63731">
        <ele>152.6</ele>
        <time>2017-01-22T10:16:45.000Z</time>
      </trkpt>
      <trkpt lat="44.52706" lon="0.63731">
        <ele>152.6</ele>
        <time>2017-01-22T10:16:46.000Z</time>
      </trkpt>
      <trkpt lat="44.52706" lon="0.63731">
        <ele>152.6</ele>
        <time>2017-01-22T10:16:47.000Z</time>
      </trkpt>
      <trkpt lat="44.52706" lon="0.63731">
        <ele>152.6</ele>
        <time>2017-01-22T10:16:48.000Z</time>
      </trkpt>
      <trkpt lat="44.52706" lon="0.63731">
        <ele>152.6</ele>
        <time>2017-01-22T10:16:49.000Z</time>
      </trkpt>
      <trkpt lat="44.52706" lon="0.63731">
        <ele>152.6</ele>
        <time>2017-01-22T10:16:50.000Z</time>
      </trkpt>
      <trkpt lat="44.52706" lon="0.63731">
        <ele>152.6</ele>
        <time>2017-01-22T10:16:51.000Z</time>
      </trkpt>
      <trkpt lat="44.52706" lon="0.63731">
        <ele>152.6</ele>
        <time>2017-01-22T10:16:52.000Z</time>
      </trkpt>
      <trkpt lat="44.52706" lon="0.63731">
        <ele>152.6</ele>
        <time>2017-01-22T10:16:53.000Z</time>
      </trkpt>
      <trkpt lat="44.52706" lon="0.63731">
        <ele>152.6</ele>
        <time>2017-01-22T10:16:54.000Z</time>
      </trkpt>
      <trkpt lat="44.52706" lon="0.63731">
        <ele>152.6</ele>
        <time>2017-01-22T10:16:55.000Z</time>
      </trkpt>
      <trkpt lat="44.52706" lon="0.63731">
        <ele>152.6</ele>
        <time>2017-01-22T10:16:56.000Z</time>
      </trkpt>
      <trkpt lat="44.52706" lon="0.63731">
        <ele>152.6</ele>
        <time>2017-01-22T10:16:57.000Z</time>
      </trkpt>
      <trkpt lat="44.52706" lon="0.63731">
        <ele>152.6</ele>
        <time>2017-01-22T10:16:58.000Z</time>
      </trkpt>
      <trkpt lat="44.52706" lon="0.63731">
        <ele>152.6</ele>
        <time>2017-01-22T10:16:59.000Z</time>
      </trkpt>
      <trkpt lat="44.52706" lon="0.63731">
        <ele>152.6</ele>
        <time>2017-01-22T10:17:00.000Z</time>
      </trkpt>
      <trkpt lat="44.52706" lon="0.63731">
        <ele>152.6</ele>
        <time>2017-01-22T10:17:01.000Z</time>
      </trkpt>
      <trkpt lat="44.52706" lon="0.63731">
        <ele>152.6</ele>
        <time>2017-01-22T10:17:02.000Z</time>
      </trkpt>
      <trkpt lat="44.52706" lon="0.63731">
        <ele>152.6</ele>
        <time>2017-01-22T10:17:03.000Z</time>
      </trkpt>
      <trkpt lat="44.52706" lon="0.63731">
        <ele>152.6</ele>
        <time>2017-01-22T10:17:04.000Z</time>
      </trkpt>
      <trkpt lat="44.52706" lon="0.63731">
        <ele>152.6</ele>
        <time>2017-01-22T10:17:05.000Z</time>
      </trkpt>
      <trkpt lat="44.52706" lon="0.63731">
        <ele>152.6</ele>
        <time>2017-01-22T10:17:06.000Z</time>
      </trkpt>
      <trkpt lat="44.52706" lon="0.63731">
        <ele>152.6</ele>
        <time>2017-01-22T10:17:07.000Z</time>
      </trkpt>
      <trkpt lat="44.52706" lon="0.63731">
        <ele>152.6</ele>
        <time>2017-01-22T10:17:08.000Z</time>
      </trkpt>
      <trkpt lat="44.52706" lon="0.63731">
        <ele>152.6</ele>
        <time>2017-01-22T10:17:09.000Z</time>
      </trkpt>
      <trkpt lat="44.52706" lon="0.63731">
        <ele>152.6</ele>
        <time>2017-01-22T10:17:10.000Z</time>
      </trkpt>
      <trkpt lat="44.52706" lon="0.63731">
        <ele>152.6</ele>
        <time>2017-01-22T10:17:11.000Z</time>
      </trkpt>
      <trkpt lat="44.52707" lon="0.63731">
        <ele>152.6</ele>
        <time>2017-01-22T10:17:12.000Z</time>
      </trkpt>
      <trkpt lat="44.52707" lon="0.63731">
        <ele>152.6</ele>
        <time>2017-01-22T10:17:13.000Z</time>
      </trkpt>
      <trkpt lat="44.52707" lon="0.63731">
        <ele>152.6</ele>
        <time>2017-01-22T10:17:14.000Z</time>
      </trkpt>
      <trkpt lat="44.52707" lon="0.63731">
        <ele>152.7</ele>
        <time>2017-01-22T10:17:15.000Z</time>
      </trkpt>
      <trkpt lat="44.52708" lon="0.6373">
        <ele>152.7</ele>
        <time>2017-01-22T10:17:16.000Z</time>
      </trkpt>
      <trkpt lat="44.52709" lon="0.6373">
        <ele>152.7</ele>
        <time>2017-01-22T10:17:17.000Z</time>
      </trkpt>
      <trkpt lat="44.5271" lon="0.63728">
        <ele>152.6</ele>
        <time>2017-01-22T10:17:18.000Z</time>
      </trkpt>
      <trkpt lat="44.52712" lon="0.63726">
        <ele>152.6</ele>
        <time>2017-01-22T10:17:19.000Z</time>
      </trkpt>
      <trkpt lat="44.52714" lon="0.63724">
        <ele>152.6</ele>
        <time>2017-01-22T10:17:20.000Z</time>
      </trkpt>
      <trkpt lat="44.52717" lon="0.63722">
        <ele>152.6</ele>
        <time>2017-01-22T10:17:21.000Z</time>
      </trkpt>
      <trkpt lat="44.5272" lon="0.6372">
        <ele>152.6</ele>
        <time>2017-01-22T10:17:22.000Z</time>
      </trkpt>
      <trkpt lat="44.52723" lon="0.63717">
        <ele>152.6</ele>
        <time>2017-01-22T10:17:23.000Z</time>
      </trkpt>
      <trkpt lat="44.52726" lon="0.63714">
        <ele>152.5</ele>
        <time>2017-01-22T10:17:24.000Z</time>
      </trkpt>
      <trkpt lat="44.5273" lon="0.63711">
        <ele>152.5</ele>
        <time>2017-01-22T10:17:25.000Z</time>
      </trkpt>
      <trkpt lat="44.52734" lon="0.63707">
        <ele>152.5</ele>
        <time>2017-01-22T10:17:26.000Z</time>
      </trkpt>
      <trkpt lat="44.52738" lon="0.63704">
        <ele>152.4</ele>
        <time>2017-01-22T10:17:27.000Z</time>
      </trkpt>
      <trkpt lat="44.52742" lon="0.63701">
        <ele>152.4</ele>
        <time>2017-01-22T10:17:28.000Z</time>
      </trkpt>
      <trkpt lat="44.52746" lon="0.63697">
        <ele>152.3</ele>
        <time>2017-01-22T10:17:29.000Z</time>
      </trkpt>
      <trkpt lat="44.5275" lon="0.63693">
        <ele>152.2</ele>
        <time>2017-01-22T10:17:30.000Z</time>
      </trkpt>
      <trkpt lat="44.52756" lon="0.63687">
        <ele>151.1</ele>
        <time>2017-01-22T10:17:31.000Z</time>
      </trkpt>
      <trkpt lat="44.52762" lon="0.6368">
        <ele>149.9</ele>
        <time>2017-01-22T10:17:32.000Z</time>
      </trkpt>
      <trkpt lat="44.52768" lon="0.63672">
        <ele>148.6</ele>
        <time>2017-01-22T10:17:33.000Z</time>
      </trkpt>
      <trkpt lat="44.52774" lon="0.63664">
        <ele>147.4</ele>
        <time>2017-01-22T10:17:34.000Z</time>
      </trkpt>
      <trkpt lat="44.52778" lon="0.63657">
        <ele>146.5</ele>
        <time>2017-01-22T10:17:35.000Z</time>
      </trkpt>
      <trkpt lat="44.52782" lon="0.63652">
        <ele>145.7</ele>
        <time>2017-01-22T10:17:36.000Z</time>
      </trkpt>
      <trkpt lat="44.52785" lon="0.63648">
        <ele>145.2</ele>
        <time>2017-01-22T10:17:37.000Z</time>
      </trkpt>
      <trkpt lat="44.52788" lon="0.63645">
        <ele>144.7</ele>
        <time>2017-01-22T10:17:38.000Z</time>
      </trkpt>
      <trkpt lat="44.52789" lon="0.63642">
        <ele>144.4</ele>
        <time>2017-01-22T10:17:39.000Z</time>
      </trkpt>
      <trkpt lat="44.52791" lon="0.6364">
        <ele>144.2</ele>
        <time>2017-01-22T10:17:40.000Z</time>
      </trkpt>
      <trkpt lat="44.52791" lon="0.63636">
        <ele>144</ele>
        <time>2017-01-22T10:17:41.000Z</time>
      </trkpt>
      <trkpt lat="44.52791" lon="0.63632">
        <ele>143.8</ele>
        <time>2017-01-22T10:17:42.000Z</time>
      </trkpt>
      <trkpt lat="44.52791" lon="0.63628">
        <ele>143.6</ele>
        <time>2017-01-22T10:17:43.000Z</time>
      </trkpt>
      <trkpt lat="44.52791" lon="0.63623">
        <ele>143.5</ele>
        <time>2017-01-22T10:17:44.000Z</time>
      </trkpt>
      <trkpt lat="44.52791" lon="0.63618">
        <ele>143.3</ele>
        <time>2017-01-22T10:17:45.000Z</time>
      </trkpt>
      <trkpt lat="44.52791" lon="0.63614">
        <ele>143.2</ele>
        <time>2017-01-22T10:17:46.000Z</time>
      </trkpt>
      <trkpt lat="44.52791" lon="0.63609">
        <ele>143</ele>
        <time>2017-01-22T10:17:47.000Z</time>
      </trkpt>
      <trkpt lat="44.52791" lon="0.63605">
        <ele>142.8</ele>
        <time>2017-01-22T10:17:48.000Z</time>
      </trkpt>
      <trkpt lat="44.52792" lon="0.63601">
        <ele>142.6</ele>
        <time>2017-01-22T10:17:49.000Z</time>
      </trkpt>
      <trkpt lat="44.52792" lon="0.63598">
        <ele>142.5</ele>
        <time>2017-01-22T10:17:50.000Z</time>
      </trkpt>
      <trkpt lat="44.52793" lon="0.63595">
        <ele>142.3</ele>
        <time>2017-01-22T10:17:51.000Z</time>
      </trkpt>
      <trkpt lat="44.52794" lon="0.63592">
        <ele>142.1</ele>
        <time>2017-01-22T10:17:52.000Z</time>
      </trkpt>
      <trkpt lat="44.52795" lon="0.63589">
        <ele>142</ele>
        <time>2017-01-22T10:17:53.000Z</time>
      </trkpt>
      <trkpt lat="44.52796" lon="0.63587">
        <ele>141.8</ele>
        <time>2017-01-22T10:17:54.000Z</time>
      </trkpt>
      <trkpt lat="44.52797" lon="0.63584">
        <ele>141.7</ele>
        <time>2017-01-22T10:17:55.000Z</time>
      </trkpt>
      <trkpt lat="44.52797" lon="0.63581">
        <ele>141.7</ele>
        <time>2017-01-22T10:17:56.000Z</time>
      </trkpt>
      <trkpt lat="44.52798" lon="0.63578">
        <ele>141.9</ele>
        <time>2017-01-22T10:17:57.000Z</time>
      </trkpt>
      <trkpt lat="44.52798" lon="0.63575">
        <ele>142</ele>
        <time>2017-01-22T10:17:58.000Z</time>
      </trkpt>
      <trkpt lat="44.52798" lon="0.63571">
        <ele>142.2</ele>
        <time>2017-01-22T10:17:59.000Z</time>
      </trkpt>
      <trkpt lat="44.52799" lon="0.63568">
        <ele>142.3</ele>
        <time>2017-01-22T10:18:00.000Z</time>
      </trkpt>
      <trkpt lat="44.52799" lon="0.63565">
        <ele>142.5</ele>
        <time>2017-01-22T10:18:01.000Z</time>
      </trkpt>
      <trkpt lat="44.52799" lon="0.63561">
        <ele>142.7</ele>
        <time>2017-01-22T10:18:02.000Z</time>
      </trkpt>
      <trkpt lat="44.528" lon="0.63558">
        <ele>142.8</ele>
        <time>2017-01-22T10:18:03.000Z</time>
      </trkpt>
      <trkpt lat="44.528" lon="0.63554">
        <ele>143</ele>
        <time>2017-01-22T10:18:04.000Z</time>
      </trkpt>
      <trkpt lat="44.52801" lon="0.63551">
        <ele>143.2</ele>
        <time>2017-01-22T10:18:05.000Z</time>
      </trkpt>
      <trkpt lat="44.52801" lon="0.63547">
        <ele>143.3</ele>
        <time>2017-01-22T10:18:06.000Z</time>
      </trkpt>
      <trkpt lat="44.52801" lon="0.63544">
        <ele>143.5</ele>
        <time>2017-01-22T10:18:07.000Z</time>
      </trkpt>
      <trkpt lat="44.52802" lon="0.6354">
        <ele>143.7</ele>
        <time>2017-01-22T10:18:08.000Z</time>
      </trkpt>
      <trkpt lat="44.52802" lon="0.63537">
        <ele>143.8</ele>
        <time>2017-01-22T10:18:09.000Z</time>
      </trkpt>
      <trkpt lat="44.52802" lon="0.63534">
        <ele>144</ele>
        <time>2017-01-22T10:18:10.000Z</time>
      </trkpt>
      <trkpt lat="44.52803" lon="0.6353">
        <ele>144.2</ele>
        <time>2017-01-22T10:18:11.000Z</time>
      </trkpt>
      <trkpt lat="44.52803" lon="0.63527">
        <ele>144.3</ele>
        <time>2017-01-22T10:18:12.000Z</time>
      </trkpt>
      <trkpt lat="44.52803" lon="0.63523">
        <ele>144.5</ele>
        <time>2017-01-22T10:18:13.000Z</time>
      </trkpt>
      <trkpt lat="44.52803" lon="0.6352">
        <ele>144.7</ele>
        <time>2017-01-22T10:18:14.000Z</time>
      </trkpt>
      <trkpt lat="44.52804" lon="0.63517">
        <ele>144.9</ele>
        <time>2017-01-22T10:18:15.000Z</time>
      </trkpt>
      <trkpt lat="44.52804" lon="0.63514">
        <ele>145</ele>
        <time>2017-01-22T10:18:16.000Z</time>
      </trkpt>
      <trkpt lat="44.52804" lon="0.63511">
        <ele>145.2</ele>
        <time>2017-01-22T10:18:17.000Z</time>
      </trkpt>
      <trkpt lat="44.52804" lon="0.63508">
        <ele>145.3</ele>
        <time>2017-01-22T10:18:18.000Z</time>
      </trkpt>
      <trkpt lat="44.52804" lon="0.63505">
        <ele>145.5</ele>
        <time>2017-01-22T10:18:19.000Z</time>
      </trkpt>
      <trkpt lat="44.52805" lon="0.63502">
        <ele>145.6</ele>
        <time>2017-01-22T10:18:20.000Z</time>
      </trkpt>
      <trkpt lat="44.52805" lon="0.63499">
        <ele>145.7</ele>
        <time>2017-01-22T10:18:21.000Z</time>
      </trkpt>
      <trkpt lat="44.52805" lon="0.63495">
        <ele>145.8</ele>
        <time>2017-01-22T10:18:22.000Z</time>
      </trkpt>
      <trkpt lat="44.52805" lon="0.63492">
        <ele>145.8</ele>
        <time>2017-01-22T10:18:23.000Z</time>
      </trkpt>
      <trkpt lat="44.52806" lon="0.63489">
        <ele>145.8</ele>
        <time>2017-01-22T10:18:24.000Z</time>
      </trkpt>
      <trkpt lat="44.52806" lon="0.63486">
        <ele>145.9</ele>
        <time>2017-01-22T10:18:25.000Z</time>
      </trkpt>
      <trkpt lat="44.52807" lon="0.63482">
        <ele>145.9</ele>
        <time>2017-01-22T10:18:26.000Z</time>
      </trkpt>
      <trkpt lat="44.52807" lon="0.63478">
        <ele>145.9</ele>
        <time>2017-01-22T10:18:27.000Z</time>
      </trkpt>
      <trkpt lat="44.52807" lon="0.63475">
        <ele>146</ele>
        <time>2017-01-22T10:18:28.000Z</time>
      </trkpt>
      <trkpt lat="44.52808" lon="0.63471">
        <ele>146</ele>
        <time>2017-01-22T10:18:29.000Z</time>
      </trkpt>
      <trkpt lat="44.52808" lon="0.63467">
        <ele>146.1</ele>
        <time>2017-01-22T10:18:30.000Z</time>
      </trkpt>
      <trkpt lat="44.52809" lon="0.63463">
        <ele>146.1</ele>
        <time>2017-01-22T10:18:31.000Z</time>
      </trkpt>
      <trkpt lat="44.52809" lon="0.63459">
        <ele>146.1</ele>
        <time>2017-01-22T10:18:32.000Z</time>
      </trkpt>
      <trkpt lat="44.5281" lon="0.63455">
        <ele>146.2</ele>
        <time>2017-01-22T10:18:33.000Z</time>
      </trkpt>
      <trkpt lat="44.5281" lon="0.63451">
        <ele>146.2</ele>
        <time>2017-01-22T10:18:34.000Z</time>
      </trkpt>
      <trkpt lat="44.52811" lon="0.63447">
        <ele>146.3</ele>
        <time>2017-01-22T10:18:35.000Z</time>
      </trkpt>
      <trkpt lat="44.52811" lon="0.63443">
        <ele>146.3</ele>
        <time>2017-01-22T10:18:36.000Z</time>
      </trkpt>
      <trkpt lat="44.52812" lon="0.63439">
        <ele>146.4</ele>
        <time>2017-01-22T10:18:37.000Z</time>
      </trkpt>
      <trkpt lat="44.52812" lon="0.63435">
        <ele>146.5</ele>
        <time>2017-01-22T10:18:38.000Z</time>
      </trkpt>
      <trkpt lat="44.52812" lon="0.63431">
        <ele>146.5</ele>
        <time>2017-01-22T10:18:39.000Z</time>
      </trkpt>
      <trkpt lat="44.52813" lon="0.63427">
        <ele>146.6</ele>
        <time>2017-01-22T10:18:40.000Z</time>
      </trkpt>
      <trkpt lat="44.52813" lon="0.63423">
        <ele>146.6</ele>
        <time>2017-01-22T10:18:41.000Z</time>
      </trkpt>
      <trkpt lat="44.52813" lon="0.63419">
        <ele>146.7</ele>
        <time>2017-01-22T10:18:42.000Z</time>
      </trkpt>
      <trkpt lat="44.52814" lon="0.63416">
        <ele>146.7</ele>
        <time>2017-01-22T10:18:43.000Z</time>
      </trkpt>
      <trkpt lat="44.52814" lon="0.63412">
        <ele>146.7</ele>
        <time>2017-01-22T10:18:44.000Z</time>
      </trkpt>
      <trkpt lat="44.52814" lon="0.63407">
        <ele>146.7</ele>
        <time>2017-01-22T10:18:45.000Z</time>
      </trkpt>
      <trkpt lat="44.52815" lon="0.63403">
        <ele>146.7</ele>
        <time>2017-01-22T10:18:46.000Z</time>
      </trkpt>
      <trkpt lat="44.52815" lon="0.63399">
        <ele>146.7</ele>
        <time>2017-01-22T10:18:47.000Z</time>
      </trkpt>
      <trkpt lat="44.52816" lon="0.63395">
        <ele>146.7</ele>
        <time>2017-01-22T10:18:48.000Z</time>
      </trkpt>
      <trkpt lat="44.52816" lon="0.63391">
        <ele>146.7</ele>
        <time>2017-01-22T10:18:49.000Z</time>
      </trkpt>
      <trkpt lat="44.52817" lon="0.63387">
        <ele>146.7</ele>
        <time>2017-01-22T10:18:50.000Z</time>
      </trkpt>
      <trkpt lat="44.52817" lon="0.63383">
        <ele>146.7</ele>
        <time>2017-01-22T10:18:51.000Z</time>
      </trkpt>
      <trkpt lat="44.52817" lon="0.63379">
        <ele>146.7</ele>
        <time>2017-01-22T10:18:52.000Z</time>
      </trkpt>
      <trkpt lat="44.52818" lon="0.63374">
        <ele>146.7</ele>
        <time>2017-01-22T10:18:53.000Z</time>
      </trkpt>
      <trkpt lat="44.52818" lon="0.6337">
        <ele>146.7</ele>
        <time>2017-01-22T10:18:54.000Z</time>
      </trkpt>
      <trkpt lat="44.52819" lon="0.63366">
        <ele>146.6</ele>
        <time>2017-01-22T10:18:55.000Z</time>
      </trkpt>
      <trkpt lat="44.52819" lon="0.63362">
        <ele>146.6</ele>
        <time>2017-01-22T10:18:56.000Z</time>
      </trkpt>
      <trkpt lat="44.52819" lon="0.63358">
        <ele>146.6</ele>
        <time>2017-01-22T10:18:57.000Z</time>
      </trkpt>
      <trkpt lat="44.5282" lon="0.63354">
        <ele>146.6</ele>
        <time>2017-01-22T10:18:58.000Z</time>
      </trkpt>
      <trkpt lat="44.5282" lon="0.6335">
        <ele>146.6</ele>
        <time>2017-01-22T10:18:59.000Z</time>
      </trkpt>
      <trkpt lat="44.5282" lon="0.63346">
        <ele>146.6</ele>
        <time>2017-01-22T10:19:00.000Z</time>
      </trkpt>
      <trkpt lat="44.52821" lon="0.63343">
        <ele>146.6</ele>
        <time>2017-01-22T10:19:01.000Z</time>
      </trkpt>
      <trkpt lat="44.52821" lon="0.63339">
        <ele>146.6</ele>
        <time>2017-01-22T10:19:02.000Z</time>
      </trkpt>
      <trkpt lat="44.52822" lon="0.63335">
        <ele>146.6</ele>
        <time>2017-01-22T10:19:03.000Z</time>
      </trkpt>
      <trkpt lat="44.52822" lon="0.63331">
        <ele>146.6</ele>
        <time>2017-01-22T10:19:04.000Z</time>
      </trkpt>
      <trkpt lat="44.52823" lon="0.63327">
        <ele>146.6</ele>
        <time>2017-01-22T10:19:05.000Z</time>
      </trkpt>
      <trkpt lat="44.52823" lon="0.63324">
        <ele>146.6</ele>
        <time>2017-01-22T10:19:06.000Z</time>
      </trkpt>
      <trkpt lat="44.52824" lon="0.6332">
        <ele>146.7</ele>
        <time>2017-01-22T10:19:07.000Z</time>
      </trkpt>
      <trkpt lat="44.52824" lon="0.63316">
        <ele>146.7</ele>
        <time>2017-01-22T10:19:08.000Z</time>
      </trkpt>
      <trkpt lat="44.52825" lon="0.63312">
        <ele>146.7</ele>
        <time>2017-01-22T10:19:09.000Z</time>
      </trkpt>
      <trkpt lat="44.52825" lon="0.63308">
        <ele>146.8</ele>
        <time>2017-01-22T10:19:10.000Z</time>
      </trkpt>
      <trkpt lat="44.52826" lon="0.63303">
        <ele>146.8</ele>
        <time>2017-01-22T10:19:11.000Z</time>
      </trkpt>
      <trkpt lat="44.52827" lon="0.63299">
        <ele>146.8</ele>
        <time>2017-01-22T10:19:12.000Z</time>
      </trkpt>
      <trkpt lat="44.52827" lon="0.63295">
        <ele>146.8</ele>
        <time>2017-01-22T10:19:13.000Z</time>
      </trkpt>
      <trkpt lat="44.52828" lon="0.6329">
        <ele>146.8</ele>
        <time>2017-01-22T10:19:14.000Z</time>
      </trkpt>
      <trkpt lat="44.52829" lon="0.63286">
        <ele>146.8</ele>
        <time>2017-01-22T10:19:15.000Z</time>
      </trkpt>
      <trkpt lat="44.5283" lon="0.63281">
        <ele>146.8</ele>
        <time>2017-01-22T10:19:16.000Z</time>
      </trkpt>
      <trkpt lat="44.52831" lon="0.63277">
        <ele>146.9</ele>
        <time>2017-01-22T10:19:17.000Z</time>
      </trkpt>
      <trkpt lat="44.52831" lon="0.63273">
        <ele>146.9</ele>
        <time>2017-01-22T10:19:18.000Z</time>
      </trkpt>
      <trkpt lat="44.52832" lon="0.63268">
        <ele>146.9</ele>
        <time>2017-01-22T10:19:19.000Z</time>
      </trkpt>
      <trkpt lat="44.52833" lon="0.63264">
        <ele>146.8</ele>
        <time>2017-01-22T10:19:20.000Z</time>
      </trkpt>
      <trkpt lat="44.52834" lon="0.6326">
        <ele>146.8</ele>
        <time>2017-01-22T10:19:21.000Z</time>
      </trkpt>
      <trkpt lat="44.52835" lon="0.63256">
        <ele>146.8</ele>
        <time>2017-01-22T10:19:22.000Z</time>
      </trkpt>
      <trkpt lat="44.52836" lon="0.63252">
        <ele>146.8</ele>
        <time>2017-01-22T10:19:23.000Z</time>
      </trkpt>
      <trkpt lat="44.52837" lon="0.63248">
        <ele>146.9</ele>
        <time>2017-01-22T10:19:24.000Z</time>
      </trkpt>
      <trkpt lat="44.52838" lon="0.63244">
        <ele>147</ele>
        <time>2017-01-22T10:19:25.000Z</time>
      </trkpt>
      <trkpt lat="44.52839" lon="0.6324">
        <ele>147</ele>
        <time>2017-01-22T10:19:26.000Z</time>
      </trkpt>
      <trkpt lat="44.5284" lon="0.63236">
        <ele>147.1</ele>
        <time>2017-01-22T10:19:27.000Z</time>
      </trkpt>
      <trkpt lat="44.52841" lon="0.63232">
        <ele>147.2</ele>
        <time>2017-01-22T10:19:28.000Z</time>
      </trkpt>
      <trkpt lat="44.52842" lon="0.63229">
        <ele>147.2</ele>
        <time>2017-01-22T10:19:29.000Z</time>
      </trkpt>
      <trkpt lat="44.52843" lon="0.63225">
        <ele>147.3</ele>
        <time>2017-01-22T10:19:30.000Z</time>
      </trkpt>
      <trkpt lat="44.52844" lon="0.63221">
        <ele>147.3</ele>
        <time>2017-01-22T10:19:31.000Z</time>
      </trkpt>
      <trkpt lat="44.52845" lon="0.63217">
        <ele>147.3</ele>
        <time>2017-01-22T10:19:32.000Z</time>
      </trkpt>
      <trkpt lat="44.52847" lon="0.63214">
        <ele>147.4</ele>
        <time>2017-01-22T10:19:33.000Z</time>
      </trkpt>
      <trkpt lat="44.52848" lon="0.6321">
        <ele>147.4</ele>
        <time>2017-01-22T10:19:34.000Z</time>
      </trkpt>
      <trkpt lat="44.52849" lon="0.63206">
        <ele>147.4</ele>
        <time>2017-01-22T10:19:35.000Z</time>
      </trkpt>
      <trkpt lat="44.52851" lon="0.63202">
        <ele>147.4</ele>
        <time>2017-01-22T10:19:36.000Z</time>
      </trkpt>
      <trkpt lat="44.52852" lon="0.63199">
        <ele>147.5</ele>
        <time>2017-01-22T10:19:37.000Z</time>
      </trkpt>
      <trkpt lat="44.52853" lon="0.63195">
        <ele>147.5</ele>
        <time>2017-01-22T10:19:38.000Z</time>
      </trkpt>
      <trkpt lat="44.52855" lon="0.63191">
        <ele>147.5</ele>
        <time>2017-01-22T10:19:39.000Z</time>
      </trkpt>
      <trkpt lat="44.52856" lon="0.63188">
        <ele>147.5</ele>
        <time>2017-01-22T10:19:40.000Z</time>
      </trkpt>
      <trkpt lat="44.52858" lon="0.63184">
        <ele>147.4</ele>
        <time>2017-01-22T10:19:41.000Z</time>
      </trkpt>
      <trkpt lat="44.5286" lon="0.6318">
        <ele>147.4</ele>
        <time>2017-01-22T10:19:42.000Z</time>
      </trkpt>
      <trkpt lat="44.52861" lon="0.63176">
        <ele>147.4</ele>
        <time>2017-01-22T10:19:43.000Z</time>
      </trkpt>
      <trkpt lat="44.52863" lon="0.63173">
        <ele>147.4</ele>
        <time>2017-01-22T10:19:44.000Z</time>
      </trkpt>
      <trkpt lat="44.52865" lon="0.63169">
        <ele>147.3</ele>
        <time>2017-01-22T10:19:45.000Z</time>
      </trkpt>
      <trkpt lat="44.52866" lon="0.63165">
        <ele>147.3</ele>
        <time>2017-01-22T10:19:46.000Z</time>
      </trkpt>
      <trkpt lat="44.52868" lon="0.63162">
        <ele>147.2</ele>
        <time>2017-01-22T10:19:47.000Z</time>
      </trkpt>
      <trkpt lat="44.5287" lon="0.63158">
        <ele>147.1</ele>
        <time>2017-01-22T10:19:48.000Z</time>
      </trkpt>
      <trkpt lat="44.52872" lon="0.63154">
        <ele>147</ele>
        <time>2017-01-22T10:19:49.000Z</time>
      </trkpt>
      <trkpt lat="44.52874" lon="0.6315">
        <ele>146.9</ele>
        <time>2017-01-22T10:19:50.000Z</time>
      </trkpt>
      <trkpt lat="44.52875" lon="0.63147">
        <ele>146.8</ele>
        <time>2017-01-22T10:19:51.000Z</time>
      </trkpt>
      <trkpt lat="44.52877" lon="0.63143">
        <ele>146.7</ele>
        <time>2017-01-22T10:19:52.000Z</time>
      </trkpt>
      <trkpt lat="44.52879" lon="0.63139">
        <ele>146.7</ele>
        <time>2017-01-22T10:19:53.000Z</time>
      </trkpt>
      <trkpt lat="44.52881" lon="0.63135">
        <ele>146.6</ele>
        <time>2017-01-22T10:19:54.000Z</time>
      </trkpt>
      <trkpt lat="44.52883" lon="0.63131">
        <ele>146.5</ele>
        <time>2017-01-22T10:19:55.000Z</time>
      </trkpt>
      <trkpt lat="44.52884" lon="0.63126">
        <ele>146.4</ele>
        <time>2017-01-22T10:19:56.000Z</time>
      </trkpt>
      <trkpt lat="44.52886" lon="0.63122">
        <ele>146.3</ele>
        <time>2017-01-22T10:19:57.000Z</time>
      </trkpt>
      <trkpt lat="44.52888" lon="0.63117">
        <ele>146.2</ele>
        <time>2017-01-22T10:19:58.000Z</time>
      </trkpt>
      <trkpt lat="44.5289" lon="0.63112">
        <ele>146.1</ele>
        <time>2017-01-22T10:19:59.000Z</time>
      </trkpt>
      <trkpt lat="44.52892" lon="0.63107">
        <ele>146</ele>
        <time>2017-01-22T10:20:00.000Z</time>
      </trkpt>
      <trkpt lat="44.52894" lon="0.63102">
        <ele>145.9</ele>
        <time>2017-01-22T10:20:01.000Z</time>
      </trkpt>
      <trkpt lat="44.52896" lon="0.63097">
        <ele>145.7</ele>
        <time>2017-01-22T10:20:02.000Z</time>
      </trkpt>
      <trkpt lat="44.52899" lon="0.63092">
        <ele>145.6</ele>
        <time>2017-01-22T10:20:03.000Z</time>
      </trkpt>
      <trkpt lat="44.52901" lon="0.63087">
        <ele>145.5</ele>
        <time>2017-01-22T10:20:04.000Z</time>
      </trkpt>
      <trkpt lat="44.52903" lon="0.63081">
        <ele>145.4</ele>
        <time>2017-01-22T10:20:05.000Z</time>
      </trkpt>
      <trkpt lat="44.52905" lon="0.63076">
        <ele>145.3</ele>
        <time>2017-01-22T10:20:06.000Z</time>
      </trkpt>
      <trkpt lat="44.52907" lon="0.63071">
        <ele>145.2</ele>
        <time>2017-01-22T10:20:07.000Z</time>
      </trkpt>
      <trkpt lat="44.5291" lon="0.63065">
        <ele>145.1</ele>
        <time>2017-01-22T10:20:08.000Z</time>
      </trkpt>
      <trkpt lat="44.52912" lon="0.6306">
        <ele>145</ele>
        <time>2017-01-22T10:20:09.000Z</time>
      </trkpt>
      <trkpt lat="44.52914" lon="0.63054">
        <ele>144.9</ele>
        <time>2017-01-22T10:20:10.000Z</time>
      </trkpt>
      <trkpt lat="44.52917" lon="0.63048">
        <ele>144.8</ele>
        <time>2017-01-22T10:20:11.000Z</time>
      </trkpt>
      <trkpt lat="44.5292" lon="0.63043">
        <ele>144.9</ele>
        <time>2017-01-22T10:20:12.000Z</time>
      </trkpt>
      <trkpt lat="44.52923" lon="0.63038">
        <ele>145</ele>
        <time>2017-01-22T10:20:13.000Z</time>
      </trkpt>
      <trkpt lat="44.52926" lon="0.63033">
        <ele>145</ele>
        <time>2017-01-22T10:20:14.000Z</time>
      </trkpt>
      <trkpt lat="44.52929" lon="0.63028">
        <ele>145.1</ele>
        <time>2017-01-22T10:20:15.000Z</time>
      </trkpt>
      <trkpt lat="44.52933" lon="0.63024">
        <ele>145.1</ele>
        <time>2017-01-22T10:20:16.000Z</time>
      </trkpt>
      <trkpt lat="44.52936" lon="0.6302">
        <ele>145.2</ele>
        <time>2017-01-22T10:20:17.000Z</time>
      </trkpt>
      <trkpt lat="44.5294" lon="0.63016">
        <ele>145.2</ele>
        <time>2017-01-22T10:20:18.000Z</time>
      </trkpt>
      <trkpt lat="44.52944" lon="0.63013">
        <ele>145.3</ele>
        <time>2017-01-22T10:20:19.000Z</time>
      </trkpt>
      <trkpt lat="44.52947" lon="0.63009">
        <ele>145.3</ele>
        <time>2017-01-22T10:20:20.000Z</time>
      </trkpt>
      <trkpt lat="44.52951" lon="0.63006">
        <ele>145.4</ele>
        <time>2017-01-22T10:20:21.000Z</time>
      </trkpt>
      <trkpt lat="44.52955" lon="0.63003">
        <ele>145.4</ele>
        <time>2017-01-22T10:20:22.000Z</time>
      </trkpt>
      <trkpt lat="44.52958" lon="0.63">
        <ele>145.5</ele>
        <time>2017-01-22T10:20:23.000Z</time>
      </trkpt>
      <trkpt lat="44.52962" lon="0.62997">
        <ele>145.7</ele>
        <time>2017-01-22T10:20:24.000Z</time>
      </trkpt>
      <trkpt lat="44.52965" lon="0.62993">
        <ele>145.9</ele>
        <time>2017-01-22T10:20:25.000Z</time>
      </trkpt>
      <trkpt lat="44.52969" lon="0.6299">
        <ele>146.1</ele>
        <time>2017-01-22T10:20:26.000Z</time>
      </trkpt>
      <trkpt lat="44.52972" lon="0.62987">
        <ele>146.3</ele>
        <time>2017-01-22T10:20:27.000Z</time>
      </trkpt>
      <trkpt lat="44.52976" lon="0.62984">
        <ele>146.5</ele>
        <time>2017-01-22T10:20:28.000Z</time>
      </trkpt>
      <trkpt lat="44.52979" lon="0.62981">
        <ele>146.7</ele>
        <time>2017-01-22T10:20:29.000Z</time>
      </trkpt>
      <trkpt lat="44.52982" lon="0.62978">
        <ele>146.9</ele>
        <time>2017-01-22T10:20:30.000Z</time>
      </trkpt>
      <trkpt lat="44.52985" lon="0.62976">
        <ele>147.1</ele>
        <time>2017-01-22T10:20:31.000Z</time>
      </trkpt>
      <trkpt lat="44.52988" lon="0.62973">
        <ele>147.3</ele>
        <time>2017-01-22T10:20:32.000Z</time>
      </trkpt>
      <trkpt lat="44.52992" lon="0.6297">
        <ele>147.6</ele>
        <time>2017-01-22T10:20:33.000Z</time>
      </trkpt>
      <trkpt lat="44.52995" lon="0.62967">
        <ele>147.8</ele>
        <time>2017-01-22T10:20:34.000Z</time>
      </trkpt>
      <trkpt lat="44.52998" lon="0.62964">
        <ele>148</ele>
        <time>2017-01-22T10:20:35.000Z</time>
      </trkpt>
      <trkpt lat="44.53001" lon="0.62961">
        <ele>148.3</ele>
        <time>2017-01-22T10:20:36.000Z</time>
      </trkpt>
      <trkpt lat="44.53004" lon="0.62958">
        <ele>148.7</ele>
        <time>2017-01-22T10:20:37.000Z</time>
      </trkpt>
      <trkpt lat="44.53007" lon="0.62955">
        <ele>149</ele>
        <time>2017-01-22T10:20:38.000Z</time>
      </trkpt>
      <trkpt lat="44.5301" lon="0.62952">
        <ele>149.4</ele>
        <time>2017-01-22T10:20:39.000Z</time>
      </trkpt>
      <trkpt lat="44.53014" lon="0.62949">
        <ele>149.8</ele>
        <time>2017-01-22T10:20:40.000Z</time>
      </trkpt>
      <trkpt lat="44.53017" lon="0.62946">
        <ele>150.1</ele>
        <time>2017-01-22T10:20:41.000Z</time>
      </trkpt>
      <trkpt lat="44.5302" lon="0.62943">
        <ele>150.5</ele>
        <time>2017-01-22T10:20:42.000Z</time>
      </trkpt>
      <trkpt lat="44.53023" lon="0.6294">
        <ele>150.8</ele>
        <time>2017-01-22T10:20:43.000Z</time>
      </trkpt>
      <trkpt lat="44.53025" lon="0.62936">
        <ele>151.2</ele>
        <time>2017-01-22T10:20:44.000Z</time>
      </trkpt>
      <trkpt lat="44.53028" lon="0.62933">
        <ele>151.5</ele>
        <time>2017-01-22T10:20:45.000Z</time>
      </trkpt>
      <trkpt lat="44.5303" lon="0.6293">
        <ele>151.8</ele>
        <time>2017-01-22T10:20:46.000Z</time>
      </trkpt>
      <trkpt lat="44.53032" lon="0.62928">
        <ele>152</ele>
        <time>2017-01-22T10:20:47.000Z</time>
      </trkpt>
      <trkpt lat="44.53034" lon="0.62925">
        <ele>152.2</ele>
        <time>2017-01-22T10:20:48.000Z</time>
      </trkpt>
      <trkpt lat="44.53036" lon="0.62922">
        <ele>152.5</ele>
        <time>2017-01-22T10:20:49.000Z</time>
      </trkpt>
      <trkpt lat="44.53038" lon="0.6292">
        <ele>152.7</ele>
        <time>2017-01-22T10:20:50.000Z</time>
      </trkpt>
      <trkpt lat="44.5304" lon="0.62917">
        <ele>152.9</ele>
        <time>2017-01-22T10:20:51.000Z</time>
      </trkpt>
      <trkpt lat="44.53042" lon="0.62915">
        <ele>153.1</ele>
        <time>2017-01-22T10:20:52.000Z</time>
      </trkpt>
      <trkpt lat="44.53043" lon="0.62913">
        <ele>153.2</ele>
        <time>2017-01-22T10:20:53.000Z</time>
      </trkpt>
      <trkpt lat="44.53045" lon="0.6291">
        <ele>153.3</ele>
        <time>2017-01-22T10:20:54.000Z</time>
      </trkpt>
      <trkpt lat="44.53046" lon="0.62908">
        <ele>153.5</ele>
        <time>2017-01-22T10:20:55.000Z</time>
      </trkpt>
      <trkpt lat="44.53048" lon="0.62905">
        <ele>153.6</ele>
        <time>2017-01-22T10:20:56.000Z</time>
      </trkpt>
      <trkpt lat="44.53049" lon="0.62903">
        <ele>153.8</ele>
        <time>2017-01-22T10:20:57.000Z</time>
      </trkpt>
      <trkpt lat="44.53051" lon="0.629">
        <ele>153.9</ele>
        <time>2017-01-22T10:20:58.000Z</time>
      </trkpt>
      <trkpt lat="44.53052" lon="0.62898">
        <ele>154</ele>
        <time>2017-01-22T10:20:59.000Z</time>
      </trkpt>
      <trkpt lat="44.53053" lon="0.62895">
        <ele>154.1</ele>
        <time>2017-01-22T10:21:00.000Z</time>
      </trkpt>
      <trkpt lat="44.53055" lon="0.62893">
        <ele>154.3</ele>
        <time>2017-01-22T10:21:01.000Z</time>
      </trkpt>
      <trkpt lat="44.53056" lon="0.6289">
        <ele>154.4</ele>
        <time>2017-01-22T10:21:02.000Z</time>
      </trkpt>
      <trkpt lat="44.53057" lon="0.62888">
        <ele>154.5</ele>
        <time>2017-01-22T10:21:03.000Z</time>
      </trkpt>
      <trkpt lat="44.53059" lon="0.62885">
        <ele>154.7</ele>
        <time>2017-01-22T10:21:04.000Z</time>
      </trkpt>
      <trkpt lat="44.5306" lon="0.62883">
        <ele>154.8</ele>
        <time>2017-01-22T10:21:05.000Z</time>
      </trkpt>
      <trkpt lat="44.53061" lon="0.6288">
        <ele>154.9</ele>
        <time>2017-01-22T10:21:06.000Z</time>
      </trkpt>
      <trkpt lat="44.53063" lon="0.62878">
        <ele>155</ele>
        <time>2017-01-22T10:21:07.000Z</time>
      </trkpt>
      <trkpt lat="44.53064" lon="0.62875">
        <ele>155.2</ele>
        <time>2017-01-22T10:21:08.000Z</time>
      </trkpt>
      <trkpt lat="44.53065" lon="0.62873">
        <ele>155.3</ele>
        <time>2017-01-22T10:21:09.000Z</time>
      </trkpt>
      <trkpt lat="44.53067" lon="0.6287">
        <ele>155.4</ele>
        <time>2017-01-22T10:21:10.000Z</time>
      </trkpt>
      <trkpt lat="44.53068" lon="0.62868">
        <ele>155.5</ele>
        <time>2017-01-22T10:21:11.000Z</time>
      </trkpt>
      <trkpt lat="44.53069" lon="0.62865">
        <ele>155.6</ele>
        <time>2017-01-22T10:21:12.000Z</time>
      </trkpt>
      <trkpt lat="44.53071" lon="0.62863">
        <ele>155.7</ele>
        <time>2017-01-22T10:21:13.000Z</time>
      </trkpt>
      <trkpt lat="44.53072" lon="0.6286">
        <ele>155.9</ele>
        <time>2017-01-22T10:21:14.000Z</time>
      </trkpt>
      <trkpt lat="44.53074" lon="0.62858">
        <ele>156</ele>
        <time>2017-01-22T10:21:15.000Z</time>
      </trkpt>
      <trkpt lat="44.53075" lon="0.62855">
        <ele>156.1</ele>
        <time>2017-01-22T10:21:16.000Z</time>
      </trkpt>
      <trkpt lat="44.53077" lon="0.62852">
        <ele>156.2</ele>
        <time>2017-01-22T10:21:17.000Z</time>
      </trkpt>
      <trkpt lat="44.53078" lon="0.6285">
        <ele>156.3</ele>
        <time>2017-01-22T10:21:18.000Z</time>
      </trkpt>
      <trkpt lat="44.53079" lon="0.62847">
        <ele>156.5</ele>
        <time>2017-01-22T10:21:19.000Z</time>
      </trkpt>
      <trkpt lat="44.53081" lon="0.62844">
        <ele>156.6</ele>
        <time>2017-01-22T10:21:20.000Z</time>
      </trkpt>
      <trkpt lat="44.53082" lon="0.62842">
        <ele>156.7</ele>
        <time>2017-01-22T10:21:21.000Z</time>
      </trkpt>
      <trkpt lat="44.53084" lon="0.62839">
        <ele>156.8</ele>
        <time>2017-01-22T10:21:22.000Z</time>
      </trkpt>
      <trkpt lat="44.53085" lon="0.62836">
        <ele>156.8</ele>
        <time>2017-01-22T10:21:23.000Z</time>
      </trkpt>
      <trkpt lat="44.53087" lon="0.62833">
        <ele>156.7</ele>
        <time>2017-01-22T10:21:24.000Z</time>
      </trkpt>
      <trkpt lat="44.53088" lon="0.62831">
        <ele>156.8</ele>
        <time>2017-01-22T10:21:25.000Z</time>
      </trkpt>
      <trkpt lat="44.5309" lon="0.62828">
        <ele>156.8</ele>
        <time>2017-01-22T10:21:26.000Z</time>
      </trkpt>
      <trkpt lat="44.53092" lon="0.62826">
        <ele>156.8</ele>
        <time>2017-01-22T10:21:27.000Z</time>
      </trkpt>
      <trkpt lat="44.53093" lon="0.62823">
        <ele>156.8</ele>
        <time>2017-01-22T10:21:28.000Z</time>
      </trkpt>
      <trkpt lat="44.53095" lon="0.6282">
        <ele>156.8</ele>
        <time>2017-01-22T10:21:29.000Z</time>
      </trkpt>
      <trkpt lat="44.53096" lon="0.62818">
        <ele>156.8</ele>
        <time>2017-01-22T10:21:30.000Z</time>
      </trkpt>
      <trkpt lat="44.53098" lon="0.62815">
        <ele>156.8</ele>
        <time>2017-01-22T10:21:31.000Z</time>
      </trkpt>
      <trkpt lat="44.531" lon="0.62813">
        <ele>156.8</ele>
        <time>2017-01-22T10:21:32.000Z</time>
      </trkpt>
      <trkpt lat="44.53102" lon="0.6281">
        <ele>156.8</ele>
        <time>2017-01-22T10:21:33.000Z</time>
      </trkpt>
      <trkpt lat="44.53103" lon="0.62807">
        <ele>156.7</ele>
        <time>2017-01-22T10:21:34.000Z</time>
      </trkpt>
      <trkpt lat="44.53105" lon="0.62804">
        <ele>156.7</ele>
        <time>2017-01-22T10:21:35.000Z</time>
      </trkpt>
      <trkpt lat="44.53107" lon="0.62802">
        <ele>156.7</ele>
        <time>2017-01-22T10:21:36.000Z</time>
      </trkpt>
      <trkpt lat="44.53109" lon="0.62799">
        <ele>156.7</ele>
        <time>2017-01-22T10:21:37.000Z</time>
      </trkpt>
      <trkpt lat="44.53111" lon="0.62796">
        <ele>156.7</ele>
        <time>2017-01-22T10:21:38.000Z</time>
      </trkpt>
      <trkpt lat="44.53113" lon="0.62793">
        <ele>156.6</ele>
        <time>2017-01-22T10:21:39.000Z</time>
      </trkpt>
      <trkpt lat="44.53115" lon="0.62791">
        <ele>156.6</ele>
        <time>2017-01-22T10:21:40.000Z</time>
      </trkpt>
      <trkpt lat="44.53116" lon="0.62788">
        <ele>156.6</ele>
        <time>2017-01-22T10:21:41.000Z</time>
      </trkpt>
      <trkpt lat="44.53118" lon="0.62785">
        <ele>156.6</ele>
        <time>2017-01-22T10:21:42.000Z</time>
      </trkpt>
      <trkpt lat="44.5312" lon="0.62783">
        <ele>156.5</ele>
        <time>2017-01-22T10:21:43.000Z</time>
      </trkpt>
      <trkpt lat="44.53122" lon="0.6278">
        <ele>156.5</ele>
        <time>2017-01-22T10:21:44.000Z</time>
      </trkpt>
      <trkpt lat="44.53124" lon="0.62777">
        <ele>156.5</ele>
        <time>2017-01-22T10:21:45.000Z</time>
      </trkpt>
      <trkpt lat="44.53126" lon="0.62774">
        <ele>156.4</ele>
        <time>2017-01-22T10:21:46.000Z</time>
      </trkpt>
      <trkpt lat="44.53128" lon="0.62771">
        <ele>156.4</ele>
        <time>2017-01-22T10:21:47.000Z</time>
      </trkpt>
      <trkpt lat="44.5313" lon="0.62768">
        <ele>156.3</ele>
        <time>2017-01-22T10:21:48.000Z</time>
      </trkpt>
      <trkpt lat="44.53132" lon="0.62765">
        <ele>156.3</ele>
        <time>2017-01-22T10:21:49.000Z</time>
      </trkpt>
      <trkpt lat="44.53134" lon="0.62762">
        <ele>156.2</ele>
        <time>2017-01-22T10:21:50.000Z</time>
      </trkpt>
      <trkpt lat="44.53137" lon="0.62759">
        <ele>156.2</ele>
        <time>2017-01-22T10:21:51.000Z</time>
      </trkpt>
      <trkpt lat="44.53139" lon="0.62755">
        <ele>156.1</ele>
        <time>2017-01-22T10:21:52.000Z</time>
      </trkpt>
      <trkpt lat="44.53142" lon="0.62752">
        <ele>156</ele>
        <time>2017-01-22T10:21:53.000Z</time>
      </trkpt>
      <trkpt lat="44.53144" lon="0.62748">
        <ele>156</ele>
        <time>2017-01-22T10:21:54.000Z</time>
      </trkpt>
      <trkpt lat="44.53147" lon="0.62745">
        <ele>156</ele>
        <time>2017-01-22T10:21:55.000Z</time>
      </trkpt>
      <trkpt lat="44.53149" lon="0.62741">
        <ele>156</ele>
        <time>2017-01-22T10:21:56.000Z</time>
      </trkpt>
      <trkpt lat="44.53152" lon="0.62738">
        <ele>155.9</ele>
        <time>2017-01-22T10:21:57.000Z</time>
      </trkpt>
      <trkpt lat="44.53155" lon="0.62734">
        <ele>155.9</ele>
        <time>2017-01-22T10:21:58.000Z</time>
      </trkpt>
      <trkpt lat="44.53157" lon="0.62731">
        <ele>155.9</ele>
        <time>2017-01-22T10:21:59.000Z</time>
      </trkpt>
      <trkpt lat="44.5316" lon="0.62727">
        <ele>155.9</ele>
        <time>2017-01-22T10:22:00.000Z</time>
      </trkpt>
      <trkpt lat="44.53163" lon="0.62723">
        <ele>155.9</ele>
        <time>2017-01-22T10:22:01.000Z</time>
      </trkpt>
      <trkpt lat="44.53166" lon="0.6272">
        <ele>155.9</ele>
        <time>2017-01-22T10:22:02.000Z</time>
      </trkpt>
      <trkpt lat="44.53168" lon="0.62716">
        <ele>156</ele>
        <time>2017-01-22T10:22:03.000Z</time>
      </trkpt>
      <trkpt lat="44.53171" lon="0.62713">
        <ele>156.2</ele>
        <time>2017-01-22T10:22:04.000Z</time>
      </trkpt>
      <trkpt lat="44.53174" lon="0.62709">
        <ele>156.4</ele>
        <time>2017-01-22T10:22:05.000Z</time>
      </trkpt>
      <trkpt lat="44.53177" lon="0.62705">
        <ele>156.6</ele>
        <time>2017-01-22T10:22:06.000Z</time>
      </trkpt>
      <trkpt lat="44.5318" lon="0.62702">
        <ele>156.8</ele>
        <time>2017-01-22T10:22:07.000Z</time>
      </trkpt>
      <trkpt lat="44.53182" lon="0.62698">
        <ele>157</ele>
        <time>2017-01-22T10:22:08.000Z</time>
      </trkpt>
      <trkpt lat="44.53185" lon="0.62695">
        <ele>157.3</ele>
        <time>2017-01-22T10:22:09.000Z</time>
      </trkpt>
      <trkpt lat="44.53188" lon="0.62691">
        <ele>157.5</ele>
        <time>2017-01-22T10:22:10.000Z</time>
      </trkpt>
      <trkpt lat="44.5319" lon="0.62688">
        <ele>157.7</ele>
        <time>2017-01-22T10:22:11.000Z</time>
      </trkpt>
      <trkpt lat="44.53193" lon="0.62684">
        <ele>157.9</ele>
        <time>2017-01-22T10:22:12.000Z</time>
      </trkpt>
      <trkpt lat="44.53195" lon="0.62681">
        <ele>158.1</ele>
        <time>2017-01-22T10:22:13.000Z</time>
      </trkpt>
      <trkpt lat="44.53198" lon="0.62678">
        <ele>158.3</ele>
        <time>2017-01-22T10:22:14.000Z</time>
      </trkpt>
      <trkpt lat="44.532" lon="0.62674">
        <ele>158.5</ele>
        <time>2017-01-22T10:22:15.000Z</time>
      </trkpt>
      <trkpt lat="44.53203" lon="0.62671">
        <ele>158.7</ele>
        <time>2017-01-22T10:22:16.000Z</time>
      </trkpt>
      <trkpt lat="44.53205" lon="0.62668">
        <ele>158.9</ele>
        <time>2017-01-22T10:22:17.000Z</time>
      </trkpt>
      <trkpt lat="44.53208" lon="0.62665">
        <ele>159.2</ele>
        <time>2017-01-22T10:22:18.000Z</time>
      </trkpt>
      <trkpt lat="44.5321" lon="0.62662">
        <ele>159.5</ele>
        <time>2017-01-22T10:22:19.000Z</time>
      </trkpt>
      <trkpt lat="44.53212" lon="0.62659">
        <ele>159.8</ele>
        <time>2017-01-22T10:22:20.000Z</time>
      </trkpt>
      <trkpt lat="44.53214" lon="0.62656">
        <ele>160</ele>
        <time>2017-01-22T10:22:21.000Z</time>
      </trkpt>
      <trkpt lat="44.53216" lon="0.62654">
        <ele>160.3</ele>
        <time>2017-01-22T10:22:22.000Z</time>
      </trkpt>
      <trkpt lat="44.53218" lon="0.62651">
        <ele>160.6</ele>
        <time>2017-01-22T10:22:23.000Z</time>
      </trkpt>
      <trkpt lat="44.53219" lon="0.62649">
        <ele>160.8</ele>
        <time>2017-01-22T10:22:24.000Z</time>
      </trkpt>
      <trkpt lat="44.53221" lon="0.62646">
        <ele>161.1</ele>
        <time>2017-01-22T10:22:25.000Z</time>
      </trkpt>
      <trkpt lat="44.53223" lon="0.62644">
        <ele>161.3</ele>
        <time>2017-01-22T10:22:26.000Z</time>
      </trkpt>
      <trkpt lat="44.53225" lon="0.62641">
        <ele>161.5</ele>
        <time>2017-01-22T10:22:27.000Z</time>
      </trkpt>
      <trkpt lat="44.53226" lon="0.62639">
        <ele>161.8</ele>
        <time>2017-01-22T10:22:28.000Z</time>
      </trkpt>
      <trkpt lat="44.53228" lon="0.62637">
        <ele>162</ele>
        <time>2017-01-22T10:22:29.000Z</time>
      </trkpt>
      <trkpt lat="44.5323" lon="0.62634">
        <ele>162.2</ele>
        <time>2017-01-22T10:22:30.000Z</time>
      </trkpt>
      <trkpt lat="44.53232" lon="0.62632">
        <ele>162.4</ele>
        <time>2017-01-22T10:22:31.000Z</time>
      </trkpt>
      <trkpt lat="44.53234" lon="0.62629">
        <ele>162.7</ele>
        <time>2017-01-22T10:22:32.000Z</time>
      </trkpt>
      <trkpt lat="44.53237" lon="0.62627">
        <ele>162.9</ele>
        <time>2017-01-22T10:22:33.000Z</time>
      </trkpt>
      <trkpt lat="44.53239" lon="0.62625">
        <ele>163.1</ele>
        <time>2017-01-22T10:22:34.000Z</time>
      </trkpt>
      <trkpt lat="44.53241" lon="0.62622">
        <ele>163.3</ele>
        <time>2017-01-22T10:22:35.000Z</time>
      </trkpt>
      <trkpt lat="44.53244" lon="0.6262">
        <ele>163.6</ele>
        <time>2017-01-22T10:22:36.000Z</time>
      </trkpt>
      <trkpt lat="44.53246" lon="0.62617">
        <ele>163.8</ele>
        <time>2017-01-22T10:22:37.000Z</time>
      </trkpt>
      <trkpt lat="44.53248" lon="0.62614">
        <ele>164.1</ele>
        <time>2017-01-22T10:22:38.000Z</time>
      </trkpt>
      <trkpt lat="44.5325" lon="0.62611">
        <ele>164.3</ele>
        <time>2017-01-22T10:22:39.000Z</time>
      </trkpt>
      <trkpt lat="44.53252" lon="0.62608">
        <ele>164.6</ele>
        <time>2017-01-22T10:22:40.000Z</time>
      </trkpt>
      <trkpt lat="44.53253" lon="0.62606">
        <ele>164.9</ele>
        <time>2017-01-22T10:22:41.000Z</time>
      </trkpt>
      <trkpt lat="44.53255" lon="0.62603">
        <ele>165.2</ele>
        <time>2017-01-22T10:22:42.000Z</time>
      </trkpt>
      <trkpt lat="44.53257" lon="0.626">
        <ele>165.5</ele>
        <time>2017-01-22T10:22:43.000Z</time>
      </trkpt>
      <trkpt lat="44.53259" lon="0.62598">
        <ele>165.7</ele>
        <time>2017-01-22T10:22:44.000Z</time>
      </trkpt>
      <trkpt lat="44.53261" lon="0.62596">
        <ele>166</ele>
        <time>2017-01-22T10:22:45.000Z</time>
      </trkpt>
      <trkpt lat="44.53263" lon="0.62593">
        <ele>166.2</ele>
        <time>2017-01-22T10:22:46.000Z</time>
      </trkpt>
      <trkpt lat="44.53265" lon="0.62591">
        <ele>166.5</ele>
        <time>2017-01-22T10:22:47.000Z</time>
      </trkpt>
      <trkpt lat="44.53267" lon="0.62588">
        <ele>166.7</ele>
        <time>2017-01-22T10:22:48.000Z</time>
      </trkpt>
      <trkpt lat="44.53269" lon="0.62586">
        <ele>167</ele>
        <time>2017-01-22T10:22:49.000Z</time>
      </trkpt>
      <trkpt lat="44.5327" lon="0.62584">
        <ele>167.2</ele>
        <time>2017-01-22T10:22:50.000Z</time>
      </trkpt>
      <trkpt lat="44.53272" lon="0.62582">
        <ele>167.3</ele>
        <time>2017-01-22T10:22:51.000Z</time>
      </trkpt>
      <trkpt lat="44.53273" lon="0.6258">
        <ele>167.4</ele>
        <time>2017-01-22T10:22:52.000Z</time>
      </trkpt>
      <trkpt lat="44.53274" lon="0.62579">
        <ele>167.4</ele>
        <time>2017-01-22T10:22:53.000Z</time>
      </trkpt>
      <trkpt lat="44.53276" lon="0.62579">
        <ele>167.5</ele>
        <time>2017-01-22T10:22:54.000Z</time>
      </trkpt>
      <trkpt lat="44.53278" lon="0.62579">
        <ele>167.5</ele>
        <time>2017-01-22T10:22:55.000Z</time>
      </trkpt>
      <trkpt lat="44.5328" lon="0.6258">
        <ele>167.5</ele>
        <time>2017-01-22T10:22:56.000Z</time>
      </trkpt>
      <trkpt lat="44.53282" lon="0.62581">
        <ele>167.5</ele>
        <time>2017-01-22T10:22:57.000Z</time>
      </trkpt>
      <trkpt lat="44.53283" lon="0.62583">
        <ele>167.4</ele>
        <time>2017-01-22T10:22:58.000Z</time>
      </trkpt>
      <trkpt lat="44.53284" lon="0.62585">
        <ele>167.2</ele>
        <time>2017-01-22T10:22:59.000Z</time>
      </trkpt>
      <trkpt lat="44.53284" lon="0.62587">
        <ele>167.1</ele>
        <time>2017-01-22T10:23:00.000Z</time>
      </trkpt>
      <trkpt lat="44.53285" lon="0.62589">
        <ele>166.9</ele>
        <time>2017-01-22T10:23:01.000Z</time>
      </trkpt>
      <trkpt lat="44.53287" lon="0.62591">
        <ele>166.7</ele>
        <time>2017-01-22T10:23:02.000Z</time>
      </trkpt>
      <trkpt lat="44.53289" lon="0.62593">
        <ele>166.5</ele>
        <time>2017-01-22T10:23:03.000Z</time>
      </trkpt>
      <trkpt lat="44.53291" lon="0.62596">
        <ele>166.3</ele>
        <time>2017-01-22T10:23:04.000Z</time>
      </trkpt>
      <trkpt lat="44.53294" lon="0.62599">
        <ele>166</ele>
        <time>2017-01-22T10:23:05.000Z</time>
      </trkpt>
      <trkpt lat="44.53296" lon="0.62602">
        <ele>165.8</ele>
        <time>2017-01-22T10:23:06.000Z</time>
      </trkpt>
      <trkpt lat="44.53299" lon="0.62605">
        <ele>165.5</ele>
        <time>2017-01-22T10:23:07.000Z</time>
      </trkpt>
      <trkpt lat="44.53301" lon="0.6261">
        <ele>165.1</ele>
        <time>2017-01-22T10:23:08.000Z</time>
      </trkpt>
      <trkpt lat="44.53304" lon="0.62614">
        <ele>164.7</ele>
        <time>2017-01-22T10:23:09.000Z</time>
      </trkpt>
      <trkpt lat="44.53307" lon="0.6262">
        <ele>164.2</ele>
        <time>2017-01-22T10:23:10.000Z</time>
      </trkpt>
      <trkpt lat="44.53311" lon="0.62625">
        <ele>163.7</ele>
        <time>2017-01-22T10:23:11.000Z</time>
      </trkpt>
      <trkpt lat="44.53315" lon="0.62631">
        <ele>163.2</ele>
        <time>2017-01-22T10:23:12.000Z</time>
      </trkpt>
      <trkpt lat="44.5332" lon="0.62636">
        <ele>162.7</ele>
        <time>2017-01-22T10:23:13.000Z</time>
      </trkpt>
      <trkpt lat="44.53326" lon="0.62641">
        <ele>162.4</ele>
        <time>2017-01-22T10:23:14.000Z</time>
      </trkpt>
      <trkpt lat="44.53333" lon="0.62645">
        <ele>162.1</ele>
        <time>2017-01-22T10:23:15.000Z</time>
      </trkpt>
      <trkpt lat="44.5334" lon="0.62647">
        <ele>161.7</ele>
        <time>2017-01-22T10:23:16.000Z</time>
      </trkpt>
      <trkpt lat="44.53347" lon="0.62649">
        <ele>161.3</ele>
        <time>2017-01-22T10:23:17.000Z</time>
      </trkpt>
      <trkpt lat="44.53355" lon="0.62652">
        <ele>160.9</ele>
        <time>2017-01-22T10:23:18.000Z</time>
      </trkpt>
      <trkpt lat="44.53362" lon="0.62655">
        <ele>160.4</ele>
        <time>2017-01-22T10:23:19.000Z</time>
      </trkpt>
      <trkpt lat="44.53369" lon="0.62659">
        <ele>159.9</ele>
        <time>2017-01-22T10:23:20.000Z</time>
      </trkpt>
      <trkpt lat="44.53377" lon="0.62663">
        <ele>159.3</ele>
        <time>2017-01-22T10:23:21.000Z</time>
      </trkpt>
      <trkpt lat="44.53384" lon="0.62667">
        <ele>158.8</ele>
        <time>2017-01-22T10:23:22.000Z</time>
      </trkpt>
      <trkpt lat="44.53391" lon="0.62672">
        <ele>158.3</ele>
        <time>2017-01-22T10:23:23.000Z</time>
      </trkpt>
      <trkpt lat="44.53399" lon="0.62676">
        <ele>157.9</ele>
        <time>2017-01-22T10:23:24.000Z</time>
      </trkpt>
      <trkpt lat="44.53406" lon="0.6268">
        <ele>157.6</ele>
        <time>2017-01-22T10:23:25.000Z</time>
      </trkpt>
      <trkpt lat="44.53413" lon="0.62683">
        <ele>157.3</ele>
        <time>2017-01-22T10:23:26.000Z</time>
      </trkpt>
      <trkpt lat="44.5342" lon="0.62684">
        <ele>157.2</ele>
        <time>2017-01-22T10:23:27.000Z</time>
      </trkpt>
      <trkpt lat="44.53426" lon="0.62684">
        <ele>157.4</ele>
        <time>2017-01-22T10:23:28.000Z</time>
      </trkpt>
      <trkpt lat="44.53433" lon="0.62684">
        <ele>157.5</ele>
        <time>2017-01-22T10:23:29.000Z</time>
      </trkpt>
      <trkpt lat="44.53438" lon="0.62683">
        <ele>157.7</ele>
        <time>2017-01-22T10:23:30.000Z</time>
      </trkpt>
      <trkpt lat="44.53444" lon="0.62682">
        <ele>157.9</ele>
        <time>2017-01-22T10:23:31.000Z</time>
      </trkpt>
      <trkpt lat="44.53448" lon="0.6268">
        <ele>158.1</ele>
        <time>2017-01-22T10:23:32.000Z</time>
      </trkpt>
      <trkpt lat="44.53453" lon="0.62678">
        <ele>158.3</ele>
        <time>2017-01-22T10:23:33.000Z</time>
      </trkpt>
      <trkpt lat="44.53458" lon="0.62676">
        <ele>158.5</ele>
        <time>2017-01-22T10:23:34.000Z</time>
      </trkpt>
      <trkpt lat="44.53462" lon="0.62673">
        <ele>158.7</ele>
        <time>2017-01-22T10:23:35.000Z</time>
      </trkpt>
      <trkpt lat="44.53466" lon="0.62671">
        <ele>159</ele>
        <time>2017-01-22T10:23:36.000Z</time>
      </trkpt>
      <trkpt lat="44.5347" lon="0.62667">
        <ele>159.2</ele>
        <time>2017-01-22T10:23:37.000Z</time>
      </trkpt>
      <trkpt lat="44.53475" lon="0.62664">
        <ele>159.6</ele>
        <time>2017-01-22T10:23:38.000Z</time>
      </trkpt>
      <trkpt lat="44.53479" lon="0.62661">
        <ele>159.9</ele>
        <time>2017-01-22T10:23:39.000Z</time>
      </trkpt>
      <trkpt lat="44.53482" lon="0.62658">
        <ele>160.2</ele>
        <time>2017-01-22T10:23:40.000Z</time>
      </trkpt>
      <trkpt lat="44.53486" lon="0.62654">
        <ele>160.4</ele>
        <time>2017-01-22T10:23:41.000Z</time>
      </trkpt>
      <trkpt lat="44.53489" lon="0.62651">
        <ele>160.7</ele>
        <time>2017-01-22T10:23:42.000Z</time>
      </trkpt>
      <trkpt lat="44.53493" lon="0.62648">
        <ele>161</ele>
        <time>2017-01-22T10:23:43.000Z</time>
      </trkpt>
      <trkpt lat="44.53496" lon="0.62645">
        <ele>161.2</ele>
        <time>2017-01-22T10:23:44.000Z</time>
      </trkpt>
      <trkpt lat="44.53499" lon="0.62642">
        <ele>161.4</ele>
        <time>2017-01-22T10:23:45.000Z</time>
      </trkpt>
      <trkpt lat="44.53503" lon="0.6264">
        <ele>161.6</ele>
        <time>2017-01-22T10:23:46.000Z</time>
      </trkpt>
      <trkpt lat="44.53506" lon="0.62637">
        <ele>161.7</ele>
        <time>2017-01-22T10:23:47.000Z</time>
      </trkpt>
      <trkpt lat="44.53509" lon="0.62634">
        <ele>161.9</ele>
        <time>2017-01-22T10:23:48.000Z</time>
      </trkpt>
      <trkpt lat="44.53511" lon="0.62631">
        <ele>162.1</ele>
        <time>2017-01-22T10:23:49.000Z</time>
      </trkpt>
      <trkpt lat="44.53513" lon="0.62627">
        <ele>162.2</ele>
        <time>2017-01-22T10:23:50.000Z</time>
      </trkpt>
      <trkpt lat="44.53515" lon="0.62623">
        <ele>162.4</ele>
        <time>2017-01-22T10:23:51.000Z</time>
      </trkpt>
      <trkpt lat="44.53516" lon="0.62619">
        <ele>162.6</ele>
        <time>2017-01-22T10:23:52.000Z</time>
      </trkpt>
      <trkpt lat="44.53517" lon="0.62615">
        <ele>162.8</ele>
        <time>2017-01-22T10:23:53.000Z</time>
      </trkpt>
      <trkpt lat="44.53519" lon="0.62611">
        <ele>163.1</ele>
        <time>2017-01-22T10:23:54.000Z</time>
      </trkpt>
      <trkpt lat="44.5352" lon="0.62606">
        <ele>163.3</ele>
        <time>2017-01-22T10:23:55.000Z</time>
      </trkpt>
      <trkpt lat="44.53521" lon="0.62602">
        <ele>163.5</ele>
        <time>2017-01-22T10:23:56.000Z</time>
      </trkpt>
      <trkpt lat="44.53522" lon="0.62598">
        <ele>163.7</ele>
        <time>2017-01-22T10:23:57.000Z</time>
      </trkpt>
      <trkpt lat="44.53524" lon="0.62593">
        <ele>163.9</ele>
        <time>2017-01-22T10:23:58.000Z</time>
      </trkpt>
      <trkpt lat="44.53526" lon="0.62589">
        <ele>164.1</ele>
        <time>2017-01-22T10:23:59.000Z</time>
      </trkpt>
      <trkpt lat="44.53527" lon="0.62585">
        <ele>164.3</ele>
        <time>2017-01-22T10:24:00.000Z</time>
      </trkpt>
      <trkpt lat="44.53529" lon="0.62581">
        <ele>164.5</ele>
        <time>2017-01-22T10:24:01.000Z</time>
      </trkpt>
      <trkpt lat="44.5353" lon="0.62577">
        <ele>164.8</ele>
        <time>2017-01-22T10:24:02.000Z</time>
      </trkpt>
      <trkpt lat="44.53532" lon="0.62572">
        <ele>165</ele>
        <time>2017-01-22T10:24:03.000Z</time>
      </trkpt>
      <trkpt lat="44.53533" lon="0.62568">
        <ele>165.3</ele>
        <time>2017-01-22T10:24:04.000Z</time>
      </trkpt>
      <trkpt lat="44.53535" lon="0.62564">
        <ele>165.5</ele>
        <time>2017-01-22T10:24:05.000Z</time>
      </trkpt>
      <trkpt lat="44.53536" lon="0.6256">
        <ele>165.8</ele>
        <time>2017-01-22T10:24:06.000Z</time>
      </trkpt>
      <trkpt lat="44.53538" lon="0.62556">
        <ele>166</ele>
        <time>2017-01-22T10:24:07.000Z</time>
      </trkpt>
      <trkpt lat="44.5354" lon="0.62552">
        <ele>166.2</ele>
        <time>2017-01-22T10:24:08.000Z</time>
      </trkpt>
      <trkpt lat="44.53541" lon="0.62548">
        <ele>166.3</ele>
        <time>2017-01-22T10:24:09.000Z</time>
      </trkpt>
      <trkpt lat="44.53543" lon="0.62545">
        <ele>166.4</ele>
        <time>2017-01-22T10:24:10.000Z</time>
      </trkpt>
      <trkpt lat="44.53545" lon="0.62543">
        <ele>166.5</ele>
        <time>2017-01-22T10:24:11.000Z</time>
      </trkpt>
      <trkpt lat="44.53547" lon="0.62541">
        <ele>166.5</ele>
        <time>2017-01-22T10:24:12.000Z</time>
      </trkpt>
      <trkpt lat="44.53549" lon="0.6254">
        <ele>166.4</ele>
        <time>2017-01-22T10:24:13.000Z</time>
      </trkpt>
      <trkpt lat="44.53551" lon="0.62541">
        <ele>166.3</ele>
        <time>2017-01-22T10:24:14.000Z</time>
      </trkpt>
      <trkpt lat="44.53553" lon="0.62542">
        <ele>166.1</ele>
        <time>2017-01-22T10:24:15.000Z</time>
      </trkpt>
      <trkpt lat="44.53553" lon="0.62543">
        <ele>166</ele>
        <time>2017-01-22T10:24:16.000Z</time>
      </trkpt>
      <trkpt lat="44.53554" lon="0.62543">
        <ele>166</ele>
        <time>2017-01-22T10:24:17.000Z</time>
      </trkpt>
      <trkpt lat="44.53554" lon="0.62543">
        <ele>166</ele>
        <time>2017-01-22T10:24:18.000Z</time>
      </trkpt>
      <trkpt lat="44.53555" lon="0.62543">
        <ele>166</ele>
        <time>2017-01-22T10:24:19.000Z</time>
      </trkpt>
      <trkpt lat="44.53555" lon="0.62542">
        <ele>166</ele>
        <time>2017-01-22T10:24:20.000Z</time>
      </trkpt>
      <trkpt lat="44.53557" lon="0.62542">
        <ele>165.9</ele>
        <time>2017-01-22T10:24:21.000Z</time>
      </trkpt>
      <trkpt lat="44.53559" lon="0.62541">
        <ele>165.9</ele>
        <time>2017-01-22T10:24:22.000Z</time>
      </trkpt>
      <trkpt lat="44.5356" lon="0.62538">
        <ele>165.9</ele>
        <time>2017-01-22T10:24:23.000Z</time>
      </trkpt>
      <trkpt lat="44.53562" lon="0.62535">
        <ele>166</ele>
        <time>2017-01-22T10:24:24.000Z</time>
      </trkpt>
      <trkpt lat="44.53564" lon="0.62531">
        <ele>166.1</ele>
        <time>2017-01-22T10:24:25.000Z</time>
      </trkpt>
      <trkpt lat="44.53566" lon="0.62527">
        <ele>166.2</ele>
        <time>2017-01-22T10:24:26.000Z</time>
      </trkpt>
      <trkpt lat="44.53569" lon="0.62522">
        <ele>166.2</ele>
        <time>2017-01-22T10:24:27.000Z</time>
      </trkpt>
      <trkpt lat="44.53573" lon="0.62518">
        <ele>166.1</ele>
        <time>2017-01-22T10:24:28.000Z</time>
      </trkpt>
      <trkpt lat="44.53578" lon="0.62517">
        <ele>165.8</ele>
        <time>2017-01-22T10:24:29.000Z</time>
      </trkpt>
      <trkpt lat="44.53584" lon="0.62519">
        <ele>165.3</ele>
        <time>2017-01-22T10:24:30.000Z</time>
      </trkpt>
      <trkpt lat="44.53589" lon="0.62521">
        <ele>164.7</ele>
        <time>2017-01-22T10:24:31.000Z</time>
      </trkpt>
      <trkpt lat="44.53593" lon="0.62521">
        <ele>164.4</ele>
        <time>2017-01-22T10:24:32.000Z</time>
      </trkpt>
      <trkpt lat="44.53597" lon="0.62518">
        <ele>164.1</ele>
        <time>2017-01-22T10:24:33.000Z</time>
      </trkpt>
      <trkpt lat="44.536" lon="0.62515">
        <ele>163.9</ele>
        <time>2017-01-22T10:24:34.000Z</time>
      </trkpt>
      <trkpt lat="44.53603" lon="0.62512">
        <ele>163.8</ele>
        <time>2017-01-22T10:24:35.000Z</time>
      </trkpt>
      <trkpt lat="44.53605" lon="0.62509">
        <ele>163.6</ele>
        <time>2017-01-22T10:24:36.000Z</time>
      </trkpt>
      <trkpt lat="44.53607" lon="0.62506">
        <ele>163.5</ele>
        <time>2017-01-22T10:24:37.000Z</time>
      </trkpt>
      <trkpt lat="44.53609" lon="0.62503">
        <ele>163.4</ele>
        <time>2017-01-22T10:24:38.000Z</time>
      </trkpt>
      <trkpt lat="44.53612" lon="0.62499">
        <ele>163.3</ele>
        <time>2017-01-22T10:24:39.000Z</time>
      </trkpt>
      <trkpt lat="44.53614" lon="0.62496">
        <ele>163.3</ele>
        <time>2017-01-22T10:24:40.000Z</time>
      </trkpt>
      <trkpt lat="44.53616" lon="0.62493">
        <ele>163.3</ele>
        <time>2017-01-22T10:24:41.000Z</time>
      </trkpt>
      <trkpt lat="44.53619" lon="0.6249">
        <ele>163.2</ele>
        <time>2017-01-22T10:24:42.000Z</time>
      </trkpt>
      <trkpt lat="44.53622" lon="0.62487">
        <ele>163.1</ele>
        <time>2017-01-22T10:24:43.000Z</time>
      </trkpt>
      <trkpt lat="44.53625" lon="0.62485">
        <ele>163</ele>
        <time>2017-01-22T10:24:44.000Z</time>
      </trkpt>
      <trkpt lat="44.53628" lon="0.62482">
        <ele>162.9</ele>
        <time>2017-01-22T10:24:45.000Z</time>
      </trkpt>
      <trkpt lat="44.53631" lon="0.62479">
        <ele>162.8</ele>
        <time>2017-01-22T10:24:46.000Z</time>
      </trkpt>
      <trkpt lat="44.53634" lon="0.62477">
        <ele>162.7</ele>
        <time>2017-01-22T10:24:47.000Z</time>
      </trkpt>
      <trkpt lat="44.53637" lon="0.62474">
        <ele>162.6</ele>
        <time>2017-01-22T10:24:48.000Z</time>
      </trkpt>
      <trkpt lat="44.5364" lon="0.62471">
        <ele>162.6</ele>
        <time>2017-01-22T10:24:49.000Z</time>
      </trkpt>
      <trkpt lat="44.5364" lon="0.62469">
        <ele>162.7</ele>
        <time>2017-01-22T10:24:50.000Z</time>
      </trkpt>
      <trkpt lat="44.5364" lon="0.62467">
        <ele>162.8</ele>
        <time>2017-01-22T10:24:51.000Z</time>
      </trkpt>
      <trkpt lat="44.5364" lon="0.62466">
        <ele>162.9</ele>
        <time>2017-01-22T10:24:52.000Z</time>
      </trkpt>
      <trkpt lat="44.5364" lon="0.62466">
        <ele>162.9</ele>
        <time>2017-01-22T10:24:53.000Z</time>
      </trkpt>
      <trkpt lat="44.5364" lon="0.62466">
        <ele>162.9</ele>
        <time>2017-01-22T10:24:54.000Z</time>
      </trkpt>
      <trkpt lat="44.5364" lon="0.62466">
        <ele>162.9</ele>
        <time>2017-01-22T10:24:55.000Z</time>
      </trkpt>
      <trkpt lat="44.5364" lon="0.62466">
        <ele>162.9</ele>
        <time>2017-01-22T10:24:56.000Z</time>
      </trkpt>
      <trkpt lat="44.5364" lon="0.62466">
        <ele>162.9</ele>
        <time>2017-01-22T10:24:57.000Z</time>
      </trkpt>
      <trkpt lat="44.5364" lon="0.62466">
        <ele>162.9</ele>
        <time>2017-01-22T10:24:58.000Z</time>
      </trkpt>
      <trkpt lat="44.5364" lon="0.62466">
        <ele>162.9</ele>
        <time>2017-01-22T10:24:59.000Z</time>
      </trkpt>
      <trkpt lat="44.5364" lon="0.62466">
        <ele>162.9</ele>
        <time>2017-01-22T10:25:00.000Z</time>
      </trkpt>
      <trkpt lat="44.5364" lon="0.62466">
        <ele>162.9</ele>
        <time>2017-01-22T10:25:01.000Z</time>
      </trkpt>
      <trkpt lat="44.5364" lon="0.62465">
        <ele>163</ele>
        <time>2017-01-22T10:25:02.000Z</time>
      </trkpt>
      <trkpt lat="44.5364" lon="0.62465">
        <ele>163</ele>
        <time>2017-01-22T10:25:03.000Z</time>
      </trkpt>
      <trkpt lat="44.5364" lon="0.62465">
        <ele>163</ele>
        <time>2017-01-22T10:25:04.000Z</time>
      </trkpt>
      <trkpt lat="44.5364" lon="0.62465">
        <ele>163</ele>
        <time>2017-01-22T10:25:05.000Z</time>
      </trkpt>
      <trkpt lat="44.5364" lon="0.62465">
        <ele>163</ele>
        <time>2017-01-22T10:25:06.000Z</time>
      </trkpt>
      <trkpt lat="44.5364" lon="0.62465">
        <ele>163</ele>
        <time>2017-01-22T10:25:07.000Z</time>
      </trkpt>
      <trkpt lat="44.5364" lon="0.62465">
        <ele>163</ele>
        <time>2017-01-22T10:25:08.000Z</time>
      </trkpt>
      <trkpt lat="44.5364" lon="0.62465">
        <ele>163</ele>
        <time>2017-01-22T10:25:09.000Z</time>
      </trkpt>
      <trkpt lat="44.5364" lon="0.62465">
        <ele>163</ele>
        <time>2017-01-22T10:25:10.000Z</time>
      </trkpt>
      <trkpt lat="44.5364" lon="0.62465">
        <ele>163</ele>
        <time>2017-01-22T10:25:11.000Z</time>
      </trkpt>
      <trkpt lat="44.5364" lon="0.62465">
        <ele>163</ele>
        <time>2017-01-22T10:25:12.000Z</time>
      </trkpt>
      <trkpt lat="44.5364" lon="0.62465">
        <ele>163</ele>
        <time>2017-01-22T10:25:13.000Z</time>
      </trkpt>
      <trkpt lat="44.5364" lon="0.62465">
        <ele>163</ele>
        <time>2017-01-22T10:25:14.000Z</time>
      </trkpt>
      <trkpt lat="44.5364" lon="0.62465">
        <ele>163</ele>
        <time>2017-01-22T10:25:15.000Z</time>
      </trkpt>
      <trkpt lat="44.5364" lon="0.62465">
        <ele>163</ele>
        <time>2017-01-22T10:25:16.000Z</time>
      </trkpt>
      <trkpt lat="44.5364" lon="0.62465">
        <ele>163</ele>
        <time>2017-01-22T10:25:17.000Z</time>
      </trkpt>
      <trkpt lat="44.5364" lon="0.62465">
        <ele>163</ele>
        <time>2017-01-22T10:25:18.000Z</time>
      </trkpt>
      <trkpt lat="44.5364" lon="0.62465">
        <ele>163</ele>
        <time>2017-01-22T10:25:19.000Z</time>
      </trkpt>
      <trkpt lat="44.5364" lon="0.62465">
        <ele>163</ele>
        <time>2017-01-22T10:25:20.000Z</time>
      </trkpt>
      <trkpt lat="44.5364" lon="0.62465">
        <ele>163</ele>
        <time>2017-01-22T10:25:21.000Z</time>
      </trkpt>
      <trkpt lat="44.5364" lon="0.62465">
        <ele>163</ele>
        <time>2017-01-22T10:25:22.000Z</time>
      </trkpt>
      <trkpt lat="44.5364" lon="0.62465">
        <ele>163</ele>
        <time>2017-01-22T10:25:23.000Z</time>
      </trkpt>
      <trkpt lat="44.5364" lon="0.62465">
        <ele>163</ele>
        <time>2017-01-22T10:25:24.000Z</time>
      </trkpt>
      <trkpt lat="44.5364" lon="0.62465">
        <ele>163</ele>
        <time>2017-01-22T10:25:25.000Z</time>
      </trkpt>
      <trkpt lat="44.5364" lon="0.62465">
        <ele>163</ele>
        <time>2017-01-22T10:25:26.000Z</time>
      </trkpt>
      <trkpt lat="44.5364" lon="0.62465">
        <ele>163</ele>
        <time>2017-01-22T10:25:27.000Z</time>
      </trkpt>
      <trkpt lat="44.5364" lon="0.62465">
        <ele>163</ele>
        <time>2017-01-22T10:25:28.000Z</time>
      </trkpt>
      <trkpt lat="44.5364" lon="0.62465">
        <ele>163</ele>
        <time>2017-01-22T10:25:29.000Z</time>
      </trkpt>
      <trkpt lat="44.5364" lon="0.62465">
        <ele>163</ele>
        <time>2017-01-22T10:25:30.000Z</time>
      </trkpt>
      <trkpt lat="44.5364" lon="0.62465">
        <ele>163</ele>
        <time>2017-01-22T10:25:31.000Z</time>
      </trkpt>
      <trkpt lat="44.5364" lon="0.62465">
        <ele>163</ele>
        <time>2017-01-22T10:25:32.000Z</time>
      </trkpt>
      <trkpt lat="44.5364" lon="0.62465">
        <ele>163</ele>
        <time>2017-01-22T10:25:33.000Z</time>
      </trkpt>
      <trkpt lat="44.5364" lon="0.62465">
        <ele>163</ele>
        <time>2017-01-22T10:25:34.000Z</time>
      </trkpt>
      <trkpt lat="44.5364" lon="0.62465">
        <ele>163</ele>
        <time>2017-01-22T10:25:35.000Z</time>
      </trkpt>
      <trkpt lat="44.5364" lon="0.62465">
        <ele>163</ele>
        <time>2017-01-22T10:25:36.000Z</time>
      </trkpt>
      <trkpt lat="44.5364" lon="0.62465">
        <ele>163</ele>
        <time>2017-01-22T10:25:37.000Z</time>
      </trkpt>
      <trkpt lat="44.5364" lon="0.62465">
        <ele>163</ele>
        <time>2017-01-22T10:25:38.000Z</time>
      </trkpt>
      <trkpt lat="44.5364" lon="0.62465">
        <ele>163</ele>
        <time>2017-01-22T10:25:39.000Z</time>
      </trkpt>
      <trkpt lat="44.5364" lon="0.62465">
        <ele>163</ele>
        <time>2017-01-22T10:25:40.000Z</time>
      </trkpt>
      <trkpt lat="44.5364" lon="0.62465">
        <ele>163</ele>
        <time>2017-01-22T10:25:41.000Z</time>
      </trkpt>
      <trkpt lat="44.5364" lon="0.62465">
        <ele>163</ele>
        <time>2017-01-22T10:25:42.000Z</time>
      </trkpt>
      <trkpt lat="44.5364" lon="0.62465">
        <ele>163</ele>
        <time>2017-01-22T10:25:43.000Z</time>
      </trkpt>
      <trkpt lat="44.5364" lon="0.62465">
        <ele>163</ele>
        <time>2017-01-22T10:25:44.000Z</time>
      </trkpt>
      <trkpt lat="44.5364" lon="0.62465">
        <ele>163</ele>
        <time>2017-01-22T10:25:45.000Z</time>
      </trkpt>
      <trkpt lat="44.5364" lon="0.62465">
        <ele>163</ele>
        <time>2017-01-22T10:25:46.000Z</time>
      </trkpt>
      <trkpt lat="44.5364" lon="0.62465">
        <ele>163</ele>
        <time>2017-01-22T10:25:47.000Z</time>
      </trkpt>
      <trkpt lat="44.5364" lon="0.62465">
        <ele>163</ele>
        <time>2017-01-22T10:25:48.000Z</time>
      </trkpt>
      <trkpt lat="44.5364" lon="0.62465">
        <ele>163</ele>
        <time>2017-01-22T10:25:49.000Z</time>
      </trkpt>
      <trkpt lat="44.5364" lon="0.62465">
        <ele>163</ele>
        <time>2017-01-22T10:25:50.000Z</time>
      </trkpt>
      <trkpt lat="44.5364" lon="0.62465">
        <ele>163</ele>
        <time>2017-01-22T10:25:51.000Z</time>
      </trkpt>
      <trkpt lat="44.5364" lon="0.62465">
        <ele>163</ele>
        <time>2017-01-22T10:25:52.000Z</time>
      </trkpt>
      <trkpt lat="44.5364" lon="0.62465">
        <ele>163</ele>
        <time>2017-01-22T10:25:53.000Z</time>
      </trkpt>
      <trkpt lat="44.5364" lon="0.62465">
        <ele>163</ele>
        <time>2017-01-22T10:25:54.000Z</time>
      </trkpt>
      <trkpt lat="44.5364" lon="0.62465">
        <ele>163</ele>
        <time>2017-01-22T10:25:55.000Z</time>
      </trkpt>
      <trkpt lat="44.5364" lon="0.62465">
        <ele>163</ele>
        <time>2017-01-22T10:25:56.000Z</time>
      </trkpt>
      <trkpt lat="44.5364" lon="0.62465">
        <ele>163</ele>
        <time>2017-01-22T10:25:57.000Z</time>
      </trkpt>
      <trkpt lat="44.5364" lon="0.62465">
        <ele>163</ele>
        <time>2017-01-22T10:25:58.000Z</time>
      </trkpt>
      <trkpt lat="44.5364" lon="0.62465">
        <ele>163</ele>
        <time>2017-01-22T10:25:59.000Z</time>
      </trkpt>
      <trkpt lat="44.5364" lon="0.62465">
        <ele>163</ele>
        <time>2017-01-22T10:26:00.000Z</time>
      </trkpt>
      <trkpt lat="44.5364" lon="0.62465">
        <ele>163</ele>
        <time>2017-01-22T10:26:01.000Z</time>
      </trkpt>
      <trkpt lat="44.5364" lon="0.62465">
        <ele>163</ele>
        <time>2017-01-22T10:26:02.000Z</time>
      </trkpt>
      <trkpt lat="44.5364" lon="0.62465">
        <ele>163</ele>
        <time>2017-01-22T10:26:03.000Z</time>
      </trkpt>
      <trkpt lat="44.5364" lon="0.62465">
        <ele>163</ele>
        <time>2017-01-22T10:26:04.000Z</time>
      </trkpt>
      <trkpt lat="44.5364" lon="0.62465">
        <ele>163</ele>
        <time>2017-01-22T10:26:05.000Z</time>
      </trkpt>
      <trkpt lat="44.5364" lon="0.62465">
        <ele>163</ele>
        <time>2017-01-22T10:26:06.000Z</time>
      </trkpt>
      <trkpt lat="44.5364" lon="0.62465">
        <ele>163</ele>
        <time>2017-01-22T10:26:07.000Z</time>
      </trkpt>
      <trkpt lat="44.5364" lon="0.62465">
        <ele>163</ele>
        <time>2017-01-22T10:26:08.000Z</time>
      </trkpt>
      <trkpt lat="44.5364" lon="0.62465">
        <ele>163</ele>
        <time>2017-01-22T10:26:09.000Z</time>
      </trkpt>
      <trkpt lat="44.5364" lon="0.62465">
        <ele>163</ele>
        <time>2017-01-22T10:26:10.000Z</time>
      </trkpt>
      <trkpt lat="44.5364" lon="0.62465">
        <ele>163</ele>
        <time>2017-01-22T10:26:11.000Z</time>
      </trkpt>
      <trkpt lat="44.5364" lon="0.62465">
        <ele>163</ele>
        <time>2017-01-22T10:26:12.000Z</time>
      </trkpt>
      <trkpt lat="44.5364" lon="0.62465">
        <ele>163</ele>
        <time>2017-01-22T10:26:13.000Z</time>
      </trkpt>
      <trkpt lat="44.5364" lon="0.62465">
        <ele>163</ele>
        <time>2017-01-22T10:26:14.000Z</time>
      </trkpt>
      <trkpt lat="44.5364" lon="0.62465">
        <ele>163</ele>
        <time>2017-01-22T10:26:15.000Z</time>
      </trkpt>
      <trkpt lat="44.5364" lon="0.62465">
        <ele>163</ele>
        <time>2017-01-22T10:26:16.000Z</time>
      </trkpt>
      <trkpt lat="44.5364" lon="0.62465">
        <ele>163</ele>
        <time>2017-01-22T10:26:17.000Z</time>
      </trkpt>
      <trkpt lat="44.5364" lon="0.62465">
        <ele>163</ele>
        <time>2017-01-22T10:26:18.000Z</time>
      </trkpt>
      <trkpt lat="44.5364" lon="0.62465">
        <ele>163</ele>
        <time>2017-01-22T10:26:19.000Z</time>
      </trkpt>
      <trkpt lat="44.5364" lon="0.62465">
        <ele>163</ele>
        <time>2017-01-22T10:26:20.000Z</time>
      </trkpt>
      <trkpt lat="44.5364" lon="0.62465">
        <ele>163</ele>
        <time>2017-01-22T10:26:21.000Z</time>
      </trkpt>
      <trkpt lat="44.5364" lon="0.62465">
        <ele>163</ele>
        <time>2017-01-22T10:26:22.000Z</time>
      </trkpt>
      <trkpt lat="44.5364" lon="0.62465">
        <ele>163</ele>
        <time>2017-01-22T10:26:23.000Z</time>
      </trkpt>
      <trkpt lat="44.5364" lon="0.62465">
        <ele>163</ele>
        <time>2017-01-22T10:26:24.000Z</time>
      </trkpt>
      <trkpt lat="44.5364" lon="0.62465">
        <ele>163</ele>
        <time>2017-01-22T10:26:25.000Z</time>
      </trkpt>
      <trkpt lat="44.5364" lon="0.62465">
        <ele>163</ele>
        <time>2017-01-22T10:26:26.000Z</time>
      </trkpt>
      <trkpt lat="44.5364" lon="0.62465">
        <ele>163</ele>
        <time>2017-01-22T10:26:27.000Z</time>
      </trkpt>
      <trkpt lat="44.5364" lon="0.62465">
        <ele>163</ele>
        <time>2017-01-22T10:26:28.000Z</time>
      </trkpt>
      <trkpt lat="44.5364" lon="0.62465">
        <ele>163</ele>
        <time>2017-01-22T10:26:29.000Z</time>
      </trkpt>
      <trkpt lat="44.5364" lon="0.62465">
        <ele>163</ele>
        <time>2017-01-22T10:26:30.000Z</time>
      </trkpt>
      <trkpt lat="44.5364" lon="0.62465">
        <ele>163</ele>
        <time>2017-01-22T10:26:31.000Z</time>
      </trkpt>
      <trkpt lat="44.5364" lon="0.62465">
        <ele>163</ele>
        <time>2017-01-22T10:26:32.000Z</time>
      </trkpt>
      <trkpt lat="44.5364" lon="0.62465">
        <ele>163</ele>
        <time>2017-01-22T10:26:33.000Z</time>
      </trkpt>
      <trkpt lat="44.5364" lon="0.62465">
        <ele>163</ele>
        <time>2017-01-22T10:26:34.000Z</time>
      </trkpt>
      <trkpt lat="44.5364" lon="0.62465">
        <ele>163</ele>
        <time>2017-01-22T10:26:35.000Z</time>
      </trkpt>
      <trkpt lat="44.5364" lon="0.62465">
        <ele>163</ele>
        <time>2017-01-22T10:26:36.000Z</time>
      </trkpt>
      <trkpt lat="44.5364" lon="0.62465">
        <ele>163</ele>
        <time>2017-01-22T10:26:37.000Z</time>
      </trkpt>
      <trkpt lat="44.5364" lon="0.62465">
        <ele>163</ele>
        <time>2017-01-22T10:26:38.000Z</time>
      </trkpt>
      <trkpt lat="44.5364" lon="0.62465">
        <ele>163</ele>
        <time>2017-01-22T10:26:39.000Z</time>
      </trkpt>
      <trkpt lat="44.5364" lon="0.62465">
        <ele>163</ele>
        <time>2017-01-22T10:26:40.000Z</time>
      </trkpt>
      <trkpt lat="44.5364" lon="0.62465">
        <ele>163</ele>
        <time>2017-01-22T10:26:41.000Z</time>
      </trkpt>
      <trkpt lat="44.5364" lon="0.62465">
        <ele>163</ele>
        <time>2017-01-22T10:26:42.000Z</time>
      </trkpt>
      <trkpt lat="44.5364" lon="0.62465">
        <ele>163</ele>
        <time>2017-01-22T10:26:43.000Z</time>
      </trkpt>
      <trkpt lat="44.5364" lon="0.62465">
        <ele>163</ele>
        <time>2017-01-22T10:26:44.000Z</time>
      </trkpt>
      <trkpt lat="44.5364" lon="0.62465">
        <ele>163</ele>
        <time>2017-01-22T10:26:45.000Z</time>
      </trkpt>
      <trkpt lat="44.5364" lon="0.62465">
        <ele>163</ele>
        <time>2017-01-22T10:26:46.000Z</time>
      </trkpt>
      <trkpt lat="44.5364" lon="0.62465">
        <ele>163</ele>
        <time>2017-01-22T10:26:47.000Z</time>
      </trkpt>
      <trkpt lat="44.5364" lon="0.62465">
        <ele>163</ele>
        <time>2017-01-22T10:26:48.000Z</time>
      </trkpt>
      <trkpt lat="44.5364" lon="0.62465">
        <ele>163</ele>
        <time>2017-01-22T10:26:49.000Z</time>
      </trkpt>
      <trkpt lat="44.5364" lon="0.62465">
        <ele>163</ele>
        <time>2017-01-22T10:26:50.000Z</time>
      </trkpt>
      <trkpt lat="44.5364" lon="0.62465">
        <ele>163</ele>
        <time>2017-01-22T10:26:51.000Z</time>
      </trkpt>
      <trkpt lat="44.5364" lon="0.62465">
        <ele>163</ele>
        <time>2017-01-22T10:26:52.000Z</time>
      </trkpt>
      <trkpt lat="44.5364" lon="0.62465">
        <ele>163</ele>
        <time>2017-01-22T10:26:53.000Z</time>
      </trkpt>
      <trkpt lat="44.5364" lon="0.62465">
        <ele>163</ele>
        <time>2017-01-22T10:26:54.000Z</time>
      </trkpt>
      <trkpt lat="44.5364" lon="0.62465">
        <ele>163</ele>
        <time>2017-01-22T10:26:55.000Z</time>
      </trkpt>
      <trkpt lat="44.5364" lon="0.62465">
        <ele>163</ele>
        <time>2017-01-22T10:26:56.000Z</time>
      </trkpt>
      <trkpt lat="44.5364" lon="0.62465">
        <ele>163</ele>
        <time>2017-01-22T10:26:57.000Z</time>
      </trkpt>
      <trkpt lat="44.5364" lon="0.62465">
        <ele>163</ele>
        <time>2017-01-22T10:26:58.000Z</time>
      </trkpt>
      <trkpt lat="44.5364" lon="0.62465">
        <ele>163</ele>
        <time>2017-01-22T10:26:59.000Z</time>
      </trkpt>
      <trkpt lat="44.5364" lon="0.62465">
        <ele>163</ele>
        <time>2017-01-22T10:27:00.000Z</time>
      </trkpt>
      <trkpt lat="44.5364" lon="0.62465">
        <ele>163</ele>
        <time>2017-01-22T10:27:01.000Z</time>
      </trkpt>
      <trkpt lat="44.5364" lon="0.62465">
        <ele>163</ele>
        <time>2017-01-22T10:27:02.000Z</time>
      </trkpt>
      <trkpt lat="44.5364" lon="0.62465">
        <ele>163</ele>
        <time>2017-01-22T10:27:03.000Z</time>
      </trkpt>
      <trkpt lat="44.5364" lon="0.62465">
        <ele>163</ele>
        <time>2017-01-22T10:27:04.000Z</time>
      </trkpt>
      <trkpt lat="44.5364" lon="0.62465">
        <ele>163</ele>
        <time>2017-01-22T10:27:05.000Z</time>
      </trkpt>
      <trkpt lat="44.5364" lon="0.62465">
        <ele>163</ele>
        <time>2017-01-22T10:27:06.000Z</time>
      </trkpt>
      <trkpt lat="44.5364" lon="0.62465">
        <ele>163</ele>
        <time>2017-01-22T10:27:07.000Z</time>
      </trkpt>
      <trkpt lat="44.5364" lon="0.62465">
        <ele>163</ele>
        <time>2017-01-22T10:27:08.000Z</time>
      </trkpt>
      <trkpt lat="44.5364" lon="0.62465">
        <ele>163</ele>
        <time>2017-01-22T10:27:09.000Z</time>
      </trkpt>
      <trkpt lat="44.5364" lon="0.62465">
        <ele>163</ele>
        <time>2017-01-22T10:27:10.000Z</time>
      </trkpt>
      <trkpt lat="44.5364" lon="0.62465">
        <ele>163</ele>
        <time>2017-01-22T10:27:11.000Z</time>
      </trkpt>
      <trkpt lat="44.5364" lon="0.62465">
        <ele>163</ele>
        <time>2017-01-22T10:27:12.000Z</time>
      </trkpt>
      <trkpt lat="44.5364" lon="0.62465">
        <ele>163</ele>
        <time>2017-01-22T10:27:13.000Z</time>
      </trkpt>
      <trkpt lat="44.5364" lon="0.62465">
        <ele>163</ele>
        <time>2017-01-22T10:27:14.000Z</time>
      </trkpt>
      <trkpt lat="44.5364" lon="0.62465">
        <ele>163</ele>
        <time>2017-01-22T10:27:15.000Z</time>
      </trkpt>
      <trkpt lat="44.5364" lon="0.62465">
        <ele>163</ele>
        <time>2017-01-22T10:27:16.000Z</time>
      </trkpt>
      <trkpt lat="44.5364" lon="0.62465">
        <ele>163</ele>
        <time>2017-01-22T10:27:17.000Z</time>
      </trkpt>
      <trkpt lat="44.5364" lon="0.62465">
        <ele>163</ele>
        <time>2017-01-22T10:27:18.000Z</time>
      </trkpt>
      <trkpt lat="44.5364" lon="0.62465">
        <ele>163</ele>
        <time>2017-01-22T10:27:19.000Z</time>
      </trkpt>
      <trkpt lat="44.5364" lon="0.62465">
        <ele>163</ele>
        <time>2017-01-22T10:27:20.000Z</time>
      </trkpt>
      <trkpt lat="44.5364" lon="0.62465">
        <ele>163</ele>
        <time>2017-01-22T10:27:21.000Z</time>
      </trkpt>
      <trkpt lat="44.5364" lon="0.62465">
        <ele>163</ele>
        <time>2017-01-22T10:27:22.000Z</time>
      </trkpt>
      <trkpt lat="44.5364" lon="0.62465">
        <ele>163</ele>
        <time>2017-01-22T10:27:23.000Z</time>
      </trkpt>
      <trkpt lat="44.5364" lon="0.62465">
        <ele>163</ele>
        <time>2017-01-22T10:27:24.000Z</time>
      </trkpt>
      <trkpt lat="44.5364" lon="0.62465">
        <ele>163</ele>
        <time>2017-01-22T10:27:25.000Z</time>
      </trkpt>
      <trkpt lat="44.5364" lon="0.62465">
        <ele>163</ele>
        <time>2017-01-22T10:27:26.000Z</time>
      </trkpt>
      <trkpt lat="44.5364" lon="0.62465">
        <ele>163</ele>
        <time>2017-01-22T10:27:27.000Z</time>
      </trkpt>
      <trkpt lat="44.5364" lon="0.62465">
        <ele>163</ele>
        <time>2017-01-22T10:27:28.000Z</time>
      </trkpt>
      <trkpt lat="44.5364" lon="0.62465">
        <ele>163</ele>
        <time>2017-01-22T10:27:29.000Z</time>
      </trkpt>
      <trkpt lat="44.5364" lon="0.62465">
        <ele>163</ele>
        <time>2017-01-22T10:27:30.000Z</time>
      </trkpt>
      <trkpt lat="44.5364" lon="0.62465">
        <ele>163</ele>
        <time>2017-01-22T10:27:31.000Z</time>
      </trkpt>
      <trkpt lat="44.5364" lon="0.62465">
        <ele>163</ele>
        <time>2017-01-22T10:27:32.000Z</time>
      </trkpt>
      <trkpt lat="44.5364" lon="0.62465">
        <ele>163</ele>
        <time>2017-01-22T10:27:33.000Z</time>
      </trkpt>
      <trkpt lat="44.5364" lon="0.62465">
        <ele>163</ele>
        <time>2017-01-22T10:27:34.000Z</time>
      </trkpt>
      <trkpt lat="44.5364" lon="0.62465">
        <ele>163</ele>
        <time>2017-01-22T10:27:35.000Z</time>
      </trkpt>
      <trkpt lat="44.5364" lon="0.62465">
        <ele>163</ele>
        <time>2017-01-22T10:27:36.000Z</time>
      </trkpt>
      <trkpt lat="44.5364" lon="0.62465">
        <ele>163</ele>
        <time>2017-01-22T10:27:37.000Z</time>
      </trkpt>
      <trkpt lat="44.5364" lon="0.62465">
        <ele>163</ele>
        <time>2017-01-22T10:27:38.000Z</time>
      </trkpt>
      <trkpt lat="44.5364" lon="0.62465">
        <ele>163</ele>
        <time>2017-01-22T10:27:39.000Z</time>
      </trkpt>
      <trkpt lat="44.5364" lon="0.62465">
        <ele>163</ele>
        <time>2017-01-22T10:27:40.000Z</time>
      </trkpt>
      <trkpt lat="44.5364" lon="0.62465">
        <ele>163</ele>
        <time>2017-01-22T10:27:41.000Z</time>
      </trkpt>
      <trkpt lat="44.5364" lon="0.62465">
        <ele>163</ele>
        <time>2017-01-22T10:27:42.000Z</time>
      </trkpt>
      <trkpt lat="44.5364" lon="0.62465">
        <ele>163</ele>
        <time>2017-01-22T10:27:43.000Z</time>
      </trkpt>
      <trkpt lat="44.5364" lon="0.62465">
        <ele>163</ele>
        <time>2017-01-22T10:27:44.000Z</time>
      </trkpt>
      <trkpt lat="44.5364" lon="0.62465">
        <ele>163</ele>
        <time>2017-01-22T10:27:45.000Z</time>
      </trkpt>
      <trkpt lat="44.5364" lon="0.62465">
        <ele>163</ele>
        <time>2017-01-22T10:27:46.000Z</time>
      </trkpt>
      <trkpt lat="44.5364" lon="0.62465">
        <ele>163</ele>
        <time>2017-01-22T10:27:47.000Z</time>
      </trkpt>
      <trkpt lat="44.5364" lon="0.62465">
        <ele>163</ele>
        <time>2017-01-22T10:27:48.000Z</time>
      </trkpt>
      <trkpt lat="44.5364" lon="0.62465">
        <ele>163</ele>
        <time>2017-01-22T10:27:49.000Z</time>
      </trkpt>
      <trkpt lat="44.5364" lon="0.62465">
        <ele>163</ele>
        <time>2017-01-22T10:27:50.000Z</time>
      </trkpt>
    </trkseg>
  </trk>
</gpx>